<?xml version="1.0" encoding="UTF-8" standalone="no" ?>
<gpx xmlns="http://www.topografix.com/GPX/1/1" xmlns:xsi="http://www.w3.org/2001/XMLSchema-instance" xsi:schemaLocation="http://www.topografix.com/GPX/1/1 http://www.topografix.com/GPX/1/1/gpx.xsd" version="1.1" creator="VisuGPX - https://www.visugpx.com">
  <metadata>
    <name>Cabrières / pic de Vissou</name>
    <desc><![CDATA[Cabrières / Pic du Vissou descente du Vissounel  ]]></desc>
  </metadata>
  <trk>
    <name><![CDATA[Cabrières / pic de Vissou_1]]></name>
    <trkseg>
      <trkpt lat="43.57738" lon="3.36256">
        <ele>167.5</ele>
        <time>2015-11-14T12:27:35Z</time>
      </trkpt>
      <trkpt lat="43.57737" lon="3.36256">
        <ele>167</ele>
        <time>2015-11-14T12:27:36Z</time>
      </trkpt>
      <trkpt lat="43.57735" lon="3.36259">
        <ele>166.5</ele>
        <time>2015-11-14T12:27:43Z</time>
      </trkpt>
      <trkpt lat="43.57735" lon="3.36258">
        <ele>167.5</ele>
        <time>2015-11-14T12:27:57Z</time>
      </trkpt>
      <trkpt lat="43.57736" lon="3.36258">
        <ele>167.5</ele>
        <time>2015-11-14T12:27:59Z</time>
      </trkpt>
      <trkpt lat="43.57736" lon="3.36258">
        <ele>168</ele>
        <time>2015-11-14T12:28:05Z</time>
      </trkpt>
      <trkpt lat="43.57736" lon="3.36258">
        <ele>168</ele>
        <time>2015-11-14T12:28:06Z</time>
      </trkpt>
      <trkpt lat="43.57736" lon="3.36258">
        <ele>168.5</ele>
        <time>2015-11-14T12:28:15Z</time>
      </trkpt>
      <trkpt lat="43.57735" lon="3.36259">
        <ele>168.5</ele>
        <time>2015-11-14T12:28:18Z</time>
      </trkpt>
      <trkpt lat="43.57735" lon="3.36259">
        <ele>168.5</ele>
        <time>2015-11-14T12:28:20Z</time>
      </trkpt>
      <trkpt lat="43.57734" lon="3.3626">
        <ele>169</ele>
        <time>2015-11-14T12:28:20Z</time>
      </trkpt>
      <trkpt lat="43.57732" lon="3.3626">
        <ele>169</ele>
        <time>2015-11-14T12:28:21Z</time>
      </trkpt>
      <trkpt lat="43.57732" lon="3.36259">
        <ele>169</ele>
        <time>2015-11-14T12:28:22Z</time>
      </trkpt>
      <trkpt lat="43.57731" lon="3.36259">
        <ele>168.5</ele>
        <time>2015-11-14T12:28:24Z</time>
      </trkpt>
      <trkpt lat="43.5773" lon="3.3626">
        <ele>169</ele>
        <time>2015-11-14T12:28:36Z</time>
      </trkpt>
      <trkpt lat="43.57731" lon="3.3626">
        <ele>169</ele>
        <time>2015-11-14T12:28:38Z</time>
      </trkpt>
      <trkpt lat="43.57729" lon="3.36261">
        <ele>169</ele>
        <time>2015-11-14T12:28:42Z</time>
      </trkpt>
      <trkpt lat="43.57729" lon="3.36261">
        <ele>169</ele>
        <time>2015-11-14T12:28:43Z</time>
      </trkpt>
      <trkpt lat="43.57729" lon="3.36262">
        <ele>169</ele>
        <time>2015-11-14T12:28:44Z</time>
      </trkpt>
      <trkpt lat="43.57727" lon="3.36263">
        <ele>169</ele>
        <time>2015-11-14T12:28:45Z</time>
      </trkpt>
      <trkpt lat="43.57726" lon="3.36263">
        <ele>169</ele>
        <time>2015-11-14T12:28:46Z</time>
      </trkpt>
      <trkpt lat="43.57725" lon="3.36264">
        <ele>169</ele>
        <time>2015-11-14T12:28:47Z</time>
      </trkpt>
      <trkpt lat="43.57725" lon="3.36265">
        <ele>169</ele>
        <time>2015-11-14T12:28:48Z</time>
      </trkpt>
      <trkpt lat="43.57724" lon="3.36266">
        <ele>169</ele>
        <time>2015-11-14T12:28:49Z</time>
      </trkpt>
      <trkpt lat="43.57724" lon="3.36267">
        <ele>169</ele>
        <time>2015-11-14T12:28:50Z</time>
      </trkpt>
      <trkpt lat="43.57723" lon="3.36267">
        <ele>169</ele>
        <time>2015-11-14T12:28:51Z</time>
      </trkpt>
      <trkpt lat="43.57722" lon="3.36268">
        <ele>169</ele>
        <time>2015-11-14T12:28:52Z</time>
      </trkpt>
      <trkpt lat="43.57722" lon="3.36268">
        <ele>169</ele>
        <time>2015-11-14T12:28:53Z</time>
      </trkpt>
      <trkpt lat="43.57722" lon="3.36268">
        <ele>169</ele>
        <time>2015-11-14T12:28:55Z</time>
      </trkpt>
      <trkpt lat="43.57722" lon="3.36268">
        <ele>169</ele>
        <time>2015-11-14T12:28:56Z</time>
      </trkpt>
      <trkpt lat="43.57722" lon="3.36268">
        <ele>169</ele>
        <time>2015-11-14T12:28:57Z</time>
      </trkpt>
      <trkpt lat="43.57721" lon="3.36268">
        <ele>169</ele>
        <time>2015-11-14T12:28:58Z</time>
      </trkpt>
      <trkpt lat="43.57721" lon="3.36267">
        <ele>169</ele>
        <time>2015-11-14T12:28:59Z</time>
      </trkpt>
      <trkpt lat="43.57722" lon="3.36267">
        <ele>169</ele>
        <time>2015-11-14T12:29:00Z</time>
      </trkpt>
      <trkpt lat="43.57722" lon="3.3627">
        <ele>169</ele>
        <time>2015-11-14T12:29:08Z</time>
      </trkpt>
      <trkpt lat="43.57722" lon="3.3627">
        <ele>169</ele>
        <time>2015-11-14T12:29:09Z</time>
      </trkpt>
      <trkpt lat="43.57723" lon="3.36269">
        <ele>169</ele>
        <time>2015-11-14T12:29:10Z</time>
      </trkpt>
      <trkpt lat="43.57724" lon="3.36269">
        <ele>169</ele>
        <time>2015-11-14T12:29:11Z</time>
      </trkpt>
      <trkpt lat="43.57725" lon="3.36268">
        <ele>169</ele>
        <time>2015-11-14T12:29:12Z</time>
      </trkpt>
      <trkpt lat="43.57723" lon="3.36269">
        <ele>169</ele>
        <time>2015-11-14T12:29:13Z</time>
      </trkpt>
      <trkpt lat="43.57722" lon="3.3627">
        <ele>169</ele>
        <time>2015-11-14T12:29:14Z</time>
      </trkpt>
      <trkpt lat="43.57722" lon="3.3627">
        <ele>169</ele>
        <time>2015-11-14T12:29:15Z</time>
      </trkpt>
      <trkpt lat="43.57721" lon="3.36268">
        <ele>169</ele>
        <time>2015-11-14T12:29:19Z</time>
      </trkpt>
      <trkpt lat="43.57726" lon="3.36267">
        <ele>169</ele>
        <time>2015-11-14T12:29:23Z</time>
      </trkpt>
      <trkpt lat="43.57728" lon="3.36267">
        <ele>169</ele>
        <time>2015-11-14T12:29:23Z</time>
      </trkpt>
      <trkpt lat="43.57729" lon="3.36266">
        <ele>169</ele>
        <time>2015-11-14T12:29:24Z</time>
      </trkpt>
      <trkpt lat="43.57728" lon="3.36266">
        <ele>169</ele>
        <time>2015-11-14T12:29:25Z</time>
      </trkpt>
      <trkpt lat="43.57727" lon="3.36266">
        <ele>169</ele>
        <time>2015-11-14T12:29:26Z</time>
      </trkpt>
      <trkpt lat="43.57728" lon="3.36266">
        <ele>169</ele>
        <time>2015-11-14T12:29:27Z</time>
      </trkpt>
      <trkpt lat="43.57728" lon="3.36266">
        <ele>169</ele>
        <time>2015-11-14T12:29:28Z</time>
      </trkpt>
      <trkpt lat="43.57727" lon="3.36267">
        <ele>169</ele>
        <time>2015-11-14T12:29:29Z</time>
      </trkpt>
      <trkpt lat="43.57725" lon="3.36267">
        <ele>169</ele>
        <time>2015-11-14T12:29:30Z</time>
      </trkpt>
      <trkpt lat="43.57725" lon="3.36268">
        <ele>169</ele>
        <time>2015-11-14T12:29:31Z</time>
      </trkpt>
      <trkpt lat="43.57725" lon="3.36268">
        <ele>169</ele>
        <time>2015-11-14T12:29:32Z</time>
      </trkpt>
      <trkpt lat="43.57724" lon="3.36269">
        <ele>169</ele>
        <time>2015-11-14T12:29:33Z</time>
      </trkpt>
      <trkpt lat="43.57724" lon="3.36269">
        <ele>169</ele>
        <time>2015-11-14T12:29:34Z</time>
      </trkpt>
      <trkpt lat="43.57736" lon="3.36269">
        <ele>169</ele>
        <time>2015-11-14T12:29:46Z</time>
      </trkpt>
      <trkpt lat="43.57738" lon="3.36269">
        <ele>169</ele>
        <time>2015-11-14T12:29:47Z</time>
      </trkpt>
      <trkpt lat="43.57742" lon="3.36268">
        <ele>169</ele>
        <time>2015-11-14T12:29:50Z</time>
      </trkpt>
      <trkpt lat="43.57744" lon="3.36266">
        <ele>169</ele>
        <time>2015-11-14T12:29:52Z</time>
      </trkpt>
      <trkpt lat="43.57745" lon="3.36266">
        <ele>169</ele>
        <time>2015-11-14T12:29:53Z</time>
      </trkpt>
      <trkpt lat="43.57747" lon="3.36265">
        <ele>169</ele>
        <time>2015-11-14T12:29:55Z</time>
      </trkpt>
      <trkpt lat="43.57743" lon="3.36263">
        <ele>169</ele>
        <time>2015-11-14T12:30:09Z</time>
      </trkpt>
      <trkpt lat="43.57736" lon="3.36261">
        <ele>169</ele>
        <time>2015-11-14T12:30:32Z</time>
      </trkpt>
      <trkpt lat="43.57735" lon="3.36262">
        <ele>169</ele>
        <time>2015-11-14T12:30:33Z</time>
      </trkpt>
      <trkpt lat="43.57735" lon="3.36262">
        <ele>169</ele>
        <time>2015-11-14T12:30:34Z</time>
      </trkpt>
      <trkpt lat="43.57735" lon="3.36263">
        <ele>169</ele>
        <time>2015-11-14T12:30:35Z</time>
      </trkpt>
      <trkpt lat="43.57735" lon="3.36262">
        <ele>169</ele>
        <time>2015-11-14T12:30:40Z</time>
      </trkpt>
      <trkpt lat="43.57736" lon="3.36262">
        <ele>169.5</ele>
        <time>2015-11-14T12:30:46Z</time>
      </trkpt>
      <trkpt lat="43.57737" lon="3.36261">
        <ele>169</ele>
        <time>2015-11-14T12:30:53Z</time>
      </trkpt>
      <trkpt lat="43.57737" lon="3.3626">
        <ele>169</ele>
        <time>2015-11-14T12:30:54Z</time>
      </trkpt>
      <trkpt lat="43.57736" lon="3.3626">
        <ele>169</ele>
        <time>2015-11-14T12:31:00Z</time>
      </trkpt>
      <trkpt lat="43.57736" lon="3.36259">
        <ele>169</ele>
        <time>2015-11-14T12:31:01Z</time>
      </trkpt>
      <trkpt lat="43.57736" lon="3.36259">
        <ele>169</ele>
        <time>2015-11-14T12:31:02Z</time>
      </trkpt>
      <trkpt lat="43.57736" lon="3.36258">
        <ele>169</ele>
        <time>2015-11-14T12:31:08Z</time>
      </trkpt>
      <trkpt lat="43.57736" lon="3.36258">
        <ele>169</ele>
        <time>2015-11-14T12:31:19Z</time>
      </trkpt>
      <trkpt lat="43.57738" lon="3.36257">
        <ele>169</ele>
        <time>2015-11-14T12:31:26Z</time>
      </trkpt>
      <trkpt lat="43.57738" lon="3.36256">
        <ele>169</ele>
        <time>2015-11-14T12:31:45Z</time>
      </trkpt>
      <trkpt lat="43.57737" lon="3.36257">
        <ele>170</ele>
        <time>2015-11-14T12:31:46Z</time>
      </trkpt>
      <trkpt lat="43.57736" lon="3.36258">
        <ele>170</ele>
        <time>2015-11-14T12:31:47Z</time>
      </trkpt>
      <trkpt lat="43.57735" lon="3.36258">
        <ele>170</ele>
        <time>2015-11-14T12:31:48Z</time>
      </trkpt>
      <trkpt lat="43.57735" lon="3.36259">
        <ele>172</ele>
        <time>2015-11-14T12:31:49Z</time>
      </trkpt>
      <trkpt lat="43.57736" lon="3.36258">
        <ele>171.5</ele>
        <time>2015-11-14T12:32:03Z</time>
      </trkpt>
      <trkpt lat="43.57736" lon="3.36258">
        <ele>171</ele>
        <time>2015-11-14T12:32:04Z</time>
      </trkpt>
      <trkpt lat="43.57737" lon="3.36258">
        <ele>171</ele>
        <time>2015-11-14T12:32:05Z</time>
      </trkpt>
      <trkpt lat="43.57737" lon="3.36259">
        <ele>170.5</ele>
        <time>2015-11-14T12:32:06Z</time>
      </trkpt>
      <trkpt lat="43.57738" lon="3.3626">
        <ele>171</ele>
        <time>2015-11-14T12:32:07Z</time>
      </trkpt>
      <trkpt lat="43.57739" lon="3.36261">
        <ele>171</ele>
        <time>2015-11-14T12:32:08Z</time>
      </trkpt>
      <trkpt lat="43.57739" lon="3.36262">
        <ele>171</ele>
        <time>2015-11-14T12:32:09Z</time>
      </trkpt>
      <trkpt lat="43.57739" lon="3.36261">
        <ele>170.5</ele>
        <time>2015-11-14T12:32:13Z</time>
      </trkpt>
      <trkpt lat="43.57739" lon="3.3626">
        <ele>170.5</ele>
        <time>2015-11-14T12:32:14Z</time>
      </trkpt>
      <trkpt lat="43.57738" lon="3.3626">
        <ele>171</ele>
        <time>2015-11-14T12:32:15Z</time>
      </trkpt>
      <trkpt lat="43.57738" lon="3.3626">
        <ele>171</ele>
        <time>2015-11-14T12:32:16Z</time>
      </trkpt>
      <trkpt lat="43.57738" lon="3.36259">
        <ele>171</ele>
        <time>2015-11-14T12:32:17Z</time>
      </trkpt>
      <trkpt lat="43.57738" lon="3.36259">
        <ele>171</ele>
        <time>2015-11-14T12:32:18Z</time>
      </trkpt>
      <trkpt lat="43.57734" lon="3.36261">
        <ele>171</ele>
        <time>2015-11-14T12:33:42Z</time>
      </trkpt>
      <trkpt lat="43.57734" lon="3.36261">
        <ele>171</ele>
        <time>2015-11-14T12:33:43Z</time>
      </trkpt>
      <trkpt lat="43.57734" lon="3.36262">
        <ele>171</ele>
        <time>2015-11-14T12:33:44Z</time>
      </trkpt>
      <trkpt lat="43.57734" lon="3.36262">
        <ele>171</ele>
        <time>2015-11-14T12:33:45Z</time>
      </trkpt>
      <trkpt lat="43.57733" lon="3.36262">
        <ele>171</ele>
        <time>2015-11-14T12:33:46Z</time>
      </trkpt>
      <trkpt lat="43.57733" lon="3.36263">
        <ele>171</ele>
        <time>2015-11-14T12:33:47Z</time>
      </trkpt>
      <trkpt lat="43.57733" lon="3.36264">
        <ele>171</ele>
        <time>2015-11-14T12:33:48Z</time>
      </trkpt>
      <trkpt lat="43.57733" lon="3.36264">
        <ele>171</ele>
        <time>2015-11-14T12:34:02Z</time>
      </trkpt>
      <trkpt lat="43.57733" lon="3.36263">
        <ele>171.5</ele>
        <time>2015-11-14T12:34:04Z</time>
      </trkpt>
      <trkpt lat="43.57733" lon="3.36262">
        <ele>171.5</ele>
        <time>2015-11-14T12:34:06Z</time>
      </trkpt>
      <trkpt lat="43.57733" lon="3.36262">
        <ele>171.5</ele>
        <time>2015-11-14T12:34:06Z</time>
      </trkpt>
      <trkpt lat="43.57733" lon="3.3626">
        <ele>171</ele>
        <time>2015-11-14T12:34:13Z</time>
      </trkpt>
      <trkpt lat="43.57733" lon="3.3626">
        <ele>171</ele>
        <time>2015-11-14T12:34:14Z</time>
      </trkpt>
      <trkpt lat="43.57733" lon="3.3626">
        <ele>171</ele>
        <time>2015-11-14T12:34:15Z</time>
      </trkpt>
      <trkpt lat="43.57734" lon="3.36261">
        <ele>171</ele>
        <time>2015-11-14T12:34:17Z</time>
      </trkpt>
      <trkpt lat="43.57734" lon="3.36262">
        <ele>171.5</ele>
        <time>2015-11-14T12:34:18Z</time>
      </trkpt>
      <trkpt lat="43.57734" lon="3.36263">
        <ele>171.5</ele>
        <time>2015-11-14T12:34:19Z</time>
      </trkpt>
      <trkpt lat="43.57733" lon="3.36265">
        <ele>171.5</ele>
        <time>2015-11-14T12:34:20Z</time>
      </trkpt>
      <trkpt lat="43.57731" lon="3.36267">
        <ele>172</ele>
        <time>2015-11-14T12:34:21Z</time>
      </trkpt>
      <trkpt lat="43.5773" lon="3.36269">
        <ele>172</ele>
        <time>2015-11-14T12:34:22Z</time>
      </trkpt>
      <trkpt lat="43.5773" lon="3.36271">
        <ele>171</ele>
        <time>2015-11-14T12:34:23Z</time>
      </trkpt>
      <trkpt lat="43.57731" lon="3.36273">
        <ele>170.5</ele>
        <time>2015-11-14T12:34:24Z</time>
      </trkpt>
      <trkpt lat="43.57732" lon="3.36273">
        <ele>170.5</ele>
        <time>2015-11-14T12:34:25Z</time>
      </trkpt>
      <trkpt lat="43.57733" lon="3.36272">
        <ele>171</ele>
        <time>2015-11-14T12:34:26Z</time>
      </trkpt>
      <trkpt lat="43.57733" lon="3.36271">
        <ele>171</ele>
        <time>2015-11-14T12:34:27Z</time>
      </trkpt>
      <trkpt lat="43.57733" lon="3.36269">
        <ele>170.5</ele>
        <time>2015-11-14T12:34:28Z</time>
      </trkpt>
      <trkpt lat="43.57733" lon="3.36268">
        <ele>170.5</ele>
        <time>2015-11-14T12:34:29Z</time>
      </trkpt>
      <trkpt lat="43.57732" lon="3.36266">
        <ele>170</ele>
        <time>2015-11-14T12:34:30Z</time>
      </trkpt>
      <trkpt lat="43.57732" lon="3.36264">
        <ele>170</ele>
        <time>2015-11-14T12:34:31Z</time>
      </trkpt>
      <trkpt lat="43.57732" lon="3.36262">
        <ele>170</ele>
        <time>2015-11-14T12:34:32Z</time>
      </trkpt>
      <trkpt lat="43.57733" lon="3.36261">
        <ele>170</ele>
        <time>2015-11-14T12:34:33Z</time>
      </trkpt>
      <trkpt lat="43.57734" lon="3.3626">
        <ele>170</ele>
        <time>2015-11-14T12:34:34Z</time>
      </trkpt>
      <trkpt lat="43.57734" lon="3.3626">
        <ele>170</ele>
        <time>2015-11-14T12:34:35Z</time>
      </trkpt>
      <trkpt lat="43.57734" lon="3.36261">
        <ele>169.5</ele>
        <time>2015-11-14T12:34:36Z</time>
      </trkpt>
      <trkpt lat="43.57734" lon="3.36261">
        <ele>169.5</ele>
        <time>2015-11-14T12:34:37Z</time>
      </trkpt>
      <trkpt lat="43.57734" lon="3.36262">
        <ele>169.5</ele>
        <time>2015-11-14T12:34:38Z</time>
      </trkpt>
      <trkpt lat="43.57733" lon="3.36263">
        <ele>169</ele>
        <time>2015-11-14T12:34:39Z</time>
      </trkpt>
      <trkpt lat="43.57732" lon="3.36264">
        <ele>168.5</ele>
        <time>2015-11-14T12:34:40Z</time>
      </trkpt>
      <trkpt lat="43.5773" lon="3.36265">
        <ele>168.5</ele>
        <time>2015-11-14T12:34:41Z</time>
      </trkpt>
      <trkpt lat="43.57728" lon="3.36267">
        <ele>168.5</ele>
        <time>2015-11-14T12:34:42Z</time>
      </trkpt>
      <trkpt lat="43.57728" lon="3.36268">
        <ele>170</ele>
        <time>2015-11-14T12:34:43Z</time>
      </trkpt>
      <trkpt lat="43.57729" lon="3.3627">
        <ele>170</ele>
        <time>2015-11-14T12:34:44Z</time>
      </trkpt>
      <trkpt lat="43.5773" lon="3.36269">
        <ele>170</ele>
        <time>2015-11-14T12:34:45Z</time>
      </trkpt>
      <trkpt lat="43.57731" lon="3.36268">
        <ele>170</ele>
        <time>2015-11-14T12:34:46Z</time>
      </trkpt>
      <trkpt lat="43.57731" lon="3.36266">
        <ele>170.5</ele>
        <time>2015-11-14T12:34:47Z</time>
      </trkpt>
      <trkpt lat="43.57731" lon="3.36264">
        <ele>170</ele>
        <time>2015-11-14T12:34:48Z</time>
      </trkpt>
      <trkpt lat="43.57731" lon="3.36262">
        <ele>170</ele>
        <time>2015-11-14T12:34:49Z</time>
      </trkpt>
      <trkpt lat="43.57731" lon="3.3626">
        <ele>170</ele>
        <time>2015-11-14T12:34:50Z</time>
      </trkpt>
      <trkpt lat="43.57732" lon="3.36259">
        <ele>169.5</ele>
        <time>2015-11-14T12:34:51Z</time>
      </trkpt>
      <trkpt lat="43.57732" lon="3.36258">
        <ele>170</ele>
        <time>2015-11-14T12:34:52Z</time>
      </trkpt>
      <trkpt lat="43.57733" lon="3.36258">
        <ele>170</ele>
        <time>2015-11-14T12:34:53Z</time>
      </trkpt>
      <trkpt lat="43.57733" lon="3.36258">
        <ele>169.5</ele>
        <time>2015-11-14T12:34:54Z</time>
      </trkpt>
      <trkpt lat="43.57733" lon="3.36259">
        <ele>169.5</ele>
        <time>2015-11-14T12:34:55Z</time>
      </trkpt>
      <trkpt lat="43.57733" lon="3.3626">
        <ele>169.5</ele>
        <time>2015-11-14T12:34:56Z</time>
      </trkpt>
      <trkpt lat="43.57732" lon="3.36261">
        <ele>169</ele>
        <time>2015-11-14T12:34:57Z</time>
      </trkpt>
      <trkpt lat="43.57731" lon="3.36262">
        <ele>168.5</ele>
        <time>2015-11-14T12:34:58Z</time>
      </trkpt>
      <trkpt lat="43.5773" lon="3.36262">
        <ele>168.5</ele>
        <time>2015-11-14T12:34:59Z</time>
      </trkpt>
      <trkpt lat="43.57728" lon="3.36262">
        <ele>168.5</ele>
        <time>2015-11-14T12:35:00Z</time>
      </trkpt>
      <trkpt lat="43.57727" lon="3.36262">
        <ele>168</ele>
        <time>2015-11-14T12:35:01Z</time>
      </trkpt>
      <trkpt lat="43.57726" lon="3.36263">
        <ele>168</ele>
        <time>2015-11-14T12:35:02Z</time>
      </trkpt>
      <trkpt lat="43.57725" lon="3.36264">
        <ele>168</ele>
        <time>2015-11-14T12:35:03Z</time>
      </trkpt>
      <trkpt lat="43.57725" lon="3.36266">
        <ele>168.5</ele>
        <time>2015-11-14T12:35:04Z</time>
      </trkpt>
      <trkpt lat="43.57726" lon="3.36267">
        <ele>168</ele>
        <time>2015-11-14T12:35:05Z</time>
      </trkpt>
      <trkpt lat="43.57727" lon="3.36267">
        <ele>168.5</ele>
        <time>2015-11-14T12:35:06Z</time>
      </trkpt>
      <trkpt lat="43.57728" lon="3.36266">
        <ele>169</ele>
        <time>2015-11-14T12:35:07Z</time>
      </trkpt>
      <trkpt lat="43.57729" lon="3.36265">
        <ele>169</ele>
        <time>2015-11-14T12:35:08Z</time>
      </trkpt>
      <trkpt lat="43.57729" lon="3.36263">
        <ele>169.5</ele>
        <time>2015-11-14T12:35:09Z</time>
      </trkpt>
      <trkpt lat="43.57729" lon="3.36262">
        <ele>169</ele>
        <time>2015-11-14T12:35:09Z</time>
      </trkpt>
      <trkpt lat="43.57729" lon="3.3626">
        <ele>169</ele>
        <time>2015-11-14T12:35:10Z</time>
      </trkpt>
      <trkpt lat="43.57729" lon="3.36259">
        <ele>169</ele>
        <time>2015-11-14T12:35:11Z</time>
      </trkpt>
      <trkpt lat="43.5773" lon="3.36257">
        <ele>169</ele>
        <time>2015-11-14T12:35:12Z</time>
      </trkpt>
      <trkpt lat="43.57731" lon="3.36256">
        <ele>169.5</ele>
        <time>2015-11-14T12:35:13Z</time>
      </trkpt>
      <trkpt lat="43.57731" lon="3.36256">
        <ele>170</ele>
        <time>2015-11-14T12:35:14Z</time>
      </trkpt>
      <trkpt lat="43.57732" lon="3.36257">
        <ele>170</ele>
        <time>2015-11-14T12:35:15Z</time>
      </trkpt>
      <trkpt lat="43.57732" lon="3.36258">
        <ele>170</ele>
        <time>2015-11-14T12:35:16Z</time>
      </trkpt>
      <trkpt lat="43.57731" lon="3.3626">
        <ele>169.5</ele>
        <time>2015-11-14T12:35:17Z</time>
      </trkpt>
      <trkpt lat="43.5773" lon="3.36261">
        <ele>169</ele>
        <time>2015-11-14T12:35:18Z</time>
      </trkpt>
      <trkpt lat="43.57729" lon="3.36261">
        <ele>168.5</ele>
        <time>2015-11-14T12:35:19Z</time>
      </trkpt>
      <trkpt lat="43.57727" lon="3.36261">
        <ele>168</ele>
        <time>2015-11-14T12:35:20Z</time>
      </trkpt>
      <trkpt lat="43.57726" lon="3.36261">
        <ele>168</ele>
        <time>2015-11-14T12:35:21Z</time>
      </trkpt>
      <trkpt lat="43.57726" lon="3.36261">
        <ele>168</ele>
        <time>2015-11-14T12:35:22Z</time>
      </trkpt>
      <trkpt lat="43.57725" lon="3.36262">
        <ele>168</ele>
        <time>2015-11-14T12:35:23Z</time>
      </trkpt>
      <trkpt lat="43.57724" lon="3.36263">
        <ele>167.5</ele>
        <time>2015-11-14T12:35:24Z</time>
      </trkpt>
      <trkpt lat="43.57725" lon="3.36264">
        <ele>167.5</ele>
        <time>2015-11-14T12:35:25Z</time>
      </trkpt>
      <trkpt lat="43.57726" lon="3.36265">
        <ele>167.5</ele>
        <time>2015-11-14T12:35:26Z</time>
      </trkpt>
      <trkpt lat="43.57727" lon="3.36265">
        <ele>168</ele>
        <time>2015-11-14T12:35:27Z</time>
      </trkpt>
      <trkpt lat="43.57728" lon="3.36264">
        <ele>167.5</ele>
        <time>2015-11-14T12:35:28Z</time>
      </trkpt>
      <trkpt lat="43.57729" lon="3.36262">
        <ele>168</ele>
        <time>2015-11-14T12:35:29Z</time>
      </trkpt>
      <trkpt lat="43.5773" lon="3.36261">
        <ele>167.5</ele>
        <time>2015-11-14T12:35:30Z</time>
      </trkpt>
      <trkpt lat="43.57731" lon="3.36261">
        <ele>168</ele>
        <time>2015-11-14T12:35:31Z</time>
      </trkpt>
      <trkpt lat="43.57732" lon="3.36262">
        <ele>168</ele>
        <time>2015-11-14T12:35:32Z</time>
      </trkpt>
      <trkpt lat="43.57731" lon="3.36263">
        <ele>168</ele>
        <time>2015-11-14T12:35:33Z</time>
      </trkpt>
      <trkpt lat="43.57729" lon="3.36264">
        <ele>168</ele>
        <time>2015-11-14T12:35:34Z</time>
      </trkpt>
      <trkpt lat="43.57728" lon="3.36262">
        <ele>167.5</ele>
        <time>2015-11-14T12:35:35Z</time>
      </trkpt>
      <trkpt lat="43.57727" lon="3.3626">
        <ele>168</ele>
        <time>2015-11-14T12:35:36Z</time>
      </trkpt>
      <trkpt lat="43.57727" lon="3.36258">
        <ele>168</ele>
        <time>2015-11-14T12:35:37Z</time>
      </trkpt>
      <trkpt lat="43.57728" lon="3.36257">
        <ele>168</ele>
        <time>2015-11-14T12:35:38Z</time>
      </trkpt>
      <trkpt lat="43.57728" lon="3.36257">
        <ele>168</ele>
        <time>2015-11-14T12:35:39Z</time>
      </trkpt>
      <trkpt lat="43.57728" lon="3.36258">
        <ele>167</ele>
        <time>2015-11-14T12:35:49Z</time>
      </trkpt>
      <trkpt lat="43.57728" lon="3.36259">
        <ele>166.5</ele>
        <time>2015-11-14T12:35:50Z</time>
      </trkpt>
      <trkpt lat="43.57727" lon="3.36259">
        <ele>166.5</ele>
        <time>2015-11-14T12:35:51Z</time>
      </trkpt>
      <trkpt lat="43.57727" lon="3.3626">
        <ele>166</ele>
        <time>2015-11-14T12:35:52Z</time>
      </trkpt>
      <trkpt lat="43.57726" lon="3.3626">
        <ele>166</ele>
        <time>2015-11-14T12:35:53Z</time>
      </trkpt>
      <trkpt lat="43.57725" lon="3.3626">
        <ele>166</ele>
        <time>2015-11-14T12:35:54Z</time>
      </trkpt>
      <trkpt lat="43.57725" lon="3.36259">
        <ele>166</ele>
        <time>2015-11-14T12:35:55Z</time>
      </trkpt>
      <trkpt lat="43.57724" lon="3.36259">
        <ele>166</ele>
        <time>2015-11-14T12:35:56Z</time>
      </trkpt>
      <trkpt lat="43.57724" lon="3.36258">
        <ele>166</ele>
        <time>2015-11-14T12:35:57Z</time>
      </trkpt>
      <trkpt lat="43.57723" lon="3.36257">
        <ele>166.5</ele>
        <time>2015-11-14T12:35:58Z</time>
      </trkpt>
      <trkpt lat="43.57722" lon="3.36257">
        <ele>166.5</ele>
        <time>2015-11-14T12:35:59Z</time>
      </trkpt>
      <trkpt lat="43.57722" lon="3.36256">
        <ele>166.5</ele>
        <time>2015-11-14T12:36:00Z</time>
      </trkpt>
      <trkpt lat="43.57722" lon="3.36256">
        <ele>166.5</ele>
        <time>2015-11-14T12:36:01Z</time>
      </trkpt>
      <trkpt lat="43.57721" lon="3.36257">
        <ele>167.5</ele>
        <time>2015-11-14T12:36:08Z</time>
      </trkpt>
      <trkpt lat="43.57721" lon="3.36257">
        <ele>168.5</ele>
        <time>2015-11-14T12:36:13Z</time>
      </trkpt>
      <trkpt lat="43.5772" lon="3.36257">
        <ele>168</ele>
        <time>2015-11-14T12:36:14Z</time>
      </trkpt>
      <trkpt lat="43.5772" lon="3.36257">
        <ele>168</ele>
        <time>2015-11-14T12:36:15Z</time>
      </trkpt>
      <trkpt lat="43.57719" lon="3.36258">
        <ele>168</ele>
        <time>2015-11-14T12:36:17Z</time>
      </trkpt>
      <trkpt lat="43.57718" lon="3.36258">
        <ele>168</ele>
        <time>2015-11-14T12:36:18Z</time>
      </trkpt>
      <trkpt lat="43.57718" lon="3.36258">
        <ele>168.5</ele>
        <time>2015-11-14T12:36:19Z</time>
      </trkpt>
      <trkpt lat="43.57718" lon="3.36259">
        <ele>168</ele>
        <time>2015-11-14T12:36:20Z</time>
      </trkpt>
      <trkpt lat="43.57717" lon="3.3626">
        <ele>169.5</ele>
        <time>2015-11-14T12:36:30Z</time>
      </trkpt>
      <trkpt lat="43.57717" lon="3.3626">
        <ele>169.5</ele>
        <time>2015-11-14T12:36:31Z</time>
      </trkpt>
      <trkpt lat="43.57717" lon="3.3626">
        <ele>171.5</ele>
        <time>2015-11-14T12:36:34Z</time>
      </trkpt>
      <trkpt lat="43.57718" lon="3.36259">
        <ele>172</ele>
        <time>2015-11-14T12:36:42Z</time>
      </trkpt>
      <trkpt lat="43.57719" lon="3.36259">
        <ele>172</ele>
        <time>2015-11-14T12:36:43Z</time>
      </trkpt>
      <trkpt lat="43.57718" lon="3.36259">
        <ele>172</ele>
        <time>2015-11-14T12:36:44Z</time>
      </trkpt>
      <trkpt lat="43.57718" lon="3.36258">
        <ele>171.5</ele>
        <time>2015-11-14T12:36:46Z</time>
      </trkpt>
      <trkpt lat="43.57718" lon="3.36259">
        <ele>171.5</ele>
        <time>2015-11-14T12:36:50Z</time>
      </trkpt>
      <trkpt lat="43.57718" lon="3.36259">
        <ele>171.5</ele>
        <time>2015-11-14T12:36:51Z</time>
      </trkpt>
      <trkpt lat="43.57716" lon="3.36259">
        <ele>171</ele>
        <time>2015-11-14T12:36:20Z</time>
      </trkpt>
      <trkpt lat="43.57716" lon="3.3626">
        <ele>168.5</ele>
        <time>2015-11-14T12:39:07Z</time>
      </trkpt>
      <trkpt lat="43.57716" lon="3.3626">
        <ele>168.5</ele>
        <time>2015-11-14T12:39:08Z</time>
      </trkpt>
      <trkpt lat="43.57717" lon="3.36259">
        <ele>168</ele>
        <time>2015-11-14T12:39:09Z</time>
      </trkpt>
      <trkpt lat="43.57717" lon="3.3626">
        <ele>169</ele>
        <time>2015-11-14T12:39:11Z</time>
      </trkpt>
      <trkpt lat="43.57717" lon="3.3626">
        <ele>170</ele>
        <time>2015-11-14T12:39:34Z</time>
      </trkpt>
      <trkpt lat="43.57717" lon="3.36259">
        <ele>170</ele>
        <time>2015-11-14T12:39:38Z</time>
      </trkpt>
      <trkpt lat="43.57718" lon="3.36259">
        <ele>170</ele>
        <time>2015-11-14T12:39:48Z</time>
      </trkpt>
      <trkpt lat="43.57717" lon="3.36258">
        <ele>173.5</ele>
        <time>2015-11-14T12:41:36Z</time>
      </trkpt>
      <trkpt lat="43.57718" lon="3.36258">
        <ele>174</ele>
        <time>2015-11-14T12:41:37Z</time>
      </trkpt>
      <trkpt lat="43.57719" lon="3.36258">
        <ele>174</ele>
        <time>2015-11-14T12:41:38Z</time>
      </trkpt>
      <trkpt lat="43.57719" lon="3.36257">
        <ele>174</ele>
        <time>2015-11-14T12:41:39Z</time>
      </trkpt>
      <trkpt lat="43.5772" lon="3.36257">
        <ele>174</ele>
        <time>2015-11-14T12:41:40Z</time>
      </trkpt>
      <trkpt lat="43.5772" lon="3.36256">
        <ele>174</ele>
        <time>2015-11-14T12:41:42Z</time>
      </trkpt>
      <trkpt lat="43.5772" lon="3.36256">
        <ele>174.5</ele>
        <time>2015-11-14T12:41:44Z</time>
      </trkpt>
      <trkpt lat="43.57721" lon="3.36256">
        <ele>175</ele>
        <time>2015-11-14T12:41:46Z</time>
      </trkpt>
      <trkpt lat="43.57721" lon="3.36256">
        <ele>175</ele>
        <time>2015-11-14T12:41:47Z</time>
      </trkpt>
      <trkpt lat="43.57722" lon="3.36258">
        <ele>175</ele>
        <time>2015-11-14T12:41:48Z</time>
      </trkpt>
      <trkpt lat="43.57723" lon="3.36259">
        <ele>175</ele>
        <time>2015-11-14T12:41:49Z</time>
      </trkpt>
      <trkpt lat="43.57723" lon="3.3626">
        <ele>175</ele>
        <time>2015-11-14T12:41:50Z</time>
      </trkpt>
      <trkpt lat="43.57724" lon="3.3626">
        <ele>174.5</ele>
        <time>2015-11-14T12:41:51Z</time>
      </trkpt>
      <trkpt lat="43.57725" lon="3.3626">
        <ele>174.5</ele>
        <time>2015-11-14T12:41:52Z</time>
      </trkpt>
      <trkpt lat="43.57726" lon="3.3626">
        <ele>174</ele>
        <time>2015-11-14T12:41:53Z</time>
      </trkpt>
      <trkpt lat="43.57727" lon="3.36259">
        <ele>174</ele>
        <time>2015-11-14T12:41:54Z</time>
      </trkpt>
      <trkpt lat="43.57727" lon="3.36259">
        <ele>174.5</ele>
        <time>2015-11-14T12:41:55Z</time>
      </trkpt>
      <trkpt lat="43.57728" lon="3.36258">
        <ele>174.5</ele>
        <time>2015-11-14T12:41:56Z</time>
      </trkpt>
      <trkpt lat="43.57728" lon="3.36258">
        <ele>174.5</ele>
        <time>2015-11-14T12:41:58Z</time>
      </trkpt>
      <trkpt lat="43.57728" lon="3.36258">
        <ele>174.5</ele>
        <time>2015-11-14T12:42:01Z</time>
      </trkpt>
      <trkpt lat="43.57728" lon="3.36258">
        <ele>174.5</ele>
        <time>2015-11-14T12:42:02Z</time>
      </trkpt>
      <trkpt lat="43.57729" lon="3.36259">
        <ele>175</ele>
        <time>2015-11-14T12:42:03Z</time>
      </trkpt>
      <trkpt lat="43.57729" lon="3.36259">
        <ele>175</ele>
        <time>2015-11-14T12:42:04Z</time>
      </trkpt>
      <trkpt lat="43.57729" lon="3.36259">
        <ele>174</ele>
        <time>2015-11-14T12:42:13Z</time>
      </trkpt>
      <trkpt lat="43.57729" lon="3.36259">
        <ele>175</ele>
        <time>2015-11-14T12:42:16Z</time>
      </trkpt>
      <trkpt lat="43.5773" lon="3.36261">
        <ele>175</ele>
        <time>2015-11-14T12:42:17Z</time>
      </trkpt>
      <trkpt lat="43.5773" lon="3.36263">
        <ele>174.5</ele>
        <time>2015-11-14T12:42:18Z</time>
      </trkpt>
      <trkpt lat="43.57729" lon="3.36265">
        <ele>174</ele>
        <time>2015-11-14T12:42:19Z</time>
      </trkpt>
      <trkpt lat="43.57729" lon="3.36267">
        <ele>174</ele>
        <time>2015-11-14T12:42:20Z</time>
      </trkpt>
      <trkpt lat="43.57729" lon="3.36268">
        <ele>174.5</ele>
        <time>2015-11-14T12:42:21Z</time>
      </trkpt>
      <trkpt lat="43.57729" lon="3.3627">
        <ele>174.5</ele>
        <time>2015-11-14T12:42:22Z</time>
      </trkpt>
      <trkpt lat="43.57729" lon="3.36271">
        <ele>174</ele>
        <time>2015-11-14T12:42:23Z</time>
      </trkpt>
      <trkpt lat="43.57731" lon="3.36273">
        <ele>173.5</ele>
        <time>2015-11-14T12:42:24Z</time>
      </trkpt>
      <trkpt lat="43.57732" lon="3.36275">
        <ele>173</ele>
        <time>2015-11-14T12:42:25Z</time>
      </trkpt>
      <trkpt lat="43.57733" lon="3.36278">
        <ele>172.5</ele>
        <time>2015-11-14T12:42:26Z</time>
      </trkpt>
      <trkpt lat="43.57734" lon="3.3628">
        <ele>172</ele>
        <time>2015-11-14T12:42:27Z</time>
      </trkpt>
      <trkpt lat="43.57736" lon="3.36282">
        <ele>172</ele>
        <time>2015-11-14T12:42:28Z</time>
      </trkpt>
      <trkpt lat="43.57737" lon="3.36284">
        <ele>171.5</ele>
        <time>2015-11-14T12:42:29Z</time>
      </trkpt>
      <trkpt lat="43.57739" lon="3.36286">
        <ele>172.5</ele>
        <time>2015-11-14T12:42:30Z</time>
      </trkpt>
      <trkpt lat="43.5774" lon="3.3629">
        <ele>172</ele>
        <time>2015-11-14T12:42:31Z</time>
      </trkpt>
      <trkpt lat="43.57741" lon="3.36295">
        <ele>172</ele>
        <time>2015-11-14T12:42:32Z</time>
      </trkpt>
      <trkpt lat="43.57743" lon="3.36299">
        <ele>172</ele>
        <time>2015-11-14T12:42:33Z</time>
      </trkpt>
      <trkpt lat="43.57745" lon="3.363">
        <ele>171.5</ele>
        <time>2015-11-14T12:42:34Z</time>
      </trkpt>
      <trkpt lat="43.57748" lon="3.363">
        <ele>171.5</ele>
        <time>2015-11-14T12:42:35Z</time>
      </trkpt>
      <trkpt lat="43.57751" lon="3.36299">
        <ele>171</ele>
        <time>2015-11-14T12:42:36Z</time>
      </trkpt>
      <trkpt lat="43.57754" lon="3.36299">
        <ele>171</ele>
        <time>2015-11-14T12:42:37Z</time>
      </trkpt>
      <trkpt lat="43.57757" lon="3.36299">
        <ele>171</ele>
        <time>2015-11-14T12:42:38Z</time>
      </trkpt>
      <trkpt lat="43.57759" lon="3.363">
        <ele>171</ele>
        <time>2015-11-14T12:42:39Z</time>
      </trkpt>
      <trkpt lat="43.57762" lon="3.363">
        <ele>171</ele>
        <time>2015-11-14T12:42:40Z</time>
      </trkpt>
      <trkpt lat="43.57765" lon="3.36301">
        <ele>171</ele>
        <time>2015-11-14T12:42:41Z</time>
      </trkpt>
      <trkpt lat="43.57767" lon="3.36302">
        <ele>171</ele>
        <time>2015-11-14T12:42:42Z</time>
      </trkpt>
      <trkpt lat="43.5777" lon="3.36302">
        <ele>171</ele>
        <time>2015-11-14T12:42:43Z</time>
      </trkpt>
      <trkpt lat="43.57773" lon="3.36301">
        <ele>171</ele>
        <time>2015-11-14T12:42:44Z</time>
      </trkpt>
      <trkpt lat="43.57775" lon="3.36302">
        <ele>171.5</ele>
        <time>2015-11-14T12:42:45Z</time>
      </trkpt>
      <trkpt lat="43.57778" lon="3.36303">
        <ele>171.5</ele>
        <time>2015-11-14T12:42:45Z</time>
      </trkpt>
      <trkpt lat="43.5778" lon="3.36304">
        <ele>172</ele>
        <time>2015-11-14T12:42:46Z</time>
      </trkpt>
      <trkpt lat="43.57782" lon="3.36305">
        <ele>173.5</ele>
        <time>2015-11-14T12:42:47Z</time>
      </trkpt>
      <trkpt lat="43.57785" lon="3.36306">
        <ele>174</ele>
        <time>2015-11-14T12:42:48Z</time>
      </trkpt>
      <trkpt lat="43.57788" lon="3.36306">
        <ele>174</ele>
        <time>2015-11-14T12:42:49Z</time>
      </trkpt>
      <trkpt lat="43.57791" lon="3.36307">
        <ele>174</ele>
        <time>2015-11-14T12:42:50Z</time>
      </trkpt>
      <trkpt lat="43.57794" lon="3.36309">
        <ele>173.5</ele>
        <time>2015-11-14T12:42:51Z</time>
      </trkpt>
      <trkpt lat="43.57798" lon="3.36311">
        <ele>173.5</ele>
        <time>2015-11-14T12:42:52Z</time>
      </trkpt>
      <trkpt lat="43.57802" lon="3.36313">
        <ele>173</ele>
        <time>2015-11-14T12:42:53Z</time>
      </trkpt>
      <trkpt lat="43.57806" lon="3.36315">
        <ele>173</ele>
        <time>2015-11-14T12:42:54Z</time>
      </trkpt>
      <trkpt lat="43.5781" lon="3.36318">
        <ele>172</ele>
        <time>2015-11-14T12:42:55Z</time>
      </trkpt>
      <trkpt lat="43.57814" lon="3.3632">
        <ele>172</ele>
        <time>2015-11-14T12:42:56Z</time>
      </trkpt>
      <trkpt lat="43.57818" lon="3.36323">
        <ele>171.5</ele>
        <time>2015-11-14T12:42:57Z</time>
      </trkpt>
      <trkpt lat="43.57822" lon="3.36326">
        <ele>172</ele>
        <time>2015-11-14T12:42:58Z</time>
      </trkpt>
      <trkpt lat="43.57826" lon="3.36329">
        <ele>172</ele>
        <time>2015-11-14T12:42:59Z</time>
      </trkpt>
      <trkpt lat="43.5783" lon="3.36331">
        <ele>172</ele>
        <time>2015-11-14T12:43:00Z</time>
      </trkpt>
      <trkpt lat="43.57833" lon="3.36334">
        <ele>172</ele>
        <time>2015-11-14T12:43:01Z</time>
      </trkpt>
      <trkpt lat="43.57836" lon="3.36337">
        <ele>171.5</ele>
        <time>2015-11-14T12:43:02Z</time>
      </trkpt>
      <trkpt lat="43.57838" lon="3.36339">
        <ele>171</ele>
        <time>2015-11-14T12:43:03Z</time>
      </trkpt>
      <trkpt lat="43.5784" lon="3.36342">
        <ele>171</ele>
        <time>2015-11-14T12:43:04Z</time>
      </trkpt>
      <trkpt lat="43.57842" lon="3.36345">
        <ele>171</ele>
        <time>2015-11-14T12:43:05Z</time>
      </trkpt>
      <trkpt lat="43.57845" lon="3.36348">
        <ele>171</ele>
        <time>2015-11-14T12:43:06Z</time>
      </trkpt>
      <trkpt lat="43.57847" lon="3.36351">
        <ele>171</ele>
        <time>2015-11-14T12:43:07Z</time>
      </trkpt>
      <trkpt lat="43.5785" lon="3.36354">
        <ele>171</ele>
        <time>2015-11-14T12:43:08Z</time>
      </trkpt>
      <trkpt lat="43.57852" lon="3.36357">
        <ele>171</ele>
        <time>2015-11-14T12:43:09Z</time>
      </trkpt>
      <trkpt lat="43.57854" lon="3.3636">
        <ele>171</ele>
        <time>2015-11-14T12:43:10Z</time>
      </trkpt>
      <trkpt lat="43.57856" lon="3.36365">
        <ele>171</ele>
        <time>2015-11-14T12:43:11Z</time>
      </trkpt>
      <trkpt lat="43.57859" lon="3.36369">
        <ele>171</ele>
        <time>2015-11-14T12:43:12Z</time>
      </trkpt>
      <trkpt lat="43.57862" lon="3.36368">
        <ele>172</ele>
        <time>2015-11-14T12:43:13Z</time>
      </trkpt>
      <trkpt lat="43.57866" lon="3.36366">
        <ele>172</ele>
        <time>2015-11-14T12:43:14Z</time>
      </trkpt>
      <trkpt lat="43.5787" lon="3.36367">
        <ele>172</ele>
        <time>2015-11-14T12:43:15Z</time>
      </trkpt>
      <trkpt lat="43.57873" lon="3.3637">
        <ele>171.5</ele>
        <time>2015-11-14T12:43:16Z</time>
      </trkpt>
      <trkpt lat="43.57876" lon="3.36374">
        <ele>171</ele>
        <time>2015-11-14T12:43:17Z</time>
      </trkpt>
      <trkpt lat="43.57878" lon="3.36379">
        <ele>170.5</ele>
        <time>2015-11-14T12:43:18Z</time>
      </trkpt>
      <trkpt lat="43.5788" lon="3.36385">
        <ele>170.5</ele>
        <time>2015-11-14T12:43:19Z</time>
      </trkpt>
      <trkpt lat="43.57882" lon="3.36392">
        <ele>170.5</ele>
        <time>2015-11-14T12:43:20Z</time>
      </trkpt>
      <trkpt lat="43.57883" lon="3.36398">
        <ele>170.5</ele>
        <time>2015-11-14T12:43:21Z</time>
      </trkpt>
      <trkpt lat="43.57884" lon="3.36405">
        <ele>170</ele>
        <time>2015-11-14T12:43:22Z</time>
      </trkpt>
      <trkpt lat="43.57885" lon="3.36412">
        <ele>169.5</ele>
        <time>2015-11-14T12:43:23Z</time>
      </trkpt>
      <trkpt lat="43.57886" lon="3.36419">
        <ele>169.5</ele>
        <time>2015-11-14T12:43:24Z</time>
      </trkpt>
      <trkpt lat="43.57887" lon="3.36426">
        <ele>169</ele>
        <time>2015-11-14T12:43:25Z</time>
      </trkpt>
      <trkpt lat="43.57888" lon="3.36433">
        <ele>168.5</ele>
        <time>2015-11-14T12:43:26Z</time>
      </trkpt>
      <trkpt lat="43.5789" lon="3.3644">
        <ele>168</ele>
        <time>2015-11-14T12:43:27Z</time>
      </trkpt>
      <trkpt lat="43.57892" lon="3.36446">
        <ele>168</ele>
        <time>2015-11-14T12:43:28Z</time>
      </trkpt>
      <trkpt lat="43.57895" lon="3.36453">
        <ele>167.5</ele>
        <time>2015-11-14T12:43:29Z</time>
      </trkpt>
      <trkpt lat="43.57898" lon="3.36458">
        <ele>166.5</ele>
        <time>2015-11-14T12:43:30Z</time>
      </trkpt>
      <trkpt lat="43.57901" lon="3.36465">
        <ele>166</ele>
        <time>2015-11-14T12:43:31Z</time>
      </trkpt>
      <trkpt lat="43.57904" lon="3.3647">
        <ele>166</ele>
        <time>2015-11-14T12:43:32Z</time>
      </trkpt>
      <trkpt lat="43.57907" lon="3.36476">
        <ele>166</ele>
        <time>2015-11-14T12:43:33Z</time>
      </trkpt>
      <trkpt lat="43.57909" lon="3.36481">
        <ele>166</ele>
        <time>2015-11-14T12:43:34Z</time>
      </trkpt>
      <trkpt lat="43.57911" lon="3.36486">
        <ele>166</ele>
        <time>2015-11-14T12:43:35Z</time>
      </trkpt>
      <trkpt lat="43.57913" lon="3.36491">
        <ele>166.5</ele>
        <time>2015-11-14T12:43:36Z</time>
      </trkpt>
      <trkpt lat="43.57913" lon="3.36495">
        <ele>167</ele>
        <time>2015-11-14T12:43:37Z</time>
      </trkpt>
      <trkpt lat="43.57913" lon="3.36499">
        <ele>167.5</ele>
        <time>2015-11-14T12:43:38Z</time>
      </trkpt>
      <trkpt lat="43.57913" lon="3.36502">
        <ele>168</ele>
        <time>2015-11-14T12:43:39Z</time>
      </trkpt>
      <trkpt lat="43.57914" lon="3.36505">
        <ele>168.5</ele>
        <time>2015-11-14T12:43:40Z</time>
      </trkpt>
      <trkpt lat="43.57914" lon="3.36507">
        <ele>168.5</ele>
        <time>2015-11-14T12:43:41Z</time>
      </trkpt>
      <trkpt lat="43.57913" lon="3.3651">
        <ele>169</ele>
        <time>2015-11-14T12:43:42Z</time>
      </trkpt>
      <trkpt lat="43.57911" lon="3.36512">
        <ele>169</ele>
        <time>2015-11-14T12:43:43Z</time>
      </trkpt>
      <trkpt lat="43.5791" lon="3.36514">
        <ele>169</ele>
        <time>2015-11-14T12:43:44Z</time>
      </trkpt>
      <trkpt lat="43.57908" lon="3.36516">
        <ele>169</ele>
        <time>2015-11-14T12:43:45Z</time>
      </trkpt>
      <trkpt lat="43.57906" lon="3.36518">
        <ele>169</ele>
        <time>2015-11-14T12:43:46Z</time>
      </trkpt>
      <trkpt lat="43.57904" lon="3.36519">
        <ele>169</ele>
        <time>2015-11-14T12:43:47Z</time>
      </trkpt>
      <trkpt lat="43.57902" lon="3.3652">
        <ele>169</ele>
        <time>2015-11-14T12:43:48Z</time>
      </trkpt>
      <trkpt lat="43.579" lon="3.36522">
        <ele>169</ele>
        <time>2015-11-14T12:43:49Z</time>
      </trkpt>
      <trkpt lat="43.57898" lon="3.36523">
        <ele>169</ele>
        <time>2015-11-14T12:43:50Z</time>
      </trkpt>
      <trkpt lat="43.57896" lon="3.36524">
        <ele>168.5</ele>
        <time>2015-11-14T12:43:51Z</time>
      </trkpt>
      <trkpt lat="43.57893" lon="3.36524">
        <ele>168.5</ele>
        <time>2015-11-14T12:43:52Z</time>
      </trkpt>
      <trkpt lat="43.57891" lon="3.36525">
        <ele>168</ele>
        <time>2015-11-14T12:43:53Z</time>
      </trkpt>
      <trkpt lat="43.57889" lon="3.36525">
        <ele>167.5</ele>
        <time>2015-11-14T12:43:54Z</time>
      </trkpt>
      <trkpt lat="43.57886" lon="3.36526">
        <ele>167</ele>
        <time>2015-11-14T12:43:55Z</time>
      </trkpt>
      <trkpt lat="43.57884" lon="3.36526">
        <ele>166.5</ele>
        <time>2015-11-14T12:43:56Z</time>
      </trkpt>
      <trkpt lat="43.57881" lon="3.36526">
        <ele>166.5</ele>
        <time>2015-11-14T12:43:57Z</time>
      </trkpt>
      <trkpt lat="43.57878" lon="3.36526">
        <ele>167</ele>
        <time>2015-11-14T12:43:58Z</time>
      </trkpt>
      <trkpt lat="43.57876" lon="3.36527">
        <ele>167</ele>
        <time>2015-11-14T12:43:59Z</time>
      </trkpt>
      <trkpt lat="43.57873" lon="3.36527">
        <ele>166.5</ele>
        <time>2015-11-14T12:44:00Z</time>
      </trkpt>
      <trkpt lat="43.57871" lon="3.36528">
        <ele>166.5</ele>
        <time>2015-11-14T12:44:01Z</time>
      </trkpt>
      <trkpt lat="43.57868" lon="3.36529">
        <ele>167</ele>
        <time>2015-11-14T12:44:02Z</time>
      </trkpt>
      <trkpt lat="43.57865" lon="3.36529">
        <ele>167</ele>
        <time>2015-11-14T12:44:03Z</time>
      </trkpt>
      <trkpt lat="43.57863" lon="3.3653">
        <ele>167</ele>
        <time>2015-11-14T12:44:04Z</time>
      </trkpt>
      <trkpt lat="43.5786" lon="3.3653">
        <ele>167.5</ele>
        <time>2015-11-14T12:44:05Z</time>
      </trkpt>
      <trkpt lat="43.57858" lon="3.36532">
        <ele>167.5</ele>
        <time>2015-11-14T12:44:06Z</time>
      </trkpt>
      <trkpt lat="43.57855" lon="3.36533">
        <ele>167.5</ele>
        <time>2015-11-14T12:44:07Z</time>
      </trkpt>
      <trkpt lat="43.57853" lon="3.36534">
        <ele>166.5</ele>
        <time>2015-11-14T12:44:08Z</time>
      </trkpt>
      <trkpt lat="43.57851" lon="3.36536">
        <ele>166.5</ele>
        <time>2015-11-14T12:44:09Z</time>
      </trkpt>
      <trkpt lat="43.57849" lon="3.36538">
        <ele>166.5</ele>
        <time>2015-11-14T12:44:10Z</time>
      </trkpt>
      <trkpt lat="43.57847" lon="3.36539">
        <ele>166</ele>
        <time>2015-11-14T12:44:11Z</time>
      </trkpt>
      <trkpt lat="43.57845" lon="3.3654">
        <ele>166</ele>
        <time>2015-11-14T12:44:12Z</time>
      </trkpt>
      <trkpt lat="43.57843" lon="3.36542">
        <ele>166</ele>
        <time>2015-11-14T12:44:13Z</time>
      </trkpt>
      <trkpt lat="43.57841" lon="3.36544">
        <ele>166.5</ele>
        <time>2015-11-14T12:44:14Z</time>
      </trkpt>
      <trkpt lat="43.57839" lon="3.36547">
        <ele>166</ele>
        <time>2015-11-14T12:44:15Z</time>
      </trkpt>
      <trkpt lat="43.57838" lon="3.3655">
        <ele>166</ele>
        <time>2015-11-14T12:44:16Z</time>
      </trkpt>
      <trkpt lat="43.57839" lon="3.36554">
        <ele>167.5</ele>
        <time>2015-11-14T12:44:17Z</time>
      </trkpt>
      <trkpt lat="43.57838" lon="3.36558">
        <ele>168.5</ele>
        <time>2015-11-14T12:44:18Z</time>
      </trkpt>
      <trkpt lat="43.57838" lon="3.36562">
        <ele>169</ele>
        <time>2015-11-14T12:44:19Z</time>
      </trkpt>
      <trkpt lat="43.57838" lon="3.36566">
        <ele>168.5</ele>
        <time>2015-11-14T12:44:20Z</time>
      </trkpt>
      <trkpt lat="43.57837" lon="3.3657">
        <ele>167.5</ele>
        <time>2015-11-14T12:44:21Z</time>
      </trkpt>
      <trkpt lat="43.57836" lon="3.36574">
        <ele>167</ele>
        <time>2015-11-14T12:44:22Z</time>
      </trkpt>
      <trkpt lat="43.57836" lon="3.36578">
        <ele>167</ele>
        <time>2015-11-14T12:44:23Z</time>
      </trkpt>
      <trkpt lat="43.57835" lon="3.36582">
        <ele>166.5</ele>
        <time>2015-11-14T12:44:24Z</time>
      </trkpt>
      <trkpt lat="43.57835" lon="3.36586">
        <ele>166.5</ele>
        <time>2015-11-14T12:44:25Z</time>
      </trkpt>
      <trkpt lat="43.57834" lon="3.36589">
        <ele>166.5</ele>
        <time>2015-11-14T12:44:26Z</time>
      </trkpt>
      <trkpt lat="43.57833" lon="3.36593">
        <ele>164.5</ele>
        <time>2015-11-14T12:44:27Z</time>
      </trkpt>
      <trkpt lat="43.57833" lon="3.36597">
        <ele>165</ele>
        <time>2015-11-14T12:44:28Z</time>
      </trkpt>
      <trkpt lat="43.57832" lon="3.36601">
        <ele>166</ele>
        <time>2015-11-14T12:44:29Z</time>
      </trkpt>
      <trkpt lat="43.57831" lon="3.36605">
        <ele>166</ele>
        <time>2015-11-14T12:44:30Z</time>
      </trkpt>
      <trkpt lat="43.5783" lon="3.36609">
        <ele>165.5</ele>
        <time>2015-11-14T12:44:31Z</time>
      </trkpt>
      <trkpt lat="43.57828" lon="3.36613">
        <ele>165.5</ele>
        <time>2015-11-14T12:44:32Z</time>
      </trkpt>
      <trkpt lat="43.57827" lon="3.36617">
        <ele>166</ele>
        <time>2015-11-14T12:44:33Z</time>
      </trkpt>
      <trkpt lat="43.57825" lon="3.3662">
        <ele>165.5</ele>
        <time>2015-11-14T12:44:34Z</time>
      </trkpt>
      <trkpt lat="43.57823" lon="3.36624">
        <ele>165.5</ele>
        <time>2015-11-14T12:44:35Z</time>
      </trkpt>
      <trkpt lat="43.57821" lon="3.36628">
        <ele>165.5</ele>
        <time>2015-11-14T12:44:36Z</time>
      </trkpt>
      <trkpt lat="43.57819" lon="3.36632">
        <ele>165.5</ele>
        <time>2015-11-14T12:44:37Z</time>
      </trkpt>
      <trkpt lat="43.57817" lon="3.36635">
        <ele>165.5</ele>
        <time>2015-11-14T12:44:38Z</time>
      </trkpt>
      <trkpt lat="43.57815" lon="3.36639">
        <ele>165.5</ele>
        <time>2015-11-14T12:44:39Z</time>
      </trkpt>
      <trkpt lat="43.57813" lon="3.36643">
        <ele>165.5</ele>
        <time>2015-11-14T12:44:40Z</time>
      </trkpt>
      <trkpt lat="43.5781" lon="3.36646">
        <ele>165.5</ele>
        <time>2015-11-14T12:44:41Z</time>
      </trkpt>
      <trkpt lat="43.57808" lon="3.3665">
        <ele>165.5</ele>
        <time>2015-11-14T12:44:42Z</time>
      </trkpt>
      <trkpt lat="43.57805" lon="3.36653">
        <ele>165.5</ele>
        <time>2015-11-14T12:44:43Z</time>
      </trkpt>
      <trkpt lat="43.57803" lon="3.36657">
        <ele>165.5</ele>
        <time>2015-11-14T12:44:44Z</time>
      </trkpt>
      <trkpt lat="43.578" lon="3.3666">
        <ele>166</ele>
        <time>2015-11-14T12:44:45Z</time>
      </trkpt>
      <trkpt lat="43.57798" lon="3.36663">
        <ele>166</ele>
        <time>2015-11-14T12:44:46Z</time>
      </trkpt>
      <trkpt lat="43.57796" lon="3.36666">
        <ele>166.5</ele>
        <time>2015-11-14T12:44:47Z</time>
      </trkpt>
      <trkpt lat="43.57794" lon="3.36669">
        <ele>166.5</ele>
        <time>2015-11-14T12:44:48Z</time>
      </trkpt>
      <trkpt lat="43.57791" lon="3.36672">
        <ele>167</ele>
        <time>2015-11-14T12:44:49Z</time>
      </trkpt>
      <trkpt lat="43.57789" lon="3.36675">
        <ele>166.5</ele>
        <time>2015-11-14T12:44:50Z</time>
      </trkpt>
      <trkpt lat="43.57787" lon="3.36679">
        <ele>166.5</ele>
        <time>2015-11-14T12:44:51Z</time>
      </trkpt>
      <trkpt lat="43.57785" lon="3.36682">
        <ele>167</ele>
        <time>2015-11-14T12:44:52Z</time>
      </trkpt>
      <trkpt lat="43.57783" lon="3.36686">
        <ele>167</ele>
        <time>2015-11-14T12:44:53Z</time>
      </trkpt>
      <trkpt lat="43.57781" lon="3.3669">
        <ele>167</ele>
        <time>2015-11-14T12:44:54Z</time>
      </trkpt>
      <trkpt lat="43.5778" lon="3.36694">
        <ele>167</ele>
        <time>2015-11-14T12:44:55Z</time>
      </trkpt>
      <trkpt lat="43.57778" lon="3.36697">
        <ele>167</ele>
        <time>2015-11-14T12:44:56Z</time>
      </trkpt>
      <trkpt lat="43.57777" lon="3.36701">
        <ele>167.5</ele>
        <time>2015-11-14T12:44:57Z</time>
      </trkpt>
      <trkpt lat="43.57776" lon="3.36705">
        <ele>168</ele>
        <time>2015-11-14T12:44:58Z</time>
      </trkpt>
      <trkpt lat="43.57775" lon="3.36709">
        <ele>168</ele>
        <time>2015-11-14T12:44:59Z</time>
      </trkpt>
      <trkpt lat="43.57774" lon="3.36712">
        <ele>168.5</ele>
        <time>2015-11-14T12:45:00Z</time>
      </trkpt>
      <trkpt lat="43.57774" lon="3.36716">
        <ele>168.5</ele>
        <time>2015-11-14T12:45:01Z</time>
      </trkpt>
      <trkpt lat="43.57774" lon="3.3672">
        <ele>168.5</ele>
        <time>2015-11-14T12:45:02Z</time>
      </trkpt>
      <trkpt lat="43.57775" lon="3.36724">
        <ele>168.5</ele>
        <time>2015-11-14T12:45:03Z</time>
      </trkpt>
      <trkpt lat="43.57776" lon="3.36728">
        <ele>168.5</ele>
        <time>2015-11-14T12:45:04Z</time>
      </trkpt>
      <trkpt lat="43.57777" lon="3.36732">
        <ele>168.5</ele>
        <time>2015-11-14T12:45:05Z</time>
      </trkpt>
      <trkpt lat="43.57778" lon="3.36736">
        <ele>168.5</ele>
        <time>2015-11-14T12:45:06Z</time>
      </trkpt>
      <trkpt lat="43.57779" lon="3.3674">
        <ele>168.5</ele>
        <time>2015-11-14T12:45:07Z</time>
      </trkpt>
      <trkpt lat="43.5778" lon="3.36744">
        <ele>168.5</ele>
        <time>2015-11-14T12:45:08Z</time>
      </trkpt>
      <trkpt lat="43.57781" lon="3.36748">
        <ele>168.5</ele>
        <time>2015-11-14T12:45:09Z</time>
      </trkpt>
      <trkpt lat="43.57782" lon="3.36752">
        <ele>168.5</ele>
        <time>2015-11-14T12:45:10Z</time>
      </trkpt>
      <trkpt lat="43.57783" lon="3.36756">
        <ele>168.5</ele>
        <time>2015-11-14T12:45:11Z</time>
      </trkpt>
      <trkpt lat="43.57784" lon="3.3676">
        <ele>169</ele>
        <time>2015-11-14T12:45:12Z</time>
      </trkpt>
      <trkpt lat="43.57785" lon="3.36764">
        <ele>169</ele>
        <time>2015-11-14T12:45:13Z</time>
      </trkpt>
      <trkpt lat="43.57786" lon="3.36768">
        <ele>169</ele>
        <time>2015-11-14T12:45:14Z</time>
      </trkpt>
      <trkpt lat="43.57787" lon="3.36772">
        <ele>169</ele>
        <time>2015-11-14T12:45:15Z</time>
      </trkpt>
      <trkpt lat="43.57787" lon="3.36776">
        <ele>169</ele>
        <time>2015-11-14T12:45:16Z</time>
      </trkpt>
      <trkpt lat="43.57788" lon="3.3678">
        <ele>169.5</ele>
        <time>2015-11-14T12:45:17Z</time>
      </trkpt>
      <trkpt lat="43.57788" lon="3.36784">
        <ele>170</ele>
        <time>2015-11-14T12:45:18Z</time>
      </trkpt>
      <trkpt lat="43.57789" lon="3.36788">
        <ele>170</ele>
        <time>2015-11-14T12:45:19Z</time>
      </trkpt>
      <trkpt lat="43.57789" lon="3.36792">
        <ele>170.5</ele>
        <time>2015-11-14T12:45:20Z</time>
      </trkpt>
      <trkpt lat="43.5779" lon="3.36796">
        <ele>171</ele>
        <time>2015-11-14T12:45:21Z</time>
      </trkpt>
      <trkpt lat="43.57791" lon="3.36799">
        <ele>171</ele>
        <time>2015-11-14T12:45:22Z</time>
      </trkpt>
      <trkpt lat="43.57791" lon="3.36803">
        <ele>171.5</ele>
        <time>2015-11-14T12:45:23Z</time>
      </trkpt>
      <trkpt lat="43.57792" lon="3.36806">
        <ele>172</ele>
        <time>2015-11-14T12:45:24Z</time>
      </trkpt>
      <trkpt lat="43.57793" lon="3.3681">
        <ele>172.5</ele>
        <time>2015-11-14T12:45:25Z</time>
      </trkpt>
      <trkpt lat="43.57794" lon="3.36813">
        <ele>172.5</ele>
        <time>2015-11-14T12:45:26Z</time>
      </trkpt>
      <trkpt lat="43.57795" lon="3.36817">
        <ele>172.5</ele>
        <time>2015-11-14T12:45:27Z</time>
      </trkpt>
      <trkpt lat="43.57796" lon="3.3682">
        <ele>173</ele>
        <time>2015-11-14T12:45:28Z</time>
      </trkpt>
      <trkpt lat="43.57797" lon="3.36823">
        <ele>173</ele>
        <time>2015-11-14T12:45:29Z</time>
      </trkpt>
      <trkpt lat="43.57798" lon="3.36827">
        <ele>173.5</ele>
        <time>2015-11-14T12:45:30Z</time>
      </trkpt>
      <trkpt lat="43.578" lon="3.3683">
        <ele>174</ele>
        <time>2015-11-14T12:45:31Z</time>
      </trkpt>
      <trkpt lat="43.57801" lon="3.36833">
        <ele>174</ele>
        <time>2015-11-14T12:45:32Z</time>
      </trkpt>
      <trkpt lat="43.57802" lon="3.36837">
        <ele>174.5</ele>
        <time>2015-11-14T12:45:33Z</time>
      </trkpt>
      <trkpt lat="43.57802" lon="3.3684">
        <ele>175</ele>
        <time>2015-11-14T12:45:34Z</time>
      </trkpt>
      <trkpt lat="43.57803" lon="3.36843">
        <ele>175</ele>
        <time>2015-11-14T12:45:35Z</time>
      </trkpt>
      <trkpt lat="43.57804" lon="3.36847">
        <ele>175.5</ele>
        <time>2015-11-14T12:45:36Z</time>
      </trkpt>
      <trkpt lat="43.57804" lon="3.3685">
        <ele>175.5</ele>
        <time>2015-11-14T12:45:37Z</time>
      </trkpt>
      <trkpt lat="43.57805" lon="3.36854">
        <ele>175.5</ele>
        <time>2015-11-14T12:45:38Z</time>
      </trkpt>
      <trkpt lat="43.57805" lon="3.36857">
        <ele>176</ele>
        <time>2015-11-14T12:45:39Z</time>
      </trkpt>
      <trkpt lat="43.57806" lon="3.3686">
        <ele>176</ele>
        <time>2015-11-14T12:45:40Z</time>
      </trkpt>
      <trkpt lat="43.57806" lon="3.36863">
        <ele>176</ele>
        <time>2015-11-14T12:45:41Z</time>
      </trkpt>
      <trkpt lat="43.57806" lon="3.36866">
        <ele>176</ele>
        <time>2015-11-14T12:45:42Z</time>
      </trkpt>
      <trkpt lat="43.57807" lon="3.36868">
        <ele>176</ele>
        <time>2015-11-14T12:45:43Z</time>
      </trkpt>
      <trkpt lat="43.57807" lon="3.36871">
        <ele>176</ele>
        <time>2015-11-14T12:45:44Z</time>
      </trkpt>
      <trkpt lat="43.57808" lon="3.36874">
        <ele>175.5</ele>
        <time>2015-11-14T12:45:45Z</time>
      </trkpt>
      <trkpt lat="43.57808" lon="3.36877">
        <ele>175.5</ele>
        <time>2015-11-14T12:45:46Z</time>
      </trkpt>
      <trkpt lat="43.57808" lon="3.36881">
        <ele>175.5</ele>
        <time>2015-11-14T12:45:47Z</time>
      </trkpt>
      <trkpt lat="43.57808" lon="3.36886">
        <ele>175</ele>
        <time>2015-11-14T12:45:48Z</time>
      </trkpt>
      <trkpt lat="43.57809" lon="3.3689">
        <ele>175</ele>
        <time>2015-11-14T12:45:49Z</time>
      </trkpt>
      <trkpt lat="43.57809" lon="3.36895">
        <ele>174.5</ele>
        <time>2015-11-14T12:45:50Z</time>
      </trkpt>
      <trkpt lat="43.57809" lon="3.369">
        <ele>174.5</ele>
        <time>2015-11-14T12:45:51Z</time>
      </trkpt>
      <trkpt lat="43.5781" lon="3.36905">
        <ele>174</ele>
        <time>2015-11-14T12:45:52Z</time>
      </trkpt>
      <trkpt lat="43.5781" lon="3.36911">
        <ele>173.5</ele>
        <time>2015-11-14T12:45:53Z</time>
      </trkpt>
      <trkpt lat="43.5781" lon="3.36917">
        <ele>173.5</ele>
        <time>2015-11-14T12:45:54Z</time>
      </trkpt>
      <trkpt lat="43.5781" lon="3.36923">
        <ele>173</ele>
        <time>2015-11-14T12:45:55Z</time>
      </trkpt>
      <trkpt lat="43.5781" lon="3.36929">
        <ele>173</ele>
        <time>2015-11-14T12:45:56Z</time>
      </trkpt>
      <trkpt lat="43.5781" lon="3.36935">
        <ele>173</ele>
        <time>2015-11-14T12:45:57Z</time>
      </trkpt>
      <trkpt lat="43.5781" lon="3.36941">
        <ele>173</ele>
        <time>2015-11-14T12:45:58Z</time>
      </trkpt>
      <trkpt lat="43.57811" lon="3.36947">
        <ele>173</ele>
        <time>2015-11-14T12:45:59Z</time>
      </trkpt>
      <trkpt lat="43.57812" lon="3.36952">
        <ele>173.5</ele>
        <time>2015-11-14T12:46:00Z</time>
      </trkpt>
      <trkpt lat="43.57813" lon="3.36957">
        <ele>173</ele>
        <time>2015-11-14T12:46:01Z</time>
      </trkpt>
      <trkpt lat="43.57814" lon="3.36961">
        <ele>173.5</ele>
        <time>2015-11-14T12:46:02Z</time>
      </trkpt>
      <trkpt lat="43.57815" lon="3.36965">
        <ele>173</ele>
        <time>2015-11-14T12:46:03Z</time>
      </trkpt>
      <trkpt lat="43.57816" lon="3.36969">
        <ele>173</ele>
        <time>2015-11-14T12:46:04Z</time>
      </trkpt>
      <trkpt lat="43.57817" lon="3.36973">
        <ele>173.5</ele>
        <time>2015-11-14T12:46:05Z</time>
      </trkpt>
      <trkpt lat="43.57818" lon="3.36977">
        <ele>173.5</ele>
        <time>2015-11-14T12:46:06Z</time>
      </trkpt>
      <trkpt lat="43.57819" lon="3.36981">
        <ele>173</ele>
        <time>2015-11-14T12:46:07Z</time>
      </trkpt>
      <trkpt lat="43.5782" lon="3.36985">
        <ele>173</ele>
        <time>2015-11-14T12:46:08Z</time>
      </trkpt>
      <trkpt lat="43.57821" lon="3.36989">
        <ele>173.5</ele>
        <time>2015-11-14T12:46:09Z</time>
      </trkpt>
      <trkpt lat="43.57821" lon="3.36993">
        <ele>173.5</ele>
        <time>2015-11-14T12:46:10Z</time>
      </trkpt>
      <trkpt lat="43.57822" lon="3.36998">
        <ele>173.5</ele>
        <time>2015-11-14T12:46:11Z</time>
      </trkpt>
      <trkpt lat="43.57822" lon="3.37002">
        <ele>174</ele>
        <time>2015-11-14T12:46:12Z</time>
      </trkpt>
      <trkpt lat="43.57823" lon="3.37006">
        <ele>174</ele>
        <time>2015-11-14T12:46:13Z</time>
      </trkpt>
      <trkpt lat="43.57824" lon="3.3701">
        <ele>174</ele>
        <time>2015-11-14T12:46:14Z</time>
      </trkpt>
      <trkpt lat="43.57824" lon="3.37014">
        <ele>174.5</ele>
        <time>2015-11-14T12:46:15Z</time>
      </trkpt>
      <trkpt lat="43.57825" lon="3.37018">
        <ele>174.5</ele>
        <time>2015-11-14T12:46:16Z</time>
      </trkpt>
      <trkpt lat="43.57826" lon="3.37022">
        <ele>175</ele>
        <time>2015-11-14T12:46:17Z</time>
      </trkpt>
      <trkpt lat="43.57827" lon="3.37025">
        <ele>175</ele>
        <time>2015-11-14T12:46:18Z</time>
      </trkpt>
      <trkpt lat="43.57829" lon="3.37029">
        <ele>175</ele>
        <time>2015-11-14T12:46:19Z</time>
      </trkpt>
      <trkpt lat="43.5783" lon="3.37032">
        <ele>175.5</ele>
        <time>2015-11-14T12:46:20Z</time>
      </trkpt>
      <trkpt lat="43.57832" lon="3.37035">
        <ele>176</ele>
        <time>2015-11-14T12:46:21Z</time>
      </trkpt>
      <trkpt lat="43.57834" lon="3.37038">
        <ele>176</ele>
        <time>2015-11-14T12:46:22Z</time>
      </trkpt>
      <trkpt lat="43.57836" lon="3.3704">
        <ele>176</ele>
        <time>2015-11-14T12:46:23Z</time>
      </trkpt>
      <trkpt lat="43.57838" lon="3.37042">
        <ele>176.5</ele>
        <time>2015-11-14T12:46:24Z</time>
      </trkpt>
      <trkpt lat="43.57841" lon="3.37044">
        <ele>177</ele>
        <time>2015-11-14T12:46:25Z</time>
      </trkpt>
      <trkpt lat="43.57843" lon="3.37046">
        <ele>177</ele>
        <time>2015-11-14T12:46:26Z</time>
      </trkpt>
      <trkpt lat="43.57845" lon="3.37048">
        <ele>177.5</ele>
        <time>2015-11-14T12:46:27Z</time>
      </trkpt>
      <trkpt lat="43.57848" lon="3.37049">
        <ele>177.5</ele>
        <time>2015-11-14T12:46:28Z</time>
      </trkpt>
      <trkpt lat="43.5785" lon="3.3705">
        <ele>178</ele>
        <time>2015-11-14T12:46:29Z</time>
      </trkpt>
      <trkpt lat="43.57852" lon="3.37051">
        <ele>178.5</ele>
        <time>2015-11-14T12:46:30Z</time>
      </trkpt>
      <trkpt lat="43.57854" lon="3.37053">
        <ele>178.5</ele>
        <time>2015-11-14T12:46:30Z</time>
      </trkpt>
      <trkpt lat="43.57856" lon="3.37054">
        <ele>179</ele>
        <time>2015-11-14T12:46:32Z</time>
      </trkpt>
      <trkpt lat="43.57858" lon="3.37056">
        <ele>179</ele>
        <time>2015-11-14T12:46:32Z</time>
      </trkpt>
      <trkpt lat="43.57861" lon="3.37058">
        <ele>179.5</ele>
        <time>2015-11-14T12:46:33Z</time>
      </trkpt>
      <trkpt lat="43.57863" lon="3.37061">
        <ele>179.5</ele>
        <time>2015-11-14T12:46:34Z</time>
      </trkpt>
      <trkpt lat="43.57864" lon="3.37062">
        <ele>180</ele>
        <time>2015-11-14T12:46:35Z</time>
      </trkpt>
      <trkpt lat="43.57866" lon="3.37064">
        <ele>180</ele>
        <time>2015-11-14T12:46:36Z</time>
      </trkpt>
      <trkpt lat="43.57868" lon="3.37067">
        <ele>180.5</ele>
        <time>2015-11-14T12:46:37Z</time>
      </trkpt>
      <trkpt lat="43.57869" lon="3.3707">
        <ele>180.5</ele>
        <time>2015-11-14T12:46:38Z</time>
      </trkpt>
      <trkpt lat="43.57871" lon="3.37072">
        <ele>180.5</ele>
        <time>2015-11-14T12:46:39Z</time>
      </trkpt>
      <trkpt lat="43.57873" lon="3.37075">
        <ele>181</ele>
        <time>2015-11-14T12:46:40Z</time>
      </trkpt>
      <trkpt lat="43.57874" lon="3.37078">
        <ele>181</ele>
        <time>2015-11-14T12:46:41Z</time>
      </trkpt>
      <trkpt lat="43.57876" lon="3.37081">
        <ele>181</ele>
        <time>2015-11-14T12:46:43Z</time>
      </trkpt>
      <trkpt lat="43.57878" lon="3.37083">
        <ele>181.5</ele>
        <time>2015-11-14T12:46:43Z</time>
      </trkpt>
      <trkpt lat="43.57879" lon="3.37086">
        <ele>181.5</ele>
        <time>2015-11-14T12:46:44Z</time>
      </trkpt>
      <trkpt lat="43.57881" lon="3.37089">
        <ele>181.5</ele>
        <time>2015-11-14T12:46:45Z</time>
      </trkpt>
      <trkpt lat="43.57883" lon="3.37091">
        <ele>181.5</ele>
        <time>2015-11-14T12:46:46Z</time>
      </trkpt>
      <trkpt lat="43.57885" lon="3.37094">
        <ele>181.5</ele>
        <time>2015-11-14T12:46:47Z</time>
      </trkpt>
      <trkpt lat="43.57887" lon="3.37096">
        <ele>181.5</ele>
        <time>2015-11-14T12:46:48Z</time>
      </trkpt>
      <trkpt lat="43.57888" lon="3.37099">
        <ele>181.5</ele>
        <time>2015-11-14T12:46:49Z</time>
      </trkpt>
      <trkpt lat="43.5789" lon="3.37101">
        <ele>181.5</ele>
        <time>2015-11-14T12:46:50Z</time>
      </trkpt>
      <trkpt lat="43.57893" lon="3.37103">
        <ele>182</ele>
        <time>2015-11-14T12:46:52Z</time>
      </trkpt>
      <trkpt lat="43.57895" lon="3.37105">
        <ele>182</ele>
        <time>2015-11-14T12:46:52Z</time>
      </trkpt>
      <trkpt lat="43.57897" lon="3.37107">
        <ele>182.5</ele>
        <time>2015-11-14T12:46:53Z</time>
      </trkpt>
      <trkpt lat="43.57899" lon="3.37108">
        <ele>182.5</ele>
        <time>2015-11-14T12:46:54Z</time>
      </trkpt>
      <trkpt lat="43.57901" lon="3.3711">
        <ele>182.5</ele>
        <time>2015-11-14T12:46:55Z</time>
      </trkpt>
      <trkpt lat="43.57903" lon="3.37111">
        <ele>183</ele>
        <time>2015-11-14T12:46:56Z</time>
      </trkpt>
      <trkpt lat="43.57905" lon="3.37113">
        <ele>183.5</ele>
        <time>2015-11-14T12:46:57Z</time>
      </trkpt>
      <trkpt lat="43.57907" lon="3.37112">
        <ele>185</ele>
        <time>2015-11-14T12:46:58Z</time>
      </trkpt>
      <trkpt lat="43.57909" lon="3.37113">
        <ele>185.5</ele>
        <time>2015-11-14T12:46:59Z</time>
      </trkpt>
      <trkpt lat="43.57911" lon="3.37115">
        <ele>185.5</ele>
        <time>2015-11-14T12:47:00Z</time>
      </trkpt>
      <trkpt lat="43.57913" lon="3.37117">
        <ele>186</ele>
        <time>2015-11-14T12:47:01Z</time>
      </trkpt>
      <trkpt lat="43.57915" lon="3.37118">
        <ele>186</ele>
        <time>2015-11-14T12:47:02Z</time>
      </trkpt>
      <trkpt lat="43.57917" lon="3.37119">
        <ele>186.5</ele>
        <time>2015-11-14T12:47:03Z</time>
      </trkpt>
      <trkpt lat="43.57919" lon="3.3712">
        <ele>186.5</ele>
        <time>2015-11-14T12:47:04Z</time>
      </trkpt>
      <trkpt lat="43.57921" lon="3.37121">
        <ele>186.5</ele>
        <time>2015-11-14T12:47:05Z</time>
      </trkpt>
      <trkpt lat="43.57923" lon="3.37121">
        <ele>186.5</ele>
        <time>2015-11-14T12:47:06Z</time>
      </trkpt>
      <trkpt lat="43.57925" lon="3.37122">
        <ele>186</ele>
        <time>2015-11-14T12:47:07Z</time>
      </trkpt>
      <trkpt lat="43.57927" lon="3.37123">
        <ele>186</ele>
        <time>2015-11-14T12:47:08Z</time>
      </trkpt>
      <trkpt lat="43.5793" lon="3.37124">
        <ele>186</ele>
        <time>2015-11-14T12:47:09Z</time>
      </trkpt>
      <trkpt lat="43.57931" lon="3.37124">
        <ele>186</ele>
        <time>2015-11-14T12:47:10Z</time>
      </trkpt>
      <trkpt lat="43.57934" lon="3.37125">
        <ele>186</ele>
        <time>2015-11-14T12:47:11Z</time>
      </trkpt>
      <trkpt lat="43.57936" lon="3.37126">
        <ele>186</ele>
        <time>2015-11-14T12:47:12Z</time>
      </trkpt>
      <trkpt lat="43.57938" lon="3.37127">
        <ele>186</ele>
        <time>2015-11-14T12:47:13Z</time>
      </trkpt>
      <trkpt lat="43.5794" lon="3.37128">
        <ele>186.5</ele>
        <time>2015-11-14T12:47:14Z</time>
      </trkpt>
      <trkpt lat="43.57943" lon="3.37128">
        <ele>186.5</ele>
        <time>2015-11-14T12:47:15Z</time>
      </trkpt>
      <trkpt lat="43.57945" lon="3.37129">
        <ele>186.5</ele>
        <time>2015-11-14T12:47:16Z</time>
      </trkpt>
      <trkpt lat="43.57948" lon="3.37129">
        <ele>186.5</ele>
        <time>2015-11-14T12:47:17Z</time>
      </trkpt>
      <trkpt lat="43.5795" lon="3.37129">
        <ele>187</ele>
        <time>2015-11-14T12:47:18Z</time>
      </trkpt>
      <trkpt lat="43.57953" lon="3.3713">
        <ele>187.5</ele>
        <time>2015-11-14T12:47:19Z</time>
      </trkpt>
      <trkpt lat="43.57955" lon="3.3713">
        <ele>187.5</ele>
        <time>2015-11-14T12:47:20Z</time>
      </trkpt>
      <trkpt lat="43.57958" lon="3.37129">
        <ele>187.5</ele>
        <time>2015-11-14T12:47:21Z</time>
      </trkpt>
      <trkpt lat="43.5796" lon="3.37129">
        <ele>187.5</ele>
        <time>2015-11-14T12:47:23Z</time>
      </trkpt>
      <trkpt lat="43.57962" lon="3.37128">
        <ele>187.5</ele>
        <time>2015-11-14T12:47:23Z</time>
      </trkpt>
      <trkpt lat="43.57965" lon="3.37128">
        <ele>187.5</ele>
        <time>2015-11-14T12:47:24Z</time>
      </trkpt>
      <trkpt lat="43.57967" lon="3.37128">
        <ele>187.5</ele>
        <time>2015-11-14T12:47:25Z</time>
      </trkpt>
      <trkpt lat="43.5797" lon="3.37127">
        <ele>187.5</ele>
        <time>2015-11-14T12:47:26Z</time>
      </trkpt>
      <trkpt lat="43.57972" lon="3.37127">
        <ele>187.5</ele>
        <time>2015-11-14T12:47:27Z</time>
      </trkpt>
      <trkpt lat="43.57975" lon="3.37127">
        <ele>187.5</ele>
        <time>2015-11-14T12:47:28Z</time>
      </trkpt>
      <trkpt lat="43.57978" lon="3.37126">
        <ele>187</ele>
        <time>2015-11-14T12:47:29Z</time>
      </trkpt>
      <trkpt lat="43.57981" lon="3.37126">
        <ele>187</ele>
        <time>2015-11-14T12:47:30Z</time>
      </trkpt>
      <trkpt lat="43.57983" lon="3.37126">
        <ele>187.5</ele>
        <time>2015-11-14T12:47:31Z</time>
      </trkpt>
      <trkpt lat="43.57986" lon="3.37125">
        <ele>187</ele>
        <time>2015-11-14T12:47:32Z</time>
      </trkpt>
      <trkpt lat="43.57989" lon="3.37125">
        <ele>187.5</ele>
        <time>2015-11-14T12:47:33Z</time>
      </trkpt>
      <trkpt lat="43.57991" lon="3.37125">
        <ele>187.5</ele>
        <time>2015-11-14T12:47:34Z</time>
      </trkpt>
      <trkpt lat="43.57994" lon="3.37126">
        <ele>187</ele>
        <time>2015-11-14T12:47:35Z</time>
      </trkpt>
      <trkpt lat="43.57997" lon="3.37126">
        <ele>187</ele>
        <time>2015-11-14T12:47:36Z</time>
      </trkpt>
      <trkpt lat="43.58" lon="3.37127">
        <ele>187</ele>
        <time>2015-11-14T12:47:37Z</time>
      </trkpt>
      <trkpt lat="43.58003" lon="3.37128">
        <ele>187</ele>
        <time>2015-11-14T12:47:38Z</time>
      </trkpt>
      <trkpt lat="43.58006" lon="3.37129">
        <ele>187</ele>
        <time>2015-11-14T12:47:39Z</time>
      </trkpt>
      <trkpt lat="43.58009" lon="3.3713">
        <ele>187</ele>
        <time>2015-11-14T12:47:40Z</time>
      </trkpt>
      <trkpt lat="43.58011" lon="3.3713">
        <ele>187.5</ele>
        <time>2015-11-14T12:47:41Z</time>
      </trkpt>
      <trkpt lat="43.58014" lon="3.37131">
        <ele>187.5</ele>
        <time>2015-11-14T12:47:42Z</time>
      </trkpt>
      <trkpt lat="43.58017" lon="3.37132">
        <ele>187.5</ele>
        <time>2015-11-14T12:47:43Z</time>
      </trkpt>
      <trkpt lat="43.5802" lon="3.37133">
        <ele>188</ele>
        <time>2015-11-14T12:47:44Z</time>
      </trkpt>
      <trkpt lat="43.58023" lon="3.37135">
        <ele>188</ele>
        <time>2015-11-14T12:47:45Z</time>
      </trkpt>
      <trkpt lat="43.58026" lon="3.37136">
        <ele>188</ele>
        <time>2015-11-14T12:47:46Z</time>
      </trkpt>
      <trkpt lat="43.58028" lon="3.37137">
        <ele>188</ele>
        <time>2015-11-14T12:47:47Z</time>
      </trkpt>
      <trkpt lat="43.58031" lon="3.37137">
        <ele>189</ele>
        <time>2015-11-14T12:47:48Z</time>
      </trkpt>
      <trkpt lat="43.58034" lon="3.37138">
        <ele>188.5</ele>
        <time>2015-11-14T12:47:49Z</time>
      </trkpt>
      <trkpt lat="43.58036" lon="3.3714">
        <ele>188.5</ele>
        <time>2015-11-14T12:47:50Z</time>
      </trkpt>
      <trkpt lat="43.58039" lon="3.37141">
        <ele>188.5</ele>
        <time>2015-11-14T12:47:51Z</time>
      </trkpt>
      <trkpt lat="43.58042" lon="3.37142">
        <ele>188.5</ele>
        <time>2015-11-14T12:47:52Z</time>
      </trkpt>
      <trkpt lat="43.58045" lon="3.37143">
        <ele>188.5</ele>
        <time>2015-11-14T12:47:53Z</time>
      </trkpt>
      <trkpt lat="43.58047" lon="3.37144">
        <ele>189</ele>
        <time>2015-11-14T12:47:54Z</time>
      </trkpt>
      <trkpt lat="43.5805" lon="3.37144">
        <ele>189</ele>
        <time>2015-11-14T12:47:55Z</time>
      </trkpt>
      <trkpt lat="43.58052" lon="3.37145">
        <ele>188.5</ele>
        <time>2015-11-14T12:47:56Z</time>
      </trkpt>
      <trkpt lat="43.58055" lon="3.37145">
        <ele>188.5</ele>
        <time>2015-11-14T12:47:57Z</time>
      </trkpt>
      <trkpt lat="43.58057" lon="3.37146">
        <ele>188.5</ele>
        <time>2015-11-14T12:47:58Z</time>
      </trkpt>
      <trkpt lat="43.5806" lon="3.37147">
        <ele>188.5</ele>
        <time>2015-11-14T12:47:59Z</time>
      </trkpt>
      <trkpt lat="43.58062" lon="3.37147">
        <ele>188.5</ele>
        <time>2015-11-14T12:48:00Z</time>
      </trkpt>
      <trkpt lat="43.58065" lon="3.37147">
        <ele>189</ele>
        <time>2015-11-14T12:48:01Z</time>
      </trkpt>
      <trkpt lat="43.58067" lon="3.37148">
        <ele>189</ele>
        <time>2015-11-14T12:48:02Z</time>
      </trkpt>
      <trkpt lat="43.5807" lon="3.3715">
        <ele>189.5</ele>
        <time>2015-11-14T12:48:03Z</time>
      </trkpt>
      <trkpt lat="43.58072" lon="3.37152">
        <ele>190</ele>
        <time>2015-11-14T12:48:04Z</time>
      </trkpt>
      <trkpt lat="43.58074" lon="3.37154">
        <ele>190</ele>
        <time>2015-11-14T12:48:05Z</time>
      </trkpt>
      <trkpt lat="43.58076" lon="3.37156">
        <ele>190.5</ele>
        <time>2015-11-14T12:48:06Z</time>
      </trkpt>
      <trkpt lat="43.58078" lon="3.37159">
        <ele>191</ele>
        <time>2015-11-14T12:48:07Z</time>
      </trkpt>
      <trkpt lat="43.58079" lon="3.37162">
        <ele>191</ele>
        <time>2015-11-14T12:48:08Z</time>
      </trkpt>
      <trkpt lat="43.58081" lon="3.37164">
        <ele>191.5</ele>
        <time>2015-11-14T12:48:09Z</time>
      </trkpt>
      <trkpt lat="43.58082" lon="3.37167">
        <ele>192</ele>
        <time>2015-11-14T12:48:10Z</time>
      </trkpt>
      <trkpt lat="43.58084" lon="3.3717">
        <ele>192.5</ele>
        <time>2015-11-14T12:48:11Z</time>
      </trkpt>
      <trkpt lat="43.58085" lon="3.37173">
        <ele>193.5</ele>
        <time>2015-11-14T12:48:12Z</time>
      </trkpt>
      <trkpt lat="43.58086" lon="3.37176">
        <ele>194</ele>
        <time>2015-11-14T12:48:13Z</time>
      </trkpt>
      <trkpt lat="43.58088" lon="3.37179">
        <ele>195</ele>
        <time>2015-11-14T12:48:14Z</time>
      </trkpt>
      <trkpt lat="43.58089" lon="3.37182">
        <ele>196</ele>
        <time>2015-11-14T12:48:15Z</time>
      </trkpt>
      <trkpt lat="43.58091" lon="3.37185">
        <ele>196</ele>
        <time>2015-11-14T12:48:16Z</time>
      </trkpt>
      <trkpt lat="43.58092" lon="3.37188">
        <ele>196.5</ele>
        <time>2015-11-14T12:48:17Z</time>
      </trkpt>
      <trkpt lat="43.58094" lon="3.37191">
        <ele>196.5</ele>
        <time>2015-11-14T12:48:18Z</time>
      </trkpt>
      <trkpt lat="43.58096" lon="3.37193">
        <ele>196.5</ele>
        <time>2015-11-14T12:48:19Z</time>
      </trkpt>
      <trkpt lat="43.58098" lon="3.37196">
        <ele>197.5</ele>
        <time>2015-11-14T12:48:20Z</time>
      </trkpt>
      <trkpt lat="43.581" lon="3.37198">
        <ele>198</ele>
        <time>2015-11-14T12:48:21Z</time>
      </trkpt>
      <trkpt lat="43.58101" lon="3.372">
        <ele>198.5</ele>
        <time>2015-11-14T12:48:22Z</time>
      </trkpt>
      <trkpt lat="43.58103" lon="3.372">
        <ele>199</ele>
        <time>2015-11-14T12:48:23Z</time>
      </trkpt>
      <trkpt lat="43.58105" lon="3.37203">
        <ele>199</ele>
        <time>2015-11-14T12:48:24Z</time>
      </trkpt>
      <trkpt lat="43.58107" lon="3.37205">
        <ele>199.5</ele>
        <time>2015-11-14T12:48:25Z</time>
      </trkpt>
      <trkpt lat="43.58108" lon="3.37206">
        <ele>200</ele>
        <time>2015-11-14T12:48:26Z</time>
      </trkpt>
      <trkpt lat="43.5811" lon="3.37208">
        <ele>200.5</ele>
        <time>2015-11-14T12:48:27Z</time>
      </trkpt>
      <trkpt lat="43.58112" lon="3.37209">
        <ele>201</ele>
        <time>2015-11-14T12:48:28Z</time>
      </trkpt>
      <trkpt lat="43.58114" lon="3.37211">
        <ele>201</ele>
        <time>2015-11-14T12:48:29Z</time>
      </trkpt>
      <trkpt lat="43.58117" lon="3.37212">
        <ele>201.5</ele>
        <time>2015-11-14T12:48:30Z</time>
      </trkpt>
      <trkpt lat="43.58119" lon="3.37213">
        <ele>201.5</ele>
        <time>2015-11-14T12:48:31Z</time>
      </trkpt>
      <trkpt lat="43.58121" lon="3.37214">
        <ele>202</ele>
        <time>2015-11-14T12:48:32Z</time>
      </trkpt>
      <trkpt lat="43.58123" lon="3.37216">
        <ele>202</ele>
        <time>2015-11-14T12:48:33Z</time>
      </trkpt>
      <trkpt lat="43.58125" lon="3.37217">
        <ele>202.5</ele>
        <time>2015-11-14T12:48:34Z</time>
      </trkpt>
      <trkpt lat="43.58127" lon="3.37219">
        <ele>202.5</ele>
        <time>2015-11-14T12:48:35Z</time>
      </trkpt>
      <trkpt lat="43.58129" lon="3.3722">
        <ele>203</ele>
        <time>2015-11-14T12:48:36Z</time>
      </trkpt>
      <trkpt lat="43.58131" lon="3.37221">
        <ele>203</ele>
        <time>2015-11-14T12:48:37Z</time>
      </trkpt>
      <trkpt lat="43.58133" lon="3.37223">
        <ele>203</ele>
        <time>2015-11-14T12:48:38Z</time>
      </trkpt>
      <trkpt lat="43.58135" lon="3.37224">
        <ele>203.5</ele>
        <time>2015-11-14T12:48:39Z</time>
      </trkpt>
      <trkpt lat="43.58136" lon="3.37226">
        <ele>204</ele>
        <time>2015-11-14T12:48:40Z</time>
      </trkpt>
      <trkpt lat="43.58138" lon="3.37229">
        <ele>204</ele>
        <time>2015-11-14T12:48:41Z</time>
      </trkpt>
      <trkpt lat="43.58139" lon="3.37231">
        <ele>204</ele>
        <time>2015-11-14T12:48:42Z</time>
      </trkpt>
      <trkpt lat="43.58141" lon="3.37234">
        <ele>204</ele>
        <time>2015-11-14T12:48:43Z</time>
      </trkpt>
      <trkpt lat="43.58143" lon="3.37237">
        <ele>204</ele>
        <time>2015-11-14T12:48:44Z</time>
      </trkpt>
      <trkpt lat="43.58144" lon="3.3724">
        <ele>203.5</ele>
        <time>2015-11-14T12:48:45Z</time>
      </trkpt>
      <trkpt lat="43.58146" lon="3.37243">
        <ele>203.5</ele>
        <time>2015-11-14T12:48:46Z</time>
      </trkpt>
      <trkpt lat="43.58148" lon="3.37246">
        <ele>203.5</ele>
        <time>2015-11-14T12:48:47Z</time>
      </trkpt>
      <trkpt lat="43.5815" lon="3.3725">
        <ele>203</ele>
        <time>2015-11-14T12:48:48Z</time>
      </trkpt>
      <trkpt lat="43.58152" lon="3.37252">
        <ele>203</ele>
        <time>2015-11-14T12:48:49Z</time>
      </trkpt>
      <trkpt lat="43.58153" lon="3.37255">
        <ele>202.5</ele>
        <time>2015-11-14T12:48:50Z</time>
      </trkpt>
      <trkpt lat="43.58155" lon="3.37258">
        <ele>202.5</ele>
        <time>2015-11-14T12:48:51Z</time>
      </trkpt>
      <trkpt lat="43.58157" lon="3.37261">
        <ele>203</ele>
        <time>2015-11-14T12:48:52Z</time>
      </trkpt>
      <trkpt lat="43.58159" lon="3.37264">
        <ele>202.5</ele>
        <time>2015-11-14T12:48:53Z</time>
      </trkpt>
      <trkpt lat="43.58161" lon="3.37266">
        <ele>202.5</ele>
        <time>2015-11-14T12:48:54Z</time>
      </trkpt>
      <trkpt lat="43.58163" lon="3.37269">
        <ele>202.5</ele>
        <time>2015-11-14T12:48:55Z</time>
      </trkpt>
      <trkpt lat="43.58165" lon="3.37271">
        <ele>202.5</ele>
        <time>2015-11-14T12:48:56Z</time>
      </trkpt>
      <trkpt lat="43.58168" lon="3.37273">
        <ele>202</ele>
        <time>2015-11-14T12:48:57Z</time>
      </trkpt>
      <trkpt lat="43.58171" lon="3.37275">
        <ele>201.5</ele>
        <time>2015-11-14T12:48:58Z</time>
      </trkpt>
      <trkpt lat="43.58175" lon="3.37277">
        <ele>201</ele>
        <time>2015-11-14T12:48:59Z</time>
      </trkpt>
      <trkpt lat="43.58178" lon="3.37277">
        <ele>200</ele>
        <time>2015-11-14T12:49:00Z</time>
      </trkpt>
      <trkpt lat="43.58181" lon="3.37277">
        <ele>200</ele>
        <time>2015-11-14T12:49:01Z</time>
      </trkpt>
      <trkpt lat="43.58185" lon="3.37276">
        <ele>199.5</ele>
        <time>2015-11-14T12:49:02Z</time>
      </trkpt>
      <trkpt lat="43.58189" lon="3.37275">
        <ele>198.5</ele>
        <time>2015-11-14T12:49:03Z</time>
      </trkpt>
      <trkpt lat="43.58194" lon="3.37275">
        <ele>198</ele>
        <time>2015-11-14T12:49:04Z</time>
      </trkpt>
      <trkpt lat="43.58199" lon="3.37275">
        <ele>197.5</ele>
        <time>2015-11-14T12:49:05Z</time>
      </trkpt>
      <trkpt lat="43.58204" lon="3.37277">
        <ele>197</ele>
        <time>2015-11-14T12:49:06Z</time>
      </trkpt>
      <trkpt lat="43.58208" lon="3.3728">
        <ele>196.5</ele>
        <time>2015-11-14T12:49:07Z</time>
      </trkpt>
      <trkpt lat="43.58212" lon="3.37285">
        <ele>197</ele>
        <time>2015-11-14T12:49:08Z</time>
      </trkpt>
      <trkpt lat="43.58212" lon="3.37292">
        <ele>198.5</ele>
        <time>2015-11-14T12:49:09Z</time>
      </trkpt>
      <trkpt lat="43.58211" lon="3.37298">
        <ele>197.5</ele>
        <time>2015-11-14T12:49:10Z</time>
      </trkpt>
      <trkpt lat="43.58209" lon="3.37303">
        <ele>198</ele>
        <time>2015-11-14T12:49:11Z</time>
      </trkpt>
      <trkpt lat="43.58207" lon="3.37306">
        <ele>198.5</ele>
        <time>2015-11-14T12:49:12Z</time>
      </trkpt>
      <trkpt lat="43.58205" lon="3.37309">
        <ele>198.5</ele>
        <time>2015-11-14T12:49:13Z</time>
      </trkpt>
      <trkpt lat="43.58203" lon="3.37312">
        <ele>199</ele>
        <time>2015-11-14T12:49:14Z</time>
      </trkpt>
      <trkpt lat="43.58202" lon="3.37314">
        <ele>199.5</ele>
        <time>2015-11-14T12:49:15Z</time>
      </trkpt>
      <trkpt lat="43.58201" lon="3.37316">
        <ele>199.5</ele>
        <time>2015-11-14T12:49:16Z</time>
      </trkpt>
      <trkpt lat="43.58199" lon="3.37319">
        <ele>200</ele>
        <time>2015-11-14T12:49:17Z</time>
      </trkpt>
      <trkpt lat="43.58198" lon="3.37322">
        <ele>200</ele>
        <time>2015-11-14T12:49:18Z</time>
      </trkpt>
      <trkpt lat="43.58197" lon="3.37324">
        <ele>200.5</ele>
        <time>2015-11-14T12:49:19Z</time>
      </trkpt>
      <trkpt lat="43.58196" lon="3.37327">
        <ele>200.5</ele>
        <time>2015-11-14T12:49:20Z</time>
      </trkpt>
      <trkpt lat="43.58194" lon="3.37331">
        <ele>199</ele>
        <time>2015-11-14T12:49:21Z</time>
      </trkpt>
      <trkpt lat="43.58194" lon="3.37334">
        <ele>198</ele>
        <time>2015-11-14T12:49:22Z</time>
      </trkpt>
      <trkpt lat="43.58193" lon="3.37339">
        <ele>197.5</ele>
        <time>2015-11-14T12:49:23Z</time>
      </trkpt>
      <trkpt lat="43.58193" lon="3.37343">
        <ele>197</ele>
        <time>2015-11-14T12:49:24Z</time>
      </trkpt>
      <trkpt lat="43.58193" lon="3.37348">
        <ele>196.5</ele>
        <time>2015-11-14T12:49:25Z</time>
      </trkpt>
      <trkpt lat="43.58193" lon="3.37353">
        <ele>196</ele>
        <time>2015-11-14T12:49:26Z</time>
      </trkpt>
      <trkpt lat="43.58194" lon="3.37357">
        <ele>195.5</ele>
        <time>2015-11-14T12:49:27Z</time>
      </trkpt>
      <trkpt lat="43.58194" lon="3.37363">
        <ele>195</ele>
        <time>2015-11-14T12:49:28Z</time>
      </trkpt>
      <trkpt lat="43.58195" lon="3.37368">
        <ele>194.5</ele>
        <time>2015-11-14T12:49:29Z</time>
      </trkpt>
      <trkpt lat="43.58195" lon="3.37374">
        <ele>194.5</ele>
        <time>2015-11-14T12:49:30Z</time>
      </trkpt>
      <trkpt lat="43.58196" lon="3.3738">
        <ele>194</ele>
        <time>2015-11-14T12:49:31Z</time>
      </trkpt>
      <trkpt lat="43.58197" lon="3.37386">
        <ele>194</ele>
        <time>2015-11-14T12:49:32Z</time>
      </trkpt>
      <trkpt lat="43.58198" lon="3.37392">
        <ele>194</ele>
        <time>2015-11-14T12:49:33Z</time>
      </trkpt>
      <trkpt lat="43.58198" lon="3.37398">
        <ele>194</ele>
        <time>2015-11-14T12:49:34Z</time>
      </trkpt>
      <trkpt lat="43.58198" lon="3.37404">
        <ele>194.5</ele>
        <time>2015-11-14T12:49:35Z</time>
      </trkpt>
      <trkpt lat="43.58198" lon="3.37409">
        <ele>194.5</ele>
        <time>2015-11-14T12:49:36Z</time>
      </trkpt>
      <trkpt lat="43.58198" lon="3.37414">
        <ele>194.5</ele>
        <time>2015-11-14T12:49:37Z</time>
      </trkpt>
      <trkpt lat="43.58198" lon="3.37419">
        <ele>194.5</ele>
        <time>2015-11-14T12:49:38Z</time>
      </trkpt>
      <trkpt lat="43.58198" lon="3.37424">
        <ele>194</ele>
        <time>2015-11-14T12:49:39Z</time>
      </trkpt>
      <trkpt lat="43.58197" lon="3.3743">
        <ele>193.5</ele>
        <time>2015-11-14T12:49:40Z</time>
      </trkpt>
      <trkpt lat="43.58197" lon="3.37437">
        <ele>192.5</ele>
        <time>2015-11-14T12:49:40Z</time>
      </trkpt>
      <trkpt lat="43.58198" lon="3.37444">
        <ele>192</ele>
        <time>2015-11-14T12:49:41Z</time>
      </trkpt>
      <trkpt lat="43.582" lon="3.37451">
        <ele>192</ele>
        <time>2015-11-14T12:49:42Z</time>
      </trkpt>
      <trkpt lat="43.58202" lon="3.37458">
        <ele>191</ele>
        <time>2015-11-14T12:49:43Z</time>
      </trkpt>
      <trkpt lat="43.58205" lon="3.37466">
        <ele>190</ele>
        <time>2015-11-14T12:49:44Z</time>
      </trkpt>
      <trkpt lat="43.58208" lon="3.37475">
        <ele>189</ele>
        <time>2015-11-14T12:49:45Z</time>
      </trkpt>
      <trkpt lat="43.5821" lon="3.37485">
        <ele>188</ele>
        <time>2015-11-14T12:49:46Z</time>
      </trkpt>
      <trkpt lat="43.58213" lon="3.37496">
        <ele>187</ele>
        <time>2015-11-14T12:49:47Z</time>
      </trkpt>
      <trkpt lat="43.58218" lon="3.37504">
        <ele>185.5</ele>
        <time>2015-11-14T12:49:48Z</time>
      </trkpt>
      <trkpt lat="43.58223" lon="3.37513">
        <ele>185</ele>
        <time>2015-11-14T12:49:49Z</time>
      </trkpt>
      <trkpt lat="43.58227" lon="3.37522">
        <ele>184.5</ele>
        <time>2015-11-14T12:49:50Z</time>
      </trkpt>
      <trkpt lat="43.58232" lon="3.3753">
        <ele>185</ele>
        <time>2015-11-14T12:49:51Z</time>
      </trkpt>
      <trkpt lat="43.58235" lon="3.37538">
        <ele>185.5</ele>
        <time>2015-11-14T12:49:52Z</time>
      </trkpt>
      <trkpt lat="43.58238" lon="3.37545">
        <ele>185.5</ele>
        <time>2015-11-14T12:49:53Z</time>
      </trkpt>
      <trkpt lat="43.58239" lon="3.37552">
        <ele>185.5</ele>
        <time>2015-11-14T12:49:54Z</time>
      </trkpt>
      <trkpt lat="43.5824" lon="3.37558">
        <ele>185.5</ele>
        <time>2015-11-14T12:49:56Z</time>
      </trkpt>
      <trkpt lat="43.58241" lon="3.37564">
        <ele>187</ele>
        <time>2015-11-14T12:49:56Z</time>
      </trkpt>
      <trkpt lat="43.58242" lon="3.37569">
        <ele>187.5</ele>
        <time>2015-11-14T12:49:57Z</time>
      </trkpt>
      <trkpt lat="43.58242" lon="3.37574">
        <ele>187.5</ele>
        <time>2015-11-14T12:49:58Z</time>
      </trkpt>
      <trkpt lat="43.58243" lon="3.37577">
        <ele>187.5</ele>
        <time>2015-11-14T12:50:00Z</time>
      </trkpt>
      <trkpt lat="43.58243" lon="3.3758">
        <ele>188</ele>
        <time>2015-11-14T12:50:00Z</time>
      </trkpt>
      <trkpt lat="43.58243" lon="3.37584">
        <ele>188.5</ele>
        <time>2015-11-14T12:50:01Z</time>
      </trkpt>
      <trkpt lat="43.58243" lon="3.37587">
        <ele>189</ele>
        <time>2015-11-14T12:50:02Z</time>
      </trkpt>
      <trkpt lat="43.58242" lon="3.37591">
        <ele>189.5</ele>
        <time>2015-11-14T12:50:03Z</time>
      </trkpt>
      <trkpt lat="43.58241" lon="3.37594">
        <ele>190.5</ele>
        <time>2015-11-14T12:50:04Z</time>
      </trkpt>
      <trkpt lat="43.58241" lon="3.37597">
        <ele>191.5</ele>
        <time>2015-11-14T12:50:05Z</time>
      </trkpt>
      <trkpt lat="43.58241" lon="3.37599">
        <ele>192</ele>
        <time>2015-11-14T12:50:06Z</time>
      </trkpt>
      <trkpt lat="43.5824" lon="3.37603">
        <ele>192</ele>
        <time>2015-11-14T12:50:07Z</time>
      </trkpt>
      <trkpt lat="43.5824" lon="3.37606">
        <ele>193</ele>
        <time>2015-11-14T12:50:09Z</time>
      </trkpt>
      <trkpt lat="43.5824" lon="3.37609">
        <ele>194</ele>
        <time>2015-11-14T12:50:09Z</time>
      </trkpt>
      <trkpt lat="43.5824" lon="3.37611">
        <ele>196</ele>
        <time>2015-11-14T12:50:11Z</time>
      </trkpt>
      <trkpt lat="43.5824" lon="3.37613">
        <ele>197</ele>
        <time>2015-11-14T12:50:12Z</time>
      </trkpt>
      <trkpt lat="43.58239" lon="3.37616">
        <ele>197.5</ele>
        <time>2015-11-14T12:50:12Z</time>
      </trkpt>
      <trkpt lat="43.58239" lon="3.37618">
        <ele>198.5</ele>
        <time>2015-11-14T12:50:13Z</time>
      </trkpt>
      <trkpt lat="43.58239" lon="3.3762">
        <ele>199</ele>
        <time>2015-11-14T12:50:14Z</time>
      </trkpt>
      <trkpt lat="43.58239" lon="3.37623">
        <ele>199</ele>
        <time>2015-11-14T12:50:15Z</time>
      </trkpt>
      <trkpt lat="43.58239" lon="3.37625">
        <ele>199</ele>
        <time>2015-11-14T12:50:16Z</time>
      </trkpt>
      <trkpt lat="43.58239" lon="3.37627">
        <ele>199.5</ele>
        <time>2015-11-14T12:50:17Z</time>
      </trkpt>
      <trkpt lat="43.58238" lon="3.37629">
        <ele>200.5</ele>
        <time>2015-11-14T12:50:18Z</time>
      </trkpt>
      <trkpt lat="43.58238" lon="3.37632">
        <ele>200.5</ele>
        <time>2015-11-14T12:50:20Z</time>
      </trkpt>
      <trkpt lat="43.58236" lon="3.37637">
        <ele>201</ele>
        <time>2015-11-14T12:50:21Z</time>
      </trkpt>
      <trkpt lat="43.58236" lon="3.3764">
        <ele>201</ele>
        <time>2015-11-14T12:50:22Z</time>
      </trkpt>
      <trkpt lat="43.58235" lon="3.37642">
        <ele>201</ele>
        <time>2015-11-14T12:50:23Z</time>
      </trkpt>
      <trkpt lat="43.58234" lon="3.37644">
        <ele>201.5</ele>
        <time>2015-11-14T12:50:24Z</time>
      </trkpt>
      <trkpt lat="43.58233" lon="3.37647">
        <ele>201.5</ele>
        <time>2015-11-14T12:50:25Z</time>
      </trkpt>
      <trkpt lat="43.58232" lon="3.37649">
        <ele>202</ele>
        <time>2015-11-14T12:50:26Z</time>
      </trkpt>
      <trkpt lat="43.58231" lon="3.37652">
        <ele>202</ele>
        <time>2015-11-14T12:50:27Z</time>
      </trkpt>
      <trkpt lat="43.5823" lon="3.37654">
        <ele>202</ele>
        <time>2015-11-14T12:50:28Z</time>
      </trkpt>
      <trkpt lat="43.58229" lon="3.37656">
        <ele>202</ele>
        <time>2015-11-14T12:50:29Z</time>
      </trkpt>
      <trkpt lat="43.58227" lon="3.37659">
        <ele>202</ele>
        <time>2015-11-14T12:50:30Z</time>
      </trkpt>
      <trkpt lat="43.58226" lon="3.37661">
        <ele>202</ele>
        <time>2015-11-14T12:50:32Z</time>
      </trkpt>
      <trkpt lat="43.58223" lon="3.37666">
        <ele>202.5</ele>
        <time>2015-11-14T12:50:33Z</time>
      </trkpt>
      <trkpt lat="43.58221" lon="3.37668">
        <ele>202.5</ele>
        <time>2015-11-14T12:50:34Z</time>
      </trkpt>
      <trkpt lat="43.5822" lon="3.3767">
        <ele>203</ele>
        <time>2015-11-14T12:50:36Z</time>
      </trkpt>
      <trkpt lat="43.58218" lon="3.37671">
        <ele>204.5</ele>
        <time>2015-11-14T12:50:36Z</time>
      </trkpt>
      <trkpt lat="43.58217" lon="3.37673">
        <ele>205</ele>
        <time>2015-11-14T12:50:37Z</time>
      </trkpt>
      <trkpt lat="43.58216" lon="3.37674">
        <ele>206</ele>
        <time>2015-11-14T12:50:39Z</time>
      </trkpt>
      <trkpt lat="43.58212" lon="3.37673">
        <ele>205.5</ele>
        <time>2015-11-14T12:50:40Z</time>
      </trkpt>
      <trkpt lat="43.5821" lon="3.37672">
        <ele>206</ele>
        <time>2015-11-14T12:50:41Z</time>
      </trkpt>
      <trkpt lat="43.58208" lon="3.3767">
        <ele>206.5</ele>
        <time>2015-11-14T12:50:42Z</time>
      </trkpt>
      <trkpt lat="43.58207" lon="3.37668">
        <ele>205.5</ele>
        <time>2015-11-14T12:50:43Z</time>
      </trkpt>
      <trkpt lat="43.58206" lon="3.37667">
        <ele>205</ele>
        <time>2015-11-14T12:50:44Z</time>
      </trkpt>
      <trkpt lat="43.58205" lon="3.37665">
        <ele>205</ele>
        <time>2015-11-14T12:50:45Z</time>
      </trkpt>
      <trkpt lat="43.58204" lon="3.37664">
        <ele>204.5</ele>
        <time>2015-11-14T12:50:46Z</time>
      </trkpt>
      <trkpt lat="43.58203" lon="3.37662">
        <ele>205</ele>
        <time>2015-11-14T12:50:47Z</time>
      </trkpt>
      <trkpt lat="43.58202" lon="3.37661">
        <ele>205</ele>
        <time>2015-11-14T12:50:48Z</time>
      </trkpt>
      <trkpt lat="43.582" lon="3.37659">
        <ele>205</ele>
        <time>2015-11-14T12:50:49Z</time>
      </trkpt>
      <trkpt lat="43.58199" lon="3.37657">
        <ele>205</ele>
        <time>2015-11-14T12:50:50Z</time>
      </trkpt>
      <trkpt lat="43.58198" lon="3.37655">
        <ele>205.5</ele>
        <time>2015-11-14T12:50:51Z</time>
      </trkpt>
      <trkpt lat="43.58197" lon="3.37654">
        <ele>205.5</ele>
        <time>2015-11-14T12:50:52Z</time>
      </trkpt>
      <trkpt lat="43.58195" lon="3.37653">
        <ele>205.5</ele>
        <time>2015-11-14T12:50:53Z</time>
      </trkpt>
      <trkpt lat="43.58194" lon="3.37651">
        <ele>205.5</ele>
        <time>2015-11-14T12:50:54Z</time>
      </trkpt>
      <trkpt lat="43.58193" lon="3.3765">
        <ele>205.5</ele>
        <time>2015-11-14T12:50:55Z</time>
      </trkpt>
      <trkpt lat="43.58191" lon="3.37649">
        <ele>205.5</ele>
        <time>2015-11-14T12:50:56Z</time>
      </trkpt>
      <trkpt lat="43.5819" lon="3.37648">
        <ele>205.5</ele>
        <time>2015-11-14T12:50:57Z</time>
      </trkpt>
      <trkpt lat="43.58188" lon="3.37647">
        <ele>206</ele>
        <time>2015-11-14T12:50:58Z</time>
      </trkpt>
      <trkpt lat="43.58187" lon="3.37646">
        <ele>206</ele>
        <time>2015-11-14T12:50:59Z</time>
      </trkpt>
      <trkpt lat="43.58185" lon="3.37646">
        <ele>206</ele>
        <time>2015-11-14T12:51:00Z</time>
      </trkpt>
      <trkpt lat="43.58184" lon="3.37645">
        <ele>206</ele>
        <time>2015-11-14T12:51:01Z</time>
      </trkpt>
      <trkpt lat="43.58182" lon="3.37645">
        <ele>206</ele>
        <time>2015-11-14T12:51:02Z</time>
      </trkpt>
      <trkpt lat="43.5818" lon="3.37645">
        <ele>206.5</ele>
        <time>2015-11-14T12:51:03Z</time>
      </trkpt>
      <trkpt lat="43.58178" lon="3.37645">
        <ele>206.5</ele>
        <time>2015-11-14T12:51:04Z</time>
      </trkpt>
      <trkpt lat="43.58176" lon="3.37644">
        <ele>206.5</ele>
        <time>2015-11-14T12:51:05Z</time>
      </trkpt>
      <trkpt lat="43.58174" lon="3.37643">
        <ele>206.5</ele>
        <time>2015-11-14T12:51:06Z</time>
      </trkpt>
      <trkpt lat="43.58172" lon="3.37642">
        <ele>206</ele>
        <time>2015-11-14T12:51:07Z</time>
      </trkpt>
      <trkpt lat="43.58171" lon="3.37641">
        <ele>206</ele>
        <time>2015-11-14T12:51:08Z</time>
      </trkpt>
      <trkpt lat="43.58169" lon="3.37639">
        <ele>205.5</ele>
        <time>2015-11-14T12:51:09Z</time>
      </trkpt>
      <trkpt lat="43.58167" lon="3.37637">
        <ele>205.5</ele>
        <time>2015-11-14T12:51:10Z</time>
      </trkpt>
      <trkpt lat="43.58165" lon="3.37635">
        <ele>205.5</ele>
        <time>2015-11-14T12:51:11Z</time>
      </trkpt>
      <trkpt lat="43.58164" lon="3.37633">
        <ele>205.5</ele>
        <time>2015-11-14T12:51:12Z</time>
      </trkpt>
      <trkpt lat="43.58162" lon="3.37631">
        <ele>206</ele>
        <time>2015-11-14T12:51:13Z</time>
      </trkpt>
      <trkpt lat="43.5816" lon="3.3763">
        <ele>206</ele>
        <time>2015-11-14T12:51:14Z</time>
      </trkpt>
      <trkpt lat="43.58159" lon="3.37628">
        <ele>206</ele>
        <time>2015-11-14T12:51:15Z</time>
      </trkpt>
      <trkpt lat="43.58157" lon="3.37625">
        <ele>206</ele>
        <time>2015-11-14T12:51:16Z</time>
      </trkpt>
      <trkpt lat="43.58156" lon="3.37623">
        <ele>206</ele>
        <time>2015-11-14T12:51:17Z</time>
      </trkpt>
      <trkpt lat="43.58155" lon="3.3762">
        <ele>206</ele>
        <time>2015-11-14T12:51:18Z</time>
      </trkpt>
      <trkpt lat="43.58153" lon="3.37618">
        <ele>206.5</ele>
        <time>2015-11-14T12:51:19Z</time>
      </trkpt>
      <trkpt lat="43.58152" lon="3.37615">
        <ele>207</ele>
        <time>2015-11-14T12:51:20Z</time>
      </trkpt>
      <trkpt lat="43.58151" lon="3.37614">
        <ele>207.5</ele>
        <time>2015-11-14T12:51:21Z</time>
      </trkpt>
      <trkpt lat="43.58149" lon="3.37612">
        <ele>208</ele>
        <time>2015-11-14T12:51:22Z</time>
      </trkpt>
      <trkpt lat="43.58148" lon="3.37611">
        <ele>208</ele>
        <time>2015-11-14T12:51:23Z</time>
      </trkpt>
      <trkpt lat="43.58146" lon="3.3761">
        <ele>208</ele>
        <time>2015-11-14T12:51:24Z</time>
      </trkpt>
      <trkpt lat="43.58144" lon="3.37609">
        <ele>208.5</ele>
        <time>2015-11-14T12:51:25Z</time>
      </trkpt>
      <trkpt lat="43.58142" lon="3.37608">
        <ele>210</ele>
        <time>2015-11-14T12:51:26Z</time>
      </trkpt>
      <trkpt lat="43.58141" lon="3.37607">
        <ele>209.5</ele>
        <time>2015-11-14T12:51:27Z</time>
      </trkpt>
      <trkpt lat="43.58138" lon="3.37607">
        <ele>209.5</ele>
        <time>2015-11-14T12:51:28Z</time>
      </trkpt>
      <trkpt lat="43.58137" lon="3.37607">
        <ele>210</ele>
        <time>2015-11-14T12:51:29Z</time>
      </trkpt>
      <trkpt lat="43.58135" lon="3.37606">
        <ele>210</ele>
        <time>2015-11-14T12:51:30Z</time>
      </trkpt>
      <trkpt lat="43.58133" lon="3.37605">
        <ele>210.5</ele>
        <time>2015-11-14T12:51:31Z</time>
      </trkpt>
      <trkpt lat="43.58132" lon="3.37604">
        <ele>210.5</ele>
        <time>2015-11-14T12:51:32Z</time>
      </trkpt>
      <trkpt lat="43.5813" lon="3.37603">
        <ele>210.5</ele>
        <time>2015-11-14T12:51:33Z</time>
      </trkpt>
      <trkpt lat="43.58128" lon="3.37603">
        <ele>210.5</ele>
        <time>2015-11-14T12:51:34Z</time>
      </trkpt>
      <trkpt lat="43.58126" lon="3.37602">
        <ele>209.5</ele>
        <time>2015-11-14T12:51:35Z</time>
      </trkpt>
      <trkpt lat="43.58124" lon="3.37602">
        <ele>210</ele>
        <time>2015-11-14T12:51:36Z</time>
      </trkpt>
      <trkpt lat="43.58122" lon="3.37602">
        <ele>209.5</ele>
        <time>2015-11-14T12:51:37Z</time>
      </trkpt>
      <trkpt lat="43.58119" lon="3.37603">
        <ele>209.5</ele>
        <time>2015-11-14T12:51:38Z</time>
      </trkpt>
      <trkpt lat="43.58117" lon="3.37603">
        <ele>210.5</ele>
        <time>2015-11-14T12:51:39Z</time>
      </trkpt>
      <trkpt lat="43.58116" lon="3.37605">
        <ele>211</ele>
        <time>2015-11-14T12:51:40Z</time>
      </trkpt>
      <trkpt lat="43.58115" lon="3.37606">
        <ele>211</ele>
        <time>2015-11-14T12:51:41Z</time>
      </trkpt>
      <trkpt lat="43.58115" lon="3.37608">
        <ele>211</ele>
        <time>2015-11-14T12:51:42Z</time>
      </trkpt>
      <trkpt lat="43.58116" lon="3.37609">
        <ele>211</ele>
        <time>2015-11-14T12:51:43Z</time>
      </trkpt>
      <trkpt lat="43.58118" lon="3.37609">
        <ele>211</ele>
        <time>2015-11-14T12:51:44Z</time>
      </trkpt>
      <trkpt lat="43.5812" lon="3.3761">
        <ele>211.5</ele>
        <time>2015-11-14T12:51:45Z</time>
      </trkpt>
      <trkpt lat="43.58121" lon="3.37611">
        <ele>211.5</ele>
        <time>2015-11-14T12:51:46Z</time>
      </trkpt>
      <trkpt lat="43.58122" lon="3.37612">
        <ele>212</ele>
        <time>2015-11-14T12:51:47Z</time>
      </trkpt>
      <trkpt lat="43.58123" lon="3.37613">
        <ele>212</ele>
        <time>2015-11-14T12:51:48Z</time>
      </trkpt>
      <trkpt lat="43.58124" lon="3.37614">
        <ele>212.5</ele>
        <time>2015-11-14T12:51:49Z</time>
      </trkpt>
      <trkpt lat="43.58125" lon="3.37615">
        <ele>213</ele>
        <time>2015-11-14T12:51:50Z</time>
      </trkpt>
      <trkpt lat="43.58126" lon="3.37617">
        <ele>213</ele>
        <time>2015-11-14T12:51:51Z</time>
      </trkpt>
      <trkpt lat="43.58126" lon="3.37618">
        <ele>213.5</ele>
        <time>2015-11-14T12:51:52Z</time>
      </trkpt>
      <trkpt lat="43.58127" lon="3.3762">
        <ele>213.5</ele>
        <time>2015-11-14T12:51:53Z</time>
      </trkpt>
      <trkpt lat="43.58128" lon="3.37622">
        <ele>214</ele>
        <time>2015-11-14T12:51:54Z</time>
      </trkpt>
      <trkpt lat="43.58128" lon="3.37624">
        <ele>214.5</ele>
        <time>2015-11-14T12:51:55Z</time>
      </trkpt>
      <trkpt lat="43.58128" lon="3.37626">
        <ele>214.5</ele>
        <time>2015-11-14T12:51:56Z</time>
      </trkpt>
      <trkpt lat="43.58128" lon="3.37629">
        <ele>215</ele>
        <time>2015-11-14T12:51:57Z</time>
      </trkpt>
      <trkpt lat="43.58128" lon="3.37631">
        <ele>215</ele>
        <time>2015-11-14T12:51:58Z</time>
      </trkpt>
      <trkpt lat="43.58127" lon="3.37634">
        <ele>215.5</ele>
        <time>2015-11-14T12:51:59Z</time>
      </trkpt>
      <trkpt lat="43.58127" lon="3.37637">
        <ele>215.5</ele>
        <time>2015-11-14T12:52:00Z</time>
      </trkpt>
      <trkpt lat="43.58127" lon="3.3764">
        <ele>216</ele>
        <time>2015-11-14T12:52:01Z</time>
      </trkpt>
      <trkpt lat="43.58126" lon="3.37642">
        <ele>216.5</ele>
        <time>2015-11-14T12:52:02Z</time>
      </trkpt>
      <trkpt lat="43.58126" lon="3.37645">
        <ele>216.5</ele>
        <time>2015-11-14T12:52:03Z</time>
      </trkpt>
      <trkpt lat="43.58126" lon="3.37648">
        <ele>217</ele>
        <time>2015-11-14T12:52:04Z</time>
      </trkpt>
      <trkpt lat="43.58125" lon="3.37651">
        <ele>217.5</ele>
        <time>2015-11-14T12:52:05Z</time>
      </trkpt>
      <trkpt lat="43.58125" lon="3.37655">
        <ele>217.5</ele>
        <time>2015-11-14T12:52:06Z</time>
      </trkpt>
      <trkpt lat="43.58124" lon="3.37658">
        <ele>218.5</ele>
        <time>2015-11-14T12:52:07Z</time>
      </trkpt>
      <trkpt lat="43.58124" lon="3.37661">
        <ele>218.5</ele>
        <time>2015-11-14T12:52:08Z</time>
      </trkpt>
      <trkpt lat="43.58123" lon="3.37664">
        <ele>219</ele>
        <time>2015-11-14T12:52:09Z</time>
      </trkpt>
      <trkpt lat="43.58123" lon="3.37666">
        <ele>219</ele>
        <time>2015-11-14T12:52:10Z</time>
      </trkpt>
      <trkpt lat="43.58122" lon="3.37669">
        <ele>219</ele>
        <time>2015-11-14T12:52:11Z</time>
      </trkpt>
      <trkpt lat="43.58122" lon="3.37672">
        <ele>219.5</ele>
        <time>2015-11-14T12:52:12Z</time>
      </trkpt>
      <trkpt lat="43.58121" lon="3.37675">
        <ele>219.5</ele>
        <time>2015-11-14T12:52:13Z</time>
      </trkpt>
      <trkpt lat="43.58121" lon="3.37679">
        <ele>220</ele>
        <time>2015-11-14T12:52:14Z</time>
      </trkpt>
      <trkpt lat="43.5812" lon="3.37681">
        <ele>220</ele>
        <time>2015-11-14T12:52:15Z</time>
      </trkpt>
      <trkpt lat="43.5812" lon="3.37684">
        <ele>220</ele>
        <time>2015-11-14T12:52:16Z</time>
      </trkpt>
      <trkpt lat="43.5812" lon="3.37687">
        <ele>220</ele>
        <time>2015-11-14T12:52:17Z</time>
      </trkpt>
      <trkpt lat="43.58119" lon="3.3769">
        <ele>220.5</ele>
        <time>2015-11-14T12:52:18Z</time>
      </trkpt>
      <trkpt lat="43.58119" lon="3.37693">
        <ele>220.5</ele>
        <time>2015-11-14T12:52:19Z</time>
      </trkpt>
      <trkpt lat="43.58119" lon="3.37696">
        <ele>220.5</ele>
        <time>2015-11-14T12:52:20Z</time>
      </trkpt>
      <trkpt lat="43.58119" lon="3.37699">
        <ele>221</ele>
        <time>2015-11-14T12:52:21Z</time>
      </trkpt>
      <trkpt lat="43.58119" lon="3.37702">
        <ele>221.5</ele>
        <time>2015-11-14T12:52:22Z</time>
      </trkpt>
      <trkpt lat="43.58119" lon="3.37705">
        <ele>221.5</ele>
        <time>2015-11-14T12:52:23Z</time>
      </trkpt>
      <trkpt lat="43.58119" lon="3.37708">
        <ele>221.5</ele>
        <time>2015-11-14T12:52:24Z</time>
      </trkpt>
      <trkpt lat="43.5812" lon="3.37711">
        <ele>222</ele>
        <time>2015-11-14T12:52:25Z</time>
      </trkpt>
      <trkpt lat="43.5812" lon="3.37714">
        <ele>222</ele>
        <time>2015-11-14T12:52:26Z</time>
      </trkpt>
      <trkpt lat="43.58121" lon="3.37716">
        <ele>222.5</ele>
        <time>2015-11-14T12:52:27Z</time>
      </trkpt>
      <trkpt lat="43.58123" lon="3.37719">
        <ele>222.5</ele>
        <time>2015-11-14T12:52:28Z</time>
      </trkpt>
      <trkpt lat="43.58124" lon="3.37721">
        <ele>222.5</ele>
        <time>2015-11-14T12:52:29Z</time>
      </trkpt>
      <trkpt lat="43.58126" lon="3.37723">
        <ele>222</ele>
        <time>2015-11-14T12:52:30Z</time>
      </trkpt>
      <trkpt lat="43.58127" lon="3.37725">
        <ele>222.5</ele>
        <time>2015-11-14T12:52:31Z</time>
      </trkpt>
      <trkpt lat="43.58129" lon="3.37726">
        <ele>222.5</ele>
        <time>2015-11-14T12:52:32Z</time>
      </trkpt>
      <trkpt lat="43.58131" lon="3.37728">
        <ele>222</ele>
        <time>2015-11-14T12:52:33Z</time>
      </trkpt>
      <trkpt lat="43.58133" lon="3.37731">
        <ele>222</ele>
        <time>2015-11-14T12:52:34Z</time>
      </trkpt>
      <trkpt lat="43.58134" lon="3.37733">
        <ele>222</ele>
        <time>2015-11-14T12:52:35Z</time>
      </trkpt>
      <trkpt lat="43.58136" lon="3.37736">
        <ele>221.5</ele>
        <time>2015-11-14T12:52:36Z</time>
      </trkpt>
      <trkpt lat="43.58137" lon="3.37738">
        <ele>221.5</ele>
        <time>2015-11-14T12:52:37Z</time>
      </trkpt>
      <trkpt lat="43.58139" lon="3.37741">
        <ele>221</ele>
        <time>2015-11-14T12:52:38Z</time>
      </trkpt>
      <trkpt lat="43.5814" lon="3.37744">
        <ele>221</ele>
        <time>2015-11-14T12:52:39Z</time>
      </trkpt>
      <trkpt lat="43.58142" lon="3.37746">
        <ele>221</ele>
        <time>2015-11-14T12:52:40Z</time>
      </trkpt>
      <trkpt lat="43.58144" lon="3.37749">
        <ele>221</ele>
        <time>2015-11-14T12:52:41Z</time>
      </trkpt>
      <trkpt lat="43.58146" lon="3.37752">
        <ele>221.5</ele>
        <time>2015-11-14T12:52:42Z</time>
      </trkpt>
      <trkpt lat="43.58147" lon="3.37755">
        <ele>221.5</ele>
        <time>2015-11-14T12:52:43Z</time>
      </trkpt>
      <trkpt lat="43.58149" lon="3.37758">
        <ele>221.5</ele>
        <time>2015-11-14T12:52:44Z</time>
      </trkpt>
      <trkpt lat="43.58151" lon="3.37761">
        <ele>221.5</ele>
        <time>2015-11-14T12:52:45Z</time>
      </trkpt>
      <trkpt lat="43.58152" lon="3.37764">
        <ele>222</ele>
        <time>2015-11-14T12:52:46Z</time>
      </trkpt>
      <trkpt lat="43.58154" lon="3.37767">
        <ele>222</ele>
        <time>2015-11-14T12:52:47Z</time>
      </trkpt>
      <trkpt lat="43.58155" lon="3.37769">
        <ele>222</ele>
        <time>2015-11-14T12:52:48Z</time>
      </trkpt>
      <trkpt lat="43.58156" lon="3.37773">
        <ele>222</ele>
        <time>2015-11-14T12:52:49Z</time>
      </trkpt>
      <trkpt lat="43.58158" lon="3.37776">
        <ele>222</ele>
        <time>2015-11-14T12:52:50Z</time>
      </trkpt>
      <trkpt lat="43.58159" lon="3.3778">
        <ele>222</ele>
        <time>2015-11-14T12:52:51Z</time>
      </trkpt>
      <trkpt lat="43.58161" lon="3.37784">
        <ele>222</ele>
        <time>2015-11-14T12:52:52Z</time>
      </trkpt>
      <trkpt lat="43.58162" lon="3.37788">
        <ele>222</ele>
        <time>2015-11-14T12:52:53Z</time>
      </trkpt>
      <trkpt lat="43.58164" lon="3.37792">
        <ele>222</ele>
        <time>2015-11-14T12:52:54Z</time>
      </trkpt>
      <trkpt lat="43.58166" lon="3.37796">
        <ele>222</ele>
        <time>2015-11-14T12:52:55Z</time>
      </trkpt>
      <trkpt lat="43.58168" lon="3.378">
        <ele>222</ele>
        <time>2015-11-14T12:52:56Z</time>
      </trkpt>
      <trkpt lat="43.58171" lon="3.37803">
        <ele>222</ele>
        <time>2015-11-14T12:52:57Z</time>
      </trkpt>
      <trkpt lat="43.58174" lon="3.37806">
        <ele>222</ele>
        <time>2015-11-14T12:52:58Z</time>
      </trkpt>
      <trkpt lat="43.58178" lon="3.37808">
        <ele>222</ele>
        <time>2015-11-14T12:52:59Z</time>
      </trkpt>
      <trkpt lat="43.58181" lon="3.3781">
        <ele>222.5</ele>
        <time>2015-11-14T12:53:00Z</time>
      </trkpt>
      <trkpt lat="43.58184" lon="3.37812">
        <ele>222.5</ele>
        <time>2015-11-14T12:53:01Z</time>
      </trkpt>
      <trkpt lat="43.58187" lon="3.37814">
        <ele>222.5</ele>
        <time>2015-11-14T12:53:02Z</time>
      </trkpt>
      <trkpt lat="43.58191" lon="3.37817">
        <ele>222.5</ele>
        <time>2015-11-14T12:53:03Z</time>
      </trkpt>
      <trkpt lat="43.58193" lon="3.37819">
        <ele>223</ele>
        <time>2015-11-14T12:53:04Z</time>
      </trkpt>
      <trkpt lat="43.58196" lon="3.37822">
        <ele>223.5</ele>
        <time>2015-11-14T12:53:05Z</time>
      </trkpt>
      <trkpt lat="43.58199" lon="3.37824">
        <ele>223.5</ele>
        <time>2015-11-14T12:53:06Z</time>
      </trkpt>
      <trkpt lat="43.58202" lon="3.37828">
        <ele>224</ele>
        <time>2015-11-14T12:53:07Z</time>
      </trkpt>
      <trkpt lat="43.58204" lon="3.37831">
        <ele>224</ele>
        <time>2015-11-14T12:53:08Z</time>
      </trkpt>
      <trkpt lat="43.58207" lon="3.37834">
        <ele>224</ele>
        <time>2015-11-14T12:53:09Z</time>
      </trkpt>
      <trkpt lat="43.58209" lon="3.37838">
        <ele>224.5</ele>
        <time>2015-11-14T12:53:10Z</time>
      </trkpt>
      <trkpt lat="43.5821" lon="3.37841">
        <ele>224.5</ele>
        <time>2015-11-14T12:53:11Z</time>
      </trkpt>
      <trkpt lat="43.58212" lon="3.37845">
        <ele>224.5</ele>
        <time>2015-11-14T12:53:12Z</time>
      </trkpt>
      <trkpt lat="43.58213" lon="3.37848">
        <ele>224.5</ele>
        <time>2015-11-14T12:53:13Z</time>
      </trkpt>
      <trkpt lat="43.58215" lon="3.37851">
        <ele>223.5</ele>
        <time>2015-11-14T12:53:14Z</time>
      </trkpt>
      <trkpt lat="43.58218" lon="3.37855">
        <ele>223</ele>
        <time>2015-11-14T12:53:15Z</time>
      </trkpt>
      <trkpt lat="43.58221" lon="3.37858">
        <ele>223</ele>
        <time>2015-11-14T12:53:16Z</time>
      </trkpt>
      <trkpt lat="43.58224" lon="3.37861">
        <ele>223</ele>
        <time>2015-11-14T12:53:17Z</time>
      </trkpt>
      <trkpt lat="43.58228" lon="3.37863">
        <ele>222.5</ele>
        <time>2015-11-14T12:53:18Z</time>
      </trkpt>
      <trkpt lat="43.58232" lon="3.37866">
        <ele>222.5</ele>
        <time>2015-11-14T12:53:19Z</time>
      </trkpt>
      <trkpt lat="43.58237" lon="3.37868">
        <ele>222</ele>
        <time>2015-11-14T12:53:20Z</time>
      </trkpt>
      <trkpt lat="43.58241" lon="3.3787">
        <ele>222</ele>
        <time>2015-11-14T12:53:20Z</time>
      </trkpt>
      <trkpt lat="43.58246" lon="3.37873">
        <ele>222</ele>
        <time>2015-11-14T12:53:21Z</time>
      </trkpt>
      <trkpt lat="43.58251" lon="3.37876">
        <ele>221.5</ele>
        <time>2015-11-14T12:53:22Z</time>
      </trkpt>
      <trkpt lat="43.58256" lon="3.3788">
        <ele>221.5</ele>
        <time>2015-11-14T12:53:23Z</time>
      </trkpt>
      <trkpt lat="43.58261" lon="3.37884">
        <ele>221.5</ele>
        <time>2015-11-14T12:53:24Z</time>
      </trkpt>
      <trkpt lat="43.58266" lon="3.37889">
        <ele>221</ele>
        <time>2015-11-14T12:53:25Z</time>
      </trkpt>
      <trkpt lat="43.58271" lon="3.37894">
        <ele>220</ele>
        <time>2015-11-14T12:53:26Z</time>
      </trkpt>
      <trkpt lat="43.58277" lon="3.379">
        <ele>219.5</ele>
        <time>2015-11-14T12:53:27Z</time>
      </trkpt>
      <trkpt lat="43.58282" lon="3.37905">
        <ele>219.5</ele>
        <time>2015-11-14T12:53:28Z</time>
      </trkpt>
      <trkpt lat="43.58287" lon="3.37909">
        <ele>220</ele>
        <time>2015-11-14T12:53:29Z</time>
      </trkpt>
      <trkpt lat="43.58292" lon="3.37913">
        <ele>221.5</ele>
        <time>2015-11-14T12:53:30Z</time>
      </trkpt>
      <trkpt lat="43.58296" lon="3.37915">
        <ele>222.5</ele>
        <time>2015-11-14T12:53:31Z</time>
      </trkpt>
      <trkpt lat="43.583" lon="3.37918">
        <ele>224</ele>
        <time>2015-11-14T12:53:32Z</time>
      </trkpt>
      <trkpt lat="43.58304" lon="3.37922">
        <ele>224</ele>
        <time>2015-11-14T12:53:33Z</time>
      </trkpt>
      <trkpt lat="43.58307" lon="3.37925">
        <ele>224.5</ele>
        <time>2015-11-14T12:53:34Z</time>
      </trkpt>
      <trkpt lat="43.5831" lon="3.37929">
        <ele>224.5</ele>
        <time>2015-11-14T12:53:35Z</time>
      </trkpt>
      <trkpt lat="43.58313" lon="3.37932">
        <ele>225</ele>
        <time>2015-11-14T12:53:36Z</time>
      </trkpt>
      <trkpt lat="43.58315" lon="3.37935">
        <ele>225</ele>
        <time>2015-11-14T12:53:37Z</time>
      </trkpt>
      <trkpt lat="43.58317" lon="3.37938">
        <ele>225.5</ele>
        <time>2015-11-14T12:53:38Z</time>
      </trkpt>
      <trkpt lat="43.58319" lon="3.37941">
        <ele>226</ele>
        <time>2015-11-14T12:53:39Z</time>
      </trkpt>
      <trkpt lat="43.5832" lon="3.37944">
        <ele>226</ele>
        <time>2015-11-14T12:53:40Z</time>
      </trkpt>
      <trkpt lat="43.5832" lon="3.37948">
        <ele>226.5</ele>
        <time>2015-11-14T12:53:41Z</time>
      </trkpt>
      <trkpt lat="43.5832" lon="3.37952">
        <ele>227</ele>
        <time>2015-11-14T12:53:42Z</time>
      </trkpt>
      <trkpt lat="43.58321" lon="3.37956">
        <ele>227</ele>
        <time>2015-11-14T12:53:43Z</time>
      </trkpt>
      <trkpt lat="43.58321" lon="3.3796">
        <ele>227.5</ele>
        <time>2015-11-14T12:53:44Z</time>
      </trkpt>
      <trkpt lat="43.58321" lon="3.37965">
        <ele>227</ele>
        <time>2015-11-14T12:53:45Z</time>
      </trkpt>
      <trkpt lat="43.58321" lon="3.3797">
        <ele>226.5</ele>
        <time>2015-11-14T12:53:46Z</time>
      </trkpt>
      <trkpt lat="43.5832" lon="3.37974">
        <ele>227</ele>
        <time>2015-11-14T12:53:47Z</time>
      </trkpt>
      <trkpt lat="43.58321" lon="3.37978">
        <ele>227</ele>
        <time>2015-11-14T12:53:48Z</time>
      </trkpt>
      <trkpt lat="43.58321" lon="3.37982">
        <ele>227</ele>
        <time>2015-11-14T12:53:49Z</time>
      </trkpt>
      <trkpt lat="43.58321" lon="3.37986">
        <ele>227</ele>
        <time>2015-11-14T12:53:50Z</time>
      </trkpt>
      <trkpt lat="43.58321" lon="3.37989">
        <ele>227</ele>
        <time>2015-11-14T12:53:51Z</time>
      </trkpt>
      <trkpt lat="43.58322" lon="3.37993">
        <ele>227</ele>
        <time>2015-11-14T12:53:52Z</time>
      </trkpt>
      <trkpt lat="43.58323" lon="3.37996">
        <ele>227.5</ele>
        <time>2015-11-14T12:53:53Z</time>
      </trkpt>
      <trkpt lat="43.58324" lon="3.38">
        <ele>228</ele>
        <time>2015-11-14T12:53:54Z</time>
      </trkpt>
      <trkpt lat="43.58325" lon="3.38003">
        <ele>228</ele>
        <time>2015-11-14T12:53:55Z</time>
      </trkpt>
      <trkpt lat="43.58325" lon="3.38007">
        <ele>228</ele>
        <time>2015-11-14T12:53:56Z</time>
      </trkpt>
      <trkpt lat="43.58326" lon="3.38011">
        <ele>228.5</ele>
        <time>2015-11-14T12:53:57Z</time>
      </trkpt>
      <trkpt lat="43.58326" lon="3.38014">
        <ele>228.5</ele>
        <time>2015-11-14T12:53:58Z</time>
      </trkpt>
      <trkpt lat="43.58327" lon="3.38018">
        <ele>228</ele>
        <time>2015-11-14T12:53:59Z</time>
      </trkpt>
      <trkpt lat="43.58327" lon="3.38022">
        <ele>228</ele>
        <time>2015-11-14T12:54:00Z</time>
      </trkpt>
      <trkpt lat="43.58328" lon="3.38025">
        <ele>228</ele>
        <time>2015-11-14T12:54:01Z</time>
      </trkpt>
      <trkpt lat="43.58328" lon="3.38029">
        <ele>228.5</ele>
        <time>2015-11-14T12:54:02Z</time>
      </trkpt>
      <trkpt lat="43.58329" lon="3.38031">
        <ele>229</ele>
        <time>2015-11-14T12:54:03Z</time>
      </trkpt>
      <trkpt lat="43.58331" lon="3.38034">
        <ele>229.5</ele>
        <time>2015-11-14T12:54:04Z</time>
      </trkpt>
      <trkpt lat="43.58332" lon="3.38037">
        <ele>229.5</ele>
        <time>2015-11-14T12:54:05Z</time>
      </trkpt>
      <trkpt lat="43.58334" lon="3.38041">
        <ele>228.5</ele>
        <time>2015-11-14T12:54:06Z</time>
      </trkpt>
      <trkpt lat="43.58336" lon="3.38044">
        <ele>228.5</ele>
        <time>2015-11-14T12:54:07Z</time>
      </trkpt>
      <trkpt lat="43.58338" lon="3.38046">
        <ele>228.5</ele>
        <time>2015-11-14T12:54:08Z</time>
      </trkpt>
      <trkpt lat="43.58339" lon="3.38049">
        <ele>228.5</ele>
        <time>2015-11-14T12:54:09Z</time>
      </trkpt>
      <trkpt lat="43.58341" lon="3.38052">
        <ele>228.5</ele>
        <time>2015-11-14T12:54:10Z</time>
      </trkpt>
      <trkpt lat="43.58343" lon="3.38055">
        <ele>228</ele>
        <time>2015-11-14T12:54:11Z</time>
      </trkpt>
      <trkpt lat="43.58344" lon="3.38058">
        <ele>227.5</ele>
        <time>2015-11-14T12:54:12Z</time>
      </trkpt>
      <trkpt lat="43.58346" lon="3.38062">
        <ele>227</ele>
        <time>2015-11-14T12:54:13Z</time>
      </trkpt>
      <trkpt lat="43.58347" lon="3.38065">
        <ele>227</ele>
        <time>2015-11-14T12:54:14Z</time>
      </trkpt>
      <trkpt lat="43.58348" lon="3.38069">
        <ele>226.5</ele>
        <time>2015-11-14T12:54:15Z</time>
      </trkpt>
      <trkpt lat="43.58349" lon="3.38073">
        <ele>226.5</ele>
        <time>2015-11-14T12:54:16Z</time>
      </trkpt>
      <trkpt lat="43.5835" lon="3.38077">
        <ele>226.5</ele>
        <time>2015-11-14T12:54:17Z</time>
      </trkpt>
      <trkpt lat="43.58351" lon="3.38081">
        <ele>226.5</ele>
        <time>2015-11-14T12:54:18Z</time>
      </trkpt>
      <trkpt lat="43.58351" lon="3.38085">
        <ele>226</ele>
        <time>2015-11-14T12:54:19Z</time>
      </trkpt>
      <trkpt lat="43.58352" lon="3.3809">
        <ele>226</ele>
        <time>2015-11-14T12:54:20Z</time>
      </trkpt>
      <trkpt lat="43.58353" lon="3.38094">
        <ele>226</ele>
        <time>2015-11-14T12:54:21Z</time>
      </trkpt>
      <trkpt lat="43.58354" lon="3.38098">
        <ele>226</ele>
        <time>2015-11-14T12:54:22Z</time>
      </trkpt>
      <trkpt lat="43.58354" lon="3.38103">
        <ele>226.5</ele>
        <time>2015-11-14T12:54:23Z</time>
      </trkpt>
      <trkpt lat="43.58356" lon="3.38107">
        <ele>226.5</ele>
        <time>2015-11-14T12:54:24Z</time>
      </trkpt>
      <trkpt lat="43.58357" lon="3.38111">
        <ele>226.5</ele>
        <time>2015-11-14T12:54:25Z</time>
      </trkpt>
      <trkpt lat="43.58358" lon="3.38115">
        <ele>226.5</ele>
        <time>2015-11-14T12:54:26Z</time>
      </trkpt>
      <trkpt lat="43.5836" lon="3.38118">
        <ele>226.5</ele>
        <time>2015-11-14T12:54:27Z</time>
      </trkpt>
      <trkpt lat="43.58361" lon="3.38122">
        <ele>226.5</ele>
        <time>2015-11-14T12:54:28Z</time>
      </trkpt>
      <trkpt lat="43.58363" lon="3.38125">
        <ele>227</ele>
        <time>2015-11-14T12:54:29Z</time>
      </trkpt>
      <trkpt lat="43.58365" lon="3.38128">
        <ele>227</ele>
        <time>2015-11-14T12:54:30Z</time>
      </trkpt>
      <trkpt lat="43.58367" lon="3.38132">
        <ele>227</ele>
        <time>2015-11-14T12:54:31Z</time>
      </trkpt>
      <trkpt lat="43.58369" lon="3.38135">
        <ele>227</ele>
        <time>2015-11-14T12:54:32Z</time>
      </trkpt>
      <trkpt lat="43.58371" lon="3.38138">
        <ele>227.5</ele>
        <time>2015-11-14T12:54:33Z</time>
      </trkpt>
      <trkpt lat="43.58373" lon="3.38141">
        <ele>227.5</ele>
        <time>2015-11-14T12:54:34Z</time>
      </trkpt>
      <trkpt lat="43.58375" lon="3.38145">
        <ele>227.5</ele>
        <time>2015-11-14T12:54:35Z</time>
      </trkpt>
      <trkpt lat="43.58378" lon="3.38148">
        <ele>227.5</ele>
        <time>2015-11-14T12:54:36Z</time>
      </trkpt>
      <trkpt lat="43.58379" lon="3.38151">
        <ele>227.5</ele>
        <time>2015-11-14T12:54:37Z</time>
      </trkpt>
      <trkpt lat="43.58382" lon="3.38154">
        <ele>227.5</ele>
        <time>2015-11-14T12:54:38Z</time>
      </trkpt>
      <trkpt lat="43.58384" lon="3.38157">
        <ele>228</ele>
        <time>2015-11-14T12:54:39Z</time>
      </trkpt>
      <trkpt lat="43.58386" lon="3.3816">
        <ele>228</ele>
        <time>2015-11-14T12:54:40Z</time>
      </trkpt>
      <trkpt lat="43.58388" lon="3.38163">
        <ele>228</ele>
        <time>2015-11-14T12:54:41Z</time>
      </trkpt>
      <trkpt lat="43.5839" lon="3.38167">
        <ele>228</ele>
        <time>2015-11-14T12:54:42Z</time>
      </trkpt>
      <trkpt lat="43.58393" lon="3.3817">
        <ele>228</ele>
        <time>2015-11-14T12:54:43Z</time>
      </trkpt>
      <trkpt lat="43.58395" lon="3.38173">
        <ele>228</ele>
        <time>2015-11-14T12:54:44Z</time>
      </trkpt>
      <trkpt lat="43.58397" lon="3.38177">
        <ele>228</ele>
        <time>2015-11-14T12:54:45Z</time>
      </trkpt>
      <trkpt lat="43.584" lon="3.3818">
        <ele>228</ele>
        <time>2015-11-14T12:54:46Z</time>
      </trkpt>
      <trkpt lat="43.58402" lon="3.38182">
        <ele>228</ele>
        <time>2015-11-14T12:54:47Z</time>
      </trkpt>
      <trkpt lat="43.58404" lon="3.38185">
        <ele>228</ele>
        <time>2015-11-14T12:54:48Z</time>
      </trkpt>
      <trkpt lat="43.58406" lon="3.38188">
        <ele>228</ele>
        <time>2015-11-14T12:54:49Z</time>
      </trkpt>
      <trkpt lat="43.58408" lon="3.38193">
        <ele>228</ele>
        <time>2015-11-14T12:54:50Z</time>
      </trkpt>
      <trkpt lat="43.58409" lon="3.38197">
        <ele>228</ele>
        <time>2015-11-14T12:54:51Z</time>
      </trkpt>
      <trkpt lat="43.58409" lon="3.38201">
        <ele>228.5</ele>
        <time>2015-11-14T12:54:52Z</time>
      </trkpt>
      <trkpt lat="43.58409" lon="3.38205">
        <ele>229</ele>
        <time>2015-11-14T12:54:53Z</time>
      </trkpt>
      <trkpt lat="43.58408" lon="3.38208">
        <ele>229.5</ele>
        <time>2015-11-14T12:54:54Z</time>
      </trkpt>
      <trkpt lat="43.58407" lon="3.38212">
        <ele>229.5</ele>
        <time>2015-11-14T12:54:55Z</time>
      </trkpt>
      <trkpt lat="43.58407" lon="3.38215">
        <ele>229.5</ele>
        <time>2015-11-14T12:54:56Z</time>
      </trkpt>
      <trkpt lat="43.58408" lon="3.38218">
        <ele>230</ele>
        <time>2015-11-14T12:54:57Z</time>
      </trkpt>
      <trkpt lat="43.58409" lon="3.38221">
        <ele>229.5</ele>
        <time>2015-11-14T12:54:58Z</time>
      </trkpt>
      <trkpt lat="43.58411" lon="3.38225">
        <ele>229</ele>
        <time>2015-11-14T12:54:59Z</time>
      </trkpt>
      <trkpt lat="43.58411" lon="3.38228">
        <ele>229</ele>
        <time>2015-11-14T12:55:00Z</time>
      </trkpt>
      <trkpt lat="43.58412" lon="3.3823">
        <ele>229</ele>
        <time>2015-11-14T12:55:01Z</time>
      </trkpt>
      <trkpt lat="43.58412" lon="3.38233">
        <ele>229</ele>
        <time>2015-11-14T12:55:02Z</time>
      </trkpt>
      <trkpt lat="43.58413" lon="3.38236">
        <ele>229.5</ele>
        <time>2015-11-14T12:55:03Z</time>
      </trkpt>
      <trkpt lat="43.58414" lon="3.38239">
        <ele>230</ele>
        <time>2015-11-14T12:55:04Z</time>
      </trkpt>
      <trkpt lat="43.58414" lon="3.38242">
        <ele>228</ele>
        <time>2015-11-14T12:55:05Z</time>
      </trkpt>
      <trkpt lat="43.58416" lon="3.38244">
        <ele>229</ele>
        <time>2015-11-14T12:55:06Z</time>
      </trkpt>
      <trkpt lat="43.58417" lon="3.38246">
        <ele>229.5</ele>
        <time>2015-11-14T12:55:07Z</time>
      </trkpt>
      <trkpt lat="43.58419" lon="3.38248">
        <ele>230.5</ele>
        <time>2015-11-14T12:55:08Z</time>
      </trkpt>
      <trkpt lat="43.5842" lon="3.3825">
        <ele>231</ele>
        <time>2015-11-14T12:55:09Z</time>
      </trkpt>
      <trkpt lat="43.58421" lon="3.38252">
        <ele>231</ele>
        <time>2015-11-14T12:55:10Z</time>
      </trkpt>
      <trkpt lat="43.58422" lon="3.38255">
        <ele>231.5</ele>
        <time>2015-11-14T12:55:11Z</time>
      </trkpt>
      <trkpt lat="43.58423" lon="3.38258">
        <ele>232</ele>
        <time>2015-11-14T12:55:12Z</time>
      </trkpt>
      <trkpt lat="43.58424" lon="3.3826">
        <ele>232.5</ele>
        <time>2015-11-14T12:55:13Z</time>
      </trkpt>
      <trkpt lat="43.58425" lon="3.38263">
        <ele>232.5</ele>
        <time>2015-11-14T12:55:14Z</time>
      </trkpt>
      <trkpt lat="43.58426" lon="3.38266">
        <ele>233</ele>
        <time>2015-11-14T12:55:15Z</time>
      </trkpt>
      <trkpt lat="43.58426" lon="3.38269">
        <ele>233</ele>
        <time>2015-11-14T12:55:16Z</time>
      </trkpt>
      <trkpt lat="43.58427" lon="3.38271">
        <ele>233.5</ele>
        <time>2015-11-14T12:55:17Z</time>
      </trkpt>
      <trkpt lat="43.58428" lon="3.38274">
        <ele>233.5</ele>
        <time>2015-11-14T12:55:18Z</time>
      </trkpt>
      <trkpt lat="43.58428" lon="3.38276">
        <ele>234</ele>
        <time>2015-11-14T12:55:19Z</time>
      </trkpt>
      <trkpt lat="43.58429" lon="3.38279">
        <ele>234.5</ele>
        <time>2015-11-14T12:55:20Z</time>
      </trkpt>
      <trkpt lat="43.58429" lon="3.38282">
        <ele>235</ele>
        <time>2015-11-14T12:55:21Z</time>
      </trkpt>
      <trkpt lat="43.5843" lon="3.38284">
        <ele>235</ele>
        <time>2015-11-14T12:55:22Z</time>
      </trkpt>
      <trkpt lat="43.58431" lon="3.38287">
        <ele>236</ele>
        <time>2015-11-14T12:55:23Z</time>
      </trkpt>
      <trkpt lat="43.58431" lon="3.3829">
        <ele>236</ele>
        <time>2015-11-14T12:55:24Z</time>
      </trkpt>
      <trkpt lat="43.58431" lon="3.38292">
        <ele>236.5</ele>
        <time>2015-11-14T12:55:25Z</time>
      </trkpt>
      <trkpt lat="43.58432" lon="3.38295">
        <ele>237.5</ele>
        <time>2015-11-14T12:55:26Z</time>
      </trkpt>
      <trkpt lat="43.58432" lon="3.38298">
        <ele>237.5</ele>
        <time>2015-11-14T12:55:27Z</time>
      </trkpt>
      <trkpt lat="43.58432" lon="3.383">
        <ele>238</ele>
        <time>2015-11-14T12:55:28Z</time>
      </trkpt>
      <trkpt lat="43.58432" lon="3.38303">
        <ele>238.5</ele>
        <time>2015-11-14T12:55:29Z</time>
      </trkpt>
      <trkpt lat="43.58433" lon="3.38305">
        <ele>238.5</ele>
        <time>2015-11-14T12:55:30Z</time>
      </trkpt>
      <trkpt lat="43.58433" lon="3.38308">
        <ele>239</ele>
        <time>2015-11-14T12:55:31Z</time>
      </trkpt>
      <trkpt lat="43.58433" lon="3.38311">
        <ele>239.5</ele>
        <time>2015-11-14T12:55:32Z</time>
      </trkpt>
      <trkpt lat="43.58434" lon="3.38313">
        <ele>240</ele>
        <time>2015-11-14T12:55:33Z</time>
      </trkpt>
      <trkpt lat="43.58434" lon="3.38316">
        <ele>240</ele>
        <time>2015-11-14T12:55:34Z</time>
      </trkpt>
      <trkpt lat="43.58434" lon="3.38319">
        <ele>240</ele>
        <time>2015-11-14T12:55:35Z</time>
      </trkpt>
      <trkpt lat="43.58434" lon="3.38321">
        <ele>240.5</ele>
        <time>2015-11-14T12:55:36Z</time>
      </trkpt>
      <trkpt lat="43.58434" lon="3.38324">
        <ele>240.5</ele>
        <time>2015-11-14T12:55:37Z</time>
      </trkpt>
      <trkpt lat="43.58434" lon="3.38327">
        <ele>241</ele>
        <time>2015-11-14T12:55:38Z</time>
      </trkpt>
      <trkpt lat="43.58434" lon="3.38329">
        <ele>241</ele>
        <time>2015-11-14T12:55:39Z</time>
      </trkpt>
      <trkpt lat="43.58433" lon="3.38332">
        <ele>241</ele>
        <time>2015-11-14T12:55:40Z</time>
      </trkpt>
      <trkpt lat="43.58434" lon="3.38334">
        <ele>241</ele>
        <time>2015-11-14T12:55:41Z</time>
      </trkpt>
      <trkpt lat="43.58434" lon="3.38336">
        <ele>241</ele>
        <time>2015-11-14T12:55:42Z</time>
      </trkpt>
      <trkpt lat="43.58434" lon="3.38339">
        <ele>241</ele>
        <time>2015-11-14T12:55:43Z</time>
      </trkpt>
      <trkpt lat="43.58435" lon="3.38341">
        <ele>241</ele>
        <time>2015-11-14T12:55:44Z</time>
      </trkpt>
      <trkpt lat="43.58435" lon="3.38344">
        <ele>241</ele>
        <time>2015-11-14T12:55:45Z</time>
      </trkpt>
      <trkpt lat="43.58436" lon="3.38346">
        <ele>241</ele>
        <time>2015-11-14T12:55:46Z</time>
      </trkpt>
      <trkpt lat="43.58436" lon="3.38349">
        <ele>240.5</ele>
        <time>2015-11-14T12:55:47Z</time>
      </trkpt>
      <trkpt lat="43.58437" lon="3.38351">
        <ele>240.5</ele>
        <time>2015-11-14T12:55:48Z</time>
      </trkpt>
      <trkpt lat="43.58438" lon="3.38354">
        <ele>240.5</ele>
        <time>2015-11-14T12:55:49Z</time>
      </trkpt>
      <trkpt lat="43.58438" lon="3.38357">
        <ele>240.5</ele>
        <time>2015-11-14T12:55:50Z</time>
      </trkpt>
      <trkpt lat="43.58439" lon="3.38359">
        <ele>241</ele>
        <time>2015-11-14T12:55:51Z</time>
      </trkpt>
      <trkpt lat="43.58439" lon="3.38362">
        <ele>241</ele>
        <time>2015-11-14T12:55:52Z</time>
      </trkpt>
      <trkpt lat="43.5844" lon="3.38365">
        <ele>241</ele>
        <time>2015-11-14T12:55:53Z</time>
      </trkpt>
      <trkpt lat="43.58441" lon="3.38367">
        <ele>241.5</ele>
        <time>2015-11-14T12:55:54Z</time>
      </trkpt>
      <trkpt lat="43.58441" lon="3.3837">
        <ele>241.5</ele>
        <time>2015-11-14T12:55:55Z</time>
      </trkpt>
      <trkpt lat="43.58441" lon="3.38373">
        <ele>242</ele>
        <time>2015-11-14T12:55:56Z</time>
      </trkpt>
      <trkpt lat="43.58442" lon="3.38376">
        <ele>242</ele>
        <time>2015-11-14T12:55:57Z</time>
      </trkpt>
      <trkpt lat="43.58442" lon="3.38378">
        <ele>242.5</ele>
        <time>2015-11-14T12:55:58Z</time>
      </trkpt>
      <trkpt lat="43.58442" lon="3.38381">
        <ele>242.5</ele>
        <time>2015-11-14T12:55:59Z</time>
      </trkpt>
      <trkpt lat="43.58442" lon="3.38384">
        <ele>242.5</ele>
        <time>2015-11-14T12:56:00Z</time>
      </trkpt>
      <trkpt lat="43.58442" lon="3.38386">
        <ele>242.5</ele>
        <time>2015-11-14T12:56:01Z</time>
      </trkpt>
      <trkpt lat="43.58442" lon="3.38389">
        <ele>243</ele>
        <time>2015-11-14T12:56:02Z</time>
      </trkpt>
      <trkpt lat="43.58443" lon="3.38392">
        <ele>243</ele>
        <time>2015-11-14T12:56:03Z</time>
      </trkpt>
      <trkpt lat="43.58443" lon="3.38395">
        <ele>243</ele>
        <time>2015-11-14T12:56:04Z</time>
      </trkpt>
      <trkpt lat="43.58443" lon="3.38397">
        <ele>243.5</ele>
        <time>2015-11-14T12:56:05Z</time>
      </trkpt>
      <trkpt lat="43.58443" lon="3.384">
        <ele>243.5</ele>
        <time>2015-11-14T12:56:06Z</time>
      </trkpt>
      <trkpt lat="43.58443" lon="3.38403">
        <ele>243.5</ele>
        <time>2015-11-14T12:56:07Z</time>
      </trkpt>
      <trkpt lat="43.58443" lon="3.38406">
        <ele>243.5</ele>
        <time>2015-11-14T12:56:08Z</time>
      </trkpt>
      <trkpt lat="43.58443" lon="3.38408">
        <ele>244</ele>
        <time>2015-11-14T12:56:09Z</time>
      </trkpt>
      <trkpt lat="43.58443" lon="3.38411">
        <ele>244</ele>
        <time>2015-11-14T12:56:10Z</time>
      </trkpt>
      <trkpt lat="43.58443" lon="3.38414">
        <ele>244.5</ele>
        <time>2015-11-14T12:56:11Z</time>
      </trkpt>
      <trkpt lat="43.58443" lon="3.38417">
        <ele>245</ele>
        <time>2015-11-14T12:56:12Z</time>
      </trkpt>
      <trkpt lat="43.58442" lon="3.3842">
        <ele>245</ele>
        <time>2015-11-14T12:56:13Z</time>
      </trkpt>
      <trkpt lat="43.58441" lon="3.38422">
        <ele>245</ele>
        <time>2015-11-14T12:56:14Z</time>
      </trkpt>
      <trkpt lat="43.58441" lon="3.38425">
        <ele>245.5</ele>
        <time>2015-11-14T12:56:15Z</time>
      </trkpt>
      <trkpt lat="43.5844" lon="3.38427">
        <ele>245.5</ele>
        <time>2015-11-14T12:56:16Z</time>
      </trkpt>
      <trkpt lat="43.58439" lon="3.3843">
        <ele>245.5</ele>
        <time>2015-11-14T12:56:17Z</time>
      </trkpt>
      <trkpt lat="43.58438" lon="3.38433">
        <ele>246</ele>
        <time>2015-11-14T12:56:18Z</time>
      </trkpt>
      <trkpt lat="43.58437" lon="3.38436">
        <ele>246</ele>
        <time>2015-11-14T12:56:19Z</time>
      </trkpt>
      <trkpt lat="43.58436" lon="3.38438">
        <ele>246.5</ele>
        <time>2015-11-14T12:56:20Z</time>
      </trkpt>
      <trkpt lat="43.58435" lon="3.38441">
        <ele>246.5</ele>
        <time>2015-11-14T12:56:21Z</time>
      </trkpt>
      <trkpt lat="43.58434" lon="3.38443">
        <ele>246</ele>
        <time>2015-11-14T12:56:22Z</time>
      </trkpt>
      <trkpt lat="43.58434" lon="3.38446">
        <ele>246.5</ele>
        <time>2015-11-14T12:56:23Z</time>
      </trkpt>
      <trkpt lat="43.58434" lon="3.38449">
        <ele>246.5</ele>
        <time>2015-11-14T12:56:24Z</time>
      </trkpt>
      <trkpt lat="43.58435" lon="3.38452">
        <ele>246.5</ele>
        <time>2015-11-14T12:56:25Z</time>
      </trkpt>
      <trkpt lat="43.58436" lon="3.38455">
        <ele>246.5</ele>
        <time>2015-11-14T12:56:26Z</time>
      </trkpt>
      <trkpt lat="43.58438" lon="3.38457">
        <ele>247.5</ele>
        <time>2015-11-14T12:56:27Z</time>
      </trkpt>
      <trkpt lat="43.58439" lon="3.38459">
        <ele>248</ele>
        <time>2015-11-14T12:56:28Z</time>
      </trkpt>
      <trkpt lat="43.58441" lon="3.3846">
        <ele>248</ele>
        <time>2015-11-14T12:56:29Z</time>
      </trkpt>
      <trkpt lat="43.58443" lon="3.38461">
        <ele>248.5</ele>
        <time>2015-11-14T12:56:30Z</time>
      </trkpt>
      <trkpt lat="43.58446" lon="3.38463">
        <ele>248.5</ele>
        <time>2015-11-14T12:56:31Z</time>
      </trkpt>
      <trkpt lat="43.58448" lon="3.38464">
        <ele>248.5</ele>
        <time>2015-11-14T12:56:32Z</time>
      </trkpt>
      <trkpt lat="43.5845" lon="3.38465">
        <ele>248.5</ele>
        <time>2015-11-14T12:56:33Z</time>
      </trkpt>
      <trkpt lat="43.58453" lon="3.38465">
        <ele>248.5</ele>
        <time>2015-11-14T12:56:34Z</time>
      </trkpt>
      <trkpt lat="43.58456" lon="3.38466">
        <ele>248</ele>
        <time>2015-11-14T12:56:35Z</time>
      </trkpt>
      <trkpt lat="43.5846" lon="3.38467">
        <ele>247.5</ele>
        <time>2015-11-14T12:56:36Z</time>
      </trkpt>
      <trkpt lat="43.58463" lon="3.38469">
        <ele>248</ele>
        <time>2015-11-14T12:56:37Z</time>
      </trkpt>
      <trkpt lat="43.58467" lon="3.38471">
        <ele>248</ele>
        <time>2015-11-14T12:56:38Z</time>
      </trkpt>
      <trkpt lat="43.5847" lon="3.38474">
        <ele>248</ele>
        <time>2015-11-14T12:56:39Z</time>
      </trkpt>
      <trkpt lat="43.58473" lon="3.38478">
        <ele>247.5</ele>
        <time>2015-11-14T12:56:40Z</time>
      </trkpt>
      <trkpt lat="43.58476" lon="3.38481">
        <ele>247.5</ele>
        <time>2015-11-14T12:56:41Z</time>
      </trkpt>
      <trkpt lat="43.58479" lon="3.38484">
        <ele>247</ele>
        <time>2015-11-14T12:56:42Z</time>
      </trkpt>
      <trkpt lat="43.58483" lon="3.38488">
        <ele>247</ele>
        <time>2015-11-14T12:56:43Z</time>
      </trkpt>
      <trkpt lat="43.58485" lon="3.38493">
        <ele>247</ele>
        <time>2015-11-14T12:56:44Z</time>
      </trkpt>
      <trkpt lat="43.58488" lon="3.38498">
        <ele>247</ele>
        <time>2015-11-14T12:56:44Z</time>
      </trkpt>
      <trkpt lat="43.58489" lon="3.38504">
        <ele>247</ele>
        <time>2015-11-14T12:56:45Z</time>
      </trkpt>
      <trkpt lat="43.5849" lon="3.38509">
        <ele>247</ele>
        <time>2015-11-14T12:56:46Z</time>
      </trkpt>
      <trkpt lat="43.58491" lon="3.38514">
        <ele>247</ele>
        <time>2015-11-14T12:56:47Z</time>
      </trkpt>
      <trkpt lat="43.58492" lon="3.38519">
        <ele>246.5</ele>
        <time>2015-11-14T12:56:48Z</time>
      </trkpt>
      <trkpt lat="43.58492" lon="3.38525">
        <ele>246.5</ele>
        <time>2015-11-14T12:56:49Z</time>
      </trkpt>
      <trkpt lat="43.58492" lon="3.3853">
        <ele>246</ele>
        <time>2015-11-14T12:56:50Z</time>
      </trkpt>
      <trkpt lat="43.58492" lon="3.38536">
        <ele>246</ele>
        <time>2015-11-14T12:56:51Z</time>
      </trkpt>
      <trkpt lat="43.58492" lon="3.38541">
        <ele>246</ele>
        <time>2015-11-14T12:56:52Z</time>
      </trkpt>
      <trkpt lat="43.58492" lon="3.38546">
        <ele>246</ele>
        <time>2015-11-14T12:56:53Z</time>
      </trkpt>
      <trkpt lat="43.58492" lon="3.38551">
        <ele>246</ele>
        <time>2015-11-14T12:56:54Z</time>
      </trkpt>
      <trkpt lat="43.58493" lon="3.38556">
        <ele>246.5</ele>
        <time>2015-11-14T12:56:55Z</time>
      </trkpt>
      <trkpt lat="43.58494" lon="3.38561">
        <ele>246.5</ele>
        <time>2015-11-14T12:56:56Z</time>
      </trkpt>
      <trkpt lat="43.58495" lon="3.38566">
        <ele>246.5</ele>
        <time>2015-11-14T12:56:57Z</time>
      </trkpt>
      <trkpt lat="43.58496" lon="3.38571">
        <ele>246.5</ele>
        <time>2015-11-14T12:56:58Z</time>
      </trkpt>
      <trkpt lat="43.58497" lon="3.38575">
        <ele>246.5</ele>
        <time>2015-11-14T12:56:59Z</time>
      </trkpt>
      <trkpt lat="43.58498" lon="3.3858">
        <ele>247</ele>
        <time>2015-11-14T12:57:00Z</time>
      </trkpt>
      <trkpt lat="43.58499" lon="3.38584">
        <ele>247</ele>
        <time>2015-11-14T12:57:01Z</time>
      </trkpt>
      <trkpt lat="43.58499" lon="3.38588">
        <ele>247</ele>
        <time>2015-11-14T12:57:02Z</time>
      </trkpt>
      <trkpt lat="43.585" lon="3.38592">
        <ele>247.5</ele>
        <time>2015-11-14T12:57:03Z</time>
      </trkpt>
      <trkpt lat="43.58501" lon="3.38597">
        <ele>247.5</ele>
        <time>2015-11-14T12:57:04Z</time>
      </trkpt>
      <trkpt lat="43.58502" lon="3.38601">
        <ele>247.5</ele>
        <time>2015-11-14T12:57:05Z</time>
      </trkpt>
      <trkpt lat="43.58502" lon="3.38605">
        <ele>247.5</ele>
        <time>2015-11-14T12:57:06Z</time>
      </trkpt>
      <trkpt lat="43.58503" lon="3.38609">
        <ele>248</ele>
        <time>2015-11-14T12:57:07Z</time>
      </trkpt>
      <trkpt lat="43.58503" lon="3.38613">
        <ele>248</ele>
        <time>2015-11-14T12:57:08Z</time>
      </trkpt>
      <trkpt lat="43.58503" lon="3.38617">
        <ele>248.5</ele>
        <time>2015-11-14T12:57:09Z</time>
      </trkpt>
      <trkpt lat="43.58503" lon="3.3862">
        <ele>248.5</ele>
        <time>2015-11-14T12:57:10Z</time>
      </trkpt>
      <trkpt lat="43.58503" lon="3.38624">
        <ele>248.5</ele>
        <time>2015-11-14T12:57:11Z</time>
      </trkpt>
      <trkpt lat="43.58503" lon="3.38628">
        <ele>249</ele>
        <time>2015-11-14T12:57:12Z</time>
      </trkpt>
      <trkpt lat="43.58503" lon="3.38632">
        <ele>249</ele>
        <time>2015-11-14T12:57:13Z</time>
      </trkpt>
      <trkpt lat="43.58504" lon="3.38636">
        <ele>249</ele>
        <time>2015-11-14T12:57:14Z</time>
      </trkpt>
      <trkpt lat="43.58504" lon="3.3864">
        <ele>249.5</ele>
        <time>2015-11-14T12:57:15Z</time>
      </trkpt>
      <trkpt lat="43.58505" lon="3.38644">
        <ele>250</ele>
        <time>2015-11-14T12:57:16Z</time>
      </trkpt>
      <trkpt lat="43.58505" lon="3.38647">
        <ele>250</ele>
        <time>2015-11-14T12:57:17Z</time>
      </trkpt>
      <trkpt lat="43.58506" lon="3.38651">
        <ele>250.5</ele>
        <time>2015-11-14T12:57:18Z</time>
      </trkpt>
      <trkpt lat="43.58507" lon="3.38655">
        <ele>250.5</ele>
        <time>2015-11-14T12:57:19Z</time>
      </trkpt>
      <trkpt lat="43.58507" lon="3.38659">
        <ele>250.5</ele>
        <time>2015-11-14T12:57:20Z</time>
      </trkpt>
      <trkpt lat="43.58508" lon="3.38663">
        <ele>250.5</ele>
        <time>2015-11-14T12:57:21Z</time>
      </trkpt>
      <trkpt lat="43.58509" lon="3.38666">
        <ele>251</ele>
        <time>2015-11-14T12:57:22Z</time>
      </trkpt>
      <trkpt lat="43.58509" lon="3.3867">
        <ele>251</ele>
        <time>2015-11-14T12:57:23Z</time>
      </trkpt>
      <trkpt lat="43.5851" lon="3.38674">
        <ele>251</ele>
        <time>2015-11-14T12:57:24Z</time>
      </trkpt>
      <trkpt lat="43.5851" lon="3.38678">
        <ele>251</ele>
        <time>2015-11-14T12:57:25Z</time>
      </trkpt>
      <trkpt lat="43.58511" lon="3.38681">
        <ele>251.5</ele>
        <time>2015-11-14T12:57:26Z</time>
      </trkpt>
      <trkpt lat="43.58512" lon="3.38685">
        <ele>251</ele>
        <time>2015-11-14T12:57:27Z</time>
      </trkpt>
      <trkpt lat="43.58512" lon="3.38689">
        <ele>251</ele>
        <time>2015-11-14T12:57:28Z</time>
      </trkpt>
      <trkpt lat="43.58513" lon="3.38692">
        <ele>251</ele>
        <time>2015-11-14T12:57:29Z</time>
      </trkpt>
      <trkpt lat="43.58514" lon="3.38696">
        <ele>251</ele>
        <time>2015-11-14T12:57:30Z</time>
      </trkpt>
      <trkpt lat="43.58515" lon="3.387">
        <ele>251</ele>
        <time>2015-11-14T12:57:31Z</time>
      </trkpt>
      <trkpt lat="43.58516" lon="3.38704">
        <ele>251</ele>
        <time>2015-11-14T12:57:32Z</time>
      </trkpt>
      <trkpt lat="43.58517" lon="3.38708">
        <ele>250.5</ele>
        <time>2015-11-14T12:57:33Z</time>
      </trkpt>
      <trkpt lat="43.58518" lon="3.38712">
        <ele>251</ele>
        <time>2015-11-14T12:57:34Z</time>
      </trkpt>
      <trkpt lat="43.58518" lon="3.38715">
        <ele>251</ele>
        <time>2015-11-14T12:57:35Z</time>
      </trkpt>
      <trkpt lat="43.58519" lon="3.38719">
        <ele>251</ele>
        <time>2015-11-14T12:57:36Z</time>
      </trkpt>
      <trkpt lat="43.58519" lon="3.38723">
        <ele>251</ele>
        <time>2015-11-14T12:57:37Z</time>
      </trkpt>
      <trkpt lat="43.58519" lon="3.38727">
        <ele>251.5</ele>
        <time>2015-11-14T12:57:38Z</time>
      </trkpt>
      <trkpt lat="43.58518" lon="3.3873">
        <ele>251.5</ele>
        <time>2015-11-14T12:57:39Z</time>
      </trkpt>
      <trkpt lat="43.58518" lon="3.38734">
        <ele>252</ele>
        <time>2015-11-14T12:57:40Z</time>
      </trkpt>
      <trkpt lat="43.58518" lon="3.38737">
        <ele>252</ele>
        <time>2015-11-14T12:57:41Z</time>
      </trkpt>
      <trkpt lat="43.58518" lon="3.3874">
        <ele>252</ele>
        <time>2015-11-14T12:57:42Z</time>
      </trkpt>
      <trkpt lat="43.58518" lon="3.38744">
        <ele>252</ele>
        <time>2015-11-14T12:57:43Z</time>
      </trkpt>
      <trkpt lat="43.58518" lon="3.38747">
        <ele>252.5</ele>
        <time>2015-11-14T12:57:44Z</time>
      </trkpt>
      <trkpt lat="43.58519" lon="3.38751">
        <ele>252</ele>
        <time>2015-11-14T12:57:45Z</time>
      </trkpt>
      <trkpt lat="43.58519" lon="3.38754">
        <ele>252</ele>
        <time>2015-11-14T12:57:46Z</time>
      </trkpt>
      <trkpt lat="43.58519" lon="3.38757">
        <ele>252</ele>
        <time>2015-11-14T12:57:47Z</time>
      </trkpt>
      <trkpt lat="43.5852" lon="3.38761">
        <ele>252.5</ele>
        <time>2015-11-14T12:57:48Z</time>
      </trkpt>
      <trkpt lat="43.5852" lon="3.38765">
        <ele>252</ele>
        <time>2015-11-14T12:57:49Z</time>
      </trkpt>
      <trkpt lat="43.5852" lon="3.38769">
        <ele>252</ele>
        <time>2015-11-14T12:57:50Z</time>
      </trkpt>
      <trkpt lat="43.5852" lon="3.38773">
        <ele>252.5</ele>
        <time>2015-11-14T12:57:51Z</time>
      </trkpt>
      <trkpt lat="43.5852" lon="3.38777">
        <ele>252</ele>
        <time>2015-11-14T12:57:52Z</time>
      </trkpt>
      <trkpt lat="43.58521" lon="3.38781">
        <ele>252.5</ele>
        <time>2015-11-14T12:57:53Z</time>
      </trkpt>
      <trkpt lat="43.58521" lon="3.38785">
        <ele>252.5</ele>
        <time>2015-11-14T12:57:54Z</time>
      </trkpt>
      <trkpt lat="43.58521" lon="3.38789">
        <ele>252.5</ele>
        <time>2015-11-14T12:57:55Z</time>
      </trkpt>
      <trkpt lat="43.5852" lon="3.38793">
        <ele>253</ele>
        <time>2015-11-14T12:57:56Z</time>
      </trkpt>
      <trkpt lat="43.58519" lon="3.38797">
        <ele>253</ele>
        <time>2015-11-14T12:57:57Z</time>
      </trkpt>
      <trkpt lat="43.58519" lon="3.388">
        <ele>253</ele>
        <time>2015-11-14T12:57:58Z</time>
      </trkpt>
      <trkpt lat="43.58518" lon="3.38804">
        <ele>253.5</ele>
        <time>2015-11-14T12:57:59Z</time>
      </trkpt>
      <trkpt lat="43.58518" lon="3.38807">
        <ele>254</ele>
        <time>2015-11-14T12:58:00Z</time>
      </trkpt>
      <trkpt lat="43.58517" lon="3.38811">
        <ele>254</ele>
        <time>2015-11-14T12:58:01Z</time>
      </trkpt>
      <trkpt lat="43.58517" lon="3.38814">
        <ele>254</ele>
        <time>2015-11-14T12:58:02Z</time>
      </trkpt>
      <trkpt lat="43.58516" lon="3.38817">
        <ele>254</ele>
        <time>2015-11-14T12:58:03Z</time>
      </trkpt>
      <trkpt lat="43.58515" lon="3.38821">
        <ele>254.5</ele>
        <time>2015-11-14T12:58:04Z</time>
      </trkpt>
      <trkpt lat="43.58515" lon="3.38824">
        <ele>254.5</ele>
        <time>2015-11-14T12:58:05Z</time>
      </trkpt>
      <trkpt lat="43.58515" lon="3.38828">
        <ele>255</ele>
        <time>2015-11-14T12:58:06Z</time>
      </trkpt>
      <trkpt lat="43.58515" lon="3.38831">
        <ele>255</ele>
        <time>2015-11-14T12:58:07Z</time>
      </trkpt>
      <trkpt lat="43.58514" lon="3.38835">
        <ele>255.5</ele>
        <time>2015-11-14T12:58:08Z</time>
      </trkpt>
      <trkpt lat="43.58514" lon="3.38838">
        <ele>255.5</ele>
        <time>2015-11-14T12:58:09Z</time>
      </trkpt>
      <trkpt lat="43.58514" lon="3.38841">
        <ele>256</ele>
        <time>2015-11-14T12:58:10Z</time>
      </trkpt>
      <trkpt lat="43.58514" lon="3.38845">
        <ele>256</ele>
        <time>2015-11-14T12:58:11Z</time>
      </trkpt>
      <trkpt lat="43.58514" lon="3.38848">
        <ele>256.5</ele>
        <time>2015-11-14T12:58:12Z</time>
      </trkpt>
      <trkpt lat="43.58514" lon="3.38851">
        <ele>256.5</ele>
        <time>2015-11-14T12:58:13Z</time>
      </trkpt>
      <trkpt lat="43.58514" lon="3.38854">
        <ele>256.5</ele>
        <time>2015-11-14T12:58:14Z</time>
      </trkpt>
      <trkpt lat="43.58513" lon="3.38857">
        <ele>256.5</ele>
        <time>2015-11-14T12:58:15Z</time>
      </trkpt>
      <trkpt lat="43.58513" lon="3.38861">
        <ele>257</ele>
        <time>2015-11-14T12:58:16Z</time>
      </trkpt>
      <trkpt lat="43.58513" lon="3.38864">
        <ele>257</ele>
        <time>2015-11-14T12:58:17Z</time>
      </trkpt>
      <trkpt lat="43.58513" lon="3.38867">
        <ele>257</ele>
        <time>2015-11-14T12:58:18Z</time>
      </trkpt>
      <trkpt lat="43.58513" lon="3.3887">
        <ele>257.5</ele>
        <time>2015-11-14T12:58:19Z</time>
      </trkpt>
      <trkpt lat="43.58513" lon="3.38873">
        <ele>257.5</ele>
        <time>2015-11-14T12:58:20Z</time>
      </trkpt>
      <trkpt lat="43.58512" lon="3.38876">
        <ele>257.5</ele>
        <time>2015-11-14T12:58:21Z</time>
      </trkpt>
      <trkpt lat="43.58511" lon="3.38878">
        <ele>258</ele>
        <time>2015-11-14T12:58:22Z</time>
      </trkpt>
      <trkpt lat="43.5851" lon="3.38881">
        <ele>258.5</ele>
        <time>2015-11-14T12:58:23Z</time>
      </trkpt>
      <trkpt lat="43.58509" lon="3.38884">
        <ele>258.5</ele>
        <time>2015-11-14T12:58:24Z</time>
      </trkpt>
      <trkpt lat="43.58508" lon="3.38887">
        <ele>259</ele>
        <time>2015-11-14T12:58:25Z</time>
      </trkpt>
      <trkpt lat="43.58506" lon="3.38889">
        <ele>259</ele>
        <time>2015-11-14T12:58:26Z</time>
      </trkpt>
      <trkpt lat="43.58504" lon="3.38892">
        <ele>259.5</ele>
        <time>2015-11-14T12:58:27Z</time>
      </trkpt>
      <trkpt lat="43.58502" lon="3.38894">
        <ele>259.5</ele>
        <time>2015-11-14T12:58:28Z</time>
      </trkpt>
      <trkpt lat="43.58501" lon="3.38896">
        <ele>260</ele>
        <time>2015-11-14T12:58:29Z</time>
      </trkpt>
      <trkpt lat="43.58499" lon="3.38898">
        <ele>260</ele>
        <time>2015-11-14T12:58:30Z</time>
      </trkpt>
      <trkpt lat="43.58496" lon="3.389">
        <ele>260.5</ele>
        <time>2015-11-14T12:58:31Z</time>
      </trkpt>
      <trkpt lat="43.58494" lon="3.38902">
        <ele>260.5</ele>
        <time>2015-11-14T12:58:32Z</time>
      </trkpt>
      <trkpt lat="43.58491" lon="3.38904">
        <ele>260.5</ele>
        <time>2015-11-14T12:58:33Z</time>
      </trkpt>
      <trkpt lat="43.58489" lon="3.38906">
        <ele>261</ele>
        <time>2015-11-14T12:58:34Z</time>
      </trkpt>
      <trkpt lat="43.58487" lon="3.38907">
        <ele>261</ele>
        <time>2015-11-14T12:58:35Z</time>
      </trkpt>
      <trkpt lat="43.58485" lon="3.3891">
        <ele>261.5</ele>
        <time>2015-11-14T12:58:36Z</time>
      </trkpt>
      <trkpt lat="43.58483" lon="3.38913">
        <ele>261.5</ele>
        <time>2015-11-14T12:58:37Z</time>
      </trkpt>
      <trkpt lat="43.58481" lon="3.38915">
        <ele>262</ele>
        <time>2015-11-14T12:58:38Z</time>
      </trkpt>
      <trkpt lat="43.58479" lon="3.38917">
        <ele>262.5</ele>
        <time>2015-11-14T12:58:39Z</time>
      </trkpt>
      <trkpt lat="43.58477" lon="3.3892">
        <ele>263</ele>
        <time>2015-11-14T12:58:40Z</time>
      </trkpt>
      <trkpt lat="43.58475" lon="3.38922">
        <ele>263</ele>
        <time>2015-11-14T12:58:41Z</time>
      </trkpt>
      <trkpt lat="43.58474" lon="3.38924">
        <ele>263.5</ele>
        <time>2015-11-14T12:58:42Z</time>
      </trkpt>
      <trkpt lat="43.58472" lon="3.38927">
        <ele>263.5</ele>
        <time>2015-11-14T12:58:43Z</time>
      </trkpt>
      <trkpt lat="43.58471" lon="3.3893">
        <ele>264</ele>
        <time>2015-11-14T12:58:44Z</time>
      </trkpt>
      <trkpt lat="43.58469" lon="3.38933">
        <ele>264.5</ele>
        <time>2015-11-14T12:58:45Z</time>
      </trkpt>
      <trkpt lat="43.58468" lon="3.38936">
        <ele>264.5</ele>
        <time>2015-11-14T12:58:46Z</time>
      </trkpt>
      <trkpt lat="43.58467" lon="3.38939">
        <ele>264.5</ele>
        <time>2015-11-14T12:58:47Z</time>
      </trkpt>
      <trkpt lat="43.58466" lon="3.38942">
        <ele>265</ele>
        <time>2015-11-14T12:58:48Z</time>
      </trkpt>
      <trkpt lat="43.58465" lon="3.38945">
        <ele>265.5</ele>
        <time>2015-11-14T12:58:49Z</time>
      </trkpt>
      <trkpt lat="43.58464" lon="3.38948">
        <ele>266</ele>
        <time>2015-11-14T12:58:50Z</time>
      </trkpt>
      <trkpt lat="43.58463" lon="3.38951">
        <ele>266.5</ele>
        <time>2015-11-14T12:58:51Z</time>
      </trkpt>
      <trkpt lat="43.58463" lon="3.38954">
        <ele>266.5</ele>
        <time>2015-11-14T12:58:52Z</time>
      </trkpt>
      <trkpt lat="43.58462" lon="3.38957">
        <ele>267</ele>
        <time>2015-11-14T12:58:53Z</time>
      </trkpt>
      <trkpt lat="43.58461" lon="3.38959">
        <ele>267.5</ele>
        <time>2015-11-14T12:58:54Z</time>
      </trkpt>
      <trkpt lat="43.58461" lon="3.38962">
        <ele>267.5</ele>
        <time>2015-11-14T12:58:55Z</time>
      </trkpt>
      <trkpt lat="43.5846" lon="3.38965">
        <ele>267.5</ele>
        <time>2015-11-14T12:58:56Z</time>
      </trkpt>
      <trkpt lat="43.58459" lon="3.38968">
        <ele>267.5</ele>
        <time>2015-11-14T12:58:57Z</time>
      </trkpt>
      <trkpt lat="43.58458" lon="3.38971">
        <ele>267.5</ele>
        <time>2015-11-14T12:58:58Z</time>
      </trkpt>
      <trkpt lat="43.58458" lon="3.38974">
        <ele>268</ele>
        <time>2015-11-14T12:58:59Z</time>
      </trkpt>
      <trkpt lat="43.58457" lon="3.38976">
        <ele>268</ele>
        <time>2015-11-14T12:59:00Z</time>
      </trkpt>
      <trkpt lat="43.58456" lon="3.38979">
        <ele>268.5</ele>
        <time>2015-11-14T12:59:01Z</time>
      </trkpt>
      <trkpt lat="43.58456" lon="3.38982">
        <ele>268</ele>
        <time>2015-11-14T12:59:02Z</time>
      </trkpt>
      <trkpt lat="43.58456" lon="3.38985">
        <ele>268</ele>
        <time>2015-11-14T12:59:03Z</time>
      </trkpt>
      <trkpt lat="43.58455" lon="3.38988">
        <ele>268</ele>
        <time>2015-11-14T12:59:04Z</time>
      </trkpt>
      <trkpt lat="43.58455" lon="3.38991">
        <ele>268.5</ele>
        <time>2015-11-14T12:59:05Z</time>
      </trkpt>
      <trkpt lat="43.58455" lon="3.38994">
        <ele>269</ele>
        <time>2015-11-14T12:59:06Z</time>
      </trkpt>
      <trkpt lat="43.58454" lon="3.38997">
        <ele>269.5</ele>
        <time>2015-11-14T12:59:07Z</time>
      </trkpt>
      <trkpt lat="43.58454" lon="3.39">
        <ele>269.5</ele>
        <time>2015-11-14T12:59:08Z</time>
      </trkpt>
      <trkpt lat="43.58453" lon="3.39003">
        <ele>270</ele>
        <time>2015-11-14T12:59:09Z</time>
      </trkpt>
      <trkpt lat="43.58453" lon="3.39006">
        <ele>270</ele>
        <time>2015-11-14T12:59:10Z</time>
      </trkpt>
      <trkpt lat="43.58453" lon="3.39009">
        <ele>270.5</ele>
        <time>2015-11-14T12:59:11Z</time>
      </trkpt>
      <trkpt lat="43.58453" lon="3.39011">
        <ele>271</ele>
        <time>2015-11-14T12:59:12Z</time>
      </trkpt>
      <trkpt lat="43.58452" lon="3.39014">
        <ele>271.5</ele>
        <time>2015-11-14T12:59:13Z</time>
      </trkpt>
      <trkpt lat="43.58452" lon="3.39017">
        <ele>271.5</ele>
        <time>2015-11-14T12:59:14Z</time>
      </trkpt>
      <trkpt lat="43.58452" lon="3.39019">
        <ele>271.5</ele>
        <time>2015-11-14T12:59:15Z</time>
      </trkpt>
      <trkpt lat="43.58452" lon="3.39022">
        <ele>272.5</ele>
        <time>2015-11-14T12:59:16Z</time>
      </trkpt>
      <trkpt lat="43.58451" lon="3.39025">
        <ele>272.5</ele>
        <time>2015-11-14T12:59:17Z</time>
      </trkpt>
      <trkpt lat="43.5845" lon="3.39028">
        <ele>272.5</ele>
        <time>2015-11-14T12:59:18Z</time>
      </trkpt>
      <trkpt lat="43.58449" lon="3.39031">
        <ele>272.5</ele>
        <time>2015-11-14T12:59:19Z</time>
      </trkpt>
      <trkpt lat="43.58448" lon="3.39034">
        <ele>272.5</ele>
        <time>2015-11-14T12:59:20Z</time>
      </trkpt>
      <trkpt lat="43.58447" lon="3.39037">
        <ele>272.5</ele>
        <time>2015-11-14T12:59:21Z</time>
      </trkpt>
      <trkpt lat="43.58446" lon="3.39039">
        <ele>273</ele>
        <time>2015-11-14T12:59:22Z</time>
      </trkpt>
      <trkpt lat="43.58444" lon="3.39042">
        <ele>273</ele>
        <time>2015-11-14T12:59:23Z</time>
      </trkpt>
      <trkpt lat="43.58443" lon="3.39044">
        <ele>273.5</ele>
        <time>2015-11-14T12:59:24Z</time>
      </trkpt>
      <trkpt lat="43.58443" lon="3.39047">
        <ele>274.5</ele>
        <time>2015-11-14T12:59:25Z</time>
      </trkpt>
      <trkpt lat="43.58442" lon="3.3905">
        <ele>275</ele>
        <time>2015-11-14T12:59:26Z</time>
      </trkpt>
      <trkpt lat="43.5844" lon="3.39053">
        <ele>274.5</ele>
        <time>2015-11-14T12:59:27Z</time>
      </trkpt>
      <trkpt lat="43.5844" lon="3.39056">
        <ele>275</ele>
        <time>2015-11-14T12:59:28Z</time>
      </trkpt>
      <trkpt lat="43.58439" lon="3.39059">
        <ele>275</ele>
        <time>2015-11-14T12:59:29Z</time>
      </trkpt>
      <trkpt lat="43.58438" lon="3.39061">
        <ele>275.5</ele>
        <time>2015-11-14T12:59:30Z</time>
      </trkpt>
      <trkpt lat="43.58437" lon="3.39064">
        <ele>275.5</ele>
        <time>2015-11-14T12:59:31Z</time>
      </trkpt>
      <trkpt lat="43.58436" lon="3.39066">
        <ele>276</ele>
        <time>2015-11-14T12:59:32Z</time>
      </trkpt>
      <trkpt lat="43.58434" lon="3.39068">
        <ele>276</ele>
        <time>2015-11-14T12:59:33Z</time>
      </trkpt>
      <trkpt lat="43.58432" lon="3.3907">
        <ele>276.5</ele>
        <time>2015-11-14T12:59:34Z</time>
      </trkpt>
      <trkpt lat="43.58431" lon="3.39072">
        <ele>276.5</ele>
        <time>2015-11-14T12:59:35Z</time>
      </trkpt>
      <trkpt lat="43.58429" lon="3.39075">
        <ele>276.5</ele>
        <time>2015-11-14T12:59:36Z</time>
      </trkpt>
      <trkpt lat="43.58428" lon="3.39077">
        <ele>277</ele>
        <time>2015-11-14T12:59:37Z</time>
      </trkpt>
      <trkpt lat="43.58427" lon="3.3908">
        <ele>277</ele>
        <time>2015-11-14T12:59:38Z</time>
      </trkpt>
      <trkpt lat="43.58426" lon="3.39082">
        <ele>277.5</ele>
        <time>2015-11-14T12:59:39Z</time>
      </trkpt>
      <trkpt lat="43.58425" lon="3.39085">
        <ele>278</ele>
        <time>2015-11-14T12:59:40Z</time>
      </trkpt>
      <trkpt lat="43.58424" lon="3.39087">
        <ele>278.5</ele>
        <time>2015-11-14T12:59:41Z</time>
      </trkpt>
      <trkpt lat="43.58423" lon="3.3909">
        <ele>278.5</ele>
        <time>2015-11-14T12:59:42Z</time>
      </trkpt>
      <trkpt lat="43.58423" lon="3.39093">
        <ele>279</ele>
        <time>2015-11-14T12:59:43Z</time>
      </trkpt>
      <trkpt lat="43.58423" lon="3.39095">
        <ele>279.5</ele>
        <time>2015-11-14T12:59:44Z</time>
      </trkpt>
      <trkpt lat="43.58423" lon="3.39098">
        <ele>279.5</ele>
        <time>2015-11-14T12:59:45Z</time>
      </trkpt>
      <trkpt lat="43.58424" lon="3.39101">
        <ele>280</ele>
        <time>2015-11-14T12:59:46Z</time>
      </trkpt>
      <trkpt lat="43.58424" lon="3.39104">
        <ele>280</ele>
        <time>2015-11-14T12:59:47Z</time>
      </trkpt>
      <trkpt lat="43.58424" lon="3.39107">
        <ele>280.5</ele>
        <time>2015-11-14T12:59:48Z</time>
      </trkpt>
      <trkpt lat="43.58424" lon="3.3911">
        <ele>280.5</ele>
        <time>2015-11-14T12:59:49Z</time>
      </trkpt>
      <trkpt lat="43.58424" lon="3.39113">
        <ele>280.5</ele>
        <time>2015-11-14T12:59:50Z</time>
      </trkpt>
      <trkpt lat="43.58423" lon="3.39116">
        <ele>280.5</ele>
        <time>2015-11-14T12:59:51Z</time>
      </trkpt>
      <trkpt lat="43.58423" lon="3.39119">
        <ele>281</ele>
        <time>2015-11-14T12:59:52Z</time>
      </trkpt>
      <trkpt lat="43.58422" lon="3.39122">
        <ele>281</ele>
        <time>2015-11-14T12:59:53Z</time>
      </trkpt>
      <trkpt lat="43.58421" lon="3.39125">
        <ele>281</ele>
        <time>2015-11-14T12:59:54Z</time>
      </trkpt>
      <trkpt lat="43.58421" lon="3.39127">
        <ele>281.5</ele>
        <time>2015-11-14T12:59:55Z</time>
      </trkpt>
      <trkpt lat="43.5842" lon="3.3913">
        <ele>281.5</ele>
        <time>2015-11-14T12:59:56Z</time>
      </trkpt>
      <trkpt lat="43.58419" lon="3.39133">
        <ele>282</ele>
        <time>2015-11-14T12:59:57Z</time>
      </trkpt>
      <trkpt lat="43.58418" lon="3.39135">
        <ele>282</ele>
        <time>2015-11-14T12:59:58Z</time>
      </trkpt>
      <trkpt lat="43.58417" lon="3.39137">
        <ele>282</ele>
        <time>2015-11-14T12:59:59Z</time>
      </trkpt>
      <trkpt lat="43.58416" lon="3.3914">
        <ele>282</ele>
        <time>2015-11-14T13:00:00Z</time>
      </trkpt>
      <trkpt lat="43.58414" lon="3.39142">
        <ele>282.5</ele>
        <time>2015-11-14T13:00:01Z</time>
      </trkpt>
      <trkpt lat="43.58413" lon="3.39144">
        <ele>283</ele>
        <time>2015-11-14T13:00:02Z</time>
      </trkpt>
      <trkpt lat="43.58411" lon="3.39146">
        <ele>283</ele>
        <time>2015-11-14T13:00:03Z</time>
      </trkpt>
      <trkpt lat="43.58413" lon="3.39149">
        <ele>284.5</ele>
        <time>2015-11-14T13:00:04Z</time>
      </trkpt>
      <trkpt lat="43.58412" lon="3.39152">
        <ele>284.5</ele>
        <time>2015-11-14T13:00:05Z</time>
      </trkpt>
      <trkpt lat="43.58411" lon="3.39155">
        <ele>285</ele>
        <time>2015-11-14T13:00:05Z</time>
      </trkpt>
      <trkpt lat="43.58409" lon="3.39157">
        <ele>285</ele>
        <time>2015-11-14T13:00:07Z</time>
      </trkpt>
      <trkpt lat="43.58408" lon="3.39159">
        <ele>285.5</ele>
        <time>2015-11-14T13:00:07Z</time>
      </trkpt>
      <trkpt lat="43.58407" lon="3.39162">
        <ele>285.5</ele>
        <time>2015-11-14T13:00:08Z</time>
      </trkpt>
      <trkpt lat="43.58406" lon="3.39164">
        <ele>286</ele>
        <time>2015-11-14T13:00:09Z</time>
      </trkpt>
      <trkpt lat="43.58405" lon="3.39167">
        <ele>286</ele>
        <time>2015-11-14T13:00:11Z</time>
      </trkpt>
      <trkpt lat="43.58404" lon="3.3917">
        <ele>286</ele>
        <time>2015-11-14T13:00:11Z</time>
      </trkpt>
      <trkpt lat="43.58403" lon="3.39172">
        <ele>286</ele>
        <time>2015-11-14T13:00:12Z</time>
      </trkpt>
      <trkpt lat="43.58402" lon="3.39175">
        <ele>286.5</ele>
        <time>2015-11-14T13:00:13Z</time>
      </trkpt>
      <trkpt lat="43.58402" lon="3.39178">
        <ele>286.5</ele>
        <time>2015-11-14T13:00:14Z</time>
      </trkpt>
      <trkpt lat="43.584" lon="3.3918">
        <ele>286.5</ele>
        <time>2015-11-14T13:00:15Z</time>
      </trkpt>
      <trkpt lat="43.58399" lon="3.39183">
        <ele>286</ele>
        <time>2015-11-14T13:00:16Z</time>
      </trkpt>
      <trkpt lat="43.58398" lon="3.39185">
        <ele>286</ele>
        <time>2015-11-14T13:00:17Z</time>
      </trkpt>
      <trkpt lat="43.58396" lon="3.39188">
        <ele>286</ele>
        <time>2015-11-14T13:00:18Z</time>
      </trkpt>
      <trkpt lat="43.58395" lon="3.39191">
        <ele>286</ele>
        <time>2015-11-14T13:00:19Z</time>
      </trkpt>
      <trkpt lat="43.58394" lon="3.39194">
        <ele>286</ele>
        <time>2015-11-14T13:00:20Z</time>
      </trkpt>
      <trkpt lat="43.58393" lon="3.39196">
        <ele>286</ele>
        <time>2015-11-14T13:00:21Z</time>
      </trkpt>
      <trkpt lat="43.58392" lon="3.39198">
        <ele>286</ele>
        <time>2015-11-14T13:00:22Z</time>
      </trkpt>
      <trkpt lat="43.58391" lon="3.39201">
        <ele>286</ele>
        <time>2015-11-14T13:00:23Z</time>
      </trkpt>
      <trkpt lat="43.58389" lon="3.39203">
        <ele>286.5</ele>
        <time>2015-11-14T13:00:24Z</time>
      </trkpt>
      <trkpt lat="43.58388" lon="3.39206">
        <ele>286.5</ele>
        <time>2015-11-14T13:00:25Z</time>
      </trkpt>
      <trkpt lat="43.58386" lon="3.39208">
        <ele>286.5</ele>
        <time>2015-11-14T13:00:26Z</time>
      </trkpt>
      <trkpt lat="43.58384" lon="3.3921">
        <ele>286.5</ele>
        <time>2015-11-14T13:00:27Z</time>
      </trkpt>
      <trkpt lat="43.58382" lon="3.39212">
        <ele>286</ele>
        <time>2015-11-14T13:00:28Z</time>
      </trkpt>
      <trkpt lat="43.5838" lon="3.39214">
        <ele>286</ele>
        <time>2015-11-14T13:00:29Z</time>
      </trkpt>
      <trkpt lat="43.58377" lon="3.39215">
        <ele>286</ele>
        <time>2015-11-14T13:00:30Z</time>
      </trkpt>
      <trkpt lat="43.58375" lon="3.39217">
        <ele>286</ele>
        <time>2015-11-14T13:00:31Z</time>
      </trkpt>
      <trkpt lat="43.58374" lon="3.39219">
        <ele>286</ele>
        <time>2015-11-14T13:00:32Z</time>
      </trkpt>
      <trkpt lat="43.58372" lon="3.3922">
        <ele>286</ele>
        <time>2015-11-14T13:00:33Z</time>
      </trkpt>
      <trkpt lat="43.5837" lon="3.39222">
        <ele>286</ele>
        <time>2015-11-14T13:00:34Z</time>
      </trkpt>
      <trkpt lat="43.58368" lon="3.39223">
        <ele>285.5</ele>
        <time>2015-11-14T13:00:36Z</time>
      </trkpt>
      <trkpt lat="43.58366" lon="3.39225">
        <ele>286</ele>
        <time>2015-11-14T13:00:36Z</time>
      </trkpt>
      <trkpt lat="43.58364" lon="3.39227">
        <ele>286</ele>
        <time>2015-11-14T13:00:37Z</time>
      </trkpt>
      <trkpt lat="43.58362" lon="3.39229">
        <ele>286.5</ele>
        <time>2015-11-14T13:00:38Z</time>
      </trkpt>
      <trkpt lat="43.5836" lon="3.39231">
        <ele>286.5</ele>
        <time>2015-11-14T13:00:39Z</time>
      </trkpt>
      <trkpt lat="43.58358" lon="3.39234">
        <ele>286.5</ele>
        <time>2015-11-14T13:00:40Z</time>
      </trkpt>
      <trkpt lat="43.58356" lon="3.39236">
        <ele>287</ele>
        <time>2015-11-14T13:00:41Z</time>
      </trkpt>
      <trkpt lat="43.58354" lon="3.39238">
        <ele>287</ele>
        <time>2015-11-14T13:00:42Z</time>
      </trkpt>
      <trkpt lat="43.58352" lon="3.39239">
        <ele>287</ele>
        <time>2015-11-14T13:00:43Z</time>
      </trkpt>
      <trkpt lat="43.5835" lon="3.39242">
        <ele>287.5</ele>
        <time>2015-11-14T13:00:44Z</time>
      </trkpt>
      <trkpt lat="43.58349" lon="3.39245">
        <ele>287.5</ele>
        <time>2015-11-14T13:00:45Z</time>
      </trkpt>
      <trkpt lat="43.58347" lon="3.39247">
        <ele>287.5</ele>
        <time>2015-11-14T13:00:46Z</time>
      </trkpt>
      <trkpt lat="43.58345" lon="3.3925">
        <ele>287.5</ele>
        <time>2015-11-14T13:00:47Z</time>
      </trkpt>
      <trkpt lat="43.58343" lon="3.39253">
        <ele>287.5</ele>
        <time>2015-11-14T13:00:48Z</time>
      </trkpt>
      <trkpt lat="43.58341" lon="3.39256">
        <ele>288</ele>
        <time>2015-11-14T13:00:49Z</time>
      </trkpt>
      <trkpt lat="43.58339" lon="3.39258">
        <ele>288</ele>
        <time>2015-11-14T13:00:50Z</time>
      </trkpt>
      <trkpt lat="43.58338" lon="3.39261">
        <ele>288</ele>
        <time>2015-11-14T13:00:51Z</time>
      </trkpt>
      <trkpt lat="43.58336" lon="3.39264">
        <ele>288</ele>
        <time>2015-11-14T13:00:52Z</time>
      </trkpt>
      <trkpt lat="43.58335" lon="3.39267">
        <ele>288.5</ele>
        <time>2015-11-14T13:00:53Z</time>
      </trkpt>
      <trkpt lat="43.58333" lon="3.39269">
        <ele>288.5</ele>
        <time>2015-11-14T13:00:54Z</time>
      </trkpt>
      <trkpt lat="43.58331" lon="3.39271">
        <ele>289</ele>
        <time>2015-11-14T13:00:55Z</time>
      </trkpt>
      <trkpt lat="43.5833" lon="3.39273">
        <ele>289.5</ele>
        <time>2015-11-14T13:00:56Z</time>
      </trkpt>
      <trkpt lat="43.58328" lon="3.39276">
        <ele>290</ele>
        <time>2015-11-14T13:00:57Z</time>
      </trkpt>
      <trkpt lat="43.58326" lon="3.39278">
        <ele>290</ele>
        <time>2015-11-14T13:00:58Z</time>
      </trkpt>
      <trkpt lat="43.58325" lon="3.3928">
        <ele>290.5</ele>
        <time>2015-11-14T13:00:59Z</time>
      </trkpt>
      <trkpt lat="43.58324" lon="3.39283">
        <ele>290.5</ele>
        <time>2015-11-14T13:01:00Z</time>
      </trkpt>
      <trkpt lat="43.58322" lon="3.39285">
        <ele>290.5</ele>
        <time>2015-11-14T13:01:01Z</time>
      </trkpt>
      <trkpt lat="43.5832" lon="3.39288">
        <ele>291</ele>
        <time>2015-11-14T13:01:02Z</time>
      </trkpt>
      <trkpt lat="43.58319" lon="3.3929">
        <ele>291</ele>
        <time>2015-11-14T13:01:03Z</time>
      </trkpt>
      <trkpt lat="43.58317" lon="3.39293">
        <ele>291.5</ele>
        <time>2015-11-14T13:01:04Z</time>
      </trkpt>
      <trkpt lat="43.58316" lon="3.39296">
        <ele>291.5</ele>
        <time>2015-11-14T13:01:05Z</time>
      </trkpt>
      <trkpt lat="43.58315" lon="3.39298">
        <ele>291.5</ele>
        <time>2015-11-14T13:01:06Z</time>
      </trkpt>
      <trkpt lat="43.58313" lon="3.39301">
        <ele>291.5</ele>
        <time>2015-11-14T13:01:07Z</time>
      </trkpt>
      <trkpt lat="43.58312" lon="3.39304">
        <ele>292</ele>
        <time>2015-11-14T13:01:08Z</time>
      </trkpt>
      <trkpt lat="43.58311" lon="3.39307">
        <ele>292</ele>
        <time>2015-11-14T13:01:09Z</time>
      </trkpt>
      <trkpt lat="43.5831" lon="3.39309">
        <ele>292.5</ele>
        <time>2015-11-14T13:01:10Z</time>
      </trkpt>
      <trkpt lat="43.58309" lon="3.39312">
        <ele>292.5</ele>
        <time>2015-11-14T13:01:11Z</time>
      </trkpt>
      <trkpt lat="43.58308" lon="3.39315">
        <ele>292.5</ele>
        <time>2015-11-14T13:01:12Z</time>
      </trkpt>
      <trkpt lat="43.58308" lon="3.39318">
        <ele>292.5</ele>
        <time>2015-11-14T13:01:13Z</time>
      </trkpt>
      <trkpt lat="43.58307" lon="3.39321">
        <ele>293</ele>
        <time>2015-11-14T13:01:14Z</time>
      </trkpt>
      <trkpt lat="43.58306" lon="3.39324">
        <ele>293.5</ele>
        <time>2015-11-14T13:01:15Z</time>
      </trkpt>
      <trkpt lat="43.58305" lon="3.39327">
        <ele>293.5</ele>
        <time>2015-11-14T13:01:16Z</time>
      </trkpt>
      <trkpt lat="43.58305" lon="3.3933">
        <ele>294</ele>
        <time>2015-11-14T13:01:17Z</time>
      </trkpt>
      <trkpt lat="43.58307" lon="3.39333">
        <ele>295</ele>
        <time>2015-11-14T13:01:18Z</time>
      </trkpt>
      <trkpt lat="43.58307" lon="3.39336">
        <ele>295.5</ele>
        <time>2015-11-14T13:01:19Z</time>
      </trkpt>
      <trkpt lat="43.58306" lon="3.39338">
        <ele>295.5</ele>
        <time>2015-11-14T13:01:20Z</time>
      </trkpt>
      <trkpt lat="43.58306" lon="3.39341">
        <ele>295.5</ele>
        <time>2015-11-14T13:01:21Z</time>
      </trkpt>
      <trkpt lat="43.58305" lon="3.39344">
        <ele>295.5</ele>
        <time>2015-11-14T13:01:22Z</time>
      </trkpt>
      <trkpt lat="43.58304" lon="3.39347">
        <ele>295.5</ele>
        <time>2015-11-14T13:01:23Z</time>
      </trkpt>
      <trkpt lat="43.58303" lon="3.3935">
        <ele>296</ele>
        <time>2015-11-14T13:01:24Z</time>
      </trkpt>
      <trkpt lat="43.58302" lon="3.39352">
        <ele>296</ele>
        <time>2015-11-14T13:01:25Z</time>
      </trkpt>
      <trkpt lat="43.583" lon="3.39355">
        <ele>296</ele>
        <time>2015-11-14T13:01:26Z</time>
      </trkpt>
      <trkpt lat="43.58298" lon="3.39357">
        <ele>296.5</ele>
        <time>2015-11-14T13:01:27Z</time>
      </trkpt>
      <trkpt lat="43.58297" lon="3.39359">
        <ele>296.5</ele>
        <time>2015-11-14T13:01:28Z</time>
      </trkpt>
      <trkpt lat="43.58295" lon="3.3936">
        <ele>296.5</ele>
        <time>2015-11-14T13:01:29Z</time>
      </trkpt>
      <trkpt lat="43.58293" lon="3.39362">
        <ele>296.5</ele>
        <time>2015-11-14T13:01:30Z</time>
      </trkpt>
      <trkpt lat="43.58292" lon="3.39365">
        <ele>297</ele>
        <time>2015-11-14T13:01:31Z</time>
      </trkpt>
      <trkpt lat="43.5829" lon="3.39367">
        <ele>297</ele>
        <time>2015-11-14T13:01:32Z</time>
      </trkpt>
      <trkpt lat="43.5829" lon="3.3937">
        <ele>297</ele>
        <time>2015-11-14T13:01:33Z</time>
      </trkpt>
      <trkpt lat="43.5829" lon="3.39372">
        <ele>297</ele>
        <time>2015-11-14T13:01:34Z</time>
      </trkpt>
      <trkpt lat="43.5829" lon="3.39374">
        <ele>297</ele>
        <time>2015-11-14T13:01:35Z</time>
      </trkpt>
      <trkpt lat="43.58292" lon="3.39376">
        <ele>297</ele>
        <time>2015-11-14T13:01:36Z</time>
      </trkpt>
      <trkpt lat="43.58293" lon="3.39377">
        <ele>296.5</ele>
        <time>2015-11-14T13:01:37Z</time>
      </trkpt>
      <trkpt lat="43.58294" lon="3.39378">
        <ele>296.5</ele>
        <time>2015-11-14T13:01:38Z</time>
      </trkpt>
      <trkpt lat="43.58296" lon="3.39379">
        <ele>296.5</ele>
        <time>2015-11-14T13:01:39Z</time>
      </trkpt>
      <trkpt lat="43.58297" lon="3.3938">
        <ele>296.5</ele>
        <time>2015-11-14T13:01:40Z</time>
      </trkpt>
      <trkpt lat="43.58298" lon="3.39382">
        <ele>296.5</ele>
        <time>2015-11-14T13:01:41Z</time>
      </trkpt>
      <trkpt lat="43.583" lon="3.39383">
        <ele>296.5</ele>
        <time>2015-11-14T13:01:42Z</time>
      </trkpt>
      <trkpt lat="43.58301" lon="3.39384">
        <ele>296.5</ele>
        <time>2015-11-14T13:01:43Z</time>
      </trkpt>
      <trkpt lat="43.58303" lon="3.39385">
        <ele>297</ele>
        <time>2015-11-14T13:01:44Z</time>
      </trkpt>
      <trkpt lat="43.58304" lon="3.39387">
        <ele>297</ele>
        <time>2015-11-14T13:01:45Z</time>
      </trkpt>
      <trkpt lat="43.58305" lon="3.39388">
        <ele>297</ele>
        <time>2015-11-14T13:01:46Z</time>
      </trkpt>
      <trkpt lat="43.58306" lon="3.3939">
        <ele>297</ele>
        <time>2015-11-14T13:01:47Z</time>
      </trkpt>
      <trkpt lat="43.58308" lon="3.39391">
        <ele>297</ele>
        <time>2015-11-14T13:01:48Z</time>
      </trkpt>
      <trkpt lat="43.5831" lon="3.39393">
        <ele>297</ele>
        <time>2015-11-14T13:01:49Z</time>
      </trkpt>
      <trkpt lat="43.58311" lon="3.39394">
        <ele>297</ele>
        <time>2015-11-14T13:01:50Z</time>
      </trkpt>
      <trkpt lat="43.58313" lon="3.39395">
        <ele>297.5</ele>
        <time>2015-11-14T13:01:51Z</time>
      </trkpt>
      <trkpt lat="43.58314" lon="3.39396">
        <ele>297</ele>
        <time>2015-11-14T13:01:52Z</time>
      </trkpt>
      <trkpt lat="43.58315" lon="3.39398">
        <ele>297</ele>
        <time>2015-11-14T13:01:53Z</time>
      </trkpt>
      <trkpt lat="43.58316" lon="3.39399">
        <ele>297.5</ele>
        <time>2015-11-14T13:01:54Z</time>
      </trkpt>
      <trkpt lat="43.58317" lon="3.39401">
        <ele>297.5</ele>
        <time>2015-11-14T13:01:55Z</time>
      </trkpt>
      <trkpt lat="43.58319" lon="3.39402">
        <ele>297</ele>
        <time>2015-11-14T13:01:56Z</time>
      </trkpt>
      <trkpt lat="43.5832" lon="3.39404">
        <ele>297</ele>
        <time>2015-11-14T13:01:57Z</time>
      </trkpt>
      <trkpt lat="43.58322" lon="3.39405">
        <ele>297</ele>
        <time>2015-11-14T13:01:58Z</time>
      </trkpt>
      <trkpt lat="43.58324" lon="3.39408">
        <ele>297</ele>
        <time>2015-11-14T13:01:59Z</time>
      </trkpt>
      <trkpt lat="43.58325" lon="3.3941">
        <ele>297</ele>
        <time>2015-11-14T13:02:00Z</time>
      </trkpt>
      <trkpt lat="43.58327" lon="3.39412">
        <ele>297</ele>
        <time>2015-11-14T13:02:01Z</time>
      </trkpt>
      <trkpt lat="43.58329" lon="3.39414">
        <ele>297</ele>
        <time>2015-11-14T13:02:02Z</time>
      </trkpt>
      <trkpt lat="43.58331" lon="3.39416">
        <ele>297</ele>
        <time>2015-11-14T13:02:03Z</time>
      </trkpt>
      <trkpt lat="43.58333" lon="3.39418">
        <ele>297</ele>
        <time>2015-11-14T13:02:04Z</time>
      </trkpt>
      <trkpt lat="43.58335" lon="3.3942">
        <ele>296.5</ele>
        <time>2015-11-14T13:02:05Z</time>
      </trkpt>
      <trkpt lat="43.58337" lon="3.39422">
        <ele>296.5</ele>
        <time>2015-11-14T13:02:06Z</time>
      </trkpt>
      <trkpt lat="43.5834" lon="3.39424">
        <ele>296.5</ele>
        <time>2015-11-14T13:02:07Z</time>
      </trkpt>
      <trkpt lat="43.58342" lon="3.39426">
        <ele>296</ele>
        <time>2015-11-14T13:02:08Z</time>
      </trkpt>
      <trkpt lat="43.58344" lon="3.39428">
        <ele>296</ele>
        <time>2015-11-14T13:02:09Z</time>
      </trkpt>
      <trkpt lat="43.58346" lon="3.39431">
        <ele>295.5</ele>
        <time>2015-11-14T13:02:10Z</time>
      </trkpt>
      <trkpt lat="43.58347" lon="3.39434">
        <ele>295.5</ele>
        <time>2015-11-14T13:02:11Z</time>
      </trkpt>
      <trkpt lat="43.58349" lon="3.39436">
        <ele>295.5</ele>
        <time>2015-11-14T13:02:12Z</time>
      </trkpt>
      <trkpt lat="43.5835" lon="3.39439">
        <ele>295.5</ele>
        <time>2015-11-14T13:02:13Z</time>
      </trkpt>
      <trkpt lat="43.58352" lon="3.39442">
        <ele>295.5</ele>
        <time>2015-11-14T13:02:14Z</time>
      </trkpt>
      <trkpt lat="43.58353" lon="3.39445">
        <ele>296</ele>
        <time>2015-11-14T13:02:15Z</time>
      </trkpt>
      <trkpt lat="43.58354" lon="3.39448">
        <ele>296</ele>
        <time>2015-11-14T13:02:16Z</time>
      </trkpt>
      <trkpt lat="43.58356" lon="3.39451">
        <ele>296</ele>
        <time>2015-11-14T13:02:17Z</time>
      </trkpt>
      <trkpt lat="43.58357" lon="3.39455">
        <ele>296</ele>
        <time>2015-11-14T13:02:18Z</time>
      </trkpt>
      <trkpt lat="43.58358" lon="3.39459">
        <ele>295.5</ele>
        <time>2015-11-14T13:02:19Z</time>
      </trkpt>
      <trkpt lat="43.58359" lon="3.39462">
        <ele>295.5</ele>
        <time>2015-11-14T13:02:20Z</time>
      </trkpt>
      <trkpt lat="43.5836" lon="3.39466">
        <ele>295.5</ele>
        <time>2015-11-14T13:02:21Z</time>
      </trkpt>
      <trkpt lat="43.5836" lon="3.39469">
        <ele>295.5</ele>
        <time>2015-11-14T13:02:22Z</time>
      </trkpt>
      <trkpt lat="43.58361" lon="3.39473">
        <ele>295.5</ele>
        <time>2015-11-14T13:02:23Z</time>
      </trkpt>
      <trkpt lat="43.58362" lon="3.39476">
        <ele>295.5</ele>
        <time>2015-11-14T13:02:24Z</time>
      </trkpt>
      <trkpt lat="43.58363" lon="3.3948">
        <ele>295.5</ele>
        <time>2015-11-14T13:02:25Z</time>
      </trkpt>
      <trkpt lat="43.58363" lon="3.39483">
        <ele>295</ele>
        <time>2015-11-14T13:02:26Z</time>
      </trkpt>
      <trkpt lat="43.58364" lon="3.39487">
        <ele>295</ele>
        <time>2015-11-14T13:02:27Z</time>
      </trkpt>
      <trkpt lat="43.58365" lon="3.3949">
        <ele>295.5</ele>
        <time>2015-11-14T13:02:28Z</time>
      </trkpt>
      <trkpt lat="43.58366" lon="3.39494">
        <ele>295.5</ele>
        <time>2015-11-14T13:02:29Z</time>
      </trkpt>
      <trkpt lat="43.58367" lon="3.39498">
        <ele>295.5</ele>
        <time>2015-11-14T13:02:30Z</time>
      </trkpt>
      <trkpt lat="43.58368" lon="3.39501">
        <ele>295.5</ele>
        <time>2015-11-14T13:02:31Z</time>
      </trkpt>
      <trkpt lat="43.58369" lon="3.39505">
        <ele>295.5</ele>
        <time>2015-11-14T13:02:32Z</time>
      </trkpt>
      <trkpt lat="43.5837" lon="3.39508">
        <ele>295.5</ele>
        <time>2015-11-14T13:02:33Z</time>
      </trkpt>
      <trkpt lat="43.58372" lon="3.39512">
        <ele>295.5</ele>
        <time>2015-11-14T13:02:34Z</time>
      </trkpt>
      <trkpt lat="43.58372" lon="3.39515">
        <ele>296</ele>
        <time>2015-11-14T13:02:35Z</time>
      </trkpt>
      <trkpt lat="43.58373" lon="3.39518">
        <ele>296</ele>
        <time>2015-11-14T13:02:36Z</time>
      </trkpt>
      <trkpt lat="43.58374" lon="3.39521">
        <ele>296.5</ele>
        <time>2015-11-14T13:02:37Z</time>
      </trkpt>
      <trkpt lat="43.58375" lon="3.39524">
        <ele>296.5</ele>
        <time>2015-11-14T13:02:38Z</time>
      </trkpt>
      <trkpt lat="43.58376" lon="3.39527">
        <ele>296.5</ele>
        <time>2015-11-14T13:02:39Z</time>
      </trkpt>
      <trkpt lat="43.58377" lon="3.3953">
        <ele>296.5</ele>
        <time>2015-11-14T13:02:40Z</time>
      </trkpt>
      <trkpt lat="43.58378" lon="3.39532">
        <ele>297</ele>
        <time>2015-11-14T13:02:41Z</time>
      </trkpt>
      <trkpt lat="43.58379" lon="3.39535">
        <ele>297.5</ele>
        <time>2015-11-14T13:02:42Z</time>
      </trkpt>
      <trkpt lat="43.5838" lon="3.39537">
        <ele>298</ele>
        <time>2015-11-14T13:02:43Z</time>
      </trkpt>
      <trkpt lat="43.58382" lon="3.3954">
        <ele>298.5</ele>
        <time>2015-11-14T13:02:44Z</time>
      </trkpt>
      <trkpt lat="43.58383" lon="3.39542">
        <ele>298.5</ele>
        <time>2015-11-14T13:02:45Z</time>
      </trkpt>
      <trkpt lat="43.58384" lon="3.39544">
        <ele>299</ele>
        <time>2015-11-14T13:02:46Z</time>
      </trkpt>
      <trkpt lat="43.58385" lon="3.39546">
        <ele>299</ele>
        <time>2015-11-14T13:02:47Z</time>
      </trkpt>
      <trkpt lat="43.58387" lon="3.39548">
        <ele>300</ele>
        <time>2015-11-14T13:02:48Z</time>
      </trkpt>
      <trkpt lat="43.58388" lon="3.3955">
        <ele>300</ele>
        <time>2015-11-14T13:02:49Z</time>
      </trkpt>
      <trkpt lat="43.58389" lon="3.39552">
        <ele>300.5</ele>
        <time>2015-11-14T13:02:50Z</time>
      </trkpt>
      <trkpt lat="43.5839" lon="3.39555">
        <ele>301</ele>
        <time>2015-11-14T13:02:51Z</time>
      </trkpt>
      <trkpt lat="43.58391" lon="3.39557">
        <ele>301.5</ele>
        <time>2015-11-14T13:02:52Z</time>
      </trkpt>
      <trkpt lat="43.58392" lon="3.3956">
        <ele>301.5</ele>
        <time>2015-11-14T13:02:53Z</time>
      </trkpt>
      <trkpt lat="43.58393" lon="3.39562">
        <ele>302</ele>
        <time>2015-11-14T13:02:54Z</time>
      </trkpt>
      <trkpt lat="43.58394" lon="3.39564">
        <ele>302.5</ele>
        <time>2015-11-14T13:02:55Z</time>
      </trkpt>
      <trkpt lat="43.58394" lon="3.39567">
        <ele>303</ele>
        <time>2015-11-14T13:02:56Z</time>
      </trkpt>
      <trkpt lat="43.58395" lon="3.3957">
        <ele>303</ele>
        <time>2015-11-14T13:02:57Z</time>
      </trkpt>
      <trkpt lat="43.58395" lon="3.39572">
        <ele>304</ele>
        <time>2015-11-14T13:02:58Z</time>
      </trkpt>
      <trkpt lat="43.58395" lon="3.39575">
        <ele>304.5</ele>
        <time>2015-11-14T13:02:59Z</time>
      </trkpt>
      <trkpt lat="43.58395" lon="3.39578">
        <ele>305</ele>
        <time>2015-11-14T13:03:00Z</time>
      </trkpt>
      <trkpt lat="43.58394" lon="3.3958">
        <ele>305.5</ele>
        <time>2015-11-14T13:03:01Z</time>
      </trkpt>
      <trkpt lat="43.58393" lon="3.39582">
        <ele>305.5</ele>
        <time>2015-11-14T13:03:02Z</time>
      </trkpt>
      <trkpt lat="43.58393" lon="3.39584">
        <ele>306</ele>
        <time>2015-11-14T13:03:03Z</time>
      </trkpt>
      <trkpt lat="43.58392" lon="3.39586">
        <ele>306.5</ele>
        <time>2015-11-14T13:03:04Z</time>
      </trkpt>
      <trkpt lat="43.58391" lon="3.39588">
        <ele>307</ele>
        <time>2015-11-14T13:03:05Z</time>
      </trkpt>
      <trkpt lat="43.5839" lon="3.3959">
        <ele>307</ele>
        <time>2015-11-14T13:03:06Z</time>
      </trkpt>
      <trkpt lat="43.58388" lon="3.39592">
        <ele>307</ele>
        <time>2015-11-14T13:03:07Z</time>
      </trkpt>
      <trkpt lat="43.58387" lon="3.39593">
        <ele>307.5</ele>
        <time>2015-11-14T13:03:08Z</time>
      </trkpt>
      <trkpt lat="43.58385" lon="3.39594">
        <ele>307.5</ele>
        <time>2015-11-14T13:03:09Z</time>
      </trkpt>
      <trkpt lat="43.58383" lon="3.39596">
        <ele>308</ele>
        <time>2015-11-14T13:03:10Z</time>
      </trkpt>
      <trkpt lat="43.58382" lon="3.39597">
        <ele>308.5</ele>
        <time>2015-11-14T13:03:11Z</time>
      </trkpt>
      <trkpt lat="43.5838" lon="3.39599">
        <ele>309</ele>
        <time>2015-11-14T13:03:12Z</time>
      </trkpt>
      <trkpt lat="43.58379" lon="3.39601">
        <ele>309</ele>
        <time>2015-11-14T13:03:13Z</time>
      </trkpt>
      <trkpt lat="43.58378" lon="3.39603">
        <ele>309.5</ele>
        <time>2015-11-14T13:03:14Z</time>
      </trkpt>
      <trkpt lat="43.58376" lon="3.39605">
        <ele>310</ele>
        <time>2015-11-14T13:03:15Z</time>
      </trkpt>
      <trkpt lat="43.58375" lon="3.39607">
        <ele>310</ele>
        <time>2015-11-14T13:03:16Z</time>
      </trkpt>
      <trkpt lat="43.58374" lon="3.39609">
        <ele>311</ele>
        <time>2015-11-14T13:03:17Z</time>
      </trkpt>
      <trkpt lat="43.58373" lon="3.39611">
        <ele>311.5</ele>
        <time>2015-11-14T13:03:18Z</time>
      </trkpt>
      <trkpt lat="43.58374" lon="3.39614">
        <ele>312.5</ele>
        <time>2015-11-14T13:03:19Z</time>
      </trkpt>
      <trkpt lat="43.58373" lon="3.39616">
        <ele>313</ele>
        <time>2015-11-14T13:03:20Z</time>
      </trkpt>
      <trkpt lat="43.58373" lon="3.39619">
        <ele>313.5</ele>
        <time>2015-11-14T13:03:21Z</time>
      </trkpt>
      <trkpt lat="43.58372" lon="3.39621">
        <ele>314</ele>
        <time>2015-11-14T13:03:22Z</time>
      </trkpt>
      <trkpt lat="43.58372" lon="3.39624">
        <ele>314.5</ele>
        <time>2015-11-14T13:03:23Z</time>
      </trkpt>
      <trkpt lat="43.58371" lon="3.39626">
        <ele>315</ele>
        <time>2015-11-14T13:03:24Z</time>
      </trkpt>
      <trkpt lat="43.58371" lon="3.39629">
        <ele>315.5</ele>
        <time>2015-11-14T13:03:25Z</time>
      </trkpt>
      <trkpt lat="43.58373" lon="3.39631">
        <ele>317</ele>
        <time>2015-11-14T13:03:26Z</time>
      </trkpt>
      <trkpt lat="43.58372" lon="3.39634">
        <ele>317.5</ele>
        <time>2015-11-14T13:03:27Z</time>
      </trkpt>
      <trkpt lat="43.58372" lon="3.39636">
        <ele>318</ele>
        <time>2015-11-14T13:03:28Z</time>
      </trkpt>
      <trkpt lat="43.58373" lon="3.39639">
        <ele>319</ele>
        <time>2015-11-14T13:03:29Z</time>
      </trkpt>
      <trkpt lat="43.58373" lon="3.39642">
        <ele>319</ele>
        <time>2015-11-14T13:03:30Z</time>
      </trkpt>
      <trkpt lat="43.58373" lon="3.39644">
        <ele>320</ele>
        <time>2015-11-14T13:03:31Z</time>
      </trkpt>
      <trkpt lat="43.58373" lon="3.39647">
        <ele>320</ele>
        <time>2015-11-14T13:03:32Z</time>
      </trkpt>
      <trkpt lat="43.58374" lon="3.39649">
        <ele>320</ele>
        <time>2015-11-14T13:03:32Z</time>
      </trkpt>
      <trkpt lat="43.58374" lon="3.39652">
        <ele>320</ele>
        <time>2015-11-14T13:03:34Z</time>
      </trkpt>
      <trkpt lat="43.58375" lon="3.39655">
        <ele>320.5</ele>
        <time>2015-11-14T13:03:35Z</time>
      </trkpt>
      <trkpt lat="43.58376" lon="3.39657">
        <ele>320.5</ele>
        <time>2015-11-14T13:03:35Z</time>
      </trkpt>
      <trkpt lat="43.58376" lon="3.3966">
        <ele>320.5</ele>
        <time>2015-11-14T13:03:36Z</time>
      </trkpt>
      <trkpt lat="43.58377" lon="3.39662">
        <ele>321</ele>
        <time>2015-11-14T13:03:37Z</time>
      </trkpt>
      <trkpt lat="43.58378" lon="3.39665">
        <ele>321.5</ele>
        <time>2015-11-14T13:03:38Z</time>
      </trkpt>
      <trkpt lat="43.58378" lon="3.39668">
        <ele>321.5</ele>
        <time>2015-11-14T13:03:40Z</time>
      </trkpt>
      <trkpt lat="43.58379" lon="3.3967">
        <ele>321.5</ele>
        <time>2015-11-14T13:03:40Z</time>
      </trkpt>
      <trkpt lat="43.58379" lon="3.39673">
        <ele>321.5</ele>
        <time>2015-11-14T13:03:41Z</time>
      </trkpt>
      <trkpt lat="43.58379" lon="3.39676">
        <ele>321</ele>
        <time>2015-11-14T13:03:42Z</time>
      </trkpt>
      <trkpt lat="43.58379" lon="3.39679">
        <ele>321</ele>
        <time>2015-11-14T13:03:43Z</time>
      </trkpt>
      <trkpt lat="43.58379" lon="3.39681">
        <ele>320.5</ele>
        <time>2015-11-14T13:03:44Z</time>
      </trkpt>
      <trkpt lat="43.58379" lon="3.39684">
        <ele>321.5</ele>
        <time>2015-11-14T13:03:45Z</time>
      </trkpt>
      <trkpt lat="43.58379" lon="3.39686">
        <ele>321</ele>
        <time>2015-11-14T13:03:47Z</time>
      </trkpt>
      <trkpt lat="43.58379" lon="3.39689">
        <ele>321</ele>
        <time>2015-11-14T13:03:47Z</time>
      </trkpt>
      <trkpt lat="43.58379" lon="3.39692">
        <ele>321.5</ele>
        <time>2015-11-14T13:03:48Z</time>
      </trkpt>
      <trkpt lat="43.58379" lon="3.39695">
        <ele>321.5</ele>
        <time>2015-11-14T13:03:49Z</time>
      </trkpt>
      <trkpt lat="43.5838" lon="3.39697">
        <ele>321.5</ele>
        <time>2015-11-14T13:03:50Z</time>
      </trkpt>
      <trkpt lat="43.5838" lon="3.397">
        <ele>321</ele>
        <time>2015-11-14T13:03:52Z</time>
      </trkpt>
      <trkpt lat="43.58379" lon="3.39702">
        <ele>321</ele>
        <time>2015-11-14T13:03:52Z</time>
      </trkpt>
      <trkpt lat="43.58379" lon="3.39705">
        <ele>320.5</ele>
        <time>2015-11-14T13:03:53Z</time>
      </trkpt>
      <trkpt lat="43.58379" lon="3.39708">
        <ele>320.5</ele>
        <time>2015-11-14T13:03:54Z</time>
      </trkpt>
      <trkpt lat="43.5838" lon="3.39711">
        <ele>320</ele>
        <time>2015-11-14T13:03:55Z</time>
      </trkpt>
      <trkpt lat="43.5838" lon="3.39714">
        <ele>320.5</ele>
        <time>2015-11-14T13:03:57Z</time>
      </trkpt>
      <trkpt lat="43.5838" lon="3.39717">
        <ele>320.5</ele>
        <time>2015-11-14T13:03:57Z</time>
      </trkpt>
      <trkpt lat="43.5838" lon="3.3972">
        <ele>320.5</ele>
        <time>2015-11-14T13:03:58Z</time>
      </trkpt>
      <trkpt lat="43.58379" lon="3.39723">
        <ele>320.5</ele>
        <time>2015-11-14T13:03:59Z</time>
      </trkpt>
      <trkpt lat="43.58379" lon="3.39726">
        <ele>320.5</ele>
        <time>2015-11-14T13:04:00Z</time>
      </trkpt>
      <trkpt lat="43.58379" lon="3.39728">
        <ele>321.5</ele>
        <time>2015-11-14T13:04:01Z</time>
      </trkpt>
      <trkpt lat="43.58379" lon="3.39731">
        <ele>321.5</ele>
        <time>2015-11-14T13:04:02Z</time>
      </trkpt>
      <trkpt lat="43.58378" lon="3.39734">
        <ele>321.5</ele>
        <time>2015-11-14T13:04:03Z</time>
      </trkpt>
      <trkpt lat="43.58379" lon="3.39737">
        <ele>321.5</ele>
        <time>2015-11-14T13:04:04Z</time>
      </trkpt>
      <trkpt lat="43.58379" lon="3.3974">
        <ele>322</ele>
        <time>2015-11-14T13:04:05Z</time>
      </trkpt>
      <trkpt lat="43.5838" lon="3.39743">
        <ele>322.5</ele>
        <time>2015-11-14T13:04:06Z</time>
      </trkpt>
      <trkpt lat="43.58381" lon="3.39745">
        <ele>322.5</ele>
        <time>2015-11-14T13:04:07Z</time>
      </trkpt>
      <trkpt lat="43.58381" lon="3.39748">
        <ele>323</ele>
        <time>2015-11-14T13:04:08Z</time>
      </trkpt>
      <trkpt lat="43.58382" lon="3.3975">
        <ele>323</ele>
        <time>2015-11-14T13:04:09Z</time>
      </trkpt>
      <trkpt lat="43.58383" lon="3.39752">
        <ele>323.5</ele>
        <time>2015-11-14T13:04:10Z</time>
      </trkpt>
      <trkpt lat="43.58384" lon="3.39754">
        <ele>323.5</ele>
        <time>2015-11-14T13:04:11Z</time>
      </trkpt>
      <trkpt lat="43.58385" lon="3.39756">
        <ele>323.5</ele>
        <time>2015-11-14T13:04:12Z</time>
      </trkpt>
      <trkpt lat="43.58387" lon="3.39758">
        <ele>324</ele>
        <time>2015-11-14T13:04:13Z</time>
      </trkpt>
      <trkpt lat="43.58388" lon="3.3976">
        <ele>324</ele>
        <time>2015-11-14T13:04:14Z</time>
      </trkpt>
      <trkpt lat="43.58389" lon="3.39762">
        <ele>324.5</ele>
        <time>2015-11-14T13:04:15Z</time>
      </trkpt>
      <trkpt lat="43.5839" lon="3.39764">
        <ele>324.5</ele>
        <time>2015-11-14T13:04:16Z</time>
      </trkpt>
      <trkpt lat="43.58391" lon="3.39765">
        <ele>324.5</ele>
        <time>2015-11-14T13:04:17Z</time>
      </trkpt>
      <trkpt lat="43.58392" lon="3.39767">
        <ele>324.5</ele>
        <time>2015-11-14T13:04:18Z</time>
      </trkpt>
      <trkpt lat="43.58394" lon="3.39768">
        <ele>324.5</ele>
        <time>2015-11-14T13:04:19Z</time>
      </trkpt>
      <trkpt lat="43.58395" lon="3.39769">
        <ele>324.5</ele>
        <time>2015-11-14T13:04:20Z</time>
      </trkpt>
      <trkpt lat="43.58396" lon="3.3977">
        <ele>325</ele>
        <time>2015-11-14T13:04:21Z</time>
      </trkpt>
      <trkpt lat="43.58398" lon="3.39771">
        <ele>325</ele>
        <time>2015-11-14T13:04:22Z</time>
      </trkpt>
      <trkpt lat="43.58399" lon="3.39772">
        <ele>325</ele>
        <time>2015-11-14T13:04:23Z</time>
      </trkpt>
      <trkpt lat="43.58401" lon="3.39773">
        <ele>324</ele>
        <time>2015-11-14T13:04:24Z</time>
      </trkpt>
      <trkpt lat="43.58402" lon="3.39774">
        <ele>324.5</ele>
        <time>2015-11-14T13:04:25Z</time>
      </trkpt>
      <trkpt lat="43.58404" lon="3.39775">
        <ele>324</ele>
        <time>2015-11-14T13:04:27Z</time>
      </trkpt>
      <trkpt lat="43.58405" lon="3.39776">
        <ele>323.5</ele>
        <time>2015-11-14T13:04:27Z</time>
      </trkpt>
      <trkpt lat="43.58406" lon="3.39777">
        <ele>323.5</ele>
        <time>2015-11-14T13:04:28Z</time>
      </trkpt>
      <trkpt lat="43.58407" lon="3.39778">
        <ele>323</ele>
        <time>2015-11-14T13:04:29Z</time>
      </trkpt>
      <trkpt lat="43.58408" lon="3.39779">
        <ele>323</ele>
        <time>2015-11-14T13:04:30Z</time>
      </trkpt>
      <trkpt lat="43.5841" lon="3.3978">
        <ele>322.5</ele>
        <time>2015-11-14T13:04:31Z</time>
      </trkpt>
      <trkpt lat="43.58411" lon="3.39782">
        <ele>322.5</ele>
        <time>2015-11-14T13:04:32Z</time>
      </trkpt>
      <trkpt lat="43.58413" lon="3.39783">
        <ele>322.5</ele>
        <time>2015-11-14T13:04:34Z</time>
      </trkpt>
      <trkpt lat="43.58415" lon="3.39784">
        <ele>322</ele>
        <time>2015-11-14T13:04:34Z</time>
      </trkpt>
      <trkpt lat="43.58416" lon="3.39786">
        <ele>322.5</ele>
        <time>2015-11-14T13:04:35Z</time>
      </trkpt>
      <trkpt lat="43.58418" lon="3.39787">
        <ele>322.5</ele>
        <time>2015-11-14T13:04:36Z</time>
      </trkpt>
      <trkpt lat="43.5842" lon="3.39788">
        <ele>322</ele>
        <time>2015-11-14T13:04:37Z</time>
      </trkpt>
      <trkpt lat="43.58421" lon="3.39789">
        <ele>322</ele>
        <time>2015-11-14T13:04:38Z</time>
      </trkpt>
      <trkpt lat="43.58423" lon="3.3979">
        <ele>322</ele>
        <time>2015-11-14T13:04:39Z</time>
      </trkpt>
      <trkpt lat="43.58425" lon="3.39792">
        <ele>322</ele>
        <time>2015-11-14T13:04:40Z</time>
      </trkpt>
      <trkpt lat="43.58426" lon="3.39794">
        <ele>322</ele>
        <time>2015-11-14T13:04:41Z</time>
      </trkpt>
      <trkpt lat="43.58427" lon="3.39796">
        <ele>322</ele>
        <time>2015-11-14T13:04:42Z</time>
      </trkpt>
      <trkpt lat="43.58429" lon="3.39798">
        <ele>322</ele>
        <time>2015-11-14T13:04:43Z</time>
      </trkpt>
      <trkpt lat="43.5843" lon="3.398">
        <ele>322</ele>
        <time>2015-11-14T13:04:44Z</time>
      </trkpt>
      <trkpt lat="43.58431" lon="3.39803">
        <ele>322.5</ele>
        <time>2015-11-14T13:04:45Z</time>
      </trkpt>
      <trkpt lat="43.58433" lon="3.39805">
        <ele>322.5</ele>
        <time>2015-11-14T13:04:46Z</time>
      </trkpt>
      <trkpt lat="43.58433" lon="3.39808">
        <ele>322.5</ele>
        <time>2015-11-14T13:04:47Z</time>
      </trkpt>
      <trkpt lat="43.58434" lon="3.39811">
        <ele>323</ele>
        <time>2015-11-14T13:04:48Z</time>
      </trkpt>
      <trkpt lat="43.58434" lon="3.39814">
        <ele>323</ele>
        <time>2015-11-14T13:04:49Z</time>
      </trkpt>
      <trkpt lat="43.58434" lon="3.39816">
        <ele>323.5</ele>
        <time>2015-11-14T13:04:50Z</time>
      </trkpt>
      <trkpt lat="43.58433" lon="3.39819">
        <ele>324</ele>
        <time>2015-11-14T13:04:51Z</time>
      </trkpt>
      <trkpt lat="43.58432" lon="3.39822">
        <ele>324.5</ele>
        <time>2015-11-14T13:04:52Z</time>
      </trkpt>
      <trkpt lat="43.58432" lon="3.39824">
        <ele>325</ele>
        <time>2015-11-14T13:04:53Z</time>
      </trkpt>
      <trkpt lat="43.58431" lon="3.39827">
        <ele>325.5</ele>
        <time>2015-11-14T13:04:54Z</time>
      </trkpt>
      <trkpt lat="43.5843" lon="3.39829">
        <ele>325.5</ele>
        <time>2015-11-14T13:04:55Z</time>
      </trkpt>
      <trkpt lat="43.58429" lon="3.39831">
        <ele>326</ele>
        <time>2015-11-14T13:04:56Z</time>
      </trkpt>
      <trkpt lat="43.58428" lon="3.39833">
        <ele>326.5</ele>
        <time>2015-11-14T13:04:57Z</time>
      </trkpt>
      <trkpt lat="43.58427" lon="3.39835">
        <ele>327</ele>
        <time>2015-11-14T13:04:58Z</time>
      </trkpt>
      <trkpt lat="43.58426" lon="3.39837">
        <ele>327.5</ele>
        <time>2015-11-14T13:04:59Z</time>
      </trkpt>
      <trkpt lat="43.58425" lon="3.39839">
        <ele>328</ele>
        <time>2015-11-14T13:05:00Z</time>
      </trkpt>
      <trkpt lat="43.58424" lon="3.39841">
        <ele>329</ele>
        <time>2015-11-14T13:05:01Z</time>
      </trkpt>
      <trkpt lat="43.58423" lon="3.39846">
        <ele>330</ele>
        <time>2015-11-14T13:05:03Z</time>
      </trkpt>
      <trkpt lat="43.58422" lon="3.39848">
        <ele>330</ele>
        <time>2015-11-14T13:05:04Z</time>
      </trkpt>
      <trkpt lat="43.58421" lon="3.3985">
        <ele>330</ele>
        <time>2015-11-14T13:05:05Z</time>
      </trkpt>
      <trkpt lat="43.58421" lon="3.39853">
        <ele>330</ele>
        <time>2015-11-14T13:05:06Z</time>
      </trkpt>
      <trkpt lat="43.5842" lon="3.39855">
        <ele>330.5</ele>
        <time>2015-11-14T13:05:07Z</time>
      </trkpt>
      <trkpt lat="43.5842" lon="3.39858">
        <ele>331</ele>
        <time>2015-11-14T13:05:08Z</time>
      </trkpt>
      <trkpt lat="43.58419" lon="3.39861">
        <ele>331.5</ele>
        <time>2015-11-14T13:05:09Z</time>
      </trkpt>
      <trkpt lat="43.58419" lon="3.39863">
        <ele>332</ele>
        <time>2015-11-14T13:05:10Z</time>
      </trkpt>
      <trkpt lat="43.58418" lon="3.39865">
        <ele>333</ele>
        <time>2015-11-14T13:05:11Z</time>
      </trkpt>
      <trkpt lat="43.58418" lon="3.39868">
        <ele>333.5</ele>
        <time>2015-11-14T13:05:12Z</time>
      </trkpt>
      <trkpt lat="43.58418" lon="3.3987">
        <ele>334</ele>
        <time>2015-11-14T13:05:13Z</time>
      </trkpt>
      <trkpt lat="43.58417" lon="3.39872">
        <ele>334.5</ele>
        <time>2015-11-14T13:05:14Z</time>
      </trkpt>
      <trkpt lat="43.58416" lon="3.39874">
        <ele>335</ele>
        <time>2015-11-14T13:05:15Z</time>
      </trkpt>
      <trkpt lat="43.58415" lon="3.39876">
        <ele>335</ele>
        <time>2015-11-14T13:05:16Z</time>
      </trkpt>
      <trkpt lat="43.58414" lon="3.39878">
        <ele>335</ele>
        <time>2015-11-14T13:05:17Z</time>
      </trkpt>
      <trkpt lat="43.58413" lon="3.3988">
        <ele>335</ele>
        <time>2015-11-14T13:05:18Z</time>
      </trkpt>
      <trkpt lat="43.58411" lon="3.39882">
        <ele>335</ele>
        <time>2015-11-14T13:05:19Z</time>
      </trkpt>
      <trkpt lat="43.5841" lon="3.39884">
        <ele>335</ele>
        <time>2015-11-14T13:05:20Z</time>
      </trkpt>
      <trkpt lat="43.58409" lon="3.39886">
        <ele>335</ele>
        <time>2015-11-14T13:05:21Z</time>
      </trkpt>
      <trkpt lat="43.58407" lon="3.39889">
        <ele>335</ele>
        <time>2015-11-14T13:05:22Z</time>
      </trkpt>
      <trkpt lat="43.58406" lon="3.39892">
        <ele>335</ele>
        <time>2015-11-14T13:05:23Z</time>
      </trkpt>
      <trkpt lat="43.58405" lon="3.39895">
        <ele>335.5</ele>
        <time>2015-11-14T13:05:24Z</time>
      </trkpt>
      <trkpt lat="43.58404" lon="3.39898">
        <ele>335.5</ele>
        <time>2015-11-14T13:05:25Z</time>
      </trkpt>
      <trkpt lat="43.58403" lon="3.39901">
        <ele>336</ele>
        <time>2015-11-14T13:05:26Z</time>
      </trkpt>
      <trkpt lat="43.58403" lon="3.39904">
        <ele>337</ele>
        <time>2015-11-14T13:05:27Z</time>
      </trkpt>
      <trkpt lat="43.58402" lon="3.39907">
        <ele>337</ele>
        <time>2015-11-14T13:05:28Z</time>
      </trkpt>
      <trkpt lat="43.58402" lon="3.39911">
        <ele>338</ele>
        <time>2015-11-14T13:05:29Z</time>
      </trkpt>
      <trkpt lat="43.58401" lon="3.39914">
        <ele>338</ele>
        <time>2015-11-14T13:05:30Z</time>
      </trkpt>
      <trkpt lat="43.58401" lon="3.39917">
        <ele>339</ele>
        <time>2015-11-14T13:05:31Z</time>
      </trkpt>
      <trkpt lat="43.58402" lon="3.39921">
        <ele>339.5</ele>
        <time>2015-11-14T13:05:32Z</time>
      </trkpt>
      <trkpt lat="43.58402" lon="3.39924">
        <ele>340</ele>
        <time>2015-11-14T13:05:33Z</time>
      </trkpt>
      <trkpt lat="43.58404" lon="3.39927">
        <ele>340</ele>
        <time>2015-11-14T13:05:34Z</time>
      </trkpt>
      <trkpt lat="43.58405" lon="3.3993">
        <ele>339.5</ele>
        <time>2015-11-14T13:05:35Z</time>
      </trkpt>
      <trkpt lat="43.58407" lon="3.39933">
        <ele>339.5</ele>
        <time>2015-11-14T13:05:36Z</time>
      </trkpt>
      <trkpt lat="43.58409" lon="3.39935">
        <ele>339.5</ele>
        <time>2015-11-14T13:05:37Z</time>
      </trkpt>
      <trkpt lat="43.5841" lon="3.39936">
        <ele>339.5</ele>
        <time>2015-11-14T13:05:38Z</time>
      </trkpt>
      <trkpt lat="43.58411" lon="3.39937">
        <ele>339.5</ele>
        <time>2015-11-14T13:05:39Z</time>
      </trkpt>
      <trkpt lat="43.58412" lon="3.39937">
        <ele>338.5</ele>
        <time>2015-11-14T13:05:40Z</time>
      </trkpt>
      <trkpt lat="43.58412" lon="3.39936">
        <ele>338</ele>
        <time>2015-11-14T13:05:41Z</time>
      </trkpt>
      <trkpt lat="43.58413" lon="3.39936">
        <ele>338</ele>
        <time>2015-11-14T13:05:42Z</time>
      </trkpt>
      <trkpt lat="43.58414" lon="3.39935">
        <ele>338</ele>
        <time>2015-11-14T13:05:43Z</time>
      </trkpt>
      <trkpt lat="43.58415" lon="3.39934">
        <ele>338</ele>
        <time>2015-11-14T13:05:44Z</time>
      </trkpt>
      <trkpt lat="43.58416" lon="3.39933">
        <ele>338.5</ele>
        <time>2015-11-14T13:05:45Z</time>
      </trkpt>
      <trkpt lat="43.58417" lon="3.39932">
        <ele>338.5</ele>
        <time>2015-11-14T13:05:46Z</time>
      </trkpt>
      <trkpt lat="43.58418" lon="3.39931">
        <ele>338.5</ele>
        <time>2015-11-14T13:05:47Z</time>
      </trkpt>
      <trkpt lat="43.5842" lon="3.3993">
        <ele>338</ele>
        <time>2015-11-14T13:05:48Z</time>
      </trkpt>
      <trkpt lat="43.58421" lon="3.39929">
        <ele>338</ele>
        <time>2015-11-14T13:05:49Z</time>
      </trkpt>
      <trkpt lat="43.58422" lon="3.39928">
        <ele>338</ele>
        <time>2015-11-14T13:05:50Z</time>
      </trkpt>
      <trkpt lat="43.58424" lon="3.39928">
        <ele>338</ele>
        <time>2015-11-14T13:05:51Z</time>
      </trkpt>
      <trkpt lat="43.58425" lon="3.39927">
        <ele>337.5</ele>
        <time>2015-11-14T13:05:52Z</time>
      </trkpt>
      <trkpt lat="43.58427" lon="3.39927">
        <ele>337</ele>
        <time>2015-11-14T13:05:53Z</time>
      </trkpt>
      <trkpt lat="43.58429" lon="3.39926">
        <ele>337</ele>
        <time>2015-11-14T13:05:54Z</time>
      </trkpt>
      <trkpt lat="43.58431" lon="3.39926">
        <ele>337</ele>
        <time>2015-11-14T13:05:55Z</time>
      </trkpt>
      <trkpt lat="43.58432" lon="3.39925">
        <ele>337</ele>
        <time>2015-11-14T13:05:56Z</time>
      </trkpt>
      <trkpt lat="43.58434" lon="3.39925">
        <ele>337</ele>
        <time>2015-11-14T13:05:57Z</time>
      </trkpt>
      <trkpt lat="43.58436" lon="3.39924">
        <ele>337</ele>
        <time>2015-11-14T13:05:58Z</time>
      </trkpt>
      <trkpt lat="43.58437" lon="3.39924">
        <ele>337</ele>
        <time>2015-11-14T13:05:59Z</time>
      </trkpt>
      <trkpt lat="43.58439" lon="3.39924">
        <ele>337.5</ele>
        <time>2015-11-14T13:06:00Z</time>
      </trkpt>
      <trkpt lat="43.58441" lon="3.39923">
        <ele>337.5</ele>
        <time>2015-11-14T13:06:01Z</time>
      </trkpt>
      <trkpt lat="43.58443" lon="3.39923">
        <ele>338</ele>
        <time>2015-11-14T13:06:02Z</time>
      </trkpt>
      <trkpt lat="43.58445" lon="3.39923">
        <ele>338</ele>
        <time>2015-11-14T13:06:03Z</time>
      </trkpt>
      <trkpt lat="43.58446" lon="3.39923">
        <ele>338</ele>
        <time>2015-11-14T13:06:04Z</time>
      </trkpt>
      <trkpt lat="43.58448" lon="3.39922">
        <ele>338</ele>
        <time>2015-11-14T13:06:05Z</time>
      </trkpt>
      <trkpt lat="43.5845" lon="3.39923">
        <ele>338</ele>
        <time>2015-11-14T13:06:06Z</time>
      </trkpt>
      <trkpt lat="43.58452" lon="3.39923">
        <ele>338</ele>
        <time>2015-11-14T13:06:07Z</time>
      </trkpt>
      <trkpt lat="43.58454" lon="3.39923">
        <ele>338</ele>
        <time>2015-11-14T13:06:08Z</time>
      </trkpt>
      <trkpt lat="43.58456" lon="3.39923">
        <ele>338</ele>
        <time>2015-11-14T13:06:09Z</time>
      </trkpt>
      <trkpt lat="43.58458" lon="3.39923">
        <ele>338</ele>
        <time>2015-11-14T13:06:10Z</time>
      </trkpt>
      <trkpt lat="43.5846" lon="3.39923">
        <ele>338.5</ele>
        <time>2015-11-14T13:06:11Z</time>
      </trkpt>
      <trkpt lat="43.58462" lon="3.39923">
        <ele>338</ele>
        <time>2015-11-14T13:06:12Z</time>
      </trkpt>
      <trkpt lat="43.58464" lon="3.39924">
        <ele>338</ele>
        <time>2015-11-14T13:06:13Z</time>
      </trkpt>
      <trkpt lat="43.58466" lon="3.39924">
        <ele>338</ele>
        <time>2015-11-14T13:06:14Z</time>
      </trkpt>
      <trkpt lat="43.58468" lon="3.39924">
        <ele>338.5</ele>
        <time>2015-11-14T13:06:15Z</time>
      </trkpt>
      <trkpt lat="43.5847" lon="3.39925">
        <ele>338.5</ele>
        <time>2015-11-14T13:06:16Z</time>
      </trkpt>
      <trkpt lat="43.58472" lon="3.39925">
        <ele>338</ele>
        <time>2015-11-14T13:06:17Z</time>
      </trkpt>
      <trkpt lat="43.58474" lon="3.39926">
        <ele>338</ele>
        <time>2015-11-14T13:06:18Z</time>
      </trkpt>
      <trkpt lat="43.58476" lon="3.39926">
        <ele>338</ele>
        <time>2015-11-14T13:06:19Z</time>
      </trkpt>
      <trkpt lat="43.58479" lon="3.39926">
        <ele>337.5</ele>
        <time>2015-11-14T13:06:20Z</time>
      </trkpt>
      <trkpt lat="43.58482" lon="3.39926">
        <ele>337</ele>
        <time>2015-11-14T13:06:21Z</time>
      </trkpt>
      <trkpt lat="43.58485" lon="3.39926">
        <ele>336.5</ele>
        <time>2015-11-14T13:06:22Z</time>
      </trkpt>
      <trkpt lat="43.58487" lon="3.39925">
        <ele>336.5</ele>
        <time>2015-11-14T13:06:23Z</time>
      </trkpt>
      <trkpt lat="43.5849" lon="3.39924">
        <ele>336.5</ele>
        <time>2015-11-14T13:06:24Z</time>
      </trkpt>
      <trkpt lat="43.58493" lon="3.39923">
        <ele>336.5</ele>
        <time>2015-11-14T13:06:25Z</time>
      </trkpt>
      <trkpt lat="43.58496" lon="3.39922">
        <ele>336</ele>
        <time>2015-11-14T13:06:26Z</time>
      </trkpt>
      <trkpt lat="43.58499" lon="3.39921">
        <ele>336</ele>
        <time>2015-11-14T13:06:27Z</time>
      </trkpt>
      <trkpt lat="43.58502" lon="3.3992">
        <ele>335.5</ele>
        <time>2015-11-14T13:06:28Z</time>
      </trkpt>
      <trkpt lat="43.58506" lon="3.39919">
        <ele>335.5</ele>
        <time>2015-11-14T13:06:29Z</time>
      </trkpt>
      <trkpt lat="43.58509" lon="3.39918">
        <ele>335.5</ele>
        <time>2015-11-14T13:06:30Z</time>
      </trkpt>
      <trkpt lat="43.58513" lon="3.39917">
        <ele>335.5</ele>
        <time>2015-11-14T13:06:31Z</time>
      </trkpt>
      <trkpt lat="43.58516" lon="3.39915">
        <ele>335.5</ele>
        <time>2015-11-14T13:06:32Z</time>
      </trkpt>
      <trkpt lat="43.5852" lon="3.39914">
        <ele>335.5</ele>
        <time>2015-11-14T13:06:33Z</time>
      </trkpt>
      <trkpt lat="43.58523" lon="3.39913">
        <ele>335.5</ele>
        <time>2015-11-14T13:06:34Z</time>
      </trkpt>
      <trkpt lat="43.58527" lon="3.39912">
        <ele>335</ele>
        <time>2015-11-14T13:06:35Z</time>
      </trkpt>
      <trkpt lat="43.5853" lon="3.3991">
        <ele>335.5</ele>
        <time>2015-11-14T13:06:36Z</time>
      </trkpt>
      <trkpt lat="43.58534" lon="3.39908">
        <ele>335.5</ele>
        <time>2015-11-14T13:06:37Z</time>
      </trkpt>
      <trkpt lat="43.58538" lon="3.39907">
        <ele>335.5</ele>
        <time>2015-11-14T13:06:38Z</time>
      </trkpt>
      <trkpt lat="43.58541" lon="3.39905">
        <ele>335</ele>
        <time>2015-11-14T13:06:39Z</time>
      </trkpt>
      <trkpt lat="43.58545" lon="3.39903">
        <ele>335</ele>
        <time>2015-11-14T13:06:40Z</time>
      </trkpt>
      <trkpt lat="43.58549" lon="3.39901">
        <ele>335.5</ele>
        <time>2015-11-14T13:06:41Z</time>
      </trkpt>
      <trkpt lat="43.58552" lon="3.39899">
        <ele>335.5</ele>
        <time>2015-11-14T13:06:42Z</time>
      </trkpt>
      <trkpt lat="43.58555" lon="3.39896">
        <ele>335.5</ele>
        <time>2015-11-14T13:06:43Z</time>
      </trkpt>
      <trkpt lat="43.58558" lon="3.39894">
        <ele>335</ele>
        <time>2015-11-14T13:06:44Z</time>
      </trkpt>
      <trkpt lat="43.58561" lon="3.39891">
        <ele>335</ele>
        <time>2015-11-14T13:06:45Z</time>
      </trkpt>
      <trkpt lat="43.58565" lon="3.39889">
        <ele>335</ele>
        <time>2015-11-14T13:06:46Z</time>
      </trkpt>
      <trkpt lat="43.58568" lon="3.39886">
        <ele>335</ele>
        <time>2015-11-14T13:06:47Z</time>
      </trkpt>
      <trkpt lat="43.58571" lon="3.39883">
        <ele>335</ele>
        <time>2015-11-14T13:06:48Z</time>
      </trkpt>
      <trkpt lat="43.58574" lon="3.3988">
        <ele>335</ele>
        <time>2015-11-14T13:06:49Z</time>
      </trkpt>
      <trkpt lat="43.58577" lon="3.39877">
        <ele>335</ele>
        <time>2015-11-14T13:06:50Z</time>
      </trkpt>
      <trkpt lat="43.5858" lon="3.39875">
        <ele>335</ele>
        <time>2015-11-14T13:06:51Z</time>
      </trkpt>
      <trkpt lat="43.58583" lon="3.39872">
        <ele>335</ele>
        <time>2015-11-14T13:06:52Z</time>
      </trkpt>
      <trkpt lat="43.58586" lon="3.39869">
        <ele>335</ele>
        <time>2015-11-14T13:06:53Z</time>
      </trkpt>
      <trkpt lat="43.5859" lon="3.39866">
        <ele>335</ele>
        <time>2015-11-14T13:06:54Z</time>
      </trkpt>
      <trkpt lat="43.58593" lon="3.39863">
        <ele>335</ele>
        <time>2015-11-14T13:06:55Z</time>
      </trkpt>
      <trkpt lat="43.58596" lon="3.3986">
        <ele>335</ele>
        <time>2015-11-14T13:06:55Z</time>
      </trkpt>
      <trkpt lat="43.58599" lon="3.39857">
        <ele>335</ele>
        <time>2015-11-14T13:06:57Z</time>
      </trkpt>
      <trkpt lat="43.58601" lon="3.39855">
        <ele>335</ele>
        <time>2015-11-14T13:06:57Z</time>
      </trkpt>
      <trkpt lat="43.58604" lon="3.39852">
        <ele>335</ele>
        <time>2015-11-14T13:06:58Z</time>
      </trkpt>
      <trkpt lat="43.58607" lon="3.3985">
        <ele>335</ele>
        <time>2015-11-14T13:06:59Z</time>
      </trkpt>
      <trkpt lat="43.5861" lon="3.39848">
        <ele>335</ele>
        <time>2015-11-14T13:07:00Z</time>
      </trkpt>
      <trkpt lat="43.58613" lon="3.39846">
        <ele>334.5</ele>
        <time>2015-11-14T13:07:01Z</time>
      </trkpt>
      <trkpt lat="43.58617" lon="3.39844">
        <ele>334.5</ele>
        <time>2015-11-14T13:07:02Z</time>
      </trkpt>
      <trkpt lat="43.5862" lon="3.39842">
        <ele>334.5</ele>
        <time>2015-11-14T13:07:04Z</time>
      </trkpt>
      <trkpt lat="43.58624" lon="3.39841">
        <ele>334.5</ele>
        <time>2015-11-14T13:07:04Z</time>
      </trkpt>
      <trkpt lat="43.58628" lon="3.39839">
        <ele>334.5</ele>
        <time>2015-11-14T13:07:05Z</time>
      </trkpt>
      <trkpt lat="43.58632" lon="3.39838">
        <ele>334.5</ele>
        <time>2015-11-14T13:07:06Z</time>
      </trkpt>
      <trkpt lat="43.58635" lon="3.39837">
        <ele>334.5</ele>
        <time>2015-11-14T13:07:07Z</time>
      </trkpt>
      <trkpt lat="43.58639" lon="3.39836">
        <ele>334</ele>
        <time>2015-11-14T13:07:09Z</time>
      </trkpt>
      <trkpt lat="43.58643" lon="3.39836">
        <ele>334.5</ele>
        <time>2015-11-14T13:07:09Z</time>
      </trkpt>
      <trkpt lat="43.58647" lon="3.39835">
        <ele>334.5</ele>
        <time>2015-11-14T13:07:10Z</time>
      </trkpt>
      <trkpt lat="43.58651" lon="3.39836">
        <ele>334.5</ele>
        <time>2015-11-14T13:07:12Z</time>
      </trkpt>
      <trkpt lat="43.58655" lon="3.39836">
        <ele>334.5</ele>
        <time>2015-11-14T13:07:12Z</time>
      </trkpt>
      <trkpt lat="43.58659" lon="3.39835">
        <ele>334.5</ele>
        <time>2015-11-14T13:07:13Z</time>
      </trkpt>
      <trkpt lat="43.58663" lon="3.39836">
        <ele>335</ele>
        <time>2015-11-14T13:07:14Z</time>
      </trkpt>
      <trkpt lat="43.58668" lon="3.39836">
        <ele>334.5</ele>
        <time>2015-11-14T13:07:15Z</time>
      </trkpt>
      <trkpt lat="43.58672" lon="3.39836">
        <ele>334.5</ele>
        <time>2015-11-14T13:07:16Z</time>
      </trkpt>
      <trkpt lat="43.58676" lon="3.39836">
        <ele>334</ele>
        <time>2015-11-14T13:07:17Z</time>
      </trkpt>
      <trkpt lat="43.5868" lon="3.39835">
        <ele>333.5</ele>
        <time>2015-11-14T13:07:18Z</time>
      </trkpt>
      <trkpt lat="43.58684" lon="3.39835">
        <ele>333.5</ele>
        <time>2015-11-14T13:07:19Z</time>
      </trkpt>
      <trkpt lat="43.58688" lon="3.39835">
        <ele>333.5</ele>
        <time>2015-11-14T13:07:20Z</time>
      </trkpt>
      <trkpt lat="43.58692" lon="3.39835">
        <ele>333.5</ele>
        <time>2015-11-14T13:07:21Z</time>
      </trkpt>
      <trkpt lat="43.58696" lon="3.39834">
        <ele>333.5</ele>
        <time>2015-11-14T13:07:23Z</time>
      </trkpt>
      <trkpt lat="43.587" lon="3.39834">
        <ele>333.5</ele>
        <time>2015-11-14T13:07:23Z</time>
      </trkpt>
      <trkpt lat="43.58705" lon="3.39834">
        <ele>334</ele>
        <time>2015-11-14T13:07:24Z</time>
      </trkpt>
      <trkpt lat="43.58709" lon="3.39834">
        <ele>334</ele>
        <time>2015-11-14T13:07:26Z</time>
      </trkpt>
      <trkpt lat="43.58713" lon="3.39834">
        <ele>334</ele>
        <time>2015-11-14T13:07:26Z</time>
      </trkpt>
      <trkpt lat="43.58717" lon="3.39833">
        <ele>334</ele>
        <time>2015-11-14T13:07:27Z</time>
      </trkpt>
      <trkpt lat="43.58721" lon="3.39833">
        <ele>334</ele>
        <time>2015-11-14T13:07:29Z</time>
      </trkpt>
      <trkpt lat="43.58726" lon="3.39833">
        <ele>334</ele>
        <time>2015-11-14T13:07:29Z</time>
      </trkpt>
      <trkpt lat="43.5873" lon="3.39833">
        <ele>334</ele>
        <time>2015-11-14T13:07:30Z</time>
      </trkpt>
      <trkpt lat="43.58734" lon="3.39833">
        <ele>334</ele>
        <time>2015-11-14T13:07:32Z</time>
      </trkpt>
      <trkpt lat="43.58738" lon="3.39832">
        <ele>334</ele>
        <time>2015-11-14T13:07:32Z</time>
      </trkpt>
      <trkpt lat="43.58742" lon="3.39832">
        <ele>334.5</ele>
        <time>2015-11-14T13:07:33Z</time>
      </trkpt>
      <trkpt lat="43.58746" lon="3.39832">
        <ele>334</ele>
        <time>2015-11-14T13:07:34Z</time>
      </trkpt>
      <trkpt lat="43.5875" lon="3.39832">
        <ele>334</ele>
        <time>2015-11-14T13:07:35Z</time>
      </trkpt>
      <trkpt lat="43.58755" lon="3.39832">
        <ele>334</ele>
        <time>2015-11-14T13:07:36Z</time>
      </trkpt>
      <trkpt lat="43.58759" lon="3.39832">
        <ele>334.5</ele>
        <time>2015-11-14T13:07:37Z</time>
      </trkpt>
      <trkpt lat="43.58763" lon="3.39832">
        <ele>334</ele>
        <time>2015-11-14T13:07:38Z</time>
      </trkpt>
      <trkpt lat="43.58767" lon="3.39832">
        <ele>334.5</ele>
        <time>2015-11-14T13:07:39Z</time>
      </trkpt>
      <trkpt lat="43.58771" lon="3.39831">
        <ele>334.5</ele>
        <time>2015-11-14T13:07:40Z</time>
      </trkpt>
      <trkpt lat="43.58776" lon="3.39832">
        <ele>334.5</ele>
        <time>2015-11-14T13:07:41Z</time>
      </trkpt>
      <trkpt lat="43.5878" lon="3.39832">
        <ele>334.5</ele>
        <time>2015-11-14T13:07:42Z</time>
      </trkpt>
      <trkpt lat="43.58784" lon="3.39832">
        <ele>334.5</ele>
        <time>2015-11-14T13:07:43Z</time>
      </trkpt>
      <trkpt lat="43.58788" lon="3.39833">
        <ele>334.5</ele>
        <time>2015-11-14T13:07:44Z</time>
      </trkpt>
      <trkpt lat="43.58792" lon="3.39833">
        <ele>334.5</ele>
        <time>2015-11-14T13:07:46Z</time>
      </trkpt>
      <trkpt lat="43.58796" lon="3.39833">
        <ele>334.5</ele>
        <time>2015-11-14T13:07:46Z</time>
      </trkpt>
      <trkpt lat="43.588" lon="3.39833">
        <ele>334.5</ele>
        <time>2015-11-14T13:07:47Z</time>
      </trkpt>
      <trkpt lat="43.58804" lon="3.39832">
        <ele>335</ele>
        <time>2015-11-14T13:07:48Z</time>
      </trkpt>
      <trkpt lat="43.58808" lon="3.39832">
        <ele>335</ele>
        <time>2015-11-14T13:07:49Z</time>
      </trkpt>
      <trkpt lat="43.58812" lon="3.39832">
        <ele>335</ele>
        <time>2015-11-14T13:07:50Z</time>
      </trkpt>
      <trkpt lat="43.58816" lon="3.39832">
        <ele>335</ele>
        <time>2015-11-14T13:07:51Z</time>
      </trkpt>
      <trkpt lat="43.5882" lon="3.39832">
        <ele>335</ele>
        <time>2015-11-14T13:07:52Z</time>
      </trkpt>
      <trkpt lat="43.58824" lon="3.39832">
        <ele>334.5</ele>
        <time>2015-11-14T13:07:54Z</time>
      </trkpt>
      <trkpt lat="43.58827" lon="3.39832">
        <ele>334.5</ele>
        <time>2015-11-14T13:07:55Z</time>
      </trkpt>
      <trkpt lat="43.58831" lon="3.39831">
        <ele>334.5</ele>
        <time>2015-11-14T13:07:55Z</time>
      </trkpt>
      <trkpt lat="43.58836" lon="3.39831">
        <ele>334.5</ele>
        <time>2015-11-14T13:07:56Z</time>
      </trkpt>
      <trkpt lat="43.5884" lon="3.39831">
        <ele>334.5</ele>
        <time>2015-11-14T13:07:57Z</time>
      </trkpt>
      <trkpt lat="43.58844" lon="3.3983">
        <ele>334.5</ele>
        <time>2015-11-14T13:07:58Z</time>
      </trkpt>
      <trkpt lat="43.58848" lon="3.3983">
        <ele>334.5</ele>
        <time>2015-11-14T13:07:59Z</time>
      </trkpt>
      <trkpt lat="43.58852" lon="3.39829">
        <ele>334.5</ele>
        <time>2015-11-14T13:08:00Z</time>
      </trkpt>
      <trkpt lat="43.58856" lon="3.39828">
        <ele>334.5</ele>
        <time>2015-11-14T13:08:01Z</time>
      </trkpt>
      <trkpt lat="43.5886" lon="3.39827">
        <ele>334.5</ele>
        <time>2015-11-14T13:08:02Z</time>
      </trkpt>
      <trkpt lat="43.58865" lon="3.39826">
        <ele>334.5</ele>
        <time>2015-11-14T13:08:03Z</time>
      </trkpt>
      <trkpt lat="43.58869" lon="3.39825">
        <ele>334</ele>
        <time>2015-11-14T13:08:04Z</time>
      </trkpt>
      <trkpt lat="43.58873" lon="3.39823">
        <ele>333.5</ele>
        <time>2015-11-14T13:08:05Z</time>
      </trkpt>
      <trkpt lat="43.58877" lon="3.39822">
        <ele>333.5</ele>
        <time>2015-11-14T13:08:06Z</time>
      </trkpt>
      <trkpt lat="43.58882" lon="3.3982">
        <ele>333</ele>
        <time>2015-11-14T13:08:07Z</time>
      </trkpt>
      <trkpt lat="43.58886" lon="3.39819">
        <ele>333</ele>
        <time>2015-11-14T13:08:08Z</time>
      </trkpt>
      <trkpt lat="43.5889" lon="3.39817">
        <ele>333</ele>
        <time>2015-11-14T13:08:09Z</time>
      </trkpt>
      <trkpt lat="43.58894" lon="3.39816">
        <ele>332.5</ele>
        <time>2015-11-14T13:08:10Z</time>
      </trkpt>
      <trkpt lat="43.58898" lon="3.39814">
        <ele>332.5</ele>
        <time>2015-11-14T13:08:11Z</time>
      </trkpt>
      <trkpt lat="43.58902" lon="3.39812">
        <ele>332.5</ele>
        <time>2015-11-14T13:08:12Z</time>
      </trkpt>
      <trkpt lat="43.58906" lon="3.3981">
        <ele>332.5</ele>
        <time>2015-11-14T13:08:13Z</time>
      </trkpt>
      <trkpt lat="43.5891" lon="3.39808">
        <ele>332</ele>
        <time>2015-11-14T13:08:14Z</time>
      </trkpt>
      <trkpt lat="43.58914" lon="3.39807">
        <ele>332</ele>
        <time>2015-11-14T13:08:15Z</time>
      </trkpt>
      <trkpt lat="43.58918" lon="3.39805">
        <ele>332</ele>
        <time>2015-11-14T13:08:16Z</time>
      </trkpt>
      <trkpt lat="43.58922" lon="3.39804">
        <ele>331.5</ele>
        <time>2015-11-14T13:08:17Z</time>
      </trkpt>
      <trkpt lat="43.58926" lon="3.39803">
        <ele>331.5</ele>
        <time>2015-11-14T13:08:18Z</time>
      </trkpt>
      <trkpt lat="43.5893" lon="3.39802">
        <ele>331.5</ele>
        <time>2015-11-14T13:08:19Z</time>
      </trkpt>
      <trkpt lat="43.58934" lon="3.39801">
        <ele>331</ele>
        <time>2015-11-14T13:08:20Z</time>
      </trkpt>
      <trkpt lat="43.58938" lon="3.39801">
        <ele>331.5</ele>
        <time>2015-11-14T13:08:21Z</time>
      </trkpt>
      <trkpt lat="43.58941" lon="3.39801">
        <ele>331.5</ele>
        <time>2015-11-14T13:08:22Z</time>
      </trkpt>
      <trkpt lat="43.58945" lon="3.39802">
        <ele>332</ele>
        <time>2015-11-14T13:08:23Z</time>
      </trkpt>
      <trkpt lat="43.58949" lon="3.39802">
        <ele>332</ele>
        <time>2015-11-14T13:08:24Z</time>
      </trkpt>
      <trkpt lat="43.58953" lon="3.39802">
        <ele>331</ele>
        <time>2015-11-14T13:08:25Z</time>
      </trkpt>
      <trkpt lat="43.58956" lon="3.39803">
        <ele>331</ele>
        <time>2015-11-14T13:08:26Z</time>
      </trkpt>
      <trkpt lat="43.5896" lon="3.39803">
        <ele>331</ele>
        <time>2015-11-14T13:08:27Z</time>
      </trkpt>
      <trkpt lat="43.58964" lon="3.39803">
        <ele>331</ele>
        <time>2015-11-14T13:08:28Z</time>
      </trkpt>
      <trkpt lat="43.58967" lon="3.39803">
        <ele>331</ele>
        <time>2015-11-14T13:08:29Z</time>
      </trkpt>
      <trkpt lat="43.5897" lon="3.39804">
        <ele>331</ele>
        <time>2015-11-14T13:08:30Z</time>
      </trkpt>
      <trkpt lat="43.58974" lon="3.39805">
        <ele>331</ele>
        <time>2015-11-14T13:08:31Z</time>
      </trkpt>
      <trkpt lat="43.58977" lon="3.39807">
        <ele>331</ele>
        <time>2015-11-14T13:08:32Z</time>
      </trkpt>
      <trkpt lat="43.5898" lon="3.39809">
        <ele>330.5</ele>
        <time>2015-11-14T13:08:33Z</time>
      </trkpt>
      <trkpt lat="43.58983" lon="3.39812">
        <ele>331</ele>
        <time>2015-11-14T13:08:34Z</time>
      </trkpt>
      <trkpt lat="43.58985" lon="3.39816">
        <ele>331</ele>
        <time>2015-11-14T13:08:35Z</time>
      </trkpt>
      <trkpt lat="43.58988" lon="3.3982">
        <ele>331</ele>
        <time>2015-11-14T13:08:36Z</time>
      </trkpt>
      <trkpt lat="43.5899" lon="3.39824">
        <ele>331.5</ele>
        <time>2015-11-14T13:08:37Z</time>
      </trkpt>
      <trkpt lat="43.58991" lon="3.39829">
        <ele>331</ele>
        <time>2015-11-14T13:08:38Z</time>
      </trkpt>
      <trkpt lat="43.58994" lon="3.39833">
        <ele>331</ele>
        <time>2015-11-14T13:08:39Z</time>
      </trkpt>
      <trkpt lat="43.58997" lon="3.39837">
        <ele>331.5</ele>
        <time>2015-11-14T13:08:40Z</time>
      </trkpt>
      <trkpt lat="43.59" lon="3.3984">
        <ele>331.5</ele>
        <time>2015-11-14T13:08:41Z</time>
      </trkpt>
      <trkpt lat="43.59003" lon="3.39843">
        <ele>331.5</ele>
        <time>2015-11-14T13:08:42Z</time>
      </trkpt>
      <trkpt lat="43.59007" lon="3.39844">
        <ele>331</ele>
        <time>2015-11-14T13:08:43Z</time>
      </trkpt>
      <trkpt lat="43.59011" lon="3.39844">
        <ele>331</ele>
        <time>2015-11-14T13:08:44Z</time>
      </trkpt>
      <trkpt lat="43.59014" lon="3.39842">
        <ele>331.5</ele>
        <time>2015-11-14T13:08:45Z</time>
      </trkpt>
      <trkpt lat="43.59018" lon="3.39841">
        <ele>331.5</ele>
        <time>2015-11-14T13:08:46Z</time>
      </trkpt>
      <trkpt lat="43.59021" lon="3.39839">
        <ele>331.5</ele>
        <time>2015-11-14T13:08:47Z</time>
      </trkpt>
      <trkpt lat="43.59024" lon="3.39838">
        <ele>331.5</ele>
        <time>2015-11-14T13:08:48Z</time>
      </trkpt>
      <trkpt lat="43.59027" lon="3.39836">
        <ele>332</ele>
        <time>2015-11-14T13:08:49Z</time>
      </trkpt>
      <trkpt lat="43.59031" lon="3.39835">
        <ele>332</ele>
        <time>2015-11-14T13:08:50Z</time>
      </trkpt>
      <trkpt lat="43.59034" lon="3.39834">
        <ele>332</ele>
        <time>2015-11-14T13:08:51Z</time>
      </trkpt>
      <trkpt lat="43.59038" lon="3.39834">
        <ele>332</ele>
        <time>2015-11-14T13:08:52Z</time>
      </trkpt>
      <trkpt lat="43.59041" lon="3.39833">
        <ele>332</ele>
        <time>2015-11-14T13:08:53Z</time>
      </trkpt>
      <trkpt lat="43.59045" lon="3.39833">
        <ele>332.5</ele>
        <time>2015-11-14T13:08:54Z</time>
      </trkpt>
      <trkpt lat="43.59048" lon="3.39833">
        <ele>332.5</ele>
        <time>2015-11-14T13:08:55Z</time>
      </trkpt>
      <trkpt lat="43.59052" lon="3.39833">
        <ele>333</ele>
        <time>2015-11-14T13:08:56Z</time>
      </trkpt>
      <trkpt lat="43.59055" lon="3.39834">
        <ele>333</ele>
        <time>2015-11-14T13:08:57Z</time>
      </trkpt>
      <trkpt lat="43.59058" lon="3.39834">
        <ele>333</ele>
        <time>2015-11-14T13:08:58Z</time>
      </trkpt>
      <trkpt lat="43.59062" lon="3.39835">
        <ele>333</ele>
        <time>2015-11-14T13:08:59Z</time>
      </trkpt>
      <trkpt lat="43.59066" lon="3.39836">
        <ele>333.5</ele>
        <time>2015-11-14T13:09:00Z</time>
      </trkpt>
      <trkpt lat="43.59069" lon="3.39837">
        <ele>333.5</ele>
        <time>2015-11-14T13:09:01Z</time>
      </trkpt>
      <trkpt lat="43.59073" lon="3.39837">
        <ele>333.5</ele>
        <time>2015-11-14T13:09:02Z</time>
      </trkpt>
      <trkpt lat="43.59076" lon="3.39837">
        <ele>334</ele>
        <time>2015-11-14T13:09:03Z</time>
      </trkpt>
      <trkpt lat="43.5908" lon="3.39836">
        <ele>334</ele>
        <time>2015-11-14T13:09:04Z</time>
      </trkpt>
      <trkpt lat="43.59083" lon="3.39834">
        <ele>334.5</ele>
        <time>2015-11-14T13:09:05Z</time>
      </trkpt>
      <trkpt lat="43.59085" lon="3.39831">
        <ele>334.5</ele>
        <time>2015-11-14T13:09:06Z</time>
      </trkpt>
      <trkpt lat="43.59088" lon="3.3983">
        <ele>335</ele>
        <time>2015-11-14T13:09:07Z</time>
      </trkpt>
      <trkpt lat="43.5909" lon="3.39828">
        <ele>335.5</ele>
        <time>2015-11-14T13:09:08Z</time>
      </trkpt>
      <trkpt lat="43.59093" lon="3.39825">
        <ele>335.5</ele>
        <time>2015-11-14T13:09:09Z</time>
      </trkpt>
      <trkpt lat="43.59094" lon="3.39823">
        <ele>336</ele>
        <time>2015-11-14T13:09:10Z</time>
      </trkpt>
      <trkpt lat="43.59096" lon="3.3982">
        <ele>336.5</ele>
        <time>2015-11-14T13:09:11Z</time>
      </trkpt>
      <trkpt lat="43.59098" lon="3.39817">
        <ele>336.5</ele>
        <time>2015-11-14T13:09:12Z</time>
      </trkpt>
      <trkpt lat="43.591" lon="3.39815">
        <ele>336.5</ele>
        <time>2015-11-14T13:09:13Z</time>
      </trkpt>
      <trkpt lat="43.59102" lon="3.39812">
        <ele>336.5</ele>
        <time>2015-11-14T13:09:14Z</time>
      </trkpt>
      <trkpt lat="43.59103" lon="3.3981">
        <ele>337</ele>
        <time>2015-11-14T13:09:15Z</time>
      </trkpt>
      <trkpt lat="43.59105" lon="3.39807">
        <ele>337</ele>
        <time>2015-11-14T13:09:16Z</time>
      </trkpt>
      <trkpt lat="43.59107" lon="3.39804">
        <ele>337</ele>
        <time>2015-11-14T13:09:17Z</time>
      </trkpt>
      <trkpt lat="43.59108" lon="3.39802">
        <ele>337</ele>
        <time>2015-11-14T13:09:18Z</time>
      </trkpt>
      <trkpt lat="43.5911" lon="3.39799">
        <ele>337.5</ele>
        <time>2015-11-14T13:09:19Z</time>
      </trkpt>
      <trkpt lat="43.59111" lon="3.39796">
        <ele>337.5</ele>
        <time>2015-11-14T13:09:20Z</time>
      </trkpt>
      <trkpt lat="43.59113" lon="3.39794">
        <ele>338</ele>
        <time>2015-11-14T13:09:21Z</time>
      </trkpt>
      <trkpt lat="43.59115" lon="3.39791">
        <ele>338</ele>
        <time>2015-11-14T13:09:22Z</time>
      </trkpt>
      <trkpt lat="43.59116" lon="3.39789">
        <ele>338</ele>
        <time>2015-11-14T13:09:23Z</time>
      </trkpt>
      <trkpt lat="43.59118" lon="3.39786">
        <ele>338</ele>
        <time>2015-11-14T13:09:24Z</time>
      </trkpt>
      <trkpt lat="43.59119" lon="3.39784">
        <ele>338.5</ele>
        <time>2015-11-14T13:09:25Z</time>
      </trkpt>
      <trkpt lat="43.59121" lon="3.39781">
        <ele>338.5</ele>
        <time>2015-11-14T13:09:26Z</time>
      </trkpt>
      <trkpt lat="43.59123" lon="3.39778">
        <ele>338.5</ele>
        <time>2015-11-14T13:09:27Z</time>
      </trkpt>
      <trkpt lat="43.59124" lon="3.39776">
        <ele>338.5</ele>
        <time>2015-11-14T13:09:28Z</time>
      </trkpt>
      <trkpt lat="43.59126" lon="3.39773">
        <ele>338.5</ele>
        <time>2015-11-14T13:09:29Z</time>
      </trkpt>
      <trkpt lat="43.59128" lon="3.39771">
        <ele>338.5</ele>
        <time>2015-11-14T13:09:30Z</time>
      </trkpt>
      <trkpt lat="43.59129" lon="3.39768">
        <ele>339</ele>
        <time>2015-11-14T13:09:31Z</time>
      </trkpt>
      <trkpt lat="43.59131" lon="3.39765">
        <ele>339</ele>
        <time>2015-11-14T13:09:32Z</time>
      </trkpt>
      <trkpt lat="43.59132" lon="3.39762">
        <ele>339.5</ele>
        <time>2015-11-14T13:09:33Z</time>
      </trkpt>
      <trkpt lat="43.59134" lon="3.39759">
        <ele>339.5</ele>
        <time>2015-11-14T13:09:34Z</time>
      </trkpt>
      <trkpt lat="43.59135" lon="3.39756">
        <ele>339.5</ele>
        <time>2015-11-14T13:09:35Z</time>
      </trkpt>
      <trkpt lat="43.59137" lon="3.39754">
        <ele>339.5</ele>
        <time>2015-11-14T13:09:36Z</time>
      </trkpt>
      <trkpt lat="43.59138" lon="3.39751">
        <ele>340</ele>
        <time>2015-11-14T13:09:37Z</time>
      </trkpt>
      <trkpt lat="43.59138" lon="3.39748">
        <ele>340</ele>
        <time>2015-11-14T13:09:38Z</time>
      </trkpt>
      <trkpt lat="43.59139" lon="3.39746">
        <ele>340</ele>
        <time>2015-11-14T13:09:39Z</time>
      </trkpt>
      <trkpt lat="43.59139" lon="3.39743">
        <ele>340</ele>
        <time>2015-11-14T13:09:40Z</time>
      </trkpt>
      <trkpt lat="43.59139" lon="3.39742">
        <ele>340.5</ele>
        <time>2015-11-14T13:09:41Z</time>
      </trkpt>
      <trkpt lat="43.5914" lon="3.39741">
        <ele>340.5</ele>
        <time>2015-11-14T13:09:42Z</time>
      </trkpt>
      <trkpt lat="43.5914" lon="3.3974">
        <ele>340.5</ele>
        <time>2015-11-14T13:09:43Z</time>
      </trkpt>
      <trkpt lat="43.59141" lon="3.3974">
        <ele>340.5</ele>
        <time>2015-11-14T13:09:44Z</time>
      </trkpt>
      <trkpt lat="43.59141" lon="3.39739">
        <ele>341</ele>
        <time>2015-11-14T13:09:45Z</time>
      </trkpt>
      <trkpt lat="43.59142" lon="3.39738">
        <ele>340.5</ele>
        <time>2015-11-14T13:09:46Z</time>
      </trkpt>
      <trkpt lat="43.59142" lon="3.39738">
        <ele>341</ele>
        <time>2015-11-14T13:09:47Z</time>
      </trkpt>
      <trkpt lat="43.59142" lon="3.39737">
        <ele>341</ele>
        <time>2015-11-14T13:09:48Z</time>
      </trkpt>
      <trkpt lat="43.59143" lon="3.39736">
        <ele>341</ele>
        <time>2015-11-14T13:09:49Z</time>
      </trkpt>
      <trkpt lat="43.59142" lon="3.39735">
        <ele>341</ele>
        <time>2015-11-14T13:09:50Z</time>
      </trkpt>
      <trkpt lat="43.59142" lon="3.39733">
        <ele>341</ele>
        <time>2015-11-14T13:09:51Z</time>
      </trkpt>
      <trkpt lat="43.59141" lon="3.39731">
        <ele>341</ele>
        <time>2015-11-14T13:09:52Z</time>
      </trkpt>
      <trkpt lat="43.59141" lon="3.39729">
        <ele>341</ele>
        <time>2015-11-14T13:09:53Z</time>
      </trkpt>
      <trkpt lat="43.5914" lon="3.39726">
        <ele>340.5</ele>
        <time>2015-11-14T13:09:54Z</time>
      </trkpt>
      <trkpt lat="43.5914" lon="3.39722">
        <ele>340.5</ele>
        <time>2015-11-14T13:09:55Z</time>
      </trkpt>
      <trkpt lat="43.5914" lon="3.39719">
        <ele>340.5</ele>
        <time>2015-11-14T13:09:56Z</time>
      </trkpt>
      <trkpt lat="43.5914" lon="3.39715">
        <ele>340.5</ele>
        <time>2015-11-14T13:09:57Z</time>
      </trkpt>
      <trkpt lat="43.5914" lon="3.39711">
        <ele>340.5</ele>
        <time>2015-11-14T13:09:58Z</time>
      </trkpt>
      <trkpt lat="43.5914" lon="3.39707">
        <ele>340.5</ele>
        <time>2015-11-14T13:09:59Z</time>
      </trkpt>
      <trkpt lat="43.5914" lon="3.39704">
        <ele>340.5</ele>
        <time>2015-11-14T13:10:00Z</time>
      </trkpt>
      <trkpt lat="43.5914" lon="3.397">
        <ele>340.5</ele>
        <time>2015-11-14T13:10:01Z</time>
      </trkpt>
      <trkpt lat="43.59141" lon="3.39696">
        <ele>341</ele>
        <time>2015-11-14T13:10:02Z</time>
      </trkpt>
      <trkpt lat="43.59141" lon="3.39692">
        <ele>341</ele>
        <time>2015-11-14T13:10:03Z</time>
      </trkpt>
      <trkpt lat="43.59141" lon="3.39688">
        <ele>341.5</ele>
        <time>2015-11-14T13:10:04Z</time>
      </trkpt>
      <trkpt lat="43.59142" lon="3.39684">
        <ele>341</ele>
        <time>2015-11-14T13:10:05Z</time>
      </trkpt>
      <trkpt lat="43.59142" lon="3.3968">
        <ele>341.5</ele>
        <time>2015-11-14T13:10:06Z</time>
      </trkpt>
      <trkpt lat="43.59143" lon="3.39676">
        <ele>341.5</ele>
        <time>2015-11-14T13:10:07Z</time>
      </trkpt>
      <trkpt lat="43.59143" lon="3.39672">
        <ele>341.5</ele>
        <time>2015-11-14T13:10:08Z</time>
      </trkpt>
      <trkpt lat="43.59144" lon="3.39668">
        <ele>341.5</ele>
        <time>2015-11-14T13:10:09Z</time>
      </trkpt>
      <trkpt lat="43.59144" lon="3.39664">
        <ele>341</ele>
        <time>2015-11-14T13:10:10Z</time>
      </trkpt>
      <trkpt lat="43.59144" lon="3.3966">
        <ele>341</ele>
        <time>2015-11-14T13:10:11Z</time>
      </trkpt>
      <trkpt lat="43.59145" lon="3.39656">
        <ele>340.5</ele>
        <time>2015-11-14T13:10:12Z</time>
      </trkpt>
      <trkpt lat="43.59145" lon="3.39652">
        <ele>340.5</ele>
        <time>2015-11-14T13:10:13Z</time>
      </trkpt>
      <trkpt lat="43.59145" lon="3.39648">
        <ele>340.5</ele>
        <time>2015-11-14T13:10:14Z</time>
      </trkpt>
      <trkpt lat="43.59146" lon="3.39643">
        <ele>340</ele>
        <time>2015-11-14T13:10:15Z</time>
      </trkpt>
      <trkpt lat="43.59146" lon="3.39639">
        <ele>340</ele>
        <time>2015-11-14T13:10:16Z</time>
      </trkpt>
      <trkpt lat="43.59146" lon="3.39634">
        <ele>339.5</ele>
        <time>2015-11-14T13:10:17Z</time>
      </trkpt>
      <trkpt lat="43.59146" lon="3.39629">
        <ele>339.5</ele>
        <time>2015-11-14T13:10:18Z</time>
      </trkpt>
      <trkpt lat="43.59146" lon="3.39624">
        <ele>339.5</ele>
        <time>2015-11-14T13:10:19Z</time>
      </trkpt>
      <trkpt lat="43.59146" lon="3.39619">
        <ele>339</ele>
        <time>2015-11-14T13:10:20Z</time>
      </trkpt>
      <trkpt lat="43.59146" lon="3.39613">
        <ele>339</ele>
        <time>2015-11-14T13:10:21Z</time>
      </trkpt>
      <trkpt lat="43.59146" lon="3.39608">
        <ele>338.5</ele>
        <time>2015-11-14T13:10:22Z</time>
      </trkpt>
      <trkpt lat="43.59145" lon="3.39603">
        <ele>338.5</ele>
        <time>2015-11-14T13:10:23Z</time>
      </trkpt>
      <trkpt lat="43.59145" lon="3.39598">
        <ele>338.5</ele>
        <time>2015-11-14T13:10:24Z</time>
      </trkpt>
      <trkpt lat="43.59144" lon="3.39593">
        <ele>338</ele>
        <time>2015-11-14T13:10:25Z</time>
      </trkpt>
      <trkpt lat="43.59144" lon="3.39587">
        <ele>337.5</ele>
        <time>2015-11-14T13:10:26Z</time>
      </trkpt>
      <trkpt lat="43.59143" lon="3.39581">
        <ele>337</ele>
        <time>2015-11-14T13:10:27Z</time>
      </trkpt>
      <trkpt lat="43.59143" lon="3.39575">
        <ele>337</ele>
        <time>2015-11-14T13:10:27Z</time>
      </trkpt>
      <trkpt lat="43.59142" lon="3.39569">
        <ele>337</ele>
        <time>2015-11-14T13:10:28Z</time>
      </trkpt>
      <trkpt lat="43.59141" lon="3.39563">
        <ele>336.5</ele>
        <time>2015-11-14T13:10:29Z</time>
      </trkpt>
      <trkpt lat="43.5914" lon="3.39556">
        <ele>336.5</ele>
        <time>2015-11-14T13:10:30Z</time>
      </trkpt>
      <trkpt lat="43.59139" lon="3.3955">
        <ele>336</ele>
        <time>2015-11-14T13:10:31Z</time>
      </trkpt>
      <trkpt lat="43.59138" lon="3.39542">
        <ele>335.5</ele>
        <time>2015-11-14T13:10:33Z</time>
      </trkpt>
      <trkpt lat="43.59137" lon="3.39535">
        <ele>335</ele>
        <time>2015-11-14T13:10:34Z</time>
      </trkpt>
      <trkpt lat="43.59135" lon="3.39528">
        <ele>334.5</ele>
        <time>2015-11-14T13:10:34Z</time>
      </trkpt>
      <trkpt lat="43.59133" lon="3.3952">
        <ele>333.5</ele>
        <time>2015-11-14T13:10:35Z</time>
      </trkpt>
      <trkpt lat="43.5913" lon="3.39511">
        <ele>333</ele>
        <time>2015-11-14T13:10:36Z</time>
      </trkpt>
      <trkpt lat="43.59128" lon="3.39503">
        <ele>333</ele>
        <time>2015-11-14T13:10:37Z</time>
      </trkpt>
      <trkpt lat="43.59126" lon="3.39494">
        <ele>332.5</ele>
        <time>2015-11-14T13:10:38Z</time>
      </trkpt>
      <trkpt lat="43.59124" lon="3.39486">
        <ele>332.5</ele>
        <time>2015-11-14T13:10:39Z</time>
      </trkpt>
      <trkpt lat="43.59122" lon="3.39478">
        <ele>332.5</ele>
        <time>2015-11-14T13:10:40Z</time>
      </trkpt>
      <trkpt lat="43.5912" lon="3.3947">
        <ele>332.5</ele>
        <time>2015-11-14T13:10:41Z</time>
      </trkpt>
      <trkpt lat="43.59119" lon="3.39462">
        <ele>332.5</ele>
        <time>2015-11-14T13:10:43Z</time>
      </trkpt>
      <trkpt lat="43.59117" lon="3.39446">
        <ele>332</ele>
        <time>2015-11-14T13:10:44Z</time>
      </trkpt>
      <trkpt lat="43.59117" lon="3.39438">
        <ele>331.5</ele>
        <time>2015-11-14T13:10:45Z</time>
      </trkpt>
      <trkpt lat="43.59117" lon="3.3943">
        <ele>331.5</ele>
        <time>2015-11-14T13:10:46Z</time>
      </trkpt>
      <trkpt lat="43.59118" lon="3.39421">
        <ele>331</ele>
        <time>2015-11-14T13:10:47Z</time>
      </trkpt>
      <trkpt lat="43.59118" lon="3.39414">
        <ele>331</ele>
        <time>2015-11-14T13:10:48Z</time>
      </trkpt>
      <trkpt lat="43.59118" lon="3.39406">
        <ele>331</ele>
        <time>2015-11-14T13:10:49Z</time>
      </trkpt>
      <trkpt lat="43.59118" lon="3.39399">
        <ele>330.5</ele>
        <time>2015-11-14T13:10:50Z</time>
      </trkpt>
      <trkpt lat="43.59118" lon="3.39393">
        <ele>331</ele>
        <time>2015-11-14T13:10:51Z</time>
      </trkpt>
      <trkpt lat="43.5912" lon="3.39389">
        <ele>330.5</ele>
        <time>2015-11-14T13:10:52Z</time>
      </trkpt>
      <trkpt lat="43.59121" lon="3.39385">
        <ele>330.5</ele>
        <time>2015-11-14T13:10:53Z</time>
      </trkpt>
      <trkpt lat="43.59123" lon="3.39383">
        <ele>330.5</ele>
        <time>2015-11-14T13:10:54Z</time>
      </trkpt>
      <trkpt lat="43.59125" lon="3.39381">
        <ele>330.5</ele>
        <time>2015-11-14T13:10:55Z</time>
      </trkpt>
      <trkpt lat="43.59128" lon="3.3938">
        <ele>330</ele>
        <time>2015-11-14T13:10:56Z</time>
      </trkpt>
      <trkpt lat="43.5913" lon="3.39379">
        <ele>330</ele>
        <time>2015-11-14T13:10:57Z</time>
      </trkpt>
      <trkpt lat="43.59132" lon="3.39379">
        <ele>329.5</ele>
        <time>2015-11-14T13:10:58Z</time>
      </trkpt>
      <trkpt lat="43.59134" lon="3.39378">
        <ele>329</ele>
        <time>2015-11-14T13:10:59Z</time>
      </trkpt>
      <trkpt lat="43.59143" lon="3.3938">
        <ele>327</ele>
        <time>2015-11-14T13:11:01Z</time>
      </trkpt>
      <trkpt lat="43.59149" lon="3.39379">
        <ele>326</ele>
        <time>2015-11-14T13:11:02Z</time>
      </trkpt>
      <trkpt lat="43.59154" lon="3.39379">
        <ele>325</ele>
        <time>2015-11-14T13:11:03Z</time>
      </trkpt>
      <trkpt lat="43.5916" lon="3.39379">
        <ele>324</ele>
        <time>2015-11-14T13:11:04Z</time>
      </trkpt>
      <trkpt lat="43.59167" lon="3.39379">
        <ele>322.5</ele>
        <time>2015-11-14T13:11:05Z</time>
      </trkpt>
      <trkpt lat="43.59174" lon="3.3938">
        <ele>320.5</ele>
        <time>2015-11-14T13:11:06Z</time>
      </trkpt>
      <trkpt lat="43.59179" lon="3.39381">
        <ele>319.5</ele>
        <time>2015-11-14T13:11:07Z</time>
      </trkpt>
      <trkpt lat="43.59184" lon="3.39381">
        <ele>319</ele>
        <time>2015-11-14T13:11:08Z</time>
      </trkpt>
      <trkpt lat="43.59188" lon="3.39381">
        <ele>318.5</ele>
        <time>2015-11-14T13:11:09Z</time>
      </trkpt>
      <trkpt lat="43.59193" lon="3.39382">
        <ele>318</ele>
        <time>2015-11-14T13:11:10Z</time>
      </trkpt>
      <trkpt lat="43.59196" lon="3.39383">
        <ele>317</ele>
        <time>2015-11-14T13:11:11Z</time>
      </trkpt>
      <trkpt lat="43.59199" lon="3.39383">
        <ele>316.5</ele>
        <time>2015-11-14T13:11:12Z</time>
      </trkpt>
      <trkpt lat="43.59202" lon="3.39384">
        <ele>316</ele>
        <time>2015-11-14T13:11:13Z</time>
      </trkpt>
      <trkpt lat="43.59203" lon="3.39386">
        <ele>315.5</ele>
        <time>2015-11-14T13:11:15Z</time>
      </trkpt>
      <trkpt lat="43.59205" lon="3.39388">
        <ele>314.5</ele>
        <time>2015-11-14T13:11:16Z</time>
      </trkpt>
      <trkpt lat="43.59207" lon="3.39391">
        <ele>313.5</ele>
        <time>2015-11-14T13:11:16Z</time>
      </trkpt>
      <trkpt lat="43.59209" lon="3.39394">
        <ele>312.5</ele>
        <time>2015-11-14T13:11:17Z</time>
      </trkpt>
      <trkpt lat="43.59211" lon="3.39397">
        <ele>312</ele>
        <time>2015-11-14T13:11:18Z</time>
      </trkpt>
      <trkpt lat="43.59213" lon="3.394">
        <ele>311.5</ele>
        <time>2015-11-14T13:11:19Z</time>
      </trkpt>
      <trkpt lat="43.59215" lon="3.39403">
        <ele>310.5</ele>
        <time>2015-11-14T13:11:20Z</time>
      </trkpt>
      <trkpt lat="43.59217" lon="3.39405">
        <ele>309.5</ele>
        <time>2015-11-14T13:11:21Z</time>
      </trkpt>
      <trkpt lat="43.59219" lon="3.39408">
        <ele>309.5</ele>
        <time>2015-11-14T13:11:22Z</time>
      </trkpt>
      <trkpt lat="43.59221" lon="3.39411">
        <ele>309</ele>
        <time>2015-11-14T13:11:23Z</time>
      </trkpt>
      <trkpt lat="43.59222" lon="3.39417">
        <ele>307</ele>
        <time>2015-11-14T13:11:25Z</time>
      </trkpt>
      <trkpt lat="43.59223" lon="3.39422">
        <ele>305.5</ele>
        <time>2015-11-14T13:11:25Z</time>
      </trkpt>
      <trkpt lat="43.59224" lon="3.39428">
        <ele>305</ele>
        <time>2015-11-14T13:11:26Z</time>
      </trkpt>
      <trkpt lat="43.59225" lon="3.39433">
        <ele>304</ele>
        <time>2015-11-14T13:11:27Z</time>
      </trkpt>
      <trkpt lat="43.59226" lon="3.39435">
        <ele>305</ele>
        <time>2015-11-14T13:11:28Z</time>
      </trkpt>
      <trkpt lat="43.59227" lon="3.39436">
        <ele>304</ele>
        <time>2015-11-14T13:11:29Z</time>
      </trkpt>
      <trkpt lat="43.59227" lon="3.39437">
        <ele>304</ele>
        <time>2015-11-14T13:11:30Z</time>
      </trkpt>
      <trkpt lat="43.59228" lon="3.39437">
        <ele>303</ele>
        <time>2015-11-14T13:11:15Z</time>
      </trkpt>
      <trkpt lat="43.59226" lon="3.39437">
        <ele>303.5</ele>
        <time>2015-11-14T13:11:17Z</time>
      </trkpt>
      <trkpt lat="43.59226" lon="3.39437">
        <ele>304</ele>
        <time>2015-11-14T13:11:18Z</time>
      </trkpt>
      <trkpt lat="43.59226" lon="3.39437">
        <ele>304.5</ele>
        <time>2015-11-14T13:11:19Z</time>
      </trkpt>
      <trkpt lat="43.59227" lon="3.39436">
        <ele>304.5</ele>
        <time>2015-11-14T13:11:31Z</time>
      </trkpt>
      <trkpt lat="43.59227" lon="3.39436">
        <ele>304.5</ele>
        <time>2015-11-14T13:11:33Z</time>
      </trkpt>
      <trkpt lat="43.59229" lon="3.39435">
        <ele>305</ele>
        <time>2015-11-14T13:11:10Z</time>
      </trkpt>
      <trkpt lat="43.59231" lon="3.39439">
        <ele>304.5</ele>
        <time>2015-11-14T13:11:12Z</time>
      </trkpt>
      <trkpt lat="43.59232" lon="3.39441">
        <ele>304</ele>
        <time>2015-11-14T13:11:13Z</time>
      </trkpt>
      <trkpt lat="43.59234" lon="3.39444">
        <ele>303.5</ele>
        <time>2015-11-14T13:11:14Z</time>
      </trkpt>
      <trkpt lat="43.59236" lon="3.39447">
        <ele>303.5</ele>
        <time>2015-11-14T13:11:15Z</time>
      </trkpt>
      <trkpt lat="43.59239" lon="3.3945">
        <ele>303</ele>
        <time>2015-11-14T13:11:16Z</time>
      </trkpt>
      <trkpt lat="43.59242" lon="3.39453">
        <ele>302.5</ele>
        <time>2015-11-14T13:11:17Z</time>
      </trkpt>
      <trkpt lat="43.59245" lon="3.39456">
        <ele>302.5</ele>
        <time>2015-11-14T13:11:18Z</time>
      </trkpt>
      <trkpt lat="43.59247" lon="3.39457">
        <ele>302.5</ele>
        <time>2015-11-14T13:11:19Z</time>
      </trkpt>
      <trkpt lat="43.59249" lon="3.39456">
        <ele>302.5</ele>
        <time>2015-11-14T13:11:20Z</time>
      </trkpt>
      <trkpt lat="43.59251" lon="3.39454">
        <ele>302</ele>
        <time>2015-11-14T13:11:21Z</time>
      </trkpt>
      <trkpt lat="43.59252" lon="3.39451">
        <ele>300.5</ele>
        <time>2015-11-14T13:11:22Z</time>
      </trkpt>
      <trkpt lat="43.59252" lon="3.39447">
        <ele>299</ele>
        <time>2015-11-14T13:11:23Z</time>
      </trkpt>
      <trkpt lat="43.59253" lon="3.39443">
        <ele>299.5</ele>
        <time>2015-11-14T13:11:24Z</time>
      </trkpt>
      <trkpt lat="43.59254" lon="3.3944">
        <ele>299.5</ele>
        <time>2015-11-14T13:11:25Z</time>
      </trkpt>
      <trkpt lat="43.59255" lon="3.39437">
        <ele>300</ele>
        <time>2015-11-14T13:11:26Z</time>
      </trkpt>
      <trkpt lat="43.59256" lon="3.39434">
        <ele>301</ele>
        <time>2015-11-14T13:11:27Z</time>
      </trkpt>
      <trkpt lat="43.59257" lon="3.39432">
        <ele>301.5</ele>
        <time>2015-11-14T13:11:28Z</time>
      </trkpt>
      <trkpt lat="43.59259" lon="3.3943">
        <ele>301.5</ele>
        <time>2015-11-14T13:11:29Z</time>
      </trkpt>
      <trkpt lat="43.5926" lon="3.39429">
        <ele>301</ele>
        <time>2015-11-14T13:11:30Z</time>
      </trkpt>
      <trkpt lat="43.59263" lon="3.39427">
        <ele>300</ele>
        <time>2015-11-14T13:11:31Z</time>
      </trkpt>
      <trkpt lat="43.59264" lon="3.39424">
        <ele>299.5</ele>
        <time>2015-11-14T13:11:32Z</time>
      </trkpt>
      <trkpt lat="43.59266" lon="3.39421">
        <ele>300.5</ele>
        <time>2015-11-14T13:11:33Z</time>
      </trkpt>
      <trkpt lat="43.59267" lon="3.39419">
        <ele>300.5</ele>
        <time>2015-11-14T13:11:34Z</time>
      </trkpt>
      <trkpt lat="43.59269" lon="3.39417">
        <ele>299.5</ele>
        <time>2015-11-14T13:11:35Z</time>
      </trkpt>
      <trkpt lat="43.5927" lon="3.39415">
        <ele>299</ele>
        <time>2015-11-14T13:11:36Z</time>
      </trkpt>
      <trkpt lat="43.59271" lon="3.39413">
        <ele>298.5</ele>
        <time>2015-11-14T13:11:37Z</time>
      </trkpt>
      <trkpt lat="43.59273" lon="3.39411">
        <ele>298</ele>
        <time>2015-11-14T13:11:38Z</time>
      </trkpt>
      <trkpt lat="43.59274" lon="3.39408">
        <ele>297</ele>
        <time>2015-11-14T13:11:39Z</time>
      </trkpt>
      <trkpt lat="43.59275" lon="3.39406">
        <ele>297.5</ele>
        <time>2015-11-14T13:11:40Z</time>
      </trkpt>
      <trkpt lat="43.59277" lon="3.39404">
        <ele>297</ele>
        <time>2015-11-14T13:11:41Z</time>
      </trkpt>
      <trkpt lat="43.59278" lon="3.39401">
        <ele>296.5</ele>
        <time>2015-11-14T13:11:42Z</time>
      </trkpt>
      <trkpt lat="43.59279" lon="3.39399">
        <ele>296</ele>
        <time>2015-11-14T13:11:43Z</time>
      </trkpt>
      <trkpt lat="43.5928" lon="3.39396">
        <ele>296.5</ele>
        <time>2015-11-14T13:11:44Z</time>
      </trkpt>
      <trkpt lat="43.59281" lon="3.39394">
        <ele>296.5</ele>
        <time>2015-11-14T13:11:45Z</time>
      </trkpt>
      <trkpt lat="43.59282" lon="3.39393">
        <ele>297</ele>
        <time>2015-11-14T13:11:46Z</time>
      </trkpt>
      <trkpt lat="43.59283" lon="3.39393">
        <ele>296.5</ele>
        <time>2015-11-14T13:11:47Z</time>
      </trkpt>
      <trkpt lat="43.59285" lon="3.39392">
        <ele>297.5</ele>
        <time>2015-11-14T13:11:48Z</time>
      </trkpt>
      <trkpt lat="43.59286" lon="3.39391">
        <ele>297</ele>
        <time>2015-11-14T13:11:49Z</time>
      </trkpt>
      <trkpt lat="43.59286" lon="3.39391">
        <ele>296.5</ele>
        <time>2015-11-14T13:11:50Z</time>
      </trkpt>
      <trkpt lat="43.59287" lon="3.39391">
        <ele>297</ele>
        <time>2015-11-14T13:11:51Z</time>
      </trkpt>
      <trkpt lat="43.59288" lon="3.39391">
        <ele>296.5</ele>
        <time>2015-11-14T13:11:52Z</time>
      </trkpt>
      <trkpt lat="43.59289" lon="3.3939">
        <ele>296.5</ele>
        <time>2015-11-14T13:11:53Z</time>
      </trkpt>
      <trkpt lat="43.59291" lon="3.3939">
        <ele>297</ele>
        <time>2015-11-14T13:11:54Z</time>
      </trkpt>
      <trkpt lat="43.59293" lon="3.39389">
        <ele>297.5</ele>
        <time>2015-11-14T13:11:55Z</time>
      </trkpt>
      <trkpt lat="43.59295" lon="3.39389">
        <ele>298</ele>
        <time>2015-11-14T13:11:56Z</time>
      </trkpt>
      <trkpt lat="43.59297" lon="3.3939">
        <ele>298.5</ele>
        <time>2015-11-14T13:11:57Z</time>
      </trkpt>
      <trkpt lat="43.59299" lon="3.3939">
        <ele>299.5</ele>
        <time>2015-11-14T13:11:58Z</time>
      </trkpt>
      <trkpt lat="43.59301" lon="3.39391">
        <ele>299.5</ele>
        <time>2015-11-14T13:11:59Z</time>
      </trkpt>
      <trkpt lat="43.59303" lon="3.39392">
        <ele>300</ele>
        <time>2015-11-14T13:12:00Z</time>
      </trkpt>
      <trkpt lat="43.59305" lon="3.39392">
        <ele>300</ele>
        <time>2015-11-14T13:12:01Z</time>
      </trkpt>
      <trkpt lat="43.59308" lon="3.39393">
        <ele>300</ele>
        <time>2015-11-14T13:12:02Z</time>
      </trkpt>
      <trkpt lat="43.59311" lon="3.39395">
        <ele>300</ele>
        <time>2015-11-14T13:12:03Z</time>
      </trkpt>
      <trkpt lat="43.59314" lon="3.39397">
        <ele>299.5</ele>
        <time>2015-11-14T13:12:04Z</time>
      </trkpt>
      <trkpt lat="43.59317" lon="3.39399">
        <ele>299</ele>
        <time>2015-11-14T13:12:05Z</time>
      </trkpt>
      <trkpt lat="43.5932" lon="3.39401">
        <ele>299</ele>
        <time>2015-11-14T13:12:06Z</time>
      </trkpt>
      <trkpt lat="43.59323" lon="3.39404">
        <ele>298.5</ele>
        <time>2015-11-14T13:12:07Z</time>
      </trkpt>
      <trkpt lat="43.59326" lon="3.39406">
        <ele>297.5</ele>
        <time>2015-11-14T13:12:08Z</time>
      </trkpt>
      <trkpt lat="43.59329" lon="3.39408">
        <ele>297.5</ele>
        <time>2015-11-14T13:12:09Z</time>
      </trkpt>
      <trkpt lat="43.59333" lon="3.3941">
        <ele>297</ele>
        <time>2015-11-14T13:12:10Z</time>
      </trkpt>
      <trkpt lat="43.59336" lon="3.39413">
        <ele>296</ele>
        <time>2015-11-14T13:12:11Z</time>
      </trkpt>
      <trkpt lat="43.59339" lon="3.39415">
        <ele>296</ele>
        <time>2015-11-14T13:12:12Z</time>
      </trkpt>
      <trkpt lat="43.59341" lon="3.39416">
        <ele>296</ele>
        <time>2015-11-14T13:12:13Z</time>
      </trkpt>
      <trkpt lat="43.59344" lon="3.39418">
        <ele>295</ele>
        <time>2015-11-14T13:12:14Z</time>
      </trkpt>
      <trkpt lat="43.59346" lon="3.39419">
        <ele>294.5</ele>
        <time>2015-11-14T13:12:15Z</time>
      </trkpt>
      <trkpt lat="43.59349" lon="3.39422">
        <ele>293.5</ele>
        <time>2015-11-14T13:12:16Z</time>
      </trkpt>
      <trkpt lat="43.5935" lon="3.39424">
        <ele>292.5</ele>
        <time>2015-11-14T13:12:17Z</time>
      </trkpt>
      <trkpt lat="43.59352" lon="3.39427">
        <ele>291.5</ele>
        <time>2015-11-14T13:12:18Z</time>
      </trkpt>
      <trkpt lat="43.59354" lon="3.39428">
        <ele>291.5</ele>
        <time>2015-11-14T13:12:19Z</time>
      </trkpt>
      <trkpt lat="43.59356" lon="3.39429">
        <ele>291</ele>
        <time>2015-11-14T13:12:20Z</time>
      </trkpt>
      <trkpt lat="43.59358" lon="3.39429">
        <ele>291</ele>
        <time>2015-11-14T13:12:21Z</time>
      </trkpt>
      <trkpt lat="43.5936" lon="3.39429">
        <ele>291.5</ele>
        <time>2015-11-14T13:12:22Z</time>
      </trkpt>
      <trkpt lat="43.59362" lon="3.3943">
        <ele>292</ele>
        <time>2015-11-14T13:12:23Z</time>
      </trkpt>
      <trkpt lat="43.59365" lon="3.3943">
        <ele>292</ele>
        <time>2015-11-14T13:12:24Z</time>
      </trkpt>
      <trkpt lat="43.59367" lon="3.39431">
        <ele>292.5</ele>
        <time>2015-11-14T13:12:25Z</time>
      </trkpt>
      <trkpt lat="43.5937" lon="3.39431">
        <ele>292.5</ele>
        <time>2015-11-14T13:12:26Z</time>
      </trkpt>
      <trkpt lat="43.59372" lon="3.39432">
        <ele>293.5</ele>
        <time>2015-11-14T13:12:27Z</time>
      </trkpt>
      <trkpt lat="43.59374" lon="3.39432">
        <ele>294</ele>
        <time>2015-11-14T13:12:28Z</time>
      </trkpt>
      <trkpt lat="43.59376" lon="3.39433">
        <ele>294</ele>
        <time>2015-11-14T13:12:29Z</time>
      </trkpt>
      <trkpt lat="43.59379" lon="3.39433">
        <ele>293.5</ele>
        <time>2015-11-14T13:12:30Z</time>
      </trkpt>
      <trkpt lat="43.59381" lon="3.39432">
        <ele>294</ele>
        <time>2015-11-14T13:12:31Z</time>
      </trkpt>
      <trkpt lat="43.59384" lon="3.39433">
        <ele>294</ele>
        <time>2015-11-14T13:12:32Z</time>
      </trkpt>
      <trkpt lat="43.59386" lon="3.39432">
        <ele>294.5</ele>
        <time>2015-11-14T13:12:33Z</time>
      </trkpt>
      <trkpt lat="43.59388" lon="3.39431">
        <ele>295</ele>
        <time>2015-11-14T13:12:34Z</time>
      </trkpt>
      <trkpt lat="43.5939" lon="3.39431">
        <ele>296</ele>
        <time>2015-11-14T13:12:35Z</time>
      </trkpt>
      <trkpt lat="43.59392" lon="3.39429">
        <ele>296</ele>
        <time>2015-11-14T13:12:36Z</time>
      </trkpt>
      <trkpt lat="43.59394" lon="3.39428">
        <ele>296.5</ele>
        <time>2015-11-14T13:12:37Z</time>
      </trkpt>
      <trkpt lat="43.59396" lon="3.39427">
        <ele>296.5</ele>
        <time>2015-11-14T13:12:38Z</time>
      </trkpt>
      <trkpt lat="43.59398" lon="3.39426">
        <ele>297</ele>
        <time>2015-11-14T13:12:39Z</time>
      </trkpt>
      <trkpt lat="43.594" lon="3.39425">
        <ele>297</ele>
        <time>2015-11-14T13:12:40Z</time>
      </trkpt>
      <trkpt lat="43.59402" lon="3.39424">
        <ele>297.5</ele>
        <time>2015-11-14T13:12:41Z</time>
      </trkpt>
      <trkpt lat="43.59404" lon="3.39423">
        <ele>297.5</ele>
        <time>2015-11-14T13:12:42Z</time>
      </trkpt>
      <trkpt lat="43.59407" lon="3.39422">
        <ele>298</ele>
        <time>2015-11-14T13:12:43Z</time>
      </trkpt>
      <trkpt lat="43.59409" lon="3.39422">
        <ele>297.5</ele>
        <time>2015-11-14T13:12:44Z</time>
      </trkpt>
      <trkpt lat="43.59411" lon="3.3942">
        <ele>298</ele>
        <time>2015-11-14T13:12:45Z</time>
      </trkpt>
      <trkpt lat="43.59413" lon="3.39419">
        <ele>298</ele>
        <time>2015-11-14T13:12:46Z</time>
      </trkpt>
      <trkpt lat="43.59416" lon="3.39419">
        <ele>298.5</ele>
        <time>2015-11-14T13:12:47Z</time>
      </trkpt>
      <trkpt lat="43.59418" lon="3.39418">
        <ele>298.5</ele>
        <time>2015-11-14T13:12:48Z</time>
      </trkpt>
      <trkpt lat="43.5942" lon="3.39416">
        <ele>299</ele>
        <time>2015-11-14T13:12:49Z</time>
      </trkpt>
      <trkpt lat="43.59421" lon="3.39416">
        <ele>299</ele>
        <time>2015-11-14T13:12:50Z</time>
      </trkpt>
      <trkpt lat="43.59423" lon="3.39416">
        <ele>299</ele>
        <time>2015-11-14T13:12:51Z</time>
      </trkpt>
      <trkpt lat="43.59424" lon="3.39416">
        <ele>299</ele>
        <time>2015-11-14T13:12:52Z</time>
      </trkpt>
      <trkpt lat="43.59425" lon="3.39416">
        <ele>299</ele>
        <time>2015-11-14T13:12:53Z</time>
      </trkpt>
      <trkpt lat="43.59426" lon="3.39416">
        <ele>299.5</ele>
        <time>2015-11-14T13:12:54Z</time>
      </trkpt>
      <trkpt lat="43.59428" lon="3.39415">
        <ele>299.5</ele>
        <time>2015-11-14T13:12:55Z</time>
      </trkpt>
      <trkpt lat="43.5943" lon="3.39415">
        <ele>299.5</ele>
        <time>2015-11-14T13:12:56Z</time>
      </trkpt>
      <trkpt lat="43.59432" lon="3.39414">
        <ele>299.5</ele>
        <time>2015-11-14T13:12:57Z</time>
      </trkpt>
      <trkpt lat="43.59434" lon="3.39412">
        <ele>300</ele>
        <time>2015-11-14T13:12:58Z</time>
      </trkpt>
      <trkpt lat="43.59436" lon="3.3941">
        <ele>299</ele>
        <time>2015-11-14T13:12:59Z</time>
      </trkpt>
      <trkpt lat="43.59437" lon="3.39408">
        <ele>299.5</ele>
        <time>2015-11-14T13:13:00Z</time>
      </trkpt>
      <trkpt lat="43.59439" lon="3.39406">
        <ele>300</ele>
        <time>2015-11-14T13:13:01Z</time>
      </trkpt>
      <trkpt lat="43.5944" lon="3.39405">
        <ele>300</ele>
        <time>2015-11-14T13:13:02Z</time>
      </trkpt>
      <trkpt lat="43.59442" lon="3.39404">
        <ele>300</ele>
        <time>2015-11-14T13:13:03Z</time>
      </trkpt>
      <trkpt lat="43.59444" lon="3.39403">
        <ele>300</ele>
        <time>2015-11-14T13:13:04Z</time>
      </trkpt>
      <trkpt lat="43.59445" lon="3.39403">
        <ele>300</ele>
        <time>2015-11-14T13:13:05Z</time>
      </trkpt>
      <trkpt lat="43.59448" lon="3.39402">
        <ele>299.5</ele>
        <time>2015-11-14T13:13:06Z</time>
      </trkpt>
      <trkpt lat="43.5945" lon="3.39402">
        <ele>299</ele>
        <time>2015-11-14T13:13:07Z</time>
      </trkpt>
      <trkpt lat="43.59452" lon="3.39401">
        <ele>298</ele>
        <time>2015-11-14T13:13:08Z</time>
      </trkpt>
      <trkpt lat="43.59454" lon="3.39401">
        <ele>298</ele>
        <time>2015-11-14T13:13:09Z</time>
      </trkpt>
      <trkpt lat="43.59457" lon="3.394">
        <ele>298.5</ele>
        <time>2015-11-14T13:13:10Z</time>
      </trkpt>
      <trkpt lat="43.59459" lon="3.394">
        <ele>299</ele>
        <time>2015-11-14T13:13:11Z</time>
      </trkpt>
      <trkpt lat="43.59461" lon="3.39399">
        <ele>299</ele>
        <time>2015-11-14T13:13:12Z</time>
      </trkpt>
      <trkpt lat="43.59464" lon="3.39398">
        <ele>299</ele>
        <time>2015-11-14T13:13:13Z</time>
      </trkpt>
      <trkpt lat="43.59465" lon="3.39397">
        <ele>299.5</ele>
        <time>2015-11-14T13:13:14Z</time>
      </trkpt>
      <trkpt lat="43.59467" lon="3.39397">
        <ele>300</ele>
        <time>2015-11-14T13:13:15Z</time>
      </trkpt>
      <trkpt lat="43.59467" lon="3.39397">
        <ele>299.5</ele>
        <time>2015-11-14T13:13:15Z</time>
      </trkpt>
      <trkpt lat="43.59468" lon="3.39397">
        <ele>299.5</ele>
        <time>2015-11-14T13:13:22Z</time>
      </trkpt>
      <trkpt lat="43.5947" lon="3.39396">
        <ele>298.5</ele>
        <time>2015-11-14T13:13:26Z</time>
      </trkpt>
      <trkpt lat="43.59471" lon="3.39396">
        <ele>298.5</ele>
        <time>2015-11-14T13:13:28Z</time>
      </trkpt>
      <trkpt lat="43.59475" lon="3.39396">
        <ele>299</ele>
        <time>2015-11-14T13:13:31Z</time>
      </trkpt>
      <trkpt lat="43.59477" lon="3.39396">
        <ele>298.5</ele>
        <time>2015-11-14T13:13:31Z</time>
      </trkpt>
      <trkpt lat="43.5948" lon="3.39395">
        <ele>297.5</ele>
        <time>2015-11-14T13:13:32Z</time>
      </trkpt>
      <trkpt lat="43.59482" lon="3.39394">
        <ele>298</ele>
        <time>2015-11-14T13:13:33Z</time>
      </trkpt>
      <trkpt lat="43.59483" lon="3.39393">
        <ele>298</ele>
        <time>2015-11-14T13:13:34Z</time>
      </trkpt>
      <trkpt lat="43.59485" lon="3.39393">
        <ele>298</ele>
        <time>2015-11-14T13:13:35Z</time>
      </trkpt>
      <trkpt lat="43.59487" lon="3.39393">
        <ele>297.5</ele>
        <time>2015-11-14T13:13:36Z</time>
      </trkpt>
      <trkpt lat="43.5949" lon="3.39393">
        <ele>296.5</ele>
        <time>2015-11-14T13:13:38Z</time>
      </trkpt>
      <trkpt lat="43.59492" lon="3.39391">
        <ele>296.5</ele>
        <time>2015-11-14T13:13:38Z</time>
      </trkpt>
      <trkpt lat="43.59495" lon="3.3939">
        <ele>296.5</ele>
        <time>2015-11-14T13:13:39Z</time>
      </trkpt>
      <trkpt lat="43.59498" lon="3.39388">
        <ele>297</ele>
        <time>2015-11-14T13:13:41Z</time>
      </trkpt>
      <trkpt lat="43.595" lon="3.39387">
        <ele>297</ele>
        <time>2015-11-14T13:13:41Z</time>
      </trkpt>
      <trkpt lat="43.59502" lon="3.39386">
        <ele>297.5</ele>
        <time>2015-11-14T13:13:42Z</time>
      </trkpt>
      <trkpt lat="43.59503" lon="3.39385">
        <ele>297.5</ele>
        <time>2015-11-14T13:13:43Z</time>
      </trkpt>
      <trkpt lat="43.59505" lon="3.39385">
        <ele>298</ele>
        <time>2015-11-14T13:13:44Z</time>
      </trkpt>
      <trkpt lat="43.59507" lon="3.39385">
        <ele>297.5</ele>
        <time>2015-11-14T13:13:45Z</time>
      </trkpt>
      <trkpt lat="43.59507" lon="3.39384">
        <ele>298</ele>
        <time>2015-11-14T13:13:46Z</time>
      </trkpt>
      <trkpt lat="43.59508" lon="3.39383">
        <ele>298</ele>
        <time>2015-11-14T13:13:47Z</time>
      </trkpt>
      <trkpt lat="43.59509" lon="3.39383">
        <ele>298.5</ele>
        <time>2015-11-14T13:13:48Z</time>
      </trkpt>
      <trkpt lat="43.5951" lon="3.39384">
        <ele>297.5</ele>
        <time>2015-11-14T13:13:50Z</time>
      </trkpt>
      <trkpt lat="43.59511" lon="3.39383">
        <ele>296.5</ele>
        <time>2015-11-14T13:13:50Z</time>
      </trkpt>
      <trkpt lat="43.59513" lon="3.39382">
        <ele>296.5</ele>
        <time>2015-11-14T13:13:51Z</time>
      </trkpt>
      <trkpt lat="43.59514" lon="3.39381">
        <ele>297</ele>
        <time>2015-11-14T13:13:52Z</time>
      </trkpt>
      <trkpt lat="43.59516" lon="3.39379">
        <ele>297.5</ele>
        <time>2015-11-14T13:13:53Z</time>
      </trkpt>
      <trkpt lat="43.59518" lon="3.39378">
        <ele>297.5</ele>
        <time>2015-11-14T13:13:54Z</time>
      </trkpt>
      <trkpt lat="43.59519" lon="3.39377">
        <ele>296</ele>
        <time>2015-11-14T13:13:55Z</time>
      </trkpt>
      <trkpt lat="43.59521" lon="3.39375">
        <ele>295.5</ele>
        <time>2015-11-14T13:13:56Z</time>
      </trkpt>
      <trkpt lat="43.59522" lon="3.39374">
        <ele>295</ele>
        <time>2015-11-14T13:13:57Z</time>
      </trkpt>
      <trkpt lat="43.59524" lon="3.39373">
        <ele>295</ele>
        <time>2015-11-14T13:13:58Z</time>
      </trkpt>
      <trkpt lat="43.59525" lon="3.39372">
        <ele>294.5</ele>
        <time>2015-11-14T13:13:59Z</time>
      </trkpt>
      <trkpt lat="43.59527" lon="3.39371">
        <ele>294</ele>
        <time>2015-11-14T13:14:00Z</time>
      </trkpt>
      <trkpt lat="43.59528" lon="3.3937">
        <ele>294.5</ele>
        <time>2015-11-14T13:14:01Z</time>
      </trkpt>
      <trkpt lat="43.59529" lon="3.39368">
        <ele>294.5</ele>
        <time>2015-11-14T13:14:02Z</time>
      </trkpt>
      <trkpt lat="43.5953" lon="3.39367">
        <ele>295</ele>
        <time>2015-11-14T13:14:03Z</time>
      </trkpt>
      <trkpt lat="43.59531" lon="3.39366">
        <ele>295</ele>
        <time>2015-11-14T13:14:04Z</time>
      </trkpt>
      <trkpt lat="43.59533" lon="3.39365">
        <ele>295</ele>
        <time>2015-11-14T13:14:05Z</time>
      </trkpt>
      <trkpt lat="43.59534" lon="3.39363">
        <ele>294.5</ele>
        <time>2015-11-14T13:14:06Z</time>
      </trkpt>
      <trkpt lat="43.59536" lon="3.39361">
        <ele>294.5</ele>
        <time>2015-11-14T13:14:07Z</time>
      </trkpt>
      <trkpt lat="43.59539" lon="3.39359">
        <ele>294.5</ele>
        <time>2015-11-14T13:14:08Z</time>
      </trkpt>
      <trkpt lat="43.5954" lon="3.39357">
        <ele>295.5</ele>
        <time>2015-11-14T13:14:09Z</time>
      </trkpt>
      <trkpt lat="43.59542" lon="3.39356">
        <ele>295.5</ele>
        <time>2015-11-14T13:14:10Z</time>
      </trkpt>
      <trkpt lat="43.59543" lon="3.39355">
        <ele>295.5</ele>
        <time>2015-11-14T13:14:11Z</time>
      </trkpt>
      <trkpt lat="43.59544" lon="3.39354">
        <ele>295.5</ele>
        <time>2015-11-14T13:14:12Z</time>
      </trkpt>
      <trkpt lat="43.59545" lon="3.39353">
        <ele>294.5</ele>
        <time>2015-11-14T13:14:13Z</time>
      </trkpt>
      <trkpt lat="43.59547" lon="3.39351">
        <ele>294</ele>
        <time>2015-11-14T13:14:14Z</time>
      </trkpt>
      <trkpt lat="43.59548" lon="3.3935">
        <ele>294</ele>
        <time>2015-11-14T13:14:15Z</time>
      </trkpt>
      <trkpt lat="43.5955" lon="3.39348">
        <ele>294</ele>
        <time>2015-11-14T13:14:16Z</time>
      </trkpt>
      <trkpt lat="43.5955" lon="3.39346">
        <ele>295</ele>
        <time>2015-11-14T13:14:17Z</time>
      </trkpt>
      <trkpt lat="43.59551" lon="3.39345">
        <ele>295</ele>
        <time>2015-11-14T13:14:18Z</time>
      </trkpt>
      <trkpt lat="43.59551" lon="3.39344">
        <ele>295.5</ele>
        <time>2015-11-14T13:14:19Z</time>
      </trkpt>
      <trkpt lat="43.59551" lon="3.39342">
        <ele>295</ele>
        <time>2015-11-14T13:14:20Z</time>
      </trkpt>
      <trkpt lat="43.59552" lon="3.39339">
        <ele>295</ele>
        <time>2015-11-14T13:14:21Z</time>
      </trkpt>
      <trkpt lat="43.59554" lon="3.39334">
        <ele>295</ele>
        <time>2015-11-14T13:14:22Z</time>
      </trkpt>
      <trkpt lat="43.59556" lon="3.39331">
        <ele>295.5</ele>
        <time>2015-11-14T13:14:23Z</time>
      </trkpt>
      <trkpt lat="43.59557" lon="3.39329">
        <ele>297.5</ele>
        <time>2015-11-14T13:14:24Z</time>
      </trkpt>
      <trkpt lat="43.59559" lon="3.39328">
        <ele>298</ele>
        <time>2015-11-14T13:14:25Z</time>
      </trkpt>
      <trkpt lat="43.59561" lon="3.39326">
        <ele>297.5</ele>
        <time>2015-11-14T13:14:26Z</time>
      </trkpt>
      <trkpt lat="43.59563" lon="3.39324">
        <ele>297.5</ele>
        <time>2015-11-14T13:14:27Z</time>
      </trkpt>
      <trkpt lat="43.59565" lon="3.39323">
        <ele>297.5</ele>
        <time>2015-11-14T13:14:28Z</time>
      </trkpt>
      <trkpt lat="43.59567" lon="3.39322">
        <ele>297.5</ele>
        <time>2015-11-14T13:14:29Z</time>
      </trkpt>
      <trkpt lat="43.59569" lon="3.3932">
        <ele>297</ele>
        <time>2015-11-14T13:14:30Z</time>
      </trkpt>
      <trkpt lat="43.59571" lon="3.39319">
        <ele>296.5</ele>
        <time>2015-11-14T13:14:31Z</time>
      </trkpt>
      <trkpt lat="43.59573" lon="3.39317">
        <ele>297</ele>
        <time>2015-11-14T13:14:32Z</time>
      </trkpt>
      <trkpt lat="43.59574" lon="3.39316">
        <ele>298</ele>
        <time>2015-11-14T13:14:33Z</time>
      </trkpt>
      <trkpt lat="43.59576" lon="3.39315">
        <ele>298.5</ele>
        <time>2015-11-14T13:14:34Z</time>
      </trkpt>
      <trkpt lat="43.59578" lon="3.39315">
        <ele>299</ele>
        <time>2015-11-14T13:14:35Z</time>
      </trkpt>
      <trkpt lat="43.5958" lon="3.39315">
        <ele>299.5</ele>
        <time>2015-11-14T13:14:36Z</time>
      </trkpt>
      <trkpt lat="43.59581" lon="3.39315">
        <ele>300</ele>
        <time>2015-11-14T13:14:37Z</time>
      </trkpt>
      <trkpt lat="43.59582" lon="3.39315">
        <ele>299.5</ele>
        <time>2015-11-14T13:14:38Z</time>
      </trkpt>
      <trkpt lat="43.59583" lon="3.39315">
        <ele>298.5</ele>
        <time>2015-11-14T13:14:39Z</time>
      </trkpt>
      <trkpt lat="43.59584" lon="3.39315">
        <ele>297.5</ele>
        <time>2015-11-14T13:14:40Z</time>
      </trkpt>
      <trkpt lat="43.59585" lon="3.39316">
        <ele>297</ele>
        <time>2015-11-14T13:14:41Z</time>
      </trkpt>
      <trkpt lat="43.59586" lon="3.39316">
        <ele>296.5</ele>
        <time>2015-11-14T13:14:42Z</time>
      </trkpt>
      <trkpt lat="43.59588" lon="3.39316">
        <ele>297.5</ele>
        <time>2015-11-14T13:14:50Z</time>
      </trkpt>
      <trkpt lat="43.59589" lon="3.39317">
        <ele>297</ele>
        <time>2015-11-14T13:14:52Z</time>
      </trkpt>
      <trkpt lat="43.5959" lon="3.39317">
        <ele>297.5</ele>
        <time>2015-11-14T13:14:53Z</time>
      </trkpt>
      <trkpt lat="43.5959" lon="3.39318">
        <ele>297.5</ele>
        <time>2015-11-14T13:14:54Z</time>
      </trkpt>
      <trkpt lat="43.59592" lon="3.39318">
        <ele>297</ele>
        <time>2015-11-14T13:14:55Z</time>
      </trkpt>
      <trkpt lat="43.59593" lon="3.39319">
        <ele>297</ele>
        <time>2015-11-14T13:14:56Z</time>
      </trkpt>
      <trkpt lat="43.59594" lon="3.3932">
        <ele>296.5</ele>
        <time>2015-11-14T13:14:57Z</time>
      </trkpt>
      <trkpt lat="43.59595" lon="3.39321">
        <ele>295.5</ele>
        <time>2015-11-14T13:14:58Z</time>
      </trkpt>
      <trkpt lat="43.59597" lon="3.39321">
        <ele>295</ele>
        <time>2015-11-14T13:14:59Z</time>
      </trkpt>
      <trkpt lat="43.596" lon="3.39322">
        <ele>294.5</ele>
        <time>2015-11-14T13:15:01Z</time>
      </trkpt>
      <trkpt lat="43.59602" lon="3.39324">
        <ele>293.5</ele>
        <time>2015-11-14T13:15:02Z</time>
      </trkpt>
      <trkpt lat="43.59604" lon="3.39325">
        <ele>293.5</ele>
        <time>2015-11-14T13:15:03Z</time>
      </trkpt>
      <trkpt lat="43.59605" lon="3.39324">
        <ele>293</ele>
        <time>2015-11-14T13:15:04Z</time>
      </trkpt>
      <trkpt lat="43.59607" lon="3.39324">
        <ele>292.5</ele>
        <time>2015-11-14T13:15:05Z</time>
      </trkpt>
      <trkpt lat="43.59609" lon="3.39325">
        <ele>292.5</ele>
        <time>2015-11-14T13:15:06Z</time>
      </trkpt>
      <trkpt lat="43.59611" lon="3.39325">
        <ele>293.5</ele>
        <time>2015-11-14T13:15:07Z</time>
      </trkpt>
      <trkpt lat="43.59613" lon="3.39325">
        <ele>293.5</ele>
        <time>2015-11-14T13:15:08Z</time>
      </trkpt>
      <trkpt lat="43.59616" lon="3.39324">
        <ele>294</ele>
        <time>2015-11-14T13:15:09Z</time>
      </trkpt>
      <trkpt lat="43.59618" lon="3.39324">
        <ele>294</ele>
        <time>2015-11-14T13:15:10Z</time>
      </trkpt>
      <trkpt lat="43.5962" lon="3.39323">
        <ele>294</ele>
        <time>2015-11-14T13:15:11Z</time>
      </trkpt>
      <trkpt lat="43.59622" lon="3.39324">
        <ele>294.5</ele>
        <time>2015-11-14T13:15:12Z</time>
      </trkpt>
      <trkpt lat="43.59625" lon="3.39324">
        <ele>295</ele>
        <time>2015-11-14T13:15:13Z</time>
      </trkpt>
      <trkpt lat="43.59627" lon="3.39324">
        <ele>295.5</ele>
        <time>2015-11-14T13:15:14Z</time>
      </trkpt>
      <trkpt lat="43.59629" lon="3.39324">
        <ele>296.5</ele>
        <time>2015-11-14T13:15:15Z</time>
      </trkpt>
      <trkpt lat="43.59633" lon="3.39324">
        <ele>297.5</ele>
        <time>2015-11-14T13:15:17Z</time>
      </trkpt>
      <trkpt lat="43.59636" lon="3.39324">
        <ele>298</ele>
        <time>2015-11-14T13:15:18Z</time>
      </trkpt>
      <trkpt lat="43.59638" lon="3.39324">
        <ele>298.5</ele>
        <time>2015-11-14T13:15:19Z</time>
      </trkpt>
      <trkpt lat="43.5964" lon="3.39324">
        <ele>298.5</ele>
        <time>2015-11-14T13:15:20Z</time>
      </trkpt>
      <trkpt lat="43.59642" lon="3.39323">
        <ele>299</ele>
        <time>2015-11-14T13:15:21Z</time>
      </trkpt>
      <trkpt lat="43.59644" lon="3.39323">
        <ele>299</ele>
        <time>2015-11-14T13:15:22Z</time>
      </trkpt>
      <trkpt lat="43.59646" lon="3.39322">
        <ele>299.5</ele>
        <time>2015-11-14T13:15:23Z</time>
      </trkpt>
      <trkpt lat="43.59648" lon="3.39322">
        <ele>300</ele>
        <time>2015-11-14T13:15:24Z</time>
      </trkpt>
      <trkpt lat="43.59651" lon="3.39321">
        <ele>300</ele>
        <time>2015-11-14T13:15:25Z</time>
      </trkpt>
      <trkpt lat="43.59653" lon="3.39321">
        <ele>300</ele>
        <time>2015-11-14T13:15:26Z</time>
      </trkpt>
      <trkpt lat="43.59655" lon="3.39321">
        <ele>300.5</ele>
        <time>2015-11-14T13:15:27Z</time>
      </trkpt>
      <trkpt lat="43.59657" lon="3.39322">
        <ele>300.5</ele>
        <time>2015-11-14T13:15:28Z</time>
      </trkpt>
      <trkpt lat="43.59659" lon="3.39321">
        <ele>301</ele>
        <time>2015-11-14T13:15:29Z</time>
      </trkpt>
      <trkpt lat="43.59662" lon="3.39321">
        <ele>300.5</ele>
        <time>2015-11-14T13:15:30Z</time>
      </trkpt>
      <trkpt lat="43.59664" lon="3.3932">
        <ele>300.5</ele>
        <time>2015-11-14T13:15:31Z</time>
      </trkpt>
      <trkpt lat="43.59667" lon="3.39319">
        <ele>300.5</ele>
        <time>2015-11-14T13:15:32Z</time>
      </trkpt>
      <trkpt lat="43.5967" lon="3.39319">
        <ele>300.5</ele>
        <time>2015-11-14T13:15:33Z</time>
      </trkpt>
      <trkpt lat="43.59678" lon="3.39316">
        <ele>301</ele>
        <time>2015-11-14T13:15:35Z</time>
      </trkpt>
      <trkpt lat="43.59681" lon="3.39315">
        <ele>301</ele>
        <time>2015-11-14T13:15:36Z</time>
      </trkpt>
      <trkpt lat="43.59685" lon="3.39314">
        <ele>301</ele>
        <time>2015-11-14T13:15:37Z</time>
      </trkpt>
      <trkpt lat="43.59688" lon="3.39313">
        <ele>301.5</ele>
        <time>2015-11-14T13:15:38Z</time>
      </trkpt>
      <trkpt lat="43.59691" lon="3.39312">
        <ele>301</ele>
        <time>2015-11-14T13:15:39Z</time>
      </trkpt>
      <trkpt lat="43.59694" lon="3.3931">
        <ele>301.5</ele>
        <time>2015-11-14T13:15:40Z</time>
      </trkpt>
      <trkpt lat="43.59697" lon="3.39308">
        <ele>301.5</ele>
        <time>2015-11-14T13:15:41Z</time>
      </trkpt>
      <trkpt lat="43.59698" lon="3.39307">
        <ele>302</ele>
        <time>2015-11-14T13:15:42Z</time>
      </trkpt>
      <trkpt lat="43.597" lon="3.39307">
        <ele>302</ele>
        <time>2015-11-14T13:15:43Z</time>
      </trkpt>
      <trkpt lat="43.59702" lon="3.39307">
        <ele>301.5</ele>
        <time>2015-11-14T13:15:44Z</time>
      </trkpt>
      <trkpt lat="43.59705" lon="3.39308">
        <ele>301</ele>
        <time>2015-11-14T13:15:45Z</time>
      </trkpt>
      <trkpt lat="43.59708" lon="3.39307">
        <ele>301</ele>
        <time>2015-11-14T13:15:46Z</time>
      </trkpt>
      <trkpt lat="43.5971" lon="3.39309">
        <ele>300.5</ele>
        <time>2015-11-14T13:15:47Z</time>
      </trkpt>
      <trkpt lat="43.59713" lon="3.39311">
        <ele>299.5</ele>
        <time>2015-11-14T13:15:48Z</time>
      </trkpt>
      <trkpt lat="43.59716" lon="3.39311">
        <ele>299</ele>
        <time>2015-11-14T13:15:49Z</time>
      </trkpt>
      <trkpt lat="43.59719" lon="3.39312">
        <ele>298</ele>
        <time>2015-11-14T13:15:50Z</time>
      </trkpt>
      <trkpt lat="43.59722" lon="3.39312">
        <ele>298</ele>
        <time>2015-11-14T13:15:51Z</time>
      </trkpt>
      <trkpt lat="43.59724" lon="3.39311">
        <ele>298</ele>
        <time>2015-11-14T13:15:52Z</time>
      </trkpt>
      <trkpt lat="43.59726" lon="3.39308">
        <ele>298.5</ele>
        <time>2015-11-14T13:15:53Z</time>
      </trkpt>
      <trkpt lat="43.59729" lon="3.39307">
        <ele>298.5</ele>
        <time>2015-11-14T13:15:54Z</time>
      </trkpt>
      <trkpt lat="43.59732" lon="3.39305">
        <ele>298</ele>
        <time>2015-11-14T13:15:55Z</time>
      </trkpt>
      <trkpt lat="43.59735" lon="3.39303">
        <ele>297.5</ele>
        <time>2015-11-14T13:15:56Z</time>
      </trkpt>
      <trkpt lat="43.5974" lon="3.39302">
        <ele>296.5</ele>
        <time>2015-11-14T13:15:57Z</time>
      </trkpt>
      <trkpt lat="43.59745" lon="3.39302">
        <ele>296</ele>
        <time>2015-11-14T13:15:58Z</time>
      </trkpt>
      <trkpt lat="43.5975" lon="3.393">
        <ele>295.5</ele>
        <time>2015-11-14T13:15:59Z</time>
      </trkpt>
      <trkpt lat="43.59756" lon="3.39297">
        <ele>294.5</ele>
        <time>2015-11-14T13:16:00Z</time>
      </trkpt>
      <trkpt lat="43.59762" lon="3.39295">
        <ele>293.5</ele>
        <time>2015-11-14T13:16:01Z</time>
      </trkpt>
      <trkpt lat="43.59768" lon="3.39295">
        <ele>293</ele>
        <time>2015-11-14T13:16:02Z</time>
      </trkpt>
      <trkpt lat="43.59774" lon="3.39294">
        <ele>292.5</ele>
        <time>2015-11-14T13:16:03Z</time>
      </trkpt>
      <trkpt lat="43.59778" lon="3.39291">
        <ele>292</ele>
        <time>2015-11-14T13:16:04Z</time>
      </trkpt>
      <trkpt lat="43.59783" lon="3.39288">
        <ele>291.5</ele>
        <time>2015-11-14T13:16:05Z</time>
      </trkpt>
      <trkpt lat="43.59786" lon="3.39285">
        <ele>292.5</ele>
        <time>2015-11-14T13:16:06Z</time>
      </trkpt>
      <trkpt lat="43.59788" lon="3.39282">
        <ele>292.5</ele>
        <time>2015-11-14T13:16:07Z</time>
      </trkpt>
      <trkpt lat="43.59789" lon="3.3928">
        <ele>293</ele>
        <time>2015-11-14T13:16:08Z</time>
      </trkpt>
      <trkpt lat="43.5979" lon="3.39277">
        <ele>293</ele>
        <time>2015-11-14T13:16:09Z</time>
      </trkpt>
      <trkpt lat="43.59792" lon="3.39274">
        <ele>293</ele>
        <time>2015-11-14T13:16:10Z</time>
      </trkpt>
      <trkpt lat="43.59793" lon="3.39272">
        <ele>293</ele>
        <time>2015-11-14T13:16:11Z</time>
      </trkpt>
      <trkpt lat="43.59795" lon="3.39269">
        <ele>293.5</ele>
        <time>2015-11-14T13:16:12Z</time>
      </trkpt>
      <trkpt lat="43.59796" lon="3.39266">
        <ele>294</ele>
        <time>2015-11-14T13:16:13Z</time>
      </trkpt>
      <trkpt lat="43.59797" lon="3.39264">
        <ele>294</ele>
        <time>2015-11-14T13:16:14Z</time>
      </trkpt>
      <trkpt lat="43.59799" lon="3.39262">
        <ele>294.5</ele>
        <time>2015-11-14T13:16:15Z</time>
      </trkpt>
      <trkpt lat="43.598" lon="3.39259">
        <ele>294</ele>
        <time>2015-11-14T13:16:16Z</time>
      </trkpt>
      <trkpt lat="43.59801" lon="3.39257">
        <ele>294.5</ele>
        <time>2015-11-14T13:16:17Z</time>
      </trkpt>
      <trkpt lat="43.59802" lon="3.39255">
        <ele>294.5</ele>
        <time>2015-11-14T13:16:18Z</time>
      </trkpt>
      <trkpt lat="43.59804" lon="3.39253">
        <ele>294</ele>
        <time>2015-11-14T13:16:19Z</time>
      </trkpt>
      <trkpt lat="43.59804" lon="3.39252">
        <ele>293.5</ele>
        <time>2015-11-14T13:16:20Z</time>
      </trkpt>
      <trkpt lat="43.59805" lon="3.39251">
        <ele>293.5</ele>
        <time>2015-11-14T13:16:21Z</time>
      </trkpt>
      <trkpt lat="43.59807" lon="3.39249">
        <ele>293</ele>
        <time>2015-11-14T13:16:22Z</time>
      </trkpt>
      <trkpt lat="43.59809" lon="3.39248">
        <ele>292</ele>
        <time>2015-11-14T13:16:23Z</time>
      </trkpt>
      <trkpt lat="43.59811" lon="3.39245">
        <ele>291.5</ele>
        <time>2015-11-14T13:16:24Z</time>
      </trkpt>
      <trkpt lat="43.59812" lon="3.39243">
        <ele>291.5</ele>
        <time>2015-11-14T13:16:25Z</time>
      </trkpt>
      <trkpt lat="43.59814" lon="3.39241">
        <ele>291.5</ele>
        <time>2015-11-14T13:16:26Z</time>
      </trkpt>
      <trkpt lat="43.59816" lon="3.39238">
        <ele>292</ele>
        <time>2015-11-14T13:16:27Z</time>
      </trkpt>
      <trkpt lat="43.59818" lon="3.39236">
        <ele>292.5</ele>
        <time>2015-11-14T13:16:28Z</time>
      </trkpt>
      <trkpt lat="43.59821" lon="3.39235">
        <ele>292.5</ele>
        <time>2015-11-14T13:16:29Z</time>
      </trkpt>
      <trkpt lat="43.59823" lon="3.39232">
        <ele>293</ele>
        <time>2015-11-14T13:16:30Z</time>
      </trkpt>
      <trkpt lat="43.59825" lon="3.39229">
        <ele>293.5</ele>
        <time>2015-11-14T13:16:31Z</time>
      </trkpt>
      <trkpt lat="43.59826" lon="3.39227">
        <ele>294</ele>
        <time>2015-11-14T13:16:32Z</time>
      </trkpt>
      <trkpt lat="43.59828" lon="3.39226">
        <ele>294</ele>
        <time>2015-11-14T13:16:33Z</time>
      </trkpt>
      <trkpt lat="43.5983" lon="3.39225">
        <ele>294</ele>
        <time>2015-11-14T13:16:34Z</time>
      </trkpt>
      <trkpt lat="43.59831" lon="3.39224">
        <ele>294</ele>
        <time>2015-11-14T13:16:35Z</time>
      </trkpt>
      <trkpt lat="43.59833" lon="3.39223">
        <ele>294</ele>
        <time>2015-11-14T13:16:36Z</time>
      </trkpt>
      <trkpt lat="43.59835" lon="3.39222">
        <ele>294</ele>
        <time>2015-11-14T13:16:37Z</time>
      </trkpt>
      <trkpt lat="43.59837" lon="3.39221">
        <ele>294</ele>
        <time>2015-11-14T13:16:38Z</time>
      </trkpt>
      <trkpt lat="43.59839" lon="3.3922">
        <ele>293.5</ele>
        <time>2015-11-14T13:16:39Z</time>
      </trkpt>
      <trkpt lat="43.59841" lon="3.39218">
        <ele>293.5</ele>
        <time>2015-11-14T13:16:40Z</time>
      </trkpt>
      <trkpt lat="43.59843" lon="3.39217">
        <ele>293.5</ele>
        <time>2015-11-14T13:16:41Z</time>
      </trkpt>
      <trkpt lat="43.59845" lon="3.39216">
        <ele>293.5</ele>
        <time>2015-11-14T13:16:42Z</time>
      </trkpt>
      <trkpt lat="43.59847" lon="3.39216">
        <ele>293</ele>
        <time>2015-11-14T13:16:43Z</time>
      </trkpt>
      <trkpt lat="43.59849" lon="3.39215">
        <ele>293</ele>
        <time>2015-11-14T13:16:44Z</time>
      </trkpt>
      <trkpt lat="43.59852" lon="3.39214">
        <ele>293</ele>
        <time>2015-11-14T13:16:45Z</time>
      </trkpt>
      <trkpt lat="43.59855" lon="3.39213">
        <ele>292.5</ele>
        <time>2015-11-14T13:16:46Z</time>
      </trkpt>
      <trkpt lat="43.59858" lon="3.39211">
        <ele>292.5</ele>
        <time>2015-11-14T13:16:47Z</time>
      </trkpt>
      <trkpt lat="43.59862" lon="3.39211">
        <ele>292</ele>
        <time>2015-11-14T13:16:48Z</time>
      </trkpt>
      <trkpt lat="43.59865" lon="3.3921">
        <ele>292</ele>
        <time>2015-11-14T13:16:49Z</time>
      </trkpt>
      <trkpt lat="43.59869" lon="3.39212">
        <ele>291.5</ele>
        <time>2015-11-14T13:16:50Z</time>
      </trkpt>
      <trkpt lat="43.59872" lon="3.39216">
        <ele>290.5</ele>
        <time>2015-11-14T13:16:51Z</time>
      </trkpt>
      <trkpt lat="43.59876" lon="3.39219">
        <ele>289.5</ele>
        <time>2015-11-14T13:16:52Z</time>
      </trkpt>
      <trkpt lat="43.5988" lon="3.39222">
        <ele>289</ele>
        <time>2015-11-14T13:16:53Z</time>
      </trkpt>
      <trkpt lat="43.59883" lon="3.39224">
        <ele>289</ele>
        <time>2015-11-14T13:16:54Z</time>
      </trkpt>
      <trkpt lat="43.59887" lon="3.39227">
        <ele>288.5</ele>
        <time>2015-11-14T13:16:55Z</time>
      </trkpt>
      <trkpt lat="43.59891" lon="3.39229">
        <ele>288.5</ele>
        <time>2015-11-14T13:16:56Z</time>
      </trkpt>
      <trkpt lat="43.59896" lon="3.39231">
        <ele>288.5</ele>
        <time>2015-11-14T13:16:57Z</time>
      </trkpt>
      <trkpt lat="43.599" lon="3.39232">
        <ele>288</ele>
        <time>2015-11-14T13:16:58Z</time>
      </trkpt>
      <trkpt lat="43.59905" lon="3.39232">
        <ele>288</ele>
        <time>2015-11-14T13:16:59Z</time>
      </trkpt>
      <trkpt lat="43.59909" lon="3.39232">
        <ele>288</ele>
        <time>2015-11-14T13:17:00Z</time>
      </trkpt>
      <trkpt lat="43.59913" lon="3.39233">
        <ele>288</ele>
        <time>2015-11-14T13:17:01Z</time>
      </trkpt>
      <trkpt lat="43.59916" lon="3.39235">
        <ele>289</ele>
        <time>2015-11-14T13:17:02Z</time>
      </trkpt>
      <trkpt lat="43.59919" lon="3.39238">
        <ele>289</ele>
        <time>2015-11-14T13:17:03Z</time>
      </trkpt>
      <trkpt lat="43.59922" lon="3.39241">
        <ele>289</ele>
        <time>2015-11-14T13:17:04Z</time>
      </trkpt>
      <trkpt lat="43.59925" lon="3.39244">
        <ele>289</ele>
        <time>2015-11-14T13:17:05Z</time>
      </trkpt>
      <trkpt lat="43.59928" lon="3.39247">
        <ele>288.5</ele>
        <time>2015-11-14T13:17:06Z</time>
      </trkpt>
      <trkpt lat="43.59932" lon="3.3925">
        <ele>288.5</ele>
        <time>2015-11-14T13:17:07Z</time>
      </trkpt>
      <trkpt lat="43.59936" lon="3.39254">
        <ele>288</ele>
        <time>2015-11-14T13:17:08Z</time>
      </trkpt>
      <trkpt lat="43.5994" lon="3.39257">
        <ele>287.5</ele>
        <time>2015-11-14T13:17:08Z</time>
      </trkpt>
      <trkpt lat="43.59945" lon="3.3926">
        <ele>287</ele>
        <time>2015-11-14T13:17:10Z</time>
      </trkpt>
      <trkpt lat="43.59949" lon="3.39265">
        <ele>286.5</ele>
        <time>2015-11-14T13:17:10Z</time>
      </trkpt>
      <trkpt lat="43.59953" lon="3.3927">
        <ele>285.5</ele>
        <time>2015-11-14T13:17:11Z</time>
      </trkpt>
      <trkpt lat="43.59955" lon="3.39276">
        <ele>284.5</ele>
        <time>2015-11-14T13:17:12Z</time>
      </trkpt>
      <trkpt lat="43.59957" lon="3.39284">
        <ele>284</ele>
        <time>2015-11-14T13:17:13Z</time>
      </trkpt>
      <trkpt lat="43.59958" lon="3.39293">
        <ele>283.5</ele>
        <time>2015-11-14T13:17:15Z</time>
      </trkpt>
      <trkpt lat="43.59959" lon="3.39302">
        <ele>282</ele>
        <time>2015-11-14T13:17:15Z</time>
      </trkpt>
      <trkpt lat="43.5996" lon="3.39311">
        <ele>281.5</ele>
        <time>2015-11-14T13:17:16Z</time>
      </trkpt>
      <trkpt lat="43.59963" lon="3.3932">
        <ele>281</ele>
        <time>2015-11-14T13:17:18Z</time>
      </trkpt>
      <trkpt lat="43.59966" lon="3.39329">
        <ele>280.5</ele>
        <time>2015-11-14T13:17:18Z</time>
      </trkpt>
      <trkpt lat="43.5997" lon="3.39337">
        <ele>280.5</ele>
        <time>2015-11-14T13:17:19Z</time>
      </trkpt>
      <trkpt lat="43.59974" lon="3.39345">
        <ele>279.5</ele>
        <time>2015-11-14T13:17:21Z</time>
      </trkpt>
      <trkpt lat="43.59977" lon="3.39353">
        <ele>279</ele>
        <time>2015-11-14T13:17:21Z</time>
      </trkpt>
      <trkpt lat="43.59979" lon="3.3936">
        <ele>278</ele>
        <time>2015-11-14T13:17:23Z</time>
      </trkpt>
      <trkpt lat="43.59982" lon="3.39366">
        <ele>277.5</ele>
        <time>2015-11-14T13:17:24Z</time>
      </trkpt>
      <trkpt lat="43.59984" lon="3.39372">
        <ele>277.5</ele>
        <time>2015-11-14T13:17:25Z</time>
      </trkpt>
      <trkpt lat="43.59988" lon="3.39375">
        <ele>277.5</ele>
        <time>2015-11-14T13:17:25Z</time>
      </trkpt>
      <trkpt lat="43.59991" lon="3.39379">
        <ele>277.5</ele>
        <time>2015-11-14T13:17:26Z</time>
      </trkpt>
      <trkpt lat="43.59995" lon="3.39383">
        <ele>276.5</ele>
        <time>2015-11-14T13:17:27Z</time>
      </trkpt>
      <trkpt lat="43.59999" lon="3.39386">
        <ele>275</ele>
        <time>2015-11-14T13:17:28Z</time>
      </trkpt>
      <trkpt lat="43.60003" lon="3.39387">
        <ele>273.5</ele>
        <time>2015-11-14T13:17:29Z</time>
      </trkpt>
      <trkpt lat="43.60008" lon="3.39387">
        <ele>272.5</ele>
        <time>2015-11-14T13:17:30Z</time>
      </trkpt>
      <trkpt lat="43.60012" lon="3.39387">
        <ele>271.5</ele>
        <time>2015-11-14T13:17:31Z</time>
      </trkpt>
      <trkpt lat="43.60016" lon="3.39384">
        <ele>271</ele>
        <time>2015-11-14T13:17:32Z</time>
      </trkpt>
      <trkpt lat="43.6002" lon="3.39382">
        <ele>270</ele>
        <time>2015-11-14T13:17:33Z</time>
      </trkpt>
      <trkpt lat="43.60023" lon="3.39381">
        <ele>269.5</ele>
        <time>2015-11-14T13:17:34Z</time>
      </trkpt>
      <trkpt lat="43.60026" lon="3.39385">
        <ele>268.5</ele>
        <time>2015-11-14T13:17:36Z</time>
      </trkpt>
      <trkpt lat="43.60032" lon="3.39393">
        <ele>268.5</ele>
        <time>2015-11-14T13:17:38Z</time>
      </trkpt>
      <trkpt lat="43.60035" lon="3.39398">
        <ele>268</ele>
        <time>2015-11-14T13:17:38Z</time>
      </trkpt>
      <trkpt lat="43.60038" lon="3.39403">
        <ele>267.5</ele>
        <time>2015-11-14T13:17:39Z</time>
      </trkpt>
      <trkpt lat="43.60042" lon="3.39403">
        <ele>268.5</ele>
        <time>2015-11-14T13:17:40Z</time>
      </trkpt>
      <trkpt lat="43.60045" lon="3.394">
        <ele>269</ele>
        <time>2015-11-14T13:17:41Z</time>
      </trkpt>
      <trkpt lat="43.60048" lon="3.39397">
        <ele>270.5</ele>
        <time>2015-11-14T13:17:42Z</time>
      </trkpt>
      <trkpt lat="43.60048" lon="3.39394">
        <ele>270.5</ele>
        <time>2015-11-14T13:17:43Z</time>
      </trkpt>
      <trkpt lat="43.60048" lon="3.39389">
        <ele>271</ele>
        <time>2015-11-14T13:17:44Z</time>
      </trkpt>
      <trkpt lat="43.60048" lon="3.39384">
        <ele>270.5</ele>
        <time>2015-11-14T13:17:45Z</time>
      </trkpt>
      <trkpt lat="43.60049" lon="3.39378">
        <ele>269.5</ele>
        <time>2015-11-14T13:17:46Z</time>
      </trkpt>
      <trkpt lat="43.60051" lon="3.39372">
        <ele>269</ele>
        <time>2015-11-14T13:17:47Z</time>
      </trkpt>
      <trkpt lat="43.60053" lon="3.39368">
        <ele>268.5</ele>
        <time>2015-11-14T13:17:48Z</time>
      </trkpt>
      <trkpt lat="43.60055" lon="3.39363">
        <ele>268.5</ele>
        <time>2015-11-14T13:17:49Z</time>
      </trkpt>
      <trkpt lat="43.60056" lon="3.39359">
        <ele>268</ele>
        <time>2015-11-14T13:17:50Z</time>
      </trkpt>
      <trkpt lat="43.60057" lon="3.39357">
        <ele>267.5</ele>
        <time>2015-11-14T13:17:51Z</time>
      </trkpt>
      <trkpt lat="43.60058" lon="3.39354">
        <ele>267</ele>
        <time>2015-11-14T13:17:52Z</time>
      </trkpt>
      <trkpt lat="43.60059" lon="3.39352">
        <ele>266.5</ele>
        <time>2015-11-14T13:17:53Z</time>
      </trkpt>
      <trkpt lat="43.60057" lon="3.39349">
        <ele>266.5</ele>
        <time>2015-11-14T13:17:54Z</time>
      </trkpt>
      <trkpt lat="43.60055" lon="3.39347">
        <ele>267.5</ele>
        <time>2015-11-14T13:17:55Z</time>
      </trkpt>
      <trkpt lat="43.60053" lon="3.39344">
        <ele>267.5</ele>
        <time>2015-11-14T13:17:56Z</time>
      </trkpt>
      <trkpt lat="43.60051" lon="3.39341">
        <ele>268</ele>
        <time>2015-11-14T13:17:57Z</time>
      </trkpt>
      <trkpt lat="43.6005" lon="3.39338">
        <ele>268.5</ele>
        <time>2015-11-14T13:17:58Z</time>
      </trkpt>
      <trkpt lat="43.60049" lon="3.39335">
        <ele>268.5</ele>
        <time>2015-11-14T13:17:59Z</time>
      </trkpt>
      <trkpt lat="43.60049" lon="3.39332">
        <ele>268.5</ele>
        <time>2015-11-14T13:18:00Z</time>
      </trkpt>
      <trkpt lat="43.60048" lon="3.39329">
        <ele>269</ele>
        <time>2015-11-14T13:18:01Z</time>
      </trkpt>
      <trkpt lat="43.60048" lon="3.39326">
        <ele>269.5</ele>
        <time>2015-11-14T13:18:02Z</time>
      </trkpt>
      <trkpt lat="43.60048" lon="3.39322">
        <ele>269.5</ele>
        <time>2015-11-14T13:18:03Z</time>
      </trkpt>
      <trkpt lat="43.60048" lon="3.39319">
        <ele>269.5</ele>
        <time>2015-11-14T13:18:04Z</time>
      </trkpt>
      <trkpt lat="43.60049" lon="3.39316">
        <ele>269.5</ele>
        <time>2015-11-14T13:18:05Z</time>
      </trkpt>
      <trkpt lat="43.6005" lon="3.39315">
        <ele>269.5</ele>
        <time>2015-11-14T13:18:06Z</time>
      </trkpt>
      <trkpt lat="43.60051" lon="3.39314">
        <ele>269.5</ele>
        <time>2015-11-14T13:18:07Z</time>
      </trkpt>
      <trkpt lat="43.60052" lon="3.39314">
        <ele>269.5</ele>
        <time>2015-11-14T13:18:08Z</time>
      </trkpt>
      <trkpt lat="43.60053" lon="3.39314">
        <ele>269</ele>
        <time>2015-11-14T13:18:09Z</time>
      </trkpt>
      <trkpt lat="43.60054" lon="3.39314">
        <ele>268</ele>
        <time>2015-11-14T13:18:10Z</time>
      </trkpt>
      <trkpt lat="43.60056" lon="3.39312">
        <ele>267</ele>
        <time>2015-11-14T13:18:11Z</time>
      </trkpt>
      <trkpt lat="43.60058" lon="3.39311">
        <ele>266</ele>
        <time>2015-11-14T13:18:12Z</time>
      </trkpt>
      <trkpt lat="43.6006" lon="3.3931">
        <ele>265</ele>
        <time>2015-11-14T13:18:13Z</time>
      </trkpt>
      <trkpt lat="43.60063" lon="3.39309">
        <ele>265</ele>
        <time>2015-11-14T13:18:14Z</time>
      </trkpt>
      <trkpt lat="43.60065" lon="3.3931">
        <ele>264.5</ele>
        <time>2015-11-14T13:18:15Z</time>
      </trkpt>
      <trkpt lat="43.60068" lon="3.39311">
        <ele>264.5</ele>
        <time>2015-11-14T13:18:16Z</time>
      </trkpt>
      <trkpt lat="43.6007" lon="3.39312">
        <ele>263</ele>
        <time>2015-11-14T13:18:17Z</time>
      </trkpt>
      <trkpt lat="43.60073" lon="3.39313">
        <ele>261.5</ele>
        <time>2015-11-14T13:18:18Z</time>
      </trkpt>
      <trkpt lat="43.60076" lon="3.39312">
        <ele>260.5</ele>
        <time>2015-11-14T13:18:19Z</time>
      </trkpt>
      <trkpt lat="43.60079" lon="3.39312">
        <ele>260</ele>
        <time>2015-11-14T13:18:20Z</time>
      </trkpt>
      <trkpt lat="43.60081" lon="3.39312">
        <ele>259</ele>
        <time>2015-11-14T13:18:21Z</time>
      </trkpt>
      <trkpt lat="43.60084" lon="3.39311">
        <ele>257.5</ele>
        <time>2015-11-14T13:18:22Z</time>
      </trkpt>
      <trkpt lat="43.60086" lon="3.3931">
        <ele>256.5</ele>
        <time>2015-11-14T13:18:23Z</time>
      </trkpt>
      <trkpt lat="43.60088" lon="3.39309">
        <ele>255.5</ele>
        <time>2015-11-14T13:18:24Z</time>
      </trkpt>
      <trkpt lat="43.60089" lon="3.39307">
        <ele>255</ele>
        <time>2015-11-14T13:18:25Z</time>
      </trkpt>
      <trkpt lat="43.60091" lon="3.39306">
        <ele>254.5</ele>
        <time>2015-11-14T13:18:26Z</time>
      </trkpt>
      <trkpt lat="43.60094" lon="3.39306">
        <ele>253.5</ele>
        <time>2015-11-14T13:18:27Z</time>
      </trkpt>
      <trkpt lat="43.60096" lon="3.39306">
        <ele>254.5</ele>
        <time>2015-11-14T13:18:28Z</time>
      </trkpt>
      <trkpt lat="43.60096" lon="3.39308">
        <ele>254.5</ele>
        <time>2015-11-14T13:18:29Z</time>
      </trkpt>
      <trkpt lat="43.60101" lon="3.39317">
        <ele>252</ele>
        <time>2015-11-14T13:18:31Z</time>
      </trkpt>
      <trkpt lat="43.60105" lon="3.39321">
        <ele>251.5</ele>
        <time>2015-11-14T13:18:32Z</time>
      </trkpt>
      <trkpt lat="43.60109" lon="3.39325">
        <ele>251</ele>
        <time>2015-11-14T13:18:33Z</time>
      </trkpt>
      <trkpt lat="43.60112" lon="3.39326">
        <ele>249.5</ele>
        <time>2015-11-14T13:21:05Z</time>
      </trkpt>
      <trkpt lat="43.60114" lon="3.39327">
        <ele>249.5</ele>
        <time>2015-11-14T13:21:07Z</time>
      </trkpt>
      <trkpt lat="43.60116" lon="3.39327">
        <ele>249.5</ele>
        <time>2015-11-14T13:21:08Z</time>
      </trkpt>
      <trkpt lat="43.60117" lon="3.39328">
        <ele>249.5</ele>
        <time>2015-11-14T13:21:09Z</time>
      </trkpt>
      <trkpt lat="43.60119" lon="3.39327">
        <ele>249.5</ele>
        <time>2015-11-14T13:21:10Z</time>
      </trkpt>
      <trkpt lat="43.6012" lon="3.39326">
        <ele>249.5</ele>
        <time>2015-11-14T13:21:11Z</time>
      </trkpt>
      <trkpt lat="43.60122" lon="3.39326">
        <ele>249.5</ele>
        <time>2015-11-14T13:21:12Z</time>
      </trkpt>
      <trkpt lat="43.60123" lon="3.39324">
        <ele>249</ele>
        <time>2015-11-14T13:21:13Z</time>
      </trkpt>
      <trkpt lat="43.60125" lon="3.39322">
        <ele>248.5</ele>
        <time>2015-11-14T13:21:14Z</time>
      </trkpt>
      <trkpt lat="43.60127" lon="3.39319">
        <ele>248</ele>
        <time>2015-11-14T13:21:15Z</time>
      </trkpt>
      <trkpt lat="43.60127" lon="3.39316">
        <ele>247</ele>
        <time>2015-11-14T13:21:16Z</time>
      </trkpt>
      <trkpt lat="43.60127" lon="3.39313">
        <ele>246.5</ele>
        <time>2015-11-14T13:21:17Z</time>
      </trkpt>
      <trkpt lat="43.60127" lon="3.39309">
        <ele>245</ele>
        <time>2015-11-14T13:21:18Z</time>
      </trkpt>
      <trkpt lat="43.60127" lon="3.39305">
        <ele>244</ele>
        <time>2015-11-14T13:21:19Z</time>
      </trkpt>
      <trkpt lat="43.60127" lon="3.393">
        <ele>242.5</ele>
        <time>2015-11-14T13:21:20Z</time>
      </trkpt>
      <trkpt lat="43.60127" lon="3.39295">
        <ele>241.5</ele>
        <time>2015-11-14T13:21:21Z</time>
      </trkpt>
      <trkpt lat="43.60128" lon="3.39289">
        <ele>240.5</ele>
        <time>2015-11-14T13:21:22Z</time>
      </trkpt>
      <trkpt lat="43.60128" lon="3.39283">
        <ele>240</ele>
        <time>2015-11-14T13:21:23Z</time>
      </trkpt>
      <trkpt lat="43.60128" lon="3.39277">
        <ele>239.5</ele>
        <time>2015-11-14T13:21:24Z</time>
      </trkpt>
      <trkpt lat="43.60129" lon="3.39271">
        <ele>238</ele>
        <time>2015-11-14T13:21:25Z</time>
      </trkpt>
      <trkpt lat="43.60128" lon="3.39264">
        <ele>237</ele>
        <time>2015-11-14T13:21:26Z</time>
      </trkpt>
      <trkpt lat="43.60126" lon="3.39257">
        <ele>237</ele>
        <time>2015-11-14T13:21:27Z</time>
      </trkpt>
      <trkpt lat="43.60125" lon="3.39252">
        <ele>237</ele>
        <time>2015-11-14T13:21:28Z</time>
      </trkpt>
      <trkpt lat="43.60124" lon="3.39248">
        <ele>236.5</ele>
        <time>2015-11-14T13:21:29Z</time>
      </trkpt>
      <trkpt lat="43.60123" lon="3.39244">
        <ele>236.5</ele>
        <time>2015-11-14T13:21:30Z</time>
      </trkpt>
      <trkpt lat="43.60123" lon="3.39241">
        <ele>235.5</ele>
        <time>2015-11-14T13:21:31Z</time>
      </trkpt>
      <trkpt lat="43.60123" lon="3.39238">
        <ele>235</ele>
        <time>2015-11-14T13:21:32Z</time>
      </trkpt>
      <trkpt lat="43.60123" lon="3.39234">
        <ele>234.5</ele>
        <time>2015-11-14T13:21:33Z</time>
      </trkpt>
      <trkpt lat="43.60123" lon="3.39229">
        <ele>234</ele>
        <time>2015-11-14T13:21:34Z</time>
      </trkpt>
      <trkpt lat="43.60125" lon="3.39223">
        <ele>232.5</ele>
        <time>2015-11-14T13:21:35Z</time>
      </trkpt>
      <trkpt lat="43.60127" lon="3.39217">
        <ele>231</ele>
        <time>2015-11-14T13:21:36Z</time>
      </trkpt>
      <trkpt lat="43.60129" lon="3.39211">
        <ele>230</ele>
        <time>2015-11-14T13:21:37Z</time>
      </trkpt>
      <trkpt lat="43.60131" lon="3.39202">
        <ele>230</ele>
        <time>2015-11-14T13:21:38Z</time>
      </trkpt>
      <trkpt lat="43.60133" lon="3.39195">
        <ele>230.5</ele>
        <time>2015-11-14T13:21:39Z</time>
      </trkpt>
      <trkpt lat="43.60137" lon="3.39191">
        <ele>230</ele>
        <time>2015-11-14T13:21:40Z</time>
      </trkpt>
      <trkpt lat="43.60141" lon="3.39188">
        <ele>229.5</ele>
        <time>2015-11-14T13:21:41Z</time>
      </trkpt>
      <trkpt lat="43.60145" lon="3.39185">
        <ele>229.5</ele>
        <time>2015-11-14T13:21:42Z</time>
      </trkpt>
      <trkpt lat="43.60148" lon="3.39184">
        <ele>230</ele>
        <time>2015-11-14T13:21:43Z</time>
      </trkpt>
      <trkpt lat="43.60151" lon="3.39182">
        <ele>230</ele>
        <time>2015-11-14T13:21:44Z</time>
      </trkpt>
      <trkpt lat="43.60152" lon="3.39179">
        <ele>229.5</ele>
        <time>2015-11-14T13:21:45Z</time>
      </trkpt>
      <trkpt lat="43.60153" lon="3.39176">
        <ele>230</ele>
        <time>2015-11-14T13:21:46Z</time>
      </trkpt>
      <trkpt lat="43.60153" lon="3.39173">
        <ele>230.5</ele>
        <time>2015-11-14T13:21:47Z</time>
      </trkpt>
      <trkpt lat="43.60153" lon="3.39169">
        <ele>231</ele>
        <time>2015-11-14T13:21:48Z</time>
      </trkpt>
      <trkpt lat="43.60152" lon="3.39166">
        <ele>231</ele>
        <time>2015-11-14T13:21:49Z</time>
      </trkpt>
      <trkpt lat="43.60152" lon="3.39164">
        <ele>231</ele>
        <time>2015-11-14T13:21:50Z</time>
      </trkpt>
      <trkpt lat="43.60151" lon="3.3916">
        <ele>231</ele>
        <time>2015-11-14T13:21:51Z</time>
      </trkpt>
      <trkpt lat="43.6015" lon="3.39157">
        <ele>231</ele>
        <time>2015-11-14T13:21:52Z</time>
      </trkpt>
      <trkpt lat="43.60149" lon="3.39152">
        <ele>231.5</ele>
        <time>2015-11-14T13:21:53Z</time>
      </trkpt>
      <trkpt lat="43.60148" lon="3.39148">
        <ele>232</ele>
        <time>2015-11-14T13:21:54Z</time>
      </trkpt>
      <trkpt lat="43.60147" lon="3.39143">
        <ele>232</ele>
        <time>2015-11-14T13:21:55Z</time>
      </trkpt>
      <trkpt lat="43.60146" lon="3.39139">
        <ele>232</ele>
        <time>2015-11-14T13:21:56Z</time>
      </trkpt>
      <trkpt lat="43.60146" lon="3.39134">
        <ele>232</ele>
        <time>2015-11-14T13:21:57Z</time>
      </trkpt>
      <trkpt lat="43.60145" lon="3.39131">
        <ele>232</ele>
        <time>2015-11-14T13:21:58Z</time>
      </trkpt>
      <trkpt lat="43.60144" lon="3.39127">
        <ele>231.5</ele>
        <time>2015-11-14T13:21:59Z</time>
      </trkpt>
      <trkpt lat="43.60144" lon="3.39124">
        <ele>231.5</ele>
        <time>2015-11-14T13:22:00Z</time>
      </trkpt>
      <trkpt lat="43.60143" lon="3.3912">
        <ele>231.5</ele>
        <time>2015-11-14T13:22:01Z</time>
      </trkpt>
      <trkpt lat="43.60142" lon="3.39116">
        <ele>231.5</ele>
        <time>2015-11-14T13:22:02Z</time>
      </trkpt>
      <trkpt lat="43.60142" lon="3.39113">
        <ele>231.5</ele>
        <time>2015-11-14T13:22:03Z</time>
      </trkpt>
      <trkpt lat="43.60141" lon="3.39109">
        <ele>231.5</ele>
        <time>2015-11-14T13:22:04Z</time>
      </trkpt>
      <trkpt lat="43.60141" lon="3.39105">
        <ele>231.5</ele>
        <time>2015-11-14T13:22:05Z</time>
      </trkpt>
      <trkpt lat="43.60141" lon="3.39101">
        <ele>231.5</ele>
        <time>2015-11-14T13:22:06Z</time>
      </trkpt>
      <trkpt lat="43.60141" lon="3.39097">
        <ele>231</ele>
        <time>2015-11-14T13:22:07Z</time>
      </trkpt>
      <trkpt lat="43.60141" lon="3.39093">
        <ele>231</ele>
        <time>2015-11-14T13:22:08Z</time>
      </trkpt>
      <trkpt lat="43.6014" lon="3.39089">
        <ele>230.5</ele>
        <time>2015-11-14T13:22:09Z</time>
      </trkpt>
      <trkpt lat="43.6014" lon="3.39084">
        <ele>230</ele>
        <time>2015-11-14T13:22:10Z</time>
      </trkpt>
      <trkpt lat="43.60141" lon="3.3908">
        <ele>229.5</ele>
        <time>2015-11-14T13:22:11Z</time>
      </trkpt>
      <trkpt lat="43.60141" lon="3.39076">
        <ele>229</ele>
        <time>2015-11-14T13:22:12Z</time>
      </trkpt>
      <trkpt lat="43.60141" lon="3.39071">
        <ele>229</ele>
        <time>2015-11-14T13:22:13Z</time>
      </trkpt>
      <trkpt lat="43.60142" lon="3.39067">
        <ele>228.5</ele>
        <time>2015-11-14T13:22:14Z</time>
      </trkpt>
      <trkpt lat="43.60143" lon="3.39063">
        <ele>228.5</ele>
        <time>2015-11-14T13:22:15Z</time>
      </trkpt>
      <trkpt lat="43.60145" lon="3.39059">
        <ele>228.5</ele>
        <time>2015-11-14T13:22:16Z</time>
      </trkpt>
      <trkpt lat="43.60146" lon="3.39055">
        <ele>228.5</ele>
        <time>2015-11-14T13:22:17Z</time>
      </trkpt>
      <trkpt lat="43.60148" lon="3.39052">
        <ele>228</ele>
        <time>2015-11-14T13:22:18Z</time>
      </trkpt>
      <trkpt lat="43.60151" lon="3.39049">
        <ele>227.5</ele>
        <time>2015-11-14T13:22:19Z</time>
      </trkpt>
      <trkpt lat="43.60154" lon="3.39046">
        <ele>227</ele>
        <time>2015-11-14T13:22:20Z</time>
      </trkpt>
      <trkpt lat="43.60158" lon="3.39043">
        <ele>227.5</ele>
        <time>2015-11-14T13:22:21Z</time>
      </trkpt>
      <trkpt lat="43.60163" lon="3.3904">
        <ele>227</ele>
        <time>2015-11-14T13:22:22Z</time>
      </trkpt>
      <trkpt lat="43.60166" lon="3.39037">
        <ele>227</ele>
        <time>2015-11-14T13:22:23Z</time>
      </trkpt>
      <trkpt lat="43.60171" lon="3.39035">
        <ele>227</ele>
        <time>2015-11-14T13:22:24Z</time>
      </trkpt>
      <trkpt lat="43.60175" lon="3.39032">
        <ele>226.5</ele>
        <time>2015-11-14T13:22:25Z</time>
      </trkpt>
      <trkpt lat="43.6018" lon="3.3903">
        <ele>226.5</ele>
        <time>2015-11-14T13:22:26Z</time>
      </trkpt>
      <trkpt lat="43.60185" lon="3.39028">
        <ele>226</ele>
        <time>2015-11-14T13:22:27Z</time>
      </trkpt>
      <trkpt lat="43.60191" lon="3.39025">
        <ele>225.5</ele>
        <time>2015-11-14T13:22:28Z</time>
      </trkpt>
      <trkpt lat="43.60197" lon="3.39023">
        <ele>225</ele>
        <time>2015-11-14T13:22:29Z</time>
      </trkpt>
      <trkpt lat="43.60203" lon="3.39021">
        <ele>225</ele>
        <time>2015-11-14T13:22:30Z</time>
      </trkpt>
      <trkpt lat="43.60209" lon="3.39018">
        <ele>225</ele>
        <time>2015-11-14T13:22:31Z</time>
      </trkpt>
      <trkpt lat="43.60215" lon="3.39016">
        <ele>224.5</ele>
        <time>2015-11-14T13:22:32Z</time>
      </trkpt>
      <trkpt lat="43.60221" lon="3.39015">
        <ele>224.5</ele>
        <time>2015-11-14T13:22:33Z</time>
      </trkpt>
      <trkpt lat="43.60227" lon="3.39013">
        <ele>225</ele>
        <time>2015-11-14T13:22:34Z</time>
      </trkpt>
      <trkpt lat="43.60232" lon="3.39011">
        <ele>225</ele>
        <time>2015-11-14T13:22:35Z</time>
      </trkpt>
      <trkpt lat="43.60237" lon="3.39009">
        <ele>225</ele>
        <time>2015-11-14T13:22:36Z</time>
      </trkpt>
      <trkpt lat="43.60242" lon="3.39008">
        <ele>225</ele>
        <time>2015-11-14T13:22:37Z</time>
      </trkpt>
      <trkpt lat="43.60246" lon="3.39007">
        <ele>225</ele>
        <time>2015-11-14T13:22:38Z</time>
      </trkpt>
      <trkpt lat="43.60251" lon="3.39005">
        <ele>225.5</ele>
        <time>2015-11-14T13:22:39Z</time>
      </trkpt>
      <trkpt lat="43.60255" lon="3.39004">
        <ele>225.5</ele>
        <time>2015-11-14T13:22:40Z</time>
      </trkpt>
      <trkpt lat="43.60259" lon="3.39003">
        <ele>225.5</ele>
        <time>2015-11-14T13:22:41Z</time>
      </trkpt>
      <trkpt lat="43.60263" lon="3.39002">
        <ele>226</ele>
        <time>2015-11-14T13:22:42Z</time>
      </trkpt>
      <trkpt lat="43.60267" lon="3.39002">
        <ele>226</ele>
        <time>2015-11-14T13:22:43Z</time>
      </trkpt>
      <trkpt lat="43.6027" lon="3.39001">
        <ele>226</ele>
        <time>2015-11-14T13:22:44Z</time>
      </trkpt>
      <trkpt lat="43.60273" lon="3.39001">
        <ele>226.5</ele>
        <time>2015-11-14T13:22:45Z</time>
      </trkpt>
      <trkpt lat="43.60277" lon="3.39003">
        <ele>225.5</ele>
        <time>2015-11-14T13:22:46Z</time>
      </trkpt>
      <trkpt lat="43.60279" lon="3.39004">
        <ele>225.5</ele>
        <time>2015-11-14T13:22:47Z</time>
      </trkpt>
      <trkpt lat="43.60281" lon="3.39006">
        <ele>225.5</ele>
        <time>2015-11-14T13:22:48Z</time>
      </trkpt>
      <trkpt lat="43.60283" lon="3.39008">
        <ele>225</ele>
        <time>2015-11-14T13:22:49Z</time>
      </trkpt>
      <trkpt lat="43.60284" lon="3.39011">
        <ele>225</ele>
        <time>2015-11-14T13:22:50Z</time>
      </trkpt>
      <trkpt lat="43.60285" lon="3.39015">
        <ele>225</ele>
        <time>2015-11-14T13:22:51Z</time>
      </trkpt>
      <trkpt lat="43.60285" lon="3.39019">
        <ele>225</ele>
        <time>2015-11-14T13:22:52Z</time>
      </trkpt>
      <trkpt lat="43.60286" lon="3.39023">
        <ele>224.5</ele>
        <time>2015-11-14T13:22:53Z</time>
      </trkpt>
      <trkpt lat="43.60287" lon="3.39028">
        <ele>224.5</ele>
        <time>2015-11-14T13:22:54Z</time>
      </trkpt>
      <trkpt lat="43.60289" lon="3.39033">
        <ele>223.5</ele>
        <time>2015-11-14T13:22:55Z</time>
      </trkpt>
      <trkpt lat="43.6029" lon="3.39038">
        <ele>223</ele>
        <time>2015-11-14T13:22:56Z</time>
      </trkpt>
      <trkpt lat="43.60291" lon="3.39043">
        <ele>222.5</ele>
        <time>2015-11-14T13:22:57Z</time>
      </trkpt>
      <trkpt lat="43.60293" lon="3.39048">
        <ele>222.5</ele>
        <time>2015-11-14T13:22:58Z</time>
      </trkpt>
      <trkpt lat="43.60294" lon="3.39053">
        <ele>222.5</ele>
        <time>2015-11-14T13:22:59Z</time>
      </trkpt>
      <trkpt lat="43.60294" lon="3.39059">
        <ele>222</ele>
        <time>2015-11-14T13:23:00Z</time>
      </trkpt>
      <trkpt lat="43.60296" lon="3.39064">
        <ele>222</ele>
        <time>2015-11-14T13:23:01Z</time>
      </trkpt>
      <trkpt lat="43.60297" lon="3.3907">
        <ele>222</ele>
        <time>2015-11-14T13:23:02Z</time>
      </trkpt>
      <trkpt lat="43.60298" lon="3.39076">
        <ele>222</ele>
        <time>2015-11-14T13:23:03Z</time>
      </trkpt>
      <trkpt lat="43.60299" lon="3.39082">
        <ele>221.5</ele>
        <time>2015-11-14T13:23:04Z</time>
      </trkpt>
      <trkpt lat="43.60301" lon="3.39088">
        <ele>221.5</ele>
        <time>2015-11-14T13:23:05Z</time>
      </trkpt>
      <trkpt lat="43.60302" lon="3.39095">
        <ele>221.5</ele>
        <time>2015-11-14T13:23:06Z</time>
      </trkpt>
      <trkpt lat="43.60304" lon="3.39103">
        <ele>222</ele>
        <time>2015-11-14T13:23:07Z</time>
      </trkpt>
      <trkpt lat="43.60305" lon="3.3911">
        <ele>222</ele>
        <time>2015-11-14T13:23:08Z</time>
      </trkpt>
      <trkpt lat="43.60307" lon="3.39117">
        <ele>222</ele>
        <time>2015-11-14T13:23:09Z</time>
      </trkpt>
      <trkpt lat="43.60308" lon="3.39125">
        <ele>222</ele>
        <time>2015-11-14T13:23:10Z</time>
      </trkpt>
      <trkpt lat="43.60309" lon="3.39132">
        <ele>221.5</ele>
        <time>2015-11-14T13:23:11Z</time>
      </trkpt>
      <trkpt lat="43.60311" lon="3.39139">
        <ele>221.5</ele>
        <time>2015-11-14T13:23:12Z</time>
      </trkpt>
      <trkpt lat="43.60312" lon="3.39146">
        <ele>221.5</ele>
        <time>2015-11-14T13:23:13Z</time>
      </trkpt>
      <trkpt lat="43.60314" lon="3.39154">
        <ele>221.5</ele>
        <time>2015-11-14T13:23:14Z</time>
      </trkpt>
      <trkpt lat="43.60315" lon="3.39161">
        <ele>221.5</ele>
        <time>2015-11-14T13:23:15Z</time>
      </trkpt>
      <trkpt lat="43.60317" lon="3.39168">
        <ele>221.5</ele>
        <time>2015-11-14T13:23:16Z</time>
      </trkpt>
      <trkpt lat="43.60318" lon="3.39174">
        <ele>221.5</ele>
        <time>2015-11-14T13:23:17Z</time>
      </trkpt>
      <trkpt lat="43.60319" lon="3.39181">
        <ele>221.5</ele>
        <time>2015-11-14T13:23:18Z</time>
      </trkpt>
      <trkpt lat="43.6032" lon="3.39187">
        <ele>221.5</ele>
        <time>2015-11-14T13:23:19Z</time>
      </trkpt>
      <trkpt lat="43.60322" lon="3.39193">
        <ele>221.5</ele>
        <time>2015-11-14T13:23:20Z</time>
      </trkpt>
      <trkpt lat="43.60323" lon="3.392">
        <ele>221.5</ele>
        <time>2015-11-14T13:23:21Z</time>
      </trkpt>
      <trkpt lat="43.60324" lon="3.39206">
        <ele>221.5</ele>
        <time>2015-11-14T13:23:22Z</time>
      </trkpt>
      <trkpt lat="43.60326" lon="3.39211">
        <ele>221.5</ele>
        <time>2015-11-14T13:23:23Z</time>
      </trkpt>
      <trkpt lat="43.60327" lon="3.39217">
        <ele>221.5</ele>
        <time>2015-11-14T13:23:24Z</time>
      </trkpt>
      <trkpt lat="43.60328" lon="3.39223">
        <ele>221</ele>
        <time>2015-11-14T13:23:24Z</time>
      </trkpt>
      <trkpt lat="43.60329" lon="3.39229">
        <ele>221</ele>
        <time>2015-11-14T13:23:26Z</time>
      </trkpt>
      <trkpt lat="43.6033" lon="3.39234">
        <ele>221</ele>
        <time>2015-11-14T13:23:26Z</time>
      </trkpt>
      <trkpt lat="43.60331" lon="3.3924">
        <ele>221</ele>
        <time>2015-11-14T13:23:27Z</time>
      </trkpt>
      <trkpt lat="43.60332" lon="3.39246">
        <ele>221.5</ele>
        <time>2015-11-14T13:23:28Z</time>
      </trkpt>
      <trkpt lat="43.60333" lon="3.39252">
        <ele>221.5</ele>
        <time>2015-11-14T13:23:29Z</time>
      </trkpt>
      <trkpt lat="43.60334" lon="3.39257">
        <ele>221.5</ele>
        <time>2015-11-14T13:23:30Z</time>
      </trkpt>
      <trkpt lat="43.60335" lon="3.39263">
        <ele>221.5</ele>
        <time>2015-11-14T13:23:31Z</time>
      </trkpt>
      <trkpt lat="43.60336" lon="3.39268">
        <ele>221.5</ele>
        <time>2015-11-14T13:23:32Z</time>
      </trkpt>
      <trkpt lat="43.60337" lon="3.39273">
        <ele>221.5</ele>
        <time>2015-11-14T13:23:33Z</time>
      </trkpt>
      <trkpt lat="43.60339" lon="3.39278">
        <ele>221.5</ele>
        <time>2015-11-14T13:23:34Z</time>
      </trkpt>
      <trkpt lat="43.6034" lon="3.39283">
        <ele>221</ele>
        <time>2015-11-14T13:23:35Z</time>
      </trkpt>
      <trkpt lat="43.60342" lon="3.39288">
        <ele>221.5</ele>
        <time>2015-11-14T13:23:36Z</time>
      </trkpt>
      <trkpt lat="43.60343" lon="3.39293">
        <ele>221</ele>
        <time>2015-11-14T13:23:37Z</time>
      </trkpt>
      <trkpt lat="43.60345" lon="3.39297">
        <ele>221</ele>
        <time>2015-11-14T13:23:38Z</time>
      </trkpt>
      <trkpt lat="43.60348" lon="3.39301">
        <ele>221</ele>
        <time>2015-11-14T13:23:39Z</time>
      </trkpt>
      <trkpt lat="43.6035" lon="3.39305">
        <ele>221</ele>
        <time>2015-11-14T13:23:40Z</time>
      </trkpt>
      <trkpt lat="43.60353" lon="3.39308">
        <ele>221</ele>
        <time>2015-11-14T13:23:41Z</time>
      </trkpt>
      <trkpt lat="43.60357" lon="3.39311">
        <ele>221</ele>
        <time>2015-11-14T13:23:42Z</time>
      </trkpt>
      <trkpt lat="43.6036" lon="3.39313">
        <ele>221</ele>
        <time>2015-11-14T13:23:43Z</time>
      </trkpt>
      <trkpt lat="43.60364" lon="3.39315">
        <ele>221</ele>
        <time>2015-11-14T13:23:44Z</time>
      </trkpt>
      <trkpt lat="43.60367" lon="3.39317">
        <ele>221</ele>
        <time>2015-11-14T13:23:45Z</time>
      </trkpt>
      <trkpt lat="43.60371" lon="3.39319">
        <ele>221</ele>
        <time>2015-11-14T13:23:46Z</time>
      </trkpt>
      <trkpt lat="43.60374" lon="3.3932">
        <ele>221</ele>
        <time>2015-11-14T13:23:47Z</time>
      </trkpt>
      <trkpt lat="43.60378" lon="3.39322">
        <ele>220.5</ele>
        <time>2015-11-14T13:23:48Z</time>
      </trkpt>
      <trkpt lat="43.60382" lon="3.39323">
        <ele>220.5</ele>
        <time>2015-11-14T13:23:49Z</time>
      </trkpt>
      <trkpt lat="43.60386" lon="3.39323">
        <ele>220.5</ele>
        <time>2015-11-14T13:23:50Z</time>
      </trkpt>
      <trkpt lat="43.60389" lon="3.39323">
        <ele>220.5</ele>
        <time>2015-11-14T13:23:51Z</time>
      </trkpt>
      <trkpt lat="43.60393" lon="3.39323">
        <ele>221</ele>
        <time>2015-11-14T13:23:52Z</time>
      </trkpt>
      <trkpt lat="43.60397" lon="3.39322">
        <ele>220.5</ele>
        <time>2015-11-14T13:23:53Z</time>
      </trkpt>
      <trkpt lat="43.604" lon="3.3932">
        <ele>221</ele>
        <time>2015-11-14T13:23:54Z</time>
      </trkpt>
      <trkpt lat="43.60404" lon="3.39319">
        <ele>220.5</ele>
        <time>2015-11-14T13:23:55Z</time>
      </trkpt>
      <trkpt lat="43.60408" lon="3.39318">
        <ele>221</ele>
        <time>2015-11-14T13:23:56Z</time>
      </trkpt>
      <trkpt lat="43.60411" lon="3.39317">
        <ele>221</ele>
        <time>2015-11-14T13:23:57Z</time>
      </trkpt>
      <trkpt lat="43.60415" lon="3.39315">
        <ele>220.5</ele>
        <time>2015-11-14T13:23:58Z</time>
      </trkpt>
      <trkpt lat="43.60419" lon="3.39313">
        <ele>221</ele>
        <time>2015-11-14T13:23:59Z</time>
      </trkpt>
      <trkpt lat="43.60422" lon="3.39312">
        <ele>221</ele>
        <time>2015-11-14T13:24:00Z</time>
      </trkpt>
      <trkpt lat="43.60426" lon="3.3931">
        <ele>221</ele>
        <time>2015-11-14T13:24:01Z</time>
      </trkpt>
      <trkpt lat="43.6043" lon="3.39308">
        <ele>221</ele>
        <time>2015-11-14T13:24:02Z</time>
      </trkpt>
      <trkpt lat="43.60433" lon="3.39307">
        <ele>221</ele>
        <time>2015-11-14T13:24:03Z</time>
      </trkpt>
      <trkpt lat="43.60437" lon="3.39305">
        <ele>220.5</ele>
        <time>2015-11-14T13:24:04Z</time>
      </trkpt>
      <trkpt lat="43.60441" lon="3.39302">
        <ele>220.5</ele>
        <time>2015-11-14T13:24:05Z</time>
      </trkpt>
      <trkpt lat="43.60444" lon="3.393">
        <ele>220</ele>
        <time>2015-11-14T13:24:06Z</time>
      </trkpt>
      <trkpt lat="43.60448" lon="3.39298">
        <ele>220</ele>
        <time>2015-11-14T13:24:07Z</time>
      </trkpt>
      <trkpt lat="43.60451" lon="3.39295">
        <ele>219.5</ele>
        <time>2015-11-14T13:24:08Z</time>
      </trkpt>
      <trkpt lat="43.60455" lon="3.39292">
        <ele>219</ele>
        <time>2015-11-14T13:24:09Z</time>
      </trkpt>
      <trkpt lat="43.60458" lon="3.39289">
        <ele>219</ele>
        <time>2015-11-14T13:24:10Z</time>
      </trkpt>
      <trkpt lat="43.60461" lon="3.39285">
        <ele>219</ele>
        <time>2015-11-14T13:24:11Z</time>
      </trkpt>
      <trkpt lat="43.60464" lon="3.39282">
        <ele>218.5</ele>
        <time>2015-11-14T13:24:12Z</time>
      </trkpt>
      <trkpt lat="43.60467" lon="3.39277">
        <ele>218</ele>
        <time>2015-11-14T13:24:13Z</time>
      </trkpt>
      <trkpt lat="43.6047" lon="3.39273">
        <ele>218.5</ele>
        <time>2015-11-14T13:24:14Z</time>
      </trkpt>
      <trkpt lat="43.60473" lon="3.39269">
        <ele>218.5</ele>
        <time>2015-11-14T13:24:15Z</time>
      </trkpt>
      <trkpt lat="43.60476" lon="3.39266">
        <ele>218.5</ele>
        <time>2015-11-14T13:24:16Z</time>
      </trkpt>
      <trkpt lat="43.6048" lon="3.39263">
        <ele>218.5</ele>
        <time>2015-11-14T13:24:17Z</time>
      </trkpt>
      <trkpt lat="43.60484" lon="3.3926">
        <ele>219</ele>
        <time>2015-11-14T13:24:18Z</time>
      </trkpt>
      <trkpt lat="43.60489" lon="3.3926">
        <ele>219</ele>
        <time>2015-11-14T13:24:19Z</time>
      </trkpt>
      <trkpt lat="43.60494" lon="3.3926">
        <ele>219</ele>
        <time>2015-11-14T13:24:20Z</time>
      </trkpt>
      <trkpt lat="43.60499" lon="3.39261">
        <ele>219</ele>
        <time>2015-11-14T13:24:21Z</time>
      </trkpt>
      <trkpt lat="43.60504" lon="3.39264">
        <ele>218.5</ele>
        <time>2015-11-14T13:24:22Z</time>
      </trkpt>
      <trkpt lat="43.60508" lon="3.39268">
        <ele>218.5</ele>
        <time>2015-11-14T13:24:23Z</time>
      </trkpt>
      <trkpt lat="43.60512" lon="3.39274">
        <ele>218</ele>
        <time>2015-11-14T13:24:24Z</time>
      </trkpt>
      <trkpt lat="43.60514" lon="3.39281">
        <ele>218</ele>
        <time>2015-11-14T13:24:25Z</time>
      </trkpt>
      <trkpt lat="43.60516" lon="3.39288">
        <ele>218</ele>
        <time>2015-11-14T13:24:26Z</time>
      </trkpt>
      <trkpt lat="43.60516" lon="3.39296">
        <ele>218</ele>
        <time>2015-11-14T13:24:27Z</time>
      </trkpt>
      <trkpt lat="43.60516" lon="3.39304">
        <ele>218</ele>
        <time>2015-11-14T13:24:28Z</time>
      </trkpt>
      <trkpt lat="43.60515" lon="3.39312">
        <ele>217.5</ele>
        <time>2015-11-14T13:24:29Z</time>
      </trkpt>
      <trkpt lat="43.60514" lon="3.3932">
        <ele>217.5</ele>
        <time>2015-11-14T13:24:30Z</time>
      </trkpt>
      <trkpt lat="43.60512" lon="3.39328">
        <ele>217</ele>
        <time>2015-11-14T13:24:31Z</time>
      </trkpt>
      <trkpt lat="43.60511" lon="3.39335">
        <ele>217</ele>
        <time>2015-11-14T13:24:32Z</time>
      </trkpt>
      <trkpt lat="43.6051" lon="3.39343">
        <ele>216.5</ele>
        <time>2015-11-14T13:24:33Z</time>
      </trkpt>
      <trkpt lat="43.60508" lon="3.39351">
        <ele>216</ele>
        <time>2015-11-14T13:24:34Z</time>
      </trkpt>
      <trkpt lat="43.60507" lon="3.39359">
        <ele>215.5</ele>
        <time>2015-11-14T13:24:35Z</time>
      </trkpt>
      <trkpt lat="43.60506" lon="3.39367">
        <ele>215.5</ele>
        <time>2015-11-14T13:24:36Z</time>
      </trkpt>
      <trkpt lat="43.60506" lon="3.39375">
        <ele>215</ele>
        <time>2015-11-14T13:24:37Z</time>
      </trkpt>
      <trkpt lat="43.60506" lon="3.39382">
        <ele>214.5</ele>
        <time>2015-11-14T13:24:38Z</time>
      </trkpt>
      <trkpt lat="43.60507" lon="3.3939">
        <ele>214</ele>
        <time>2015-11-14T13:24:39Z</time>
      </trkpt>
      <trkpt lat="43.60509" lon="3.39398">
        <ele>213.5</ele>
        <time>2015-11-14T13:24:40Z</time>
      </trkpt>
      <trkpt lat="43.60511" lon="3.39405">
        <ele>213</ele>
        <time>2015-11-14T13:24:41Z</time>
      </trkpt>
      <trkpt lat="43.60513" lon="3.39413">
        <ele>213</ele>
        <time>2015-11-14T13:24:42Z</time>
      </trkpt>
      <trkpt lat="43.60516" lon="3.39421">
        <ele>212.5</ele>
        <time>2015-11-14T13:24:43Z</time>
      </trkpt>
      <trkpt lat="43.60519" lon="3.39428">
        <ele>212</ele>
        <time>2015-11-14T13:24:44Z</time>
      </trkpt>
      <trkpt lat="43.60522" lon="3.39436">
        <ele>211.5</ele>
        <time>2015-11-14T13:24:45Z</time>
      </trkpt>
      <trkpt lat="43.60525" lon="3.39443">
        <ele>211.5</ele>
        <time>2015-11-14T13:24:46Z</time>
      </trkpt>
      <trkpt lat="43.60528" lon="3.39451">
        <ele>211</ele>
        <time>2015-11-14T13:24:47Z</time>
      </trkpt>
      <trkpt lat="43.60532" lon="3.39459">
        <ele>211</ele>
        <time>2015-11-14T13:24:48Z</time>
      </trkpt>
      <trkpt lat="43.60536" lon="3.39466">
        <ele>210.5</ele>
        <time>2015-11-14T13:24:49Z</time>
      </trkpt>
      <trkpt lat="43.6054" lon="3.39472">
        <ele>210</ele>
        <time>2015-11-14T13:24:50Z</time>
      </trkpt>
      <trkpt lat="43.60544" lon="3.39478">
        <ele>209.5</ele>
        <time>2015-11-14T13:24:51Z</time>
      </trkpt>
      <trkpt lat="43.60549" lon="3.39483">
        <ele>209.5</ele>
        <time>2015-11-14T13:24:52Z</time>
      </trkpt>
      <trkpt lat="43.60554" lon="3.39488">
        <ele>209</ele>
        <time>2015-11-14T13:24:53Z</time>
      </trkpt>
      <trkpt lat="43.6056" lon="3.39493">
        <ele>208.5</ele>
        <time>2015-11-14T13:24:54Z</time>
      </trkpt>
      <trkpt lat="43.60565" lon="3.39497">
        <ele>208</ele>
        <time>2015-11-14T13:24:55Z</time>
      </trkpt>
      <trkpt lat="43.6057" lon="3.39501">
        <ele>207.5</ele>
        <time>2015-11-14T13:24:56Z</time>
      </trkpt>
      <trkpt lat="43.60576" lon="3.39505">
        <ele>207</ele>
        <time>2015-11-14T13:24:57Z</time>
      </trkpt>
      <trkpt lat="43.60581" lon="3.39509">
        <ele>207</ele>
        <time>2015-11-14T13:24:58Z</time>
      </trkpt>
      <trkpt lat="43.60586" lon="3.39512">
        <ele>206.5</ele>
        <time>2015-11-14T13:24:59Z</time>
      </trkpt>
      <trkpt lat="43.60591" lon="3.39516">
        <ele>206</ele>
        <time>2015-11-14T13:25:00Z</time>
      </trkpt>
      <trkpt lat="43.60596" lon="3.39519">
        <ele>206</ele>
        <time>2015-11-14T13:25:01Z</time>
      </trkpt>
      <trkpt lat="43.60602" lon="3.39522">
        <ele>205.5</ele>
        <time>2015-11-14T13:25:02Z</time>
      </trkpt>
      <trkpt lat="43.60607" lon="3.39526">
        <ele>205.5</ele>
        <time>2015-11-14T13:25:03Z</time>
      </trkpt>
      <trkpt lat="43.60612" lon="3.39529">
        <ele>205</ele>
        <time>2015-11-14T13:25:04Z</time>
      </trkpt>
      <trkpt lat="43.60617" lon="3.39532">
        <ele>204.5</ele>
        <time>2015-11-14T13:25:05Z</time>
      </trkpt>
      <trkpt lat="43.60622" lon="3.39536">
        <ele>204</ele>
        <time>2015-11-14T13:25:06Z</time>
      </trkpt>
      <trkpt lat="43.60627" lon="3.39539">
        <ele>203.5</ele>
        <time>2015-11-14T13:25:07Z</time>
      </trkpt>
      <trkpt lat="43.60631" lon="3.39542">
        <ele>203.5</ele>
        <time>2015-11-14T13:25:08Z</time>
      </trkpt>
      <trkpt lat="43.60636" lon="3.39542">
        <ele>204</ele>
        <time>2015-11-14T13:25:09Z</time>
      </trkpt>
      <trkpt lat="43.60641" lon="3.39539">
        <ele>203</ele>
        <time>2015-11-14T13:25:10Z</time>
      </trkpt>
      <trkpt lat="43.60645" lon="3.39534">
        <ele>203</ele>
        <time>2015-11-14T13:25:11Z</time>
      </trkpt>
      <trkpt lat="43.60647" lon="3.39529">
        <ele>203.5</ele>
        <time>2015-11-14T13:25:12Z</time>
      </trkpt>
      <trkpt lat="43.60649" lon="3.39525">
        <ele>204</ele>
        <time>2015-11-14T13:25:13Z</time>
      </trkpt>
      <trkpt lat="43.60651" lon="3.39521">
        <ele>205.5</ele>
        <time>2015-11-14T13:25:14Z</time>
      </trkpt>
      <trkpt lat="43.60653" lon="3.39518">
        <ele>206</ele>
        <time>2015-11-14T13:25:15Z</time>
      </trkpt>
      <trkpt lat="43.60655" lon="3.39515">
        <ele>206.5</ele>
        <time>2015-11-14T13:25:16Z</time>
      </trkpt>
      <trkpt lat="43.60657" lon="3.39513">
        <ele>206.5</ele>
        <time>2015-11-14T13:25:17Z</time>
      </trkpt>
      <trkpt lat="43.60659" lon="3.3951">
        <ele>207</ele>
        <time>2015-11-14T13:25:18Z</time>
      </trkpt>
      <trkpt lat="43.6066" lon="3.39509">
        <ele>207.5</ele>
        <time>2015-11-14T13:25:19Z</time>
      </trkpt>
      <trkpt lat="43.60662" lon="3.39508">
        <ele>207.5</ele>
        <time>2015-11-14T13:25:20Z</time>
      </trkpt>
      <trkpt lat="43.60664" lon="3.39507">
        <ele>208</ele>
        <time>2015-11-14T13:25:21Z</time>
      </trkpt>
      <trkpt lat="43.60665" lon="3.39506">
        <ele>208.5</ele>
        <time>2015-11-14T13:25:22Z</time>
      </trkpt>
      <trkpt lat="43.60667" lon="3.39505">
        <ele>209</ele>
        <time>2015-11-14T13:25:23Z</time>
      </trkpt>
      <trkpt lat="43.60668" lon="3.39504">
        <ele>209</ele>
        <time>2015-11-14T13:25:24Z</time>
      </trkpt>
      <trkpt lat="43.6067" lon="3.39503">
        <ele>209.5</ele>
        <time>2015-11-14T13:25:25Z</time>
      </trkpt>
      <trkpt lat="43.60672" lon="3.39502">
        <ele>210</ele>
        <time>2015-11-14T13:25:26Z</time>
      </trkpt>
      <trkpt lat="43.60674" lon="3.39501">
        <ele>210.5</ele>
        <time>2015-11-14T13:25:27Z</time>
      </trkpt>
      <trkpt lat="43.60675" lon="3.395">
        <ele>211</ele>
        <time>2015-11-14T13:25:28Z</time>
      </trkpt>
      <trkpt lat="43.60677" lon="3.39499">
        <ele>211.5</ele>
        <time>2015-11-14T13:25:29Z</time>
      </trkpt>
      <trkpt lat="43.60678" lon="3.39498">
        <ele>211.5</ele>
        <time>2015-11-14T13:25:30Z</time>
      </trkpt>
      <trkpt lat="43.6068" lon="3.39497">
        <ele>211.5</ele>
        <time>2015-11-14T13:25:31Z</time>
      </trkpt>
      <trkpt lat="43.60682" lon="3.39496">
        <ele>211.5</ele>
        <time>2015-11-14T13:25:32Z</time>
      </trkpt>
      <trkpt lat="43.60684" lon="3.39495">
        <ele>212.5</ele>
        <time>2015-11-14T13:25:33Z</time>
      </trkpt>
      <trkpt lat="43.60686" lon="3.39495">
        <ele>212</ele>
        <time>2015-11-14T13:25:34Z</time>
      </trkpt>
      <trkpt lat="43.60688" lon="3.39494">
        <ele>212.5</ele>
        <time>2015-11-14T13:25:35Z</time>
      </trkpt>
      <trkpt lat="43.6069" lon="3.39494">
        <ele>212.5</ele>
        <time>2015-11-14T13:25:36Z</time>
      </trkpt>
      <trkpt lat="43.60692" lon="3.39493">
        <ele>212.5</ele>
        <time>2015-11-14T13:25:37Z</time>
      </trkpt>
      <trkpt lat="43.60695" lon="3.39493">
        <ele>212.5</ele>
        <time>2015-11-14T13:25:38Z</time>
      </trkpt>
      <trkpt lat="43.60697" lon="3.39492">
        <ele>213</ele>
        <time>2015-11-14T13:25:39Z</time>
      </trkpt>
      <trkpt lat="43.60699" lon="3.39492">
        <ele>213</ele>
        <time>2015-11-14T13:25:40Z</time>
      </trkpt>
      <trkpt lat="43.60701" lon="3.39491">
        <ele>213</ele>
        <time>2015-11-14T13:25:41Z</time>
      </trkpt>
      <trkpt lat="43.60703" lon="3.39489">
        <ele>214</ele>
        <time>2015-11-14T13:25:42Z</time>
      </trkpt>
      <trkpt lat="43.60704" lon="3.39488">
        <ele>214</ele>
        <time>2015-11-14T13:25:43Z</time>
      </trkpt>
      <trkpt lat="43.60706" lon="3.39486">
        <ele>214.5</ele>
        <time>2015-11-14T13:25:44Z</time>
      </trkpt>
      <trkpt lat="43.60708" lon="3.39485">
        <ele>215.5</ele>
        <time>2015-11-14T13:25:45Z</time>
      </trkpt>
      <trkpt lat="43.60709" lon="3.39484">
        <ele>216</ele>
        <time>2015-11-14T13:25:46Z</time>
      </trkpt>
      <trkpt lat="43.60711" lon="3.39483">
        <ele>216.5</ele>
        <time>2015-11-14T13:25:47Z</time>
      </trkpt>
      <trkpt lat="43.60713" lon="3.39482">
        <ele>217</ele>
        <time>2015-11-14T13:25:48Z</time>
      </trkpt>
      <trkpt lat="43.60715" lon="3.39481">
        <ele>217.5</ele>
        <time>2015-11-14T13:25:49Z</time>
      </trkpt>
      <trkpt lat="43.60716" lon="3.39481">
        <ele>218</ele>
        <time>2015-11-14T13:25:50Z</time>
      </trkpt>
      <trkpt lat="43.60718" lon="3.3948">
        <ele>218.5</ele>
        <time>2015-11-14T13:25:51Z</time>
      </trkpt>
      <trkpt lat="43.60719" lon="3.39478">
        <ele>219</ele>
        <time>2015-11-14T13:25:52Z</time>
      </trkpt>
      <trkpt lat="43.60721" lon="3.39478">
        <ele>219.5</ele>
        <time>2015-11-14T13:25:53Z</time>
      </trkpt>
      <trkpt lat="43.60723" lon="3.39477">
        <ele>220.5</ele>
        <time>2015-11-14T13:25:54Z</time>
      </trkpt>
      <trkpt lat="43.60724" lon="3.39476">
        <ele>220.5</ele>
        <time>2015-11-14T13:25:55Z</time>
      </trkpt>
      <trkpt lat="43.60726" lon="3.39475">
        <ele>221</ele>
        <time>2015-11-14T13:25:56Z</time>
      </trkpt>
      <trkpt lat="43.60727" lon="3.39474">
        <ele>221.5</ele>
        <time>2015-11-14T13:25:57Z</time>
      </trkpt>
      <trkpt lat="43.60728" lon="3.39473">
        <ele>222.5</ele>
        <time>2015-11-14T13:25:58Z</time>
      </trkpt>
      <trkpt lat="43.6073" lon="3.39472">
        <ele>222.5</ele>
        <time>2015-11-14T13:25:59Z</time>
      </trkpt>
      <trkpt lat="43.60731" lon="3.39471">
        <ele>223.5</ele>
        <time>2015-11-14T13:26:00Z</time>
      </trkpt>
      <trkpt lat="43.60732" lon="3.3947">
        <ele>224.5</ele>
        <time>2015-11-14T13:26:01Z</time>
      </trkpt>
      <trkpt lat="43.60733" lon="3.39468">
        <ele>225</ele>
        <time>2015-11-14T13:26:02Z</time>
      </trkpt>
      <trkpt lat="43.60734" lon="3.39467">
        <ele>226</ele>
        <time>2015-11-14T13:26:03Z</time>
      </trkpt>
      <trkpt lat="43.60735" lon="3.39466">
        <ele>226.5</ele>
        <time>2015-11-14T13:26:04Z</time>
      </trkpt>
      <trkpt lat="43.60736" lon="3.39465">
        <ele>226.5</ele>
        <time>2015-11-14T13:26:05Z</time>
      </trkpt>
      <trkpt lat="43.60738" lon="3.39464">
        <ele>227</ele>
        <time>2015-11-14T13:26:06Z</time>
      </trkpt>
      <trkpt lat="43.60739" lon="3.39463">
        <ele>227.5</ele>
        <time>2015-11-14T13:26:07Z</time>
      </trkpt>
      <trkpt lat="43.6074" lon="3.39461">
        <ele>227.5</ele>
        <time>2015-11-14T13:26:08Z</time>
      </trkpt>
      <trkpt lat="43.60741" lon="3.3946">
        <ele>228</ele>
        <time>2015-11-14T13:26:09Z</time>
      </trkpt>
      <trkpt lat="43.60742" lon="3.39458">
        <ele>228.5</ele>
        <time>2015-11-14T13:26:10Z</time>
      </trkpt>
      <trkpt lat="43.60743" lon="3.39457">
        <ele>228.5</ele>
        <time>2015-11-14T13:26:11Z</time>
      </trkpt>
      <trkpt lat="43.60745" lon="3.39456">
        <ele>229</ele>
        <time>2015-11-14T13:26:12Z</time>
      </trkpt>
      <trkpt lat="43.60746" lon="3.39454">
        <ele>229</ele>
        <time>2015-11-14T13:26:13Z</time>
      </trkpt>
      <trkpt lat="43.60748" lon="3.39453">
        <ele>229</ele>
        <time>2015-11-14T13:26:14Z</time>
      </trkpt>
      <trkpt lat="43.60749" lon="3.39452">
        <ele>229</ele>
        <time>2015-11-14T13:26:15Z</time>
      </trkpt>
      <trkpt lat="43.6075" lon="3.3945">
        <ele>230</ele>
        <time>2015-11-14T13:26:16Z</time>
      </trkpt>
      <trkpt lat="43.60751" lon="3.39449">
        <ele>230.5</ele>
        <time>2015-11-14T13:26:17Z</time>
      </trkpt>
      <trkpt lat="43.60752" lon="3.39447">
        <ele>231</ele>
        <time>2015-11-14T13:26:18Z</time>
      </trkpt>
      <trkpt lat="43.60753" lon="3.39445">
        <ele>231.5</ele>
        <time>2015-11-14T13:26:19Z</time>
      </trkpt>
      <trkpt lat="43.60754" lon="3.39444">
        <ele>232</ele>
        <time>2015-11-14T13:26:20Z</time>
      </trkpt>
      <trkpt lat="43.60755" lon="3.39442">
        <ele>232.5</ele>
        <time>2015-11-14T13:26:21Z</time>
      </trkpt>
      <trkpt lat="43.60756" lon="3.39441">
        <ele>233</ele>
        <time>2015-11-14T13:26:22Z</time>
      </trkpt>
      <trkpt lat="43.60756" lon="3.39439">
        <ele>233.5</ele>
        <time>2015-11-14T13:26:23Z</time>
      </trkpt>
      <trkpt lat="43.60756" lon="3.39438">
        <ele>233.5</ele>
        <time>2015-11-14T13:26:24Z</time>
      </trkpt>
      <trkpt lat="43.60757" lon="3.39436">
        <ele>233.5</ele>
        <time>2015-11-14T13:26:25Z</time>
      </trkpt>
      <trkpt lat="43.60757" lon="3.39435">
        <ele>234</ele>
        <time>2015-11-14T13:26:26Z</time>
      </trkpt>
      <trkpt lat="43.60756" lon="3.39433">
        <ele>234</ele>
        <time>2015-11-14T13:26:27Z</time>
      </trkpt>
      <trkpt lat="43.60756" lon="3.39431">
        <ele>234</ele>
        <time>2015-11-14T13:26:28Z</time>
      </trkpt>
      <trkpt lat="43.60755" lon="3.3943">
        <ele>234</ele>
        <time>2015-11-14T13:26:29Z</time>
      </trkpt>
      <trkpt lat="43.60755" lon="3.39428">
        <ele>234</ele>
        <time>2015-11-14T13:26:30Z</time>
      </trkpt>
      <trkpt lat="43.60754" lon="3.39427">
        <ele>234</ele>
        <time>2015-11-14T13:26:31Z</time>
      </trkpt>
      <trkpt lat="43.60754" lon="3.39426">
        <ele>233.5</ele>
        <time>2015-11-14T13:26:32Z</time>
      </trkpt>
      <trkpt lat="43.60754" lon="3.39425">
        <ele>233</ele>
        <time>2015-11-14T13:26:33Z</time>
      </trkpt>
      <trkpt lat="43.60753" lon="3.39424">
        <ele>232.5</ele>
        <time>2015-11-14T13:26:34Z</time>
      </trkpt>
      <trkpt lat="43.60752" lon="3.39423">
        <ele>232</ele>
        <time>2015-11-14T13:26:35Z</time>
      </trkpt>
      <trkpt lat="43.60751" lon="3.39422">
        <ele>232</ele>
        <time>2015-11-14T13:26:36Z</time>
      </trkpt>
      <trkpt lat="43.60751" lon="3.3942">
        <ele>232</ele>
        <time>2015-11-14T13:26:37Z</time>
      </trkpt>
      <trkpt lat="43.6075" lon="3.39419">
        <ele>231.5</ele>
        <time>2015-11-14T13:26:38Z</time>
      </trkpt>
      <trkpt lat="43.6075" lon="3.39416">
        <ele>231.5</ele>
        <time>2015-11-14T13:26:39Z</time>
      </trkpt>
      <trkpt lat="43.6075" lon="3.39414">
        <ele>231</ele>
        <time>2015-11-14T13:26:40Z</time>
      </trkpt>
      <trkpt lat="43.6075" lon="3.39412">
        <ele>231</ele>
        <time>2015-11-14T13:26:41Z</time>
      </trkpt>
      <trkpt lat="43.6075" lon="3.3941">
        <ele>231</ele>
        <time>2015-11-14T13:26:42Z</time>
      </trkpt>
      <trkpt lat="43.60749" lon="3.39408">
        <ele>231</ele>
        <time>2015-11-14T13:26:43Z</time>
      </trkpt>
      <trkpt lat="43.60749" lon="3.39405">
        <ele>231</ele>
        <time>2015-11-14T13:26:44Z</time>
      </trkpt>
      <trkpt lat="43.60749" lon="3.39403">
        <ele>231.5</ele>
        <time>2015-11-14T13:26:45Z</time>
      </trkpt>
      <trkpt lat="43.60748" lon="3.39401">
        <ele>231.5</ele>
        <time>2015-11-14T13:26:46Z</time>
      </trkpt>
      <trkpt lat="43.60748" lon="3.39399">
        <ele>232</ele>
        <time>2015-11-14T13:26:47Z</time>
      </trkpt>
      <trkpt lat="43.60748" lon="3.39397">
        <ele>232</ele>
        <time>2015-11-14T13:26:48Z</time>
      </trkpt>
      <trkpt lat="43.60747" lon="3.39395">
        <ele>232.5</ele>
        <time>2015-11-14T13:26:49Z</time>
      </trkpt>
      <trkpt lat="43.60747" lon="3.39393">
        <ele>233</ele>
        <time>2015-11-14T13:26:50Z</time>
      </trkpt>
      <trkpt lat="43.60746" lon="3.39391">
        <ele>233</ele>
        <time>2015-11-14T13:26:51Z</time>
      </trkpt>
      <trkpt lat="43.60746" lon="3.39388">
        <ele>233.5</ele>
        <time>2015-11-14T13:26:52Z</time>
      </trkpt>
      <trkpt lat="43.60746" lon="3.39386">
        <ele>234</ele>
        <time>2015-11-14T13:26:53Z</time>
      </trkpt>
      <trkpt lat="43.60745" lon="3.39385">
        <ele>234</ele>
        <time>2015-11-14T13:26:54Z</time>
      </trkpt>
      <trkpt lat="43.60744" lon="3.39383">
        <ele>234</ele>
        <time>2015-11-14T13:26:55Z</time>
      </trkpt>
      <trkpt lat="43.60744" lon="3.39381">
        <ele>234</ele>
        <time>2015-11-14T13:26:56Z</time>
      </trkpt>
      <trkpt lat="43.60743" lon="3.39378">
        <ele>234.5</ele>
        <time>2015-11-14T13:26:57Z</time>
      </trkpt>
      <trkpt lat="43.60743" lon="3.39376">
        <ele>234.5</ele>
        <time>2015-11-14T13:26:58Z</time>
      </trkpt>
      <trkpt lat="43.60742" lon="3.39373">
        <ele>235</ele>
        <time>2015-11-14T13:26:59Z</time>
      </trkpt>
      <trkpt lat="43.60741" lon="3.39371">
        <ele>235.5</ele>
        <time>2015-11-14T13:27:00Z</time>
      </trkpt>
      <trkpt lat="43.6074" lon="3.39369">
        <ele>235.5</ele>
        <time>2015-11-14T13:27:01Z</time>
      </trkpt>
      <trkpt lat="43.6074" lon="3.39367">
        <ele>235.5</ele>
        <time>2015-11-14T13:27:02Z</time>
      </trkpt>
      <trkpt lat="43.60739" lon="3.39365">
        <ele>235.5</ele>
        <time>2015-11-14T13:27:03Z</time>
      </trkpt>
      <trkpt lat="43.60738" lon="3.39363">
        <ele>236</ele>
        <time>2015-11-14T13:27:04Z</time>
      </trkpt>
      <trkpt lat="43.60737" lon="3.39361">
        <ele>236</ele>
        <time>2015-11-14T13:27:05Z</time>
      </trkpt>
      <trkpt lat="43.60736" lon="3.39358">
        <ele>236</ele>
        <time>2015-11-14T13:27:06Z</time>
      </trkpt>
      <trkpt lat="43.60735" lon="3.39356">
        <ele>236.5</ele>
        <time>2015-11-14T13:27:06Z</time>
      </trkpt>
      <trkpt lat="43.60735" lon="3.39354">
        <ele>236.5</ele>
        <time>2015-11-14T13:27:08Z</time>
      </trkpt>
      <trkpt lat="43.60734" lon="3.39352">
        <ele>236.5</ele>
        <time>2015-11-14T13:27:08Z</time>
      </trkpt>
      <trkpt lat="43.60733" lon="3.3935">
        <ele>237</ele>
        <time>2015-11-14T13:27:09Z</time>
      </trkpt>
      <trkpt lat="43.60732" lon="3.39348">
        <ele>237</ele>
        <time>2015-11-14T13:27:10Z</time>
      </trkpt>
      <trkpt lat="43.60732" lon="3.39345">
        <ele>237</ele>
        <time>2015-11-14T13:27:11Z</time>
      </trkpt>
      <trkpt lat="43.60731" lon="3.39343">
        <ele>237.5</ele>
        <time>2015-11-14T13:27:12Z</time>
      </trkpt>
      <trkpt lat="43.6073" lon="3.39341">
        <ele>237.5</ele>
        <time>2015-11-14T13:27:13Z</time>
      </trkpt>
      <trkpt lat="43.6073" lon="3.39339">
        <ele>237.5</ele>
        <time>2015-11-14T13:27:14Z</time>
      </trkpt>
      <trkpt lat="43.60729" lon="3.39337">
        <ele>238</ele>
        <time>2015-11-14T13:27:15Z</time>
      </trkpt>
      <trkpt lat="43.60728" lon="3.39334">
        <ele>238</ele>
        <time>2015-11-14T13:27:16Z</time>
      </trkpt>
      <trkpt lat="43.60728" lon="3.39332">
        <ele>238.5</ele>
        <time>2015-11-14T13:27:17Z</time>
      </trkpt>
      <trkpt lat="43.60727" lon="3.3933">
        <ele>238.5</ele>
        <time>2015-11-14T13:27:18Z</time>
      </trkpt>
      <trkpt lat="43.60726" lon="3.39328">
        <ele>239</ele>
        <time>2015-11-14T13:27:19Z</time>
      </trkpt>
      <trkpt lat="43.60726" lon="3.39325">
        <ele>239</ele>
        <time>2015-11-14T13:27:20Z</time>
      </trkpt>
      <trkpt lat="43.60725" lon="3.39323">
        <ele>239</ele>
        <time>2015-11-14T13:27:21Z</time>
      </trkpt>
      <trkpt lat="43.60725" lon="3.39321">
        <ele>239.5</ele>
        <time>2015-11-14T13:27:22Z</time>
      </trkpt>
      <trkpt lat="43.60724" lon="3.39319">
        <ele>239.5</ele>
        <time>2015-11-14T13:27:23Z</time>
      </trkpt>
      <trkpt lat="43.60724" lon="3.39317">
        <ele>239.5</ele>
        <time>2015-11-14T13:27:24Z</time>
      </trkpt>
      <trkpt lat="43.60723" lon="3.39314">
        <ele>239.5</ele>
        <time>2015-11-14T13:27:25Z</time>
      </trkpt>
      <trkpt lat="43.60723" lon="3.39312">
        <ele>240</ele>
        <time>2015-11-14T13:27:26Z</time>
      </trkpt>
      <trkpt lat="43.60722" lon="3.39309">
        <ele>240</ele>
        <time>2015-11-14T13:27:27Z</time>
      </trkpt>
      <trkpt lat="43.60721" lon="3.39306">
        <ele>240</ele>
        <time>2015-11-14T13:27:28Z</time>
      </trkpt>
      <trkpt lat="43.60721" lon="3.39304">
        <ele>240.5</ele>
        <time>2015-11-14T13:27:29Z</time>
      </trkpt>
      <trkpt lat="43.6072" lon="3.39302">
        <ele>240.5</ele>
        <time>2015-11-14T13:27:30Z</time>
      </trkpt>
      <trkpt lat="43.6072" lon="3.393">
        <ele>240.5</ele>
        <time>2015-11-14T13:27:31Z</time>
      </trkpt>
      <trkpt lat="43.60719" lon="3.39297">
        <ele>241</ele>
        <time>2015-11-14T13:27:32Z</time>
      </trkpt>
      <trkpt lat="43.60719" lon="3.39295">
        <ele>241</ele>
        <time>2015-11-14T13:27:33Z</time>
      </trkpt>
      <trkpt lat="43.60718" lon="3.39293">
        <ele>241</ele>
        <time>2015-11-14T13:27:34Z</time>
      </trkpt>
      <trkpt lat="43.60718" lon="3.39291">
        <ele>241.5</ele>
        <time>2015-11-14T13:27:35Z</time>
      </trkpt>
      <trkpt lat="43.60717" lon="3.39288">
        <ele>241.5</ele>
        <time>2015-11-14T13:27:36Z</time>
      </trkpt>
      <trkpt lat="43.60717" lon="3.39286">
        <ele>241.5</ele>
        <time>2015-11-14T13:27:37Z</time>
      </trkpt>
      <trkpt lat="43.60716" lon="3.39284">
        <ele>242</ele>
        <time>2015-11-14T13:27:38Z</time>
      </trkpt>
      <trkpt lat="43.60716" lon="3.39282">
        <ele>242</ele>
        <time>2015-11-14T13:27:39Z</time>
      </trkpt>
      <trkpt lat="43.60716" lon="3.39279">
        <ele>242</ele>
        <time>2015-11-14T13:27:40Z</time>
      </trkpt>
      <trkpt lat="43.60715" lon="3.39277">
        <ele>242</ele>
        <time>2015-11-14T13:27:41Z</time>
      </trkpt>
      <trkpt lat="43.60715" lon="3.39275">
        <ele>242.5</ele>
        <time>2015-11-14T13:27:42Z</time>
      </trkpt>
      <trkpt lat="43.60715" lon="3.39273">
        <ele>242.5</ele>
        <time>2015-11-14T13:27:43Z</time>
      </trkpt>
      <trkpt lat="43.60714" lon="3.39271">
        <ele>242.5</ele>
        <time>2015-11-14T13:27:44Z</time>
      </trkpt>
      <trkpt lat="43.60714" lon="3.39268">
        <ele>242.5</ele>
        <time>2015-11-14T13:27:45Z</time>
      </trkpt>
      <trkpt lat="43.60713" lon="3.39266">
        <ele>243</ele>
        <time>2015-11-14T13:27:46Z</time>
      </trkpt>
      <trkpt lat="43.60713" lon="3.39264">
        <ele>243</ele>
        <time>2015-11-14T13:27:47Z</time>
      </trkpt>
      <trkpt lat="43.60712" lon="3.39262">
        <ele>243</ele>
        <time>2015-11-14T13:27:48Z</time>
      </trkpt>
      <trkpt lat="43.60712" lon="3.3926">
        <ele>243.5</ele>
        <time>2015-11-14T13:27:49Z</time>
      </trkpt>
      <trkpt lat="43.60711" lon="3.39257">
        <ele>243.5</ele>
        <time>2015-11-14T13:27:50Z</time>
      </trkpt>
      <trkpt lat="43.60711" lon="3.39255">
        <ele>243.5</ele>
        <time>2015-11-14T13:27:51Z</time>
      </trkpt>
      <trkpt lat="43.60711" lon="3.39253">
        <ele>244</ele>
        <time>2015-11-14T13:27:52Z</time>
      </trkpt>
      <trkpt lat="43.6071" lon="3.3925">
        <ele>244</ele>
        <time>2015-11-14T13:27:53Z</time>
      </trkpt>
      <trkpt lat="43.6071" lon="3.39248">
        <ele>244.5</ele>
        <time>2015-11-14T13:27:54Z</time>
      </trkpt>
      <trkpt lat="43.60709" lon="3.39246">
        <ele>244.5</ele>
        <time>2015-11-14T13:27:55Z</time>
      </trkpt>
      <trkpt lat="43.60709" lon="3.39243">
        <ele>244.5</ele>
        <time>2015-11-14T13:27:56Z</time>
      </trkpt>
      <trkpt lat="43.60709" lon="3.39241">
        <ele>245</ele>
        <time>2015-11-14T13:27:57Z</time>
      </trkpt>
      <trkpt lat="43.60708" lon="3.39239">
        <ele>245</ele>
        <time>2015-11-14T13:27:58Z</time>
      </trkpt>
      <trkpt lat="43.60708" lon="3.39236">
        <ele>245.5</ele>
        <time>2015-11-14T13:27:59Z</time>
      </trkpt>
      <trkpt lat="43.60708" lon="3.39233">
        <ele>245.5</ele>
        <time>2015-11-14T13:28:00Z</time>
      </trkpt>
      <trkpt lat="43.60708" lon="3.39231">
        <ele>246</ele>
        <time>2015-11-14T13:28:01Z</time>
      </trkpt>
      <trkpt lat="43.60707" lon="3.39228">
        <ele>246</ele>
        <time>2015-11-14T13:28:02Z</time>
      </trkpt>
      <trkpt lat="43.60707" lon="3.39226">
        <ele>246.5</ele>
        <time>2015-11-14T13:28:03Z</time>
      </trkpt>
      <trkpt lat="43.60706" lon="3.39223">
        <ele>246.5</ele>
        <time>2015-11-14T13:28:04Z</time>
      </trkpt>
      <trkpt lat="43.60706" lon="3.3922">
        <ele>246.5</ele>
        <time>2015-11-14T13:28:05Z</time>
      </trkpt>
      <trkpt lat="43.60705" lon="3.39217">
        <ele>247</ele>
        <time>2015-11-14T13:28:06Z</time>
      </trkpt>
      <trkpt lat="43.60705" lon="3.39214">
        <ele>247</ele>
        <time>2015-11-14T13:28:07Z</time>
      </trkpt>
      <trkpt lat="43.60704" lon="3.39212">
        <ele>247.5</ele>
        <time>2015-11-14T13:28:08Z</time>
      </trkpt>
      <trkpt lat="43.60704" lon="3.39209">
        <ele>247.5</ele>
        <time>2015-11-14T13:28:09Z</time>
      </trkpt>
      <trkpt lat="43.60703" lon="3.39207">
        <ele>248</ele>
        <time>2015-11-14T13:28:10Z</time>
      </trkpt>
      <trkpt lat="43.60702" lon="3.39205">
        <ele>248</ele>
        <time>2015-11-14T13:28:11Z</time>
      </trkpt>
      <trkpt lat="43.60701" lon="3.39203">
        <ele>248</ele>
        <time>2015-11-14T13:28:12Z</time>
      </trkpt>
      <trkpt lat="43.60701" lon="3.392">
        <ele>248.5</ele>
        <time>2015-11-14T13:28:13Z</time>
      </trkpt>
      <trkpt lat="43.607" lon="3.39198">
        <ele>248.5</ele>
        <time>2015-11-14T13:28:14Z</time>
      </trkpt>
      <trkpt lat="43.60699" lon="3.39196">
        <ele>249</ele>
        <time>2015-11-14T13:28:15Z</time>
      </trkpt>
      <trkpt lat="43.60698" lon="3.39194">
        <ele>249</ele>
        <time>2015-11-14T13:28:16Z</time>
      </trkpt>
      <trkpt lat="43.60697" lon="3.39192">
        <ele>249.5</ele>
        <time>2015-11-14T13:28:17Z</time>
      </trkpt>
      <trkpt lat="43.60696" lon="3.3919">
        <ele>249.5</ele>
        <time>2015-11-14T13:28:18Z</time>
      </trkpt>
      <trkpt lat="43.60696" lon="3.39187">
        <ele>249.5</ele>
        <time>2015-11-14T13:28:19Z</time>
      </trkpt>
      <trkpt lat="43.60695" lon="3.39185">
        <ele>250</ele>
        <time>2015-11-14T13:28:20Z</time>
      </trkpt>
      <trkpt lat="43.60695" lon="3.39183">
        <ele>250</ele>
        <time>2015-11-14T13:28:21Z</time>
      </trkpt>
      <trkpt lat="43.60694" lon="3.3918">
        <ele>250</ele>
        <time>2015-11-14T13:28:22Z</time>
      </trkpt>
      <trkpt lat="43.60694" lon="3.39178">
        <ele>250.5</ele>
        <time>2015-11-14T13:28:23Z</time>
      </trkpt>
      <trkpt lat="43.60693" lon="3.39176">
        <ele>250.5</ele>
        <time>2015-11-14T13:28:24Z</time>
      </trkpt>
      <trkpt lat="43.60693" lon="3.39173">
        <ele>251</ele>
        <time>2015-11-14T13:28:25Z</time>
      </trkpt>
      <trkpt lat="43.60693" lon="3.39171">
        <ele>251</ele>
        <time>2015-11-14T13:28:26Z</time>
      </trkpt>
      <trkpt lat="43.60693" lon="3.39168">
        <ele>251.5</ele>
        <time>2015-11-14T13:28:27Z</time>
      </trkpt>
      <trkpt lat="43.60692" lon="3.39166">
        <ele>252</ele>
        <time>2015-11-14T13:28:28Z</time>
      </trkpt>
      <trkpt lat="43.60692" lon="3.39164">
        <ele>252</ele>
        <time>2015-11-14T13:28:29Z</time>
      </trkpt>
      <trkpt lat="43.60692" lon="3.39161">
        <ele>252</ele>
        <time>2015-11-14T13:28:30Z</time>
      </trkpt>
      <trkpt lat="43.60691" lon="3.39159">
        <ele>252.5</ele>
        <time>2015-11-14T13:28:31Z</time>
      </trkpt>
      <trkpt lat="43.60691" lon="3.39156">
        <ele>252.5</ele>
        <time>2015-11-14T13:28:32Z</time>
      </trkpt>
      <trkpt lat="43.60691" lon="3.39154">
        <ele>253</ele>
        <time>2015-11-14T13:28:33Z</time>
      </trkpt>
      <trkpt lat="43.6069" lon="3.39152">
        <ele>253</ele>
        <time>2015-11-14T13:28:34Z</time>
      </trkpt>
      <trkpt lat="43.60689" lon="3.39149">
        <ele>253</ele>
        <time>2015-11-14T13:28:35Z</time>
      </trkpt>
      <trkpt lat="43.60688" lon="3.39147">
        <ele>253</ele>
        <time>2015-11-14T13:28:36Z</time>
      </trkpt>
      <trkpt lat="43.60687" lon="3.39145">
        <ele>253</ele>
        <time>2015-11-14T13:28:37Z</time>
      </trkpt>
      <trkpt lat="43.60686" lon="3.39144">
        <ele>253.5</ele>
        <time>2015-11-14T13:28:38Z</time>
      </trkpt>
      <trkpt lat="43.60684" lon="3.39142">
        <ele>253.5</ele>
        <time>2015-11-14T13:28:39Z</time>
      </trkpt>
      <trkpt lat="43.60682" lon="3.39142">
        <ele>254</ele>
        <time>2015-11-14T13:28:40Z</time>
      </trkpt>
      <trkpt lat="43.6068" lon="3.39142">
        <ele>254</ele>
        <time>2015-11-14T13:28:41Z</time>
      </trkpt>
      <trkpt lat="43.60678" lon="3.39142">
        <ele>254.5</ele>
        <time>2015-11-14T13:28:42Z</time>
      </trkpt>
      <trkpt lat="43.60677" lon="3.39142">
        <ele>254.5</ele>
        <time>2015-11-14T13:28:43Z</time>
      </trkpt>
      <trkpt lat="43.60675" lon="3.39143">
        <ele>255</ele>
        <time>2015-11-14T13:28:44Z</time>
      </trkpt>
      <trkpt lat="43.60673" lon="3.39144">
        <ele>255.5</ele>
        <time>2015-11-14T13:28:45Z</time>
      </trkpt>
      <trkpt lat="43.60672" lon="3.39145">
        <ele>255.5</ele>
        <time>2015-11-14T13:28:46Z</time>
      </trkpt>
      <trkpt lat="43.6067" lon="3.39146">
        <ele>255.5</ele>
        <time>2015-11-14T13:28:47Z</time>
      </trkpt>
      <trkpt lat="43.60668" lon="3.39147">
        <ele>255.5</ele>
        <time>2015-11-14T13:28:48Z</time>
      </trkpt>
      <trkpt lat="43.60667" lon="3.39148">
        <ele>256</ele>
        <time>2015-11-14T13:28:49Z</time>
      </trkpt>
      <trkpt lat="43.60665" lon="3.3915">
        <ele>256</ele>
        <time>2015-11-14T13:28:50Z</time>
      </trkpt>
      <trkpt lat="43.60663" lon="3.3915">
        <ele>256</ele>
        <time>2015-11-14T13:28:51Z</time>
      </trkpt>
      <trkpt lat="43.60661" lon="3.39151">
        <ele>256</ele>
        <time>2015-11-14T13:28:52Z</time>
      </trkpt>
      <trkpt lat="43.6066" lon="3.39152">
        <ele>256.5</ele>
        <time>2015-11-14T13:28:53Z</time>
      </trkpt>
      <trkpt lat="43.60658" lon="3.39152">
        <ele>256.5</ele>
        <time>2015-11-14T13:28:54Z</time>
      </trkpt>
      <trkpt lat="43.60656" lon="3.39153">
        <ele>257</ele>
        <time>2015-11-14T13:28:55Z</time>
      </trkpt>
      <trkpt lat="43.60654" lon="3.39153">
        <ele>257</ele>
        <time>2015-11-14T13:28:56Z</time>
      </trkpt>
      <trkpt lat="43.60652" lon="3.39153">
        <ele>257.5</ele>
        <time>2015-11-14T13:28:57Z</time>
      </trkpt>
      <trkpt lat="43.6065" lon="3.39153">
        <ele>257.5</ele>
        <time>2015-11-14T13:28:58Z</time>
      </trkpt>
      <trkpt lat="43.60648" lon="3.39153">
        <ele>258</ele>
        <time>2015-11-14T13:28:59Z</time>
      </trkpt>
      <trkpt lat="43.60646" lon="3.39152">
        <ele>258</ele>
        <time>2015-11-14T13:29:00Z</time>
      </trkpt>
      <trkpt lat="43.60645" lon="3.39152">
        <ele>258.5</ele>
        <time>2015-11-14T13:29:01Z</time>
      </trkpt>
      <trkpt lat="43.60643" lon="3.39151">
        <ele>258.5</ele>
        <time>2015-11-14T13:29:02Z</time>
      </trkpt>
      <trkpt lat="43.60641" lon="3.39151">
        <ele>258.5</ele>
        <time>2015-11-14T13:29:03Z</time>
      </trkpt>
      <trkpt lat="43.60639" lon="3.3915">
        <ele>258.5</ele>
        <time>2015-11-14T13:29:04Z</time>
      </trkpt>
      <trkpt lat="43.60637" lon="3.39149">
        <ele>258.5</ele>
        <time>2015-11-14T13:29:05Z</time>
      </trkpt>
      <trkpt lat="43.60635" lon="3.39147">
        <ele>258.5</ele>
        <time>2015-11-14T13:29:06Z</time>
      </trkpt>
      <trkpt lat="43.60633" lon="3.39146">
        <ele>259</ele>
        <time>2015-11-14T13:29:07Z</time>
      </trkpt>
      <trkpt lat="43.60631" lon="3.39145">
        <ele>259</ele>
        <time>2015-11-14T13:29:08Z</time>
      </trkpt>
      <trkpt lat="43.60629" lon="3.39144">
        <ele>259.5</ele>
        <time>2015-11-14T13:29:09Z</time>
      </trkpt>
      <trkpt lat="43.60627" lon="3.39143">
        <ele>260</ele>
        <time>2015-11-14T13:29:10Z</time>
      </trkpt>
      <trkpt lat="43.60626" lon="3.39141">
        <ele>260</ele>
        <time>2015-11-14T13:29:11Z</time>
      </trkpt>
      <trkpt lat="43.60624" lon="3.3914">
        <ele>260.5</ele>
        <time>2015-11-14T13:29:12Z</time>
      </trkpt>
      <trkpt lat="43.60622" lon="3.39138">
        <ele>260.5</ele>
        <time>2015-11-14T13:29:13Z</time>
      </trkpt>
      <trkpt lat="43.6062" lon="3.39136">
        <ele>261</ele>
        <time>2015-11-14T13:29:14Z</time>
      </trkpt>
      <trkpt lat="43.60619" lon="3.39134">
        <ele>261</ele>
        <time>2015-11-14T13:29:15Z</time>
      </trkpt>
      <trkpt lat="43.60617" lon="3.39132">
        <ele>261</ele>
        <time>2015-11-14T13:29:16Z</time>
      </trkpt>
      <trkpt lat="43.60616" lon="3.3913">
        <ele>261.5</ele>
        <time>2015-11-14T13:29:17Z</time>
      </trkpt>
      <trkpt lat="43.60614" lon="3.39128">
        <ele>261.5</ele>
        <time>2015-11-14T13:29:18Z</time>
      </trkpt>
      <trkpt lat="43.60613" lon="3.39126">
        <ele>261.5</ele>
        <time>2015-11-14T13:29:19Z</time>
      </trkpt>
      <trkpt lat="43.60611" lon="3.39124">
        <ele>261.5</ele>
        <time>2015-11-14T13:29:20Z</time>
      </trkpt>
      <trkpt lat="43.6061" lon="3.39122">
        <ele>261.5</ele>
        <time>2015-11-14T13:29:21Z</time>
      </trkpt>
      <trkpt lat="43.60608" lon="3.3912">
        <ele>261.5</ele>
        <time>2015-11-14T13:29:22Z</time>
      </trkpt>
      <trkpt lat="43.60607" lon="3.39118">
        <ele>262</ele>
        <time>2015-11-14T13:29:23Z</time>
      </trkpt>
      <trkpt lat="43.60606" lon="3.39116">
        <ele>262</ele>
        <time>2015-11-14T13:29:24Z</time>
      </trkpt>
      <trkpt lat="43.60605" lon="3.39113">
        <ele>262</ele>
        <time>2015-11-14T13:29:25Z</time>
      </trkpt>
      <trkpt lat="43.60604" lon="3.39111">
        <ele>262</ele>
        <time>2015-11-14T13:29:26Z</time>
      </trkpt>
      <trkpt lat="43.60602" lon="3.39108">
        <ele>262</ele>
        <time>2015-11-14T13:29:27Z</time>
      </trkpt>
      <trkpt lat="43.60601" lon="3.39106">
        <ele>262</ele>
        <time>2015-11-14T13:29:28Z</time>
      </trkpt>
      <trkpt lat="43.606" lon="3.39103">
        <ele>262</ele>
        <time>2015-11-14T13:29:29Z</time>
      </trkpt>
      <trkpt lat="43.60599" lon="3.39101">
        <ele>262</ele>
        <time>2015-11-14T13:29:30Z</time>
      </trkpt>
      <trkpt lat="43.60598" lon="3.39098">
        <ele>262.5</ele>
        <time>2015-11-14T13:29:31Z</time>
      </trkpt>
      <trkpt lat="43.60597" lon="3.39096">
        <ele>262.5</ele>
        <time>2015-11-14T13:29:32Z</time>
      </trkpt>
      <trkpt lat="43.60596" lon="3.39093">
        <ele>262</ele>
        <time>2015-11-14T13:29:33Z</time>
      </trkpt>
      <trkpt lat="43.60595" lon="3.39091">
        <ele>262</ele>
        <time>2015-11-14T13:29:34Z</time>
      </trkpt>
      <trkpt lat="43.60594" lon="3.39088">
        <ele>262.5</ele>
        <time>2015-11-14T13:29:35Z</time>
      </trkpt>
      <trkpt lat="43.60594" lon="3.39085">
        <ele>262.5</ele>
        <time>2015-11-14T13:29:36Z</time>
      </trkpt>
      <trkpt lat="43.60593" lon="3.39082">
        <ele>262.5</ele>
        <time>2015-11-14T13:29:37Z</time>
      </trkpt>
      <trkpt lat="43.60592" lon="3.39079">
        <ele>263</ele>
        <time>2015-11-14T13:29:38Z</time>
      </trkpt>
      <trkpt lat="43.60592" lon="3.39076">
        <ele>263</ele>
        <time>2015-11-14T13:29:39Z</time>
      </trkpt>
      <trkpt lat="43.60591" lon="3.39074">
        <ele>263</ele>
        <time>2015-11-14T13:29:40Z</time>
      </trkpt>
      <trkpt lat="43.6059" lon="3.39071">
        <ele>263</ele>
        <time>2015-11-14T13:29:41Z</time>
      </trkpt>
      <trkpt lat="43.6059" lon="3.39068">
        <ele>263</ele>
        <time>2015-11-14T13:29:42Z</time>
      </trkpt>
      <trkpt lat="43.60589" lon="3.39065">
        <ele>263</ele>
        <time>2015-11-14T13:29:43Z</time>
      </trkpt>
      <trkpt lat="43.60589" lon="3.39062">
        <ele>263</ele>
        <time>2015-11-14T13:29:44Z</time>
      </trkpt>
      <trkpt lat="43.60588" lon="3.39059">
        <ele>263</ele>
        <time>2015-11-14T13:29:45Z</time>
      </trkpt>
      <trkpt lat="43.60588" lon="3.39056">
        <ele>263.5</ele>
        <time>2015-11-14T13:29:46Z</time>
      </trkpt>
      <trkpt lat="43.60587" lon="3.39053">
        <ele>263.5</ele>
        <time>2015-11-14T13:29:47Z</time>
      </trkpt>
      <trkpt lat="43.60587" lon="3.3905">
        <ele>263.5</ele>
        <time>2015-11-14T13:29:48Z</time>
      </trkpt>
      <trkpt lat="43.60587" lon="3.39048">
        <ele>263.5</ele>
        <time>2015-11-14T13:29:49Z</time>
      </trkpt>
      <trkpt lat="43.60586" lon="3.39045">
        <ele>264</ele>
        <time>2015-11-14T13:29:50Z</time>
      </trkpt>
      <trkpt lat="43.60586" lon="3.39042">
        <ele>264</ele>
        <time>2015-11-14T13:29:51Z</time>
      </trkpt>
      <trkpt lat="43.60586" lon="3.39039">
        <ele>264</ele>
        <time>2015-11-14T13:29:52Z</time>
      </trkpt>
      <trkpt lat="43.60585" lon="3.39036">
        <ele>264</ele>
        <time>2015-11-14T13:29:53Z</time>
      </trkpt>
      <trkpt lat="43.60585" lon="3.39033">
        <ele>264</ele>
        <time>2015-11-14T13:29:54Z</time>
      </trkpt>
      <trkpt lat="43.60584" lon="3.39027">
        <ele>264.5</ele>
        <time>2015-11-14T13:29:56Z</time>
      </trkpt>
      <trkpt lat="43.60584" lon="3.39025">
        <ele>265</ele>
        <time>2015-11-14T13:29:57Z</time>
      </trkpt>
      <trkpt lat="43.60584" lon="3.39022">
        <ele>265</ele>
        <time>2015-11-14T13:29:58Z</time>
      </trkpt>
      <trkpt lat="43.60584" lon="3.39019">
        <ele>265.5</ele>
        <time>2015-11-14T13:29:59Z</time>
      </trkpt>
      <trkpt lat="43.60584" lon="3.39016">
        <ele>265.5</ele>
        <time>2015-11-14T13:30:00Z</time>
      </trkpt>
      <trkpt lat="43.60583" lon="3.39013">
        <ele>265.5</ele>
        <time>2015-11-14T13:30:01Z</time>
      </trkpt>
      <trkpt lat="43.60583" lon="3.3901">
        <ele>266</ele>
        <time>2015-11-14T13:30:02Z</time>
      </trkpt>
      <trkpt lat="43.60583" lon="3.39007">
        <ele>266</ele>
        <time>2015-11-14T13:30:03Z</time>
      </trkpt>
      <trkpt lat="43.60582" lon="3.39002">
        <ele>266</ele>
        <time>2015-11-14T13:30:05Z</time>
      </trkpt>
      <trkpt lat="43.60582" lon="3.38999">
        <ele>266.5</ele>
        <time>2015-11-14T13:30:06Z</time>
      </trkpt>
      <trkpt lat="43.60582" lon="3.38996">
        <ele>266.5</ele>
        <time>2015-11-14T13:30:07Z</time>
      </trkpt>
      <trkpt lat="43.60581" lon="3.38993">
        <ele>266.5</ele>
        <time>2015-11-14T13:30:08Z</time>
      </trkpt>
      <trkpt lat="43.60581" lon="3.3899">
        <ele>266.5</ele>
        <time>2015-11-14T13:30:09Z</time>
      </trkpt>
      <trkpt lat="43.60581" lon="3.38987">
        <ele>267</ele>
        <time>2015-11-14T13:30:10Z</time>
      </trkpt>
      <trkpt lat="43.60581" lon="3.38984">
        <ele>266.5</ele>
        <time>2015-11-14T13:30:11Z</time>
      </trkpt>
      <trkpt lat="43.6058" lon="3.38981">
        <ele>266.5</ele>
        <time>2015-11-14T13:30:12Z</time>
      </trkpt>
      <trkpt lat="43.6058" lon="3.38978">
        <ele>267</ele>
        <time>2015-11-14T13:30:13Z</time>
      </trkpt>
      <trkpt lat="43.6058" lon="3.38974">
        <ele>267</ele>
        <time>2015-11-14T13:30:14Z</time>
      </trkpt>
      <trkpt lat="43.6058" lon="3.38972">
        <ele>267</ele>
        <time>2015-11-14T13:30:15Z</time>
      </trkpt>
      <trkpt lat="43.60579" lon="3.38969">
        <ele>267</ele>
        <time>2015-11-14T13:30:16Z</time>
      </trkpt>
      <trkpt lat="43.60579" lon="3.38966">
        <ele>267</ele>
        <time>2015-11-14T13:30:17Z</time>
      </trkpt>
      <trkpt lat="43.60579" lon="3.38964">
        <ele>267.5</ele>
        <time>2015-11-14T13:30:18Z</time>
      </trkpt>
      <trkpt lat="43.60579" lon="3.38961">
        <ele>267.5</ele>
        <time>2015-11-14T13:30:19Z</time>
      </trkpt>
      <trkpt lat="43.60578" lon="3.38958">
        <ele>267.5</ele>
        <time>2015-11-14T13:30:20Z</time>
      </trkpt>
      <trkpt lat="43.60578" lon="3.38956">
        <ele>267.5</ele>
        <time>2015-11-14T13:30:21Z</time>
      </trkpt>
      <trkpt lat="43.60578" lon="3.38953">
        <ele>268</ele>
        <time>2015-11-14T13:30:22Z</time>
      </trkpt>
      <trkpt lat="43.60578" lon="3.3895">
        <ele>268</ele>
        <time>2015-11-14T13:30:23Z</time>
      </trkpt>
      <trkpt lat="43.60578" lon="3.38947">
        <ele>268</ele>
        <time>2015-11-14T13:30:24Z</time>
      </trkpt>
      <trkpt lat="43.60578" lon="3.38944">
        <ele>268</ele>
        <time>2015-11-14T13:30:25Z</time>
      </trkpt>
      <trkpt lat="43.60578" lon="3.38942">
        <ele>268.5</ele>
        <time>2015-11-14T13:30:26Z</time>
      </trkpt>
      <trkpt lat="43.60578" lon="3.38939">
        <ele>268.5</ele>
        <time>2015-11-14T13:30:27Z</time>
      </trkpt>
      <trkpt lat="43.60578" lon="3.38937">
        <ele>269</ele>
        <time>2015-11-14T13:30:28Z</time>
      </trkpt>
      <trkpt lat="43.60578" lon="3.38934">
        <ele>269</ele>
        <time>2015-11-14T13:30:29Z</time>
      </trkpt>
      <trkpt lat="43.60578" lon="3.38932">
        <ele>269</ele>
        <time>2015-11-14T13:30:30Z</time>
      </trkpt>
      <trkpt lat="43.60578" lon="3.38929">
        <ele>269</ele>
        <time>2015-11-14T13:30:31Z</time>
      </trkpt>
      <trkpt lat="43.60578" lon="3.38927">
        <ele>269</ele>
        <time>2015-11-14T13:30:32Z</time>
      </trkpt>
      <trkpt lat="43.60578" lon="3.38925">
        <ele>269</ele>
        <time>2015-11-14T13:30:33Z</time>
      </trkpt>
      <trkpt lat="43.60578" lon="3.38923">
        <ele>269</ele>
        <time>2015-11-14T13:30:34Z</time>
      </trkpt>
      <trkpt lat="43.60578" lon="3.38922">
        <ele>269</ele>
        <time>2015-11-14T13:30:35Z</time>
      </trkpt>
      <trkpt lat="43.60577" lon="3.3892">
        <ele>269</ele>
        <time>2015-11-14T13:30:36Z</time>
      </trkpt>
      <trkpt lat="43.60577" lon="3.38918">
        <ele>269</ele>
        <time>2015-11-14T13:30:37Z</time>
      </trkpt>
      <trkpt lat="43.60577" lon="3.38916">
        <ele>269.5</ele>
        <time>2015-11-14T13:30:38Z</time>
      </trkpt>
      <trkpt lat="43.60577" lon="3.38914">
        <ele>269.5</ele>
        <time>2015-11-14T13:30:39Z</time>
      </trkpt>
      <trkpt lat="43.60577" lon="3.38912">
        <ele>269.5</ele>
        <time>2015-11-14T13:30:40Z</time>
      </trkpt>
      <trkpt lat="43.60577" lon="3.3891">
        <ele>269.5</ele>
        <time>2015-11-14T13:30:41Z</time>
      </trkpt>
      <trkpt lat="43.60577" lon="3.38908">
        <ele>270.5</ele>
        <time>2015-11-14T13:30:42Z</time>
      </trkpt>
      <trkpt lat="43.60577" lon="3.38906">
        <ele>270.5</ele>
        <time>2015-11-14T13:30:43Z</time>
      </trkpt>
      <trkpt lat="43.60578" lon="3.38904">
        <ele>271</ele>
        <time>2015-11-14T13:30:44Z</time>
      </trkpt>
      <trkpt lat="43.60578" lon="3.38902">
        <ele>271.5</ele>
        <time>2015-11-14T13:30:45Z</time>
      </trkpt>
      <trkpt lat="43.60577" lon="3.389">
        <ele>271.5</ele>
        <time>2015-11-14T13:30:46Z</time>
      </trkpt>
      <trkpt lat="43.60577" lon="3.38898">
        <ele>272</ele>
        <time>2015-11-14T13:30:47Z</time>
      </trkpt>
      <trkpt lat="43.60576" lon="3.38896">
        <ele>271.5</ele>
        <time>2015-11-14T13:30:48Z</time>
      </trkpt>
      <trkpt lat="43.60576" lon="3.38895">
        <ele>271.5</ele>
        <time>2015-11-14T13:30:49Z</time>
      </trkpt>
      <trkpt lat="43.60575" lon="3.38892">
        <ele>272</ele>
        <time>2015-11-14T13:30:50Z</time>
      </trkpt>
      <trkpt lat="43.60575" lon="3.3889">
        <ele>272</ele>
        <time>2015-11-14T13:30:50Z</time>
      </trkpt>
      <trkpt lat="43.60575" lon="3.38888">
        <ele>272.5</ele>
        <time>2015-11-14T13:30:51Z</time>
      </trkpt>
      <trkpt lat="43.60575" lon="3.38886">
        <ele>272.5</ele>
        <time>2015-11-14T13:30:52Z</time>
      </trkpt>
      <trkpt lat="43.60575" lon="3.38884">
        <ele>272.5</ele>
        <time>2015-11-14T13:30:54Z</time>
      </trkpt>
      <trkpt lat="43.60575" lon="3.38882">
        <ele>273</ele>
        <time>2015-11-14T13:30:54Z</time>
      </trkpt>
      <trkpt lat="43.60574" lon="3.38879">
        <ele>273</ele>
        <time>2015-11-14T13:30:55Z</time>
      </trkpt>
      <trkpt lat="43.60573" lon="3.38877">
        <ele>273</ele>
        <time>2015-11-14T13:30:57Z</time>
      </trkpt>
      <trkpt lat="43.60571" lon="3.38873">
        <ele>273.5</ele>
        <time>2015-11-14T13:30:57Z</time>
      </trkpt>
      <trkpt lat="43.60571" lon="3.38869">
        <ele>273.5</ele>
        <time>2015-11-14T13:30:58Z</time>
      </trkpt>
      <trkpt lat="43.6057" lon="3.38866">
        <ele>274</ele>
        <time>2015-11-14T13:31:00Z</time>
      </trkpt>
      <trkpt lat="43.60568" lon="3.38863">
        <ele>274</ele>
        <time>2015-11-14T13:31:00Z</time>
      </trkpt>
      <trkpt lat="43.60566" lon="3.38861">
        <ele>274</ele>
        <time>2015-11-14T13:31:01Z</time>
      </trkpt>
      <trkpt lat="43.60563" lon="3.38859">
        <ele>274</ele>
        <time>2015-11-14T13:31:02Z</time>
      </trkpt>
      <trkpt lat="43.60561" lon="3.38859">
        <ele>275</ele>
        <time>2015-11-14T13:31:03Z</time>
      </trkpt>
      <trkpt lat="43.60559" lon="3.38859">
        <ele>275</ele>
        <time>2015-11-14T13:31:04Z</time>
      </trkpt>
      <trkpt lat="43.60556" lon="3.38859">
        <ele>275</ele>
        <time>2015-11-14T13:31:05Z</time>
      </trkpt>
      <trkpt lat="43.60554" lon="3.38859">
        <ele>275</ele>
        <time>2015-11-14T13:31:06Z</time>
      </trkpt>
      <trkpt lat="43.60551" lon="3.38859">
        <ele>275</ele>
        <time>2015-11-14T13:31:07Z</time>
      </trkpt>
      <trkpt lat="43.60549" lon="3.38859">
        <ele>275</ele>
        <time>2015-11-14T13:31:08Z</time>
      </trkpt>
      <trkpt lat="43.60546" lon="3.38859">
        <ele>275</ele>
        <time>2015-11-14T13:31:09Z</time>
      </trkpt>
      <trkpt lat="43.60544" lon="3.38859">
        <ele>275.5</ele>
        <time>2015-11-14T13:31:10Z</time>
      </trkpt>
      <trkpt lat="43.60541" lon="3.38858">
        <ele>275.5</ele>
        <time>2015-11-14T13:31:11Z</time>
      </trkpt>
      <trkpt lat="43.60539" lon="3.38857">
        <ele>275.5</ele>
        <time>2015-11-14T13:31:12Z</time>
      </trkpt>
      <trkpt lat="43.60536" lon="3.38857">
        <ele>275.5</ele>
        <time>2015-11-14T13:31:14Z</time>
      </trkpt>
      <trkpt lat="43.60534" lon="3.38855">
        <ele>276</ele>
        <time>2015-11-14T13:31:14Z</time>
      </trkpt>
      <trkpt lat="43.60531" lon="3.38854">
        <ele>276</ele>
        <time>2015-11-14T13:31:15Z</time>
      </trkpt>
      <trkpt lat="43.60529" lon="3.38853">
        <ele>276</ele>
        <time>2015-11-14T13:31:17Z</time>
      </trkpt>
      <trkpt lat="43.60526" lon="3.38851">
        <ele>276</ele>
        <time>2015-11-14T13:31:17Z</time>
      </trkpt>
      <trkpt lat="43.60524" lon="3.38849">
        <ele>276</ele>
        <time>2015-11-14T13:31:18Z</time>
      </trkpt>
      <trkpt lat="43.60522" lon="3.38847">
        <ele>276</ele>
        <time>2015-11-14T13:31:19Z</time>
      </trkpt>
      <trkpt lat="43.6052" lon="3.38845">
        <ele>276</ele>
        <time>2015-11-14T13:31:20Z</time>
      </trkpt>
      <trkpt lat="43.60518" lon="3.38843">
        <ele>276</ele>
        <time>2015-11-14T13:31:21Z</time>
      </trkpt>
      <trkpt lat="43.60516" lon="3.3884">
        <ele>276.5</ele>
        <time>2015-11-14T13:31:22Z</time>
      </trkpt>
      <trkpt lat="43.60515" lon="3.38837">
        <ele>276.5</ele>
        <time>2015-11-14T13:31:23Z</time>
      </trkpt>
      <trkpt lat="43.60514" lon="3.38834">
        <ele>276.5</ele>
        <time>2015-11-14T13:31:25Z</time>
      </trkpt>
      <trkpt lat="43.60512" lon="3.38831">
        <ele>276.5</ele>
        <time>2015-11-14T13:31:25Z</time>
      </trkpt>
      <trkpt lat="43.60511" lon="3.38828">
        <ele>277</ele>
        <time>2015-11-14T13:31:26Z</time>
      </trkpt>
      <trkpt lat="43.6051" lon="3.38825">
        <ele>277</ele>
        <time>2015-11-14T13:31:27Z</time>
      </trkpt>
      <trkpt lat="43.60509" lon="3.38821">
        <ele>277</ele>
        <time>2015-11-14T13:31:28Z</time>
      </trkpt>
      <trkpt lat="43.60509" lon="3.38818">
        <ele>277</ele>
        <time>2015-11-14T13:31:29Z</time>
      </trkpt>
      <trkpt lat="43.60508" lon="3.38815">
        <ele>277</ele>
        <time>2015-11-14T13:31:30Z</time>
      </trkpt>
      <trkpt lat="43.60508" lon="3.38811">
        <ele>277.5</ele>
        <time>2015-11-14T13:31:31Z</time>
      </trkpt>
      <trkpt lat="43.60508" lon="3.38808">
        <ele>277</ele>
        <time>2015-11-14T13:31:33Z</time>
      </trkpt>
      <trkpt lat="43.60508" lon="3.38804">
        <ele>277.5</ele>
        <time>2015-11-14T13:31:33Z</time>
      </trkpt>
      <trkpt lat="43.60507" lon="3.38801">
        <ele>277.5</ele>
        <time>2015-11-14T13:31:34Z</time>
      </trkpt>
      <trkpt lat="43.60508" lon="3.38798">
        <ele>277.5</ele>
        <time>2015-11-14T13:31:35Z</time>
      </trkpt>
      <trkpt lat="43.60508" lon="3.38795">
        <ele>277.5</ele>
        <time>2015-11-14T13:31:36Z</time>
      </trkpt>
      <trkpt lat="43.60508" lon="3.38793">
        <ele>277.5</ele>
        <time>2015-11-14T13:31:37Z</time>
      </trkpt>
      <trkpt lat="43.60509" lon="3.3879">
        <ele>278</ele>
        <time>2015-11-14T13:31:38Z</time>
      </trkpt>
      <trkpt lat="43.6051" lon="3.38787">
        <ele>278</ele>
        <time>2015-11-14T13:31:39Z</time>
      </trkpt>
      <trkpt lat="43.6051" lon="3.38785">
        <ele>278</ele>
        <time>2015-11-14T13:31:40Z</time>
      </trkpt>
      <trkpt lat="43.60511" lon="3.38782">
        <ele>278</ele>
        <time>2015-11-14T13:31:41Z</time>
      </trkpt>
      <trkpt lat="43.60512" lon="3.3878">
        <ele>278</ele>
        <time>2015-11-14T13:31:42Z</time>
      </trkpt>
      <trkpt lat="43.60512" lon="3.38778">
        <ele>278</ele>
        <time>2015-11-14T13:31:43Z</time>
      </trkpt>
      <trkpt lat="43.60513" lon="3.38775">
        <ele>278</ele>
        <time>2015-11-14T13:31:44Z</time>
      </trkpt>
      <trkpt lat="43.60513" lon="3.38772">
        <ele>278</ele>
        <time>2015-11-14T13:31:45Z</time>
      </trkpt>
      <trkpt lat="43.60513" lon="3.38768">
        <ele>278</ele>
        <time>2015-11-14T13:31:46Z</time>
      </trkpt>
      <trkpt lat="43.60513" lon="3.38764">
        <ele>278</ele>
        <time>2015-11-14T13:31:47Z</time>
      </trkpt>
      <trkpt lat="43.60513" lon="3.3876">
        <ele>278</ele>
        <time>2015-11-14T13:31:48Z</time>
      </trkpt>
      <trkpt lat="43.60513" lon="3.38755">
        <ele>278</ele>
        <time>2015-11-14T13:31:50Z</time>
      </trkpt>
      <trkpt lat="43.60512" lon="3.38751">
        <ele>278.5</ele>
        <time>2015-11-14T13:31:50Z</time>
      </trkpt>
      <trkpt lat="43.60511" lon="3.38747">
        <ele>278</ele>
        <time>2015-11-14T13:31:51Z</time>
      </trkpt>
      <trkpt lat="43.6051" lon="3.38744">
        <ele>278</ele>
        <time>2015-11-14T13:31:52Z</time>
      </trkpt>
      <trkpt lat="43.60508" lon="3.38741">
        <ele>278</ele>
        <time>2015-11-14T13:31:53Z</time>
      </trkpt>
      <trkpt lat="43.60507" lon="3.38737">
        <ele>278.5</ele>
        <time>2015-11-14T13:31:54Z</time>
      </trkpt>
      <trkpt lat="43.60505" lon="3.38734">
        <ele>278.5</ele>
        <time>2015-11-14T13:31:55Z</time>
      </trkpt>
      <trkpt lat="43.60503" lon="3.38731">
        <ele>278</ele>
        <time>2015-11-14T13:31:56Z</time>
      </trkpt>
      <trkpt lat="43.60502" lon="3.38728">
        <ele>278</ele>
        <time>2015-11-14T13:31:57Z</time>
      </trkpt>
      <trkpt lat="43.60499" lon="3.38722">
        <ele>278</ele>
        <time>2015-11-14T13:31:59Z</time>
      </trkpt>
      <trkpt lat="43.60497" lon="3.38719">
        <ele>278</ele>
        <time>2015-11-14T13:32:00Z</time>
      </trkpt>
      <trkpt lat="43.60495" lon="3.38716">
        <ele>278</ele>
        <time>2015-11-14T13:32:01Z</time>
      </trkpt>
      <trkpt lat="43.60493" lon="3.38713">
        <ele>277.5</ele>
        <time>2015-11-14T13:32:03Z</time>
      </trkpt>
      <trkpt lat="43.6049" lon="3.38706">
        <ele>278</ele>
        <time>2015-11-14T13:32:04Z</time>
      </trkpt>
      <trkpt lat="43.60488" lon="3.38703">
        <ele>278</ele>
        <time>2015-11-14T13:32:05Z</time>
      </trkpt>
      <trkpt lat="43.60487" lon="3.387">
        <ele>278</ele>
        <time>2015-11-14T13:32:06Z</time>
      </trkpt>
      <trkpt lat="43.60485" lon="3.38697">
        <ele>278</ele>
        <time>2015-11-14T13:32:07Z</time>
      </trkpt>
      <trkpt lat="43.60483" lon="3.38693">
        <ele>278.5</ele>
        <time>2015-11-14T13:32:08Z</time>
      </trkpt>
      <trkpt lat="43.60481" lon="3.38689">
        <ele>278.5</ele>
        <time>2015-11-14T13:32:09Z</time>
      </trkpt>
      <trkpt lat="43.6048" lon="3.38686">
        <ele>278.5</ele>
        <time>2015-11-14T13:32:10Z</time>
      </trkpt>
      <trkpt lat="43.60476" lon="3.38679">
        <ele>279</ele>
        <time>2015-11-14T13:32:12Z</time>
      </trkpt>
      <trkpt lat="43.60474" lon="3.38676">
        <ele>279.5</ele>
        <time>2015-11-14T13:32:13Z</time>
      </trkpt>
      <trkpt lat="43.60473" lon="3.38672">
        <ele>279</ele>
        <time>2015-11-14T13:32:14Z</time>
      </trkpt>
      <trkpt lat="43.60471" lon="3.38669">
        <ele>279.5</ele>
        <time>2015-11-14T13:32:15Z</time>
      </trkpt>
      <trkpt lat="43.60469" lon="3.38665">
        <ele>279.5</ele>
        <time>2015-11-14T13:32:16Z</time>
      </trkpt>
      <trkpt lat="43.60467" lon="3.38662">
        <ele>279.5</ele>
        <time>2015-11-14T13:32:17Z</time>
      </trkpt>
      <trkpt lat="43.60465" lon="3.38658">
        <ele>279.5</ele>
        <time>2015-11-14T13:32:18Z</time>
      </trkpt>
      <trkpt lat="43.60463" lon="3.38655">
        <ele>280</ele>
        <time>2015-11-14T13:32:19Z</time>
      </trkpt>
      <trkpt lat="43.60462" lon="3.38651">
        <ele>280</ele>
        <time>2015-11-14T13:32:20Z</time>
      </trkpt>
      <trkpt lat="43.6046" lon="3.38648">
        <ele>280</ele>
        <time>2015-11-14T13:32:21Z</time>
      </trkpt>
      <trkpt lat="43.60458" lon="3.38644">
        <ele>280</ele>
        <time>2015-11-14T13:32:22Z</time>
      </trkpt>
      <trkpt lat="43.60457" lon="3.3864">
        <ele>280</ele>
        <time>2015-11-14T13:32:23Z</time>
      </trkpt>
      <trkpt lat="43.60455" lon="3.38637">
        <ele>280</ele>
        <time>2015-11-14T13:32:24Z</time>
      </trkpt>
      <trkpt lat="43.60452" lon="3.3863">
        <ele>280.5</ele>
        <time>2015-11-14T13:32:26Z</time>
      </trkpt>
      <trkpt lat="43.60451" lon="3.38626">
        <ele>280.5</ele>
        <time>2015-11-14T13:32:27Z</time>
      </trkpt>
      <trkpt lat="43.60449" lon="3.38623">
        <ele>280.5</ele>
        <time>2015-11-14T13:32:28Z</time>
      </trkpt>
      <trkpt lat="43.60448" lon="3.38619">
        <ele>280.5</ele>
        <time>2015-11-14T13:32:29Z</time>
      </trkpt>
      <trkpt lat="43.60446" lon="3.38615">
        <ele>281</ele>
        <time>2015-11-14T13:32:30Z</time>
      </trkpt>
      <trkpt lat="43.60444" lon="3.38612">
        <ele>281</ele>
        <time>2015-11-14T13:32:31Z</time>
      </trkpt>
      <trkpt lat="43.60443" lon="3.38608">
        <ele>281</ele>
        <time>2015-11-14T13:32:32Z</time>
      </trkpt>
      <trkpt lat="43.60441" lon="3.38604">
        <ele>281</ele>
        <time>2015-11-14T13:32:33Z</time>
      </trkpt>
      <trkpt lat="43.6044" lon="3.38601">
        <ele>281.5</ele>
        <time>2015-11-14T13:32:34Z</time>
      </trkpt>
      <trkpt lat="43.60438" lon="3.38597">
        <ele>281.5</ele>
        <time>2015-11-14T13:32:35Z</time>
      </trkpt>
      <trkpt lat="43.60436" lon="3.38593">
        <ele>281</ele>
        <time>2015-11-14T13:32:36Z</time>
      </trkpt>
      <trkpt lat="43.60434" lon="3.38588">
        <ele>281</ele>
        <time>2015-11-14T13:32:37Z</time>
      </trkpt>
      <trkpt lat="43.60433" lon="3.38584">
        <ele>281.5</ele>
        <time>2015-11-14T13:32:38Z</time>
      </trkpt>
      <trkpt lat="43.60431" lon="3.3858">
        <ele>282</ele>
        <time>2015-11-14T13:32:39Z</time>
      </trkpt>
      <trkpt lat="43.6043" lon="3.38576">
        <ele>281.5</ele>
        <time>2015-11-14T13:32:40Z</time>
      </trkpt>
      <trkpt lat="43.60428" lon="3.38572">
        <ele>281.5</ele>
        <time>2015-11-14T13:32:41Z</time>
      </trkpt>
      <trkpt lat="43.60427" lon="3.38568">
        <ele>282</ele>
        <time>2015-11-14T13:32:42Z</time>
      </trkpt>
      <trkpt lat="43.60426" lon="3.38565">
        <ele>282</ele>
        <time>2015-11-14T13:32:43Z</time>
      </trkpt>
      <trkpt lat="43.60424" lon="3.38561">
        <ele>282</ele>
        <time>2015-11-14T13:32:44Z</time>
      </trkpt>
      <trkpt lat="43.60423" lon="3.38557">
        <ele>282</ele>
        <time>2015-11-14T13:32:45Z</time>
      </trkpt>
      <trkpt lat="43.60422" lon="3.38553">
        <ele>282</ele>
        <time>2015-11-14T13:32:46Z</time>
      </trkpt>
      <trkpt lat="43.60421" lon="3.38549">
        <ele>282</ele>
        <time>2015-11-14T13:32:47Z</time>
      </trkpt>
      <trkpt lat="43.6042" lon="3.38546">
        <ele>282</ele>
        <time>2015-11-14T13:32:48Z</time>
      </trkpt>
      <trkpt lat="43.60418" lon="3.38542">
        <ele>282.5</ele>
        <time>2015-11-14T13:32:49Z</time>
      </trkpt>
      <trkpt lat="43.60417" lon="3.38538">
        <ele>282.5</ele>
        <time>2015-11-14T13:32:50Z</time>
      </trkpt>
      <trkpt lat="43.60416" lon="3.38535">
        <ele>282.5</ele>
        <time>2015-11-14T13:32:51Z</time>
      </trkpt>
      <trkpt lat="43.60415" lon="3.38531">
        <ele>283</ele>
        <time>2015-11-14T13:32:52Z</time>
      </trkpt>
      <trkpt lat="43.60414" lon="3.38527">
        <ele>283</ele>
        <time>2015-11-14T13:32:53Z</time>
      </trkpt>
      <trkpt lat="43.60413" lon="3.38524">
        <ele>283</ele>
        <time>2015-11-14T13:32:54Z</time>
      </trkpt>
      <trkpt lat="43.60412" lon="3.3852">
        <ele>283</ele>
        <time>2015-11-14T13:32:55Z</time>
      </trkpt>
      <trkpt lat="43.60411" lon="3.38517">
        <ele>283</ele>
        <time>2015-11-14T13:32:56Z</time>
      </trkpt>
      <trkpt lat="43.6041" lon="3.38513">
        <ele>283</ele>
        <time>2015-11-14T13:32:57Z</time>
      </trkpt>
      <trkpt lat="43.60409" lon="3.38509">
        <ele>283</ele>
        <time>2015-11-14T13:32:58Z</time>
      </trkpt>
      <trkpt lat="43.60408" lon="3.38505">
        <ele>283.5</ele>
        <time>2015-11-14T13:32:59Z</time>
      </trkpt>
      <trkpt lat="43.60406" lon="3.38501">
        <ele>283.5</ele>
        <time>2015-11-14T13:33:00Z</time>
      </trkpt>
      <trkpt lat="43.60405" lon="3.38498">
        <ele>283.5</ele>
        <time>2015-11-14T13:33:01Z</time>
      </trkpt>
      <trkpt lat="43.60404" lon="3.38494">
        <ele>283.5</ele>
        <time>2015-11-14T13:33:02Z</time>
      </trkpt>
      <trkpt lat="43.60403" lon="3.38489">
        <ele>283.5</ele>
        <time>2015-11-14T13:33:03Z</time>
      </trkpt>
      <trkpt lat="43.60402" lon="3.38485">
        <ele>283.5</ele>
        <time>2015-11-14T13:33:04Z</time>
      </trkpt>
      <trkpt lat="43.60401" lon="3.38481">
        <ele>283.5</ele>
        <time>2015-11-14T13:33:05Z</time>
      </trkpt>
      <trkpt lat="43.604" lon="3.38477">
        <ele>283.5</ele>
        <time>2015-11-14T13:33:06Z</time>
      </trkpt>
      <trkpt lat="43.60399" lon="3.38472">
        <ele>283</ele>
        <time>2015-11-14T13:33:07Z</time>
      </trkpt>
      <trkpt lat="43.60398" lon="3.38468">
        <ele>283</ele>
        <time>2015-11-14T13:33:08Z</time>
      </trkpt>
      <trkpt lat="43.60397" lon="3.38463">
        <ele>283</ele>
        <time>2015-11-14T13:33:09Z</time>
      </trkpt>
      <trkpt lat="43.60396" lon="3.38458">
        <ele>283.5</ele>
        <time>2015-11-14T13:33:10Z</time>
      </trkpt>
      <trkpt lat="43.60395" lon="3.38454">
        <ele>283</ele>
        <time>2015-11-14T13:33:11Z</time>
      </trkpt>
      <trkpt lat="43.60394" lon="3.38449">
        <ele>283</ele>
        <time>2015-11-14T13:33:12Z</time>
      </trkpt>
      <trkpt lat="43.60394" lon="3.38445">
        <ele>283.5</ele>
        <time>2015-11-14T13:33:13Z</time>
      </trkpt>
      <trkpt lat="43.60393" lon="3.3844">
        <ele>283</ele>
        <time>2015-11-14T13:33:14Z</time>
      </trkpt>
      <trkpt lat="43.60392" lon="3.38436">
        <ele>283</ele>
        <time>2015-11-14T13:33:15Z</time>
      </trkpt>
      <trkpt lat="43.60391" lon="3.38431">
        <ele>283</ele>
        <time>2015-11-14T13:33:16Z</time>
      </trkpt>
      <trkpt lat="43.6039" lon="3.38427">
        <ele>283</ele>
        <time>2015-11-14T13:33:17Z</time>
      </trkpt>
      <trkpt lat="43.60389" lon="3.38422">
        <ele>283</ele>
        <time>2015-11-14T13:33:18Z</time>
      </trkpt>
      <trkpt lat="43.60389" lon="3.38418">
        <ele>283</ele>
        <time>2015-11-14T13:33:19Z</time>
      </trkpt>
      <trkpt lat="43.60388" lon="3.38414">
        <ele>283</ele>
        <time>2015-11-14T13:33:20Z</time>
      </trkpt>
      <trkpt lat="43.60387" lon="3.38409">
        <ele>283</ele>
        <time>2015-11-14T13:33:21Z</time>
      </trkpt>
      <trkpt lat="43.60386" lon="3.38405">
        <ele>283</ele>
        <time>2015-11-14T13:33:22Z</time>
      </trkpt>
      <trkpt lat="43.60386" lon="3.38401">
        <ele>283.5</ele>
        <time>2015-11-14T13:33:23Z</time>
      </trkpt>
      <trkpt lat="43.60385" lon="3.38396">
        <ele>283.5</ele>
        <time>2015-11-14T13:33:24Z</time>
      </trkpt>
      <trkpt lat="43.60384" lon="3.38392">
        <ele>283.5</ele>
        <time>2015-11-14T13:33:25Z</time>
      </trkpt>
      <trkpt lat="43.60383" lon="3.38388">
        <ele>283.5</ele>
        <time>2015-11-14T13:33:26Z</time>
      </trkpt>
      <trkpt lat="43.60383" lon="3.38383">
        <ele>283.5</ele>
        <time>2015-11-14T13:33:27Z</time>
      </trkpt>
      <trkpt lat="43.60382" lon="3.38379">
        <ele>283.5</ele>
        <time>2015-11-14T13:33:28Z</time>
      </trkpt>
      <trkpt lat="43.60381" lon="3.38374">
        <ele>283.5</ele>
        <time>2015-11-14T13:33:29Z</time>
      </trkpt>
      <trkpt lat="43.60381" lon="3.3837">
        <ele>284</ele>
        <time>2015-11-14T13:33:30Z</time>
      </trkpt>
      <trkpt lat="43.6038" lon="3.38365">
        <ele>284</ele>
        <time>2015-11-14T13:33:31Z</time>
      </trkpt>
      <trkpt lat="43.6038" lon="3.38361">
        <ele>284</ele>
        <time>2015-11-14T13:33:32Z</time>
      </trkpt>
      <trkpt lat="43.6038" lon="3.38356">
        <ele>284</ele>
        <time>2015-11-14T13:33:33Z</time>
      </trkpt>
      <trkpt lat="43.6038" lon="3.38351">
        <ele>284</ele>
        <time>2015-11-14T13:33:34Z</time>
      </trkpt>
      <trkpt lat="43.60379" lon="3.38347">
        <ele>284</ele>
        <time>2015-11-14T13:33:35Z</time>
      </trkpt>
      <trkpt lat="43.60379" lon="3.38343">
        <ele>284</ele>
        <time>2015-11-14T13:33:36Z</time>
      </trkpt>
      <trkpt lat="43.60379" lon="3.38338">
        <ele>284.5</ele>
        <time>2015-11-14T13:33:37Z</time>
      </trkpt>
      <trkpt lat="43.60379" lon="3.38334">
        <ele>284</ele>
        <time>2015-11-14T13:33:38Z</time>
      </trkpt>
      <trkpt lat="43.60379" lon="3.38329">
        <ele>284.5</ele>
        <time>2015-11-14T13:33:39Z</time>
      </trkpt>
      <trkpt lat="43.60379" lon="3.38325">
        <ele>284</ele>
        <time>2015-11-14T13:33:40Z</time>
      </trkpt>
      <trkpt lat="43.60378" lon="3.3832">
        <ele>284.5</ele>
        <time>2015-11-14T13:33:41Z</time>
      </trkpt>
      <trkpt lat="43.60378" lon="3.38315">
        <ele>284.5</ele>
        <time>2015-11-14T13:33:42Z</time>
      </trkpt>
      <trkpt lat="43.60378" lon="3.38311">
        <ele>284.5</ele>
        <time>2015-11-14T13:33:43Z</time>
      </trkpt>
      <trkpt lat="43.60378" lon="3.38306">
        <ele>284.5</ele>
        <time>2015-11-14T13:33:44Z</time>
      </trkpt>
      <trkpt lat="43.60378" lon="3.38302">
        <ele>285</ele>
        <time>2015-11-14T13:33:45Z</time>
      </trkpt>
      <trkpt lat="43.60378" lon="3.38297">
        <ele>285</ele>
        <time>2015-11-14T13:33:46Z</time>
      </trkpt>
      <trkpt lat="43.60378" lon="3.38292">
        <ele>285</ele>
        <time>2015-11-14T13:33:47Z</time>
      </trkpt>
      <trkpt lat="43.60378" lon="3.38287">
        <ele>285.5</ele>
        <time>2015-11-14T13:33:48Z</time>
      </trkpt>
      <trkpt lat="43.60378" lon="3.38282">
        <ele>286</ele>
        <time>2015-11-14T13:33:49Z</time>
      </trkpt>
      <trkpt lat="43.60378" lon="3.38277">
        <ele>286.5</ele>
        <time>2015-11-14T13:33:50Z</time>
      </trkpt>
      <trkpt lat="43.60378" lon="3.38272">
        <ele>286.5</ele>
        <time>2015-11-14T13:33:51Z</time>
      </trkpt>
      <trkpt lat="43.60378" lon="3.38267">
        <ele>287</ele>
        <time>2015-11-14T13:33:52Z</time>
      </trkpt>
      <trkpt lat="43.60378" lon="3.38263">
        <ele>286.5</ele>
        <time>2015-11-14T13:33:53Z</time>
      </trkpt>
      <trkpt lat="43.60377" lon="3.38258">
        <ele>287</ele>
        <time>2015-11-14T13:33:54Z</time>
      </trkpt>
      <trkpt lat="43.60377" lon="3.38254">
        <ele>287</ele>
        <time>2015-11-14T13:33:55Z</time>
      </trkpt>
      <trkpt lat="43.60377" lon="3.38249">
        <ele>287</ele>
        <time>2015-11-14T13:33:56Z</time>
      </trkpt>
      <trkpt lat="43.60377" lon="3.38245">
        <ele>287.5</ele>
        <time>2015-11-14T13:33:57Z</time>
      </trkpt>
      <trkpt lat="43.60377" lon="3.38241">
        <ele>287.5</ele>
        <time>2015-11-14T13:33:58Z</time>
      </trkpt>
      <trkpt lat="43.60376" lon="3.38237">
        <ele>287.5</ele>
        <time>2015-11-14T13:33:59Z</time>
      </trkpt>
      <trkpt lat="43.60376" lon="3.38233">
        <ele>287.5</ele>
        <time>2015-11-14T13:34:00Z</time>
      </trkpt>
      <trkpt lat="43.60376" lon="3.38228">
        <ele>288</ele>
        <time>2015-11-14T13:34:01Z</time>
      </trkpt>
      <trkpt lat="43.60375" lon="3.38224">
        <ele>288</ele>
        <time>2015-11-14T13:34:02Z</time>
      </trkpt>
      <trkpt lat="43.60375" lon="3.38219">
        <ele>288.5</ele>
        <time>2015-11-14T13:34:03Z</time>
      </trkpt>
      <trkpt lat="43.60375" lon="3.38215">
        <ele>288.5</ele>
        <time>2015-11-14T13:34:04Z</time>
      </trkpt>
      <trkpt lat="43.60375" lon="3.3821">
        <ele>288.5</ele>
        <time>2015-11-14T13:34:05Z</time>
      </trkpt>
      <trkpt lat="43.60374" lon="3.38206">
        <ele>289</ele>
        <time>2015-11-14T13:34:06Z</time>
      </trkpt>
      <trkpt lat="43.60374" lon="3.38201">
        <ele>289</ele>
        <time>2015-11-14T13:34:07Z</time>
      </trkpt>
      <trkpt lat="43.60374" lon="3.38197">
        <ele>289</ele>
        <time>2015-11-14T13:34:08Z</time>
      </trkpt>
      <trkpt lat="43.60373" lon="3.38192">
        <ele>289.5</ele>
        <time>2015-11-14T13:34:09Z</time>
      </trkpt>
      <trkpt lat="43.60373" lon="3.38188">
        <ele>289.5</ele>
        <time>2015-11-14T13:34:10Z</time>
      </trkpt>
      <trkpt lat="43.60373" lon="3.38184">
        <ele>289.5</ele>
        <time>2015-11-14T13:34:11Z</time>
      </trkpt>
      <trkpt lat="43.60372" lon="3.38179">
        <ele>290</ele>
        <time>2015-11-14T13:34:12Z</time>
      </trkpt>
      <trkpt lat="43.60372" lon="3.38175">
        <ele>290</ele>
        <time>2015-11-14T13:34:13Z</time>
      </trkpt>
      <trkpt lat="43.60372" lon="3.3817">
        <ele>290.5</ele>
        <time>2015-11-14T13:34:14Z</time>
      </trkpt>
      <trkpt lat="43.60371" lon="3.38166">
        <ele>290.5</ele>
        <time>2015-11-14T13:34:15Z</time>
      </trkpt>
      <trkpt lat="43.60371" lon="3.38162">
        <ele>291</ele>
        <time>2015-11-14T13:34:16Z</time>
      </trkpt>
      <trkpt lat="43.60371" lon="3.38157">
        <ele>291</ele>
        <time>2015-11-14T13:34:17Z</time>
      </trkpt>
      <trkpt lat="43.6037" lon="3.38153">
        <ele>291</ele>
        <time>2015-11-14T13:34:18Z</time>
      </trkpt>
      <trkpt lat="43.6037" lon="3.38149">
        <ele>291</ele>
        <time>2015-11-14T13:34:19Z</time>
      </trkpt>
      <trkpt lat="43.6037" lon="3.38144">
        <ele>291</ele>
        <time>2015-11-14T13:34:19Z</time>
      </trkpt>
      <trkpt lat="43.6037" lon="3.3814">
        <ele>291</ele>
        <time>2015-11-14T13:34:20Z</time>
      </trkpt>
      <trkpt lat="43.60369" lon="3.38135">
        <ele>291</ele>
        <time>2015-11-14T13:34:22Z</time>
      </trkpt>
      <trkpt lat="43.60369" lon="3.38127">
        <ele>291</ele>
        <time>2015-11-14T13:34:24Z</time>
      </trkpt>
      <trkpt lat="43.60369" lon="3.38123">
        <ele>291</ele>
        <time>2015-11-14T13:34:24Z</time>
      </trkpt>
      <trkpt lat="43.60368" lon="3.38118">
        <ele>291</ele>
        <time>2015-11-14T13:34:25Z</time>
      </trkpt>
      <trkpt lat="43.60368" lon="3.38114">
        <ele>291.5</ele>
        <time>2015-11-14T13:34:26Z</time>
      </trkpt>
      <trkpt lat="43.60368" lon="3.3811">
        <ele>291.5</ele>
        <time>2015-11-14T13:34:27Z</time>
      </trkpt>
      <trkpt lat="43.60368" lon="3.38106">
        <ele>292</ele>
        <time>2015-11-14T13:34:28Z</time>
      </trkpt>
      <trkpt lat="43.60367" lon="3.38102">
        <ele>292</ele>
        <time>2015-11-14T13:34:29Z</time>
      </trkpt>
      <trkpt lat="43.60367" lon="3.38098">
        <ele>292</ele>
        <time>2015-11-14T13:34:30Z</time>
      </trkpt>
      <trkpt lat="43.60367" lon="3.38094">
        <ele>292</ele>
        <time>2015-11-14T13:34:31Z</time>
      </trkpt>
      <trkpt lat="43.60367" lon="3.38089">
        <ele>292</ele>
        <time>2015-11-14T13:34:33Z</time>
      </trkpt>
      <trkpt lat="43.60366" lon="3.38085">
        <ele>292</ele>
        <time>2015-11-14T13:34:33Z</time>
      </trkpt>
      <trkpt lat="43.60366" lon="3.3808">
        <ele>292.5</ele>
        <time>2015-11-14T13:34:34Z</time>
      </trkpt>
      <trkpt lat="43.60365" lon="3.38075">
        <ele>293</ele>
        <time>2015-11-14T13:34:35Z</time>
      </trkpt>
      <trkpt lat="43.60365" lon="3.38071">
        <ele>293</ele>
        <time>2015-11-14T13:34:36Z</time>
      </trkpt>
      <trkpt lat="43.60365" lon="3.38067">
        <ele>293</ele>
        <time>2015-11-14T13:34:38Z</time>
      </trkpt>
      <trkpt lat="43.60364" lon="3.38064">
        <ele>293</ele>
        <time>2015-11-14T13:34:38Z</time>
      </trkpt>
      <trkpt lat="43.60364" lon="3.3806">
        <ele>293</ele>
        <time>2015-11-14T13:34:39Z</time>
      </trkpt>
      <trkpt lat="43.60363" lon="3.38056">
        <ele>293</ele>
        <time>2015-11-14T13:34:40Z</time>
      </trkpt>
      <trkpt lat="43.60363" lon="3.38051">
        <ele>293.5</ele>
        <time>2015-11-14T13:34:41Z</time>
      </trkpt>
      <trkpt lat="43.60363" lon="3.38047">
        <ele>293.5</ele>
        <time>2015-11-14T13:34:42Z</time>
      </trkpt>
      <trkpt lat="43.60362" lon="3.38044">
        <ele>294</ele>
        <time>2015-11-14T13:34:43Z</time>
      </trkpt>
      <trkpt lat="43.60362" lon="3.38039">
        <ele>294</ele>
        <time>2015-11-14T13:34:44Z</time>
      </trkpt>
      <trkpt lat="43.60361" lon="3.38035">
        <ele>294</ele>
        <time>2015-11-14T13:34:45Z</time>
      </trkpt>
      <trkpt lat="43.60361" lon="3.38031">
        <ele>294.5</ele>
        <time>2015-11-14T13:34:46Z</time>
      </trkpt>
      <trkpt lat="43.6036" lon="3.38027">
        <ele>294.5</ele>
        <time>2015-11-14T13:34:47Z</time>
      </trkpt>
      <trkpt lat="43.6036" lon="3.38023">
        <ele>294.5</ele>
        <time>2015-11-14T13:34:49Z</time>
      </trkpt>
      <trkpt lat="43.6036" lon="3.38019">
        <ele>294.5</ele>
        <time>2015-11-14T13:34:49Z</time>
      </trkpt>
      <trkpt lat="43.60359" lon="3.38015">
        <ele>294.5</ele>
        <time>2015-11-14T13:34:50Z</time>
      </trkpt>
      <trkpt lat="43.60359" lon="3.38011">
        <ele>294.5</ele>
        <time>2015-11-14T13:34:51Z</time>
      </trkpt>
      <trkpt lat="43.60359" lon="3.38007">
        <ele>294.5</ele>
        <time>2015-11-14T13:34:52Z</time>
      </trkpt>
      <trkpt lat="43.60358" lon="3.38003">
        <ele>295</ele>
        <time>2015-11-14T13:34:53Z</time>
      </trkpt>
      <trkpt lat="43.60358" lon="3.37999">
        <ele>295</ele>
        <time>2015-11-14T13:34:54Z</time>
      </trkpt>
      <trkpt lat="43.60357" lon="3.37995">
        <ele>295</ele>
        <time>2015-11-14T13:34:55Z</time>
      </trkpt>
      <trkpt lat="43.60357" lon="3.37991">
        <ele>295</ele>
        <time>2015-11-14T13:34:56Z</time>
      </trkpt>
      <trkpt lat="43.60356" lon="3.37987">
        <ele>295</ele>
        <time>2015-11-14T13:34:57Z</time>
      </trkpt>
      <trkpt lat="43.60356" lon="3.37983">
        <ele>295</ele>
        <time>2015-11-14T13:34:59Z</time>
      </trkpt>
      <trkpt lat="43.60355" lon="3.37975">
        <ele>295</ele>
        <time>2015-11-14T13:35:00Z</time>
      </trkpt>
      <trkpt lat="43.60355" lon="3.37971">
        <ele>295</ele>
        <time>2015-11-14T13:35:02Z</time>
      </trkpt>
      <trkpt lat="43.60354" lon="3.37967">
        <ele>295</ele>
        <time>2015-11-14T13:35:02Z</time>
      </trkpt>
      <trkpt lat="43.60354" lon="3.37962">
        <ele>295.5</ele>
        <time>2015-11-14T13:35:03Z</time>
      </trkpt>
      <trkpt lat="43.60353" lon="3.37957">
        <ele>295.5</ele>
        <time>2015-11-14T13:35:04Z</time>
      </trkpt>
      <trkpt lat="43.60353" lon="3.37949">
        <ele>296</ele>
        <time>2015-11-14T13:35:07Z</time>
      </trkpt>
      <trkpt lat="43.60353" lon="3.37945">
        <ele>296</ele>
        <time>2015-11-14T13:35:07Z</time>
      </trkpt>
      <trkpt lat="43.60352" lon="3.37941">
        <ele>296.5</ele>
        <time>2015-11-14T13:35:08Z</time>
      </trkpt>
      <trkpt lat="43.60352" lon="3.37937">
        <ele>296.5</ele>
        <time>2015-11-14T13:35:09Z</time>
      </trkpt>
      <trkpt lat="43.60352" lon="3.37933">
        <ele>297</ele>
        <time>2015-11-14T13:35:10Z</time>
      </trkpt>
      <trkpt lat="43.60352" lon="3.37929">
        <ele>297</ele>
        <time>2015-11-14T13:35:11Z</time>
      </trkpt>
      <trkpt lat="43.60352" lon="3.37926">
        <ele>297.5</ele>
        <time>2015-11-14T13:35:12Z</time>
      </trkpt>
      <trkpt lat="43.60351" lon="3.37922">
        <ele>297.5</ele>
        <time>2015-11-14T13:35:13Z</time>
      </trkpt>
      <trkpt lat="43.60351" lon="3.37918">
        <ele>298</ele>
        <time>2015-11-14T13:35:14Z</time>
      </trkpt>
      <trkpt lat="43.60351" lon="3.37915">
        <ele>298</ele>
        <time>2015-11-14T13:35:15Z</time>
      </trkpt>
      <trkpt lat="43.60351" lon="3.37911">
        <ele>298.5</ele>
        <time>2015-11-14T13:35:16Z</time>
      </trkpt>
      <trkpt lat="43.6035" lon="3.37907">
        <ele>298.5</ele>
        <time>2015-11-14T13:35:17Z</time>
      </trkpt>
      <trkpt lat="43.6035" lon="3.37903">
        <ele>298.5</ele>
        <time>2015-11-14T13:35:18Z</time>
      </trkpt>
      <trkpt lat="43.6035" lon="3.379">
        <ele>298.5</ele>
        <time>2015-11-14T13:35:19Z</time>
      </trkpt>
      <trkpt lat="43.6035" lon="3.37896">
        <ele>298.5</ele>
        <time>2015-11-14T13:35:20Z</time>
      </trkpt>
      <trkpt lat="43.6035" lon="3.37892">
        <ele>299</ele>
        <time>2015-11-14T13:35:21Z</time>
      </trkpt>
      <trkpt lat="43.6035" lon="3.37888">
        <ele>299</ele>
        <time>2015-11-14T13:35:22Z</time>
      </trkpt>
      <trkpt lat="43.60349" lon="3.37884">
        <ele>299.5</ele>
        <time>2015-11-14T13:35:23Z</time>
      </trkpt>
      <trkpt lat="43.60349" lon="3.3788">
        <ele>299.5</ele>
        <time>2015-11-14T13:35:24Z</time>
      </trkpt>
      <trkpt lat="43.60349" lon="3.37876">
        <ele>299.5</ele>
        <time>2015-11-14T13:35:25Z</time>
      </trkpt>
      <trkpt lat="43.60348" lon="3.37872">
        <ele>299.5</ele>
        <time>2015-11-14T13:35:26Z</time>
      </trkpt>
      <trkpt lat="43.60348" lon="3.37868">
        <ele>299.5</ele>
        <time>2015-11-14T13:35:27Z</time>
      </trkpt>
      <trkpt lat="43.60348" lon="3.37864">
        <ele>299.5</ele>
        <time>2015-11-14T13:35:28Z</time>
      </trkpt>
      <trkpt lat="43.60347" lon="3.37859">
        <ele>299.5</ele>
        <time>2015-11-14T13:35:29Z</time>
      </trkpt>
      <trkpt lat="43.60347" lon="3.37854">
        <ele>300</ele>
        <time>2015-11-14T13:35:30Z</time>
      </trkpt>
      <trkpt lat="43.60346" lon="3.3785">
        <ele>300.5</ele>
        <time>2015-11-14T13:35:31Z</time>
      </trkpt>
      <trkpt lat="43.60346" lon="3.37846">
        <ele>300.5</ele>
        <time>2015-11-14T13:35:32Z</time>
      </trkpt>
      <trkpt lat="43.60345" lon="3.37842">
        <ele>300.5</ele>
        <time>2015-11-14T13:35:33Z</time>
      </trkpt>
      <trkpt lat="43.60345" lon="3.37838">
        <ele>300.5</ele>
        <time>2015-11-14T13:35:34Z</time>
      </trkpt>
      <trkpt lat="43.60344" lon="3.37835">
        <ele>300.5</ele>
        <time>2015-11-14T13:35:35Z</time>
      </trkpt>
      <trkpt lat="43.60343" lon="3.37831">
        <ele>301</ele>
        <time>2015-11-14T13:35:36Z</time>
      </trkpt>
      <trkpt lat="43.60343" lon="3.37827">
        <ele>301</ele>
        <time>2015-11-14T13:35:37Z</time>
      </trkpt>
      <trkpt lat="43.60342" lon="3.37823">
        <ele>301</ele>
        <time>2015-11-14T13:35:38Z</time>
      </trkpt>
      <trkpt lat="43.60341" lon="3.37819">
        <ele>301</ele>
        <time>2015-11-14T13:35:39Z</time>
      </trkpt>
      <trkpt lat="43.6034" lon="3.37814">
        <ele>301</ele>
        <time>2015-11-14T13:35:40Z</time>
      </trkpt>
      <trkpt lat="43.60339" lon="3.3781">
        <ele>301.5</ele>
        <time>2015-11-14T13:35:41Z</time>
      </trkpt>
      <trkpt lat="43.60338" lon="3.37806">
        <ele>301.5</ele>
        <time>2015-11-14T13:35:42Z</time>
      </trkpt>
      <trkpt lat="43.60336" lon="3.37802">
        <ele>301.5</ele>
        <time>2015-11-14T13:35:43Z</time>
      </trkpt>
      <trkpt lat="43.60335" lon="3.37798">
        <ele>301</ele>
        <time>2015-11-14T13:35:44Z</time>
      </trkpt>
      <trkpt lat="43.60334" lon="3.37793">
        <ele>301.5</ele>
        <time>2015-11-14T13:35:45Z</time>
      </trkpt>
      <trkpt lat="43.60333" lon="3.37789">
        <ele>301.5</ele>
        <time>2015-11-14T13:35:46Z</time>
      </trkpt>
      <trkpt lat="43.60332" lon="3.37785">
        <ele>301.5</ele>
        <time>2015-11-14T13:35:47Z</time>
      </trkpt>
      <trkpt lat="43.60331" lon="3.37781">
        <ele>301.5</ele>
        <time>2015-11-14T13:35:48Z</time>
      </trkpt>
      <trkpt lat="43.6033" lon="3.37777">
        <ele>302</ele>
        <time>2015-11-14T13:35:49Z</time>
      </trkpt>
      <trkpt lat="43.60328" lon="3.37773">
        <ele>302</ele>
        <time>2015-11-14T13:35:50Z</time>
      </trkpt>
      <trkpt lat="43.60327" lon="3.3777">
        <ele>302</ele>
        <time>2015-11-14T13:35:51Z</time>
      </trkpt>
      <trkpt lat="43.60326" lon="3.37766">
        <ele>302.5</ele>
        <time>2015-11-14T13:35:52Z</time>
      </trkpt>
      <trkpt lat="43.60325" lon="3.37762">
        <ele>302.5</ele>
        <time>2015-11-14T13:35:53Z</time>
      </trkpt>
      <trkpt lat="43.60324" lon="3.37759">
        <ele>302.5</ele>
        <time>2015-11-14T13:35:54Z</time>
      </trkpt>
      <trkpt lat="43.60323" lon="3.37755">
        <ele>303</ele>
        <time>2015-11-14T13:35:55Z</time>
      </trkpt>
      <trkpt lat="43.60322" lon="3.37751">
        <ele>303</ele>
        <time>2015-11-14T13:35:56Z</time>
      </trkpt>
      <trkpt lat="43.60322" lon="3.37747">
        <ele>303</ele>
        <time>2015-11-14T13:35:57Z</time>
      </trkpt>
      <trkpt lat="43.60321" lon="3.37743">
        <ele>303</ele>
        <time>2015-11-14T13:35:58Z</time>
      </trkpt>
      <trkpt lat="43.6032" lon="3.3774">
        <ele>303.5</ele>
        <time>2015-11-14T13:35:59Z</time>
      </trkpt>
      <trkpt lat="43.6032" lon="3.37736">
        <ele>303.5</ele>
        <time>2015-11-14T13:36:00Z</time>
      </trkpt>
      <trkpt lat="43.60319" lon="3.37732">
        <ele>303.5</ele>
        <time>2015-11-14T13:36:01Z</time>
      </trkpt>
      <trkpt lat="43.60319" lon="3.37728">
        <ele>303.5</ele>
        <time>2015-11-14T13:36:02Z</time>
      </trkpt>
      <trkpt lat="43.60318" lon="3.37723">
        <ele>303.5</ele>
        <time>2015-11-14T13:36:03Z</time>
      </trkpt>
      <trkpt lat="43.60318" lon="3.37719">
        <ele>304</ele>
        <time>2015-11-14T13:36:04Z</time>
      </trkpt>
      <trkpt lat="43.60318" lon="3.37715">
        <ele>304</ele>
        <time>2015-11-14T13:36:05Z</time>
      </trkpt>
      <trkpt lat="43.60318" lon="3.37711">
        <ele>304.5</ele>
        <time>2015-11-14T13:36:06Z</time>
      </trkpt>
      <trkpt lat="43.60318" lon="3.37707">
        <ele>305</ele>
        <time>2015-11-14T13:36:07Z</time>
      </trkpt>
      <trkpt lat="43.60319" lon="3.37702">
        <ele>305</ele>
        <time>2015-11-14T13:36:08Z</time>
      </trkpt>
      <trkpt lat="43.60319" lon="3.37698">
        <ele>305.5</ele>
        <time>2015-11-14T13:36:09Z</time>
      </trkpt>
      <trkpt lat="43.60319" lon="3.37694">
        <ele>305.5</ele>
        <time>2015-11-14T13:36:10Z</time>
      </trkpt>
      <trkpt lat="43.6032" lon="3.3769">
        <ele>306</ele>
        <time>2015-11-14T13:36:11Z</time>
      </trkpt>
      <trkpt lat="43.6032" lon="3.37686">
        <ele>306.5</ele>
        <time>2015-11-14T13:36:12Z</time>
      </trkpt>
      <trkpt lat="43.6032" lon="3.37682">
        <ele>306.5</ele>
        <time>2015-11-14T13:36:13Z</time>
      </trkpt>
      <trkpt lat="43.6032" lon="3.37677">
        <ele>307</ele>
        <time>2015-11-14T13:36:14Z</time>
      </trkpt>
      <trkpt lat="43.60321" lon="3.37673">
        <ele>307.5</ele>
        <time>2015-11-14T13:36:15Z</time>
      </trkpt>
      <trkpt lat="43.60321" lon="3.37669">
        <ele>308</ele>
        <time>2015-11-14T13:36:16Z</time>
      </trkpt>
      <trkpt lat="43.60321" lon="3.37665">
        <ele>308.5</ele>
        <time>2015-11-14T13:36:17Z</time>
      </trkpt>
      <trkpt lat="43.60322" lon="3.37661">
        <ele>308.5</ele>
        <time>2015-11-14T13:36:18Z</time>
      </trkpt>
      <trkpt lat="43.60322" lon="3.37657">
        <ele>308.5</ele>
        <time>2015-11-14T13:36:19Z</time>
      </trkpt>
      <trkpt lat="43.60323" lon="3.37653">
        <ele>308.5</ele>
        <time>2015-11-14T13:36:20Z</time>
      </trkpt>
      <trkpt lat="43.60323" lon="3.37649">
        <ele>308.5</ele>
        <time>2015-11-14T13:36:21Z</time>
      </trkpt>
      <trkpt lat="43.60323" lon="3.37644">
        <ele>308.5</ele>
        <time>2015-11-14T13:36:22Z</time>
      </trkpt>
      <trkpt lat="43.60324" lon="3.3764">
        <ele>308.5</ele>
        <time>2015-11-14T13:36:23Z</time>
      </trkpt>
      <trkpt lat="43.60324" lon="3.37636">
        <ele>308.5</ele>
        <time>2015-11-14T13:36:24Z</time>
      </trkpt>
      <trkpt lat="43.60324" lon="3.37632">
        <ele>309</ele>
        <time>2015-11-14T13:36:25Z</time>
      </trkpt>
      <trkpt lat="43.60324" lon="3.37628">
        <ele>309</ele>
        <time>2015-11-14T13:36:26Z</time>
      </trkpt>
      <trkpt lat="43.60325" lon="3.37624">
        <ele>309</ele>
        <time>2015-11-14T13:36:27Z</time>
      </trkpt>
      <trkpt lat="43.60325" lon="3.3762">
        <ele>309.5</ele>
        <time>2015-11-14T13:36:28Z</time>
      </trkpt>
      <trkpt lat="43.60325" lon="3.37615">
        <ele>309.5</ele>
        <time>2015-11-14T13:36:29Z</time>
      </trkpt>
      <trkpt lat="43.60325" lon="3.37611">
        <ele>310</ele>
        <time>2015-11-14T13:36:30Z</time>
      </trkpt>
      <trkpt lat="43.60326" lon="3.37606">
        <ele>310.5</ele>
        <time>2015-11-14T13:36:31Z</time>
      </trkpt>
      <trkpt lat="43.60326" lon="3.37602">
        <ele>311</ele>
        <time>2015-11-14T13:36:32Z</time>
      </trkpt>
      <trkpt lat="43.60326" lon="3.37598">
        <ele>311</ele>
        <time>2015-11-14T13:36:33Z</time>
      </trkpt>
      <trkpt lat="43.60326" lon="3.37594">
        <ele>311</ele>
        <time>2015-11-14T13:36:34Z</time>
      </trkpt>
      <trkpt lat="43.60326" lon="3.37589">
        <ele>311.5</ele>
        <time>2015-11-14T13:36:35Z</time>
      </trkpt>
      <trkpt lat="43.60326" lon="3.37585">
        <ele>311.5</ele>
        <time>2015-11-14T13:36:36Z</time>
      </trkpt>
      <trkpt lat="43.60326" lon="3.37581">
        <ele>312</ele>
        <time>2015-11-14T13:36:37Z</time>
      </trkpt>
      <trkpt lat="43.60326" lon="3.37577">
        <ele>312.5</ele>
        <time>2015-11-14T13:36:38Z</time>
      </trkpt>
      <trkpt lat="43.60325" lon="3.37573">
        <ele>313</ele>
        <time>2015-11-14T13:36:39Z</time>
      </trkpt>
      <trkpt lat="43.60325" lon="3.37568">
        <ele>313</ele>
        <time>2015-11-14T13:36:40Z</time>
      </trkpt>
      <trkpt lat="43.60325" lon="3.37564">
        <ele>313</ele>
        <time>2015-11-14T13:36:41Z</time>
      </trkpt>
      <trkpt lat="43.60325" lon="3.3756">
        <ele>313</ele>
        <time>2015-11-14T13:36:42Z</time>
      </trkpt>
      <trkpt lat="43.60325" lon="3.37556">
        <ele>313.5</ele>
        <time>2015-11-14T13:36:43Z</time>
      </trkpt>
      <trkpt lat="43.60325" lon="3.37552">
        <ele>313.5</ele>
        <time>2015-11-14T13:36:44Z</time>
      </trkpt>
      <trkpt lat="43.60325" lon="3.37547">
        <ele>314</ele>
        <time>2015-11-14T13:36:45Z</time>
      </trkpt>
      <trkpt lat="43.60325" lon="3.37543">
        <ele>314</ele>
        <time>2015-11-14T13:36:46Z</time>
      </trkpt>
      <trkpt lat="43.60325" lon="3.37539">
        <ele>314.5</ele>
        <time>2015-11-14T13:36:47Z</time>
      </trkpt>
      <trkpt lat="43.60325" lon="3.37535">
        <ele>314.5</ele>
        <time>2015-11-14T13:36:48Z</time>
      </trkpt>
      <trkpt lat="43.60325" lon="3.3753">
        <ele>314.5</ele>
        <time>2015-11-14T13:36:49Z</time>
      </trkpt>
      <trkpt lat="43.60325" lon="3.37526">
        <ele>315</ele>
        <time>2015-11-14T13:36:50Z</time>
      </trkpt>
      <trkpt lat="43.60325" lon="3.37522">
        <ele>315</ele>
        <time>2015-11-14T13:36:51Z</time>
      </trkpt>
      <trkpt lat="43.60325" lon="3.37518">
        <ele>315.5</ele>
        <time>2015-11-14T13:36:52Z</time>
      </trkpt>
      <trkpt lat="43.60326" lon="3.37514">
        <ele>315.5</ele>
        <time>2015-11-14T13:36:53Z</time>
      </trkpt>
      <trkpt lat="43.60326" lon="3.37509">
        <ele>316</ele>
        <time>2015-11-14T13:36:54Z</time>
      </trkpt>
      <trkpt lat="43.60326" lon="3.37505">
        <ele>316</ele>
        <time>2015-11-14T13:36:55Z</time>
      </trkpt>
      <trkpt lat="43.60327" lon="3.37501">
        <ele>316</ele>
        <time>2015-11-14T13:36:56Z</time>
      </trkpt>
      <trkpt lat="43.60327" lon="3.37497">
        <ele>316.5</ele>
        <time>2015-11-14T13:36:57Z</time>
      </trkpt>
      <trkpt lat="43.60327" lon="3.37493">
        <ele>316.5</ele>
        <time>2015-11-14T13:36:58Z</time>
      </trkpt>
      <trkpt lat="43.60328" lon="3.37489">
        <ele>317</ele>
        <time>2015-11-14T13:36:59Z</time>
      </trkpt>
      <trkpt lat="43.60328" lon="3.37485">
        <ele>317.5</ele>
        <time>2015-11-14T13:37:00Z</time>
      </trkpt>
      <trkpt lat="43.60329" lon="3.37481">
        <ele>317.5</ele>
        <time>2015-11-14T13:37:01Z</time>
      </trkpt>
      <trkpt lat="43.6033" lon="3.37477">
        <ele>317.5</ele>
        <time>2015-11-14T13:37:02Z</time>
      </trkpt>
      <trkpt lat="43.6033" lon="3.37473">
        <ele>317.5</ele>
        <time>2015-11-14T13:37:03Z</time>
      </trkpt>
      <trkpt lat="43.60331" lon="3.37469">
        <ele>318</ele>
        <time>2015-11-14T13:37:04Z</time>
      </trkpt>
      <trkpt lat="43.60332" lon="3.37465">
        <ele>318</ele>
        <time>2015-11-14T13:37:05Z</time>
      </trkpt>
      <trkpt lat="43.60332" lon="3.37461">
        <ele>318</ele>
        <time>2015-11-14T13:37:06Z</time>
      </trkpt>
      <trkpt lat="43.60333" lon="3.37457">
        <ele>318.5</ele>
        <time>2015-11-14T13:37:07Z</time>
      </trkpt>
      <trkpt lat="43.60333" lon="3.37453">
        <ele>318.5</ele>
        <time>2015-11-14T13:37:08Z</time>
      </trkpt>
      <trkpt lat="43.60333" lon="3.37449">
        <ele>318.5</ele>
        <time>2015-11-14T13:37:09Z</time>
      </trkpt>
      <trkpt lat="43.60334" lon="3.37445">
        <ele>318.5</ele>
        <time>2015-11-14T13:37:10Z</time>
      </trkpt>
      <trkpt lat="43.60334" lon="3.3744">
        <ele>318</ele>
        <time>2015-11-14T13:37:11Z</time>
      </trkpt>
      <trkpt lat="43.60334" lon="3.37436">
        <ele>318</ele>
        <time>2015-11-14T13:37:12Z</time>
      </trkpt>
      <trkpt lat="43.60334" lon="3.37432">
        <ele>318</ele>
        <time>2015-11-14T13:37:13Z</time>
      </trkpt>
      <trkpt lat="43.60334" lon="3.37428">
        <ele>317.5</ele>
        <time>2015-11-14T13:37:14Z</time>
      </trkpt>
      <trkpt lat="43.60334" lon="3.37423">
        <ele>318</ele>
        <time>2015-11-14T13:37:15Z</time>
      </trkpt>
      <trkpt lat="43.60334" lon="3.37418">
        <ele>317.5</ele>
        <time>2015-11-14T13:37:16Z</time>
      </trkpt>
      <trkpt lat="43.60333" lon="3.37414">
        <ele>317.5</ele>
        <time>2015-11-14T13:37:17Z</time>
      </trkpt>
      <trkpt lat="43.60333" lon="3.37409">
        <ele>317.5</ele>
        <time>2015-11-14T13:37:18Z</time>
      </trkpt>
      <trkpt lat="43.60333" lon="3.37404">
        <ele>317</ele>
        <time>2015-11-14T13:37:19Z</time>
      </trkpt>
      <trkpt lat="43.60333" lon="3.374">
        <ele>317</ele>
        <time>2015-11-14T13:37:20Z</time>
      </trkpt>
      <trkpt lat="43.60333" lon="3.37395">
        <ele>316.5</ele>
        <time>2015-11-14T13:37:21Z</time>
      </trkpt>
      <trkpt lat="43.60333" lon="3.37391">
        <ele>316</ele>
        <time>2015-11-14T13:37:22Z</time>
      </trkpt>
      <trkpt lat="43.60333" lon="3.37387">
        <ele>316</ele>
        <time>2015-11-14T13:37:23Z</time>
      </trkpt>
      <trkpt lat="43.60333" lon="3.37382">
        <ele>316</ele>
        <time>2015-11-14T13:37:24Z</time>
      </trkpt>
      <trkpt lat="43.60332" lon="3.37378">
        <ele>315.5</ele>
        <time>2015-11-14T13:37:25Z</time>
      </trkpt>
      <trkpt lat="43.60332" lon="3.37374">
        <ele>315.5</ele>
        <time>2015-11-14T13:37:26Z</time>
      </trkpt>
      <trkpt lat="43.60332" lon="3.3737">
        <ele>315.5</ele>
        <time>2015-11-14T13:37:27Z</time>
      </trkpt>
      <trkpt lat="43.60332" lon="3.37366">
        <ele>316</ele>
        <time>2015-11-14T13:37:28Z</time>
      </trkpt>
      <trkpt lat="43.60332" lon="3.37361">
        <ele>316</ele>
        <time>2015-11-14T13:37:29Z</time>
      </trkpt>
      <trkpt lat="43.60332" lon="3.37357">
        <ele>316</ele>
        <time>2015-11-14T13:37:30Z</time>
      </trkpt>
      <trkpt lat="43.60332" lon="3.37353">
        <ele>316.5</ele>
        <time>2015-11-14T13:37:31Z</time>
      </trkpt>
      <trkpt lat="43.60332" lon="3.37349">
        <ele>316</ele>
        <time>2015-11-14T13:37:32Z</time>
      </trkpt>
      <trkpt lat="43.60333" lon="3.37345">
        <ele>316</ele>
        <time>2015-11-14T13:37:33Z</time>
      </trkpt>
      <trkpt lat="43.60333" lon="3.37341">
        <ele>316.5</ele>
        <time>2015-11-14T13:37:34Z</time>
      </trkpt>
      <trkpt lat="43.60333" lon="3.37337">
        <ele>316.5</ele>
        <time>2015-11-14T13:37:35Z</time>
      </trkpt>
      <trkpt lat="43.60334" lon="3.37332">
        <ele>316.5</ele>
        <time>2015-11-14T13:37:36Z</time>
      </trkpt>
      <trkpt lat="43.60334" lon="3.37328">
        <ele>316.5</ele>
        <time>2015-11-14T13:37:37Z</time>
      </trkpt>
      <trkpt lat="43.60335" lon="3.37324">
        <ele>317</ele>
        <time>2015-11-14T13:37:38Z</time>
      </trkpt>
      <trkpt lat="43.60336" lon="3.3732">
        <ele>317</ele>
        <time>2015-11-14T13:37:38Z</time>
      </trkpt>
      <trkpt lat="43.60336" lon="3.37316">
        <ele>317.5</ele>
        <time>2015-11-14T13:37:39Z</time>
      </trkpt>
      <trkpt lat="43.60337" lon="3.37312">
        <ele>317.5</ele>
        <time>2015-11-14T13:37:40Z</time>
      </trkpt>
      <trkpt lat="43.60338" lon="3.37308">
        <ele>317.5</ele>
        <time>2015-11-14T13:37:41Z</time>
      </trkpt>
      <trkpt lat="43.60339" lon="3.37304">
        <ele>317.5</ele>
        <time>2015-11-14T13:37:42Z</time>
      </trkpt>
      <trkpt lat="43.6034" lon="3.373">
        <ele>317.5</ele>
        <time>2015-11-14T13:37:43Z</time>
      </trkpt>
      <trkpt lat="43.60341" lon="3.37296">
        <ele>317</ele>
        <time>2015-11-14T13:37:44Z</time>
      </trkpt>
      <trkpt lat="43.60343" lon="3.37292">
        <ele>317</ele>
        <time>2015-11-14T13:37:45Z</time>
      </trkpt>
      <trkpt lat="43.60344" lon="3.37288">
        <ele>317</ele>
        <time>2015-11-14T13:37:46Z</time>
      </trkpt>
      <trkpt lat="43.60345" lon="3.37284">
        <ele>317.5</ele>
        <time>2015-11-14T13:37:47Z</time>
      </trkpt>
      <trkpt lat="43.60346" lon="3.3728">
        <ele>317.5</ele>
        <time>2015-11-14T13:37:48Z</time>
      </trkpt>
      <trkpt lat="43.60347" lon="3.37276">
        <ele>317.5</ele>
        <time>2015-11-14T13:37:49Z</time>
      </trkpt>
      <trkpt lat="43.60348" lon="3.37272">
        <ele>317.5</ele>
        <time>2015-11-14T13:37:50Z</time>
      </trkpt>
      <trkpt lat="43.60349" lon="3.37268">
        <ele>318</ele>
        <time>2015-11-14T13:37:51Z</time>
      </trkpt>
      <trkpt lat="43.6035" lon="3.37264">
        <ele>318</ele>
        <time>2015-11-14T13:37:52Z</time>
      </trkpt>
      <trkpt lat="43.60351" lon="3.3726">
        <ele>318</ele>
        <time>2015-11-14T13:37:53Z</time>
      </trkpt>
      <trkpt lat="43.60352" lon="3.37256">
        <ele>318</ele>
        <time>2015-11-14T13:37:54Z</time>
      </trkpt>
      <trkpt lat="43.60353" lon="3.37252">
        <ele>318</ele>
        <time>2015-11-14T13:37:55Z</time>
      </trkpt>
      <trkpt lat="43.60354" lon="3.37247">
        <ele>318</ele>
        <time>2015-11-14T13:37:56Z</time>
      </trkpt>
      <trkpt lat="43.60356" lon="3.37243">
        <ele>317.5</ele>
        <time>2015-11-14T13:37:57Z</time>
      </trkpt>
      <trkpt lat="43.60357" lon="3.37239">
        <ele>317.5</ele>
        <time>2015-11-14T13:37:58Z</time>
      </trkpt>
      <trkpt lat="43.60358" lon="3.37235">
        <ele>317.5</ele>
        <time>2015-11-14T13:37:59Z</time>
      </trkpt>
      <trkpt lat="43.60359" lon="3.37231">
        <ele>317.5</ele>
        <time>2015-11-14T13:38:00Z</time>
      </trkpt>
      <trkpt lat="43.6036" lon="3.37227">
        <ele>318</ele>
        <time>2015-11-14T13:38:01Z</time>
      </trkpt>
      <trkpt lat="43.6036" lon="3.37223">
        <ele>318</ele>
        <time>2015-11-14T13:38:02Z</time>
      </trkpt>
      <trkpt lat="43.60361" lon="3.37218">
        <ele>318</ele>
        <time>2015-11-14T13:38:03Z</time>
      </trkpt>
      <trkpt lat="43.60362" lon="3.37215">
        <ele>318.5</ele>
        <time>2015-11-14T13:38:04Z</time>
      </trkpt>
      <trkpt lat="43.60363" lon="3.37211">
        <ele>318.5</ele>
        <time>2015-11-14T13:38:05Z</time>
      </trkpt>
      <trkpt lat="43.60364" lon="3.37207">
        <ele>319</ele>
        <time>2015-11-14T13:38:06Z</time>
      </trkpt>
      <trkpt lat="43.60365" lon="3.37203">
        <ele>319</ele>
        <time>2015-11-14T13:38:07Z</time>
      </trkpt>
      <trkpt lat="43.60365" lon="3.37199">
        <ele>319</ele>
        <time>2015-11-14T13:38:08Z</time>
      </trkpt>
      <trkpt lat="43.60366" lon="3.37195">
        <ele>319</ele>
        <time>2015-11-14T13:38:09Z</time>
      </trkpt>
      <trkpt lat="43.60367" lon="3.37191">
        <ele>319</ele>
        <time>2015-11-14T13:38:10Z</time>
      </trkpt>
      <trkpt lat="43.60368" lon="3.37187">
        <ele>319</ele>
        <time>2015-11-14T13:38:11Z</time>
      </trkpt>
      <trkpt lat="43.60369" lon="3.37183">
        <ele>319</ele>
        <time>2015-11-14T13:38:12Z</time>
      </trkpt>
      <trkpt lat="43.60369" lon="3.37178">
        <ele>319</ele>
        <time>2015-11-14T13:38:13Z</time>
      </trkpt>
      <trkpt lat="43.6037" lon="3.37174">
        <ele>319</ele>
        <time>2015-11-14T13:38:14Z</time>
      </trkpt>
      <trkpt lat="43.6037" lon="3.37169">
        <ele>319</ele>
        <time>2015-11-14T13:38:15Z</time>
      </trkpt>
      <trkpt lat="43.6037" lon="3.37164">
        <ele>318.5</ele>
        <time>2015-11-14T13:38:16Z</time>
      </trkpt>
      <trkpt lat="43.60371" lon="3.3716">
        <ele>318.5</ele>
        <time>2015-11-14T13:38:17Z</time>
      </trkpt>
      <trkpt lat="43.60371" lon="3.37155">
        <ele>318.5</ele>
        <time>2015-11-14T13:38:18Z</time>
      </trkpt>
      <trkpt lat="43.60372" lon="3.37151">
        <ele>318.5</ele>
        <time>2015-11-14T13:38:19Z</time>
      </trkpt>
      <trkpt lat="43.60372" lon="3.37146">
        <ele>318</ele>
        <time>2015-11-14T13:38:20Z</time>
      </trkpt>
      <trkpt lat="43.60372" lon="3.37141">
        <ele>318</ele>
        <time>2015-11-14T13:38:21Z</time>
      </trkpt>
      <trkpt lat="43.60372" lon="3.37137">
        <ele>318</ele>
        <time>2015-11-14T13:38:22Z</time>
      </trkpt>
      <trkpt lat="43.60372" lon="3.37132">
        <ele>318</ele>
        <time>2015-11-14T13:38:23Z</time>
      </trkpt>
      <trkpt lat="43.60372" lon="3.37127">
        <ele>317.5</ele>
        <time>2015-11-14T13:38:24Z</time>
      </trkpt>
      <trkpt lat="43.60372" lon="3.37123">
        <ele>317.5</ele>
        <time>2015-11-14T13:38:25Z</time>
      </trkpt>
      <trkpt lat="43.60372" lon="3.37118">
        <ele>317</ele>
        <time>2015-11-14T13:38:26Z</time>
      </trkpt>
      <trkpt lat="43.60372" lon="3.37114">
        <ele>317.5</ele>
        <time>2015-11-14T13:38:27Z</time>
      </trkpt>
      <trkpt lat="43.60372" lon="3.37109">
        <ele>317.5</ele>
        <time>2015-11-14T13:38:28Z</time>
      </trkpt>
      <trkpt lat="43.60372" lon="3.37104">
        <ele>317.5</ele>
        <time>2015-11-14T13:38:29Z</time>
      </trkpt>
      <trkpt lat="43.60373" lon="3.37099">
        <ele>318</ele>
        <time>2015-11-14T13:38:30Z</time>
      </trkpt>
      <trkpt lat="43.60373" lon="3.37094">
        <ele>318</ele>
        <time>2015-11-14T13:38:31Z</time>
      </trkpt>
      <trkpt lat="43.60373" lon="3.3709">
        <ele>318</ele>
        <time>2015-11-14T13:38:32Z</time>
      </trkpt>
      <trkpt lat="43.60373" lon="3.37085">
        <ele>318</ele>
        <time>2015-11-14T13:38:33Z</time>
      </trkpt>
      <trkpt lat="43.60373" lon="3.3708">
        <ele>318</ele>
        <time>2015-11-14T13:38:34Z</time>
      </trkpt>
      <trkpt lat="43.60374" lon="3.37075">
        <ele>318</ele>
        <time>2015-11-14T13:38:35Z</time>
      </trkpt>
      <trkpt lat="43.60374" lon="3.3707">
        <ele>318.5</ele>
        <time>2015-11-14T13:38:36Z</time>
      </trkpt>
      <trkpt lat="43.60375" lon="3.37065">
        <ele>318.5</ele>
        <time>2015-11-14T13:38:37Z</time>
      </trkpt>
      <trkpt lat="43.60376" lon="3.3706">
        <ele>318.5</ele>
        <time>2015-11-14T13:38:38Z</time>
      </trkpt>
      <trkpt lat="43.60377" lon="3.37056">
        <ele>319</ele>
        <time>2015-11-14T13:38:39Z</time>
      </trkpt>
      <trkpt lat="43.60378" lon="3.37051">
        <ele>319</ele>
        <time>2015-11-14T13:38:40Z</time>
      </trkpt>
      <trkpt lat="43.60379" lon="3.37046">
        <ele>319.5</ele>
        <time>2015-11-14T13:38:41Z</time>
      </trkpt>
      <trkpt lat="43.6038" lon="3.37042">
        <ele>319.5</ele>
        <time>2015-11-14T13:38:42Z</time>
      </trkpt>
      <trkpt lat="43.60381" lon="3.37037">
        <ele>320</ele>
        <time>2015-11-14T13:38:43Z</time>
      </trkpt>
      <trkpt lat="43.60382" lon="3.37032">
        <ele>320.5</ele>
        <time>2015-11-14T13:38:44Z</time>
      </trkpt>
      <trkpt lat="43.60383" lon="3.37028">
        <ele>321</ele>
        <time>2015-11-14T13:38:45Z</time>
      </trkpt>
      <trkpt lat="43.60384" lon="3.37023">
        <ele>321</ele>
        <time>2015-11-14T13:38:46Z</time>
      </trkpt>
      <trkpt lat="43.60385" lon="3.37018">
        <ele>321.5</ele>
        <time>2015-11-14T13:38:47Z</time>
      </trkpt>
      <trkpt lat="43.60386" lon="3.37013">
        <ele>321.5</ele>
        <time>2015-11-14T13:38:48Z</time>
      </trkpt>
      <trkpt lat="43.60386" lon="3.37008">
        <ele>322</ele>
        <time>2015-11-14T13:38:49Z</time>
      </trkpt>
      <trkpt lat="43.60387" lon="3.37002">
        <ele>322</ele>
        <time>2015-11-14T13:38:50Z</time>
      </trkpt>
      <trkpt lat="43.60387" lon="3.36997">
        <ele>322</ele>
        <time>2015-11-14T13:38:51Z</time>
      </trkpt>
      <trkpt lat="43.60387" lon="3.36992">
        <ele>322</ele>
        <time>2015-11-14T13:38:52Z</time>
      </trkpt>
      <trkpt lat="43.60387" lon="3.36986">
        <ele>322.5</ele>
        <time>2015-11-14T13:38:53Z</time>
      </trkpt>
      <trkpt lat="43.60388" lon="3.36981">
        <ele>322.5</ele>
        <time>2015-11-14T13:38:54Z</time>
      </trkpt>
      <trkpt lat="43.60388" lon="3.36976">
        <ele>322.5</ele>
        <time>2015-11-14T13:38:55Z</time>
      </trkpt>
      <trkpt lat="43.60387" lon="3.36971">
        <ele>322.5</ele>
        <time>2015-11-14T13:38:56Z</time>
      </trkpt>
      <trkpt lat="43.60387" lon="3.36966">
        <ele>322.5</ele>
        <time>2015-11-14T13:38:57Z</time>
      </trkpt>
      <trkpt lat="43.60387" lon="3.36961">
        <ele>322.5</ele>
        <time>2015-11-14T13:38:58Z</time>
      </trkpt>
      <trkpt lat="43.60387" lon="3.36956">
        <ele>323</ele>
        <time>2015-11-14T13:38:59Z</time>
      </trkpt>
      <trkpt lat="43.60387" lon="3.36951">
        <ele>323</ele>
        <time>2015-11-14T13:39:00Z</time>
      </trkpt>
      <trkpt lat="43.60387" lon="3.36946">
        <ele>323</ele>
        <time>2015-11-14T13:39:01Z</time>
      </trkpt>
      <trkpt lat="43.60386" lon="3.36941">
        <ele>323.5</ele>
        <time>2015-11-14T13:39:02Z</time>
      </trkpt>
      <trkpt lat="43.60386" lon="3.36936">
        <ele>323.5</ele>
        <time>2015-11-14T13:39:03Z</time>
      </trkpt>
      <trkpt lat="43.60386" lon="3.36931">
        <ele>323.5</ele>
        <time>2015-11-14T13:39:04Z</time>
      </trkpt>
      <trkpt lat="43.60385" lon="3.36926">
        <ele>323.5</ele>
        <time>2015-11-14T13:39:05Z</time>
      </trkpt>
      <trkpt lat="43.60384" lon="3.36922">
        <ele>324</ele>
        <time>2015-11-14T13:39:06Z</time>
      </trkpt>
      <trkpt lat="43.60384" lon="3.36917">
        <ele>324</ele>
        <time>2015-11-14T13:39:07Z</time>
      </trkpt>
      <trkpt lat="43.60383" lon="3.36913">
        <ele>324.5</ele>
        <time>2015-11-14T13:39:08Z</time>
      </trkpt>
      <trkpt lat="43.60382" lon="3.36908">
        <ele>324.5</ele>
        <time>2015-11-14T13:39:09Z</time>
      </trkpt>
      <trkpt lat="43.60381" lon="3.36904">
        <ele>325</ele>
        <time>2015-11-14T13:39:10Z</time>
      </trkpt>
      <trkpt lat="43.6038" lon="3.369">
        <ele>325</ele>
        <time>2015-11-14T13:39:11Z</time>
      </trkpt>
      <trkpt lat="43.60379" lon="3.36896">
        <ele>325</ele>
        <time>2015-11-14T13:39:12Z</time>
      </trkpt>
      <trkpt lat="43.60377" lon="3.36892">
        <ele>325</ele>
        <time>2015-11-14T13:39:13Z</time>
      </trkpt>
      <trkpt lat="43.60376" lon="3.36889">
        <ele>325</ele>
        <time>2015-11-14T13:39:14Z</time>
      </trkpt>
      <trkpt lat="43.60374" lon="3.36885">
        <ele>325</ele>
        <time>2015-11-14T13:39:15Z</time>
      </trkpt>
      <trkpt lat="43.60373" lon="3.36881">
        <ele>325</ele>
        <time>2015-11-14T13:39:16Z</time>
      </trkpt>
      <trkpt lat="43.60371" lon="3.36878">
        <ele>325</ele>
        <time>2015-11-14T13:39:17Z</time>
      </trkpt>
      <trkpt lat="43.6037" lon="3.36875">
        <ele>325</ele>
        <time>2015-11-14T13:39:18Z</time>
      </trkpt>
      <trkpt lat="43.60368" lon="3.36871">
        <ele>325.5</ele>
        <time>2015-11-14T13:39:19Z</time>
      </trkpt>
      <trkpt lat="43.60366" lon="3.36868">
        <ele>325.5</ele>
        <time>2015-11-14T13:39:20Z</time>
      </trkpt>
      <trkpt lat="43.60365" lon="3.36865">
        <ele>325.5</ele>
        <time>2015-11-14T13:39:21Z</time>
      </trkpt>
      <trkpt lat="43.60363" lon="3.36861">
        <ele>325.5</ele>
        <time>2015-11-14T13:39:22Z</time>
      </trkpt>
      <trkpt lat="43.60362" lon="3.36858">
        <ele>325.5</ele>
        <time>2015-11-14T13:39:23Z</time>
      </trkpt>
      <trkpt lat="43.6036" lon="3.36854">
        <ele>326</ele>
        <time>2015-11-14T13:39:24Z</time>
      </trkpt>
      <trkpt lat="43.60358" lon="3.36851">
        <ele>326</ele>
        <time>2015-11-14T13:39:25Z</time>
      </trkpt>
      <trkpt lat="43.60357" lon="3.36847">
        <ele>326</ele>
        <time>2015-11-14T13:39:26Z</time>
      </trkpt>
      <trkpt lat="43.60356" lon="3.36844">
        <ele>326</ele>
        <time>2015-11-14T13:39:27Z</time>
      </trkpt>
      <trkpt lat="43.60354" lon="3.3684">
        <ele>326</ele>
        <time>2015-11-14T13:39:28Z</time>
      </trkpt>
      <trkpt lat="43.60353" lon="3.36837">
        <ele>326</ele>
        <time>2015-11-14T13:39:29Z</time>
      </trkpt>
      <trkpt lat="43.60352" lon="3.36833">
        <ele>326</ele>
        <time>2015-11-14T13:39:30Z</time>
      </trkpt>
      <trkpt lat="43.6035" lon="3.36829">
        <ele>326</ele>
        <time>2015-11-14T13:39:31Z</time>
      </trkpt>
      <trkpt lat="43.60349" lon="3.36826">
        <ele>326</ele>
        <time>2015-11-14T13:39:32Z</time>
      </trkpt>
      <trkpt lat="43.60348" lon="3.36822">
        <ele>326</ele>
        <time>2015-11-14T13:39:33Z</time>
      </trkpt>
      <trkpt lat="43.60347" lon="3.36819">
        <ele>326.5</ele>
        <time>2015-11-14T13:39:34Z</time>
      </trkpt>
      <trkpt lat="43.60346" lon="3.36815">
        <ele>326.5</ele>
        <time>2015-11-14T13:39:35Z</time>
      </trkpt>
      <trkpt lat="43.60345" lon="3.36812">
        <ele>326.5</ele>
        <time>2015-11-14T13:39:36Z</time>
      </trkpt>
      <trkpt lat="43.60344" lon="3.36808">
        <ele>326.5</ele>
        <time>2015-11-14T13:39:37Z</time>
      </trkpt>
      <trkpt lat="43.60343" lon="3.36805">
        <ele>326.5</ele>
        <time>2015-11-14T13:39:38Z</time>
      </trkpt>
      <trkpt lat="43.60342" lon="3.36801">
        <ele>327</ele>
        <time>2015-11-14T13:39:39Z</time>
      </trkpt>
      <trkpt lat="43.60341" lon="3.36798">
        <ele>326.5</ele>
        <time>2015-11-14T13:39:40Z</time>
      </trkpt>
      <trkpt lat="43.6034" lon="3.36794">
        <ele>327</ele>
        <time>2015-11-14T13:39:41Z</time>
      </trkpt>
      <trkpt lat="43.60339" lon="3.3679">
        <ele>327</ele>
        <time>2015-11-14T13:39:42Z</time>
      </trkpt>
      <trkpt lat="43.60338" lon="3.36786">
        <ele>327</ele>
        <time>2015-11-14T13:39:43Z</time>
      </trkpt>
      <trkpt lat="43.60337" lon="3.36783">
        <ele>327.5</ele>
        <time>2015-11-14T13:39:44Z</time>
      </trkpt>
      <trkpt lat="43.60337" lon="3.36779">
        <ele>327.5</ele>
        <time>2015-11-14T13:39:45Z</time>
      </trkpt>
      <trkpt lat="43.60336" lon="3.36775">
        <ele>327.5</ele>
        <time>2015-11-14T13:39:46Z</time>
      </trkpt>
      <trkpt lat="43.60335" lon="3.36772">
        <ele>327.5</ele>
        <time>2015-11-14T13:39:47Z</time>
      </trkpt>
      <trkpt lat="43.60334" lon="3.36769">
        <ele>328</ele>
        <time>2015-11-14T13:39:48Z</time>
      </trkpt>
      <trkpt lat="43.60334" lon="3.36765">
        <ele>327.5</ele>
        <time>2015-11-14T13:39:49Z</time>
      </trkpt>
      <trkpt lat="43.60333" lon="3.36761">
        <ele>328</ele>
        <time>2015-11-14T13:39:50Z</time>
      </trkpt>
      <trkpt lat="43.60332" lon="3.36758">
        <ele>328</ele>
        <time>2015-11-14T13:39:51Z</time>
      </trkpt>
      <trkpt lat="43.60331" lon="3.36754">
        <ele>328</ele>
        <time>2015-11-14T13:39:52Z</time>
      </trkpt>
      <trkpt lat="43.6033" lon="3.36751">
        <ele>328</ele>
        <time>2015-11-14T13:39:53Z</time>
      </trkpt>
      <trkpt lat="43.6033" lon="3.36748">
        <ele>328.5</ele>
        <time>2015-11-14T13:39:54Z</time>
      </trkpt>
      <trkpt lat="43.60328" lon="3.36745">
        <ele>328.5</ele>
        <time>2015-11-14T13:39:55Z</time>
      </trkpt>
      <trkpt lat="43.60328" lon="3.36741">
        <ele>328.5</ele>
        <time>2015-11-14T13:39:56Z</time>
      </trkpt>
      <trkpt lat="43.60326" lon="3.36738">
        <ele>328.5</ele>
        <time>2015-11-14T13:39:57Z</time>
      </trkpt>
      <trkpt lat="43.60325" lon="3.36735">
        <ele>328.5</ele>
        <time>2015-11-14T13:39:58Z</time>
      </trkpt>
      <trkpt lat="43.60323" lon="3.36731">
        <ele>328.5</ele>
        <time>2015-11-14T13:39:59Z</time>
      </trkpt>
      <trkpt lat="43.60322" lon="3.36728">
        <ele>328.5</ele>
        <time>2015-11-14T13:40:00Z</time>
      </trkpt>
      <trkpt lat="43.6032" lon="3.36725">
        <ele>329</ele>
        <time>2015-11-14T13:40:01Z</time>
      </trkpt>
      <trkpt lat="43.60319" lon="3.36722">
        <ele>329</ele>
        <time>2015-11-14T13:40:02Z</time>
      </trkpt>
      <trkpt lat="43.60317" lon="3.36719">
        <ele>329</ele>
        <time>2015-11-14T13:40:03Z</time>
      </trkpt>
      <trkpt lat="43.60315" lon="3.36717">
        <ele>329.5</ele>
        <time>2015-11-14T13:40:04Z</time>
      </trkpt>
      <trkpt lat="43.60313" lon="3.36715">
        <ele>330</ele>
        <time>2015-11-14T13:40:05Z</time>
      </trkpt>
      <trkpt lat="43.60311" lon="3.36712">
        <ele>330</ele>
        <time>2015-11-14T13:40:06Z</time>
      </trkpt>
      <trkpt lat="43.6031" lon="3.3671">
        <ele>330</ele>
        <time>2015-11-14T13:40:07Z</time>
      </trkpt>
      <trkpt lat="43.60308" lon="3.36708">
        <ele>330</ele>
        <time>2015-11-14T13:40:08Z</time>
      </trkpt>
      <trkpt lat="43.60306" lon="3.36705">
        <ele>330</ele>
        <time>2015-11-14T13:40:09Z</time>
      </trkpt>
      <trkpt lat="43.60304" lon="3.36702">
        <ele>330.5</ele>
        <time>2015-11-14T13:40:10Z</time>
      </trkpt>
      <trkpt lat="43.60303" lon="3.36699">
        <ele>330.5</ele>
        <time>2015-11-14T13:40:11Z</time>
      </trkpt>
      <trkpt lat="43.60301" lon="3.36695">
        <ele>330.5</ele>
        <time>2015-11-14T13:40:12Z</time>
      </trkpt>
      <trkpt lat="43.603" lon="3.36692">
        <ele>330.5</ele>
        <time>2015-11-14T13:40:13Z</time>
      </trkpt>
      <trkpt lat="43.603" lon="3.36688">
        <ele>330.5</ele>
        <time>2015-11-14T13:40:14Z</time>
      </trkpt>
      <trkpt lat="43.603" lon="3.36684">
        <ele>331</ele>
        <time>2015-11-14T13:40:15Z</time>
      </trkpt>
      <trkpt lat="43.603" lon="3.3668">
        <ele>331</ele>
        <time>2015-11-14T13:40:16Z</time>
      </trkpt>
      <trkpt lat="43.60301" lon="3.36676">
        <ele>331</ele>
        <time>2015-11-14T13:40:17Z</time>
      </trkpt>
      <trkpt lat="43.60302" lon="3.36673">
        <ele>331.5</ele>
        <time>2015-11-14T13:40:18Z</time>
      </trkpt>
      <trkpt lat="43.60303" lon="3.36671">
        <ele>332</ele>
        <time>2015-11-14T13:40:19Z</time>
      </trkpt>
      <trkpt lat="43.60305" lon="3.36668">
        <ele>332.5</ele>
        <time>2015-11-14T13:40:20Z</time>
      </trkpt>
      <trkpt lat="43.60306" lon="3.36666">
        <ele>332.5</ele>
        <time>2015-11-14T13:40:21Z</time>
      </trkpt>
      <trkpt lat="43.60307" lon="3.36663">
        <ele>333</ele>
        <time>2015-11-14T13:40:22Z</time>
      </trkpt>
      <trkpt lat="43.60309" lon="3.36661">
        <ele>333.5</ele>
        <time>2015-11-14T13:40:23Z</time>
      </trkpt>
      <trkpt lat="43.6031" lon="3.36658">
        <ele>333.5</ele>
        <time>2015-11-14T13:40:24Z</time>
      </trkpt>
      <trkpt lat="43.60312" lon="3.36656">
        <ele>334</ele>
        <time>2015-11-14T13:40:25Z</time>
      </trkpt>
      <trkpt lat="43.60313" lon="3.36654">
        <ele>334</ele>
        <time>2015-11-14T13:40:26Z</time>
      </trkpt>
      <trkpt lat="43.60315" lon="3.36652">
        <ele>334</ele>
        <time>2015-11-14T13:40:27Z</time>
      </trkpt>
      <trkpt lat="43.60316" lon="3.36649">
        <ele>334.5</ele>
        <time>2015-11-14T13:40:28Z</time>
      </trkpt>
      <trkpt lat="43.60317" lon="3.36646">
        <ele>334.5</ele>
        <time>2015-11-14T13:40:29Z</time>
      </trkpt>
      <trkpt lat="43.60319" lon="3.36644">
        <ele>334.5</ele>
        <time>2015-11-14T13:40:30Z</time>
      </trkpt>
      <trkpt lat="43.6032" lon="3.3664">
        <ele>335</ele>
        <time>2015-11-14T13:40:31Z</time>
      </trkpt>
      <trkpt lat="43.60321" lon="3.36637">
        <ele>335</ele>
        <time>2015-11-14T13:40:32Z</time>
      </trkpt>
      <trkpt lat="43.60322" lon="3.36634">
        <ele>335</ele>
        <time>2015-11-14T13:40:33Z</time>
      </trkpt>
      <trkpt lat="43.60323" lon="3.36631">
        <ele>335.5</ele>
        <time>2015-11-14T13:40:34Z</time>
      </trkpt>
      <trkpt lat="43.60324" lon="3.36627">
        <ele>335.5</ele>
        <time>2015-11-14T13:40:35Z</time>
      </trkpt>
      <trkpt lat="43.60325" lon="3.36624">
        <ele>336</ele>
        <time>2015-11-14T13:40:36Z</time>
      </trkpt>
      <trkpt lat="43.60326" lon="3.36621">
        <ele>336</ele>
        <time>2015-11-14T13:40:37Z</time>
      </trkpt>
      <trkpt lat="43.60327" lon="3.36617">
        <ele>336.5</ele>
        <time>2015-11-14T13:40:38Z</time>
      </trkpt>
      <trkpt lat="43.60329" lon="3.36614">
        <ele>336.5</ele>
        <time>2015-11-14T13:40:39Z</time>
      </trkpt>
      <trkpt lat="43.6033" lon="3.36611">
        <ele>337</ele>
        <time>2015-11-14T13:40:40Z</time>
      </trkpt>
      <trkpt lat="43.60331" lon="3.36608">
        <ele>337</ele>
        <time>2015-11-14T13:40:41Z</time>
      </trkpt>
      <trkpt lat="43.60332" lon="3.36605">
        <ele>337.5</ele>
        <time>2015-11-14T13:40:42Z</time>
      </trkpt>
      <trkpt lat="43.60333" lon="3.36601">
        <ele>337.5</ele>
        <time>2015-11-14T13:40:43Z</time>
      </trkpt>
      <trkpt lat="43.60334" lon="3.36598">
        <ele>338</ele>
        <time>2015-11-14T13:40:44Z</time>
      </trkpt>
      <trkpt lat="43.60336" lon="3.36595">
        <ele>338.5</ele>
        <time>2015-11-14T13:40:45Z</time>
      </trkpt>
      <trkpt lat="43.60337" lon="3.36592">
        <ele>338.5</ele>
        <time>2015-11-14T13:40:46Z</time>
      </trkpt>
      <trkpt lat="43.60338" lon="3.36589">
        <ele>339</ele>
        <time>2015-11-14T13:40:47Z</time>
      </trkpt>
      <trkpt lat="43.60339" lon="3.36586">
        <ele>339.5</ele>
        <time>2015-11-14T13:40:48Z</time>
      </trkpt>
      <trkpt lat="43.6034" lon="3.36583">
        <ele>339.5</ele>
        <time>2015-11-14T13:40:49Z</time>
      </trkpt>
      <trkpt lat="43.60342" lon="3.3658">
        <ele>339.5</ele>
        <time>2015-11-14T13:40:50Z</time>
      </trkpt>
      <trkpt lat="43.60343" lon="3.36576">
        <ele>339.5</ele>
        <time>2015-11-14T13:40:51Z</time>
      </trkpt>
      <trkpt lat="43.60344" lon="3.36572">
        <ele>339.5</ele>
        <time>2015-11-14T13:40:52Z</time>
      </trkpt>
      <trkpt lat="43.60345" lon="3.36567">
        <ele>339.5</ele>
        <time>2015-11-14T13:40:53Z</time>
      </trkpt>
      <trkpt lat="43.60346" lon="3.36563">
        <ele>340</ele>
        <time>2015-11-14T13:40:54Z</time>
      </trkpt>
      <trkpt lat="43.60347" lon="3.3656">
        <ele>340.5</ele>
        <time>2015-11-14T13:40:55Z</time>
      </trkpt>
      <trkpt lat="43.60348" lon="3.36556">
        <ele>341</ele>
        <time>2015-11-14T13:40:56Z</time>
      </trkpt>
      <trkpt lat="43.60349" lon="3.36552">
        <ele>341</ele>
        <time>2015-11-14T13:40:57Z</time>
      </trkpt>
      <trkpt lat="43.60349" lon="3.36549">
        <ele>341.5</ele>
        <time>2015-11-14T13:40:58Z</time>
      </trkpt>
      <trkpt lat="43.6035" lon="3.36545">
        <ele>341.5</ele>
        <time>2015-11-14T13:40:59Z</time>
      </trkpt>
      <trkpt lat="43.6035" lon="3.36541">
        <ele>342</ele>
        <time>2015-11-14T13:41:00Z</time>
      </trkpt>
      <trkpt lat="43.60351" lon="3.36537">
        <ele>342</ele>
        <time>2015-11-14T13:41:01Z</time>
      </trkpt>
      <trkpt lat="43.60352" lon="3.36533">
        <ele>342.5</ele>
        <time>2015-11-14T13:41:01Z</time>
      </trkpt>
      <trkpt lat="43.60352" lon="3.3653">
        <ele>342</ele>
        <time>2015-11-14T13:41:02Z</time>
      </trkpt>
      <trkpt lat="43.60353" lon="3.36526">
        <ele>342.5</ele>
        <time>2015-11-14T13:41:03Z</time>
      </trkpt>
      <trkpt lat="43.60354" lon="3.36522">
        <ele>342.5</ele>
        <time>2015-11-14T13:41:04Z</time>
      </trkpt>
      <trkpt lat="43.60354" lon="3.36518">
        <ele>342.5</ele>
        <time>2015-11-14T13:41:05Z</time>
      </trkpt>
      <trkpt lat="43.60355" lon="3.36514">
        <ele>342.5</ele>
        <time>2015-11-14T13:41:06Z</time>
      </trkpt>
      <trkpt lat="43.60356" lon="3.3651">
        <ele>342.5</ele>
        <time>2015-11-14T13:41:07Z</time>
      </trkpt>
      <trkpt lat="43.60356" lon="3.36506">
        <ele>342.5</ele>
        <time>2015-11-14T13:41:08Z</time>
      </trkpt>
      <trkpt lat="43.60357" lon="3.36502">
        <ele>342.5</ele>
        <time>2015-11-14T13:41:09Z</time>
      </trkpt>
      <trkpt lat="43.60358" lon="3.36498">
        <ele>342.5</ele>
        <time>2015-11-14T13:41:10Z</time>
      </trkpt>
      <trkpt lat="43.60358" lon="3.36493">
        <ele>342.5</ele>
        <time>2015-11-14T13:41:11Z</time>
      </trkpt>
      <trkpt lat="43.60359" lon="3.36489">
        <ele>342.5</ele>
        <time>2015-11-14T13:41:12Z</time>
      </trkpt>
      <trkpt lat="43.60359" lon="3.36485">
        <ele>342.5</ele>
        <time>2015-11-14T13:41:13Z</time>
      </trkpt>
      <trkpt lat="43.6036" lon="3.3648">
        <ele>342.5</ele>
        <time>2015-11-14T13:41:14Z</time>
      </trkpt>
      <trkpt lat="43.6036" lon="3.36476">
        <ele>342.5</ele>
        <time>2015-11-14T13:41:15Z</time>
      </trkpt>
      <trkpt lat="43.60361" lon="3.36471">
        <ele>342.5</ele>
        <time>2015-11-14T13:41:16Z</time>
      </trkpt>
      <trkpt lat="43.60361" lon="3.36467">
        <ele>342.5</ele>
        <time>2015-11-14T13:41:17Z</time>
      </trkpt>
      <trkpt lat="43.60362" lon="3.36462">
        <ele>342.5</ele>
        <time>2015-11-14T13:41:18Z</time>
      </trkpt>
      <trkpt lat="43.60362" lon="3.36458">
        <ele>342.5</ele>
        <time>2015-11-14T13:41:19Z</time>
      </trkpt>
      <trkpt lat="43.60363" lon="3.36453">
        <ele>342.5</ele>
        <time>2015-11-14T13:41:20Z</time>
      </trkpt>
      <trkpt lat="43.60363" lon="3.36449">
        <ele>342.5</ele>
        <time>2015-11-14T13:41:21Z</time>
      </trkpt>
      <trkpt lat="43.60364" lon="3.36444">
        <ele>342.5</ele>
        <time>2015-11-14T13:41:22Z</time>
      </trkpt>
      <trkpt lat="43.60365" lon="3.36439">
        <ele>342.5</ele>
        <time>2015-11-14T13:41:23Z</time>
      </trkpt>
      <trkpt lat="43.60366" lon="3.36435">
        <ele>342.5</ele>
        <time>2015-11-14T13:41:24Z</time>
      </trkpt>
      <trkpt lat="43.60366" lon="3.3643">
        <ele>342.5</ele>
        <time>2015-11-14T13:41:25Z</time>
      </trkpt>
      <trkpt lat="43.60367" lon="3.36426">
        <ele>342</ele>
        <time>2015-11-14T13:41:26Z</time>
      </trkpt>
      <trkpt lat="43.60368" lon="3.36421">
        <ele>342</ele>
        <time>2015-11-14T13:41:27Z</time>
      </trkpt>
      <trkpt lat="43.60368" lon="3.36416">
        <ele>342</ele>
        <time>2015-11-14T13:41:28Z</time>
      </trkpt>
      <trkpt lat="43.60369" lon="3.36412">
        <ele>342</ele>
        <time>2015-11-14T13:41:29Z</time>
      </trkpt>
      <trkpt lat="43.6037" lon="3.36408">
        <ele>342</ele>
        <time>2015-11-14T13:41:30Z</time>
      </trkpt>
      <trkpt lat="43.6037" lon="3.36403">
        <ele>342</ele>
        <time>2015-11-14T13:41:31Z</time>
      </trkpt>
      <trkpt lat="43.60371" lon="3.36398">
        <ele>341.5</ele>
        <time>2015-11-14T13:41:32Z</time>
      </trkpt>
      <trkpt lat="43.60372" lon="3.36393">
        <ele>341.5</ele>
        <time>2015-11-14T13:41:33Z</time>
      </trkpt>
      <trkpt lat="43.60372" lon="3.36388">
        <ele>341.5</ele>
        <time>2015-11-14T13:41:34Z</time>
      </trkpt>
      <trkpt lat="43.60373" lon="3.36383">
        <ele>341</ele>
        <time>2015-11-14T13:41:35Z</time>
      </trkpt>
      <trkpt lat="43.60373" lon="3.36379">
        <ele>341</ele>
        <time>2015-11-14T13:41:36Z</time>
      </trkpt>
      <trkpt lat="43.60374" lon="3.36374">
        <ele>340.5</ele>
        <time>2015-11-14T13:41:37Z</time>
      </trkpt>
      <trkpt lat="43.60374" lon="3.36369">
        <ele>340.5</ele>
        <time>2015-11-14T13:41:38Z</time>
      </trkpt>
      <trkpt lat="43.60375" lon="3.36364">
        <ele>340.5</ele>
        <time>2015-11-14T13:41:39Z</time>
      </trkpt>
      <trkpt lat="43.60375" lon="3.36359">
        <ele>340</ele>
        <time>2015-11-14T13:41:40Z</time>
      </trkpt>
      <trkpt lat="43.60376" lon="3.36354">
        <ele>340</ele>
        <time>2015-11-14T13:41:41Z</time>
      </trkpt>
      <trkpt lat="43.60376" lon="3.3635">
        <ele>340</ele>
        <time>2015-11-14T13:41:42Z</time>
      </trkpt>
      <trkpt lat="43.60377" lon="3.36345">
        <ele>340</ele>
        <time>2015-11-14T13:41:43Z</time>
      </trkpt>
      <trkpt lat="43.60377" lon="3.3634">
        <ele>340</ele>
        <time>2015-11-14T13:41:44Z</time>
      </trkpt>
      <trkpt lat="43.60378" lon="3.36336">
        <ele>340</ele>
        <time>2015-11-14T13:41:45Z</time>
      </trkpt>
      <trkpt lat="43.60378" lon="3.36331">
        <ele>340</ele>
        <time>2015-11-14T13:41:46Z</time>
      </trkpt>
      <trkpt lat="43.60379" lon="3.36327">
        <ele>340</ele>
        <time>2015-11-14T13:41:47Z</time>
      </trkpt>
      <trkpt lat="43.60379" lon="3.36322">
        <ele>340</ele>
        <time>2015-11-14T13:41:48Z</time>
      </trkpt>
      <trkpt lat="43.6038" lon="3.36318">
        <ele>340</ele>
        <time>2015-11-14T13:41:49Z</time>
      </trkpt>
      <trkpt lat="43.6038" lon="3.36314">
        <ele>339.5</ele>
        <time>2015-11-14T13:41:50Z</time>
      </trkpt>
      <trkpt lat="43.60381" lon="3.36309">
        <ele>339.5</ele>
        <time>2015-11-14T13:41:51Z</time>
      </trkpt>
      <trkpt lat="43.60381" lon="3.36305">
        <ele>339.5</ele>
        <time>2015-11-14T13:41:52Z</time>
      </trkpt>
      <trkpt lat="43.60381" lon="3.363">
        <ele>339.5</ele>
        <time>2015-11-14T13:41:53Z</time>
      </trkpt>
      <trkpt lat="43.60382" lon="3.36296">
        <ele>339.5</ele>
        <time>2015-11-14T13:41:54Z</time>
      </trkpt>
      <trkpt lat="43.60382" lon="3.36292">
        <ele>340</ele>
        <time>2015-11-14T13:41:55Z</time>
      </trkpt>
      <trkpt lat="43.60383" lon="3.36288">
        <ele>340</ele>
        <time>2015-11-14T13:41:56Z</time>
      </trkpt>
      <trkpt lat="43.60383" lon="3.36284">
        <ele>340</ele>
        <time>2015-11-14T13:41:57Z</time>
      </trkpt>
      <trkpt lat="43.60384" lon="3.36279">
        <ele>340</ele>
        <time>2015-11-14T13:41:58Z</time>
      </trkpt>
      <trkpt lat="43.60384" lon="3.36274">
        <ele>340</ele>
        <time>2015-11-14T13:41:59Z</time>
      </trkpt>
      <trkpt lat="43.60385" lon="3.3627">
        <ele>340</ele>
        <time>2015-11-14T13:42:00Z</time>
      </trkpt>
      <trkpt lat="43.60385" lon="3.36266">
        <ele>340.5</ele>
        <time>2015-11-14T13:42:01Z</time>
      </trkpt>
      <trkpt lat="43.60385" lon="3.36261">
        <ele>340.5</ele>
        <time>2015-11-14T13:42:02Z</time>
      </trkpt>
      <trkpt lat="43.60386" lon="3.36257">
        <ele>340.5</ele>
        <time>2015-11-14T13:42:03Z</time>
      </trkpt>
      <trkpt lat="43.60387" lon="3.36253">
        <ele>341</ele>
        <time>2015-11-14T13:42:04Z</time>
      </trkpt>
      <trkpt lat="43.60387" lon="3.36249">
        <ele>341</ele>
        <time>2015-11-14T13:42:05Z</time>
      </trkpt>
      <trkpt lat="43.60388" lon="3.36245">
        <ele>341</ele>
        <time>2015-11-14T13:42:06Z</time>
      </trkpt>
      <trkpt lat="43.60388" lon="3.36241">
        <ele>341</ele>
        <time>2015-11-14T13:42:07Z</time>
      </trkpt>
      <trkpt lat="43.60389" lon="3.36236">
        <ele>341</ele>
        <time>2015-11-14T13:42:08Z</time>
      </trkpt>
      <trkpt lat="43.6039" lon="3.36232">
        <ele>341</ele>
        <time>2015-11-14T13:42:09Z</time>
      </trkpt>
      <trkpt lat="43.6039" lon="3.36228">
        <ele>341.5</ele>
        <time>2015-11-14T13:42:10Z</time>
      </trkpt>
      <trkpt lat="43.6039" lon="3.36224">
        <ele>341.5</ele>
        <time>2015-11-14T13:42:11Z</time>
      </trkpt>
      <trkpt lat="43.60391" lon="3.3622">
        <ele>341.5</ele>
        <time>2015-11-14T13:42:12Z</time>
      </trkpt>
      <trkpt lat="43.60391" lon="3.36216">
        <ele>342</ele>
        <time>2015-11-14T13:42:13Z</time>
      </trkpt>
      <trkpt lat="43.60392" lon="3.36211">
        <ele>342</ele>
        <time>2015-11-14T13:42:14Z</time>
      </trkpt>
      <trkpt lat="43.60392" lon="3.36207">
        <ele>342.5</ele>
        <time>2015-11-14T13:42:15Z</time>
      </trkpt>
      <trkpt lat="43.60393" lon="3.36203">
        <ele>342.5</ele>
        <time>2015-11-14T13:42:16Z</time>
      </trkpt>
      <trkpt lat="43.60393" lon="3.36199">
        <ele>342.5</ele>
        <time>2015-11-14T13:42:17Z</time>
      </trkpt>
      <trkpt lat="43.60393" lon="3.36195">
        <ele>342.5</ele>
        <time>2015-11-14T13:42:18Z</time>
      </trkpt>
      <trkpt lat="43.60393" lon="3.3619">
        <ele>343</ele>
        <time>2015-11-14T13:42:19Z</time>
      </trkpt>
      <trkpt lat="43.60393" lon="3.36186">
        <ele>343</ele>
        <time>2015-11-14T13:42:20Z</time>
      </trkpt>
      <trkpt lat="43.60393" lon="3.36182">
        <ele>343.5</ele>
        <time>2015-11-14T13:42:21Z</time>
      </trkpt>
      <trkpt lat="43.60392" lon="3.36177">
        <ele>343.5</ele>
        <time>2015-11-14T13:42:22Z</time>
      </trkpt>
      <trkpt lat="43.60392" lon="3.36173">
        <ele>344</ele>
        <time>2015-11-14T13:42:23Z</time>
      </trkpt>
      <trkpt lat="43.60392" lon="3.36169">
        <ele>344</ele>
        <time>2015-11-14T13:42:24Z</time>
      </trkpt>
      <trkpt lat="43.60391" lon="3.36164">
        <ele>344</ele>
        <time>2015-11-14T13:42:25Z</time>
      </trkpt>
      <trkpt lat="43.60391" lon="3.3616">
        <ele>344.5</ele>
        <time>2015-11-14T13:42:26Z</time>
      </trkpt>
      <trkpt lat="43.6039" lon="3.36156">
        <ele>344.5</ele>
        <time>2015-11-14T13:42:27Z</time>
      </trkpt>
      <trkpt lat="43.6039" lon="3.36152">
        <ele>345</ele>
        <time>2015-11-14T13:42:28Z</time>
      </trkpt>
      <trkpt lat="43.60389" lon="3.36148">
        <ele>345</ele>
        <time>2015-11-14T13:42:29Z</time>
      </trkpt>
      <trkpt lat="43.60388" lon="3.36144">
        <ele>345</ele>
        <time>2015-11-14T13:42:30Z</time>
      </trkpt>
      <trkpt lat="43.60388" lon="3.3614">
        <ele>345</ele>
        <time>2015-11-14T13:42:31Z</time>
      </trkpt>
      <trkpt lat="43.60387" lon="3.36135">
        <ele>345</ele>
        <time>2015-11-14T13:42:32Z</time>
      </trkpt>
      <trkpt lat="43.60386" lon="3.36131">
        <ele>345.5</ele>
        <time>2015-11-14T13:42:33Z</time>
      </trkpt>
      <trkpt lat="43.60384" lon="3.36127">
        <ele>345.5</ele>
        <time>2015-11-14T13:42:34Z</time>
      </trkpt>
      <trkpt lat="43.60383" lon="3.36122">
        <ele>345.5</ele>
        <time>2015-11-14T13:42:35Z</time>
      </trkpt>
      <trkpt lat="43.60381" lon="3.36118">
        <ele>345.5</ele>
        <time>2015-11-14T13:42:36Z</time>
      </trkpt>
      <trkpt lat="43.60379" lon="3.36114">
        <ele>345.5</ele>
        <time>2015-11-14T13:42:37Z</time>
      </trkpt>
      <trkpt lat="43.60377" lon="3.36111">
        <ele>345.5</ele>
        <time>2015-11-14T13:42:38Z</time>
      </trkpt>
      <trkpt lat="43.60375" lon="3.36107">
        <ele>345.5</ele>
        <time>2015-11-14T13:42:39Z</time>
      </trkpt>
      <trkpt lat="43.60372" lon="3.36104">
        <ele>346</ele>
        <time>2015-11-14T13:42:40Z</time>
      </trkpt>
      <trkpt lat="43.6037" lon="3.36101">
        <ele>346</ele>
        <time>2015-11-14T13:42:41Z</time>
      </trkpt>
      <trkpt lat="43.60367" lon="3.36098">
        <ele>346</ele>
        <time>2015-11-14T13:42:42Z</time>
      </trkpt>
      <trkpt lat="43.60364" lon="3.36095">
        <ele>346.5</ele>
        <time>2015-11-14T13:42:43Z</time>
      </trkpt>
      <trkpt lat="43.60362" lon="3.36093">
        <ele>346.5</ele>
        <time>2015-11-14T13:42:44Z</time>
      </trkpt>
      <trkpt lat="43.60359" lon="3.36091">
        <ele>347</ele>
        <time>2015-11-14T13:42:45Z</time>
      </trkpt>
      <trkpt lat="43.60357" lon="3.36089">
        <ele>347.5</ele>
        <time>2015-11-14T13:42:46Z</time>
      </trkpt>
      <trkpt lat="43.60354" lon="3.36087">
        <ele>347.5</ele>
        <time>2015-11-14T13:42:47Z</time>
      </trkpt>
      <trkpt lat="43.60351" lon="3.36085">
        <ele>347.5</ele>
        <time>2015-11-14T13:42:48Z</time>
      </trkpt>
      <trkpt lat="43.60349" lon="3.36082">
        <ele>348</ele>
        <time>2015-11-14T13:42:49Z</time>
      </trkpt>
      <trkpt lat="43.60346" lon="3.3608">
        <ele>348</ele>
        <time>2015-11-14T13:42:50Z</time>
      </trkpt>
      <trkpt lat="43.60343" lon="3.36078">
        <ele>348.5</ele>
        <time>2015-11-14T13:42:51Z</time>
      </trkpt>
      <trkpt lat="43.6034" lon="3.36076">
        <ele>348.5</ele>
        <time>2015-11-14T13:42:52Z</time>
      </trkpt>
      <trkpt lat="43.60337" lon="3.36074">
        <ele>349</ele>
        <time>2015-11-14T13:42:53Z</time>
      </trkpt>
      <trkpt lat="43.60334" lon="3.36071">
        <ele>349</ele>
        <time>2015-11-14T13:42:54Z</time>
      </trkpt>
      <trkpt lat="43.60332" lon="3.36068">
        <ele>349</ele>
        <time>2015-11-14T13:42:55Z</time>
      </trkpt>
      <trkpt lat="43.60329" lon="3.36065">
        <ele>349</ele>
        <time>2015-11-14T13:42:56Z</time>
      </trkpt>
      <trkpt lat="43.60327" lon="3.36061">
        <ele>349.5</ele>
        <time>2015-11-14T13:42:57Z</time>
      </trkpt>
      <trkpt lat="43.60325" lon="3.36057">
        <ele>349.5</ele>
        <time>2015-11-14T13:42:58Z</time>
      </trkpt>
      <trkpt lat="43.60324" lon="3.36052">
        <ele>349.5</ele>
        <time>2015-11-14T13:42:59Z</time>
      </trkpt>
      <trkpt lat="43.60324" lon="3.36047">
        <ele>349.5</ele>
        <time>2015-11-14T13:43:00Z</time>
      </trkpt>
      <trkpt lat="43.60323" lon="3.36042">
        <ele>350</ele>
        <time>2015-11-14T13:43:01Z</time>
      </trkpt>
      <trkpt lat="43.60323" lon="3.36038">
        <ele>350</ele>
        <time>2015-11-14T13:43:02Z</time>
      </trkpt>
      <trkpt lat="43.60323" lon="3.36033">
        <ele>350</ele>
        <time>2015-11-14T13:43:03Z</time>
      </trkpt>
      <trkpt lat="43.60323" lon="3.36028">
        <ele>350</ele>
        <time>2015-11-14T13:43:04Z</time>
      </trkpt>
      <trkpt lat="43.60323" lon="3.36024">
        <ele>350.5</ele>
        <time>2015-11-14T13:43:05Z</time>
      </trkpt>
      <trkpt lat="43.60323" lon="3.36019">
        <ele>351</ele>
        <time>2015-11-14T13:43:06Z</time>
      </trkpt>
      <trkpt lat="43.60324" lon="3.36015">
        <ele>351</ele>
        <time>2015-11-14T13:43:07Z</time>
      </trkpt>
      <trkpt lat="43.60324" lon="3.3601">
        <ele>351</ele>
        <time>2015-11-14T13:43:08Z</time>
      </trkpt>
      <trkpt lat="43.60325" lon="3.36005">
        <ele>351</ele>
        <time>2015-11-14T13:43:09Z</time>
      </trkpt>
      <trkpt lat="43.60326" lon="3.36001">
        <ele>351</ele>
        <time>2015-11-14T13:43:10Z</time>
      </trkpt>
      <trkpt lat="43.60327" lon="3.35996">
        <ele>351</ele>
        <time>2015-11-14T13:43:11Z</time>
      </trkpt>
      <trkpt lat="43.60329" lon="3.35991">
        <ele>351</ele>
        <time>2015-11-14T13:43:12Z</time>
      </trkpt>
      <trkpt lat="43.6033" lon="3.35987">
        <ele>351</ele>
        <time>2015-11-14T13:43:13Z</time>
      </trkpt>
      <trkpt lat="43.60332" lon="3.35982">
        <ele>351</ele>
        <time>2015-11-14T13:43:14Z</time>
      </trkpt>
      <trkpt lat="43.60334" lon="3.35977">
        <ele>351.5</ele>
        <time>2015-11-14T13:43:15Z</time>
      </trkpt>
      <trkpt lat="43.60335" lon="3.35972">
        <ele>351.5</ele>
        <time>2015-11-14T13:43:16Z</time>
      </trkpt>
      <trkpt lat="43.60337" lon="3.35968">
        <ele>351.5</ele>
        <time>2015-11-14T13:43:17Z</time>
      </trkpt>
      <trkpt lat="43.60338" lon="3.35963">
        <ele>352</ele>
        <time>2015-11-14T13:43:18Z</time>
      </trkpt>
      <trkpt lat="43.6034" lon="3.35958">
        <ele>352.5</ele>
        <time>2015-11-14T13:43:19Z</time>
      </trkpt>
      <trkpt lat="43.60342" lon="3.35953">
        <ele>352.5</ele>
        <time>2015-11-14T13:43:20Z</time>
      </trkpt>
      <trkpt lat="43.60343" lon="3.35949">
        <ele>353</ele>
        <time>2015-11-14T13:43:21Z</time>
      </trkpt>
      <trkpt lat="43.60343" lon="3.35944">
        <ele>353</ele>
        <time>2015-11-14T13:43:22Z</time>
      </trkpt>
      <trkpt lat="43.60344" lon="3.3594">
        <ele>353</ele>
        <time>2015-11-14T13:43:23Z</time>
      </trkpt>
      <trkpt lat="43.60344" lon="3.35935">
        <ele>353</ele>
        <time>2015-11-14T13:43:24Z</time>
      </trkpt>
      <trkpt lat="43.60344" lon="3.3593">
        <ele>353</ele>
        <time>2015-11-14T13:43:25Z</time>
      </trkpt>
      <trkpt lat="43.60343" lon="3.35925">
        <ele>353</ele>
        <time>2015-11-14T13:43:26Z</time>
      </trkpt>
      <trkpt lat="43.60342" lon="3.3592">
        <ele>353</ele>
        <time>2015-11-14T13:43:27Z</time>
      </trkpt>
      <trkpt lat="43.60341" lon="3.35915">
        <ele>353</ele>
        <time>2015-11-14T13:43:28Z</time>
      </trkpt>
      <trkpt lat="43.6034" lon="3.35911">
        <ele>353</ele>
        <time>2015-11-14T13:43:29Z</time>
      </trkpt>
      <trkpt lat="43.60339" lon="3.35907">
        <ele>353</ele>
        <time>2015-11-14T13:43:30Z</time>
      </trkpt>
      <trkpt lat="43.60338" lon="3.35903">
        <ele>353</ele>
        <time>2015-11-14T13:43:31Z</time>
      </trkpt>
      <trkpt lat="43.60336" lon="3.35899">
        <ele>352.5</ele>
        <time>2015-11-14T13:43:32Z</time>
      </trkpt>
      <trkpt lat="43.60333" lon="3.35895">
        <ele>352.5</ele>
        <time>2015-11-14T13:43:33Z</time>
      </trkpt>
      <trkpt lat="43.60331" lon="3.35892">
        <ele>352.5</ele>
        <time>2015-11-14T13:43:34Z</time>
      </trkpt>
      <trkpt lat="43.60328" lon="3.35889">
        <ele>353</ele>
        <time>2015-11-14T13:43:35Z</time>
      </trkpt>
      <trkpt lat="43.60326" lon="3.35887">
        <ele>353</ele>
        <time>2015-11-14T13:43:36Z</time>
      </trkpt>
      <trkpt lat="43.60323" lon="3.35886">
        <ele>353.5</ele>
        <time>2015-11-14T13:43:37Z</time>
      </trkpt>
      <trkpt lat="43.6032" lon="3.35885">
        <ele>354</ele>
        <time>2015-11-14T13:43:38Z</time>
      </trkpt>
      <trkpt lat="43.60318" lon="3.35886">
        <ele>354.5</ele>
        <time>2015-11-14T13:43:39Z</time>
      </trkpt>
      <trkpt lat="43.60316" lon="3.35886">
        <ele>354.5</ele>
        <time>2015-11-14T13:43:40Z</time>
      </trkpt>
      <trkpt lat="43.60313" lon="3.35887">
        <ele>354.5</ele>
        <time>2015-11-14T13:43:41Z</time>
      </trkpt>
      <trkpt lat="43.60311" lon="3.35889">
        <ele>355</ele>
        <time>2015-11-14T13:43:42Z</time>
      </trkpt>
      <trkpt lat="43.60308" lon="3.3589">
        <ele>355</ele>
        <time>2015-11-14T13:43:43Z</time>
      </trkpt>
      <trkpt lat="43.60306" lon="3.35891">
        <ele>355</ele>
        <time>2015-11-14T13:43:44Z</time>
      </trkpt>
      <trkpt lat="43.60303" lon="3.35892">
        <ele>355.5</ele>
        <time>2015-11-14T13:43:45Z</time>
      </trkpt>
      <trkpt lat="43.60301" lon="3.35892">
        <ele>355.5</ele>
        <time>2015-11-14T13:43:46Z</time>
      </trkpt>
      <trkpt lat="43.60298" lon="3.35893">
        <ele>356</ele>
        <time>2015-11-14T13:43:47Z</time>
      </trkpt>
      <trkpt lat="43.60295" lon="3.35893">
        <ele>356</ele>
        <time>2015-11-14T13:43:48Z</time>
      </trkpt>
      <trkpt lat="43.60292" lon="3.35894">
        <ele>356</ele>
        <time>2015-11-14T13:43:49Z</time>
      </trkpt>
      <trkpt lat="43.60289" lon="3.35894">
        <ele>356</ele>
        <time>2015-11-14T13:43:50Z</time>
      </trkpt>
      <trkpt lat="43.60286" lon="3.35894">
        <ele>356.5</ele>
        <time>2015-11-14T13:43:51Z</time>
      </trkpt>
      <trkpt lat="43.60284" lon="3.35895">
        <ele>356</ele>
        <time>2015-11-14T13:43:52Z</time>
      </trkpt>
      <trkpt lat="43.60283" lon="3.35895">
        <ele>356</ele>
        <time>2015-11-14T13:43:53Z</time>
      </trkpt>
      <trkpt lat="43.60282" lon="3.35895">
        <ele>356</ele>
        <time>2015-11-14T13:43:54Z</time>
      </trkpt>
      <trkpt lat="43.60282" lon="3.35895">
        <ele>356</ele>
        <time>2015-11-14T13:43:55Z</time>
      </trkpt>
      <trkpt lat="43.60282" lon="3.35896">
        <ele>356</ele>
        <time>2015-11-14T13:43:56Z</time>
      </trkpt>
      <trkpt lat="43.60281" lon="3.35896">
        <ele>356</ele>
        <time>2015-11-14T13:43:57Z</time>
      </trkpt>
      <trkpt lat="43.60281" lon="3.35896">
        <ele>357</ele>
        <time>2015-11-14T13:43:58Z</time>
      </trkpt>
      <trkpt lat="43.60281" lon="3.35895">
        <ele>356.5</ele>
        <time>2015-11-14T13:43:59Z</time>
      </trkpt>
      <trkpt lat="43.60281" lon="3.35893">
        <ele>356.5</ele>
        <time>2015-11-14T13:44:00Z</time>
      </trkpt>
      <trkpt lat="43.60282" lon="3.35892">
        <ele>356.5</ele>
        <time>2015-11-14T13:44:01Z</time>
      </trkpt>
      <trkpt lat="43.60283" lon="3.35892">
        <ele>356.5</ele>
        <time>2015-11-14T13:44:02Z</time>
      </trkpt>
      <trkpt lat="43.60283" lon="3.35891">
        <ele>356.5</ele>
        <time>2015-11-14T13:44:03Z</time>
      </trkpt>
      <trkpt lat="43.60284" lon="3.35891">
        <ele>356.5</ele>
        <time>2015-11-14T13:44:04Z</time>
      </trkpt>
      <trkpt lat="43.60284" lon="3.35891">
        <ele>356.5</ele>
        <time>2015-11-14T13:44:05Z</time>
      </trkpt>
      <trkpt lat="43.60285" lon="3.35892">
        <ele>356</ele>
        <time>2015-11-14T13:44:06Z</time>
      </trkpt>
      <trkpt lat="43.60285" lon="3.35892">
        <ele>356</ele>
        <time>2015-11-14T13:44:07Z</time>
      </trkpt>
      <trkpt lat="43.60285" lon="3.35893">
        <ele>356</ele>
        <time>2015-11-14T13:44:08Z</time>
      </trkpt>
      <trkpt lat="43.60285" lon="3.35894">
        <ele>356</ele>
        <time>2015-11-14T13:44:09Z</time>
      </trkpt>
      <trkpt lat="43.60285" lon="3.35894">
        <ele>356</ele>
        <time>2015-11-14T13:44:10Z</time>
      </trkpt>
      <trkpt lat="43.60284" lon="3.35895">
        <ele>356</ele>
        <time>2015-11-14T13:44:11Z</time>
      </trkpt>
      <trkpt lat="43.60284" lon="3.35895">
        <ele>356</ele>
        <time>2015-11-14T13:44:12Z</time>
      </trkpt>
      <trkpt lat="43.60283" lon="3.35895">
        <ele>356</ele>
        <time>2015-11-14T13:44:13Z</time>
      </trkpt>
      <trkpt lat="43.60282" lon="3.35895">
        <ele>356</ele>
        <time>2015-11-14T13:44:14Z</time>
      </trkpt>
      <trkpt lat="43.6028" lon="3.35895">
        <ele>356.5</ele>
        <time>2015-11-14T13:44:15Z</time>
      </trkpt>
      <trkpt lat="43.60278" lon="3.35895">
        <ele>357</ele>
        <time>2015-11-14T13:44:16Z</time>
      </trkpt>
      <trkpt lat="43.60275" lon="3.35895">
        <ele>357.5</ele>
        <time>2015-11-14T13:44:17Z</time>
      </trkpt>
      <trkpt lat="43.60272" lon="3.35894">
        <ele>357.5</ele>
        <time>2015-11-14T13:44:18Z</time>
      </trkpt>
      <trkpt lat="43.60269" lon="3.35894">
        <ele>357.5</ele>
        <time>2015-11-14T13:44:19Z</time>
      </trkpt>
      <trkpt lat="43.60266" lon="3.35894">
        <ele>358</ele>
        <time>2015-11-14T13:44:20Z</time>
      </trkpt>
      <trkpt lat="43.60263" lon="3.35894">
        <ele>358</ele>
        <time>2015-11-14T13:44:21Z</time>
      </trkpt>
      <trkpt lat="43.6026" lon="3.35895">
        <ele>358</ele>
        <time>2015-11-14T13:44:22Z</time>
      </trkpt>
      <trkpt lat="43.60257" lon="3.35896">
        <ele>358</ele>
        <time>2015-11-14T13:44:23Z</time>
      </trkpt>
      <trkpt lat="43.60254" lon="3.35896">
        <ele>358</ele>
        <time>2015-11-14T13:44:24Z</time>
      </trkpt>
      <trkpt lat="43.60251" lon="3.35897">
        <ele>358</ele>
        <time>2015-11-14T13:44:25Z</time>
      </trkpt>
      <trkpt lat="43.60248" lon="3.35898">
        <ele>358</ele>
        <time>2015-11-14T13:44:26Z</time>
      </trkpt>
      <trkpt lat="43.60245" lon="3.35898">
        <ele>358</ele>
        <time>2015-11-14T13:44:27Z</time>
      </trkpt>
      <trkpt lat="43.60242" lon="3.35897">
        <ele>358.5</ele>
        <time>2015-11-14T13:44:28Z</time>
      </trkpt>
      <trkpt lat="43.60239" lon="3.35896">
        <ele>358.5</ele>
        <time>2015-11-14T13:44:29Z</time>
      </trkpt>
      <trkpt lat="43.60237" lon="3.35894">
        <ele>359</ele>
        <time>2015-11-14T13:44:30Z</time>
      </trkpt>
      <trkpt lat="43.60235" lon="3.35891">
        <ele>359.5</ele>
        <time>2015-11-14T13:44:31Z</time>
      </trkpt>
      <trkpt lat="43.60234" lon="3.35887">
        <ele>360</ele>
        <time>2015-11-14T13:44:32Z</time>
      </trkpt>
      <trkpt lat="43.60234" lon="3.35883">
        <ele>360</ele>
        <time>2015-11-14T13:44:33Z</time>
      </trkpt>
      <trkpt lat="43.60234" lon="3.35879">
        <ele>360</ele>
        <time>2015-11-14T13:44:34Z</time>
      </trkpt>
      <trkpt lat="43.60235" lon="3.35875">
        <ele>360</ele>
        <time>2015-11-14T13:44:35Z</time>
      </trkpt>
      <trkpt lat="43.60237" lon="3.35872">
        <ele>360.5</ele>
        <time>2015-11-14T13:44:36Z</time>
      </trkpt>
      <trkpt lat="43.60239" lon="3.35869">
        <ele>361</ele>
        <time>2015-11-14T13:44:37Z</time>
      </trkpt>
      <trkpt lat="43.60242" lon="3.35867">
        <ele>361</ele>
        <time>2015-11-14T13:44:37Z</time>
      </trkpt>
      <trkpt lat="43.60244" lon="3.35866">
        <ele>361.5</ele>
        <time>2015-11-14T13:44:38Z</time>
      </trkpt>
      <trkpt lat="43.60246" lon="3.35864">
        <ele>362</ele>
        <time>2015-11-14T13:44:40Z</time>
      </trkpt>
      <trkpt lat="43.60249" lon="3.35863">
        <ele>362</ele>
        <time>2015-11-14T13:44:40Z</time>
      </trkpt>
      <trkpt lat="43.60251" lon="3.35862">
        <ele>362</ele>
        <time>2015-11-14T13:44:41Z</time>
      </trkpt>
      <trkpt lat="43.60253" lon="3.35861">
        <ele>362.5</ele>
        <time>2015-11-14T13:44:42Z</time>
      </trkpt>
      <trkpt lat="43.60256" lon="3.3586">
        <ele>362.5</ele>
        <time>2015-11-14T13:44:43Z</time>
      </trkpt>
      <trkpt lat="43.60259" lon="3.35858">
        <ele>362.5</ele>
        <time>2015-11-14T13:44:44Z</time>
      </trkpt>
      <trkpt lat="43.60261" lon="3.35857">
        <ele>362.5</ele>
        <time>2015-11-14T13:44:45Z</time>
      </trkpt>
      <trkpt lat="43.60263" lon="3.35856">
        <ele>363</ele>
        <time>2015-11-14T13:44:47Z</time>
      </trkpt>
      <trkpt lat="43.60266" lon="3.35855">
        <ele>363</ele>
        <time>2015-11-14T13:44:47Z</time>
      </trkpt>
      <trkpt lat="43.60268" lon="3.35854">
        <ele>363.5</ele>
        <time>2015-11-14T13:44:48Z</time>
      </trkpt>
      <trkpt lat="43.6027" lon="3.35852">
        <ele>363.5</ele>
        <time>2015-11-14T13:44:50Z</time>
      </trkpt>
      <trkpt lat="43.60272" lon="3.3585">
        <ele>364</ele>
        <time>2015-11-14T13:44:50Z</time>
      </trkpt>
      <trkpt lat="43.60274" lon="3.35848">
        <ele>364</ele>
        <time>2015-11-14T13:44:51Z</time>
      </trkpt>
      <trkpt lat="43.60276" lon="3.35846">
        <ele>364.5</ele>
        <time>2015-11-14T13:44:53Z</time>
      </trkpt>
      <trkpt lat="43.60278" lon="3.35844">
        <ele>364.5</ele>
        <time>2015-11-14T13:44:53Z</time>
      </trkpt>
      <trkpt lat="43.6028" lon="3.35842">
        <ele>365</ele>
        <time>2015-11-14T13:44:54Z</time>
      </trkpt>
      <trkpt lat="43.60282" lon="3.3584">
        <ele>365.5</ele>
        <time>2015-11-14T13:44:55Z</time>
      </trkpt>
      <trkpt lat="43.60284" lon="3.35838">
        <ele>365.5</ele>
        <time>2015-11-14T13:44:56Z</time>
      </trkpt>
      <trkpt lat="43.60286" lon="3.35836">
        <ele>365.5</ele>
        <time>2015-11-14T13:44:57Z</time>
      </trkpt>
      <trkpt lat="43.60288" lon="3.35833">
        <ele>365.5</ele>
        <time>2015-11-14T13:44:58Z</time>
      </trkpt>
      <trkpt lat="43.6029" lon="3.35831">
        <ele>366</ele>
        <time>2015-11-14T13:44:59Z</time>
      </trkpt>
      <trkpt lat="43.60292" lon="3.35829">
        <ele>366</ele>
        <time>2015-11-14T13:45:00Z</time>
      </trkpt>
      <trkpt lat="43.60293" lon="3.35826">
        <ele>366</ele>
        <time>2015-11-14T13:45:01Z</time>
      </trkpt>
      <trkpt lat="43.60295" lon="3.35824">
        <ele>366</ele>
        <time>2015-11-14T13:45:02Z</time>
      </trkpt>
      <trkpt lat="43.60297" lon="3.35821">
        <ele>366</ele>
        <time>2015-11-14T13:45:03Z</time>
      </trkpt>
      <trkpt lat="43.60299" lon="3.35819">
        <ele>366</ele>
        <time>2015-11-14T13:45:04Z</time>
      </trkpt>
      <trkpt lat="43.60301" lon="3.35816">
        <ele>366</ele>
        <time>2015-11-14T13:45:05Z</time>
      </trkpt>
      <trkpt lat="43.60303" lon="3.35813">
        <ele>366.5</ele>
        <time>2015-11-14T13:45:06Z</time>
      </trkpt>
      <trkpt lat="43.60304" lon="3.3581">
        <ele>367</ele>
        <time>2015-11-14T13:45:07Z</time>
      </trkpt>
      <trkpt lat="43.60306" lon="3.35807">
        <ele>367.5</ele>
        <time>2015-11-14T13:45:08Z</time>
      </trkpt>
      <trkpt lat="43.60307" lon="3.35804">
        <ele>368</ele>
        <time>2015-11-14T13:45:09Z</time>
      </trkpt>
      <trkpt lat="43.60309" lon="3.35801">
        <ele>368.5</ele>
        <time>2015-11-14T13:45:10Z</time>
      </trkpt>
      <trkpt lat="43.60311" lon="3.35799">
        <ele>368.5</ele>
        <time>2015-11-14T13:45:11Z</time>
      </trkpt>
      <trkpt lat="43.60313" lon="3.35796">
        <ele>368.5</ele>
        <time>2015-11-14T13:45:12Z</time>
      </trkpt>
      <trkpt lat="43.60314" lon="3.35793">
        <ele>368.5</ele>
        <time>2015-11-14T13:45:13Z</time>
      </trkpt>
      <trkpt lat="43.60316" lon="3.3579">
        <ele>368.5</ele>
        <time>2015-11-14T13:45:14Z</time>
      </trkpt>
      <trkpt lat="43.60318" lon="3.35787">
        <ele>368.5</ele>
        <time>2015-11-14T13:45:15Z</time>
      </trkpt>
      <trkpt lat="43.6032" lon="3.35784">
        <ele>369</ele>
        <time>2015-11-14T13:45:16Z</time>
      </trkpt>
      <trkpt lat="43.60321" lon="3.35781">
        <ele>369</ele>
        <time>2015-11-14T13:45:17Z</time>
      </trkpt>
      <trkpt lat="43.60323" lon="3.35778">
        <ele>368.5</ele>
        <time>2015-11-14T13:45:18Z</time>
      </trkpt>
      <trkpt lat="43.60325" lon="3.35775">
        <ele>368.5</ele>
        <time>2015-11-14T13:45:19Z</time>
      </trkpt>
      <trkpt lat="43.60327" lon="3.35772">
        <ele>368</ele>
        <time>2015-11-14T13:45:20Z</time>
      </trkpt>
      <trkpt lat="43.60329" lon="3.35769">
        <ele>368</ele>
        <time>2015-11-14T13:45:21Z</time>
      </trkpt>
      <trkpt lat="43.60332" lon="3.35766">
        <ele>367.5</ele>
        <time>2015-11-14T13:45:23Z</time>
      </trkpt>
      <trkpt lat="43.60334" lon="3.35762">
        <ele>367</ele>
        <time>2015-11-14T13:45:23Z</time>
      </trkpt>
      <trkpt lat="43.60336" lon="3.35759">
        <ele>367</ele>
        <time>2015-11-14T13:45:24Z</time>
      </trkpt>
      <trkpt lat="43.60339" lon="3.35756">
        <ele>366.5</ele>
        <time>2015-11-14T13:45:25Z</time>
      </trkpt>
      <trkpt lat="43.60341" lon="3.35752">
        <ele>366.5</ele>
        <time>2015-11-14T13:45:26Z</time>
      </trkpt>
      <trkpt lat="43.60344" lon="3.35748">
        <ele>366</ele>
        <time>2015-11-14T13:45:27Z</time>
      </trkpt>
      <trkpt lat="43.60346" lon="3.35743">
        <ele>366</ele>
        <time>2015-11-14T13:45:28Z</time>
      </trkpt>
      <trkpt lat="43.60349" lon="3.35739">
        <ele>366</ele>
        <time>2015-11-14T13:45:29Z</time>
      </trkpt>
      <trkpt lat="43.60351" lon="3.35734">
        <ele>366</ele>
        <time>2015-11-14T13:45:30Z</time>
      </trkpt>
      <trkpt lat="43.60353" lon="3.35729">
        <ele>365.5</ele>
        <time>2015-11-14T13:45:31Z</time>
      </trkpt>
      <trkpt lat="43.60355" lon="3.35723">
        <ele>365.5</ele>
        <time>2015-11-14T13:45:32Z</time>
      </trkpt>
      <trkpt lat="43.60357" lon="3.35718">
        <ele>365.5</ele>
        <time>2015-11-14T13:45:33Z</time>
      </trkpt>
      <trkpt lat="43.60359" lon="3.35713">
        <ele>365</ele>
        <time>2015-11-14T13:45:34Z</time>
      </trkpt>
      <trkpt lat="43.6036" lon="3.35707">
        <ele>365</ele>
        <time>2015-11-14T13:45:35Z</time>
      </trkpt>
      <trkpt lat="43.60362" lon="3.35701">
        <ele>364.5</ele>
        <time>2015-11-14T13:45:36Z</time>
      </trkpt>
      <trkpt lat="43.60363" lon="3.35695">
        <ele>364.5</ele>
        <time>2015-11-14T13:45:37Z</time>
      </trkpt>
      <trkpt lat="43.60365" lon="3.3569">
        <ele>364</ele>
        <time>2015-11-14T13:45:38Z</time>
      </trkpt>
      <trkpt lat="43.60366" lon="3.35684">
        <ele>363.5</ele>
        <time>2015-11-14T13:45:39Z</time>
      </trkpt>
      <trkpt lat="43.60368" lon="3.35677">
        <ele>363</ele>
        <time>2015-11-14T13:45:40Z</time>
      </trkpt>
      <trkpt lat="43.60369" lon="3.35671">
        <ele>362.5</ele>
        <time>2015-11-14T13:45:41Z</time>
      </trkpt>
      <trkpt lat="43.60371" lon="3.35665">
        <ele>362.5</ele>
        <time>2015-11-14T13:45:42Z</time>
      </trkpt>
      <trkpt lat="43.60372" lon="3.35659">
        <ele>362</ele>
        <time>2015-11-14T13:45:43Z</time>
      </trkpt>
      <trkpt lat="43.60373" lon="3.35653">
        <ele>362</ele>
        <time>2015-11-14T13:45:44Z</time>
      </trkpt>
      <trkpt lat="43.60374" lon="3.35647">
        <ele>361</ele>
        <time>2015-11-14T13:45:45Z</time>
      </trkpt>
      <trkpt lat="43.60374" lon="3.35641">
        <ele>361</ele>
        <time>2015-11-14T13:45:46Z</time>
      </trkpt>
      <trkpt lat="43.60375" lon="3.35635">
        <ele>361</ele>
        <time>2015-11-14T13:45:47Z</time>
      </trkpt>
      <trkpt lat="43.60375" lon="3.35629">
        <ele>361.5</ele>
        <time>2015-11-14T13:45:48Z</time>
      </trkpt>
      <trkpt lat="43.60375" lon="3.35623">
        <ele>362.5</ele>
        <time>2015-11-14T13:45:49Z</time>
      </trkpt>
      <trkpt lat="43.60375" lon="3.35618">
        <ele>361.5</ele>
        <time>2015-11-14T13:45:50Z</time>
      </trkpt>
      <trkpt lat="43.60375" lon="3.35613">
        <ele>362</ele>
        <time>2015-11-14T13:45:51Z</time>
      </trkpt>
      <trkpt lat="43.60376" lon="3.35609">
        <ele>362.5</ele>
        <time>2015-11-14T13:45:52Z</time>
      </trkpt>
      <trkpt lat="43.60375" lon="3.35605">
        <ele>362.5</ele>
        <time>2015-11-14T13:45:53Z</time>
      </trkpt>
      <trkpt lat="43.60375" lon="3.35601">
        <ele>362.5</ele>
        <time>2015-11-14T13:45:54Z</time>
      </trkpt>
      <trkpt lat="43.60375" lon="3.35597">
        <ele>362.5</ele>
        <time>2015-11-14T13:45:55Z</time>
      </trkpt>
      <trkpt lat="43.60375" lon="3.35593">
        <ele>363</ele>
        <time>2015-11-14T13:45:56Z</time>
      </trkpt>
      <trkpt lat="43.60374" lon="3.35589">
        <ele>363.5</ele>
        <time>2015-11-14T13:45:57Z</time>
      </trkpt>
      <trkpt lat="43.60373" lon="3.35586">
        <ele>363.5</ele>
        <time>2015-11-14T13:45:58Z</time>
      </trkpt>
      <trkpt lat="43.60373" lon="3.35582">
        <ele>363.5</ele>
        <time>2015-11-14T13:45:59Z</time>
      </trkpt>
      <trkpt lat="43.60372" lon="3.35579">
        <ele>364</ele>
        <time>2015-11-14T13:46:00Z</time>
      </trkpt>
      <trkpt lat="43.6037" lon="3.35575">
        <ele>364</ele>
        <time>2015-11-14T13:46:01Z</time>
      </trkpt>
      <trkpt lat="43.60368" lon="3.35572">
        <ele>364.5</ele>
        <time>2015-11-14T13:46:02Z</time>
      </trkpt>
      <trkpt lat="43.60367" lon="3.35569">
        <ele>364.5</ele>
        <time>2015-11-14T13:46:03Z</time>
      </trkpt>
      <trkpt lat="43.60364" lon="3.35567">
        <ele>364.5</ele>
        <time>2015-11-14T13:46:04Z</time>
      </trkpt>
      <trkpt lat="43.60362" lon="3.35565">
        <ele>365</ele>
        <time>2015-11-14T13:46:05Z</time>
      </trkpt>
      <trkpt lat="43.60359" lon="3.35563">
        <ele>365</ele>
        <time>2015-11-14T13:46:06Z</time>
      </trkpt>
      <trkpt lat="43.60357" lon="3.35561">
        <ele>365</ele>
        <time>2015-11-14T13:46:07Z</time>
      </trkpt>
      <trkpt lat="43.60354" lon="3.3556">
        <ele>365.5</ele>
        <time>2015-11-14T13:46:08Z</time>
      </trkpt>
      <trkpt lat="43.60351" lon="3.35559">
        <ele>365.5</ele>
        <time>2015-11-14T13:46:09Z</time>
      </trkpt>
      <trkpt lat="43.60349" lon="3.35558">
        <ele>366</ele>
        <time>2015-11-14T13:46:10Z</time>
      </trkpt>
      <trkpt lat="43.60346" lon="3.35556">
        <ele>366</ele>
        <time>2015-11-14T13:46:11Z</time>
      </trkpt>
      <trkpt lat="43.60343" lon="3.35555">
        <ele>366</ele>
        <time>2015-11-14T13:46:12Z</time>
      </trkpt>
      <trkpt lat="43.6034" lon="3.35555">
        <ele>366</ele>
        <time>2015-11-14T13:46:13Z</time>
      </trkpt>
      <trkpt lat="43.60337" lon="3.35554">
        <ele>366.5</ele>
        <time>2015-11-14T13:46:14Z</time>
      </trkpt>
      <trkpt lat="43.60335" lon="3.35554">
        <ele>367</ele>
        <time>2015-11-14T13:46:15Z</time>
      </trkpt>
      <trkpt lat="43.60332" lon="3.35553">
        <ele>367.5</ele>
        <time>2015-11-14T13:46:16Z</time>
      </trkpt>
      <trkpt lat="43.60329" lon="3.35552">
        <ele>367.5</ele>
        <time>2015-11-14T13:46:17Z</time>
      </trkpt>
      <trkpt lat="43.60325" lon="3.35552">
        <ele>368</ele>
        <time>2015-11-14T13:46:18Z</time>
      </trkpt>
      <trkpt lat="43.60322" lon="3.35551">
        <ele>368.5</ele>
        <time>2015-11-14T13:46:19Z</time>
      </trkpt>
      <trkpt lat="43.60319" lon="3.35551">
        <ele>369</ele>
        <time>2015-11-14T13:46:20Z</time>
      </trkpt>
      <trkpt lat="43.60316" lon="3.35551">
        <ele>369.5</ele>
        <time>2015-11-14T13:46:21Z</time>
      </trkpt>
      <trkpt lat="43.60313" lon="3.35551">
        <ele>369.5</ele>
        <time>2015-11-14T13:46:22Z</time>
      </trkpt>
      <trkpt lat="43.6031" lon="3.3555">
        <ele>369.5</ele>
        <time>2015-11-14T13:46:23Z</time>
      </trkpt>
      <trkpt lat="43.60308" lon="3.3555">
        <ele>369.5</ele>
        <time>2015-11-14T13:46:24Z</time>
      </trkpt>
      <trkpt lat="43.60305" lon="3.3555">
        <ele>370</ele>
        <time>2015-11-14T13:46:25Z</time>
      </trkpt>
      <trkpt lat="43.60302" lon="3.35549">
        <ele>370.5</ele>
        <time>2015-11-14T13:46:26Z</time>
      </trkpt>
      <trkpt lat="43.60299" lon="3.35549">
        <ele>370.5</ele>
        <time>2015-11-14T13:46:27Z</time>
      </trkpt>
      <trkpt lat="43.60296" lon="3.35549">
        <ele>371</ele>
        <time>2015-11-14T13:46:28Z</time>
      </trkpt>
      <trkpt lat="43.60293" lon="3.35549">
        <ele>371</ele>
        <time>2015-11-14T13:46:29Z</time>
      </trkpt>
      <trkpt lat="43.6029" lon="3.35549">
        <ele>371.5</ele>
        <time>2015-11-14T13:46:30Z</time>
      </trkpt>
      <trkpt lat="43.60287" lon="3.35548">
        <ele>371.5</ele>
        <time>2015-11-14T13:46:31Z</time>
      </trkpt>
      <trkpt lat="43.60284" lon="3.35548">
        <ele>371.5</ele>
        <time>2015-11-14T13:46:32Z</time>
      </trkpt>
      <trkpt lat="43.60281" lon="3.35548">
        <ele>371.5</ele>
        <time>2015-11-14T13:46:33Z</time>
      </trkpt>
      <trkpt lat="43.60278" lon="3.35548">
        <ele>371.5</ele>
        <time>2015-11-14T13:46:34Z</time>
      </trkpt>
      <trkpt lat="43.60275" lon="3.35548">
        <ele>372</ele>
        <time>2015-11-14T13:46:35Z</time>
      </trkpt>
      <trkpt lat="43.60273" lon="3.35548">
        <ele>372</ele>
        <time>2015-11-14T13:46:36Z</time>
      </trkpt>
      <trkpt lat="43.6027" lon="3.35548">
        <ele>372.5</ele>
        <time>2015-11-14T13:46:37Z</time>
      </trkpt>
      <trkpt lat="43.60267" lon="3.35548">
        <ele>372.5</ele>
        <time>2015-11-14T13:46:38Z</time>
      </trkpt>
      <trkpt lat="43.60264" lon="3.35548">
        <ele>372.5</ele>
        <time>2015-11-14T13:46:39Z</time>
      </trkpt>
      <trkpt lat="43.60261" lon="3.35548">
        <ele>373</ele>
        <time>2015-11-14T13:46:40Z</time>
      </trkpt>
      <trkpt lat="43.60258" lon="3.35547">
        <ele>372.5</ele>
        <time>2015-11-14T13:46:41Z</time>
      </trkpt>
      <trkpt lat="43.60256" lon="3.35547">
        <ele>372.5</ele>
        <time>2015-11-14T13:46:42Z</time>
      </trkpt>
      <trkpt lat="43.60253" lon="3.35547">
        <ele>372.5</ele>
        <time>2015-11-14T13:46:43Z</time>
      </trkpt>
      <trkpt lat="43.6025" lon="3.35546">
        <ele>372.5</ele>
        <time>2015-11-14T13:46:44Z</time>
      </trkpt>
      <trkpt lat="43.60247" lon="3.35545">
        <ele>373</ele>
        <time>2015-11-14T13:46:45Z</time>
      </trkpt>
      <trkpt lat="43.60244" lon="3.35544">
        <ele>373</ele>
        <time>2015-11-14T13:46:46Z</time>
      </trkpt>
      <trkpt lat="43.60241" lon="3.35543">
        <ele>373</ele>
        <time>2015-11-14T13:46:47Z</time>
      </trkpt>
      <trkpt lat="43.60238" lon="3.35541">
        <ele>373</ele>
        <time>2015-11-14T13:46:48Z</time>
      </trkpt>
      <trkpt lat="43.60236" lon="3.35538">
        <ele>373</ele>
        <time>2015-11-14T13:46:49Z</time>
      </trkpt>
      <trkpt lat="43.60233" lon="3.35535">
        <ele>373.5</ele>
        <time>2015-11-14T13:46:50Z</time>
      </trkpt>
      <trkpt lat="43.60231" lon="3.35532">
        <ele>374</ele>
        <time>2015-11-14T13:46:51Z</time>
      </trkpt>
      <trkpt lat="43.6023" lon="3.35528">
        <ele>374</ele>
        <time>2015-11-14T13:46:52Z</time>
      </trkpt>
      <trkpt lat="43.60229" lon="3.35524">
        <ele>374.5</ele>
        <time>2015-11-14T13:46:53Z</time>
      </trkpt>
      <trkpt lat="43.60228" lon="3.3552">
        <ele>374.5</ele>
        <time>2015-11-14T13:46:54Z</time>
      </trkpt>
      <trkpt lat="43.60228" lon="3.35516">
        <ele>374.5</ele>
        <time>2015-11-14T13:46:55Z</time>
      </trkpt>
      <trkpt lat="43.60227" lon="3.35511">
        <ele>374</ele>
        <time>2015-11-14T13:46:56Z</time>
      </trkpt>
      <trkpt lat="43.60227" lon="3.35507">
        <ele>374.5</ele>
        <time>2015-11-14T13:46:57Z</time>
      </trkpt>
      <trkpt lat="43.60227" lon="3.35502">
        <ele>374.5</ele>
        <time>2015-11-14T13:46:58Z</time>
      </trkpt>
      <trkpt lat="43.60226" lon="3.35498">
        <ele>374.5</ele>
        <time>2015-11-14T13:46:59Z</time>
      </trkpt>
      <trkpt lat="43.60226" lon="3.35493">
        <ele>374.5</ele>
        <time>2015-11-14T13:47:00Z</time>
      </trkpt>
      <trkpt lat="43.60224" lon="3.35489">
        <ele>374.5</ele>
        <time>2015-11-14T13:47:01Z</time>
      </trkpt>
      <trkpt lat="43.60223" lon="3.35485">
        <ele>375</ele>
        <time>2015-11-14T13:47:02Z</time>
      </trkpt>
      <trkpt lat="43.60222" lon="3.35482">
        <ele>375</ele>
        <time>2015-11-14T13:47:03Z</time>
      </trkpt>
      <trkpt lat="43.6022" lon="3.35478">
        <ele>375</ele>
        <time>2015-11-14T13:47:04Z</time>
      </trkpt>
      <trkpt lat="43.60218" lon="3.35474">
        <ele>375.5</ele>
        <time>2015-11-14T13:47:05Z</time>
      </trkpt>
      <trkpt lat="43.60216" lon="3.35471">
        <ele>375.5</ele>
        <time>2015-11-14T13:47:06Z</time>
      </trkpt>
      <trkpt lat="43.60214" lon="3.35467">
        <ele>375.5</ele>
        <time>2015-11-14T13:47:07Z</time>
      </trkpt>
      <trkpt lat="43.60212" lon="3.35463">
        <ele>375.5</ele>
        <time>2015-11-14T13:47:08Z</time>
      </trkpt>
      <trkpt lat="43.6021" lon="3.3546">
        <ele>376</ele>
        <time>2015-11-14T13:47:09Z</time>
      </trkpt>
      <trkpt lat="43.60208" lon="3.35457">
        <ele>376</ele>
        <time>2015-11-14T13:47:10Z</time>
      </trkpt>
      <trkpt lat="43.60205" lon="3.35454">
        <ele>376</ele>
        <time>2015-11-14T13:47:11Z</time>
      </trkpt>
      <trkpt lat="43.60203" lon="3.35451">
        <ele>376.5</ele>
        <time>2015-11-14T13:47:12Z</time>
      </trkpt>
      <trkpt lat="43.602" lon="3.35449">
        <ele>376.5</ele>
        <time>2015-11-14T13:47:13Z</time>
      </trkpt>
      <trkpt lat="43.60198" lon="3.35446">
        <ele>376.5</ele>
        <time>2015-11-14T13:47:14Z</time>
      </trkpt>
      <trkpt lat="43.60193" lon="3.35442">
        <ele>377</ele>
        <time>2015-11-14T13:47:16Z</time>
      </trkpt>
      <trkpt lat="43.60191" lon="3.3544">
        <ele>377</ele>
        <time>2015-11-14T13:47:17Z</time>
      </trkpt>
      <trkpt lat="43.60188" lon="3.35438">
        <ele>377</ele>
        <time>2015-11-14T13:47:18Z</time>
      </trkpt>
      <trkpt lat="43.60186" lon="3.35436">
        <ele>377</ele>
        <time>2015-11-14T13:47:19Z</time>
      </trkpt>
      <trkpt lat="43.60183" lon="3.35434">
        <ele>377</ele>
        <time>2015-11-14T13:47:20Z</time>
      </trkpt>
      <trkpt lat="43.60181" lon="3.35432">
        <ele>377.5</ele>
        <time>2015-11-14T13:47:21Z</time>
      </trkpt>
      <trkpt lat="43.60178" lon="3.35431">
        <ele>377.5</ele>
        <time>2015-11-14T13:47:22Z</time>
      </trkpt>
      <trkpt lat="43.60175" lon="3.35429">
        <ele>378</ele>
        <time>2015-11-14T13:47:23Z</time>
      </trkpt>
      <trkpt lat="43.60173" lon="3.35428">
        <ele>378</ele>
        <time>2015-11-14T13:47:24Z</time>
      </trkpt>
      <trkpt lat="43.6017" lon="3.35427">
        <ele>378.5</ele>
        <time>2015-11-14T13:47:25Z</time>
      </trkpt>
      <trkpt lat="43.60168" lon="3.35425">
        <ele>378.5</ele>
        <time>2015-11-14T13:47:26Z</time>
      </trkpt>
      <trkpt lat="43.60165" lon="3.35424">
        <ele>379</ele>
        <time>2015-11-14T13:47:27Z</time>
      </trkpt>
      <trkpt lat="43.60162" lon="3.35423">
        <ele>379</ele>
        <time>2015-11-14T13:47:28Z</time>
      </trkpt>
      <trkpt lat="43.6016" lon="3.35421">
        <ele>379</ele>
        <time>2015-11-14T13:47:29Z</time>
      </trkpt>
      <trkpt lat="43.60157" lon="3.35419">
        <ele>379.5</ele>
        <time>2015-11-14T13:47:30Z</time>
      </trkpt>
      <trkpt lat="43.60154" lon="3.35418">
        <ele>380</ele>
        <time>2015-11-14T13:47:31Z</time>
      </trkpt>
      <trkpt lat="43.60152" lon="3.35416">
        <ele>380.5</ele>
        <time>2015-11-14T13:47:32Z</time>
      </trkpt>
      <trkpt lat="43.60149" lon="3.35414">
        <ele>381</ele>
        <time>2015-11-14T13:47:33Z</time>
      </trkpt>
      <trkpt lat="43.60147" lon="3.35413">
        <ele>381.5</ele>
        <time>2015-11-14T13:47:34Z</time>
      </trkpt>
      <trkpt lat="43.60145" lon="3.35411">
        <ele>381.5</ele>
        <time>2015-11-14T13:47:35Z</time>
      </trkpt>
      <trkpt lat="43.60143" lon="3.35409">
        <ele>382</ele>
        <time>2015-11-14T13:47:36Z</time>
      </trkpt>
      <trkpt lat="43.60141" lon="3.35407">
        <ele>382</ele>
        <time>2015-11-14T13:47:37Z</time>
      </trkpt>
      <trkpt lat="43.60139" lon="3.35406">
        <ele>382.5</ele>
        <time>2015-11-14T13:47:38Z</time>
      </trkpt>
      <trkpt lat="43.60137" lon="3.35404">
        <ele>382.5</ele>
        <time>2015-11-14T13:47:39Z</time>
      </trkpt>
      <trkpt lat="43.60135" lon="3.35403">
        <ele>382.5</ele>
        <time>2015-11-14T13:47:40Z</time>
      </trkpt>
      <trkpt lat="43.60133" lon="3.35401">
        <ele>382.5</ele>
        <time>2015-11-14T13:47:41Z</time>
      </trkpt>
      <trkpt lat="43.60131" lon="3.35399">
        <ele>383</ele>
        <time>2015-11-14T13:47:42Z</time>
      </trkpt>
      <trkpt lat="43.60129" lon="3.35398">
        <ele>383</ele>
        <time>2015-11-14T13:47:43Z</time>
      </trkpt>
      <trkpt lat="43.60127" lon="3.35396">
        <ele>383</ele>
        <time>2015-11-14T13:47:44Z</time>
      </trkpt>
      <trkpt lat="43.60125" lon="3.35395">
        <ele>383.5</ele>
        <time>2015-11-14T13:47:45Z</time>
      </trkpt>
      <trkpt lat="43.60123" lon="3.35394">
        <ele>383.5</ele>
        <time>2015-11-14T13:47:46Z</time>
      </trkpt>
      <trkpt lat="43.60121" lon="3.35393">
        <ele>384</ele>
        <time>2015-11-14T13:47:47Z</time>
      </trkpt>
      <trkpt lat="43.60119" lon="3.35393">
        <ele>384.5</ele>
        <time>2015-11-14T13:47:48Z</time>
      </trkpt>
      <trkpt lat="43.60117" lon="3.35392">
        <ele>384.5</ele>
        <time>2015-11-14T13:47:49Z</time>
      </trkpt>
      <trkpt lat="43.60115" lon="3.35392">
        <ele>385</ele>
        <time>2015-11-14T13:47:50Z</time>
      </trkpt>
      <trkpt lat="43.60113" lon="3.35391">
        <ele>385</ele>
        <time>2015-11-14T13:47:51Z</time>
      </trkpt>
      <trkpt lat="43.60111" lon="3.35391">
        <ele>385</ele>
        <time>2015-11-14T13:47:52Z</time>
      </trkpt>
      <trkpt lat="43.6011" lon="3.35391">
        <ele>385</ele>
        <time>2015-11-14T13:47:53Z</time>
      </trkpt>
      <trkpt lat="43.60108" lon="3.35391">
        <ele>385.5</ele>
        <time>2015-11-14T13:47:54Z</time>
      </trkpt>
      <trkpt lat="43.60106" lon="3.35391">
        <ele>385.5</ele>
        <time>2015-11-14T13:47:55Z</time>
      </trkpt>
      <trkpt lat="43.60105" lon="3.3539">
        <ele>386</ele>
        <time>2015-11-14T13:47:56Z</time>
      </trkpt>
      <trkpt lat="43.60103" lon="3.35389">
        <ele>386</ele>
        <time>2015-11-14T13:47:57Z</time>
      </trkpt>
      <trkpt lat="43.60102" lon="3.35389">
        <ele>386</ele>
        <time>2015-11-14T13:47:58Z</time>
      </trkpt>
      <trkpt lat="43.601" lon="3.35388">
        <ele>386.5</ele>
        <time>2015-11-14T13:47:59Z</time>
      </trkpt>
      <trkpt lat="43.60099" lon="3.35388">
        <ele>386.5</ele>
        <time>2015-11-14T13:47:59Z</time>
      </trkpt>
      <trkpt lat="43.60098" lon="3.35388">
        <ele>386.5</ele>
        <time>2015-11-14T13:48:00Z</time>
      </trkpt>
      <trkpt lat="43.60097" lon="3.35389">
        <ele>386.5</ele>
        <time>2015-11-14T13:48:01Z</time>
      </trkpt>
      <trkpt lat="43.60096" lon="3.35388">
        <ele>386.5</ele>
        <time>2015-11-14T13:48:08Z</time>
      </trkpt>
      <trkpt lat="43.60093" lon="3.35387">
        <ele>387.5</ele>
        <time>2015-11-14T13:48:10Z</time>
      </trkpt>
      <trkpt lat="43.60091" lon="3.35386">
        <ele>387.5</ele>
        <time>2015-11-14T13:48:11Z</time>
      </trkpt>
      <trkpt lat="43.60089" lon="3.35385">
        <ele>388</ele>
        <time>2015-11-14T13:48:12Z</time>
      </trkpt>
      <trkpt lat="43.60087" lon="3.35384">
        <ele>388</ele>
        <time>2015-11-14T13:48:13Z</time>
      </trkpt>
      <trkpt lat="43.60085" lon="3.35384">
        <ele>388.5</ele>
        <time>2015-11-14T13:48:14Z</time>
      </trkpt>
      <trkpt lat="43.60083" lon="3.35382">
        <ele>389</ele>
        <time>2015-11-14T13:48:15Z</time>
      </trkpt>
      <trkpt lat="43.60081" lon="3.35379">
        <ele>389</ele>
        <time>2015-11-14T13:48:16Z</time>
      </trkpt>
      <trkpt lat="43.6008" lon="3.35376">
        <ele>389</ele>
        <time>2015-11-14T13:48:17Z</time>
      </trkpt>
      <trkpt lat="43.60078" lon="3.35373">
        <ele>389.5</ele>
        <time>2015-11-14T13:48:18Z</time>
      </trkpt>
      <trkpt lat="43.60077" lon="3.35368">
        <ele>389.5</ele>
        <time>2015-11-14T13:48:19Z</time>
      </trkpt>
      <trkpt lat="43.60075" lon="3.35364">
        <ele>389.5</ele>
        <time>2015-11-14T13:48:20Z</time>
      </trkpt>
      <trkpt lat="43.60075" lon="3.35359">
        <ele>390</ele>
        <time>2015-11-14T13:48:22Z</time>
      </trkpt>
      <trkpt lat="43.60076" lon="3.35355">
        <ele>390</ele>
        <time>2015-11-14T13:48:22Z</time>
      </trkpt>
      <trkpt lat="43.60077" lon="3.35352">
        <ele>390</ele>
        <time>2015-11-14T13:48:23Z</time>
      </trkpt>
      <trkpt lat="43.60078" lon="3.35348">
        <ele>390</ele>
        <time>2015-11-14T13:48:24Z</time>
      </trkpt>
      <trkpt lat="43.60079" lon="3.35344">
        <ele>390</ele>
        <time>2015-11-14T13:48:25Z</time>
      </trkpt>
      <trkpt lat="43.6008" lon="3.35341">
        <ele>390</ele>
        <time>2015-11-14T13:48:26Z</time>
      </trkpt>
      <trkpt lat="43.60081" lon="3.35337">
        <ele>390</ele>
        <time>2015-11-14T13:48:27Z</time>
      </trkpt>
      <trkpt lat="43.60083" lon="3.35334">
        <ele>390</ele>
        <time>2015-11-14T13:48:28Z</time>
      </trkpt>
      <trkpt lat="43.60085" lon="3.3533">
        <ele>390</ele>
        <time>2015-11-14T13:48:29Z</time>
      </trkpt>
      <trkpt lat="43.60086" lon="3.35326">
        <ele>390</ele>
        <time>2015-11-14T13:48:30Z</time>
      </trkpt>
      <trkpt lat="43.60088" lon="3.35323">
        <ele>389.5</ele>
        <time>2015-11-14T13:48:32Z</time>
      </trkpt>
      <trkpt lat="43.60089" lon="3.35319">
        <ele>389.5</ele>
        <time>2015-11-14T13:48:32Z</time>
      </trkpt>
      <trkpt lat="43.60091" lon="3.35316">
        <ele>389</ele>
        <time>2015-11-14T13:48:33Z</time>
      </trkpt>
      <trkpt lat="43.60092" lon="3.35313">
        <ele>389</ele>
        <time>2015-11-14T13:48:34Z</time>
      </trkpt>
      <trkpt lat="43.60093" lon="3.35309">
        <ele>389</ele>
        <time>2015-11-14T13:48:35Z</time>
      </trkpt>
      <trkpt lat="43.60094" lon="3.35306">
        <ele>389</ele>
        <time>2015-11-14T13:48:36Z</time>
      </trkpt>
      <trkpt lat="43.60096" lon="3.35302">
        <ele>389</ele>
        <time>2015-11-14T13:48:37Z</time>
      </trkpt>
      <trkpt lat="43.60097" lon="3.35298">
        <ele>389</ele>
        <time>2015-11-14T13:48:38Z</time>
      </trkpt>
      <trkpt lat="43.60097" lon="3.35294">
        <ele>388.5</ele>
        <time>2015-11-14T13:48:39Z</time>
      </trkpt>
      <trkpt lat="43.60098" lon="3.35289">
        <ele>389</ele>
        <time>2015-11-14T13:48:40Z</time>
      </trkpt>
      <trkpt lat="43.60098" lon="3.35285">
        <ele>388.5</ele>
        <time>2015-11-14T13:48:41Z</time>
      </trkpt>
      <trkpt lat="43.60098" lon="3.3528">
        <ele>388.5</ele>
        <time>2015-11-14T13:48:42Z</time>
      </trkpt>
      <trkpt lat="43.60097" lon="3.35276">
        <ele>388.5</ele>
        <time>2015-11-14T13:48:43Z</time>
      </trkpt>
      <trkpt lat="43.60096" lon="3.35272">
        <ele>388.5</ele>
        <time>2015-11-14T13:48:44Z</time>
      </trkpt>
      <trkpt lat="43.60094" lon="3.35269">
        <ele>388.5</ele>
        <time>2015-11-14T13:48:45Z</time>
      </trkpt>
      <trkpt lat="43.60093" lon="3.35266">
        <ele>388.5</ele>
        <time>2015-11-14T13:48:46Z</time>
      </trkpt>
      <trkpt lat="43.6009" lon="3.35263">
        <ele>388.5</ele>
        <time>2015-11-14T13:48:48Z</time>
      </trkpt>
      <trkpt lat="43.60088" lon="3.3526">
        <ele>388.5</ele>
        <time>2015-11-14T13:48:48Z</time>
      </trkpt>
      <trkpt lat="43.60086" lon="3.35258">
        <ele>388.5</ele>
        <time>2015-11-14T13:48:49Z</time>
      </trkpt>
      <trkpt lat="43.60084" lon="3.35255">
        <ele>388.5</ele>
        <time>2015-11-14T13:48:50Z</time>
      </trkpt>
      <trkpt lat="43.60081" lon="3.35253">
        <ele>388.5</ele>
        <time>2015-11-14T13:48:51Z</time>
      </trkpt>
      <trkpt lat="43.60079" lon="3.35251">
        <ele>388.5</ele>
        <time>2015-11-14T13:48:53Z</time>
      </trkpt>
      <trkpt lat="43.60077" lon="3.35248">
        <ele>389</ele>
        <time>2015-11-14T13:48:53Z</time>
      </trkpt>
      <trkpt lat="43.60076" lon="3.35246">
        <ele>389</ele>
        <time>2015-11-14T13:48:54Z</time>
      </trkpt>
      <trkpt lat="43.60074" lon="3.35243">
        <ele>389</ele>
        <time>2015-11-14T13:48:55Z</time>
      </trkpt>
      <trkpt lat="43.60072" lon="3.35239">
        <ele>389</ele>
        <time>2015-11-14T13:48:56Z</time>
      </trkpt>
      <trkpt lat="43.60071" lon="3.35236">
        <ele>389</ele>
        <time>2015-11-14T13:48:57Z</time>
      </trkpt>
      <trkpt lat="43.6007" lon="3.35233">
        <ele>389.5</ele>
        <time>2015-11-14T13:48:58Z</time>
      </trkpt>
      <trkpt lat="43.60068" lon="3.3523">
        <ele>389.5</ele>
        <time>2015-11-14T13:48:59Z</time>
      </trkpt>
      <trkpt lat="43.60067" lon="3.35227">
        <ele>390</ele>
        <time>2015-11-14T13:49:00Z</time>
      </trkpt>
      <trkpt lat="43.60066" lon="3.35224">
        <ele>390</ele>
        <time>2015-11-14T13:49:01Z</time>
      </trkpt>
      <trkpt lat="43.60065" lon="3.3522">
        <ele>390</ele>
        <time>2015-11-14T13:49:02Z</time>
      </trkpt>
      <trkpt lat="43.60064" lon="3.35217">
        <ele>390.5</ele>
        <time>2015-11-14T13:49:03Z</time>
      </trkpt>
      <trkpt lat="43.60063" lon="3.35214">
        <ele>390.5</ele>
        <time>2015-11-14T13:49:04Z</time>
      </trkpt>
      <trkpt lat="43.60062" lon="3.35211">
        <ele>391</ele>
        <time>2015-11-14T13:49:05Z</time>
      </trkpt>
      <trkpt lat="43.60061" lon="3.35208">
        <ele>391.5</ele>
        <time>2015-11-14T13:49:06Z</time>
      </trkpt>
      <trkpt lat="43.6006" lon="3.35205">
        <ele>391.5</ele>
        <time>2015-11-14T13:49:07Z</time>
      </trkpt>
      <trkpt lat="43.60059" lon="3.35202">
        <ele>391.5</ele>
        <time>2015-11-14T13:49:08Z</time>
      </trkpt>
      <trkpt lat="43.60058" lon="3.35198">
        <ele>392</ele>
        <time>2015-11-14T13:49:09Z</time>
      </trkpt>
      <trkpt lat="43.60057" lon="3.35195">
        <ele>392</ele>
        <time>2015-11-14T13:49:10Z</time>
      </trkpt>
      <trkpt lat="43.60056" lon="3.35192">
        <ele>392.5</ele>
        <time>2015-11-14T13:49:11Z</time>
      </trkpt>
      <trkpt lat="43.60055" lon="3.35189">
        <ele>392.5</ele>
        <time>2015-11-14T13:49:12Z</time>
      </trkpt>
      <trkpt lat="43.60054" lon="3.35186">
        <ele>393</ele>
        <time>2015-11-14T13:49:13Z</time>
      </trkpt>
      <trkpt lat="43.60053" lon="3.35184">
        <ele>393.5</ele>
        <time>2015-11-14T13:49:14Z</time>
      </trkpt>
      <trkpt lat="43.60052" lon="3.35182">
        <ele>394</ele>
        <time>2015-11-14T13:49:15Z</time>
      </trkpt>
      <trkpt lat="43.60051" lon="3.35179">
        <ele>394</ele>
        <time>2015-11-14T13:49:16Z</time>
      </trkpt>
      <trkpt lat="43.6005" lon="3.35176">
        <ele>394</ele>
        <time>2015-11-14T13:49:17Z</time>
      </trkpt>
      <trkpt lat="43.60049" lon="3.35173">
        <ele>393.5</ele>
        <time>2015-11-14T13:49:18Z</time>
      </trkpt>
      <trkpt lat="43.60047" lon="3.3517">
        <ele>394</ele>
        <time>2015-11-14T13:49:19Z</time>
      </trkpt>
      <trkpt lat="43.60046" lon="3.35167">
        <ele>394</ele>
        <time>2015-11-14T13:49:20Z</time>
      </trkpt>
      <trkpt lat="43.60044" lon="3.35164">
        <ele>394</ele>
        <time>2015-11-14T13:49:21Z</time>
      </trkpt>
      <trkpt lat="43.60043" lon="3.35161">
        <ele>394.5</ele>
        <time>2015-11-14T13:49:22Z</time>
      </trkpt>
      <trkpt lat="43.60042" lon="3.35158">
        <ele>395</ele>
        <time>2015-11-14T13:49:23Z</time>
      </trkpt>
      <trkpt lat="43.6004" lon="3.35156">
        <ele>395</ele>
        <time>2015-11-14T13:49:24Z</time>
      </trkpt>
      <trkpt lat="43.60039" lon="3.35153">
        <ele>395</ele>
        <time>2015-11-14T13:49:25Z</time>
      </trkpt>
      <trkpt lat="43.60038" lon="3.35151">
        <ele>395</ele>
        <time>2015-11-14T13:49:26Z</time>
      </trkpt>
      <trkpt lat="43.60036" lon="3.35148">
        <ele>395</ele>
        <time>2015-11-14T13:49:27Z</time>
      </trkpt>
      <trkpt lat="43.60035" lon="3.35146">
        <ele>395</ele>
        <time>2015-11-14T13:49:28Z</time>
      </trkpt>
      <trkpt lat="43.60033" lon="3.35144">
        <ele>395.5</ele>
        <time>2015-11-14T13:49:29Z</time>
      </trkpt>
      <trkpt lat="43.60031" lon="3.35142">
        <ele>395.5</ele>
        <time>2015-11-14T13:49:30Z</time>
      </trkpt>
      <trkpt lat="43.60029" lon="3.3514">
        <ele>395.5</ele>
        <time>2015-11-14T13:49:31Z</time>
      </trkpt>
      <trkpt lat="43.60028" lon="3.35139">
        <ele>396</ele>
        <time>2015-11-14T13:49:32Z</time>
      </trkpt>
      <trkpt lat="43.60026" lon="3.35138">
        <ele>396</ele>
        <time>2015-11-14T13:49:33Z</time>
      </trkpt>
      <trkpt lat="43.60024" lon="3.35137">
        <ele>396</ele>
        <time>2015-11-14T13:49:34Z</time>
      </trkpt>
      <trkpt lat="43.60022" lon="3.35137">
        <ele>396</ele>
        <time>2015-11-14T13:49:35Z</time>
      </trkpt>
      <trkpt lat="43.6002" lon="3.35136">
        <ele>396.5</ele>
        <time>2015-11-14T13:49:36Z</time>
      </trkpt>
      <trkpt lat="43.60018" lon="3.35136">
        <ele>396.5</ele>
        <time>2015-11-14T13:49:37Z</time>
      </trkpt>
      <trkpt lat="43.60015" lon="3.35136">
        <ele>397</ele>
        <time>2015-11-14T13:49:38Z</time>
      </trkpt>
      <trkpt lat="43.60013" lon="3.35136">
        <ele>397</ele>
        <time>2015-11-14T13:49:39Z</time>
      </trkpt>
      <trkpt lat="43.60011" lon="3.35136">
        <ele>397.5</ele>
        <time>2015-11-14T13:49:40Z</time>
      </trkpt>
      <trkpt lat="43.60009" lon="3.35137">
        <ele>397.5</ele>
        <time>2015-11-14T13:49:41Z</time>
      </trkpt>
      <trkpt lat="43.60007" lon="3.35138">
        <ele>397.5</ele>
        <time>2015-11-14T13:49:42Z</time>
      </trkpt>
      <trkpt lat="43.60005" lon="3.3514">
        <ele>398</ele>
        <time>2015-11-14T13:49:43Z</time>
      </trkpt>
      <trkpt lat="43.60004" lon="3.35141">
        <ele>398</ele>
        <time>2015-11-14T13:49:44Z</time>
      </trkpt>
      <trkpt lat="43.60002" lon="3.35143">
        <ele>398.5</ele>
        <time>2015-11-14T13:49:45Z</time>
      </trkpt>
      <trkpt lat="43.60001" lon="3.35146">
        <ele>399</ele>
        <time>2015-11-14T13:49:46Z</time>
      </trkpt>
      <trkpt lat="43.59999" lon="3.35147">
        <ele>399.5</ele>
        <time>2015-11-14T13:49:47Z</time>
      </trkpt>
      <trkpt lat="43.59997" lon="3.35149">
        <ele>400</ele>
        <time>2015-11-14T13:49:48Z</time>
      </trkpt>
      <trkpt lat="43.59995" lon="3.35151">
        <ele>400</ele>
        <time>2015-11-14T13:49:49Z</time>
      </trkpt>
      <trkpt lat="43.59994" lon="3.35152">
        <ele>400.5</ele>
        <time>2015-11-14T13:49:50Z</time>
      </trkpt>
      <trkpt lat="43.59992" lon="3.35154">
        <ele>401</ele>
        <time>2015-11-14T13:49:51Z</time>
      </trkpt>
      <trkpt lat="43.5999" lon="3.35155">
        <ele>402</ele>
        <time>2015-11-14T13:49:52Z</time>
      </trkpt>
      <trkpt lat="43.59989" lon="3.35157">
        <ele>402</ele>
        <time>2015-11-14T13:49:53Z</time>
      </trkpt>
      <trkpt lat="43.59987" lon="3.35158">
        <ele>402.5</ele>
        <time>2015-11-14T13:49:54Z</time>
      </trkpt>
      <trkpt lat="43.59985" lon="3.35159">
        <ele>402.5</ele>
        <time>2015-11-14T13:49:55Z</time>
      </trkpt>
      <trkpt lat="43.59983" lon="3.3516">
        <ele>403</ele>
        <time>2015-11-14T13:49:56Z</time>
      </trkpt>
      <trkpt lat="43.59981" lon="3.35161">
        <ele>403</ele>
        <time>2015-11-14T13:49:57Z</time>
      </trkpt>
      <trkpt lat="43.5998" lon="3.35162">
        <ele>403.5</ele>
        <time>2015-11-14T13:49:58Z</time>
      </trkpt>
      <trkpt lat="43.59978" lon="3.35164">
        <ele>403.5</ele>
        <time>2015-11-14T13:49:59Z</time>
      </trkpt>
      <trkpt lat="43.59976" lon="3.35165">
        <ele>404</ele>
        <time>2015-11-14T13:50:00Z</time>
      </trkpt>
      <trkpt lat="43.59975" lon="3.35166">
        <ele>404</ele>
        <time>2015-11-14T13:50:01Z</time>
      </trkpt>
      <trkpt lat="43.59973" lon="3.35168">
        <ele>404.5</ele>
        <time>2015-11-14T13:50:02Z</time>
      </trkpt>
      <trkpt lat="43.59971" lon="3.35169">
        <ele>404.5</ele>
        <time>2015-11-14T13:50:03Z</time>
      </trkpt>
      <trkpt lat="43.59969" lon="3.35171">
        <ele>405</ele>
        <time>2015-11-14T13:50:04Z</time>
      </trkpt>
      <trkpt lat="43.59968" lon="3.35173">
        <ele>405</ele>
        <time>2015-11-14T13:50:05Z</time>
      </trkpt>
      <trkpt lat="43.59966" lon="3.35174">
        <ele>405.5</ele>
        <time>2015-11-14T13:50:06Z</time>
      </trkpt>
      <trkpt lat="43.59964" lon="3.35176">
        <ele>406</ele>
        <time>2015-11-14T13:50:07Z</time>
      </trkpt>
      <trkpt lat="43.59963" lon="3.35177">
        <ele>406</ele>
        <time>2015-11-14T13:50:08Z</time>
      </trkpt>
      <trkpt lat="43.59961" lon="3.35179">
        <ele>406.5</ele>
        <time>2015-11-14T13:50:09Z</time>
      </trkpt>
      <trkpt lat="43.59959" lon="3.35181">
        <ele>406.5</ele>
        <time>2015-11-14T13:50:10Z</time>
      </trkpt>
      <trkpt lat="43.59958" lon="3.35182">
        <ele>407</ele>
        <time>2015-11-14T13:50:11Z</time>
      </trkpt>
      <trkpt lat="43.59957" lon="3.35184">
        <ele>407.5</ele>
        <time>2015-11-14T13:50:12Z</time>
      </trkpt>
      <trkpt lat="43.59956" lon="3.35186">
        <ele>407.5</ele>
        <time>2015-11-14T13:50:13Z</time>
      </trkpt>
      <trkpt lat="43.59955" lon="3.35188">
        <ele>408</ele>
        <time>2015-11-14T13:50:14Z</time>
      </trkpt>
      <trkpt lat="43.59953" lon="3.35189">
        <ele>408</ele>
        <time>2015-11-14T13:50:15Z</time>
      </trkpt>
      <trkpt lat="43.59951" lon="3.35191">
        <ele>408.5</ele>
        <time>2015-11-14T13:50:16Z</time>
      </trkpt>
      <trkpt lat="43.5995" lon="3.35192">
        <ele>408.5</ele>
        <time>2015-11-14T13:50:17Z</time>
      </trkpt>
      <trkpt lat="43.59948" lon="3.35194">
        <ele>409</ele>
        <time>2015-11-14T13:50:18Z</time>
      </trkpt>
      <trkpt lat="43.59946" lon="3.35195">
        <ele>409.5</ele>
        <time>2015-11-14T13:50:19Z</time>
      </trkpt>
      <trkpt lat="43.59945" lon="3.35196">
        <ele>409.5</ele>
        <time>2015-11-14T13:50:20Z</time>
      </trkpt>
      <trkpt lat="43.59943" lon="3.35198">
        <ele>410</ele>
        <time>2015-11-14T13:50:21Z</time>
      </trkpt>
      <trkpt lat="43.59941" lon="3.35199">
        <ele>410.5</ele>
        <time>2015-11-14T13:50:22Z</time>
      </trkpt>
      <trkpt lat="43.5994" lon="3.35201">
        <ele>410.5</ele>
        <time>2015-11-14T13:50:23Z</time>
      </trkpt>
      <trkpt lat="43.59938" lon="3.35202">
        <ele>410</ele>
        <time>2015-11-14T13:50:24Z</time>
      </trkpt>
      <trkpt lat="43.59936" lon="3.35204">
        <ele>410.5</ele>
        <time>2015-11-14T13:50:25Z</time>
      </trkpt>
      <trkpt lat="43.59934" lon="3.35206">
        <ele>410.5</ele>
        <time>2015-11-14T13:50:26Z</time>
      </trkpt>
      <trkpt lat="43.59931" lon="3.35208">
        <ele>411</ele>
        <time>2015-11-14T13:50:27Z</time>
      </trkpt>
      <trkpt lat="43.59929" lon="3.3521">
        <ele>411</ele>
        <time>2015-11-14T13:50:28Z</time>
      </trkpt>
      <trkpt lat="43.59927" lon="3.35211">
        <ele>411.5</ele>
        <time>2015-11-14T13:50:29Z</time>
      </trkpt>
      <trkpt lat="43.59926" lon="3.35213">
        <ele>412</ele>
        <time>2015-11-14T13:50:30Z</time>
      </trkpt>
      <trkpt lat="43.59924" lon="3.35214">
        <ele>412</ele>
        <time>2015-11-14T13:50:31Z</time>
      </trkpt>
      <trkpt lat="43.59922" lon="3.35216">
        <ele>412.5</ele>
        <time>2015-11-14T13:50:32Z</time>
      </trkpt>
      <trkpt lat="43.5992" lon="3.35217">
        <ele>412.5</ele>
        <time>2015-11-14T13:50:33Z</time>
      </trkpt>
      <trkpt lat="43.59918" lon="3.35218">
        <ele>413</ele>
        <time>2015-11-14T13:50:34Z</time>
      </trkpt>
      <trkpt lat="43.59917" lon="3.35219">
        <ele>413</ele>
        <time>2015-11-14T13:50:35Z</time>
      </trkpt>
      <trkpt lat="43.59915" lon="3.3522">
        <ele>413</ele>
        <time>2015-11-14T13:50:36Z</time>
      </trkpt>
      <trkpt lat="43.59913" lon="3.35221">
        <ele>413</ele>
        <time>2015-11-14T13:50:37Z</time>
      </trkpt>
      <trkpt lat="43.59911" lon="3.35222">
        <ele>413</ele>
        <time>2015-11-14T13:50:38Z</time>
      </trkpt>
      <trkpt lat="43.59908" lon="3.35222">
        <ele>413</ele>
        <time>2015-11-14T13:50:39Z</time>
      </trkpt>
      <trkpt lat="43.59906" lon="3.35223">
        <ele>413</ele>
        <time>2015-11-14T13:50:40Z</time>
      </trkpt>
      <trkpt lat="43.59904" lon="3.35224">
        <ele>413</ele>
        <time>2015-11-14T13:50:41Z</time>
      </trkpt>
      <trkpt lat="43.59902" lon="3.35224">
        <ele>413</ele>
        <time>2015-11-14T13:50:42Z</time>
      </trkpt>
      <trkpt lat="43.599" lon="3.35225">
        <ele>413.5</ele>
        <time>2015-11-14T13:50:43Z</time>
      </trkpt>
      <trkpt lat="43.59897" lon="3.35226">
        <ele>413.5</ele>
        <time>2015-11-14T13:50:44Z</time>
      </trkpt>
      <trkpt lat="43.59895" lon="3.35226">
        <ele>413.5</ele>
        <time>2015-11-14T13:50:45Z</time>
      </trkpt>
      <trkpt lat="43.59893" lon="3.35226">
        <ele>413.5</ele>
        <time>2015-11-14T13:50:46Z</time>
      </trkpt>
      <trkpt lat="43.5989" lon="3.35226">
        <ele>414</ele>
        <time>2015-11-14T13:50:47Z</time>
      </trkpt>
      <trkpt lat="43.59888" lon="3.35227">
        <ele>414</ele>
        <time>2015-11-14T13:50:48Z</time>
      </trkpt>
      <trkpt lat="43.59885" lon="3.35227">
        <ele>414</ele>
        <time>2015-11-14T13:50:49Z</time>
      </trkpt>
      <trkpt lat="43.59883" lon="3.35227">
        <ele>414</ele>
        <time>2015-11-14T13:50:50Z</time>
      </trkpt>
      <trkpt lat="43.5988" lon="3.35228">
        <ele>414</ele>
        <time>2015-11-14T13:50:51Z</time>
      </trkpt>
      <trkpt lat="43.59878" lon="3.35228">
        <ele>414</ele>
        <time>2015-11-14T13:50:52Z</time>
      </trkpt>
      <trkpt lat="43.59875" lon="3.35229">
        <ele>414</ele>
        <time>2015-11-14T13:50:53Z</time>
      </trkpt>
      <trkpt lat="43.59873" lon="3.3523">
        <ele>414.5</ele>
        <time>2015-11-14T13:50:54Z</time>
      </trkpt>
      <trkpt lat="43.59871" lon="3.35231">
        <ele>414.5</ele>
        <time>2015-11-14T13:50:55Z</time>
      </trkpt>
      <trkpt lat="43.59868" lon="3.35232">
        <ele>414.5</ele>
        <time>2015-11-14T13:50:56Z</time>
      </trkpt>
      <trkpt lat="43.59866" lon="3.35233">
        <ele>414.5</ele>
        <time>2015-11-14T13:50:57Z</time>
      </trkpt>
      <trkpt lat="43.59864" lon="3.35234">
        <ele>415</ele>
        <time>2015-11-14T13:50:58Z</time>
      </trkpt>
      <trkpt lat="43.59861" lon="3.35234">
        <ele>415</ele>
        <time>2015-11-14T13:50:59Z</time>
      </trkpt>
      <trkpt lat="43.59859" lon="3.35234">
        <ele>415</ele>
        <time>2015-11-14T13:51:00Z</time>
      </trkpt>
      <trkpt lat="43.59856" lon="3.35234">
        <ele>415</ele>
        <time>2015-11-14T13:51:01Z</time>
      </trkpt>
      <trkpt lat="43.59854" lon="3.35234">
        <ele>415</ele>
        <time>2015-11-14T13:51:02Z</time>
      </trkpt>
      <trkpt lat="43.59851" lon="3.35233">
        <ele>415</ele>
        <time>2015-11-14T13:51:03Z</time>
      </trkpt>
      <trkpt lat="43.59847" lon="3.35233">
        <ele>415.5</ele>
        <time>2015-11-14T13:51:04Z</time>
      </trkpt>
      <trkpt lat="43.59844" lon="3.35233">
        <ele>415.5</ele>
        <time>2015-11-14T13:51:05Z</time>
      </trkpt>
      <trkpt lat="43.59841" lon="3.35231">
        <ele>416</ele>
        <time>2015-11-14T13:51:06Z</time>
      </trkpt>
      <trkpt lat="43.59839" lon="3.35229">
        <ele>416.5</ele>
        <time>2015-11-14T13:51:07Z</time>
      </trkpt>
      <trkpt lat="43.59837" lon="3.35227">
        <ele>417</ele>
        <time>2015-11-14T13:51:08Z</time>
      </trkpt>
      <trkpt lat="43.59835" lon="3.35224">
        <ele>417.5</ele>
        <time>2015-11-14T13:51:09Z</time>
      </trkpt>
      <trkpt lat="43.59834" lon="3.35222">
        <ele>417.5</ele>
        <time>2015-11-14T13:51:10Z</time>
      </trkpt>
      <trkpt lat="43.59832" lon="3.35219">
        <ele>417.5</ele>
        <time>2015-11-14T13:51:11Z</time>
      </trkpt>
      <trkpt lat="43.59831" lon="3.35217">
        <ele>417.5</ele>
        <time>2015-11-14T13:51:12Z</time>
      </trkpt>
      <trkpt lat="43.59829" lon="3.35214">
        <ele>418</ele>
        <time>2015-11-14T13:51:13Z</time>
      </trkpt>
      <trkpt lat="43.59827" lon="3.35212">
        <ele>418</ele>
        <time>2015-11-14T13:51:14Z</time>
      </trkpt>
      <trkpt lat="43.59825" lon="3.35209">
        <ele>418</ele>
        <time>2015-11-14T13:51:15Z</time>
      </trkpt>
      <trkpt lat="43.59823" lon="3.35207">
        <ele>418.5</ele>
        <time>2015-11-14T13:51:16Z</time>
      </trkpt>
      <trkpt lat="43.59821" lon="3.35205">
        <ele>418.5</ele>
        <time>2015-11-14T13:51:17Z</time>
      </trkpt>
      <trkpt lat="43.59819" lon="3.35203">
        <ele>419</ele>
        <time>2015-11-14T13:51:18Z</time>
      </trkpt>
      <trkpt lat="43.59817" lon="3.35201">
        <ele>419.5</ele>
        <time>2015-11-14T13:51:19Z</time>
      </trkpt>
      <trkpt lat="43.59815" lon="3.35199">
        <ele>419.5</ele>
        <time>2015-11-14T13:51:20Z</time>
      </trkpt>
      <trkpt lat="43.59813" lon="3.35198">
        <ele>420</ele>
        <time>2015-11-14T13:51:21Z</time>
      </trkpt>
      <trkpt lat="43.59811" lon="3.35197">
        <ele>420.5</ele>
        <time>2015-11-14T13:51:22Z</time>
      </trkpt>
      <trkpt lat="43.59809" lon="3.35196">
        <ele>420.5</ele>
        <time>2015-11-14T13:51:23Z</time>
      </trkpt>
      <trkpt lat="43.59806" lon="3.35195">
        <ele>421</ele>
        <time>2015-11-14T13:51:24Z</time>
      </trkpt>
      <trkpt lat="43.59804" lon="3.35194">
        <ele>421.5</ele>
        <time>2015-11-14T13:51:25Z</time>
      </trkpt>
      <trkpt lat="43.59802" lon="3.35194">
        <ele>422</ele>
        <time>2015-11-14T13:51:26Z</time>
      </trkpt>
      <trkpt lat="43.598" lon="3.35193">
        <ele>422</ele>
        <time>2015-11-14T13:51:27Z</time>
      </trkpt>
      <trkpt lat="43.59798" lon="3.35192">
        <ele>422.5</ele>
        <time>2015-11-14T13:51:28Z</time>
      </trkpt>
      <trkpt lat="43.59796" lon="3.35191">
        <ele>422.5</ele>
        <time>2015-11-14T13:51:29Z</time>
      </trkpt>
      <trkpt lat="43.59794" lon="3.35191">
        <ele>423</ele>
        <time>2015-11-14T13:51:30Z</time>
      </trkpt>
      <trkpt lat="43.59791" lon="3.35191">
        <ele>423</ele>
        <time>2015-11-14T13:51:31Z</time>
      </trkpt>
      <trkpt lat="43.59789" lon="3.3519">
        <ele>423.5</ele>
        <time>2015-11-14T13:51:32Z</time>
      </trkpt>
      <trkpt lat="43.59787" lon="3.3519">
        <ele>424</ele>
        <time>2015-11-14T13:51:33Z</time>
      </trkpt>
      <trkpt lat="43.59785" lon="3.3519">
        <ele>424</ele>
        <time>2015-11-14T13:51:34Z</time>
      </trkpt>
      <trkpt lat="43.59783" lon="3.3519">
        <ele>424</ele>
        <time>2015-11-14T13:51:35Z</time>
      </trkpt>
      <trkpt lat="43.59781" lon="3.35191">
        <ele>424</ele>
        <time>2015-11-14T13:51:36Z</time>
      </trkpt>
      <trkpt lat="43.59779" lon="3.3519">
        <ele>424.5</ele>
        <time>2015-11-14T13:51:37Z</time>
      </trkpt>
      <trkpt lat="43.59777" lon="3.3519">
        <ele>424.5</ele>
        <time>2015-11-14T13:51:38Z</time>
      </trkpt>
      <trkpt lat="43.59774" lon="3.3519">
        <ele>424.5</ele>
        <time>2015-11-14T13:51:39Z</time>
      </trkpt>
      <trkpt lat="43.59772" lon="3.3519">
        <ele>424.5</ele>
        <time>2015-11-14T13:51:40Z</time>
      </trkpt>
      <trkpt lat="43.5977" lon="3.35191">
        <ele>424.5</ele>
        <time>2015-11-14T13:51:41Z</time>
      </trkpt>
      <trkpt lat="43.59768" lon="3.35191">
        <ele>425</ele>
        <time>2015-11-14T13:51:42Z</time>
      </trkpt>
      <trkpt lat="43.59766" lon="3.35191">
        <ele>425</ele>
        <time>2015-11-14T13:51:43Z</time>
      </trkpt>
      <trkpt lat="43.59763" lon="3.35191">
        <ele>425.5</ele>
        <time>2015-11-14T13:51:44Z</time>
      </trkpt>
      <trkpt lat="43.59761" lon="3.35191">
        <ele>425.5</ele>
        <time>2015-11-14T13:51:45Z</time>
      </trkpt>
      <trkpt lat="43.59758" lon="3.35192">
        <ele>425.5</ele>
        <time>2015-11-14T13:51:46Z</time>
      </trkpt>
      <trkpt lat="43.59755" lon="3.35192">
        <ele>425.5</ele>
        <time>2015-11-14T13:51:47Z</time>
      </trkpt>
      <trkpt lat="43.59752" lon="3.35192">
        <ele>426</ele>
        <time>2015-11-14T13:51:48Z</time>
      </trkpt>
      <trkpt lat="43.5975" lon="3.35192">
        <ele>426.5</ele>
        <time>2015-11-14T13:51:49Z</time>
      </trkpt>
      <trkpt lat="43.59748" lon="3.35191">
        <ele>426.5</ele>
        <time>2015-11-14T13:51:49Z</time>
      </trkpt>
      <trkpt lat="43.59747" lon="3.35189">
        <ele>426.5</ele>
        <time>2015-11-14T13:51:50Z</time>
      </trkpt>
      <trkpt lat="43.59745" lon="3.35188">
        <ele>426.5</ele>
        <time>2015-11-14T13:51:51Z</time>
      </trkpt>
      <trkpt lat="43.59744" lon="3.35186">
        <ele>425.5</ele>
        <time>2015-11-14T13:51:53Z</time>
      </trkpt>
      <trkpt lat="43.59738" lon="3.35177">
        <ele>424</ele>
        <time>2015-11-14T13:51:54Z</time>
      </trkpt>
      <trkpt lat="43.59735" lon="3.35172">
        <ele>423</ele>
        <time>2015-11-14T13:51:55Z</time>
      </trkpt>
      <trkpt lat="43.59732" lon="3.35166">
        <ele>422.5</ele>
        <time>2015-11-14T13:51:56Z</time>
      </trkpt>
      <trkpt lat="43.59728" lon="3.35161">
        <ele>422</ele>
        <time>2015-11-14T13:51:57Z</time>
      </trkpt>
      <trkpt lat="43.59725" lon="3.35155">
        <ele>421.5</ele>
        <time>2015-11-14T13:51:58Z</time>
      </trkpt>
      <trkpt lat="43.59721" lon="3.3515">
        <ele>421.5</ele>
        <time>2015-11-14T13:51:59Z</time>
      </trkpt>
      <trkpt lat="43.59717" lon="3.35145">
        <ele>421</ele>
        <time>2015-11-14T13:52:01Z</time>
      </trkpt>
      <trkpt lat="43.59715" lon="3.35139">
        <ele>420.5</ele>
        <time>2015-11-14T13:52:01Z</time>
      </trkpt>
      <trkpt lat="43.59712" lon="3.35134">
        <ele>420</ele>
        <time>2015-11-14T13:52:02Z</time>
      </trkpt>
      <trkpt lat="43.59709" lon="3.35127">
        <ele>420</ele>
        <time>2015-11-14T13:52:04Z</time>
      </trkpt>
      <trkpt lat="43.59708" lon="3.35121">
        <ele>419.5</ele>
        <time>2015-11-14T13:52:04Z</time>
      </trkpt>
      <trkpt lat="43.59706" lon="3.35114">
        <ele>419</ele>
        <time>2015-11-14T13:52:05Z</time>
      </trkpt>
      <trkpt lat="43.59704" lon="3.35107">
        <ele>418.5</ele>
        <time>2015-11-14T13:52:06Z</time>
      </trkpt>
      <trkpt lat="43.59703" lon="3.351">
        <ele>418</ele>
        <time>2015-11-14T13:52:07Z</time>
      </trkpt>
      <trkpt lat="43.59703" lon="3.35092">
        <ele>417.5</ele>
        <time>2015-11-14T13:52:08Z</time>
      </trkpt>
      <trkpt lat="43.59702" lon="3.35085">
        <ele>417</ele>
        <time>2015-11-14T13:52:09Z</time>
      </trkpt>
      <trkpt lat="43.59702" lon="3.35077">
        <ele>416.5</ele>
        <time>2015-11-14T13:52:10Z</time>
      </trkpt>
      <trkpt lat="43.59701" lon="3.35068">
        <ele>415.5</ele>
        <time>2015-11-14T13:52:11Z</time>
      </trkpt>
      <trkpt lat="43.59701" lon="3.35059">
        <ele>414.5</ele>
        <time>2015-11-14T13:52:12Z</time>
      </trkpt>
      <trkpt lat="43.59702" lon="3.35049">
        <ele>413</ele>
        <time>2015-11-14T13:52:13Z</time>
      </trkpt>
      <trkpt lat="43.59702" lon="3.35038">
        <ele>412</ele>
        <time>2015-11-14T13:52:14Z</time>
      </trkpt>
      <trkpt lat="43.59701" lon="3.35027">
        <ele>411</ele>
        <time>2015-11-14T13:52:15Z</time>
      </trkpt>
      <trkpt lat="43.59699" lon="3.35017">
        <ele>410</ele>
        <time>2015-11-14T13:52:16Z</time>
      </trkpt>
      <trkpt lat="43.59697" lon="3.35006">
        <ele>409.5</ele>
        <time>2015-11-14T13:52:17Z</time>
      </trkpt>
      <trkpt lat="43.59695" lon="3.34995">
        <ele>408.5</ele>
        <time>2015-11-14T13:52:18Z</time>
      </trkpt>
      <trkpt lat="43.59694" lon="3.34984">
        <ele>408</ele>
        <time>2015-11-14T13:52:19Z</time>
      </trkpt>
      <trkpt lat="43.59692" lon="3.34974">
        <ele>407.5</ele>
        <time>2015-11-14T13:52:20Z</time>
      </trkpt>
      <trkpt lat="43.59689" lon="3.34963">
        <ele>406.5</ele>
        <time>2015-11-14T13:52:21Z</time>
      </trkpt>
      <trkpt lat="43.59685" lon="3.34954">
        <ele>406.5</ele>
        <time>2015-11-14T13:52:22Z</time>
      </trkpt>
      <trkpt lat="43.59684" lon="3.34942">
        <ele>405.5</ele>
        <time>2015-11-14T13:52:34Z</time>
      </trkpt>
      <trkpt lat="43.59686" lon="3.34941">
        <ele>405</ele>
        <time>2015-11-14T13:52:35Z</time>
      </trkpt>
      <trkpt lat="43.59688" lon="3.3494">
        <ele>404.5</ele>
        <time>2015-11-14T13:52:36Z</time>
      </trkpt>
      <trkpt lat="43.5969" lon="3.34939">
        <ele>404.5</ele>
        <time>2015-11-14T13:52:37Z</time>
      </trkpt>
      <trkpt lat="43.59693" lon="3.34938">
        <ele>404</ele>
        <time>2015-11-14T13:52:38Z</time>
      </trkpt>
      <trkpt lat="43.59695" lon="3.34936">
        <ele>403</ele>
        <time>2015-11-14T13:52:39Z</time>
      </trkpt>
      <trkpt lat="43.59695" lon="3.34933">
        <ele>403</ele>
        <time>2015-11-14T13:52:40Z</time>
      </trkpt>
      <trkpt lat="43.59694" lon="3.34929">
        <ele>403</ele>
        <time>2015-11-14T13:52:41Z</time>
      </trkpt>
      <trkpt lat="43.59693" lon="3.34926">
        <ele>403.5</ele>
        <time>2015-11-14T13:52:42Z</time>
      </trkpt>
      <trkpt lat="43.59692" lon="3.34922">
        <ele>403</ele>
        <time>2015-11-14T13:52:43Z</time>
      </trkpt>
      <trkpt lat="43.59691" lon="3.34919">
        <ele>403.5</ele>
        <time>2015-11-14T13:52:44Z</time>
      </trkpt>
      <trkpt lat="43.59689" lon="3.34915">
        <ele>403.5</ele>
        <time>2015-11-14T13:52:45Z</time>
      </trkpt>
      <trkpt lat="43.59688" lon="3.34911">
        <ele>403</ele>
        <time>2015-11-14T13:52:46Z</time>
      </trkpt>
      <trkpt lat="43.59687" lon="3.34907">
        <ele>403</ele>
        <time>2015-11-14T13:52:47Z</time>
      </trkpt>
      <trkpt lat="43.59686" lon="3.34902">
        <ele>402.5</ele>
        <time>2015-11-14T13:52:48Z</time>
      </trkpt>
      <trkpt lat="43.59685" lon="3.34897">
        <ele>402.5</ele>
        <time>2015-11-14T13:52:49Z</time>
      </trkpt>
      <trkpt lat="43.59683" lon="3.34893">
        <ele>402.5</ele>
        <time>2015-11-14T13:52:50Z</time>
      </trkpt>
      <trkpt lat="43.59682" lon="3.34888">
        <ele>402.5</ele>
        <time>2015-11-14T13:52:51Z</time>
      </trkpt>
      <trkpt lat="43.59681" lon="3.34884">
        <ele>402</ele>
        <time>2015-11-14T13:52:52Z</time>
      </trkpt>
      <trkpt lat="43.5968" lon="3.34879">
        <ele>402.5</ele>
        <time>2015-11-14T13:52:53Z</time>
      </trkpt>
      <trkpt lat="43.59678" lon="3.34876">
        <ele>402.5</ele>
        <time>2015-11-14T13:52:54Z</time>
      </trkpt>
      <trkpt lat="43.59676" lon="3.34873">
        <ele>403</ele>
        <time>2015-11-14T13:52:55Z</time>
      </trkpt>
      <trkpt lat="43.59674" lon="3.3487">
        <ele>403</ele>
        <time>2015-11-14T13:52:56Z</time>
      </trkpt>
      <trkpt lat="43.59671" lon="3.34867">
        <ele>403</ele>
        <time>2015-11-14T13:52:57Z</time>
      </trkpt>
      <trkpt lat="43.59669" lon="3.34866">
        <ele>403.5</ele>
        <time>2015-11-14T13:52:58Z</time>
      </trkpt>
      <trkpt lat="43.59667" lon="3.34865">
        <ele>404</ele>
        <time>2015-11-14T13:52:59Z</time>
      </trkpt>
      <trkpt lat="43.59665" lon="3.34862">
        <ele>404</ele>
        <time>2015-11-14T13:53:00Z</time>
      </trkpt>
      <trkpt lat="43.59664" lon="3.34859">
        <ele>404</ele>
        <time>2015-11-14T13:53:01Z</time>
      </trkpt>
      <trkpt lat="43.59663" lon="3.34856">
        <ele>403.5</ele>
        <time>2015-11-14T13:53:02Z</time>
      </trkpt>
      <trkpt lat="43.59661" lon="3.34853">
        <ele>404</ele>
        <time>2015-11-14T13:53:03Z</time>
      </trkpt>
      <trkpt lat="43.59659" lon="3.34851">
        <ele>403.5</ele>
        <time>2015-11-14T13:53:04Z</time>
      </trkpt>
      <trkpt lat="43.59658" lon="3.34848">
        <ele>403.5</ele>
        <time>2015-11-14T13:53:05Z</time>
      </trkpt>
      <trkpt lat="43.59656" lon="3.34846">
        <ele>403.5</ele>
        <time>2015-11-14T13:53:06Z</time>
      </trkpt>
      <trkpt lat="43.59655" lon="3.34843">
        <ele>403.5</ele>
        <time>2015-11-14T13:53:07Z</time>
      </trkpt>
      <trkpt lat="43.59654" lon="3.34841">
        <ele>403.5</ele>
        <time>2015-11-14T13:53:08Z</time>
      </trkpt>
      <trkpt lat="43.59653" lon="3.34838">
        <ele>403.5</ele>
        <time>2015-11-14T13:53:09Z</time>
      </trkpt>
      <trkpt lat="43.59652" lon="3.34836">
        <ele>403.5</ele>
        <time>2015-11-14T13:53:10Z</time>
      </trkpt>
      <trkpt lat="43.59651" lon="3.34834">
        <ele>403.5</ele>
        <time>2015-11-14T13:53:11Z</time>
      </trkpt>
      <trkpt lat="43.5965" lon="3.34831">
        <ele>403.5</ele>
        <time>2015-11-14T13:53:12Z</time>
      </trkpt>
      <trkpt lat="43.59648" lon="3.34829">
        <ele>403.5</ele>
        <time>2015-11-14T13:53:13Z</time>
      </trkpt>
      <trkpt lat="43.59647" lon="3.34827">
        <ele>403.5</ele>
        <time>2015-11-14T13:53:14Z</time>
      </trkpt>
      <trkpt lat="43.59646" lon="3.34825">
        <ele>403.5</ele>
        <time>2015-11-14T13:53:15Z</time>
      </trkpt>
      <trkpt lat="43.59644" lon="3.34824">
        <ele>403.5</ele>
        <time>2015-11-14T13:53:16Z</time>
      </trkpt>
      <trkpt lat="43.59643" lon="3.34823">
        <ele>403.5</ele>
        <time>2015-11-14T13:53:17Z</time>
      </trkpt>
      <trkpt lat="43.59642" lon="3.34822">
        <ele>404</ele>
        <time>2015-11-14T13:53:18Z</time>
      </trkpt>
      <trkpt lat="43.5964" lon="3.34821">
        <ele>404</ele>
        <time>2015-11-14T13:53:19Z</time>
      </trkpt>
      <trkpt lat="43.59639" lon="3.3482">
        <ele>404.5</ele>
        <time>2015-11-14T13:53:20Z</time>
      </trkpt>
      <trkpt lat="43.59637" lon="3.34819">
        <ele>404.5</ele>
        <time>2015-11-14T13:53:21Z</time>
      </trkpt>
      <trkpt lat="43.59635" lon="3.34818">
        <ele>405</ele>
        <time>2015-11-14T13:53:22Z</time>
      </trkpt>
      <trkpt lat="43.59634" lon="3.34816">
        <ele>405</ele>
        <time>2015-11-14T13:53:23Z</time>
      </trkpt>
      <trkpt lat="43.59633" lon="3.34814">
        <ele>405</ele>
        <time>2015-11-14T13:53:24Z</time>
      </trkpt>
      <trkpt lat="43.59632" lon="3.34811">
        <ele>405</ele>
        <time>2015-11-14T13:53:25Z</time>
      </trkpt>
      <trkpt lat="43.59632" lon="3.34808">
        <ele>405</ele>
        <time>2015-11-14T13:53:26Z</time>
      </trkpt>
      <trkpt lat="43.59631" lon="3.34806">
        <ele>405</ele>
        <time>2015-11-14T13:53:27Z</time>
      </trkpt>
      <trkpt lat="43.5963" lon="3.34803">
        <ele>405.5</ele>
        <time>2015-11-14T13:53:28Z</time>
      </trkpt>
      <trkpt lat="43.59629" lon="3.348">
        <ele>405</ele>
        <time>2015-11-14T13:53:29Z</time>
      </trkpt>
      <trkpt lat="43.59628" lon="3.34798">
        <ele>405</ele>
        <time>2015-11-14T13:53:30Z</time>
      </trkpt>
      <trkpt lat="43.59628" lon="3.34795">
        <ele>405</ele>
        <time>2015-11-14T13:53:31Z</time>
      </trkpt>
      <trkpt lat="43.59627" lon="3.34792">
        <ele>405</ele>
        <time>2015-11-14T13:53:32Z</time>
      </trkpt>
      <trkpt lat="43.59626" lon="3.3479">
        <ele>405.5</ele>
        <time>2015-11-14T13:53:33Z</time>
      </trkpt>
      <trkpt lat="43.59626" lon="3.34787">
        <ele>405.5</ele>
        <time>2015-11-14T13:53:34Z</time>
      </trkpt>
      <trkpt lat="43.59625" lon="3.34785">
        <ele>405.5</ele>
        <time>2015-11-14T13:53:35Z</time>
      </trkpt>
      <trkpt lat="43.59624" lon="3.34782">
        <ele>406</ele>
        <time>2015-11-14T13:53:36Z</time>
      </trkpt>
      <trkpt lat="43.59623" lon="3.3478">
        <ele>406</ele>
        <time>2015-11-14T13:53:37Z</time>
      </trkpt>
      <trkpt lat="43.59622" lon="3.34778">
        <ele>406</ele>
        <time>2015-11-14T13:53:38Z</time>
      </trkpt>
      <trkpt lat="43.59622" lon="3.34775">
        <ele>406</ele>
        <time>2015-11-14T13:53:39Z</time>
      </trkpt>
      <trkpt lat="43.59621" lon="3.34773">
        <ele>406.5</ele>
        <time>2015-11-14T13:53:40Z</time>
      </trkpt>
      <trkpt lat="43.59621" lon="3.34771">
        <ele>406.5</ele>
        <time>2015-11-14T13:53:41Z</time>
      </trkpt>
      <trkpt lat="43.5962" lon="3.34768">
        <ele>406.5</ele>
        <time>2015-11-14T13:53:42Z</time>
      </trkpt>
      <trkpt lat="43.5962" lon="3.34766">
        <ele>407</ele>
        <time>2015-11-14T13:53:43Z</time>
      </trkpt>
      <trkpt lat="43.59619" lon="3.34763">
        <ele>407</ele>
        <time>2015-11-14T13:53:44Z</time>
      </trkpt>
      <trkpt lat="43.59619" lon="3.34761">
        <ele>407.5</ele>
        <time>2015-11-14T13:53:45Z</time>
      </trkpt>
      <trkpt lat="43.59619" lon="3.34758">
        <ele>407</ele>
        <time>2015-11-14T13:53:46Z</time>
      </trkpt>
      <trkpt lat="43.59618" lon="3.34756">
        <ele>407.5</ele>
        <time>2015-11-14T13:53:47Z</time>
      </trkpt>
      <trkpt lat="43.59618" lon="3.34753">
        <ele>407.5</ele>
        <time>2015-11-14T13:53:48Z</time>
      </trkpt>
      <trkpt lat="43.59618" lon="3.34751">
        <ele>408</ele>
        <time>2015-11-14T13:53:49Z</time>
      </trkpt>
      <trkpt lat="43.59617" lon="3.34749">
        <ele>408</ele>
        <time>2015-11-14T13:53:50Z</time>
      </trkpt>
      <trkpt lat="43.59617" lon="3.34746">
        <ele>408</ele>
        <time>2015-11-14T13:53:51Z</time>
      </trkpt>
      <trkpt lat="43.59617" lon="3.34744">
        <ele>408.5</ele>
        <time>2015-11-14T13:53:52Z</time>
      </trkpt>
      <trkpt lat="43.59616" lon="3.34742">
        <ele>408.5</ele>
        <time>2015-11-14T13:53:53Z</time>
      </trkpt>
      <trkpt lat="43.59616" lon="3.34739">
        <ele>408.5</ele>
        <time>2015-11-14T13:53:54Z</time>
      </trkpt>
      <trkpt lat="43.59615" lon="3.34737">
        <ele>409</ele>
        <time>2015-11-14T13:53:55Z</time>
      </trkpt>
      <trkpt lat="43.59615" lon="3.34734">
        <ele>409</ele>
        <time>2015-11-14T13:53:56Z</time>
      </trkpt>
      <trkpt lat="43.59615" lon="3.34732">
        <ele>409</ele>
        <time>2015-11-14T13:53:57Z</time>
      </trkpt>
      <trkpt lat="43.59614" lon="3.34729">
        <ele>409.5</ele>
        <time>2015-11-14T13:53:58Z</time>
      </trkpt>
      <trkpt lat="43.59614" lon="3.34727">
        <ele>410</ele>
        <time>2015-11-14T13:53:59Z</time>
      </trkpt>
      <trkpt lat="43.59613" lon="3.34724">
        <ele>410</ele>
        <time>2015-11-14T13:54:00Z</time>
      </trkpt>
      <trkpt lat="43.59612" lon="3.34722">
        <ele>410</ele>
        <time>2015-11-14T13:54:01Z</time>
      </trkpt>
      <trkpt lat="43.59612" lon="3.3472">
        <ele>410</ele>
        <time>2015-11-14T13:54:02Z</time>
      </trkpt>
      <trkpt lat="43.59611" lon="3.34717">
        <ele>410.5</ele>
        <time>2015-11-14T13:54:03Z</time>
      </trkpt>
      <trkpt lat="43.59611" lon="3.34715">
        <ele>410.5</ele>
        <time>2015-11-14T13:54:04Z</time>
      </trkpt>
      <trkpt lat="43.5961" lon="3.34712">
        <ele>410.5</ele>
        <time>2015-11-14T13:54:05Z</time>
      </trkpt>
      <trkpt lat="43.5961" lon="3.3471">
        <ele>411</ele>
        <time>2015-11-14T13:54:06Z</time>
      </trkpt>
      <trkpt lat="43.59609" lon="3.34708">
        <ele>411</ele>
        <time>2015-11-14T13:54:07Z</time>
      </trkpt>
      <trkpt lat="43.59608" lon="3.34706">
        <ele>411</ele>
        <time>2015-11-14T13:54:08Z</time>
      </trkpt>
      <trkpt lat="43.59608" lon="3.34704">
        <ele>411</ele>
        <time>2015-11-14T13:54:09Z</time>
      </trkpt>
      <trkpt lat="43.59608" lon="3.34701">
        <ele>411</ele>
        <time>2015-11-14T13:54:10Z</time>
      </trkpt>
      <trkpt lat="43.59607" lon="3.34699">
        <ele>411</ele>
        <time>2015-11-14T13:54:11Z</time>
      </trkpt>
      <trkpt lat="43.59606" lon="3.34697">
        <ele>411.5</ele>
        <time>2015-11-14T13:54:12Z</time>
      </trkpt>
      <trkpt lat="43.59606" lon="3.34695">
        <ele>412</ele>
        <time>2015-11-14T13:54:13Z</time>
      </trkpt>
      <trkpt lat="43.59605" lon="3.34693">
        <ele>412</ele>
        <time>2015-11-14T13:54:14Z</time>
      </trkpt>
      <trkpt lat="43.59604" lon="3.34692">
        <ele>412</ele>
        <time>2015-11-14T13:54:15Z</time>
      </trkpt>
      <trkpt lat="43.59604" lon="3.3469">
        <ele>412.5</ele>
        <time>2015-11-14T13:54:16Z</time>
      </trkpt>
      <trkpt lat="43.59603" lon="3.34688">
        <ele>413</ele>
        <time>2015-11-14T13:54:17Z</time>
      </trkpt>
      <trkpt lat="43.59602" lon="3.34686">
        <ele>413</ele>
        <time>2015-11-14T13:54:18Z</time>
      </trkpt>
      <trkpt lat="43.59602" lon="3.34684">
        <ele>413.5</ele>
        <time>2015-11-14T13:54:19Z</time>
      </trkpt>
      <trkpt lat="43.59601" lon="3.34682">
        <ele>414</ele>
        <time>2015-11-14T13:54:20Z</time>
      </trkpt>
      <trkpt lat="43.59601" lon="3.3468">
        <ele>414</ele>
        <time>2015-11-14T13:54:21Z</time>
      </trkpt>
      <trkpt lat="43.596" lon="3.34678">
        <ele>414</ele>
        <time>2015-11-14T13:54:22Z</time>
      </trkpt>
      <trkpt lat="43.596" lon="3.34676">
        <ele>415</ele>
        <time>2015-11-14T13:54:23Z</time>
      </trkpt>
      <trkpt lat="43.59599" lon="3.34674">
        <ele>415</ele>
        <time>2015-11-14T13:54:24Z</time>
      </trkpt>
      <trkpt lat="43.59599" lon="3.34672">
        <ele>415.5</ele>
        <time>2015-11-14T13:54:25Z</time>
      </trkpt>
      <trkpt lat="43.59598" lon="3.3467">
        <ele>415.5</ele>
        <time>2015-11-14T13:54:26Z</time>
      </trkpt>
      <trkpt lat="43.59598" lon="3.34668">
        <ele>415.5</ele>
        <time>2015-11-14T13:54:27Z</time>
      </trkpt>
      <trkpt lat="43.59597" lon="3.34666">
        <ele>416</ele>
        <time>2015-11-14T13:54:28Z</time>
      </trkpt>
      <trkpt lat="43.59596" lon="3.34665">
        <ele>416.5</ele>
        <time>2015-11-14T13:54:29Z</time>
      </trkpt>
      <trkpt lat="43.59595" lon="3.34663">
        <ele>416.5</ele>
        <time>2015-11-14T13:54:30Z</time>
      </trkpt>
      <trkpt lat="43.59594" lon="3.34662">
        <ele>416.5</ele>
        <time>2015-11-14T13:54:31Z</time>
      </trkpt>
      <trkpt lat="43.59593" lon="3.3466">
        <ele>417</ele>
        <time>2015-11-14T13:54:32Z</time>
      </trkpt>
      <trkpt lat="43.59592" lon="3.34659">
        <ele>417</ele>
        <time>2015-11-14T13:54:33Z</time>
      </trkpt>
      <trkpt lat="43.59591" lon="3.34657">
        <ele>417.5</ele>
        <time>2015-11-14T13:54:34Z</time>
      </trkpt>
      <trkpt lat="43.59591" lon="3.34655">
        <ele>418</ele>
        <time>2015-11-14T13:54:35Z</time>
      </trkpt>
      <trkpt lat="43.5959" lon="3.34653">
        <ele>418</ele>
        <time>2015-11-14T13:54:36Z</time>
      </trkpt>
      <trkpt lat="43.59589" lon="3.34651">
        <ele>418.5</ele>
        <time>2015-11-14T13:54:37Z</time>
      </trkpt>
      <trkpt lat="43.59589" lon="3.34649">
        <ele>418.5</ele>
        <time>2015-11-14T13:54:38Z</time>
      </trkpt>
      <trkpt lat="43.59588" lon="3.34647">
        <ele>419</ele>
        <time>2015-11-14T13:54:39Z</time>
      </trkpt>
      <trkpt lat="43.59587" lon="3.34645">
        <ele>419</ele>
        <time>2015-11-14T13:54:40Z</time>
      </trkpt>
      <trkpt lat="43.59587" lon="3.34643">
        <ele>419.5</ele>
        <time>2015-11-14T13:54:41Z</time>
      </trkpt>
      <trkpt lat="43.59586" lon="3.34642">
        <ele>419.5</ele>
        <time>2015-11-14T13:54:42Z</time>
      </trkpt>
      <trkpt lat="43.59586" lon="3.3464">
        <ele>420</ele>
        <time>2015-11-14T13:54:43Z</time>
      </trkpt>
      <trkpt lat="43.59585" lon="3.34638">
        <ele>420</ele>
        <time>2015-11-14T13:54:44Z</time>
      </trkpt>
      <trkpt lat="43.59585" lon="3.34637">
        <ele>420</ele>
        <time>2015-11-14T13:54:45Z</time>
      </trkpt>
      <trkpt lat="43.59584" lon="3.34635">
        <ele>420.5</ele>
        <time>2015-11-14T13:54:46Z</time>
      </trkpt>
      <trkpt lat="43.59584" lon="3.34633">
        <ele>420.5</ele>
        <time>2015-11-14T13:54:47Z</time>
      </trkpt>
      <trkpt lat="43.59583" lon="3.34631">
        <ele>421</ele>
        <time>2015-11-14T13:54:48Z</time>
      </trkpt>
      <trkpt lat="43.59582" lon="3.3463">
        <ele>421</ele>
        <time>2015-11-14T13:54:49Z</time>
      </trkpt>
      <trkpt lat="43.59582" lon="3.34628">
        <ele>421.5</ele>
        <time>2015-11-14T13:54:50Z</time>
      </trkpt>
      <trkpt lat="43.59581" lon="3.34626">
        <ele>421.5</ele>
        <time>2015-11-14T13:54:51Z</time>
      </trkpt>
      <trkpt lat="43.5958" lon="3.34624">
        <ele>421.5</ele>
        <time>2015-11-14T13:54:51Z</time>
      </trkpt>
      <trkpt lat="43.5958" lon="3.34622">
        <ele>422</ele>
        <time>2015-11-14T13:54:52Z</time>
      </trkpt>
      <trkpt lat="43.59579" lon="3.34621">
        <ele>422</ele>
        <time>2015-11-14T13:54:53Z</time>
      </trkpt>
      <trkpt lat="43.59578" lon="3.34619">
        <ele>422.5</ele>
        <time>2015-11-14T13:54:54Z</time>
      </trkpt>
      <trkpt lat="43.59577" lon="3.34617">
        <ele>422.5</ele>
        <time>2015-11-14T13:54:55Z</time>
      </trkpt>
      <trkpt lat="43.59576" lon="3.34615">
        <ele>422.5</ele>
        <time>2015-11-14T13:54:56Z</time>
      </trkpt>
      <trkpt lat="43.59575" lon="3.34613">
        <ele>423</ele>
        <time>2015-11-14T13:54:57Z</time>
      </trkpt>
      <trkpt lat="43.59575" lon="3.34612">
        <ele>423</ele>
        <time>2015-11-14T13:54:58Z</time>
      </trkpt>
      <trkpt lat="43.59574" lon="3.3461">
        <ele>423.5</ele>
        <time>2015-11-14T13:54:59Z</time>
      </trkpt>
      <trkpt lat="43.59574" lon="3.34608">
        <ele>423.5</ele>
        <time>2015-11-14T13:55:00Z</time>
      </trkpt>
      <trkpt lat="43.59573" lon="3.34606">
        <ele>423.5</ele>
        <time>2015-11-14T13:55:01Z</time>
      </trkpt>
      <trkpt lat="43.59573" lon="3.34604">
        <ele>424</ele>
        <time>2015-11-14T13:55:02Z</time>
      </trkpt>
      <trkpt lat="43.59572" lon="3.34602">
        <ele>424</ele>
        <time>2015-11-14T13:55:03Z</time>
      </trkpt>
      <trkpt lat="43.59572" lon="3.346">
        <ele>424</ele>
        <time>2015-11-14T13:55:04Z</time>
      </trkpt>
      <trkpt lat="43.59571" lon="3.34598">
        <ele>424</ele>
        <time>2015-11-14T13:55:05Z</time>
      </trkpt>
      <trkpt lat="43.59571" lon="3.34596">
        <ele>424</ele>
        <time>2015-11-14T13:55:07Z</time>
      </trkpt>
      <trkpt lat="43.5957" lon="3.34593">
        <ele>424</ele>
        <time>2015-11-14T13:55:07Z</time>
      </trkpt>
      <trkpt lat="43.5957" lon="3.3459">
        <ele>424</ele>
        <time>2015-11-14T13:55:08Z</time>
      </trkpt>
      <trkpt lat="43.59569" lon="3.34588">
        <ele>424</ele>
        <time>2015-11-14T13:55:09Z</time>
      </trkpt>
      <trkpt lat="43.59568" lon="3.34584">
        <ele>423.5</ele>
        <time>2015-11-14T13:55:11Z</time>
      </trkpt>
      <trkpt lat="43.59567" lon="3.3458">
        <ele>423.5</ele>
        <time>2015-11-14T13:55:12Z</time>
      </trkpt>
      <trkpt lat="43.59567" lon="3.34576">
        <ele>423.5</ele>
        <time>2015-11-14T13:55:12Z</time>
      </trkpt>
      <trkpt lat="43.59566" lon="3.34572">
        <ele>423</ele>
        <time>2015-11-14T13:55:14Z</time>
      </trkpt>
      <trkpt lat="43.59566" lon="3.34567">
        <ele>423</ele>
        <time>2015-11-14T13:55:14Z</time>
      </trkpt>
      <trkpt lat="43.59565" lon="3.34562">
        <ele>423</ele>
        <time>2015-11-14T13:55:15Z</time>
      </trkpt>
      <trkpt lat="43.59563" lon="3.34558">
        <ele>422.5</ele>
        <time>2015-11-14T13:55:16Z</time>
      </trkpt>
      <trkpt lat="43.59561" lon="3.34553">
        <ele>422.5</ele>
        <time>2015-11-14T13:55:17Z</time>
      </trkpt>
      <trkpt lat="43.59558" lon="3.34548">
        <ele>422</ele>
        <time>2015-11-14T13:55:19Z</time>
      </trkpt>
      <trkpt lat="43.59556" lon="3.34544">
        <ele>422</ele>
        <time>2015-11-14T13:55:19Z</time>
      </trkpt>
      <trkpt lat="43.59554" lon="3.3454">
        <ele>422</ele>
        <time>2015-11-14T13:55:20Z</time>
      </trkpt>
      <trkpt lat="43.59551" lon="3.34535">
        <ele>421.5</ele>
        <time>2015-11-14T13:55:21Z</time>
      </trkpt>
      <trkpt lat="43.59549" lon="3.3453">
        <ele>421</ele>
        <time>2015-11-14T13:55:22Z</time>
      </trkpt>
      <trkpt lat="43.59547" lon="3.34525">
        <ele>420.5</ele>
        <time>2015-11-14T13:55:23Z</time>
      </trkpt>
      <trkpt lat="43.59544" lon="3.34521">
        <ele>420.5</ele>
        <time>2015-11-14T13:55:25Z</time>
      </trkpt>
      <trkpt lat="43.59541" lon="3.34517">
        <ele>420</ele>
        <time>2015-11-14T13:55:25Z</time>
      </trkpt>
      <trkpt lat="43.59539" lon="3.34512">
        <ele>420</ele>
        <time>2015-11-14T13:55:26Z</time>
      </trkpt>
      <trkpt lat="43.59536" lon="3.34507">
        <ele>419.5</ele>
        <time>2015-11-14T13:55:28Z</time>
      </trkpt>
      <trkpt lat="43.59534" lon="3.34503">
        <ele>419.5</ele>
        <time>2015-11-14T13:55:28Z</time>
      </trkpt>
      <trkpt lat="43.59531" lon="3.34499">
        <ele>419.5</ele>
        <time>2015-11-14T13:55:30Z</time>
      </trkpt>
      <trkpt lat="43.59529" lon="3.34496">
        <ele>419</ele>
        <time>2015-11-14T13:55:30Z</time>
      </trkpt>
      <trkpt lat="43.59526" lon="3.34493">
        <ele>419</ele>
        <time>2015-11-14T13:55:31Z</time>
      </trkpt>
      <trkpt lat="43.59523" lon="3.34489">
        <ele>418.5</ele>
        <time>2015-11-14T13:55:32Z</time>
      </trkpt>
      <trkpt lat="43.59521" lon="3.34485">
        <ele>418.5</ele>
        <time>2015-11-14T13:55:34Z</time>
      </trkpt>
      <trkpt lat="43.59518" lon="3.34482">
        <ele>418</ele>
        <time>2015-11-14T13:55:34Z</time>
      </trkpt>
      <trkpt lat="43.59516" lon="3.34479">
        <ele>418</ele>
        <time>2015-11-14T13:55:35Z</time>
      </trkpt>
      <trkpt lat="43.59514" lon="3.34476">
        <ele>418</ele>
        <time>2015-11-14T13:55:36Z</time>
      </trkpt>
      <trkpt lat="43.59512" lon="3.34473">
        <ele>418</ele>
        <time>2015-11-14T13:55:37Z</time>
      </trkpt>
      <trkpt lat="43.5951" lon="3.3447">
        <ele>418</ele>
        <time>2015-11-14T13:55:39Z</time>
      </trkpt>
      <trkpt lat="43.59509" lon="3.34467">
        <ele>418</ele>
        <time>2015-11-14T13:55:39Z</time>
      </trkpt>
      <trkpt lat="43.59507" lon="3.34465">
        <ele>418.5</ele>
        <time>2015-11-14T13:55:40Z</time>
      </trkpt>
      <trkpt lat="43.59506" lon="3.34463">
        <ele>418.5</ele>
        <time>2015-11-14T13:55:41Z</time>
      </trkpt>
      <trkpt lat="43.59505" lon="3.3446">
        <ele>418.5</ele>
        <time>2015-11-14T13:55:42Z</time>
      </trkpt>
      <trkpt lat="43.59503" lon="3.34459">
        <ele>418.5</ele>
        <time>2015-11-14T13:55:43Z</time>
      </trkpt>
      <trkpt lat="43.59502" lon="3.34456">
        <ele>419</ele>
        <time>2015-11-14T13:55:44Z</time>
      </trkpt>
      <trkpt lat="43.595" lon="3.34454">
        <ele>419</ele>
        <time>2015-11-14T13:55:45Z</time>
      </trkpt>
      <trkpt lat="43.59498" lon="3.34452">
        <ele>419</ele>
        <time>2015-11-14T13:55:46Z</time>
      </trkpt>
      <trkpt lat="43.59497" lon="3.3445">
        <ele>419</ele>
        <time>2015-11-14T13:55:47Z</time>
      </trkpt>
      <trkpt lat="43.59495" lon="3.34449">
        <ele>419</ele>
        <time>2015-11-14T13:55:48Z</time>
      </trkpt>
      <trkpt lat="43.59494" lon="3.34446">
        <ele>419</ele>
        <time>2015-11-14T13:55:49Z</time>
      </trkpt>
      <trkpt lat="43.59493" lon="3.34444">
        <ele>419</ele>
        <time>2015-11-14T13:55:50Z</time>
      </trkpt>
      <trkpt lat="43.59493" lon="3.34442">
        <ele>419</ele>
        <time>2015-11-14T13:55:51Z</time>
      </trkpt>
      <trkpt lat="43.59492" lon="3.3444">
        <ele>419.5</ele>
        <time>2015-11-14T13:55:52Z</time>
      </trkpt>
      <trkpt lat="43.59491" lon="3.34438">
        <ele>419.5</ele>
        <time>2015-11-14T13:55:53Z</time>
      </trkpt>
      <trkpt lat="43.59489" lon="3.34436">
        <ele>419.5</ele>
        <time>2015-11-14T13:55:54Z</time>
      </trkpt>
      <trkpt lat="43.59488" lon="3.34434">
        <ele>419</ele>
        <time>2015-11-14T13:55:55Z</time>
      </trkpt>
      <trkpt lat="43.59486" lon="3.34432">
        <ele>419</ele>
        <time>2015-11-14T13:55:56Z</time>
      </trkpt>
      <trkpt lat="43.59485" lon="3.34431">
        <ele>419.5</ele>
        <time>2015-11-14T13:55:57Z</time>
      </trkpt>
      <trkpt lat="43.59483" lon="3.34429">
        <ele>419.5</ele>
        <time>2015-11-14T13:55:58Z</time>
      </trkpt>
      <trkpt lat="43.59482" lon="3.34428">
        <ele>419.5</ele>
        <time>2015-11-14T13:55:59Z</time>
      </trkpt>
      <trkpt lat="43.59481" lon="3.34426">
        <ele>420</ele>
        <time>2015-11-14T13:56:00Z</time>
      </trkpt>
      <trkpt lat="43.59479" lon="3.34424">
        <ele>420.5</ele>
        <time>2015-11-14T13:56:01Z</time>
      </trkpt>
      <trkpt lat="43.59478" lon="3.34423">
        <ele>421</ele>
        <time>2015-11-14T13:56:02Z</time>
      </trkpt>
      <trkpt lat="43.59476" lon="3.34421">
        <ele>421</ele>
        <time>2015-11-14T13:56:03Z</time>
      </trkpt>
      <trkpt lat="43.59475" lon="3.34419">
        <ele>421.5</ele>
        <time>2015-11-14T13:56:04Z</time>
      </trkpt>
      <trkpt lat="43.59473" lon="3.34417">
        <ele>421.5</ele>
        <time>2015-11-14T13:56:05Z</time>
      </trkpt>
      <trkpt lat="43.59472" lon="3.34415">
        <ele>422</ele>
        <time>2015-11-14T13:56:06Z</time>
      </trkpt>
      <trkpt lat="43.59471" lon="3.34413">
        <ele>422</ele>
        <time>2015-11-14T13:56:07Z</time>
      </trkpt>
      <trkpt lat="43.59469" lon="3.34411">
        <ele>422.5</ele>
        <time>2015-11-14T13:56:08Z</time>
      </trkpt>
      <trkpt lat="43.59469" lon="3.34409">
        <ele>422.5</ele>
        <time>2015-11-14T13:56:09Z</time>
      </trkpt>
      <trkpt lat="43.59468" lon="3.34406">
        <ele>423</ele>
        <time>2015-11-14T13:56:10Z</time>
      </trkpt>
      <trkpt lat="43.59467" lon="3.34404">
        <ele>423</ele>
        <time>2015-11-14T13:56:11Z</time>
      </trkpt>
      <trkpt lat="43.59466" lon="3.34401">
        <ele>423.5</ele>
        <time>2015-11-14T13:56:12Z</time>
      </trkpt>
      <trkpt lat="43.59465" lon="3.34399">
        <ele>424</ele>
        <time>2015-11-14T13:56:13Z</time>
      </trkpt>
      <trkpt lat="43.59464" lon="3.34397">
        <ele>424.5</ele>
        <time>2015-11-14T13:56:14Z</time>
      </trkpt>
      <trkpt lat="43.59463" lon="3.34395">
        <ele>425</ele>
        <time>2015-11-14T13:56:15Z</time>
      </trkpt>
      <trkpt lat="43.59462" lon="3.34393">
        <ele>425</ele>
        <time>2015-11-14T13:56:16Z</time>
      </trkpt>
      <trkpt lat="43.59461" lon="3.34391">
        <ele>425.5</ele>
        <time>2015-11-14T13:56:17Z</time>
      </trkpt>
      <trkpt lat="43.5946" lon="3.34389">
        <ele>425.5</ele>
        <time>2015-11-14T13:56:18Z</time>
      </trkpt>
      <trkpt lat="43.59459" lon="3.34387">
        <ele>426</ele>
        <time>2015-11-14T13:56:19Z</time>
      </trkpt>
      <trkpt lat="43.59458" lon="3.34385">
        <ele>426</ele>
        <time>2015-11-14T13:56:20Z</time>
      </trkpt>
      <trkpt lat="43.59456" lon="3.34383">
        <ele>427</ele>
        <time>2015-11-14T13:56:21Z</time>
      </trkpt>
      <trkpt lat="43.59455" lon="3.34381">
        <ele>427</ele>
        <time>2015-11-14T13:56:22Z</time>
      </trkpt>
      <trkpt lat="43.59455" lon="3.34378">
        <ele>427</ele>
        <time>2015-11-14T13:56:23Z</time>
      </trkpt>
      <trkpt lat="43.59454" lon="3.34375">
        <ele>427.5</ele>
        <time>2015-11-14T13:56:24Z</time>
      </trkpt>
      <trkpt lat="43.59453" lon="3.34373">
        <ele>427.5</ele>
        <time>2015-11-14T13:56:25Z</time>
      </trkpt>
      <trkpt lat="43.59452" lon="3.34371">
        <ele>428</ele>
        <time>2015-11-14T13:56:26Z</time>
      </trkpt>
      <trkpt lat="43.59451" lon="3.34368">
        <ele>428.5</ele>
        <time>2015-11-14T13:56:27Z</time>
      </trkpt>
      <trkpt lat="43.5945" lon="3.34366">
        <ele>428.5</ele>
        <time>2015-11-14T13:56:28Z</time>
      </trkpt>
      <trkpt lat="43.59449" lon="3.34363">
        <ele>428.5</ele>
        <time>2015-11-14T13:56:29Z</time>
      </trkpt>
      <trkpt lat="43.59448" lon="3.34361">
        <ele>429</ele>
        <time>2015-11-14T13:56:30Z</time>
      </trkpt>
      <trkpt lat="43.59447" lon="3.34359">
        <ele>429.5</ele>
        <time>2015-11-14T13:56:31Z</time>
      </trkpt>
      <trkpt lat="43.59446" lon="3.34357">
        <ele>429.5</ele>
        <time>2015-11-14T13:56:32Z</time>
      </trkpt>
      <trkpt lat="43.59445" lon="3.34355">
        <ele>430</ele>
        <time>2015-11-14T13:56:33Z</time>
      </trkpt>
      <trkpt lat="43.59444" lon="3.34352">
        <ele>430</ele>
        <time>2015-11-14T13:56:34Z</time>
      </trkpt>
      <trkpt lat="43.59443" lon="3.3435">
        <ele>431</ele>
        <time>2015-11-14T13:56:35Z</time>
      </trkpt>
      <trkpt lat="43.59442" lon="3.34348">
        <ele>431</ele>
        <time>2015-11-14T13:56:36Z</time>
      </trkpt>
      <trkpt lat="43.59441" lon="3.34346">
        <ele>431.5</ele>
        <time>2015-11-14T13:56:37Z</time>
      </trkpt>
      <trkpt lat="43.59439" lon="3.34344">
        <ele>431.5</ele>
        <time>2015-11-14T13:56:38Z</time>
      </trkpt>
      <trkpt lat="43.59438" lon="3.34343">
        <ele>432</ele>
        <time>2015-11-14T13:56:39Z</time>
      </trkpt>
      <trkpt lat="43.59437" lon="3.34341">
        <ele>432.5</ele>
        <time>2015-11-14T13:56:40Z</time>
      </trkpt>
      <trkpt lat="43.59435" lon="3.34341">
        <ele>432.5</ele>
        <time>2015-11-14T13:56:41Z</time>
      </trkpt>
      <trkpt lat="43.59434" lon="3.34341">
        <ele>433.5</ele>
        <time>2015-11-14T13:56:42Z</time>
      </trkpt>
      <trkpt lat="43.59432" lon="3.3434">
        <ele>433.5</ele>
        <time>2015-11-14T13:56:43Z</time>
      </trkpt>
      <trkpt lat="43.59431" lon="3.34338">
        <ele>434</ele>
        <time>2015-11-14T13:56:44Z</time>
      </trkpt>
      <trkpt lat="43.5943" lon="3.34336">
        <ele>434</ele>
        <time>2015-11-14T13:56:45Z</time>
      </trkpt>
      <trkpt lat="43.59429" lon="3.34334">
        <ele>434.5</ele>
        <time>2015-11-14T13:56:46Z</time>
      </trkpt>
      <trkpt lat="43.59428" lon="3.34332">
        <ele>434.5</ele>
        <time>2015-11-14T13:56:47Z</time>
      </trkpt>
      <trkpt lat="43.59428" lon="3.3433">
        <ele>435</ele>
        <time>2015-11-14T13:56:48Z</time>
      </trkpt>
      <trkpt lat="43.59427" lon="3.34328">
        <ele>435</ele>
        <time>2015-11-14T13:56:49Z</time>
      </trkpt>
      <trkpt lat="43.59426" lon="3.34326">
        <ele>435.5</ele>
        <time>2015-11-14T13:56:50Z</time>
      </trkpt>
      <trkpt lat="43.59425" lon="3.34324">
        <ele>435.5</ele>
        <time>2015-11-14T13:56:51Z</time>
      </trkpt>
      <trkpt lat="43.59425" lon="3.34322">
        <ele>435.5</ele>
        <time>2015-11-14T13:56:52Z</time>
      </trkpt>
      <trkpt lat="43.59424" lon="3.3432">
        <ele>436</ele>
        <time>2015-11-14T13:56:53Z</time>
      </trkpt>
      <trkpt lat="43.59423" lon="3.34319">
        <ele>436</ele>
        <time>2015-11-14T13:56:54Z</time>
      </trkpt>
      <trkpt lat="43.59422" lon="3.34316">
        <ele>436</ele>
        <time>2015-11-14T13:56:55Z</time>
      </trkpt>
      <trkpt lat="43.59422" lon="3.34314">
        <ele>436.5</ele>
        <time>2015-11-14T13:56:56Z</time>
      </trkpt>
      <trkpt lat="43.59421" lon="3.34312">
        <ele>436.5</ele>
        <time>2015-11-14T13:56:57Z</time>
      </trkpt>
      <trkpt lat="43.59421" lon="3.34311">
        <ele>436.5</ele>
        <time>2015-11-14T13:56:58Z</time>
      </trkpt>
      <trkpt lat="43.5942" lon="3.34306">
        <ele>436.5</ele>
        <time>2015-11-14T13:57:00Z</time>
      </trkpt>
      <trkpt lat="43.59419" lon="3.34304">
        <ele>436.5</ele>
        <time>2015-11-14T13:57:01Z</time>
      </trkpt>
      <trkpt lat="43.59419" lon="3.34302">
        <ele>436.5</ele>
        <time>2015-11-14T13:57:02Z</time>
      </trkpt>
      <trkpt lat="43.59418" lon="3.343">
        <ele>436.5</ele>
        <time>2015-11-14T13:57:03Z</time>
      </trkpt>
      <trkpt lat="43.59418" lon="3.34299">
        <ele>436.5</ele>
        <time>2015-11-14T13:57:04Z</time>
      </trkpt>
      <trkpt lat="43.59418" lon="3.34297">
        <ele>436.5</ele>
        <time>2015-11-14T13:57:05Z</time>
      </trkpt>
      <trkpt lat="43.59417" lon="3.34295">
        <ele>436.5</ele>
        <time>2015-11-14T13:57:06Z</time>
      </trkpt>
      <trkpt lat="43.59417" lon="3.34293">
        <ele>436.5</ele>
        <time>2015-11-14T13:57:07Z</time>
      </trkpt>
      <trkpt lat="43.59416" lon="3.34291">
        <ele>436.5</ele>
        <time>2015-11-14T13:57:08Z</time>
      </trkpt>
      <trkpt lat="43.59416" lon="3.34288">
        <ele>436</ele>
        <time>2015-11-14T13:57:09Z</time>
      </trkpt>
      <trkpt lat="43.59416" lon="3.34286">
        <ele>436</ele>
        <time>2015-11-14T13:57:10Z</time>
      </trkpt>
      <trkpt lat="43.59415" lon="3.34283">
        <ele>435.5</ele>
        <time>2015-11-14T13:57:11Z</time>
      </trkpt>
      <trkpt lat="43.59414" lon="3.3428">
        <ele>435</ele>
        <time>2015-11-14T13:57:12Z</time>
      </trkpt>
      <trkpt lat="43.59415" lon="3.34276">
        <ele>434.5</ele>
        <time>2015-11-14T13:57:13Z</time>
      </trkpt>
      <trkpt lat="43.59415" lon="3.34273">
        <ele>434.5</ele>
        <time>2015-11-14T13:57:14Z</time>
      </trkpt>
      <trkpt lat="43.59415" lon="3.34271">
        <ele>434</ele>
        <time>2015-11-14T13:57:15Z</time>
      </trkpt>
      <trkpt lat="43.59415" lon="3.34269">
        <ele>433.5</ele>
        <time>2015-11-14T13:57:21Z</time>
      </trkpt>
      <trkpt lat="43.59415" lon="3.34268">
        <ele>433.5</ele>
        <time>2015-11-14T13:56:49Z</time>
      </trkpt>
      <trkpt lat="43.59415" lon="3.34264">
        <ele>433</ele>
        <time>2015-11-14T13:56:51Z</time>
      </trkpt>
      <trkpt lat="43.59414" lon="3.34261">
        <ele>432.5</ele>
        <time>2015-11-14T13:56:53Z</time>
      </trkpt>
      <trkpt lat="43.59414" lon="3.34256">
        <ele>431.5</ele>
        <time>2015-11-14T13:56:53Z</time>
      </trkpt>
      <trkpt lat="43.59413" lon="3.3425">
        <ele>431</ele>
        <time>2015-11-14T13:56:54Z</time>
      </trkpt>
      <trkpt lat="43.59412" lon="3.34243">
        <ele>430</ele>
        <time>2015-11-14T13:56:55Z</time>
      </trkpt>
      <trkpt lat="43.59412" lon="3.34235">
        <ele>429</ele>
        <time>2015-11-14T13:56:56Z</time>
      </trkpt>
      <trkpt lat="43.59412" lon="3.34227">
        <ele>428</ele>
        <time>2015-11-14T13:56:57Z</time>
      </trkpt>
      <trkpt lat="43.59412" lon="3.34221">
        <ele>427</ele>
        <time>2015-11-14T13:56:58Z</time>
      </trkpt>
      <trkpt lat="43.59412" lon="3.34216">
        <ele>426.5</ele>
        <time>2015-11-14T13:56:59Z</time>
      </trkpt>
      <trkpt lat="43.59412" lon="3.34213">
        <ele>426</ele>
        <time>2015-11-14T13:57:00Z</time>
      </trkpt>
      <trkpt lat="43.59412" lon="3.3421">
        <ele>425.5</ele>
        <time>2015-11-14T13:57:01Z</time>
      </trkpt>
      <trkpt lat="43.59412" lon="3.34208">
        <ele>425.5</ele>
        <time>2015-11-14T13:57:02Z</time>
      </trkpt>
      <trkpt lat="43.59412" lon="3.34206">
        <ele>425</ele>
        <time>2015-11-14T13:57:03Z</time>
      </trkpt>
      <trkpt lat="43.59412" lon="3.34204">
        <ele>425</ele>
        <time>2015-11-14T13:57:04Z</time>
      </trkpt>
      <trkpt lat="43.59412" lon="3.34203">
        <ele>424.5</ele>
        <time>2015-11-14T13:57:05Z</time>
      </trkpt>
      <trkpt lat="43.59412" lon="3.34201">
        <ele>424</ele>
        <time>2015-11-14T13:57:06Z</time>
      </trkpt>
      <trkpt lat="43.59413" lon="3.34198">
        <ele>423.5</ele>
        <time>2015-11-14T13:57:07Z</time>
      </trkpt>
      <trkpt lat="43.59414" lon="3.34196">
        <ele>422.5</ele>
        <time>2015-11-14T13:57:08Z</time>
      </trkpt>
      <trkpt lat="43.59415" lon="3.34193">
        <ele>421.5</ele>
        <time>2015-11-14T13:57:09Z</time>
      </trkpt>
      <trkpt lat="43.59415" lon="3.34191">
        <ele>421</ele>
        <time>2015-11-14T13:57:10Z</time>
      </trkpt>
      <trkpt lat="43.59416" lon="3.34188">
        <ele>420</ele>
        <time>2015-11-14T13:57:11Z</time>
      </trkpt>
      <trkpt lat="43.59418" lon="3.34185">
        <ele>419</ele>
        <time>2015-11-14T13:57:12Z</time>
      </trkpt>
      <trkpt lat="43.59419" lon="3.34183">
        <ele>418</ele>
        <time>2015-11-14T13:57:13Z</time>
      </trkpt>
      <trkpt lat="43.5942" lon="3.34181">
        <ele>417</ele>
        <time>2015-11-14T13:57:14Z</time>
      </trkpt>
      <trkpt lat="43.59422" lon="3.34178">
        <ele>416</ele>
        <time>2015-11-14T13:57:15Z</time>
      </trkpt>
      <trkpt lat="43.59425" lon="3.34176">
        <ele>415.5</ele>
        <time>2015-11-14T13:57:16Z</time>
      </trkpt>
      <trkpt lat="43.59427" lon="3.34174">
        <ele>414.5</ele>
        <time>2015-11-14T13:57:17Z</time>
      </trkpt>
      <trkpt lat="43.59428" lon="3.34171">
        <ele>414</ele>
        <time>2015-11-14T13:57:18Z</time>
      </trkpt>
      <trkpt lat="43.59429" lon="3.34169">
        <ele>413</ele>
        <time>2015-11-14T13:57:19Z</time>
      </trkpt>
      <trkpt lat="43.5943" lon="3.34167">
        <ele>412.5</ele>
        <time>2015-11-14T13:57:20Z</time>
      </trkpt>
      <trkpt lat="43.59431" lon="3.34165">
        <ele>412</ele>
        <time>2015-11-14T13:57:21Z</time>
      </trkpt>
      <trkpt lat="43.59432" lon="3.34163">
        <ele>412</ele>
        <time>2015-11-14T13:57:22Z</time>
      </trkpt>
      <trkpt lat="43.59433" lon="3.34162">
        <ele>411</ele>
        <time>2015-11-14T13:57:23Z</time>
      </trkpt>
      <trkpt lat="43.59433" lon="3.3416">
        <ele>410.5</ele>
        <time>2015-11-14T13:57:24Z</time>
      </trkpt>
      <trkpt lat="43.59434" lon="3.34158">
        <ele>410</ele>
        <time>2015-11-14T13:57:25Z</time>
      </trkpt>
      <trkpt lat="43.59434" lon="3.34157">
        <ele>409.5</ele>
        <time>2015-11-14T13:57:26Z</time>
      </trkpt>
      <trkpt lat="43.59435" lon="3.34156">
        <ele>409</ele>
        <time>2015-11-14T13:57:29Z</time>
      </trkpt>
      <trkpt lat="43.59435" lon="3.34154">
        <ele>409</ele>
        <time>2015-11-14T13:57:38Z</time>
      </trkpt>
      <trkpt lat="43.59437" lon="3.3415">
        <ele>407</ele>
        <time>2015-11-14T13:57:40Z</time>
      </trkpt>
      <trkpt lat="43.59437" lon="3.34147">
        <ele>406.5</ele>
        <time>2015-11-14T13:57:41Z</time>
      </trkpt>
      <trkpt lat="43.59438" lon="3.34144">
        <ele>405.5</ele>
        <time>2015-11-14T13:57:42Z</time>
      </trkpt>
      <trkpt lat="43.59439" lon="3.3414">
        <ele>404.5</ele>
        <time>2015-11-14T13:57:43Z</time>
      </trkpt>
      <trkpt lat="43.59439" lon="3.34136">
        <ele>403.5</ele>
        <time>2015-11-14T13:57:44Z</time>
      </trkpt>
      <trkpt lat="43.5944" lon="3.34131">
        <ele>402.5</ele>
        <time>2015-11-14T13:57:45Z</time>
      </trkpt>
      <trkpt lat="43.59441" lon="3.34127">
        <ele>402</ele>
        <time>2015-11-14T13:57:46Z</time>
      </trkpt>
      <trkpt lat="43.59444" lon="3.34124">
        <ele>401</ele>
        <time>2015-11-14T13:57:47Z</time>
      </trkpt>
      <trkpt lat="43.59446" lon="3.34122">
        <ele>400</ele>
        <time>2015-11-14T13:57:48Z</time>
      </trkpt>
      <trkpt lat="43.59448" lon="3.3412">
        <ele>399.5</ele>
        <time>2015-11-14T13:57:49Z</time>
      </trkpt>
      <trkpt lat="43.59449" lon="3.34117">
        <ele>398.5</ele>
        <time>2015-11-14T13:57:50Z</time>
      </trkpt>
      <trkpt lat="43.5945" lon="3.34113">
        <ele>397.5</ele>
        <time>2015-11-14T13:57:51Z</time>
      </trkpt>
      <trkpt lat="43.59451" lon="3.3411">
        <ele>397</ele>
        <time>2015-11-14T13:57:52Z</time>
      </trkpt>
      <trkpt lat="43.59453" lon="3.34107">
        <ele>396</ele>
        <time>2015-11-14T13:57:53Z</time>
      </trkpt>
      <trkpt lat="43.59454" lon="3.34104">
        <ele>395.5</ele>
        <time>2015-11-14T13:57:54Z</time>
      </trkpt>
      <trkpt lat="43.59456" lon="3.34102">
        <ele>394.5</ele>
        <time>2015-11-14T13:57:55Z</time>
      </trkpt>
      <trkpt lat="43.59458" lon="3.341">
        <ele>394</ele>
        <time>2015-11-14T13:57:56Z</time>
      </trkpt>
      <trkpt lat="43.59459" lon="3.34098">
        <ele>393.5</ele>
        <time>2015-11-14T13:57:57Z</time>
      </trkpt>
      <trkpt lat="43.5946" lon="3.34096">
        <ele>393</ele>
        <time>2015-11-14T13:57:58Z</time>
      </trkpt>
      <trkpt lat="43.59462" lon="3.34095">
        <ele>392</ele>
        <time>2015-11-14T13:57:59Z</time>
      </trkpt>
      <trkpt lat="43.59464" lon="3.34093">
        <ele>391</ele>
        <time>2015-11-14T13:58:00Z</time>
      </trkpt>
      <trkpt lat="43.59466" lon="3.34091">
        <ele>390</ele>
        <time>2015-11-14T13:58:01Z</time>
      </trkpt>
      <trkpt lat="43.59468" lon="3.3409">
        <ele>389</ele>
        <time>2015-11-14T13:58:02Z</time>
      </trkpt>
      <trkpt lat="43.59469" lon="3.34088">
        <ele>388.5</ele>
        <time>2015-11-14T13:58:03Z</time>
      </trkpt>
      <trkpt lat="43.5947" lon="3.34086">
        <ele>387.5</ele>
        <time>2015-11-14T13:58:04Z</time>
      </trkpt>
      <trkpt lat="43.59471" lon="3.34084">
        <ele>387</ele>
        <time>2015-11-14T13:58:05Z</time>
      </trkpt>
      <trkpt lat="43.59471" lon="3.34081">
        <ele>386.5</ele>
        <time>2015-11-14T13:58:06Z</time>
      </trkpt>
      <trkpt lat="43.59472" lon="3.34078">
        <ele>385.5</ele>
        <time>2015-11-14T13:58:07Z</time>
      </trkpt>
      <trkpt lat="43.59472" lon="3.34075">
        <ele>385</ele>
        <time>2015-11-14T13:58:08Z</time>
      </trkpt>
      <trkpt lat="43.59473" lon="3.34072">
        <ele>384</ele>
        <time>2015-11-14T13:58:09Z</time>
      </trkpt>
      <trkpt lat="43.59473" lon="3.34068">
        <ele>383</ele>
        <time>2015-11-14T13:58:10Z</time>
      </trkpt>
      <trkpt lat="43.59474" lon="3.34065">
        <ele>382</ele>
        <time>2015-11-14T13:58:11Z</time>
      </trkpt>
      <trkpt lat="43.59475" lon="3.34061">
        <ele>381</ele>
        <time>2015-11-14T13:58:12Z</time>
      </trkpt>
      <trkpt lat="43.59476" lon="3.34058">
        <ele>379.5</ele>
        <time>2015-11-14T13:58:13Z</time>
      </trkpt>
      <trkpt lat="43.59475" lon="3.34054">
        <ele>378.5</ele>
        <time>2015-11-14T13:58:14Z</time>
      </trkpt>
      <trkpt lat="43.59474" lon="3.34051">
        <ele>378.5</ele>
        <time>2015-11-14T13:58:15Z</time>
      </trkpt>
      <trkpt lat="43.59473" lon="3.34047">
        <ele>378</ele>
        <time>2015-11-14T13:58:16Z</time>
      </trkpt>
      <trkpt lat="43.59472" lon="3.34043">
        <ele>377.5</ele>
        <time>2015-11-14T13:58:17Z</time>
      </trkpt>
      <trkpt lat="43.59471" lon="3.3404">
        <ele>377</ele>
        <time>2015-11-14T13:58:18Z</time>
      </trkpt>
      <trkpt lat="43.5947" lon="3.34037">
        <ele>376.5</ele>
        <time>2015-11-14T13:58:19Z</time>
      </trkpt>
      <trkpt lat="43.59472" lon="3.34034">
        <ele>377</ele>
        <time>2015-11-14T13:58:20Z</time>
      </trkpt>
      <trkpt lat="43.59474" lon="3.34031">
        <ele>376</ele>
        <time>2015-11-14T13:58:21Z</time>
      </trkpt>
      <trkpt lat="43.59475" lon="3.34027">
        <ele>375.5</ele>
        <time>2015-11-14T13:58:22Z</time>
      </trkpt>
      <trkpt lat="43.59476" lon="3.34022">
        <ele>374.5</ele>
        <time>2015-11-14T13:58:23Z</time>
      </trkpt>
      <trkpt lat="43.59477" lon="3.34017">
        <ele>373.5</ele>
        <time>2015-11-14T13:58:24Z</time>
      </trkpt>
      <trkpt lat="43.59479" lon="3.34013">
        <ele>372.5</ele>
        <time>2015-11-14T13:58:25Z</time>
      </trkpt>
      <trkpt lat="43.59479" lon="3.34008">
        <ele>371</ele>
        <time>2015-11-14T13:58:26Z</time>
      </trkpt>
      <trkpt lat="43.59479" lon="3.34002">
        <ele>370.5</ele>
        <time>2015-11-14T13:58:27Z</time>
      </trkpt>
      <trkpt lat="43.5948" lon="3.33997">
        <ele>369.5</ele>
        <time>2015-11-14T13:58:28Z</time>
      </trkpt>
      <trkpt lat="43.59482" lon="3.33993">
        <ele>368.5</ele>
        <time>2015-11-14T13:58:29Z</time>
      </trkpt>
      <trkpt lat="43.59485" lon="3.33989">
        <ele>367.5</ele>
        <time>2015-11-14T13:58:30Z</time>
      </trkpt>
      <trkpt lat="43.59488" lon="3.33986">
        <ele>366</ele>
        <time>2015-11-14T13:58:31Z</time>
      </trkpt>
      <trkpt lat="43.5949" lon="3.33983">
        <ele>365</ele>
        <time>2015-11-14T13:58:32Z</time>
      </trkpt>
      <trkpt lat="43.59492" lon="3.33979">
        <ele>364</ele>
        <time>2015-11-14T13:58:33Z</time>
      </trkpt>
      <trkpt lat="43.59493" lon="3.33975">
        <ele>362.5</ele>
        <time>2015-11-14T13:58:34Z</time>
      </trkpt>
      <trkpt lat="43.59494" lon="3.3397">
        <ele>361.5</ele>
        <time>2015-11-14T13:58:35Z</time>
      </trkpt>
      <trkpt lat="43.59496" lon="3.33966">
        <ele>360</ele>
        <time>2015-11-14T13:58:36Z</time>
      </trkpt>
      <trkpt lat="43.59498" lon="3.33961">
        <ele>358.5</ele>
        <time>2015-11-14T13:58:37Z</time>
      </trkpt>
      <trkpt lat="43.595" lon="3.33956">
        <ele>357.5</ele>
        <time>2015-11-14T13:58:38Z</time>
      </trkpt>
      <trkpt lat="43.59501" lon="3.33952">
        <ele>356</ele>
        <time>2015-11-14T13:58:39Z</time>
      </trkpt>
      <trkpt lat="43.59503" lon="3.33949">
        <ele>355</ele>
        <time>2015-11-14T13:58:40Z</time>
      </trkpt>
      <trkpt lat="43.59505" lon="3.33947">
        <ele>353.5</ele>
        <time>2015-11-14T13:58:41Z</time>
      </trkpt>
      <trkpt lat="43.59506" lon="3.33944">
        <ele>352.5</ele>
        <time>2015-11-14T13:58:42Z</time>
      </trkpt>
      <trkpt lat="43.59507" lon="3.3394">
        <ele>351</ele>
        <time>2015-11-14T13:58:43Z</time>
      </trkpt>
      <trkpt lat="43.59507" lon="3.33936">
        <ele>350</ele>
        <time>2015-11-14T13:58:44Z</time>
      </trkpt>
      <trkpt lat="43.59507" lon="3.33932">
        <ele>348.5</ele>
        <time>2015-11-14T13:58:45Z</time>
      </trkpt>
      <trkpt lat="43.59505" lon="3.33929">
        <ele>347.5</ele>
        <time>2015-11-14T13:58:46Z</time>
      </trkpt>
      <trkpt lat="43.59504" lon="3.33926">
        <ele>347</ele>
        <time>2015-11-14T13:58:47Z</time>
      </trkpt>
      <trkpt lat="43.59502" lon="3.33923">
        <ele>346.5</ele>
        <time>2015-11-14T13:58:48Z</time>
      </trkpt>
      <trkpt lat="43.59501" lon="3.33918">
        <ele>345</ele>
        <time>2015-11-14T13:58:49Z</time>
      </trkpt>
      <trkpt lat="43.59501" lon="3.33913">
        <ele>343.5</ele>
        <time>2015-11-14T13:58:50Z</time>
      </trkpt>
      <trkpt lat="43.595" lon="3.3391">
        <ele>343</ele>
        <time>2015-11-14T13:58:51Z</time>
      </trkpt>
      <trkpt lat="43.595" lon="3.33907">
        <ele>342</ele>
        <time>2015-11-14T13:58:52Z</time>
      </trkpt>
      <trkpt lat="43.59499" lon="3.33903">
        <ele>341</ele>
        <time>2015-11-14T13:58:53Z</time>
      </trkpt>
      <trkpt lat="43.59498" lon="3.33899">
        <ele>340</ele>
        <time>2015-11-14T13:58:54Z</time>
      </trkpt>
      <trkpt lat="43.59497" lon="3.33896">
        <ele>339</ele>
        <time>2015-11-14T13:58:55Z</time>
      </trkpt>
      <trkpt lat="43.59496" lon="3.33892">
        <ele>338</ele>
        <time>2015-11-14T13:58:56Z</time>
      </trkpt>
      <trkpt lat="43.59494" lon="3.33888">
        <ele>337</ele>
        <time>2015-11-14T13:58:57Z</time>
      </trkpt>
      <trkpt lat="43.59492" lon="3.33885">
        <ele>336</ele>
        <time>2015-11-14T13:58:58Z</time>
      </trkpt>
      <trkpt lat="43.59491" lon="3.33882">
        <ele>335</ele>
        <time>2015-11-14T13:58:59Z</time>
      </trkpt>
      <trkpt lat="43.59489" lon="3.3388">
        <ele>334.5</ele>
        <time>2015-11-14T13:59:00Z</time>
      </trkpt>
      <trkpt lat="43.59488" lon="3.33878">
        <ele>334</ele>
        <time>2015-11-14T13:59:01Z</time>
      </trkpt>
      <trkpt lat="43.59487" lon="3.33875">
        <ele>333</ele>
        <time>2015-11-14T13:59:02Z</time>
      </trkpt>
      <trkpt lat="43.59487" lon="3.33871">
        <ele>331.5</ele>
        <time>2015-11-14T13:59:03Z</time>
      </trkpt>
      <trkpt lat="43.59487" lon="3.33867">
        <ele>330.5</ele>
        <time>2015-11-14T13:59:04Z</time>
      </trkpt>
      <trkpt lat="43.59487" lon="3.33862">
        <ele>329</ele>
        <time>2015-11-14T13:59:05Z</time>
      </trkpt>
      <trkpt lat="43.59488" lon="3.33859">
        <ele>328</ele>
        <time>2015-11-14T13:59:06Z</time>
      </trkpt>
      <trkpt lat="43.59489" lon="3.33855">
        <ele>327</ele>
        <time>2015-11-14T13:59:07Z</time>
      </trkpt>
      <trkpt lat="43.5949" lon="3.33851">
        <ele>325.5</ele>
        <time>2015-11-14T13:59:08Z</time>
      </trkpt>
      <trkpt lat="43.5949" lon="3.33848">
        <ele>324.5</ele>
        <time>2015-11-14T13:59:09Z</time>
      </trkpt>
      <trkpt lat="43.5949" lon="3.33844">
        <ele>323.5</ele>
        <time>2015-11-14T13:59:10Z</time>
      </trkpt>
      <trkpt lat="43.5949" lon="3.33839">
        <ele>321.5</ele>
        <time>2015-11-14T13:59:11Z</time>
      </trkpt>
      <trkpt lat="43.5949" lon="3.33833">
        <ele>320</ele>
        <time>2015-11-14T13:59:12Z</time>
      </trkpt>
      <trkpt lat="43.59489" lon="3.33828">
        <ele>318.5</ele>
        <time>2015-11-14T13:59:13Z</time>
      </trkpt>
      <trkpt lat="43.5949" lon="3.33823">
        <ele>317.5</ele>
        <time>2015-11-14T13:59:14Z</time>
      </trkpt>
      <trkpt lat="43.59491" lon="3.33819">
        <ele>317</ele>
        <time>2015-11-14T13:59:15Z</time>
      </trkpt>
      <trkpt lat="43.59492" lon="3.33815">
        <ele>316</ele>
        <time>2015-11-14T13:59:16Z</time>
      </trkpt>
      <trkpt lat="43.59491" lon="3.33813">
        <ele>315.5</ele>
        <time>2015-11-14T13:59:17Z</time>
      </trkpt>
      <trkpt lat="43.5949" lon="3.3381">
        <ele>314.5</ele>
        <time>2015-11-14T13:59:18Z</time>
      </trkpt>
      <trkpt lat="43.59489" lon="3.33808">
        <ele>313.5</ele>
        <time>2015-11-14T13:59:19Z</time>
      </trkpt>
      <trkpt lat="43.59488" lon="3.33806">
        <ele>312</ele>
        <time>2015-11-14T13:59:20Z</time>
      </trkpt>
      <trkpt lat="43.59487" lon="3.33803">
        <ele>310.5</ele>
        <time>2015-11-14T13:59:21Z</time>
      </trkpt>
      <trkpt lat="43.59485" lon="3.338">
        <ele>309.5</ele>
        <time>2015-11-14T13:59:22Z</time>
      </trkpt>
      <trkpt lat="43.59485" lon="3.33797">
        <ele>308</ele>
        <time>2015-11-14T13:59:23Z</time>
      </trkpt>
      <trkpt lat="43.59486" lon="3.33794">
        <ele>307.5</ele>
        <time>2015-11-14T13:59:24Z</time>
      </trkpt>
      <trkpt lat="43.59486" lon="3.33791">
        <ele>306.5</ele>
        <time>2015-11-14T13:59:25Z</time>
      </trkpt>
      <trkpt lat="43.59486" lon="3.33787">
        <ele>305</ele>
        <time>2015-11-14T13:59:26Z</time>
      </trkpt>
      <trkpt lat="43.59486" lon="3.33784">
        <ele>304</ele>
        <time>2015-11-14T13:59:27Z</time>
      </trkpt>
      <trkpt lat="43.59485" lon="3.33781">
        <ele>303.5</ele>
        <time>2015-11-14T13:59:28Z</time>
      </trkpt>
      <trkpt lat="43.59485" lon="3.33777">
        <ele>302.5</ele>
        <time>2015-11-14T13:59:29Z</time>
      </trkpt>
      <trkpt lat="43.59484" lon="3.33774">
        <ele>301.5</ele>
        <time>2015-11-14T13:59:30Z</time>
      </trkpt>
      <trkpt lat="43.59484" lon="3.33771">
        <ele>300.5</ele>
        <time>2015-11-14T13:59:31Z</time>
      </trkpt>
      <trkpt lat="43.59484" lon="3.33768">
        <ele>299.5</ele>
        <time>2015-11-14T13:59:32Z</time>
      </trkpt>
      <trkpt lat="43.59484" lon="3.33765">
        <ele>298.5</ele>
        <time>2015-11-14T13:59:33Z</time>
      </trkpt>
      <trkpt lat="43.59485" lon="3.33762">
        <ele>297.5</ele>
        <time>2015-11-14T13:59:34Z</time>
      </trkpt>
      <trkpt lat="43.59486" lon="3.33759">
        <ele>296.5</ele>
        <time>2015-11-14T13:59:35Z</time>
      </trkpt>
      <trkpt lat="43.59488" lon="3.33756">
        <ele>296</ele>
        <time>2015-11-14T13:59:36Z</time>
      </trkpt>
      <trkpt lat="43.59489" lon="3.33755">
        <ele>295.5</ele>
        <time>2015-11-14T13:59:37Z</time>
      </trkpt>
      <trkpt lat="43.59492" lon="3.33753">
        <ele>294</ele>
        <time>2015-11-14T13:59:38Z</time>
      </trkpt>
      <trkpt lat="43.59493" lon="3.33752">
        <ele>293</ele>
        <time>2015-11-14T13:59:39Z</time>
      </trkpt>
      <trkpt lat="43.59493" lon="3.33748">
        <ele>293</ele>
        <time>2015-11-14T13:59:40Z</time>
      </trkpt>
      <trkpt lat="43.59493" lon="3.33746">
        <ele>292.5</ele>
        <time>2015-11-14T13:59:41Z</time>
      </trkpt>
      <trkpt lat="43.59491" lon="3.33743">
        <ele>291.5</ele>
        <time>2015-11-14T13:59:41Z</time>
      </trkpt>
      <trkpt lat="43.5949" lon="3.33741">
        <ele>291</ele>
        <time>2015-11-14T13:59:42Z</time>
      </trkpt>
      <trkpt lat="43.5949" lon="3.33738">
        <ele>290.5</ele>
        <time>2015-11-14T13:59:44Z</time>
      </trkpt>
      <trkpt lat="43.59492" lon="3.33736">
        <ele>289.5</ele>
        <time>2015-11-14T13:59:45Z</time>
      </trkpt>
      <trkpt lat="43.59494" lon="3.33734">
        <ele>288.5</ele>
        <time>2015-11-14T13:59:45Z</time>
      </trkpt>
      <trkpt lat="43.59496" lon="3.33732">
        <ele>288</ele>
        <time>2015-11-14T13:59:46Z</time>
      </trkpt>
      <trkpt lat="43.59496" lon="3.33729">
        <ele>287.5</ele>
        <time>2015-11-14T13:59:47Z</time>
      </trkpt>
      <trkpt lat="43.59496" lon="3.33726">
        <ele>287</ele>
        <time>2015-11-14T13:59:48Z</time>
      </trkpt>
      <trkpt lat="43.59495" lon="3.33722">
        <ele>286</ele>
        <time>2015-11-14T13:59:49Z</time>
      </trkpt>
      <trkpt lat="43.59494" lon="3.33719">
        <ele>285.5</ele>
        <time>2015-11-14T13:59:50Z</time>
      </trkpt>
      <trkpt lat="43.59493" lon="3.33717">
        <ele>284.5</ele>
        <time>2015-11-14T13:59:51Z</time>
      </trkpt>
      <trkpt lat="43.59493" lon="3.33715">
        <ele>284.5</ele>
        <time>2015-11-14T13:59:52Z</time>
      </trkpt>
      <trkpt lat="43.59494" lon="3.33713">
        <ele>284.5</ele>
        <time>2015-11-14T13:59:53Z</time>
      </trkpt>
      <trkpt lat="43.59495" lon="3.33712">
        <ele>284</ele>
        <time>2015-11-14T13:59:54Z</time>
      </trkpt>
      <trkpt lat="43.59497" lon="3.33713">
        <ele>283</ele>
        <time>2015-11-14T13:59:55Z</time>
      </trkpt>
      <trkpt lat="43.59499" lon="3.33712">
        <ele>282.5</ele>
        <time>2015-11-14T13:59:56Z</time>
      </trkpt>
      <trkpt lat="43.59501" lon="3.33711">
        <ele>281</ele>
        <time>2015-11-14T13:59:57Z</time>
      </trkpt>
      <trkpt lat="43.59503" lon="3.33708">
        <ele>279.5</ele>
        <time>2015-11-14T13:59:58Z</time>
      </trkpt>
      <trkpt lat="43.59506" lon="3.33705">
        <ele>278</ele>
        <time>2015-11-14T14:00:00Z</time>
      </trkpt>
      <trkpt lat="43.59508" lon="3.33702">
        <ele>276.5</ele>
        <time>2015-11-14T14:00:00Z</time>
      </trkpt>
      <trkpt lat="43.59511" lon="3.337">
        <ele>275</ele>
        <time>2015-11-14T14:00:01Z</time>
      </trkpt>
      <trkpt lat="43.59511" lon="3.33696">
        <ele>274</ele>
        <time>2015-11-14T14:00:02Z</time>
      </trkpt>
      <trkpt lat="43.59512" lon="3.33692">
        <ele>273.5</ele>
        <time>2015-11-14T14:00:03Z</time>
      </trkpt>
      <trkpt lat="43.59514" lon="3.33689">
        <ele>272</ele>
        <time>2015-11-14T14:00:04Z</time>
      </trkpt>
      <trkpt lat="43.59517" lon="3.33687">
        <ele>271</ele>
        <time>2015-11-14T14:00:05Z</time>
      </trkpt>
      <trkpt lat="43.5952" lon="3.33688">
        <ele>270</ele>
        <time>2015-11-14T14:00:06Z</time>
      </trkpt>
      <trkpt lat="43.59523" lon="3.33689">
        <ele>268.5</ele>
        <time>2015-11-14T14:00:07Z</time>
      </trkpt>
      <trkpt lat="43.59525" lon="3.33691">
        <ele>268</ele>
        <time>2015-11-14T14:00:08Z</time>
      </trkpt>
      <trkpt lat="43.59527" lon="3.33693">
        <ele>267</ele>
        <time>2015-11-14T14:00:09Z</time>
      </trkpt>
      <trkpt lat="43.5953" lon="3.33692">
        <ele>266</ele>
        <time>2015-11-14T14:00:10Z</time>
      </trkpt>
      <trkpt lat="43.59532" lon="3.33691">
        <ele>265</ele>
        <time>2015-11-14T14:00:11Z</time>
      </trkpt>
      <trkpt lat="43.59531" lon="3.33688">
        <ele>263.5</ele>
        <time>2015-11-14T14:00:12Z</time>
      </trkpt>
      <trkpt lat="43.59531" lon="3.33687">
        <ele>263.5</ele>
        <time>2015-11-14T14:00:14Z</time>
      </trkpt>
      <trkpt lat="43.59532" lon="3.33687">
        <ele>263.5</ele>
        <time>2015-11-14T14:00:23Z</time>
      </trkpt>
      <trkpt lat="43.59532" lon="3.33688">
        <ele>263.5</ele>
        <time>2015-11-14T14:00:24Z</time>
      </trkpt>
      <trkpt lat="43.59532" lon="3.33689">
        <ele>263.5</ele>
        <time>2015-11-14T14:00:25Z</time>
      </trkpt>
      <trkpt lat="43.59532" lon="3.33689">
        <ele>263.5</ele>
        <time>2015-11-14T14:00:26Z</time>
      </trkpt>
      <trkpt lat="43.59533" lon="3.3369">
        <ele>263.5</ele>
        <time>2015-11-14T14:00:27Z</time>
      </trkpt>
      <trkpt lat="43.59533" lon="3.3369">
        <ele>263.5</ele>
        <time>2015-11-14T14:00:29Z</time>
      </trkpt>
      <trkpt lat="43.59534" lon="3.33687">
        <ele>266</ele>
        <time>2015-11-14T14:04:37Z</time>
      </trkpt>
      <trkpt lat="43.59534" lon="3.33687">
        <ele>266</ele>
        <time>2015-11-14T14:04:40Z</time>
      </trkpt>
      <trkpt lat="43.59534" lon="3.33686">
        <ele>266</ele>
        <time>2015-11-14T14:04:41Z</time>
      </trkpt>
      <trkpt lat="43.59533" lon="3.33685">
        <ele>266</ele>
        <time>2015-11-14T14:04:42Z</time>
      </trkpt>
      <trkpt lat="43.59533" lon="3.33683">
        <ele>266</ele>
        <time>2015-11-14T14:04:43Z</time>
      </trkpt>
      <trkpt lat="43.59533" lon="3.33682">
        <ele>265</ele>
        <time>2015-11-14T14:04:44Z</time>
      </trkpt>
      <trkpt lat="43.59533" lon="3.33682">
        <ele>264.5</ele>
        <time>2015-11-14T14:04:45Z</time>
      </trkpt>
      <trkpt lat="43.59532" lon="3.33681">
        <ele>265</ele>
        <time>2015-11-14T14:04:46Z</time>
      </trkpt>
      <trkpt lat="43.59531" lon="3.33681">
        <ele>265</ele>
        <time>2015-11-14T14:04:48Z</time>
      </trkpt>
      <trkpt lat="43.59531" lon="3.3368">
        <ele>265</ele>
        <time>2015-11-14T14:04:54Z</time>
      </trkpt>
      <trkpt lat="43.59531" lon="3.3368">
        <ele>265</ele>
        <time>2015-11-14T14:04:55Z</time>
      </trkpt>
      <trkpt lat="43.5953" lon="3.33678">
        <ele>264.5</ele>
        <time>2015-11-14T14:04:56Z</time>
      </trkpt>
      <trkpt lat="43.5953" lon="3.33678">
        <ele>264.5</ele>
        <time>2015-11-14T14:04:57Z</time>
      </trkpt>
      <trkpt lat="43.59529" lon="3.33677">
        <ele>264.5</ele>
        <time>2015-11-14T14:04:59Z</time>
      </trkpt>
      <trkpt lat="43.59527" lon="3.33676">
        <ele>264.5</ele>
        <time>2015-11-14T14:05:01Z</time>
      </trkpt>
      <trkpt lat="43.59526" lon="3.33675">
        <ele>264</ele>
        <time>2015-11-14T14:05:02Z</time>
      </trkpt>
      <trkpt lat="43.59525" lon="3.33674">
        <ele>264</ele>
        <time>2015-11-14T14:05:03Z</time>
      </trkpt>
      <trkpt lat="43.59524" lon="3.33673">
        <ele>263.5</ele>
        <time>2015-11-14T14:05:04Z</time>
      </trkpt>
      <trkpt lat="43.59523" lon="3.33673">
        <ele>264</ele>
        <time>2015-11-14T14:05:05Z</time>
      </trkpt>
      <trkpt lat="43.59522" lon="3.33672">
        <ele>264</ele>
        <time>2015-11-14T14:05:06Z</time>
      </trkpt>
      <trkpt lat="43.5952" lon="3.33672">
        <ele>264.5</ele>
        <time>2015-11-14T14:05:08Z</time>
      </trkpt>
      <trkpt lat="43.59518" lon="3.33672">
        <ele>264</ele>
        <time>2015-11-14T14:05:09Z</time>
      </trkpt>
      <trkpt lat="43.59516" lon="3.33672">
        <ele>264.5</ele>
        <time>2015-11-14T14:05:10Z</time>
      </trkpt>
      <trkpt lat="43.59514" lon="3.33672">
        <ele>264.5</ele>
        <time>2015-11-14T14:05:11Z</time>
      </trkpt>
      <trkpt lat="43.59512" lon="3.33673">
        <ele>265</ele>
        <time>2015-11-14T14:05:12Z</time>
      </trkpt>
      <trkpt lat="43.5951" lon="3.33675">
        <ele>265</ele>
        <time>2015-11-14T14:05:13Z</time>
      </trkpt>
      <trkpt lat="43.59509" lon="3.33677">
        <ele>265.5</ele>
        <time>2015-11-14T14:05:14Z</time>
      </trkpt>
      <trkpt lat="43.59507" lon="3.33678">
        <ele>265</ele>
        <time>2015-11-14T14:05:15Z</time>
      </trkpt>
      <trkpt lat="43.59506" lon="3.33678">
        <ele>265</ele>
        <time>2015-11-14T14:05:16Z</time>
      </trkpt>
      <trkpt lat="43.59505" lon="3.33679">
        <ele>265</ele>
        <time>2015-11-14T14:05:17Z</time>
      </trkpt>
      <trkpt lat="43.59504" lon="3.3368">
        <ele>265</ele>
        <time>2015-11-14T14:05:18Z</time>
      </trkpt>
      <trkpt lat="43.59503" lon="3.33682">
        <ele>264</ele>
        <time>2015-11-14T14:05:19Z</time>
      </trkpt>
      <trkpt lat="43.59502" lon="3.33683">
        <ele>264</ele>
        <time>2015-11-14T14:05:20Z</time>
      </trkpt>
      <trkpt lat="43.59501" lon="3.33684">
        <ele>263</ele>
        <time>2015-11-14T14:05:21Z</time>
      </trkpt>
      <trkpt lat="43.595" lon="3.33685">
        <ele>263</ele>
        <time>2015-11-14T14:05:22Z</time>
      </trkpt>
      <trkpt lat="43.59499" lon="3.33686">
        <ele>263</ele>
        <time>2015-11-14T14:05:23Z</time>
      </trkpt>
      <trkpt lat="43.59498" lon="3.33686">
        <ele>263</ele>
        <time>2015-11-14T14:05:24Z</time>
      </trkpt>
      <trkpt lat="43.59496" lon="3.33687">
        <ele>262.5</ele>
        <time>2015-11-14T14:05:25Z</time>
      </trkpt>
      <trkpt lat="43.59495" lon="3.33688">
        <ele>262.5</ele>
        <time>2015-11-14T14:05:26Z</time>
      </trkpt>
      <trkpt lat="43.59493" lon="3.33689">
        <ele>263.5</ele>
        <time>2015-11-14T14:05:27Z</time>
      </trkpt>
      <trkpt lat="43.59492" lon="3.33691">
        <ele>263</ele>
        <time>2015-11-14T14:05:28Z</time>
      </trkpt>
      <trkpt lat="43.5949" lon="3.33693">
        <ele>263</ele>
        <time>2015-11-14T14:05:29Z</time>
      </trkpt>
      <trkpt lat="43.59489" lon="3.33695">
        <ele>263</ele>
        <time>2015-11-14T14:05:30Z</time>
      </trkpt>
      <trkpt lat="43.59487" lon="3.33696">
        <ele>263</ele>
        <time>2015-11-14T14:05:31Z</time>
      </trkpt>
      <trkpt lat="43.59486" lon="3.33698">
        <ele>262.5</ele>
        <time>2015-11-14T14:05:32Z</time>
      </trkpt>
      <trkpt lat="43.59485" lon="3.33699">
        <ele>263.5</ele>
        <time>2015-11-14T14:05:33Z</time>
      </trkpt>
      <trkpt lat="43.59486" lon="3.337">
        <ele>264</ele>
        <time>2015-11-14T14:05:34Z</time>
      </trkpt>
      <trkpt lat="43.59485" lon="3.33703">
        <ele>261.5</ele>
        <time>2015-11-14T14:05:35Z</time>
      </trkpt>
      <trkpt lat="43.59484" lon="3.33705">
        <ele>261.5</ele>
        <time>2015-11-14T14:05:36Z</time>
      </trkpt>
      <trkpt lat="43.59483" lon="3.33707">
        <ele>261</ele>
        <time>2015-11-14T14:05:37Z</time>
      </trkpt>
      <trkpt lat="43.59482" lon="3.33709">
        <ele>261</ele>
        <time>2015-11-14T14:05:38Z</time>
      </trkpt>
      <trkpt lat="43.59481" lon="3.33712">
        <ele>261</ele>
        <time>2015-11-14T14:05:39Z</time>
      </trkpt>
      <trkpt lat="43.5948" lon="3.33714">
        <ele>261.5</ele>
        <time>2015-11-14T14:05:40Z</time>
      </trkpt>
      <trkpt lat="43.59478" lon="3.33714">
        <ele>262.5</ele>
        <time>2015-11-14T14:05:41Z</time>
      </trkpt>
      <trkpt lat="43.59477" lon="3.33716">
        <ele>263</ele>
        <time>2015-11-14T14:05:42Z</time>
      </trkpt>
      <trkpt lat="43.59474" lon="3.33716">
        <ele>263</ele>
        <time>2015-11-14T14:05:43Z</time>
      </trkpt>
      <trkpt lat="43.59473" lon="3.33717">
        <ele>263</ele>
        <time>2015-11-14T14:05:44Z</time>
      </trkpt>
      <trkpt lat="43.59472" lon="3.33717">
        <ele>263</ele>
        <time>2015-11-14T14:05:45Z</time>
      </trkpt>
      <trkpt lat="43.59471" lon="3.33718">
        <ele>263</ele>
        <time>2015-11-14T14:05:46Z</time>
      </trkpt>
      <trkpt lat="43.5947" lon="3.33719">
        <ele>262.5</ele>
        <time>2015-11-14T14:05:47Z</time>
      </trkpt>
      <trkpt lat="43.59469" lon="3.3372">
        <ele>262.5</ele>
        <time>2015-11-14T14:05:48Z</time>
      </trkpt>
      <trkpt lat="43.59468" lon="3.3372">
        <ele>262.5</ele>
        <time>2015-11-14T14:05:49Z</time>
      </trkpt>
      <trkpt lat="43.59467" lon="3.33721">
        <ele>263</ele>
        <time>2015-11-14T14:05:50Z</time>
      </trkpt>
      <trkpt lat="43.59467" lon="3.33721">
        <ele>263</ele>
        <time>2015-11-14T14:05:51Z</time>
      </trkpt>
      <trkpt lat="43.59466" lon="3.33723">
        <ele>263.5</ele>
        <time>2015-11-14T14:05:58Z</time>
      </trkpt>
      <trkpt lat="43.59464" lon="3.33724">
        <ele>265.5</ele>
        <time>2015-11-14T14:06:00Z</time>
      </trkpt>
      <trkpt lat="43.59463" lon="3.33723">
        <ele>266</ele>
        <time>2015-11-14T14:06:01Z</time>
      </trkpt>
      <trkpt lat="43.5946" lon="3.33724">
        <ele>267</ele>
        <time>2015-11-14T14:06:02Z</time>
      </trkpt>
      <trkpt lat="43.59458" lon="3.33725">
        <ele>267</ele>
        <time>2015-11-14T14:06:03Z</time>
      </trkpt>
      <trkpt lat="43.59456" lon="3.33726">
        <ele>268</ele>
        <time>2015-11-14T14:06:04Z</time>
      </trkpt>
      <trkpt lat="43.59453" lon="3.33728">
        <ele>268.5</ele>
        <time>2015-11-14T14:06:05Z</time>
      </trkpt>
      <trkpt lat="43.5945" lon="3.33729">
        <ele>269.5</ele>
        <time>2015-11-14T14:06:06Z</time>
      </trkpt>
      <trkpt lat="43.59448" lon="3.33731">
        <ele>270</ele>
        <time>2015-11-14T14:06:07Z</time>
      </trkpt>
      <trkpt lat="43.59446" lon="3.33734">
        <ele>270.5</ele>
        <time>2015-11-14T14:06:08Z</time>
      </trkpt>
      <trkpt lat="43.59444" lon="3.33735">
        <ele>270</ele>
        <time>2015-11-14T14:06:09Z</time>
      </trkpt>
      <trkpt lat="43.59442" lon="3.33738">
        <ele>271</ele>
        <time>2015-11-14T14:06:10Z</time>
      </trkpt>
      <trkpt lat="43.5944" lon="3.3374">
        <ele>271.5</ele>
        <time>2015-11-14T14:06:10Z</time>
      </trkpt>
      <trkpt lat="43.59438" lon="3.33741">
        <ele>271.5</ele>
        <time>2015-11-14T14:06:11Z</time>
      </trkpt>
      <trkpt lat="43.59437" lon="3.33742">
        <ele>271.5</ele>
        <time>2015-11-14T14:06:12Z</time>
      </trkpt>
      <trkpt lat="43.59437" lon="3.33741">
        <ele>272</ele>
        <time>2015-11-14T14:06:14Z</time>
      </trkpt>
      <trkpt lat="43.59437" lon="3.3374">
        <ele>271.5</ele>
        <time>2015-11-14T14:06:14Z</time>
      </trkpt>
      <trkpt lat="43.59435" lon="3.33742">
        <ele>271.5</ele>
        <time>2015-11-14T14:06:15Z</time>
      </trkpt>
      <trkpt lat="43.59434" lon="3.33744">
        <ele>270</ele>
        <time>2015-11-14T14:06:16Z</time>
      </trkpt>
      <trkpt lat="43.59429" lon="3.33748">
        <ele>269.5</ele>
        <time>2015-11-14T14:06:18Z</time>
      </trkpt>
      <trkpt lat="43.59428" lon="3.33748">
        <ele>268</ele>
        <time>2015-11-14T14:06:19Z</time>
      </trkpt>
      <trkpt lat="43.59426" lon="3.33749">
        <ele>267</ele>
        <time>2015-11-14T14:06:20Z</time>
      </trkpt>
      <trkpt lat="43.59425" lon="3.33752">
        <ele>268.5</ele>
        <time>2015-11-14T14:06:22Z</time>
      </trkpt>
      <trkpt lat="43.59423" lon="3.33754">
        <ele>269</ele>
        <time>2015-11-14T14:06:22Z</time>
      </trkpt>
      <trkpt lat="43.59421" lon="3.33757">
        <ele>269.5</ele>
        <time>2015-11-14T14:06:23Z</time>
      </trkpt>
      <trkpt lat="43.5942" lon="3.33759">
        <ele>269.5</ele>
        <time>2015-11-14T14:06:24Z</time>
      </trkpt>
      <trkpt lat="43.59419" lon="3.33761">
        <ele>268.5</ele>
        <time>2015-11-14T14:06:25Z</time>
      </trkpt>
      <trkpt lat="43.59417" lon="3.33764">
        <ele>269.5</ele>
        <time>2015-11-14T14:06:26Z</time>
      </trkpt>
      <trkpt lat="43.59416" lon="3.33766">
        <ele>267.5</ele>
        <time>2015-11-14T14:06:27Z</time>
      </trkpt>
      <trkpt lat="43.59417" lon="3.33766">
        <ele>269</ele>
        <time>2015-11-14T14:06:29Z</time>
      </trkpt>
      <trkpt lat="43.59418" lon="3.33767">
        <ele>268.5</ele>
        <time>2015-11-14T14:06:29Z</time>
      </trkpt>
      <trkpt lat="43.59417" lon="3.33769">
        <ele>269</ele>
        <time>2015-11-14T14:06:30Z</time>
      </trkpt>
      <trkpt lat="43.59416" lon="3.33772">
        <ele>270.5</ele>
        <time>2015-11-14T14:06:31Z</time>
      </trkpt>
      <trkpt lat="43.59416" lon="3.33774">
        <ele>270.5</ele>
        <time>2015-11-14T14:06:32Z</time>
      </trkpt>
      <trkpt lat="43.59408" lon="3.33788">
        <ele>272</ele>
        <time>2015-11-14T14:06:38Z</time>
      </trkpt>
      <trkpt lat="43.59406" lon="3.33795">
        <ele>272.5</ele>
        <time>2015-11-14T14:06:39Z</time>
      </trkpt>
      <trkpt lat="43.59406" lon="3.33801">
        <ele>274</ele>
        <time>2015-11-14T14:06:41Z</time>
      </trkpt>
      <trkpt lat="43.59406" lon="3.33805">
        <ele>274.5</ele>
        <time>2015-11-14T14:06:43Z</time>
      </trkpt>
      <trkpt lat="43.59402" lon="3.33813">
        <ele>274</ele>
        <time>2015-11-14T14:06:46Z</time>
      </trkpt>
      <trkpt lat="43.59397" lon="3.33819">
        <ele>274</ele>
        <time>2015-11-14T14:06:48Z</time>
      </trkpt>
      <trkpt lat="43.59394" lon="3.33822">
        <ele>273.5</ele>
        <time>2015-11-14T14:06:49Z</time>
      </trkpt>
      <trkpt lat="43.59391" lon="3.33824">
        <ele>273.5</ele>
        <time>2015-11-14T14:06:51Z</time>
      </trkpt>
      <trkpt lat="43.59384" lon="3.3383">
        <ele>272</ele>
        <time>2015-11-14T14:06:53Z</time>
      </trkpt>
      <trkpt lat="43.59376" lon="3.33839">
        <ele>268.5</ele>
        <time>2015-11-14T14:06:55Z</time>
      </trkpt>
      <trkpt lat="43.59371" lon="3.33844">
        <ele>268.5</ele>
        <time>2015-11-14T14:06:56Z</time>
      </trkpt>
      <trkpt lat="43.59367" lon="3.3385">
        <ele>268.5</ele>
        <time>2015-11-14T14:06:57Z</time>
      </trkpt>
      <trkpt lat="43.59363" lon="3.33854">
        <ele>267</ele>
        <time>2015-11-14T14:06:58Z</time>
      </trkpt>
      <trkpt lat="43.59359" lon="3.33856">
        <ele>266</ele>
        <time>2015-11-14T14:06:59Z</time>
      </trkpt>
      <trkpt lat="43.59358" lon="3.33861">
        <ele>265.5</ele>
        <time>2015-11-14T14:07:00Z</time>
      </trkpt>
      <trkpt lat="43.59348" lon="3.33869">
        <ele>266.5</ele>
        <time>2015-11-14T14:07:02Z</time>
      </trkpt>
      <trkpt lat="43.59344" lon="3.33871">
        <ele>264.5</ele>
        <time>2015-11-14T14:07:03Z</time>
      </trkpt>
      <trkpt lat="43.59339" lon="3.33874">
        <ele>263.5</ele>
        <time>2015-11-14T14:07:04Z</time>
      </trkpt>
      <trkpt lat="43.59335" lon="3.33876">
        <ele>262.5</ele>
        <time>2015-11-14T14:07:05Z</time>
      </trkpt>
      <trkpt lat="43.59331" lon="3.33881">
        <ele>261</ele>
        <time>2015-11-14T14:07:06Z</time>
      </trkpt>
      <trkpt lat="43.59321" lon="3.33881">
        <ele>260.5</ele>
        <time>2015-11-14T14:07:08Z</time>
      </trkpt>
      <trkpt lat="43.59316" lon="3.33882">
        <ele>259.5</ele>
        <time>2015-11-14T14:07:09Z</time>
      </trkpt>
      <trkpt lat="43.59312" lon="3.33883">
        <ele>255.5</ele>
        <time>2015-11-14T14:07:10Z</time>
      </trkpt>
      <trkpt lat="43.59307" lon="3.33883">
        <ele>254</ele>
        <time>2015-11-14T14:07:11Z</time>
      </trkpt>
      <trkpt lat="43.59303" lon="3.33885">
        <ele>253</ele>
        <time>2015-11-14T14:07:12Z</time>
      </trkpt>
      <trkpt lat="43.59299" lon="3.33884">
        <ele>251.5</ele>
        <time>2015-11-14T14:07:13Z</time>
      </trkpt>
      <trkpt lat="43.59296" lon="3.33882">
        <ele>250.5</ele>
        <time>2015-11-14T14:07:14Z</time>
      </trkpt>
      <trkpt lat="43.59292" lon="3.33881">
        <ele>248</ele>
        <time>2015-11-14T14:07:15Z</time>
      </trkpt>
      <trkpt lat="43.59289" lon="3.33879">
        <ele>245.5</ele>
        <time>2015-11-14T14:07:16Z</time>
      </trkpt>
      <trkpt lat="43.59287" lon="3.33877">
        <ele>243.5</ele>
        <time>2015-11-14T14:07:17Z</time>
      </trkpt>
      <trkpt lat="43.59284" lon="3.33873">
        <ele>241</ele>
        <time>2015-11-14T14:07:18Z</time>
      </trkpt>
      <trkpt lat="43.59281" lon="3.33871">
        <ele>239.5</ele>
        <time>2015-11-14T14:07:19Z</time>
      </trkpt>
      <trkpt lat="43.59277" lon="3.33869">
        <ele>238.5</ele>
        <time>2015-11-14T14:07:20Z</time>
      </trkpt>
      <trkpt lat="43.59274" lon="3.33867">
        <ele>238</ele>
        <time>2015-11-14T14:07:21Z</time>
      </trkpt>
      <trkpt lat="43.59273" lon="3.33866">
        <ele>237.5</ele>
        <time>2015-11-14T14:07:22Z</time>
      </trkpt>
      <trkpt lat="43.59272" lon="3.33865">
        <ele>237</ele>
        <time>2015-11-14T14:07:23Z</time>
      </trkpt>
      <trkpt lat="43.59271" lon="3.33865">
        <ele>237</ele>
        <time>2015-11-14T14:07:24Z</time>
      </trkpt>
      <trkpt lat="43.59265" lon="3.33866">
        <ele>240.5</ele>
        <time>2015-11-14T14:07:26Z</time>
      </trkpt>
      <trkpt lat="43.59262" lon="3.33866">
        <ele>242</ele>
        <time>2015-11-14T14:07:27Z</time>
      </trkpt>
      <trkpt lat="43.5926" lon="3.33867">
        <ele>242</ele>
        <time>2015-11-14T14:07:28Z</time>
      </trkpt>
      <trkpt lat="43.59258" lon="3.33869">
        <ele>242.5</ele>
        <time>2015-11-14T14:07:29Z</time>
      </trkpt>
      <trkpt lat="43.59256" lon="3.3387">
        <ele>242</ele>
        <time>2015-11-14T14:07:30Z</time>
      </trkpt>
      <trkpt lat="43.59253" lon="3.3387">
        <ele>241</ele>
        <time>2015-11-14T14:07:31Z</time>
      </trkpt>
      <trkpt lat="43.59251" lon="3.33869">
        <ele>240.5</ele>
        <time>2015-11-14T14:07:32Z</time>
      </trkpt>
      <trkpt lat="43.5925" lon="3.33868">
        <ele>239.5</ele>
        <time>2015-11-14T14:07:33Z</time>
      </trkpt>
      <trkpt lat="43.5925" lon="3.33866">
        <ele>240</ele>
        <time>2015-11-14T14:07:34Z</time>
      </trkpt>
      <trkpt lat="43.59249" lon="3.33863">
        <ele>239.5</ele>
        <time>2015-11-14T14:07:35Z</time>
      </trkpt>
      <trkpt lat="43.59248" lon="3.3386">
        <ele>239.5</ele>
        <time>2015-11-14T14:07:36Z</time>
      </trkpt>
      <trkpt lat="43.59247" lon="3.33857">
        <ele>239.5</ele>
        <time>2015-11-14T14:07:37Z</time>
      </trkpt>
      <trkpt lat="43.59248" lon="3.33854">
        <ele>239.5</ele>
        <time>2015-11-14T14:07:38Z</time>
      </trkpt>
      <trkpt lat="43.59247" lon="3.33855">
        <ele>239.5</ele>
        <time>2015-11-14T14:07:39Z</time>
      </trkpt>
      <trkpt lat="43.59246" lon="3.33854">
        <ele>241</ele>
        <time>2015-11-14T14:07:42Z</time>
      </trkpt>
      <trkpt lat="43.59245" lon="3.33852">
        <ele>241.5</ele>
        <time>2015-11-14T14:07:44Z</time>
      </trkpt>
      <trkpt lat="43.59245" lon="3.33851">
        <ele>240</ele>
        <time>2015-11-14T14:07:45Z</time>
      </trkpt>
      <trkpt lat="43.59245" lon="3.33852">
        <ele>240</ele>
        <time>2015-11-14T14:07:46Z</time>
      </trkpt>
      <trkpt lat="43.59245" lon="3.3385">
        <ele>244</ele>
        <time>2015-11-14T14:07:56Z</time>
      </trkpt>
      <trkpt lat="43.59244" lon="3.33849">
        <ele>245</ele>
        <time>2015-11-14T14:08:01Z</time>
      </trkpt>
      <trkpt lat="43.59245" lon="3.33848">
        <ele>246</ele>
        <time>2015-11-14T14:08:07Z</time>
      </trkpt>
      <trkpt lat="43.59245" lon="3.33848">
        <ele>246</ele>
        <time>2015-11-14T14:08:08Z</time>
      </trkpt>
      <trkpt lat="43.59246" lon="3.33848">
        <ele>246.5</ele>
        <time>2015-11-14T14:08:10Z</time>
      </trkpt>
      <trkpt lat="43.59246" lon="3.3385">
        <ele>246</ele>
        <time>2015-11-14T14:08:12Z</time>
      </trkpt>
      <trkpt lat="43.59246" lon="3.33851">
        <ele>246</ele>
        <time>2015-11-14T14:08:13Z</time>
      </trkpt>
      <trkpt lat="43.59245" lon="3.33852">
        <ele>245</ele>
        <time>2015-11-14T14:08:14Z</time>
      </trkpt>
      <trkpt lat="43.59245" lon="3.33852">
        <ele>244.5</ele>
        <time>2015-11-14T14:08:15Z</time>
      </trkpt>
      <trkpt lat="43.59244" lon="3.33853">
        <ele>243.5</ele>
        <time>2015-11-14T14:08:16Z</time>
      </trkpt>
      <trkpt lat="43.59244" lon="3.33854">
        <ele>243</ele>
        <time>2015-11-14T14:08:18Z</time>
      </trkpt>
      <trkpt lat="43.59244" lon="3.33855">
        <ele>242.5</ele>
        <time>2015-11-14T14:08:19Z</time>
      </trkpt>
      <trkpt lat="43.59244" lon="3.33856">
        <ele>242.5</ele>
        <time>2015-11-14T14:08:20Z</time>
      </trkpt>
      <trkpt lat="43.59244" lon="3.33857">
        <ele>242</ele>
        <time>2015-11-14T14:08:21Z</time>
      </trkpt>
      <trkpt lat="43.59243" lon="3.33859">
        <ele>242</ele>
        <time>2015-11-14T14:08:22Z</time>
      </trkpt>
      <trkpt lat="43.59244" lon="3.33859">
        <ele>241.5</ele>
        <time>2015-11-14T14:08:23Z</time>
      </trkpt>
      <trkpt lat="43.59244" lon="3.3386">
        <ele>241</ele>
        <time>2015-11-14T14:08:24Z</time>
      </trkpt>
      <trkpt lat="43.59244" lon="3.33861">
        <ele>241.5</ele>
        <time>2015-11-14T14:08:25Z</time>
      </trkpt>
      <trkpt lat="43.59244" lon="3.33861">
        <ele>241</ele>
        <time>2015-11-14T14:08:27Z</time>
      </trkpt>
      <trkpt lat="43.59244" lon="3.33862">
        <ele>241</ele>
        <time>2015-11-14T14:08:29Z</time>
      </trkpt>
      <trkpt lat="43.59244" lon="3.33863">
        <ele>241</ele>
        <time>2015-11-14T14:08:30Z</time>
      </trkpt>
      <trkpt lat="43.59245" lon="3.33864">
        <ele>240.5</ele>
        <time>2015-11-14T14:08:38Z</time>
      </trkpt>
      <trkpt lat="43.59246" lon="3.33863">
        <ele>239.5</ele>
        <time>2015-11-14T14:08:45Z</time>
      </trkpt>
      <trkpt lat="43.59246" lon="3.33857">
        <ele>239</ele>
        <time>2015-11-14T14:08:47Z</time>
      </trkpt>
      <trkpt lat="43.59247" lon="3.33854">
        <ele>238</ele>
        <time>2015-11-14T14:08:48Z</time>
      </trkpt>
      <trkpt lat="43.59247" lon="3.33851">
        <ele>237.5</ele>
        <time>2015-11-14T14:08:49Z</time>
      </trkpt>
      <trkpt lat="43.59247" lon="3.33848">
        <ele>236.5</ele>
        <time>2015-11-14T14:08:50Z</time>
      </trkpt>
      <trkpt lat="43.59245" lon="3.33845">
        <ele>234.5</ele>
        <time>2015-11-14T14:08:51Z</time>
      </trkpt>
      <trkpt lat="43.59243" lon="3.33842">
        <ele>233.5</ele>
        <time>2015-11-14T14:08:52Z</time>
      </trkpt>
      <trkpt lat="43.5924" lon="3.3384">
        <ele>232</ele>
        <time>2015-11-14T14:08:53Z</time>
      </trkpt>
      <trkpt lat="43.59239" lon="3.33837">
        <ele>231.5</ele>
        <time>2015-11-14T14:08:54Z</time>
      </trkpt>
      <trkpt lat="43.59236" lon="3.33834">
        <ele>231.5</ele>
        <time>2015-11-14T14:08:55Z</time>
      </trkpt>
      <trkpt lat="43.59233" lon="3.33832">
        <ele>231.5</ele>
        <time>2015-11-14T14:08:56Z</time>
      </trkpt>
      <trkpt lat="43.59231" lon="3.3383">
        <ele>230.5</ele>
        <time>2015-11-14T14:08:57Z</time>
      </trkpt>
      <trkpt lat="43.59229" lon="3.33828">
        <ele>229.5</ele>
        <time>2015-11-14T14:08:58Z</time>
      </trkpt>
      <trkpt lat="43.59226" lon="3.33827">
        <ele>230</ele>
        <time>2015-11-14T14:08:59Z</time>
      </trkpt>
      <trkpt lat="43.59223" lon="3.33828">
        <ele>231</ele>
        <time>2015-11-14T14:09:00Z</time>
      </trkpt>
      <trkpt lat="43.5922" lon="3.33828">
        <ele>230</ele>
        <time>2015-11-14T14:09:01Z</time>
      </trkpt>
      <trkpt lat="43.59217" lon="3.33826">
        <ele>229.5</ele>
        <time>2015-11-14T14:09:02Z</time>
      </trkpt>
      <trkpt lat="43.59214" lon="3.33824">
        <ele>229</ele>
        <time>2015-11-14T14:09:03Z</time>
      </trkpt>
      <trkpt lat="43.59211" lon="3.33822">
        <ele>228.5</ele>
        <time>2015-11-14T14:09:04Z</time>
      </trkpt>
      <trkpt lat="43.59208" lon="3.3382">
        <ele>228</ele>
        <time>2015-11-14T14:09:05Z</time>
      </trkpt>
      <trkpt lat="43.59205" lon="3.33816">
        <ele>228</ele>
        <time>2015-11-14T14:09:06Z</time>
      </trkpt>
      <trkpt lat="43.59202" lon="3.33813">
        <ele>228.5</ele>
        <time>2015-11-14T14:09:07Z</time>
      </trkpt>
      <trkpt lat="43.59197" lon="3.33814">
        <ele>229</ele>
        <time>2015-11-14T14:09:08Z</time>
      </trkpt>
      <trkpt lat="43.59194" lon="3.33812">
        <ele>228.5</ele>
        <time>2015-11-14T14:09:09Z</time>
      </trkpt>
      <trkpt lat="43.5919" lon="3.3381">
        <ele>228</ele>
        <time>2015-11-14T14:09:10Z</time>
      </trkpt>
      <trkpt lat="43.59186" lon="3.33812">
        <ele>230.5</ele>
        <time>2015-11-14T14:09:11Z</time>
      </trkpt>
      <trkpt lat="43.59182" lon="3.33812">
        <ele>231</ele>
        <time>2015-11-14T14:09:12Z</time>
      </trkpt>
      <trkpt lat="43.5918" lon="3.33811">
        <ele>230</ele>
        <time>2015-11-14T14:09:13Z</time>
      </trkpt>
      <trkpt lat="43.59178" lon="3.33812">
        <ele>229</ele>
        <time>2015-11-14T14:09:14Z</time>
      </trkpt>
      <trkpt lat="43.59175" lon="3.33813">
        <ele>228</ele>
        <time>2015-11-14T14:09:15Z</time>
      </trkpt>
      <trkpt lat="43.59173" lon="3.33816">
        <ele>228.5</ele>
        <time>2015-11-14T14:09:16Z</time>
      </trkpt>
      <trkpt lat="43.59172" lon="3.33819">
        <ele>229.5</ele>
        <time>2015-11-14T14:09:17Z</time>
      </trkpt>
      <trkpt lat="43.59172" lon="3.33821">
        <ele>230</ele>
        <time>2015-11-14T14:09:18Z</time>
      </trkpt>
      <trkpt lat="43.59172" lon="3.33822">
        <ele>229.5</ele>
        <time>2015-11-14T14:09:19Z</time>
      </trkpt>
      <trkpt lat="43.59173" lon="3.33824">
        <ele>229.5</ele>
        <time>2015-11-14T14:09:20Z</time>
      </trkpt>
      <trkpt lat="43.59173" lon="3.33825">
        <ele>229.5</ele>
        <time>2015-11-14T14:09:21Z</time>
      </trkpt>
      <trkpt lat="43.59174" lon="3.33827">
        <ele>229.5</ele>
        <time>2015-11-14T14:09:22Z</time>
      </trkpt>
      <trkpt lat="43.59175" lon="3.33831">
        <ele>228.5</ele>
        <time>2015-11-14T14:09:24Z</time>
      </trkpt>
      <trkpt lat="43.59175" lon="3.33834">
        <ele>227.5</ele>
        <time>2015-11-14T14:09:26Z</time>
      </trkpt>
      <trkpt lat="43.59176" lon="3.33838">
        <ele>228</ele>
        <time>2015-11-14T14:09:28Z</time>
      </trkpt>
      <trkpt lat="43.59176" lon="3.3384">
        <ele>228</ele>
        <time>2015-11-14T14:09:29Z</time>
      </trkpt>
      <trkpt lat="43.59177" lon="3.33842">
        <ele>228</ele>
        <time>2015-11-14T14:09:30Z</time>
      </trkpt>
      <trkpt lat="43.59178" lon="3.33843">
        <ele>228.5</ele>
        <time>2015-11-14T14:09:31Z</time>
      </trkpt>
      <trkpt lat="43.59179" lon="3.33845">
        <ele>228.5</ele>
        <time>2015-11-14T14:09:32Z</time>
      </trkpt>
      <trkpt lat="43.5918" lon="3.33847">
        <ele>228.5</ele>
        <time>2015-11-14T14:09:33Z</time>
      </trkpt>
      <trkpt lat="43.59181" lon="3.33849">
        <ele>228.5</ele>
        <time>2015-11-14T14:09:34Z</time>
      </trkpt>
      <trkpt lat="43.59182" lon="3.33851">
        <ele>229</ele>
        <time>2015-11-14T14:09:35Z</time>
      </trkpt>
      <trkpt lat="43.59183" lon="3.33853">
        <ele>229.5</ele>
        <time>2015-11-14T14:09:36Z</time>
      </trkpt>
      <trkpt lat="43.59184" lon="3.33856">
        <ele>229.5</ele>
        <time>2015-11-14T14:09:37Z</time>
      </trkpt>
      <trkpt lat="43.59185" lon="3.33858">
        <ele>230</ele>
        <time>2015-11-14T14:09:38Z</time>
      </trkpt>
      <trkpt lat="43.59186" lon="3.33861">
        <ele>230</ele>
        <time>2015-11-14T14:09:39Z</time>
      </trkpt>
      <trkpt lat="43.59187" lon="3.33863">
        <ele>230.5</ele>
        <time>2015-11-14T14:09:40Z</time>
      </trkpt>
      <trkpt lat="43.59187" lon="3.33866">
        <ele>230.5</ele>
        <time>2015-11-14T14:09:41Z</time>
      </trkpt>
      <trkpt lat="43.59188" lon="3.33868">
        <ele>230.5</ele>
        <time>2015-11-14T14:09:42Z</time>
      </trkpt>
      <trkpt lat="43.59188" lon="3.3387">
        <ele>230.5</ele>
        <time>2015-11-14T14:09:43Z</time>
      </trkpt>
      <trkpt lat="43.59188" lon="3.33873">
        <ele>230.5</ele>
        <time>2015-11-14T14:09:44Z</time>
      </trkpt>
      <trkpt lat="43.59188" lon="3.33876">
        <ele>230.5</ele>
        <time>2015-11-14T14:09:45Z</time>
      </trkpt>
      <trkpt lat="43.59187" lon="3.33879">
        <ele>230.5</ele>
        <time>2015-11-14T14:09:46Z</time>
      </trkpt>
      <trkpt lat="43.59187" lon="3.33882">
        <ele>230</ele>
        <time>2015-11-14T14:09:47Z</time>
      </trkpt>
      <trkpt lat="43.59186" lon="3.33886">
        <ele>230</ele>
        <time>2015-11-14T14:09:48Z</time>
      </trkpt>
      <trkpt lat="43.59185" lon="3.3389">
        <ele>229.5</ele>
        <time>2015-11-14T14:09:49Z</time>
      </trkpt>
      <trkpt lat="43.59184" lon="3.33893">
        <ele>229.5</ele>
        <time>2015-11-14T14:09:50Z</time>
      </trkpt>
      <trkpt lat="43.59182" lon="3.33897">
        <ele>229</ele>
        <time>2015-11-14T14:09:51Z</time>
      </trkpt>
      <trkpt lat="43.59181" lon="3.339">
        <ele>229</ele>
        <time>2015-11-14T14:09:52Z</time>
      </trkpt>
      <trkpt lat="43.59179" lon="3.33902">
        <ele>229</ele>
        <time>2015-11-14T14:09:53Z</time>
      </trkpt>
      <trkpt lat="43.59178" lon="3.33905">
        <ele>229</ele>
        <time>2015-11-14T14:09:54Z</time>
      </trkpt>
      <trkpt lat="43.59177" lon="3.33907">
        <ele>229</ele>
        <time>2015-11-14T14:09:55Z</time>
      </trkpt>
      <trkpt lat="43.59176" lon="3.33909">
        <ele>229</ele>
        <time>2015-11-14T14:09:55Z</time>
      </trkpt>
      <trkpt lat="43.59175" lon="3.33911">
        <ele>229</ele>
        <time>2015-11-14T14:09:57Z</time>
      </trkpt>
      <trkpt lat="43.59175" lon="3.33913">
        <ele>229</ele>
        <time>2015-11-14T14:09:58Z</time>
      </trkpt>
      <trkpt lat="43.59174" lon="3.33915">
        <ele>229</ele>
        <time>2015-11-14T14:09:58Z</time>
      </trkpt>
      <trkpt lat="43.59173" lon="3.33917">
        <ele>229.5</ele>
        <time>2015-11-14T14:09:59Z</time>
      </trkpt>
      <trkpt lat="43.59173" lon="3.3392">
        <ele>229</ele>
        <time>2015-11-14T14:10:00Z</time>
      </trkpt>
      <trkpt lat="43.59172" lon="3.33923">
        <ele>229.5</ele>
        <time>2015-11-14T14:10:01Z</time>
      </trkpt>
      <trkpt lat="43.59172" lon="3.33925">
        <ele>229.5</ele>
        <time>2015-11-14T14:10:02Z</time>
      </trkpt>
      <trkpt lat="43.59171" lon="3.33929">
        <ele>229</ele>
        <time>2015-11-14T14:10:03Z</time>
      </trkpt>
      <trkpt lat="43.5917" lon="3.33933">
        <ele>228.5</ele>
        <time>2015-11-14T14:10:04Z</time>
      </trkpt>
      <trkpt lat="43.59168" lon="3.33938">
        <ele>228</ele>
        <time>2015-11-14T14:10:05Z</time>
      </trkpt>
      <trkpt lat="43.59167" lon="3.33944">
        <ele>227.5</ele>
        <time>2015-11-14T14:10:06Z</time>
      </trkpt>
      <trkpt lat="43.59165" lon="3.3395">
        <ele>227.5</ele>
        <time>2015-11-14T14:10:07Z</time>
      </trkpt>
      <trkpt lat="43.59163" lon="3.33958">
        <ele>227.5</ele>
        <time>2015-11-14T14:10:09Z</time>
      </trkpt>
      <trkpt lat="43.59162" lon="3.33962">
        <ele>227</ele>
        <time>2015-11-14T14:10:10Z</time>
      </trkpt>
      <trkpt lat="43.59161" lon="3.33966">
        <ele>228</ele>
        <time>2015-11-14T14:10:11Z</time>
      </trkpt>
      <trkpt lat="43.59159" lon="3.3397">
        <ele>228</ele>
        <time>2015-11-14T14:10:12Z</time>
      </trkpt>
      <trkpt lat="43.59158" lon="3.33974">
        <ele>229</ele>
        <time>2015-11-14T14:10:13Z</time>
      </trkpt>
      <trkpt lat="43.59157" lon="3.33977">
        <ele>230</ele>
        <time>2015-11-14T14:10:14Z</time>
      </trkpt>
      <trkpt lat="43.59156" lon="3.3398">
        <ele>230</ele>
        <time>2015-11-14T14:10:15Z</time>
      </trkpt>
      <trkpt lat="43.59156" lon="3.33982">
        <ele>228.5</ele>
        <time>2015-11-14T14:10:17Z</time>
      </trkpt>
      <trkpt lat="43.59155" lon="3.33985">
        <ele>228</ele>
        <time>2015-11-14T14:10:17Z</time>
      </trkpt>
      <trkpt lat="43.59154" lon="3.33987">
        <ele>228</ele>
        <time>2015-11-14T14:10:18Z</time>
      </trkpt>
      <trkpt lat="43.59153" lon="3.3399">
        <ele>228</ele>
        <time>2015-11-14T14:10:19Z</time>
      </trkpt>
      <trkpt lat="43.59152" lon="3.33994">
        <ele>228.5</ele>
        <time>2015-11-14T14:10:20Z</time>
      </trkpt>
      <trkpt lat="43.5915" lon="3.33996">
        <ele>228.5</ele>
        <time>2015-11-14T14:10:21Z</time>
      </trkpt>
      <trkpt lat="43.59149" lon="3.34">
        <ele>228</ele>
        <time>2015-11-14T14:10:22Z</time>
      </trkpt>
      <trkpt lat="43.59148" lon="3.34002">
        <ele>227.5</ele>
        <time>2015-11-14T14:10:23Z</time>
      </trkpt>
      <trkpt lat="43.59147" lon="3.34005">
        <ele>227</ele>
        <time>2015-11-14T14:10:24Z</time>
      </trkpt>
      <trkpt lat="43.59145" lon="3.34009">
        <ele>227.5</ele>
        <time>2015-11-14T14:10:25Z</time>
      </trkpt>
      <trkpt lat="43.59143" lon="3.34013">
        <ele>228.5</ele>
        <time>2015-11-14T14:10:26Z</time>
      </trkpt>
      <trkpt lat="43.59142" lon="3.34016">
        <ele>229</ele>
        <time>2015-11-14T14:10:27Z</time>
      </trkpt>
      <trkpt lat="43.59141" lon="3.34019">
        <ele>230</ele>
        <time>2015-11-14T14:10:28Z</time>
      </trkpt>
      <trkpt lat="43.5914" lon="3.34021">
        <ele>230</ele>
        <time>2015-11-14T14:10:30Z</time>
      </trkpt>
      <trkpt lat="43.59139" lon="3.34024">
        <ele>229.5</ele>
        <time>2015-11-14T14:10:30Z</time>
      </trkpt>
      <trkpt lat="43.59139" lon="3.34027">
        <ele>230</ele>
        <time>2015-11-14T14:10:31Z</time>
      </trkpt>
      <trkpt lat="43.59139" lon="3.3403">
        <ele>230.5</ele>
        <time>2015-11-14T14:10:32Z</time>
      </trkpt>
      <trkpt lat="43.59139" lon="3.34033">
        <ele>231.5</ele>
        <time>2015-11-14T14:10:33Z</time>
      </trkpt>
      <trkpt lat="43.59139" lon="3.34036">
        <ele>232</ele>
        <time>2015-11-14T14:10:34Z</time>
      </trkpt>
      <trkpt lat="43.59139" lon="3.34039">
        <ele>232.5</ele>
        <time>2015-11-14T14:10:36Z</time>
      </trkpt>
      <trkpt lat="43.5914" lon="3.34042">
        <ele>233</ele>
        <time>2015-11-14T14:10:36Z</time>
      </trkpt>
      <trkpt lat="43.5914" lon="3.34044">
        <ele>233</ele>
        <time>2015-11-14T14:10:37Z</time>
      </trkpt>
      <trkpt lat="43.59139" lon="3.34047">
        <ele>233</ele>
        <time>2015-11-14T14:10:38Z</time>
      </trkpt>
      <trkpt lat="43.59139" lon="3.3405">
        <ele>233</ele>
        <time>2015-11-14T14:10:39Z</time>
      </trkpt>
      <trkpt lat="43.59139" lon="3.34052">
        <ele>233.5</ele>
        <time>2015-11-14T14:10:40Z</time>
      </trkpt>
      <trkpt lat="43.59139" lon="3.34055">
        <ele>233.5</ele>
        <time>2015-11-14T14:10:41Z</time>
      </trkpt>
      <trkpt lat="43.59139" lon="3.34057">
        <ele>234</ele>
        <time>2015-11-14T14:10:42Z</time>
      </trkpt>
      <trkpt lat="43.59139" lon="3.34059">
        <ele>235</ele>
        <time>2015-11-14T14:10:43Z</time>
      </trkpt>
      <trkpt lat="43.59139" lon="3.34061">
        <ele>235.5</ele>
        <time>2015-11-14T14:10:44Z</time>
      </trkpt>
      <trkpt lat="43.5914" lon="3.34063">
        <ele>236</ele>
        <time>2015-11-14T14:10:45Z</time>
      </trkpt>
      <trkpt lat="43.59138" lon="3.34065">
        <ele>236.5</ele>
        <time>2015-11-14T14:10:46Z</time>
      </trkpt>
      <trkpt lat="43.59139" lon="3.34068">
        <ele>237</ele>
        <time>2015-11-14T14:10:47Z</time>
      </trkpt>
      <trkpt lat="43.59138" lon="3.3407">
        <ele>237</ele>
        <time>2015-11-14T14:10:48Z</time>
      </trkpt>
      <trkpt lat="43.59137" lon="3.34072">
        <ele>237</ele>
        <time>2015-11-14T14:10:49Z</time>
      </trkpt>
      <trkpt lat="43.59135" lon="3.34074">
        <ele>237</ele>
        <time>2015-11-14T14:10:50Z</time>
      </trkpt>
      <trkpt lat="43.59135" lon="3.34077">
        <ele>237</ele>
        <time>2015-11-14T14:10:51Z</time>
      </trkpt>
      <trkpt lat="43.59134" lon="3.34079">
        <ele>237</ele>
        <time>2015-11-14T14:10:52Z</time>
      </trkpt>
      <trkpt lat="43.59134" lon="3.34082">
        <ele>237</ele>
        <time>2015-11-14T14:10:53Z</time>
      </trkpt>
      <trkpt lat="43.59135" lon="3.34085">
        <ele>237</ele>
        <time>2015-11-14T14:10:54Z</time>
      </trkpt>
      <trkpt lat="43.59134" lon="3.34088">
        <ele>237</ele>
        <time>2015-11-14T14:10:55Z</time>
      </trkpt>
      <trkpt lat="43.59136" lon="3.34091">
        <ele>237.5</ele>
        <time>2015-11-14T14:10:56Z</time>
      </trkpt>
      <trkpt lat="43.59137" lon="3.34094">
        <ele>237</ele>
        <time>2015-11-14T14:10:57Z</time>
      </trkpt>
      <trkpt lat="43.59137" lon="3.34097">
        <ele>237</ele>
        <time>2015-11-14T14:10:58Z</time>
      </trkpt>
      <trkpt lat="43.59137" lon="3.34099">
        <ele>237.5</ele>
        <time>2015-11-14T14:10:59Z</time>
      </trkpt>
      <trkpt lat="43.59136" lon="3.34101">
        <ele>237.5</ele>
        <time>2015-11-14T14:11:00Z</time>
      </trkpt>
      <trkpt lat="43.59136" lon="3.34103">
        <ele>237.5</ele>
        <time>2015-11-14T14:11:01Z</time>
      </trkpt>
      <trkpt lat="43.59137" lon="3.34105">
        <ele>237.5</ele>
        <time>2015-11-14T14:11:02Z</time>
      </trkpt>
      <trkpt lat="43.59137" lon="3.34108">
        <ele>238</ele>
        <time>2015-11-14T14:11:03Z</time>
      </trkpt>
      <trkpt lat="43.59137" lon="3.3411">
        <ele>238</ele>
        <time>2015-11-14T14:11:04Z</time>
      </trkpt>
      <trkpt lat="43.59138" lon="3.34113">
        <ele>238.5</ele>
        <time>2015-11-14T14:11:05Z</time>
      </trkpt>
      <trkpt lat="43.59138" lon="3.34115">
        <ele>238.5</ele>
        <time>2015-11-14T14:11:06Z</time>
      </trkpt>
      <trkpt lat="43.59138" lon="3.34117">
        <ele>239</ele>
        <time>2015-11-14T14:11:07Z</time>
      </trkpt>
      <trkpt lat="43.59138" lon="3.3412">
        <ele>239</ele>
        <time>2015-11-14T14:11:08Z</time>
      </trkpt>
      <trkpt lat="43.59138" lon="3.34121">
        <ele>239.5</ele>
        <time>2015-11-14T14:11:09Z</time>
      </trkpt>
      <trkpt lat="43.59138" lon="3.34124">
        <ele>239.5</ele>
        <time>2015-11-14T14:11:10Z</time>
      </trkpt>
      <trkpt lat="43.59138" lon="3.34126">
        <ele>239</ele>
        <time>2015-11-14T14:11:11Z</time>
      </trkpt>
      <trkpt lat="43.59137" lon="3.34129">
        <ele>237.5</ele>
        <time>2015-11-14T14:11:12Z</time>
      </trkpt>
      <trkpt lat="43.59137" lon="3.34131">
        <ele>237</ele>
        <time>2015-11-14T14:11:13Z</time>
      </trkpt>
      <trkpt lat="43.59137" lon="3.34134">
        <ele>237</ele>
        <time>2015-11-14T14:11:14Z</time>
      </trkpt>
      <trkpt lat="43.59137" lon="3.34136">
        <ele>237</ele>
        <time>2015-11-14T14:11:15Z</time>
      </trkpt>
      <trkpt lat="43.59138" lon="3.34139">
        <ele>236.5</ele>
        <time>2015-11-14T14:11:16Z</time>
      </trkpt>
      <trkpt lat="43.59138" lon="3.34141">
        <ele>237</ele>
        <time>2015-11-14T14:11:17Z</time>
      </trkpt>
      <trkpt lat="43.59138" lon="3.34143">
        <ele>237</ele>
        <time>2015-11-14T14:11:18Z</time>
      </trkpt>
      <trkpt lat="43.59138" lon="3.34146">
        <ele>237</ele>
        <time>2015-11-14T14:11:19Z</time>
      </trkpt>
      <trkpt lat="43.59138" lon="3.34148">
        <ele>236.5</ele>
        <time>2015-11-14T14:11:20Z</time>
      </trkpt>
      <trkpt lat="43.59138" lon="3.34151">
        <ele>236</ele>
        <time>2015-11-14T14:11:21Z</time>
      </trkpt>
      <trkpt lat="43.59139" lon="3.34153">
        <ele>236</ele>
        <time>2015-11-14T14:11:22Z</time>
      </trkpt>
      <trkpt lat="43.59139" lon="3.34156">
        <ele>236</ele>
        <time>2015-11-14T14:11:23Z</time>
      </trkpt>
      <trkpt lat="43.59139" lon="3.34158">
        <ele>236.5</ele>
        <time>2015-11-14T14:11:24Z</time>
      </trkpt>
      <trkpt lat="43.59139" lon="3.3416">
        <ele>237</ele>
        <time>2015-11-14T14:11:25Z</time>
      </trkpt>
      <trkpt lat="43.59139" lon="3.34162">
        <ele>237.5</ele>
        <time>2015-11-14T14:11:26Z</time>
      </trkpt>
      <trkpt lat="43.59138" lon="3.34163">
        <ele>237.5</ele>
        <time>2015-11-14T14:11:27Z</time>
      </trkpt>
      <trkpt lat="43.59138" lon="3.34165">
        <ele>237.5</ele>
        <time>2015-11-14T14:11:28Z</time>
      </trkpt>
      <trkpt lat="43.59138" lon="3.34168">
        <ele>238</ele>
        <time>2015-11-14T14:11:29Z</time>
      </trkpt>
      <trkpt lat="43.59138" lon="3.3417">
        <ele>238</ele>
        <time>2015-11-14T14:11:30Z</time>
      </trkpt>
      <trkpt lat="43.59138" lon="3.34175">
        <ele>238</ele>
        <time>2015-11-14T14:11:32Z</time>
      </trkpt>
      <trkpt lat="43.59138" lon="3.34177">
        <ele>238</ele>
        <time>2015-11-14T14:11:33Z</time>
      </trkpt>
      <trkpt lat="43.59139" lon="3.3418">
        <ele>238.5</ele>
        <time>2015-11-14T14:11:34Z</time>
      </trkpt>
      <trkpt lat="43.59138" lon="3.34182">
        <ele>238.5</ele>
        <time>2015-11-14T14:11:35Z</time>
      </trkpt>
      <trkpt lat="43.59137" lon="3.34185">
        <ele>238.5</ele>
        <time>2015-11-14T14:11:36Z</time>
      </trkpt>
      <trkpt lat="43.59137" lon="3.34187">
        <ele>238.5</ele>
        <time>2015-11-14T14:11:37Z</time>
      </trkpt>
      <trkpt lat="43.59136" lon="3.34189">
        <ele>238.5</ele>
        <time>2015-11-14T14:11:38Z</time>
      </trkpt>
      <trkpt lat="43.59135" lon="3.34192">
        <ele>238.5</ele>
        <time>2015-11-14T14:11:39Z</time>
      </trkpt>
      <trkpt lat="43.59135" lon="3.34194">
        <ele>238.5</ele>
        <time>2015-11-14T14:11:40Z</time>
      </trkpt>
      <trkpt lat="43.59134" lon="3.34196">
        <ele>238.5</ele>
        <time>2015-11-14T14:11:41Z</time>
      </trkpt>
      <trkpt lat="43.59134" lon="3.34198">
        <ele>238.5</ele>
        <time>2015-11-14T14:11:42Z</time>
      </trkpt>
      <trkpt lat="43.59134" lon="3.342">
        <ele>239.5</ele>
        <time>2015-11-14T14:11:43Z</time>
      </trkpt>
      <trkpt lat="43.59134" lon="3.34202">
        <ele>239.5</ele>
        <time>2015-11-14T14:11:44Z</time>
      </trkpt>
      <trkpt lat="43.59134" lon="3.34204">
        <ele>239.5</ele>
        <time>2015-11-14T14:11:45Z</time>
      </trkpt>
      <trkpt lat="43.59134" lon="3.34206">
        <ele>240</ele>
        <time>2015-11-14T14:11:46Z</time>
      </trkpt>
      <trkpt lat="43.59134" lon="3.34208">
        <ele>239.5</ele>
        <time>2015-11-14T14:11:47Z</time>
      </trkpt>
      <trkpt lat="43.59134" lon="3.3421">
        <ele>239.5</ele>
        <time>2015-11-14T14:11:48Z</time>
      </trkpt>
      <trkpt lat="43.59134" lon="3.34212">
        <ele>239.5</ele>
        <time>2015-11-14T14:11:49Z</time>
      </trkpt>
      <trkpt lat="43.59134" lon="3.34215">
        <ele>239.5</ele>
        <time>2015-11-14T14:11:50Z</time>
      </trkpt>
      <trkpt lat="43.59134" lon="3.34217">
        <ele>239.5</ele>
        <time>2015-11-14T14:11:51Z</time>
      </trkpt>
      <trkpt lat="43.59134" lon="3.34219">
        <ele>239.5</ele>
        <time>2015-11-14T14:11:52Z</time>
      </trkpt>
      <trkpt lat="43.59134" lon="3.34221">
        <ele>239.5</ele>
        <time>2015-11-14T14:11:53Z</time>
      </trkpt>
      <trkpt lat="43.59133" lon="3.34223">
        <ele>239.5</ele>
        <time>2015-11-14T14:11:54Z</time>
      </trkpt>
      <trkpt lat="43.59132" lon="3.34225">
        <ele>239.5</ele>
        <time>2015-11-14T14:11:55Z</time>
      </trkpt>
      <trkpt lat="43.59132" lon="3.34227">
        <ele>239.5</ele>
        <time>2015-11-14T14:11:56Z</time>
      </trkpt>
      <trkpt lat="43.59131" lon="3.34228">
        <ele>239.5</ele>
        <time>2015-11-14T14:11:57Z</time>
      </trkpt>
      <trkpt lat="43.59131" lon="3.3423">
        <ele>240</ele>
        <time>2015-11-14T14:11:58Z</time>
      </trkpt>
      <trkpt lat="43.5913" lon="3.34231">
        <ele>240.5</ele>
        <time>2015-11-14T14:11:59Z</time>
      </trkpt>
      <trkpt lat="43.5913" lon="3.34233">
        <ele>240.5</ele>
        <time>2015-11-14T14:12:00Z</time>
      </trkpt>
      <trkpt lat="43.59129" lon="3.34235">
        <ele>240.5</ele>
        <time>2015-11-14T14:12:01Z</time>
      </trkpt>
      <trkpt lat="43.59129" lon="3.34236">
        <ele>240.5</ele>
        <time>2015-11-14T14:12:02Z</time>
      </trkpt>
      <trkpt lat="43.59129" lon="3.34238">
        <ele>241</ele>
        <time>2015-11-14T14:12:03Z</time>
      </trkpt>
      <trkpt lat="43.59129" lon="3.3424">
        <ele>242</ele>
        <time>2015-11-14T14:12:04Z</time>
      </trkpt>
      <trkpt lat="43.59129" lon="3.34241">
        <ele>242</ele>
        <time>2015-11-14T14:12:05Z</time>
      </trkpt>
      <trkpt lat="43.59129" lon="3.34243">
        <ele>242</ele>
        <time>2015-11-14T14:12:06Z</time>
      </trkpt>
      <trkpt lat="43.59129" lon="3.34245">
        <ele>241.5</ele>
        <time>2015-11-14T14:12:07Z</time>
      </trkpt>
      <trkpt lat="43.59129" lon="3.34247">
        <ele>241.5</ele>
        <time>2015-11-14T14:12:08Z</time>
      </trkpt>
      <trkpt lat="43.59129" lon="3.34249">
        <ele>241.5</ele>
        <time>2015-11-14T14:12:09Z</time>
      </trkpt>
      <trkpt lat="43.59129" lon="3.34252">
        <ele>242</ele>
        <time>2015-11-14T14:12:10Z</time>
      </trkpt>
      <trkpt lat="43.59129" lon="3.34254">
        <ele>242</ele>
        <time>2015-11-14T14:12:11Z</time>
      </trkpt>
      <trkpt lat="43.59129" lon="3.34257">
        <ele>242.5</ele>
        <time>2015-11-14T14:12:12Z</time>
      </trkpt>
      <trkpt lat="43.59128" lon="3.34259">
        <ele>242.5</ele>
        <time>2015-11-14T14:12:13Z</time>
      </trkpt>
      <trkpt lat="43.59128" lon="3.34261">
        <ele>242.5</ele>
        <time>2015-11-14T14:12:14Z</time>
      </trkpt>
      <trkpt lat="43.59129" lon="3.34263">
        <ele>242.5</ele>
        <time>2015-11-14T14:12:15Z</time>
      </trkpt>
      <trkpt lat="43.59129" lon="3.34265">
        <ele>242</ele>
        <time>2015-11-14T14:12:16Z</time>
      </trkpt>
      <trkpt lat="43.59129" lon="3.34267">
        <ele>241.5</ele>
        <time>2015-11-14T14:12:17Z</time>
      </trkpt>
      <trkpt lat="43.5913" lon="3.3427">
        <ele>242</ele>
        <time>2015-11-14T14:12:18Z</time>
      </trkpt>
      <trkpt lat="43.5913" lon="3.34274">
        <ele>241.5</ele>
        <time>2015-11-14T14:12:19Z</time>
      </trkpt>
      <trkpt lat="43.59131" lon="3.34278">
        <ele>242</ele>
        <time>2015-11-14T14:12:20Z</time>
      </trkpt>
      <trkpt lat="43.59131" lon="3.34283">
        <ele>240.5</ele>
        <time>2015-11-14T14:12:21Z</time>
      </trkpt>
      <trkpt lat="43.5913" lon="3.34288">
        <ele>240</ele>
        <time>2015-11-14T14:12:22Z</time>
      </trkpt>
      <trkpt lat="43.5913" lon="3.34293">
        <ele>240.5</ele>
        <time>2015-11-14T14:12:23Z</time>
      </trkpt>
      <trkpt lat="43.5913" lon="3.34297">
        <ele>241</ele>
        <time>2015-11-14T14:12:24Z</time>
      </trkpt>
      <trkpt lat="43.5913" lon="3.34302">
        <ele>241</ele>
        <time>2015-11-14T14:12:25Z</time>
      </trkpt>
      <trkpt lat="43.59132" lon="3.34302">
        <ele>239</ele>
        <time>2015-11-14T14:12:27Z</time>
      </trkpt>
      <trkpt lat="43.59133" lon="3.34303">
        <ele>240</ele>
        <time>2015-11-14T14:12:28Z</time>
      </trkpt>
      <trkpt lat="43.59135" lon="3.34303">
        <ele>241</ele>
        <time>2015-11-14T14:12:29Z</time>
      </trkpt>
      <trkpt lat="43.59134" lon="3.34306">
        <ele>240</ele>
        <time>2015-11-14T14:12:30Z</time>
      </trkpt>
      <trkpt lat="43.59133" lon="3.3431">
        <ele>238</ele>
        <time>2015-11-14T14:12:31Z</time>
      </trkpt>
      <trkpt lat="43.59133" lon="3.34313">
        <ele>237.5</ele>
        <time>2015-11-14T14:12:32Z</time>
      </trkpt>
      <trkpt lat="43.59133" lon="3.34317">
        <ele>240</ele>
        <time>2015-11-14T14:12:33Z</time>
      </trkpt>
      <trkpt lat="43.59132" lon="3.34321">
        <ele>238.5</ele>
        <time>2015-11-14T14:12:34Z</time>
      </trkpt>
      <trkpt lat="43.59132" lon="3.34324">
        <ele>240.5</ele>
        <time>2015-11-14T14:12:35Z</time>
      </trkpt>
      <trkpt lat="43.5913" lon="3.34327">
        <ele>240.5</ele>
        <time>2015-11-14T14:12:36Z</time>
      </trkpt>
      <trkpt lat="43.59131" lon="3.3433">
        <ele>240.5</ele>
        <time>2015-11-14T14:12:37Z</time>
      </trkpt>
      <trkpt lat="43.5913" lon="3.34333">
        <ele>240.5</ele>
        <time>2015-11-14T14:12:38Z</time>
      </trkpt>
      <trkpt lat="43.59129" lon="3.34335">
        <ele>241.5</ele>
        <time>2015-11-14T14:12:39Z</time>
      </trkpt>
      <trkpt lat="43.59128" lon="3.34338">
        <ele>242</ele>
        <time>2015-11-14T14:12:40Z</time>
      </trkpt>
      <trkpt lat="43.59122" lon="3.34351">
        <ele>245.5</ele>
        <time>2015-11-14T14:12:42Z</time>
      </trkpt>
      <trkpt lat="43.59123" lon="3.34354">
        <ele>246.5</ele>
        <time>2015-11-14T14:12:43Z</time>
      </trkpt>
      <trkpt lat="43.59123" lon="3.34357">
        <ele>247</ele>
        <time>2015-11-14T14:12:44Z</time>
      </trkpt>
      <trkpt lat="43.59123" lon="3.34361">
        <ele>247</ele>
        <time>2015-11-14T14:12:45Z</time>
      </trkpt>
      <trkpt lat="43.59123" lon="3.34364">
        <ele>247.5</ele>
        <time>2015-11-14T14:12:46Z</time>
      </trkpt>
      <trkpt lat="43.59124" lon="3.34367">
        <ele>248</ele>
        <time>2015-11-14T14:12:47Z</time>
      </trkpt>
      <trkpt lat="43.59124" lon="3.34369">
        <ele>248.5</ele>
        <time>2015-11-14T14:12:48Z</time>
      </trkpt>
      <trkpt lat="43.59125" lon="3.34372">
        <ele>249</ele>
        <time>2015-11-14T14:12:49Z</time>
      </trkpt>
      <trkpt lat="43.59125" lon="3.34375">
        <ele>248.5</ele>
        <time>2015-11-14T14:12:50Z</time>
      </trkpt>
      <trkpt lat="43.59125" lon="3.34377">
        <ele>248</ele>
        <time>2015-11-14T14:12:51Z</time>
      </trkpt>
      <trkpt lat="43.59126" lon="3.3438">
        <ele>248.5</ele>
        <time>2015-11-14T14:12:52Z</time>
      </trkpt>
      <trkpt lat="43.59127" lon="3.34383">
        <ele>248.5</ele>
        <time>2015-11-14T14:12:53Z</time>
      </trkpt>
      <trkpt lat="43.59127" lon="3.34386">
        <ele>249.5</ele>
        <time>2015-11-14T14:12:54Z</time>
      </trkpt>
      <trkpt lat="43.59131" lon="3.3439">
        <ele>247.5</ele>
        <time>2015-11-14T14:12:56Z</time>
      </trkpt>
      <trkpt lat="43.59132" lon="3.34393">
        <ele>247</ele>
        <time>2015-11-14T14:12:57Z</time>
      </trkpt>
      <trkpt lat="43.59133" lon="3.34397">
        <ele>247</ele>
        <time>2015-11-14T14:12:58Z</time>
      </trkpt>
      <trkpt lat="43.59134" lon="3.344">
        <ele>247</ele>
        <time>2015-11-14T14:12:59Z</time>
      </trkpt>
      <trkpt lat="43.59134" lon="3.34403">
        <ele>247</ele>
        <time>2015-11-14T14:13:00Z</time>
      </trkpt>
      <trkpt lat="43.59136" lon="3.34406">
        <ele>247</ele>
        <time>2015-11-14T14:13:01Z</time>
      </trkpt>
      <trkpt lat="43.59137" lon="3.34409">
        <ele>247.5</ele>
        <time>2015-11-14T14:13:02Z</time>
      </trkpt>
      <trkpt lat="43.59139" lon="3.34412">
        <ele>248</ele>
        <time>2015-11-14T14:13:03Z</time>
      </trkpt>
      <trkpt lat="43.59141" lon="3.34415">
        <ele>248</ele>
        <time>2015-11-14T14:13:04Z</time>
      </trkpt>
      <trkpt lat="43.59142" lon="3.34419">
        <ele>248</ele>
        <time>2015-11-14T14:13:05Z</time>
      </trkpt>
      <trkpt lat="43.59142" lon="3.34424">
        <ele>248.5</ele>
        <time>2015-11-14T14:13:06Z</time>
      </trkpt>
      <trkpt lat="43.59141" lon="3.34429">
        <ele>248.5</ele>
        <time>2015-11-14T14:13:07Z</time>
      </trkpt>
      <trkpt lat="43.59142" lon="3.34433">
        <ele>247.5</ele>
        <time>2015-11-14T14:13:08Z</time>
      </trkpt>
      <trkpt lat="43.59145" lon="3.34433">
        <ele>247.5</ele>
        <time>2015-11-14T14:13:09Z</time>
      </trkpt>
      <trkpt lat="43.59147" lon="3.34435">
        <ele>247.5</ele>
        <time>2015-11-14T14:13:10Z</time>
      </trkpt>
      <trkpt lat="43.59149" lon="3.34437">
        <ele>246</ele>
        <time>2015-11-14T14:13:11Z</time>
      </trkpt>
      <trkpt lat="43.59151" lon="3.34439">
        <ele>245</ele>
        <time>2015-11-14T14:13:12Z</time>
      </trkpt>
      <trkpt lat="43.59153" lon="3.34441">
        <ele>246.5</ele>
        <time>2015-11-14T14:13:13Z</time>
      </trkpt>
      <trkpt lat="43.59154" lon="3.34444">
        <ele>247</ele>
        <time>2015-11-14T14:13:14Z</time>
      </trkpt>
      <trkpt lat="43.59154" lon="3.34447">
        <ele>245.5</ele>
        <time>2015-11-14T14:13:15Z</time>
      </trkpt>
      <trkpt lat="43.59155" lon="3.34449">
        <ele>246</ele>
        <time>2015-11-14T14:13:16Z</time>
      </trkpt>
      <trkpt lat="43.59155" lon="3.34452">
        <ele>246.5</ele>
        <time>2015-11-14T14:13:17Z</time>
      </trkpt>
      <trkpt lat="43.59155" lon="3.34456">
        <ele>246</ele>
        <time>2015-11-14T14:13:18Z</time>
      </trkpt>
      <trkpt lat="43.59155" lon="3.3446">
        <ele>244.5</ele>
        <time>2015-11-14T14:13:19Z</time>
      </trkpt>
      <trkpt lat="43.59154" lon="3.34465">
        <ele>243.5</ele>
        <time>2015-11-14T14:13:20Z</time>
      </trkpt>
      <trkpt lat="43.59153" lon="3.3447">
        <ele>243</ele>
        <time>2015-11-14T14:13:21Z</time>
      </trkpt>
      <trkpt lat="43.59153" lon="3.34473">
        <ele>243</ele>
        <time>2015-11-14T14:13:22Z</time>
      </trkpt>
      <trkpt lat="43.59153" lon="3.34479">
        <ele>242.5</ele>
        <time>2015-11-14T14:13:23Z</time>
      </trkpt>
      <trkpt lat="43.59154" lon="3.34483">
        <ele>242.5</ele>
        <time>2015-11-14T14:13:24Z</time>
      </trkpt>
      <trkpt lat="43.59153" lon="3.3449">
        <ele>243</ele>
        <time>2015-11-14T14:13:25Z</time>
      </trkpt>
      <trkpt lat="43.59158" lon="3.34494">
        <ele>242.5</ele>
        <time>2015-11-14T14:13:26Z</time>
      </trkpt>
      <trkpt lat="43.59159" lon="3.34499">
        <ele>242</ele>
        <time>2015-11-14T14:13:27Z</time>
      </trkpt>
      <trkpt lat="43.5916" lon="3.34504">
        <ele>242</ele>
        <time>2015-11-14T14:13:28Z</time>
      </trkpt>
      <trkpt lat="43.59156" lon="3.34521">
        <ele>242.5</ele>
        <time>2015-11-14T14:13:30Z</time>
      </trkpt>
      <trkpt lat="43.59161" lon="3.34534">
        <ele>243.5</ele>
        <time>2015-11-14T14:13:31Z</time>
      </trkpt>
      <trkpt lat="43.59162" lon="3.34539">
        <ele>243.5</ele>
        <time>2015-11-14T14:13:32Z</time>
      </trkpt>
      <trkpt lat="43.59164" lon="3.34545">
        <ele>242</ele>
        <time>2015-11-14T14:13:33Z</time>
      </trkpt>
      <trkpt lat="43.59168" lon="3.34553">
        <ele>243</ele>
        <time>2015-11-14T14:13:35Z</time>
      </trkpt>
      <trkpt lat="43.59169" lon="3.3456">
        <ele>242.5</ele>
        <time>2015-11-14T14:13:36Z</time>
      </trkpt>
      <trkpt lat="43.5917" lon="3.34567">
        <ele>242</ele>
        <time>2015-11-14T14:13:37Z</time>
      </trkpt>
      <trkpt lat="43.59172" lon="3.34574">
        <ele>242.5</ele>
        <time>2015-11-14T14:13:38Z</time>
      </trkpt>
      <trkpt lat="43.59174" lon="3.34579">
        <ele>243</ele>
        <time>2015-11-14T14:13:39Z</time>
      </trkpt>
      <trkpt lat="43.59174" lon="3.34584">
        <ele>242.5</ele>
        <time>2015-11-14T14:13:40Z</time>
      </trkpt>
      <trkpt lat="43.59177" lon="3.34586">
        <ele>242.5</ele>
        <time>2015-11-14T14:13:41Z</time>
      </trkpt>
      <trkpt lat="43.59179" lon="3.34587">
        <ele>242.5</ele>
        <time>2015-11-14T14:13:42Z</time>
      </trkpt>
      <trkpt lat="43.59179" lon="3.34592">
        <ele>242.5</ele>
        <time>2015-11-14T14:13:43Z</time>
      </trkpt>
      <trkpt lat="43.59181" lon="3.34596">
        <ele>242.5</ele>
        <time>2015-11-14T14:13:44Z</time>
      </trkpt>
      <trkpt lat="43.59184" lon="3.34599">
        <ele>242.5</ele>
        <time>2015-11-14T14:13:45Z</time>
      </trkpt>
      <trkpt lat="43.59186" lon="3.34599">
        <ele>244.5</ele>
        <time>2015-11-14T14:13:46Z</time>
      </trkpt>
      <trkpt lat="43.59187" lon="3.346">
        <ele>244.5</ele>
        <time>2015-11-14T14:13:47Z</time>
      </trkpt>
      <trkpt lat="43.59189" lon="3.34601">
        <ele>245.5</ele>
        <time>2015-11-14T14:13:48Z</time>
      </trkpt>
      <trkpt lat="43.5919" lon="3.34603">
        <ele>245</ele>
        <time>2015-11-14T14:13:49Z</time>
      </trkpt>
      <trkpt lat="43.59191" lon="3.34605">
        <ele>245</ele>
        <time>2015-11-14T14:13:50Z</time>
      </trkpt>
      <trkpt lat="43.59192" lon="3.34608">
        <ele>244</ele>
        <time>2015-11-14T14:13:51Z</time>
      </trkpt>
      <trkpt lat="43.59195" lon="3.3461">
        <ele>245</ele>
        <time>2015-11-14T14:13:52Z</time>
      </trkpt>
      <trkpt lat="43.59196" lon="3.34614">
        <ele>244.5</ele>
        <time>2015-11-14T14:13:53Z</time>
      </trkpt>
      <trkpt lat="43.59196" lon="3.34617">
        <ele>244</ele>
        <time>2015-11-14T14:13:54Z</time>
      </trkpt>
      <trkpt lat="43.59196" lon="3.34619">
        <ele>243.5</ele>
        <time>2015-11-14T14:13:55Z</time>
      </trkpt>
      <trkpt lat="43.59197" lon="3.34622">
        <ele>242.5</ele>
        <time>2015-11-14T14:13:56Z</time>
      </trkpt>
      <trkpt lat="43.59198" lon="3.34624">
        <ele>241</ele>
        <time>2015-11-14T14:13:57Z</time>
      </trkpt>
      <trkpt lat="43.592" lon="3.34627">
        <ele>240.5</ele>
        <time>2015-11-14T14:13:58Z</time>
      </trkpt>
      <trkpt lat="43.59202" lon="3.34631">
        <ele>240.5</ele>
        <time>2015-11-14T14:13:59Z</time>
      </trkpt>
      <trkpt lat="43.59203" lon="3.34634">
        <ele>240</ele>
        <time>2015-11-14T14:14:00Z</time>
      </trkpt>
      <trkpt lat="43.59204" lon="3.34637">
        <ele>239.5</ele>
        <time>2015-11-14T14:14:02Z</time>
      </trkpt>
      <trkpt lat="43.59205" lon="3.34647">
        <ele>241</ele>
        <time>2015-11-14T14:14:03Z</time>
      </trkpt>
      <trkpt lat="43.59206" lon="3.3465">
        <ele>241</ele>
        <time>2015-11-14T14:14:04Z</time>
      </trkpt>
      <trkpt lat="43.59207" lon="3.34653">
        <ele>239.5</ele>
        <time>2015-11-14T14:14:05Z</time>
      </trkpt>
      <trkpt lat="43.59209" lon="3.34657">
        <ele>240</ele>
        <time>2015-11-14T14:14:06Z</time>
      </trkpt>
      <trkpt lat="43.5921" lon="3.34665">
        <ele>239</ele>
        <time>2015-11-14T14:14:08Z</time>
      </trkpt>
      <trkpt lat="43.59212" lon="3.34669">
        <ele>239.5</ele>
        <time>2015-11-14T14:14:09Z</time>
      </trkpt>
      <trkpt lat="43.59213" lon="3.34674">
        <ele>238.5</ele>
        <time>2015-11-14T14:14:10Z</time>
      </trkpt>
      <trkpt lat="43.59214" lon="3.34678">
        <ele>239</ele>
        <time>2015-11-14T14:14:11Z</time>
      </trkpt>
      <trkpt lat="43.59215" lon="3.34682">
        <ele>239</ele>
        <time>2015-11-14T14:14:12Z</time>
      </trkpt>
      <trkpt lat="43.59213" lon="3.34696">
        <ele>239</ele>
        <time>2015-11-14T14:14:14Z</time>
      </trkpt>
      <trkpt lat="43.59217" lon="3.34707">
        <ele>240</ele>
        <time>2015-11-14T14:14:16Z</time>
      </trkpt>
      <trkpt lat="43.59219" lon="3.34712">
        <ele>240</ele>
        <time>2015-11-14T14:14:17Z</time>
      </trkpt>
      <trkpt lat="43.5922" lon="3.34718">
        <ele>240</ele>
        <time>2015-11-14T14:14:18Z</time>
      </trkpt>
      <trkpt lat="43.5922" lon="3.34724">
        <ele>240.5</ele>
        <time>2015-11-14T14:14:19Z</time>
      </trkpt>
      <trkpt lat="43.5922" lon="3.34729">
        <ele>240.5</ele>
        <time>2015-11-14T14:14:20Z</time>
      </trkpt>
      <trkpt lat="43.59221" lon="3.34735">
        <ele>240.5</ele>
        <time>2015-11-14T14:14:21Z</time>
      </trkpt>
      <trkpt lat="43.59221" lon="3.34742">
        <ele>239.5</ele>
        <time>2015-11-14T14:14:22Z</time>
      </trkpt>
      <trkpt lat="43.59221" lon="3.34748">
        <ele>240.5</ele>
        <time>2015-11-14T14:14:23Z</time>
      </trkpt>
      <trkpt lat="43.5922" lon="3.34755">
        <ele>240.5</ele>
        <time>2015-11-14T14:14:24Z</time>
      </trkpt>
      <trkpt lat="43.59219" lon="3.34761">
        <ele>240</ele>
        <time>2015-11-14T14:14:25Z</time>
      </trkpt>
      <trkpt lat="43.59221" lon="3.34766">
        <ele>239.5</ele>
        <time>2015-11-14T14:14:26Z</time>
      </trkpt>
      <trkpt lat="43.59221" lon="3.34773">
        <ele>239.5</ele>
        <time>2015-11-14T14:14:27Z</time>
      </trkpt>
      <trkpt lat="43.59222" lon="3.34779">
        <ele>240</ele>
        <time>2015-11-14T14:14:28Z</time>
      </trkpt>
      <trkpt lat="43.59222" lon="3.34785">
        <ele>239.5</ele>
        <time>2015-11-14T14:14:29Z</time>
      </trkpt>
      <trkpt lat="43.5922" lon="3.3479">
        <ele>238.5</ele>
        <time>2015-11-14T14:14:30Z</time>
      </trkpt>
      <trkpt lat="43.59218" lon="3.34795">
        <ele>238.5</ele>
        <time>2015-11-14T14:14:31Z</time>
      </trkpt>
      <trkpt lat="43.59218" lon="3.348">
        <ele>241</ele>
        <time>2015-11-14T14:14:32Z</time>
      </trkpt>
      <trkpt lat="43.59216" lon="3.34805">
        <ele>242.5</ele>
        <time>2015-11-14T14:14:33Z</time>
      </trkpt>
      <trkpt lat="43.59214" lon="3.34809">
        <ele>241</ele>
        <time>2015-11-14T14:14:34Z</time>
      </trkpt>
      <trkpt lat="43.59212" lon="3.34814">
        <ele>240</ele>
        <time>2015-11-14T14:14:35Z</time>
      </trkpt>
      <trkpt lat="43.59209" lon="3.34819">
        <ele>240</ele>
        <time>2015-11-14T14:14:36Z</time>
      </trkpt>
      <trkpt lat="43.59207" lon="3.34824">
        <ele>239.5</ele>
        <time>2015-11-14T14:14:37Z</time>
      </trkpt>
      <trkpt lat="43.59204" lon="3.34838">
        <ele>241</ele>
        <time>2015-11-14T14:14:39Z</time>
      </trkpt>
      <trkpt lat="43.59205" lon="3.34844">
        <ele>241.5</ele>
        <time>2015-11-14T14:14:40Z</time>
      </trkpt>
      <trkpt lat="43.59207" lon="3.3485">
        <ele>242</ele>
        <time>2015-11-14T14:14:41Z</time>
      </trkpt>
      <trkpt lat="43.5921" lon="3.34855">
        <ele>242</ele>
        <time>2015-11-14T14:14:42Z</time>
      </trkpt>
      <trkpt lat="43.59213" lon="3.34861">
        <ele>242</ele>
        <time>2015-11-14T14:14:43Z</time>
      </trkpt>
      <trkpt lat="43.59214" lon="3.34866">
        <ele>242</ele>
        <time>2015-11-14T14:14:44Z</time>
      </trkpt>
      <trkpt lat="43.59216" lon="3.34871">
        <ele>242</ele>
        <time>2015-11-14T14:14:45Z</time>
      </trkpt>
      <trkpt lat="43.59217" lon="3.34875">
        <ele>242</ele>
        <time>2015-11-14T14:14:46Z</time>
      </trkpt>
      <trkpt lat="43.59219" lon="3.34878">
        <ele>242.5</ele>
        <time>2015-11-14T14:14:47Z</time>
      </trkpt>
      <trkpt lat="43.59221" lon="3.3488">
        <ele>244</ele>
        <time>2015-11-14T14:14:48Z</time>
      </trkpt>
      <trkpt lat="43.59223" lon="3.34882">
        <ele>244.5</ele>
        <time>2015-11-14T14:14:49Z</time>
      </trkpt>
      <trkpt lat="43.59225" lon="3.34886">
        <ele>244.5</ele>
        <time>2015-11-14T14:14:50Z</time>
      </trkpt>
      <trkpt lat="43.59226" lon="3.3489">
        <ele>242.5</ele>
        <time>2015-11-14T14:14:51Z</time>
      </trkpt>
      <trkpt lat="43.59228" lon="3.34894">
        <ele>243.5</ele>
        <time>2015-11-14T14:14:52Z</time>
      </trkpt>
      <trkpt lat="43.59229" lon="3.34899">
        <ele>243.5</ele>
        <time>2015-11-14T14:14:53Z</time>
      </trkpt>
      <trkpt lat="43.59231" lon="3.34903">
        <ele>243</ele>
        <time>2015-11-14T14:14:54Z</time>
      </trkpt>
      <trkpt lat="43.5923" lon="3.34908">
        <ele>241.5</ele>
        <time>2015-11-14T14:14:55Z</time>
      </trkpt>
      <trkpt lat="43.59232" lon="3.34912">
        <ele>240</ele>
        <time>2015-11-14T14:14:56Z</time>
      </trkpt>
      <trkpt lat="43.59231" lon="3.34918">
        <ele>239.5</ele>
        <time>2015-11-14T14:14:57Z</time>
      </trkpt>
      <trkpt lat="43.59232" lon="3.34925">
        <ele>239</ele>
        <time>2015-11-14T14:14:58Z</time>
      </trkpt>
      <trkpt lat="43.59234" lon="3.34932">
        <ele>238</ele>
        <time>2015-11-14T14:14:59Z</time>
      </trkpt>
      <trkpt lat="43.59234" lon="3.34941">
        <ele>237</ele>
        <time>2015-11-14T14:15:00Z</time>
      </trkpt>
      <trkpt lat="43.59235" lon="3.3495">
        <ele>235.5</ele>
        <time>2015-11-14T14:15:01Z</time>
      </trkpt>
      <trkpt lat="43.59236" lon="3.34957">
        <ele>234.5</ele>
        <time>2015-11-14T14:15:02Z</time>
      </trkpt>
      <trkpt lat="43.59236" lon="3.34964">
        <ele>234</ele>
        <time>2015-11-14T14:15:03Z</time>
      </trkpt>
      <trkpt lat="43.59236" lon="3.3497">
        <ele>233</ele>
        <time>2015-11-14T14:15:04Z</time>
      </trkpt>
      <trkpt lat="43.59237" lon="3.34976">
        <ele>232</ele>
        <time>2015-11-14T14:15:05Z</time>
      </trkpt>
      <trkpt lat="43.59239" lon="3.34982">
        <ele>231</ele>
        <time>2015-11-14T14:15:06Z</time>
      </trkpt>
      <trkpt lat="43.5924" lon="3.34988">
        <ele>231</ele>
        <time>2015-11-14T14:15:07Z</time>
      </trkpt>
      <trkpt lat="43.59241" lon="3.34993">
        <ele>230</ele>
        <time>2015-11-14T14:15:08Z</time>
      </trkpt>
      <trkpt lat="43.59242" lon="3.34997">
        <ele>229</ele>
        <time>2015-11-14T14:15:09Z</time>
      </trkpt>
      <trkpt lat="43.59244" lon="3.35002">
        <ele>227.5</ele>
        <time>2015-11-14T14:15:10Z</time>
      </trkpt>
      <trkpt lat="43.59246" lon="3.35007">
        <ele>227</ele>
        <time>2015-11-14T14:15:11Z</time>
      </trkpt>
      <trkpt lat="43.59247" lon="3.35012">
        <ele>226</ele>
        <time>2015-11-14T14:15:12Z</time>
      </trkpt>
      <trkpt lat="43.59249" lon="3.35018">
        <ele>225</ele>
        <time>2015-11-14T14:15:13Z</time>
      </trkpt>
      <trkpt lat="43.59252" lon="3.35023">
        <ele>225</ele>
        <time>2015-11-14T14:15:14Z</time>
      </trkpt>
      <trkpt lat="43.59253" lon="3.35028">
        <ele>225</ele>
        <time>2015-11-14T14:15:15Z</time>
      </trkpt>
      <trkpt lat="43.59256" lon="3.35033">
        <ele>224</ele>
        <time>2015-11-14T14:15:16Z</time>
      </trkpt>
      <trkpt lat="43.5926" lon="3.35038">
        <ele>224</ele>
        <time>2015-11-14T14:15:17Z</time>
      </trkpt>
      <trkpt lat="43.59261" lon="3.35042">
        <ele>221.5</ele>
        <time>2015-11-14T14:15:18Z</time>
      </trkpt>
      <trkpt lat="43.59262" lon="3.35045">
        <ele>220</ele>
        <time>2015-11-14T14:15:19Z</time>
      </trkpt>
      <trkpt lat="43.59263" lon="3.35048">
        <ele>219</ele>
        <time>2015-11-14T14:15:20Z</time>
      </trkpt>
      <trkpt lat="43.59264" lon="3.35052">
        <ele>218.5</ele>
        <time>2015-11-14T14:15:21Z</time>
      </trkpt>
      <trkpt lat="43.59265" lon="3.35056">
        <ele>217</ele>
        <time>2015-11-14T14:15:22Z</time>
      </trkpt>
      <trkpt lat="43.59264" lon="3.35059">
        <ele>215</ele>
        <time>2015-11-14T14:15:23Z</time>
      </trkpt>
      <trkpt lat="43.59263" lon="3.35062">
        <ele>213.5</ele>
        <time>2015-11-14T14:15:24Z</time>
      </trkpt>
      <trkpt lat="43.59261" lon="3.35065">
        <ele>213.5</ele>
        <time>2015-11-14T14:15:25Z</time>
      </trkpt>
      <trkpt lat="43.59259" lon="3.35067">
        <ele>213.5</ele>
        <time>2015-11-14T14:15:26Z</time>
      </trkpt>
      <trkpt lat="43.59255" lon="3.35067">
        <ele>215.5</ele>
        <time>2015-11-14T14:15:27Z</time>
      </trkpt>
      <trkpt lat="43.59251" lon="3.35066">
        <ele>215</ele>
        <time>2015-11-14T14:15:28Z</time>
      </trkpt>
      <trkpt lat="43.59247" lon="3.35064">
        <ele>215.5</ele>
        <time>2015-11-14T14:15:29Z</time>
      </trkpt>
      <trkpt lat="43.59244" lon="3.35063">
        <ele>215.5</ele>
        <time>2015-11-14T14:15:30Z</time>
      </trkpt>
      <trkpt lat="43.59239" lon="3.35063">
        <ele>215.5</ele>
        <time>2015-11-14T14:15:31Z</time>
      </trkpt>
      <trkpt lat="43.59235" lon="3.35064">
        <ele>216</ele>
        <time>2015-11-14T14:15:32Z</time>
      </trkpt>
      <trkpt lat="43.59229" lon="3.35065">
        <ele>215.5</ele>
        <time>2015-11-14T14:15:33Z</time>
      </trkpt>
      <trkpt lat="43.59224" lon="3.35065">
        <ele>214.5</ele>
        <time>2015-11-14T14:15:34Z</time>
      </trkpt>
      <trkpt lat="43.59219" lon="3.35063">
        <ele>215</ele>
        <time>2015-11-14T14:15:35Z</time>
      </trkpt>
      <trkpt lat="43.59214" lon="3.35061">
        <ele>214.5</ele>
        <time>2015-11-14T14:15:36Z</time>
      </trkpt>
      <trkpt lat="43.5921" lon="3.35059">
        <ele>214.5</ele>
        <time>2015-11-14T14:15:37Z</time>
      </trkpt>
      <trkpt lat="43.59204" lon="3.35058">
        <ele>214</ele>
        <time>2015-11-14T14:15:38Z</time>
      </trkpt>
      <trkpt lat="43.592" lon="3.35055">
        <ele>213.5</ele>
        <time>2015-11-14T14:15:39Z</time>
      </trkpt>
      <trkpt lat="43.59197" lon="3.35055">
        <ele>212.5</ele>
        <time>2015-11-14T14:15:40Z</time>
      </trkpt>
      <trkpt lat="43.59194" lon="3.3506">
        <ele>212</ele>
        <time>2015-11-14T14:15:41Z</time>
      </trkpt>
      <trkpt lat="43.59188" lon="3.35074">
        <ele>212</ele>
        <time>2015-11-14T14:15:43Z</time>
      </trkpt>
      <trkpt lat="43.59189" lon="3.3508">
        <ele>211.5</ele>
        <time>2015-11-14T14:15:44Z</time>
      </trkpt>
      <trkpt lat="43.59194" lon="3.35085">
        <ele>211.5</ele>
        <time>2015-11-14T14:15:45Z</time>
      </trkpt>
      <trkpt lat="43.59196" lon="3.3509">
        <ele>209.5</ele>
        <time>2015-11-14T14:15:46Z</time>
      </trkpt>
      <trkpt lat="43.59199" lon="3.35095">
        <ele>208.5</ele>
        <time>2015-11-14T14:15:47Z</time>
      </trkpt>
      <trkpt lat="43.59203" lon="3.351">
        <ele>208</ele>
        <time>2015-11-14T14:15:48Z</time>
      </trkpt>
      <trkpt lat="43.59206" lon="3.35107">
        <ele>208.5</ele>
        <time>2015-11-14T14:15:49Z</time>
      </trkpt>
      <trkpt lat="43.59208" lon="3.35115">
        <ele>208</ele>
        <time>2015-11-14T14:15:50Z</time>
      </trkpt>
      <trkpt lat="43.59211" lon="3.35123">
        <ele>207</ele>
        <time>2015-11-14T14:15:51Z</time>
      </trkpt>
      <trkpt lat="43.59211" lon="3.35131">
        <ele>205</ele>
        <time>2015-11-14T14:15:52Z</time>
      </trkpt>
      <trkpt lat="43.59214" lon="3.3514">
        <ele>205</ele>
        <time>2015-11-14T14:15:53Z</time>
      </trkpt>
      <trkpt lat="43.59213" lon="3.35148">
        <ele>204</ele>
        <time>2015-11-14T14:15:54Z</time>
      </trkpt>
      <trkpt lat="43.59212" lon="3.35154">
        <ele>203.5</ele>
        <time>2015-11-14T14:15:55Z</time>
      </trkpt>
      <trkpt lat="43.59211" lon="3.35161">
        <ele>203</ele>
        <time>2015-11-14T14:15:56Z</time>
      </trkpt>
      <trkpt lat="43.5921" lon="3.35166">
        <ele>202.5</ele>
        <time>2015-11-14T14:15:57Z</time>
      </trkpt>
      <trkpt lat="43.5921" lon="3.35172">
        <ele>202</ele>
        <time>2015-11-14T14:15:58Z</time>
      </trkpt>
      <trkpt lat="43.59212" lon="3.35179">
        <ele>201.5</ele>
        <time>2015-11-14T14:15:59Z</time>
      </trkpt>
      <trkpt lat="43.59214" lon="3.35185">
        <ele>201.5</ele>
        <time>2015-11-14T14:16:00Z</time>
      </trkpt>
      <trkpt lat="43.59216" lon="3.35189">
        <ele>201</ele>
        <time>2015-11-14T14:16:01Z</time>
      </trkpt>
      <trkpt lat="43.59218" lon="3.35194">
        <ele>200.5</ele>
        <time>2015-11-14T14:16:02Z</time>
      </trkpt>
      <trkpt lat="43.5922" lon="3.35197">
        <ele>199</ele>
        <time>2015-11-14T14:16:03Z</time>
      </trkpt>
      <trkpt lat="43.59222" lon="3.35201">
        <ele>198.5</ele>
        <time>2015-11-14T14:16:04Z</time>
      </trkpt>
      <trkpt lat="43.59224" lon="3.35203">
        <ele>198.5</ele>
        <time>2015-11-14T14:16:05Z</time>
      </trkpt>
      <trkpt lat="43.59223" lon="3.35208">
        <ele>198.5</ele>
        <time>2015-11-14T14:16:06Z</time>
      </trkpt>
      <trkpt lat="43.59223" lon="3.35213">
        <ele>198</ele>
        <time>2015-11-14T14:16:07Z</time>
      </trkpt>
      <trkpt lat="43.59222" lon="3.35218">
        <ele>198.5</ele>
        <time>2015-11-14T14:16:08Z</time>
      </trkpt>
      <trkpt lat="43.59221" lon="3.35222">
        <ele>198</ele>
        <time>2015-11-14T14:16:09Z</time>
      </trkpt>
      <trkpt lat="43.5922" lon="3.35227">
        <ele>198</ele>
        <time>2015-11-14T14:16:10Z</time>
      </trkpt>
      <trkpt lat="43.59219" lon="3.3523">
        <ele>197.5</ele>
        <time>2015-11-14T14:16:11Z</time>
      </trkpt>
      <trkpt lat="43.59217" lon="3.35233">
        <ele>198</ele>
        <time>2015-11-14T14:16:12Z</time>
      </trkpt>
      <trkpt lat="43.59216" lon="3.35235">
        <ele>198.5</ele>
        <time>2015-11-14T14:16:13Z</time>
      </trkpt>
      <trkpt lat="43.59218" lon="3.35236">
        <ele>198.5</ele>
        <time>2015-11-14T14:16:14Z</time>
      </trkpt>
      <trkpt lat="43.59218" lon="3.35236">
        <ele>198</ele>
        <time>2015-11-14T14:16:24Z</time>
      </trkpt>
      <trkpt lat="43.59217" lon="3.35237">
        <ele>198.5</ele>
        <time>2015-11-14T14:16:26Z</time>
      </trkpt>
      <trkpt lat="43.59217" lon="3.35237">
        <ele>199.5</ele>
        <time>2015-11-14T14:16:29Z</time>
      </trkpt>
      <trkpt lat="43.59217" lon="3.35238">
        <ele>201</ele>
        <time>2015-11-14T14:16:32Z</time>
      </trkpt>
      <trkpt lat="43.59216" lon="3.35239">
        <ele>202</ele>
        <time>2015-11-14T14:16:35Z</time>
      </trkpt>
      <trkpt lat="43.59215" lon="3.3524">
        <ele>201.5</ele>
        <time>2015-11-14T14:16:37Z</time>
      </trkpt>
      <trkpt lat="43.59214" lon="3.35241">
        <ele>201.5</ele>
        <time>2015-11-14T14:16:38Z</time>
      </trkpt>
      <trkpt lat="43.59213" lon="3.35243">
        <ele>201.5</ele>
        <time>2015-11-14T14:16:39Z</time>
      </trkpt>
      <trkpt lat="43.59212" lon="3.35244">
        <ele>202</ele>
        <time>2015-11-14T14:16:40Z</time>
      </trkpt>
      <trkpt lat="43.59211" lon="3.35247">
        <ele>202.5</ele>
        <time>2015-11-14T14:16:41Z</time>
      </trkpt>
      <trkpt lat="43.59209" lon="3.35249">
        <ele>202.5</ele>
        <time>2015-11-14T14:16:42Z</time>
      </trkpt>
      <trkpt lat="43.59208" lon="3.35253">
        <ele>202</ele>
        <time>2015-11-14T14:16:43Z</time>
      </trkpt>
      <trkpt lat="43.59208" lon="3.35257">
        <ele>202</ele>
        <time>2015-11-14T14:16:44Z</time>
      </trkpt>
      <trkpt lat="43.59207" lon="3.35261">
        <ele>202</ele>
        <time>2015-11-14T14:16:45Z</time>
      </trkpt>
      <trkpt lat="43.59206" lon="3.35266">
        <ele>202</ele>
        <time>2015-11-14T14:16:46Z</time>
      </trkpt>
      <trkpt lat="43.59205" lon="3.35272">
        <ele>202</ele>
        <time>2015-11-14T14:16:47Z</time>
      </trkpt>
      <trkpt lat="43.59204" lon="3.35278">
        <ele>201</ele>
        <time>2015-11-14T14:16:48Z</time>
      </trkpt>
      <trkpt lat="43.59203" lon="3.35284">
        <ele>200.5</ele>
        <time>2015-11-14T14:16:49Z</time>
      </trkpt>
      <trkpt lat="43.59201" lon="3.3529">
        <ele>200</ele>
        <time>2015-11-14T14:16:50Z</time>
      </trkpt>
      <trkpt lat="43.59198" lon="3.35295">
        <ele>200</ele>
        <time>2015-11-14T14:16:51Z</time>
      </trkpt>
      <trkpt lat="43.59196" lon="3.353">
        <ele>199</ele>
        <time>2015-11-14T14:16:52Z</time>
      </trkpt>
      <trkpt lat="43.59192" lon="3.35306">
        <ele>198.5</ele>
        <time>2015-11-14T14:16:53Z</time>
      </trkpt>
      <trkpt lat="43.59189" lon="3.35311">
        <ele>199</ele>
        <time>2015-11-14T14:16:54Z</time>
      </trkpt>
      <trkpt lat="43.59186" lon="3.35316">
        <ele>198.5</ele>
        <time>2015-11-14T14:16:55Z</time>
      </trkpt>
      <trkpt lat="43.59185" lon="3.35322">
        <ele>197.5</ele>
        <time>2015-11-14T14:16:56Z</time>
      </trkpt>
      <trkpt lat="43.59184" lon="3.35328">
        <ele>197.5</ele>
        <time>2015-11-14T14:16:57Z</time>
      </trkpt>
      <trkpt lat="43.59183" lon="3.35335">
        <ele>197</ele>
        <time>2015-11-14T14:16:58Z</time>
      </trkpt>
      <trkpt lat="43.59182" lon="3.35342">
        <ele>196.5</ele>
        <time>2015-11-14T14:16:59Z</time>
      </trkpt>
      <trkpt lat="43.5918" lon="3.35349">
        <ele>195.5</ele>
        <time>2015-11-14T14:17:00Z</time>
      </trkpt>
      <trkpt lat="43.59177" lon="3.35353">
        <ele>197</ele>
        <time>2015-11-14T14:17:01Z</time>
      </trkpt>
      <trkpt lat="43.59173" lon="3.35354">
        <ele>196</ele>
        <time>2015-11-14T14:17:02Z</time>
      </trkpt>
      <trkpt lat="43.5917" lon="3.35352">
        <ele>196</ele>
        <time>2015-11-14T14:17:03Z</time>
      </trkpt>
      <trkpt lat="43.59166" lon="3.35351">
        <ele>195.5</ele>
        <time>2015-11-14T14:17:04Z</time>
      </trkpt>
      <trkpt lat="43.59161" lon="3.3535">
        <ele>195.5</ele>
        <time>2015-11-14T14:17:05Z</time>
      </trkpt>
      <trkpt lat="43.59157" lon="3.3535">
        <ele>195.5</ele>
        <time>2015-11-14T14:17:06Z</time>
      </trkpt>
      <trkpt lat="43.59152" lon="3.35351">
        <ele>195.5</ele>
        <time>2015-11-14T14:17:07Z</time>
      </trkpt>
      <trkpt lat="43.59148" lon="3.35355">
        <ele>195</ele>
        <time>2015-11-14T14:17:08Z</time>
      </trkpt>
      <trkpt lat="43.59144" lon="3.35359">
        <ele>194</ele>
        <time>2015-11-14T14:17:09Z</time>
      </trkpt>
      <trkpt lat="43.59141" lon="3.35363">
        <ele>193</ele>
        <time>2015-11-14T14:17:10Z</time>
      </trkpt>
      <trkpt lat="43.59138" lon="3.35366">
        <ele>191.5</ele>
        <time>2015-11-14T14:17:11Z</time>
      </trkpt>
      <trkpt lat="43.59135" lon="3.3537">
        <ele>190.5</ele>
        <time>2015-11-14T14:17:12Z</time>
      </trkpt>
      <trkpt lat="43.59131" lon="3.35375">
        <ele>189.5</ele>
        <time>2015-11-14T14:17:13Z</time>
      </trkpt>
      <trkpt lat="43.59126" lon="3.35379">
        <ele>189.5</ele>
        <time>2015-11-14T14:17:14Z</time>
      </trkpt>
      <trkpt lat="43.59122" lon="3.35384">
        <ele>189.5</ele>
        <time>2015-11-14T14:17:15Z</time>
      </trkpt>
      <trkpt lat="43.59117" lon="3.35389">
        <ele>190</ele>
        <time>2015-11-14T14:17:15Z</time>
      </trkpt>
      <trkpt lat="43.59113" lon="3.35392">
        <ele>189</ele>
        <time>2015-11-14T14:17:16Z</time>
      </trkpt>
      <trkpt lat="43.59109" lon="3.35396">
        <ele>189</ele>
        <time>2015-11-14T14:17:18Z</time>
      </trkpt>
      <trkpt lat="43.59104" lon="3.35399">
        <ele>189</ele>
        <time>2015-11-14T14:17:18Z</time>
      </trkpt>
      <trkpt lat="43.59099" lon="3.35402">
        <ele>188.5</ele>
        <time>2015-11-14T14:17:19Z</time>
      </trkpt>
      <trkpt lat="43.59094" lon="3.35404">
        <ele>188</ele>
        <time>2015-11-14T14:17:20Z</time>
      </trkpt>
      <trkpt lat="43.59088" lon="3.35406">
        <ele>187.5</ele>
        <time>2015-11-14T14:17:21Z</time>
      </trkpt>
      <trkpt lat="43.59083" lon="3.35409">
        <ele>187</ele>
        <time>2015-11-14T14:17:22Z</time>
      </trkpt>
      <trkpt lat="43.59077" lon="3.35413">
        <ele>186</ele>
        <time>2015-11-14T14:17:23Z</time>
      </trkpt>
      <trkpt lat="43.59071" lon="3.35418">
        <ele>185</ele>
        <time>2015-11-14T14:17:25Z</time>
      </trkpt>
      <trkpt lat="43.59065" lon="3.35423">
        <ele>183.5</ele>
        <time>2015-11-14T14:17:26Z</time>
      </trkpt>
      <trkpt lat="43.59057" lon="3.35428">
        <ele>182.5</ele>
        <time>2015-11-14T14:17:27Z</time>
      </trkpt>
      <trkpt lat="43.59049" lon="3.35434">
        <ele>183</ele>
        <time>2015-11-14T14:17:27Z</time>
      </trkpt>
      <trkpt lat="43.59041" lon="3.35437">
        <ele>181.5</ele>
        <time>2015-11-14T14:17:28Z</time>
      </trkpt>
      <trkpt lat="43.59033" lon="3.35438">
        <ele>183</ele>
        <time>2015-11-14T14:17:29Z</time>
      </trkpt>
      <trkpt lat="43.59026" lon="3.3544">
        <ele>183.5</ele>
        <time>2015-11-14T14:17:30Z</time>
      </trkpt>
      <trkpt lat="43.59019" lon="3.35441">
        <ele>183</ele>
        <time>2015-11-14T14:17:31Z</time>
      </trkpt>
      <trkpt lat="43.59015" lon="3.35446">
        <ele>184</ele>
        <time>2015-11-14T14:17:32Z</time>
      </trkpt>
      <trkpt lat="43.5901" lon="3.35452">
        <ele>184</ele>
        <time>2015-11-14T14:17:33Z</time>
      </trkpt>
      <trkpt lat="43.59005" lon="3.35458">
        <ele>183.5</ele>
        <time>2015-11-14T14:17:34Z</time>
      </trkpt>
      <trkpt lat="43.59001" lon="3.35464">
        <ele>183.5</ele>
        <time>2015-11-14T14:17:35Z</time>
      </trkpt>
      <trkpt lat="43.58997" lon="3.3547">
        <ele>183</ele>
        <time>2015-11-14T14:17:36Z</time>
      </trkpt>
      <trkpt lat="43.58993" lon="3.35475">
        <ele>182.5</ele>
        <time>2015-11-14T14:17:37Z</time>
      </trkpt>
      <trkpt lat="43.5899" lon="3.3548">
        <ele>182.5</ele>
        <time>2015-11-14T14:17:38Z</time>
      </trkpt>
      <trkpt lat="43.58986" lon="3.35485">
        <ele>182.5</ele>
        <time>2015-11-14T14:17:39Z</time>
      </trkpt>
      <trkpt lat="43.58983" lon="3.3549">
        <ele>182.5</ele>
        <time>2015-11-14T14:17:40Z</time>
      </trkpt>
      <trkpt lat="43.5898" lon="3.35495">
        <ele>182.5</ele>
        <time>2015-11-14T14:17:41Z</time>
      </trkpt>
      <trkpt lat="43.58978" lon="3.355">
        <ele>182</ele>
        <time>2015-11-14T14:17:42Z</time>
      </trkpt>
      <trkpt lat="43.58975" lon="3.35505">
        <ele>182</ele>
        <time>2015-11-14T14:17:43Z</time>
      </trkpt>
      <trkpt lat="43.58973" lon="3.35511">
        <ele>181.5</ele>
        <time>2015-11-14T14:17:44Z</time>
      </trkpt>
      <trkpt lat="43.58971" lon="3.35516">
        <ele>181.5</ele>
        <time>2015-11-14T14:17:45Z</time>
      </trkpt>
      <trkpt lat="43.58969" lon="3.35521">
        <ele>181</ele>
        <time>2015-11-14T14:17:46Z</time>
      </trkpt>
      <trkpt lat="43.58967" lon="3.35526">
        <ele>181</ele>
        <time>2015-11-14T14:17:47Z</time>
      </trkpt>
      <trkpt lat="43.58965" lon="3.35531">
        <ele>180.5</ele>
        <time>2015-11-14T14:17:48Z</time>
      </trkpt>
      <trkpt lat="43.58963" lon="3.35536">
        <ele>180</ele>
        <time>2015-11-14T14:17:49Z</time>
      </trkpt>
      <trkpt lat="43.58961" lon="3.35542">
        <ele>179.5</ele>
        <time>2015-11-14T14:17:50Z</time>
      </trkpt>
      <trkpt lat="43.58959" lon="3.35548">
        <ele>179.5</ele>
        <time>2015-11-14T14:17:51Z</time>
      </trkpt>
      <trkpt lat="43.58958" lon="3.35554">
        <ele>179.5</ele>
        <time>2015-11-14T14:17:52Z</time>
      </trkpt>
      <trkpt lat="43.58957" lon="3.3556">
        <ele>179</ele>
        <time>2015-11-14T14:17:53Z</time>
      </trkpt>
      <trkpt lat="43.58956" lon="3.35567">
        <ele>178.5</ele>
        <time>2015-11-14T14:17:54Z</time>
      </trkpt>
      <trkpt lat="43.58948" lon="3.3558">
        <ele>181</ele>
        <time>2015-11-14T14:17:56Z</time>
      </trkpt>
      <trkpt lat="43.58943" lon="3.35584">
        <ele>180.5</ele>
        <time>2015-11-14T14:17:57Z</time>
      </trkpt>
      <trkpt lat="43.58939" lon="3.35588">
        <ele>180</ele>
        <time>2015-11-14T14:17:58Z</time>
      </trkpt>
      <trkpt lat="43.58935" lon="3.35595">
        <ele>180.5</ele>
        <time>2015-11-14T14:17:59Z</time>
      </trkpt>
      <trkpt lat="43.58931" lon="3.35602">
        <ele>180</ele>
        <time>2015-11-14T14:18:01Z</time>
      </trkpt>
      <trkpt lat="43.58927" lon="3.35608">
        <ele>179.5</ele>
        <time>2015-11-14T14:18:01Z</time>
      </trkpt>
      <trkpt lat="43.58924" lon="3.35616">
        <ele>179</ele>
        <time>2015-11-14T14:18:02Z</time>
      </trkpt>
      <trkpt lat="43.5892" lon="3.35626">
        <ele>179</ele>
        <time>2015-11-14T14:18:03Z</time>
      </trkpt>
      <trkpt lat="43.58914" lon="3.3564">
        <ele>177.5</ele>
        <time>2015-11-14T14:18:05Z</time>
      </trkpt>
      <trkpt lat="43.5891" lon="3.35646">
        <ele>177</ele>
        <time>2015-11-14T14:18:06Z</time>
      </trkpt>
      <trkpt lat="43.58907" lon="3.35652">
        <ele>177</ele>
        <time>2015-11-14T14:18:07Z</time>
      </trkpt>
      <trkpt lat="43.58903" lon="3.35658">
        <ele>174</ele>
        <time>2015-11-14T14:18:09Z</time>
      </trkpt>
      <trkpt lat="43.58897" lon="3.35669">
        <ele>173.5</ele>
        <time>2015-11-14T14:18:11Z</time>
      </trkpt>
      <trkpt lat="43.58894" lon="3.35673">
        <ele>172</ele>
        <time>2015-11-14T14:18:12Z</time>
      </trkpt>
      <trkpt lat="43.58881" lon="3.35675">
        <ele>171.5</ele>
        <time>2015-11-14T14:18:14Z</time>
      </trkpt>
      <trkpt lat="43.58876" lon="3.35675">
        <ele>170</ele>
        <time>2015-11-14T14:18:15Z</time>
      </trkpt>
      <trkpt lat="43.58874" lon="3.35679">
        <ele>170</ele>
        <time>2015-11-14T14:18:16Z</time>
      </trkpt>
      <trkpt lat="43.58873" lon="3.35685">
        <ele>170.5</ele>
        <time>2015-11-14T14:18:17Z</time>
      </trkpt>
      <trkpt lat="43.58871" lon="3.35689">
        <ele>170</ele>
        <time>2015-11-14T14:18:18Z</time>
      </trkpt>
      <trkpt lat="43.58868" lon="3.35693">
        <ele>169.5</ele>
        <time>2015-11-14T14:18:19Z</time>
      </trkpt>
      <trkpt lat="43.58865" lon="3.35695">
        <ele>168.5</ele>
        <time>2015-11-14T14:18:20Z</time>
      </trkpt>
      <trkpt lat="43.58862" lon="3.357">
        <ele>169</ele>
        <time>2015-11-14T14:18:21Z</time>
      </trkpt>
      <trkpt lat="43.5886" lon="3.35703">
        <ele>168.5</ele>
        <time>2015-11-14T14:18:22Z</time>
      </trkpt>
      <trkpt lat="43.58858" lon="3.35707">
        <ele>168.5</ele>
        <time>2015-11-14T14:18:23Z</time>
      </trkpt>
      <trkpt lat="43.58855" lon="3.35712">
        <ele>169</ele>
        <time>2015-11-14T14:18:24Z</time>
      </trkpt>
      <trkpt lat="43.58852" lon="3.35716">
        <ele>168.5</ele>
        <time>2015-11-14T14:18:25Z</time>
      </trkpt>
      <trkpt lat="43.58849" lon="3.3572">
        <ele>169</ele>
        <time>2015-11-14T14:18:26Z</time>
      </trkpt>
      <trkpt lat="43.58846" lon="3.35724">
        <ele>169.5</ele>
        <time>2015-11-14T14:18:27Z</time>
      </trkpt>
      <trkpt lat="43.58844" lon="3.35728">
        <ele>169.5</ele>
        <time>2015-11-14T14:18:28Z</time>
      </trkpt>
      <trkpt lat="43.58841" lon="3.35734">
        <ele>170</ele>
        <time>2015-11-14T14:18:29Z</time>
      </trkpt>
      <trkpt lat="43.58838" lon="3.35738">
        <ele>170</ele>
        <time>2015-11-14T14:18:30Z</time>
      </trkpt>
      <trkpt lat="43.58835" lon="3.35743">
        <ele>171</ele>
        <time>2015-11-14T14:18:31Z</time>
      </trkpt>
      <trkpt lat="43.58832" lon="3.35748">
        <ele>171</ele>
        <time>2015-11-14T14:18:32Z</time>
      </trkpt>
      <trkpt lat="43.58829" lon="3.35753">
        <ele>172</ele>
        <time>2015-11-14T14:18:33Z</time>
      </trkpt>
      <trkpt lat="43.58826" lon="3.35757">
        <ele>172</ele>
        <time>2015-11-14T14:18:34Z</time>
      </trkpt>
      <trkpt lat="43.58823" lon="3.35761">
        <ele>172</ele>
        <time>2015-11-14T14:18:35Z</time>
      </trkpt>
      <trkpt lat="43.58819" lon="3.35765">
        <ele>172</ele>
        <time>2015-11-14T14:18:36Z</time>
      </trkpt>
      <trkpt lat="43.58816" lon="3.35768">
        <ele>172</ele>
        <time>2015-11-14T14:18:37Z</time>
      </trkpt>
      <trkpt lat="43.58813" lon="3.35772">
        <ele>172.5</ele>
        <time>2015-11-14T14:18:38Z</time>
      </trkpt>
      <trkpt lat="43.5881" lon="3.35776">
        <ele>173</ele>
        <time>2015-11-14T14:18:39Z</time>
      </trkpt>
      <trkpt lat="43.58807" lon="3.35779">
        <ele>173.5</ele>
        <time>2015-11-14T14:18:40Z</time>
      </trkpt>
      <trkpt lat="43.58804" lon="3.35782">
        <ele>174</ele>
        <time>2015-11-14T14:18:41Z</time>
      </trkpt>
      <trkpt lat="43.58801" lon="3.35785">
        <ele>174</ele>
        <time>2015-11-14T14:18:42Z</time>
      </trkpt>
      <trkpt lat="43.58798" lon="3.35788">
        <ele>174</ele>
        <time>2015-11-14T14:18:43Z</time>
      </trkpt>
      <trkpt lat="43.58795" lon="3.35792">
        <ele>174.5</ele>
        <time>2015-11-14T14:18:44Z</time>
      </trkpt>
      <trkpt lat="43.58793" lon="3.35795">
        <ele>174.5</ele>
        <time>2015-11-14T14:18:45Z</time>
      </trkpt>
      <trkpt lat="43.5879" lon="3.35798">
        <ele>174</ele>
        <time>2015-11-14T14:18:46Z</time>
      </trkpt>
      <trkpt lat="43.58787" lon="3.35801">
        <ele>174</ele>
        <time>2015-11-14T14:18:47Z</time>
      </trkpt>
      <trkpt lat="43.58785" lon="3.35803">
        <ele>173.5</ele>
        <time>2015-11-14T14:18:48Z</time>
      </trkpt>
      <trkpt lat="43.58782" lon="3.35807">
        <ele>173.5</ele>
        <time>2015-11-14T14:18:49Z</time>
      </trkpt>
      <trkpt lat="43.5878" lon="3.3581">
        <ele>172.5</ele>
        <time>2015-11-14T14:18:50Z</time>
      </trkpt>
      <trkpt lat="43.58778" lon="3.35813">
        <ele>173</ele>
        <time>2015-11-14T14:18:51Z</time>
      </trkpt>
      <trkpt lat="43.58775" lon="3.35817">
        <ele>172.5</ele>
        <time>2015-11-14T14:18:52Z</time>
      </trkpt>
      <trkpt lat="43.58773" lon="3.3582">
        <ele>172.5</ele>
        <time>2015-11-14T14:18:53Z</time>
      </trkpt>
      <trkpt lat="43.5877" lon="3.35823">
        <ele>172.5</ele>
        <time>2015-11-14T14:18:54Z</time>
      </trkpt>
      <trkpt lat="43.58768" lon="3.35826">
        <ele>172.5</ele>
        <time>2015-11-14T14:18:55Z</time>
      </trkpt>
      <trkpt lat="43.58765" lon="3.35829">
        <ele>172.5</ele>
        <time>2015-11-14T14:18:56Z</time>
      </trkpt>
      <trkpt lat="43.58762" lon="3.35832">
        <ele>172</ele>
        <time>2015-11-14T14:18:57Z</time>
      </trkpt>
      <trkpt lat="43.5876" lon="3.35836">
        <ele>172</ele>
        <time>2015-11-14T14:18:58Z</time>
      </trkpt>
      <trkpt lat="43.58757" lon="3.3584">
        <ele>172</ele>
        <time>2015-11-14T14:18:59Z</time>
      </trkpt>
      <trkpt lat="43.58755" lon="3.35844">
        <ele>171.5</ele>
        <time>2015-11-14T14:19:00Z</time>
      </trkpt>
      <trkpt lat="43.58752" lon="3.35848">
        <ele>171.5</ele>
        <time>2015-11-14T14:19:01Z</time>
      </trkpt>
      <trkpt lat="43.5875" lon="3.35852">
        <ele>171.5</ele>
        <time>2015-11-14T14:19:02Z</time>
      </trkpt>
      <trkpt lat="43.58747" lon="3.35856">
        <ele>171.5</ele>
        <time>2015-11-14T14:19:03Z</time>
      </trkpt>
      <trkpt lat="43.58744" lon="3.35859">
        <ele>170.5</ele>
        <time>2015-11-14T14:19:04Z</time>
      </trkpt>
      <trkpt lat="43.58741" lon="3.35861">
        <ele>169.5</ele>
        <time>2015-11-14T14:19:05Z</time>
      </trkpt>
      <trkpt lat="43.58738" lon="3.35864">
        <ele>170</ele>
        <time>2015-11-14T14:19:06Z</time>
      </trkpt>
      <trkpt lat="43.58735" lon="3.35868">
        <ele>170</ele>
        <time>2015-11-14T14:19:07Z</time>
      </trkpt>
      <trkpt lat="43.58732" lon="3.35871">
        <ele>170.5</ele>
        <time>2015-11-14T14:19:08Z</time>
      </trkpt>
      <trkpt lat="43.58729" lon="3.35874">
        <ele>170.5</ele>
        <time>2015-11-14T14:19:09Z</time>
      </trkpt>
      <trkpt lat="43.58726" lon="3.35878">
        <ele>171</ele>
        <time>2015-11-14T14:19:10Z</time>
      </trkpt>
      <trkpt lat="43.58722" lon="3.3588">
        <ele>171</ele>
        <time>2015-11-14T14:19:11Z</time>
      </trkpt>
      <trkpt lat="43.58719" lon="3.35883">
        <ele>170.5</ele>
        <time>2015-11-14T14:19:12Z</time>
      </trkpt>
      <trkpt lat="43.58715" lon="3.35887">
        <ele>170.5</ele>
        <time>2015-11-14T14:19:13Z</time>
      </trkpt>
      <trkpt lat="43.58711" lon="3.3589">
        <ele>171</ele>
        <time>2015-11-14T14:19:14Z</time>
      </trkpt>
      <trkpt lat="43.58706" lon="3.35893">
        <ele>171</ele>
        <time>2015-11-14T14:19:15Z</time>
      </trkpt>
      <trkpt lat="43.58702" lon="3.35897">
        <ele>170.5</ele>
        <time>2015-11-14T14:19:16Z</time>
      </trkpt>
      <trkpt lat="43.58698" lon="3.35901">
        <ele>170.5</ele>
        <time>2015-11-14T14:19:17Z</time>
      </trkpt>
      <trkpt lat="43.58694" lon="3.35905">
        <ele>170</ele>
        <time>2015-11-14T14:19:18Z</time>
      </trkpt>
      <trkpt lat="43.5869" lon="3.35908">
        <ele>170</ele>
        <time>2015-11-14T14:19:19Z</time>
      </trkpt>
      <trkpt lat="43.58686" lon="3.35912">
        <ele>170.5</ele>
        <time>2015-11-14T14:19:20Z</time>
      </trkpt>
      <trkpt lat="43.58681" lon="3.35915">
        <ele>171</ele>
        <time>2015-11-14T14:19:21Z</time>
      </trkpt>
      <trkpt lat="43.58677" lon="3.35918">
        <ele>171</ele>
        <time>2015-11-14T14:19:22Z</time>
      </trkpt>
      <trkpt lat="43.58672" lon="3.35922">
        <ele>171.5</ele>
        <time>2015-11-14T14:19:23Z</time>
      </trkpt>
      <trkpt lat="43.58668" lon="3.35925">
        <ele>171.5</ele>
        <time>2015-11-14T14:19:24Z</time>
      </trkpt>
      <trkpt lat="43.58664" lon="3.35927">
        <ele>171</ele>
        <time>2015-11-14T14:19:25Z</time>
      </trkpt>
      <trkpt lat="43.58654" lon="3.35933">
        <ele>173</ele>
        <time>2015-11-14T14:19:27Z</time>
      </trkpt>
      <trkpt lat="43.5865" lon="3.35937">
        <ele>172.5</ele>
        <time>2015-11-14T14:19:28Z</time>
      </trkpt>
      <trkpt lat="43.58645" lon="3.3594">
        <ele>173</ele>
        <time>2015-11-14T14:19:29Z</time>
      </trkpt>
      <trkpt lat="43.58641" lon="3.35943">
        <ele>173</ele>
        <time>2015-11-14T14:19:30Z</time>
      </trkpt>
      <trkpt lat="43.58636" lon="3.35946">
        <ele>173</ele>
        <time>2015-11-14T14:19:31Z</time>
      </trkpt>
      <trkpt lat="43.58632" lon="3.35948">
        <ele>173</ele>
        <time>2015-11-14T14:19:32Z</time>
      </trkpt>
      <trkpt lat="43.58627" lon="3.3595">
        <ele>172.5</ele>
        <time>2015-11-14T14:19:33Z</time>
      </trkpt>
      <trkpt lat="43.58623" lon="3.35952">
        <ele>173</ele>
        <time>2015-11-14T14:19:34Z</time>
      </trkpt>
      <trkpt lat="43.58618" lon="3.35954">
        <ele>173</ele>
        <time>2015-11-14T14:19:35Z</time>
      </trkpt>
      <trkpt lat="43.58614" lon="3.35955">
        <ele>172.5</ele>
        <time>2015-11-14T14:19:36Z</time>
      </trkpt>
      <trkpt lat="43.5861" lon="3.35956">
        <ele>172.5</ele>
        <time>2015-11-14T14:19:37Z</time>
      </trkpt>
      <trkpt lat="43.58605" lon="3.35957">
        <ele>172.5</ele>
        <time>2015-11-14T14:19:38Z</time>
      </trkpt>
      <trkpt lat="43.58601" lon="3.35958">
        <ele>172</ele>
        <time>2015-11-14T14:19:39Z</time>
      </trkpt>
      <trkpt lat="43.58597" lon="3.35959">
        <ele>172</ele>
        <time>2015-11-14T14:19:40Z</time>
      </trkpt>
      <trkpt lat="43.58593" lon="3.3596">
        <ele>171.5</ele>
        <time>2015-11-14T14:19:41Z</time>
      </trkpt>
      <trkpt lat="43.58589" lon="3.35963">
        <ele>171.5</ele>
        <time>2015-11-14T14:19:42Z</time>
      </trkpt>
      <trkpt lat="43.58585" lon="3.35965">
        <ele>171</ele>
        <time>2015-11-14T14:19:43Z</time>
      </trkpt>
      <trkpt lat="43.58581" lon="3.35968">
        <ele>171</ele>
        <time>2015-11-14T14:19:44Z</time>
      </trkpt>
      <trkpt lat="43.58577" lon="3.35971">
        <ele>170.5</ele>
        <time>2015-11-14T14:19:45Z</time>
      </trkpt>
      <trkpt lat="43.58573" lon="3.35973">
        <ele>170.5</ele>
        <time>2015-11-14T14:19:46Z</time>
      </trkpt>
      <trkpt lat="43.58569" lon="3.35976">
        <ele>170.5</ele>
        <time>2015-11-14T14:19:47Z</time>
      </trkpt>
      <trkpt lat="43.58565" lon="3.35979">
        <ele>170.5</ele>
        <time>2015-11-14T14:19:48Z</time>
      </trkpt>
      <trkpt lat="43.58561" lon="3.35982">
        <ele>170.5</ele>
        <time>2015-11-14T14:19:49Z</time>
      </trkpt>
      <trkpt lat="43.58557" lon="3.35985">
        <ele>170</ele>
        <time>2015-11-14T14:19:50Z</time>
      </trkpt>
      <trkpt lat="43.58553" lon="3.35988">
        <ele>171</ele>
        <time>2015-11-14T14:19:51Z</time>
      </trkpt>
      <trkpt lat="43.58549" lon="3.35991">
        <ele>171</ele>
        <time>2015-11-14T14:19:52Z</time>
      </trkpt>
      <trkpt lat="43.58545" lon="3.35994">
        <ele>171.5</ele>
        <time>2015-11-14T14:19:53Z</time>
      </trkpt>
      <trkpt lat="43.58541" lon="3.35997">
        <ele>171.5</ele>
        <time>2015-11-14T14:19:54Z</time>
      </trkpt>
      <trkpt lat="43.58537" lon="3.35999">
        <ele>171.5</ele>
        <time>2015-11-14T14:19:55Z</time>
      </trkpt>
      <trkpt lat="43.58533" lon="3.36002">
        <ele>171</ele>
        <time>2015-11-14T14:19:56Z</time>
      </trkpt>
      <trkpt lat="43.58529" lon="3.36005">
        <ele>170.5</ele>
        <time>2015-11-14T14:19:57Z</time>
      </trkpt>
      <trkpt lat="43.58525" lon="3.36008">
        <ele>170</ele>
        <time>2015-11-14T14:19:58Z</time>
      </trkpt>
      <trkpt lat="43.58521" lon="3.36011">
        <ele>169.5</ele>
        <time>2015-11-14T14:19:59Z</time>
      </trkpt>
      <trkpt lat="43.58517" lon="3.36015">
        <ele>169.5</ele>
        <time>2015-11-14T14:20:00Z</time>
      </trkpt>
      <trkpt lat="43.58512" lon="3.36018">
        <ele>169.5</ele>
        <time>2015-11-14T14:20:01Z</time>
      </trkpt>
      <trkpt lat="43.58508" lon="3.36022">
        <ele>169.5</ele>
        <time>2015-11-14T14:20:02Z</time>
      </trkpt>
      <trkpt lat="43.58503" lon="3.36027">
        <ele>169.5</ele>
        <time>2015-11-14T14:20:03Z</time>
      </trkpt>
      <trkpt lat="43.58499" lon="3.36031">
        <ele>170</ele>
        <time>2015-11-14T14:20:04Z</time>
      </trkpt>
      <trkpt lat="43.58494" lon="3.36036">
        <ele>170.5</ele>
        <time>2015-11-14T14:20:05Z</time>
      </trkpt>
      <trkpt lat="43.5849" lon="3.3604">
        <ele>171</ele>
        <time>2015-11-14T14:20:06Z</time>
      </trkpt>
      <trkpt lat="43.58486" lon="3.36042">
        <ele>169.5</ele>
        <time>2015-11-14T14:20:07Z</time>
      </trkpt>
      <trkpt lat="43.58482" lon="3.36046">
        <ele>169.5</ele>
        <time>2015-11-14T14:20:08Z</time>
      </trkpt>
      <trkpt lat="43.58478" lon="3.36049">
        <ele>169.5</ele>
        <time>2015-11-14T14:20:09Z</time>
      </trkpt>
      <trkpt lat="43.58474" lon="3.36053">
        <ele>170</ele>
        <time>2015-11-14T14:20:10Z</time>
      </trkpt>
      <trkpt lat="43.5847" lon="3.36057">
        <ele>170.5</ele>
        <time>2015-11-14T14:20:11Z</time>
      </trkpt>
      <trkpt lat="43.58466" lon="3.3606">
        <ele>170.5</ele>
        <time>2015-11-14T14:20:12Z</time>
      </trkpt>
      <trkpt lat="43.58463" lon="3.36064">
        <ele>171</ele>
        <time>2015-11-14T14:20:13Z</time>
      </trkpt>
      <trkpt lat="43.58459" lon="3.36067">
        <ele>171</ele>
        <time>2015-11-14T14:20:14Z</time>
      </trkpt>
      <trkpt lat="43.58455" lon="3.36071">
        <ele>171.5</ele>
        <time>2015-11-14T14:20:15Z</time>
      </trkpt>
      <trkpt lat="43.58452" lon="3.36074">
        <ele>171.5</ele>
        <time>2015-11-14T14:20:16Z</time>
      </trkpt>
      <trkpt lat="43.58448" lon="3.36078">
        <ele>172</ele>
        <time>2015-11-14T14:20:17Z</time>
      </trkpt>
      <trkpt lat="43.58445" lon="3.36081">
        <ele>172</ele>
        <time>2015-11-14T14:20:18Z</time>
      </trkpt>
      <trkpt lat="43.58442" lon="3.36085">
        <ele>172</ele>
        <time>2015-11-14T14:20:19Z</time>
      </trkpt>
      <trkpt lat="43.58439" lon="3.36088">
        <ele>172</ele>
        <time>2015-11-14T14:20:20Z</time>
      </trkpt>
      <trkpt lat="43.58436" lon="3.36092">
        <ele>172</ele>
        <time>2015-11-14T14:20:21Z</time>
      </trkpt>
      <trkpt lat="43.58433" lon="3.36095">
        <ele>171.5</ele>
        <time>2015-11-14T14:20:22Z</time>
      </trkpt>
      <trkpt lat="43.5843" lon="3.36099">
        <ele>172</ele>
        <time>2015-11-14T14:20:23Z</time>
      </trkpt>
      <trkpt lat="43.58427" lon="3.36103">
        <ele>172</ele>
        <time>2015-11-14T14:20:24Z</time>
      </trkpt>
      <trkpt lat="43.58424" lon="3.36108">
        <ele>172</ele>
        <time>2015-11-14T14:20:25Z</time>
      </trkpt>
      <trkpt lat="43.58421" lon="3.36111">
        <ele>172</ele>
        <time>2015-11-14T14:20:26Z</time>
      </trkpt>
      <trkpt lat="43.58417" lon="3.36115">
        <ele>172</ele>
        <time>2015-11-14T14:20:27Z</time>
      </trkpt>
      <trkpt lat="43.58414" lon="3.36119">
        <ele>171.5</ele>
        <time>2015-11-14T14:20:28Z</time>
      </trkpt>
      <trkpt lat="43.58411" lon="3.36123">
        <ele>171.5</ele>
        <time>2015-11-14T14:20:29Z</time>
      </trkpt>
      <trkpt lat="43.58408" lon="3.36127">
        <ele>171.5</ele>
        <time>2015-11-14T14:20:30Z</time>
      </trkpt>
      <trkpt lat="43.58405" lon="3.36131">
        <ele>171.5</ele>
        <time>2015-11-14T14:20:31Z</time>
      </trkpt>
      <trkpt lat="43.58402" lon="3.36134">
        <ele>172</ele>
        <time>2015-11-14T14:20:32Z</time>
      </trkpt>
      <trkpt lat="43.58399" lon="3.3614">
        <ele>172</ele>
        <time>2015-11-14T14:20:33Z</time>
      </trkpt>
      <trkpt lat="43.58396" lon="3.36144">
        <ele>172</ele>
        <time>2015-11-14T14:20:34Z</time>
      </trkpt>
      <trkpt lat="43.58393" lon="3.36148">
        <ele>172.5</ele>
        <time>2015-11-14T14:20:35Z</time>
      </trkpt>
      <trkpt lat="43.5839" lon="3.36153">
        <ele>172.5</ele>
        <time>2015-11-14T14:20:36Z</time>
      </trkpt>
      <trkpt lat="43.58387" lon="3.36157">
        <ele>172.5</ele>
        <time>2015-11-14T14:20:37Z</time>
      </trkpt>
      <trkpt lat="43.58384" lon="3.3616">
        <ele>172</ele>
        <time>2015-11-14T14:20:38Z</time>
      </trkpt>
      <trkpt lat="43.58381" lon="3.36164">
        <ele>172</ele>
        <time>2015-11-14T14:20:39Z</time>
      </trkpt>
      <trkpt lat="43.58378" lon="3.36167">
        <ele>171.5</ele>
        <time>2015-11-14T14:20:40Z</time>
      </trkpt>
      <trkpt lat="43.58374" lon="3.3617">
        <ele>171.5</ele>
        <time>2015-11-14T14:20:41Z</time>
      </trkpt>
      <trkpt lat="43.58371" lon="3.36173">
        <ele>171.5</ele>
        <time>2015-11-14T14:20:42Z</time>
      </trkpt>
      <trkpt lat="43.58367" lon="3.36175">
        <ele>171.5</ele>
        <time>2015-11-14T14:20:43Z</time>
      </trkpt>
      <trkpt lat="43.58363" lon="3.36178">
        <ele>171.5</ele>
        <time>2015-11-14T14:20:44Z</time>
      </trkpt>
      <trkpt lat="43.58359" lon="3.3618">
        <ele>171.5</ele>
        <time>2015-11-14T14:20:45Z</time>
      </trkpt>
      <trkpt lat="43.58354" lon="3.36182">
        <ele>172</ele>
        <time>2015-11-14T14:20:46Z</time>
      </trkpt>
      <trkpt lat="43.5835" lon="3.36184">
        <ele>172</ele>
        <time>2015-11-14T14:20:47Z</time>
      </trkpt>
      <trkpt lat="43.58346" lon="3.36185">
        <ele>172</ele>
        <time>2015-11-14T14:20:48Z</time>
      </trkpt>
      <trkpt lat="43.58342" lon="3.36186">
        <ele>172</ele>
        <time>2015-11-14T14:20:49Z</time>
      </trkpt>
      <trkpt lat="43.58338" lon="3.36188">
        <ele>172</ele>
        <time>2015-11-14T14:20:50Z</time>
      </trkpt>
      <trkpt lat="43.58334" lon="3.36189">
        <ele>172.5</ele>
        <time>2015-11-14T14:20:51Z</time>
      </trkpt>
      <trkpt lat="43.5833" lon="3.3619">
        <ele>172.5</ele>
        <time>2015-11-14T14:20:52Z</time>
      </trkpt>
      <trkpt lat="43.58326" lon="3.36192">
        <ele>172</ele>
        <time>2015-11-14T14:20:53Z</time>
      </trkpt>
      <trkpt lat="43.58322" lon="3.36193">
        <ele>172</ele>
        <time>2015-11-14T14:20:54Z</time>
      </trkpt>
      <trkpt lat="43.58319" lon="3.36194">
        <ele>172</ele>
        <time>2015-11-14T14:20:55Z</time>
      </trkpt>
      <trkpt lat="43.58315" lon="3.36196">
        <ele>172.5</ele>
        <time>2015-11-14T14:20:56Z</time>
      </trkpt>
      <trkpt lat="43.58311" lon="3.36197">
        <ele>172</ele>
        <time>2015-11-14T14:20:57Z</time>
      </trkpt>
      <trkpt lat="43.58307" lon="3.36199">
        <ele>172</ele>
        <time>2015-11-14T14:20:58Z</time>
      </trkpt>
      <trkpt lat="43.58303" lon="3.362">
        <ele>172</ele>
        <time>2015-11-14T14:20:59Z</time>
      </trkpt>
      <trkpt lat="43.58299" lon="3.36202">
        <ele>172.5</ele>
        <time>2015-11-14T14:21:00Z</time>
      </trkpt>
      <trkpt lat="43.58295" lon="3.36203">
        <ele>172</ele>
        <time>2015-11-14T14:21:01Z</time>
      </trkpt>
      <trkpt lat="43.58292" lon="3.36204">
        <ele>172</ele>
        <time>2015-11-14T14:21:02Z</time>
      </trkpt>
      <trkpt lat="43.58288" lon="3.36205">
        <ele>172</ele>
        <time>2015-11-14T14:21:02Z</time>
      </trkpt>
      <trkpt lat="43.58285" lon="3.36206">
        <ele>172</ele>
        <time>2015-11-14T14:21:03Z</time>
      </trkpt>
      <trkpt lat="43.58282" lon="3.36207">
        <ele>172.5</ele>
        <time>2015-11-14T14:21:04Z</time>
      </trkpt>
      <trkpt lat="43.58279" lon="3.36209">
        <ele>172.5</ele>
        <time>2015-11-14T14:21:05Z</time>
      </trkpt>
      <trkpt lat="43.58276" lon="3.3621">
        <ele>172.5</ele>
        <time>2015-11-14T14:21:06Z</time>
      </trkpt>
      <trkpt lat="43.58273" lon="3.36212">
        <ele>172.5</ele>
        <time>2015-11-14T14:21:07Z</time>
      </trkpt>
      <trkpt lat="43.58269" lon="3.36214">
        <ele>172.5</ele>
        <time>2015-11-14T14:21:08Z</time>
      </trkpt>
      <trkpt lat="43.58265" lon="3.36216">
        <ele>172</ele>
        <time>2015-11-14T14:21:09Z</time>
      </trkpt>
      <trkpt lat="43.58262" lon="3.36217">
        <ele>172</ele>
        <time>2015-11-14T14:21:10Z</time>
      </trkpt>
      <trkpt lat="43.58258" lon="3.36219">
        <ele>172</ele>
        <time>2015-11-14T14:21:11Z</time>
      </trkpt>
      <trkpt lat="43.58254" lon="3.36222">
        <ele>172</ele>
        <time>2015-11-14T14:21:12Z</time>
      </trkpt>
      <trkpt lat="43.5825" lon="3.36224">
        <ele>172</ele>
        <time>2015-11-14T14:21:13Z</time>
      </trkpt>
      <trkpt lat="43.58246" lon="3.36226">
        <ele>172</ele>
        <time>2015-11-14T14:21:14Z</time>
      </trkpt>
      <trkpt lat="43.58242" lon="3.36228">
        <ele>171.5</ele>
        <time>2015-11-14T14:21:15Z</time>
      </trkpt>
      <trkpt lat="43.58238" lon="3.3623">
        <ele>171.5</ele>
        <time>2015-11-14T14:21:16Z</time>
      </trkpt>
      <trkpt lat="43.58234" lon="3.36233">
        <ele>171</ele>
        <time>2015-11-14T14:21:17Z</time>
      </trkpt>
      <trkpt lat="43.5823" lon="3.36235">
        <ele>171</ele>
        <time>2015-11-14T14:21:18Z</time>
      </trkpt>
      <trkpt lat="43.58226" lon="3.36238">
        <ele>171</ele>
        <time>2015-11-14T14:21:19Z</time>
      </trkpt>
      <trkpt lat="43.58222" lon="3.3624">
        <ele>171</ele>
        <time>2015-11-14T14:21:20Z</time>
      </trkpt>
      <trkpt lat="43.58217" lon="3.36242">
        <ele>171</ele>
        <time>2015-11-14T14:21:21Z</time>
      </trkpt>
      <trkpt lat="43.58213" lon="3.36245">
        <ele>170.5</ele>
        <time>2015-11-14T14:21:22Z</time>
      </trkpt>
      <trkpt lat="43.58209" lon="3.36248">
        <ele>170.5</ele>
        <time>2015-11-14T14:21:23Z</time>
      </trkpt>
      <trkpt lat="43.58204" lon="3.3625">
        <ele>170.5</ele>
        <time>2015-11-14T14:21:24Z</time>
      </trkpt>
      <trkpt lat="43.582" lon="3.36252">
        <ele>170.5</ele>
        <time>2015-11-14T14:21:25Z</time>
      </trkpt>
      <trkpt lat="43.58196" lon="3.36255">
        <ele>170.5</ele>
        <time>2015-11-14T14:21:26Z</time>
      </trkpt>
      <trkpt lat="43.58191" lon="3.36258">
        <ele>170.5</ele>
        <time>2015-11-14T14:21:27Z</time>
      </trkpt>
      <trkpt lat="43.58187" lon="3.36261">
        <ele>170.5</ele>
        <time>2015-11-14T14:21:28Z</time>
      </trkpt>
      <trkpt lat="43.58182" lon="3.36263">
        <ele>170.5</ele>
        <time>2015-11-14T14:21:29Z</time>
      </trkpt>
      <trkpt lat="43.58178" lon="3.36266">
        <ele>170.5</ele>
        <time>2015-11-14T14:21:30Z</time>
      </trkpt>
      <trkpt lat="43.58174" lon="3.36268">
        <ele>171</ele>
        <time>2015-11-14T14:21:31Z</time>
      </trkpt>
      <trkpt lat="43.58169" lon="3.36271">
        <ele>171</ele>
        <time>2015-11-14T14:21:32Z</time>
      </trkpt>
      <trkpt lat="43.58165" lon="3.36273">
        <ele>171</ele>
        <time>2015-11-14T14:21:33Z</time>
      </trkpt>
      <trkpt lat="43.58161" lon="3.36276">
        <ele>171</ele>
        <time>2015-11-14T14:21:34Z</time>
      </trkpt>
      <trkpt lat="43.58157" lon="3.36278">
        <ele>171</ele>
        <time>2015-11-14T14:21:35Z</time>
      </trkpt>
      <trkpt lat="43.58153" lon="3.36281">
        <ele>170.5</ele>
        <time>2015-11-14T14:21:36Z</time>
      </trkpt>
      <trkpt lat="43.58149" lon="3.36283">
        <ele>170.5</ele>
        <time>2015-11-14T14:21:37Z</time>
      </trkpt>
      <trkpt lat="43.58145" lon="3.36285">
        <ele>170.5</ele>
        <time>2015-11-14T14:21:38Z</time>
      </trkpt>
      <trkpt lat="43.5814" lon="3.36288">
        <ele>170.5</ele>
        <time>2015-11-14T14:21:39Z</time>
      </trkpt>
      <trkpt lat="43.58136" lon="3.3629">
        <ele>170.5</ele>
        <time>2015-11-14T14:21:40Z</time>
      </trkpt>
      <trkpt lat="43.58132" lon="3.36292">
        <ele>170.5</ele>
        <time>2015-11-14T14:21:41Z</time>
      </trkpt>
      <trkpt lat="43.58127" lon="3.36294">
        <ele>170.5</ele>
        <time>2015-11-14T14:21:42Z</time>
      </trkpt>
      <trkpt lat="43.58123" lon="3.36297">
        <ele>170.5</ele>
        <time>2015-11-14T14:21:43Z</time>
      </trkpt>
      <trkpt lat="43.58118" lon="3.36299">
        <ele>170</ele>
        <time>2015-11-14T14:21:44Z</time>
      </trkpt>
      <trkpt lat="43.58114" lon="3.36302">
        <ele>170</ele>
        <time>2015-11-14T14:21:45Z</time>
      </trkpt>
      <trkpt lat="43.58109" lon="3.36304">
        <ele>170</ele>
        <time>2015-11-14T14:21:46Z</time>
      </trkpt>
      <trkpt lat="43.58105" lon="3.36307">
        <ele>170</ele>
        <time>2015-11-14T14:21:47Z</time>
      </trkpt>
      <trkpt lat="43.581" lon="3.36309">
        <ele>170</ele>
        <time>2015-11-14T14:21:48Z</time>
      </trkpt>
      <trkpt lat="43.58096" lon="3.36312">
        <ele>170</ele>
        <time>2015-11-14T14:21:49Z</time>
      </trkpt>
      <trkpt lat="43.58091" lon="3.36314">
        <ele>170</ele>
        <time>2015-11-14T14:21:50Z</time>
      </trkpt>
      <trkpt lat="43.58087" lon="3.36317">
        <ele>170</ele>
        <time>2015-11-14T14:21:51Z</time>
      </trkpt>
      <trkpt lat="43.58082" lon="3.3632">
        <ele>170</ele>
        <time>2015-11-14T14:21:52Z</time>
      </trkpt>
      <trkpt lat="43.58078" lon="3.36322">
        <ele>170</ele>
        <time>2015-11-14T14:21:53Z</time>
      </trkpt>
      <trkpt lat="43.58073" lon="3.36325">
        <ele>169.5</ele>
        <time>2015-11-14T14:21:54Z</time>
      </trkpt>
      <trkpt lat="43.58068" lon="3.36328">
        <ele>169.5</ele>
        <time>2015-11-14T14:21:55Z</time>
      </trkpt>
      <trkpt lat="43.58064" lon="3.3633">
        <ele>169.5</ele>
        <time>2015-11-14T14:21:56Z</time>
      </trkpt>
      <trkpt lat="43.58059" lon="3.36332">
        <ele>169.5</ele>
        <time>2015-11-14T14:21:57Z</time>
      </trkpt>
      <trkpt lat="43.58054" lon="3.36335">
        <ele>169</ele>
        <time>2015-11-14T14:21:58Z</time>
      </trkpt>
      <trkpt lat="43.5805" lon="3.36337">
        <ele>169</ele>
        <time>2015-11-14T14:21:59Z</time>
      </trkpt>
      <trkpt lat="43.58045" lon="3.3634">
        <ele>169</ele>
        <time>2015-11-14T14:22:00Z</time>
      </trkpt>
      <trkpt lat="43.5804" lon="3.36342">
        <ele>169</ele>
        <time>2015-11-14T14:22:01Z</time>
      </trkpt>
      <trkpt lat="43.58036" lon="3.36344">
        <ele>169</ele>
        <time>2015-11-14T14:22:02Z</time>
      </trkpt>
      <trkpt lat="43.58031" lon="3.36346">
        <ele>168.5</ele>
        <time>2015-11-14T14:22:03Z</time>
      </trkpt>
      <trkpt lat="43.58026" lon="3.36348">
        <ele>168.5</ele>
        <time>2015-11-14T14:22:04Z</time>
      </trkpt>
      <trkpt lat="43.58021" lon="3.36349">
        <ele>168</ele>
        <time>2015-11-14T14:22:05Z</time>
      </trkpt>
      <trkpt lat="43.58017" lon="3.3635">
        <ele>168</ele>
        <time>2015-11-14T14:22:06Z</time>
      </trkpt>
      <trkpt lat="43.58012" lon="3.3635">
        <ele>168</ele>
        <time>2015-11-14T14:22:07Z</time>
      </trkpt>
      <trkpt lat="43.58008" lon="3.36351">
        <ele>168</ele>
        <time>2015-11-14T14:22:08Z</time>
      </trkpt>
      <trkpt lat="43.58003" lon="3.36352">
        <ele>167.5</ele>
        <time>2015-11-14T14:22:09Z</time>
      </trkpt>
      <trkpt lat="43.57999" lon="3.36353">
        <ele>167.5</ele>
        <time>2015-11-14T14:22:10Z</time>
      </trkpt>
      <trkpt lat="43.57994" lon="3.36354">
        <ele>167.5</ele>
        <time>2015-11-14T14:22:11Z</time>
      </trkpt>
      <trkpt lat="43.5799" lon="3.36355">
        <ele>167.5</ele>
        <time>2015-11-14T14:22:12Z</time>
      </trkpt>
      <trkpt lat="43.57985" lon="3.36356">
        <ele>167.5</ele>
        <time>2015-11-14T14:22:13Z</time>
      </trkpt>
      <trkpt lat="43.5798" lon="3.36357">
        <ele>167</ele>
        <time>2015-11-14T14:22:14Z</time>
      </trkpt>
      <trkpt lat="43.57976" lon="3.36358">
        <ele>167</ele>
        <time>2015-11-14T14:22:15Z</time>
      </trkpt>
      <trkpt lat="43.57971" lon="3.36358">
        <ele>167</ele>
        <time>2015-11-14T14:22:16Z</time>
      </trkpt>
      <trkpt lat="43.57967" lon="3.3636">
        <ele>167</ele>
        <time>2015-11-14T14:22:17Z</time>
      </trkpt>
      <trkpt lat="43.57962" lon="3.36361">
        <ele>167</ele>
        <time>2015-11-14T14:22:18Z</time>
      </trkpt>
      <trkpt lat="43.57958" lon="3.36361">
        <ele>166.5</ele>
        <time>2015-11-14T14:22:19Z</time>
      </trkpt>
      <trkpt lat="43.57954" lon="3.36362">
        <ele>166.5</ele>
        <time>2015-11-14T14:22:20Z</time>
      </trkpt>
      <trkpt lat="43.57949" lon="3.36363">
        <ele>167</ele>
        <time>2015-11-14T14:22:21Z</time>
      </trkpt>
      <trkpt lat="43.57945" lon="3.36364">
        <ele>167</ele>
        <time>2015-11-14T14:22:22Z</time>
      </trkpt>
      <trkpt lat="43.57941" lon="3.36365">
        <ele>167</ele>
        <time>2015-11-14T14:22:23Z</time>
      </trkpt>
      <trkpt lat="43.57937" lon="3.36366">
        <ele>166.5</ele>
        <time>2015-11-14T14:22:24Z</time>
      </trkpt>
      <trkpt lat="43.57932" lon="3.36366">
        <ele>166.5</ele>
        <time>2015-11-14T14:22:25Z</time>
      </trkpt>
      <trkpt lat="43.57928" lon="3.36367">
        <ele>166.5</ele>
        <time>2015-11-14T14:22:26Z</time>
      </trkpt>
      <trkpt lat="43.57923" lon="3.36368">
        <ele>166.5</ele>
        <time>2015-11-14T14:22:27Z</time>
      </trkpt>
      <trkpt lat="43.57919" lon="3.36369">
        <ele>166.5</ele>
        <time>2015-11-14T14:22:28Z</time>
      </trkpt>
      <trkpt lat="43.57914" lon="3.3637">
        <ele>166.5</ele>
        <time>2015-11-14T14:22:29Z</time>
      </trkpt>
      <trkpt lat="43.5791" lon="3.36372">
        <ele>166.5</ele>
        <time>2015-11-14T14:22:30Z</time>
      </trkpt>
      <trkpt lat="43.57905" lon="3.36373">
        <ele>166.5</ele>
        <time>2015-11-14T14:22:31Z</time>
      </trkpt>
      <trkpt lat="43.57901" lon="3.36374">
        <ele>166.5</ele>
        <time>2015-11-14T14:22:32Z</time>
      </trkpt>
      <trkpt lat="43.57897" lon="3.36375">
        <ele>166.5</ele>
        <time>2015-11-14T14:22:33Z</time>
      </trkpt>
      <trkpt lat="43.57892" lon="3.36375">
        <ele>167</ele>
        <time>2015-11-14T14:22:34Z</time>
      </trkpt>
      <trkpt lat="43.57888" lon="3.36376">
        <ele>167</ele>
        <time>2015-11-14T14:22:35Z</time>
      </trkpt>
      <trkpt lat="43.57884" lon="3.36377">
        <ele>167</ele>
        <time>2015-11-14T14:22:36Z</time>
      </trkpt>
      <trkpt lat="43.5788" lon="3.36378">
        <ele>167</ele>
        <time>2015-11-14T14:22:37Z</time>
      </trkpt>
      <trkpt lat="43.57876" lon="3.36378">
        <ele>167</ele>
        <time>2015-11-14T14:22:38Z</time>
      </trkpt>
      <trkpt lat="43.57872" lon="3.36379">
        <ele>167</ele>
        <time>2015-11-14T14:22:39Z</time>
      </trkpt>
      <trkpt lat="43.57868" lon="3.36379">
        <ele>167.5</ele>
        <time>2015-11-14T14:22:40Z</time>
      </trkpt>
      <trkpt lat="43.57864" lon="3.36378">
        <ele>167.5</ele>
        <time>2015-11-14T14:22:41Z</time>
      </trkpt>
      <trkpt lat="43.57861" lon="3.36376">
        <ele>167.5</ele>
        <time>2015-11-14T14:22:42Z</time>
      </trkpt>
      <trkpt lat="43.57858" lon="3.36372">
        <ele>168</ele>
        <time>2015-11-14T14:22:43Z</time>
      </trkpt>
      <trkpt lat="43.57856" lon="3.36369">
        <ele>168.5</ele>
        <time>2015-11-14T14:22:44Z</time>
      </trkpt>
      <trkpt lat="43.57854" lon="3.36366">
        <ele>168.5</ele>
        <time>2015-11-14T14:22:45Z</time>
      </trkpt>
      <trkpt lat="43.57852" lon="3.36364">
        <ele>168.5</ele>
        <time>2015-11-14T14:22:46Z</time>
      </trkpt>
      <trkpt lat="43.5785" lon="3.36362">
        <ele>169</ele>
        <time>2015-11-14T14:22:47Z</time>
      </trkpt>
      <trkpt lat="43.57849" lon="3.3636">
        <ele>169.5</ele>
        <time>2015-11-14T14:22:48Z</time>
      </trkpt>
      <trkpt lat="43.57847" lon="3.36359">
        <ele>169</ele>
        <time>2015-11-14T14:22:49Z</time>
      </trkpt>
      <trkpt lat="43.57846" lon="3.36358">
        <ele>169.5</ele>
        <time>2015-11-14T14:22:50Z</time>
      </trkpt>
      <trkpt lat="43.57844" lon="3.36356">
        <ele>169.5</ele>
        <time>2015-11-14T14:22:51Z</time>
      </trkpt>
      <trkpt lat="43.57843" lon="3.36355">
        <ele>169.5</ele>
        <time>2015-11-14T14:22:52Z</time>
      </trkpt>
      <trkpt lat="43.57841" lon="3.36353">
        <ele>169.5</ele>
        <time>2015-11-14T14:22:53Z</time>
      </trkpt>
      <trkpt lat="43.57839" lon="3.36351">
        <ele>169.5</ele>
        <time>2015-11-14T14:22:54Z</time>
      </trkpt>
      <trkpt lat="43.57837" lon="3.3635">
        <ele>169.5</ele>
        <time>2015-11-14T14:22:55Z</time>
      </trkpt>
      <trkpt lat="43.57835" lon="3.36347">
        <ele>169.5</ele>
        <time>2015-11-14T14:22:56Z</time>
      </trkpt>
      <trkpt lat="43.57833" lon="3.36345">
        <ele>170</ele>
        <time>2015-11-14T14:22:57Z</time>
      </trkpt>
      <trkpt lat="43.57831" lon="3.36344">
        <ele>170</ele>
        <time>2015-11-14T14:22:58Z</time>
      </trkpt>
      <trkpt lat="43.57828" lon="3.36342">
        <ele>170.5</ele>
        <time>2015-11-14T14:22:59Z</time>
      </trkpt>
      <trkpt lat="43.57826" lon="3.36341">
        <ele>170.5</ele>
        <time>2015-11-14T14:23:00Z</time>
      </trkpt>
      <trkpt lat="43.57823" lon="3.36339">
        <ele>170.5</ele>
        <time>2015-11-14T14:23:01Z</time>
      </trkpt>
      <trkpt lat="43.57821" lon="3.36338">
        <ele>171</ele>
        <time>2015-11-14T14:23:02Z</time>
      </trkpt>
      <trkpt lat="43.57818" lon="3.36336">
        <ele>171</ele>
        <time>2015-11-14T14:23:03Z</time>
      </trkpt>
      <trkpt lat="43.57816" lon="3.36334">
        <ele>171</ele>
        <time>2015-11-14T14:23:04Z</time>
      </trkpt>
      <trkpt lat="43.57814" lon="3.36332">
        <ele>171.5</ele>
        <time>2015-11-14T14:23:05Z</time>
      </trkpt>
      <trkpt lat="43.57811" lon="3.36331">
        <ele>171.5</ele>
        <time>2015-11-14T14:23:06Z</time>
      </trkpt>
      <trkpt lat="43.57809" lon="3.36329">
        <ele>171.5</ele>
        <time>2015-11-14T14:23:07Z</time>
      </trkpt>
      <trkpt lat="43.57806" lon="3.36328">
        <ele>171.5</ele>
        <time>2015-11-14T14:23:08Z</time>
      </trkpt>
      <trkpt lat="43.57804" lon="3.36326">
        <ele>171.5</ele>
        <time>2015-11-14T14:23:09Z</time>
      </trkpt>
      <trkpt lat="43.57802" lon="3.36325">
        <ele>171.5</ele>
        <time>2015-11-14T14:23:10Z</time>
      </trkpt>
      <trkpt lat="43.578" lon="3.36324">
        <ele>172</ele>
        <time>2015-11-14T14:23:11Z</time>
      </trkpt>
      <trkpt lat="43.57798" lon="3.36323">
        <ele>171.5</ele>
        <time>2015-11-14T14:23:12Z</time>
      </trkpt>
      <trkpt lat="43.57796" lon="3.36321">
        <ele>171.5</ele>
        <time>2015-11-14T14:23:13Z</time>
      </trkpt>
      <trkpt lat="43.57794" lon="3.3632">
        <ele>171.5</ele>
        <time>2015-11-14T14:23:14Z</time>
      </trkpt>
      <trkpt lat="43.57792" lon="3.3632">
        <ele>171.5</ele>
        <time>2015-11-14T14:23:15Z</time>
      </trkpt>
      <trkpt lat="43.5779" lon="3.3632">
        <ele>171.5</ele>
        <time>2015-11-14T14:23:16Z</time>
      </trkpt>
      <trkpt lat="43.57788" lon="3.36319">
        <ele>172</ele>
        <time>2015-11-14T14:23:17Z</time>
      </trkpt>
      <trkpt lat="43.57786" lon="3.36318">
        <ele>172</ele>
        <time>2015-11-14T14:23:18Z</time>
      </trkpt>
      <trkpt lat="43.57784" lon="3.36317">
        <ele>172.5</ele>
        <time>2015-11-14T14:23:19Z</time>
      </trkpt>
      <trkpt lat="43.57783" lon="3.36315">
        <ele>172.5</ele>
        <time>2015-11-14T14:23:20Z</time>
      </trkpt>
      <trkpt lat="43.57782" lon="3.36315">
        <ele>172.5</ele>
        <time>2015-11-14T14:23:21Z</time>
      </trkpt>
      <trkpt lat="43.5778" lon="3.36315">
        <ele>172.5</ele>
        <time>2015-11-14T14:23:22Z</time>
      </trkpt>
      <trkpt lat="43.57778" lon="3.36314">
        <ele>172.5</ele>
        <time>2015-11-14T14:23:23Z</time>
      </trkpt>
      <trkpt lat="43.57777" lon="3.36314">
        <ele>172.5</ele>
        <time>2015-11-14T14:23:24Z</time>
      </trkpt>
      <trkpt lat="43.57774" lon="3.36316">
        <ele>173</ele>
        <time>2015-11-14T14:23:25Z</time>
      </trkpt>
      <trkpt lat="43.57772" lon="3.36316">
        <ele>173</ele>
        <time>2015-11-14T14:23:26Z</time>
      </trkpt>
      <trkpt lat="43.5777" lon="3.36317">
        <ele>173</ele>
        <time>2015-11-14T14:23:27Z</time>
      </trkpt>
      <trkpt lat="43.57768" lon="3.36317">
        <ele>173</ele>
        <time>2015-11-14T14:23:28Z</time>
      </trkpt>
      <trkpt lat="43.57765" lon="3.36315">
        <ele>172.5</ele>
        <time>2015-11-14T14:23:29Z</time>
      </trkpt>
      <trkpt lat="43.57763" lon="3.36316">
        <ele>172.5</ele>
        <time>2015-11-14T14:23:30Z</time>
      </trkpt>
      <trkpt lat="43.57757" lon="3.36312">
        <ele>172</ele>
        <time>2015-11-14T14:23:32Z</time>
      </trkpt>
      <trkpt lat="43.57756" lon="3.36309">
        <ele>172</ele>
        <time>2015-11-14T14:23:33Z</time>
      </trkpt>
      <trkpt lat="43.57753" lon="3.36305">
        <ele>172</ele>
        <time>2015-11-14T14:23:34Z</time>
      </trkpt>
      <trkpt lat="43.5775" lon="3.36304">
        <ele>172</ele>
        <time>2015-11-14T14:23:35Z</time>
      </trkpt>
      <trkpt lat="43.57749" lon="3.36303">
        <ele>172</ele>
        <time>2015-11-14T14:23:36Z</time>
      </trkpt>
      <trkpt lat="43.57743" lon="3.36292">
        <ele>172</ele>
        <time>2015-11-14T14:23:38Z</time>
      </trkpt>
      <trkpt lat="43.57742" lon="3.3629">
        <ele>173</ele>
        <time>2015-11-14T14:23:40Z</time>
      </trkpt>
      <trkpt lat="43.57742" lon="3.36288">
        <ele>173</ele>
        <time>2015-11-14T14:23:41Z</time>
      </trkpt>
      <trkpt lat="43.57741" lon="3.36287">
        <ele>173</ele>
        <time>2015-11-14T14:23:42Z</time>
      </trkpt>
      <trkpt lat="43.5774" lon="3.36284">
        <ele>173</ele>
        <time>2015-11-14T14:23:43Z</time>
      </trkpt>
      <trkpt lat="43.57739" lon="3.36282">
        <ele>173</ele>
        <time>2015-11-14T14:23:44Z</time>
      </trkpt>
      <trkpt lat="43.57738" lon="3.36281">
        <ele>173.5</ele>
        <time>2015-11-14T14:23:45Z</time>
      </trkpt>
      <trkpt lat="43.57737" lon="3.3628">
        <ele>174</ele>
        <time>2015-11-14T14:23:46Z</time>
      </trkpt>
      <trkpt lat="43.57735" lon="3.36278">
        <ele>174</ele>
        <time>2015-11-14T14:23:47Z</time>
      </trkpt>
      <trkpt lat="43.57734" lon="3.36276">
        <ele>174</ele>
        <time>2015-11-14T14:23:48Z</time>
      </trkpt>
      <trkpt lat="43.57733" lon="3.36274">
        <ele>175</ele>
        <time>2015-11-14T14:23:49Z</time>
      </trkpt>
      <trkpt lat="43.57733" lon="3.36272">
        <ele>173</ele>
        <time>2015-11-14T14:23:50Z</time>
      </trkpt>
      <trkpt lat="43.57733" lon="3.3627">
        <ele>173</ele>
        <time>2015-11-14T14:23:51Z</time>
      </trkpt>
      <trkpt lat="43.57733" lon="3.36268">
        <ele>173</ele>
        <time>2015-11-14T14:23:52Z</time>
      </trkpt>
      <trkpt lat="43.57733" lon="3.36266">
        <ele>173.5</ele>
        <time>2015-11-14T14:23:53Z</time>
      </trkpt>
      <trkpt lat="43.57733" lon="3.36263">
        <ele>173.5</ele>
        <time>2015-11-14T14:23:54Z</time>
      </trkpt>
      <trkpt lat="43.57733" lon="3.3626">
        <ele>174</ele>
        <time>2015-11-14T14:23:55Z</time>
      </trkpt>
      <trkpt lat="43.57734" lon="3.36259">
        <ele>174.5</ele>
        <time>2015-11-14T14:23:56Z</time>
      </trkpt>
      <trkpt lat="43.57735" lon="3.36257">
        <ele>175</ele>
        <time>2015-11-14T14:23:57Z</time>
      </trkpt>
      <trkpt lat="43.57735" lon="3.36256">
        <ele>175</ele>
        <time>2015-11-14T14:23:58Z</time>
      </trkpt>
      <trkpt lat="43.57735" lon="3.36256">
        <ele>175</ele>
        <time>2015-11-14T14:23:59Z</time>
      </trkpt>
      <trkpt lat="43.57734" lon="3.36255">
        <ele>175.5</ele>
        <time>2015-11-14T14:24:00Z</time>
      </trkpt>
      <trkpt lat="43.57733" lon="3.36256">
        <ele>176</ele>
        <time>2015-11-14T14:24:01Z</time>
      </trkpt>
      <trkpt lat="43.5773" lon="3.36256">
        <ele>178</ele>
        <time>2015-11-14T14:24:05Z</time>
      </trkpt>
      <trkpt lat="43.57731" lon="3.36255">
        <ele>177.5</ele>
        <time>2015-11-14T14:24:08Z</time>
      </trkpt>
      <trkpt lat="43.57733" lon="3.36255">
        <ele>177.5</ele>
        <time>2015-11-14T14:24:12Z</time>
      </trkpt>
      <trkpt lat="43.57733" lon="3.36255">
        <ele>177</ele>
        <time>2015-11-14T14:24:13Z</time>
      </trkpt>
      <trkpt lat="43.57733" lon="3.36255">
        <ele>176</ele>
        <time>2015-11-14T14:24:14Z</time>
      </trkpt>
      <trkpt lat="43.57732" lon="3.36255">
        <ele>175.5</ele>
        <time>2015-11-14T14:24:15Z</time>
      </trkpt>
      <trkpt lat="43.57732" lon="3.36254">
        <ele>173.5</ele>
        <time>2015-11-14T14:24:33Z</time>
      </trkpt>
      <trkpt lat="43.57732" lon="3.36255">
        <ele>173.5</ele>
        <time>2015-11-14T14:24:48Z</time>
      </trkpt>
      <trkpt lat="43.57732" lon="3.36256">
        <ele>173</ele>
        <time>2015-11-14T14:24:49Z</time>
      </trkpt>
      <trkpt lat="43.57732" lon="3.36256">
        <ele>172.5</ele>
        <time>2015-11-14T14:24:53Z</time>
      </trkpt>
      <trkpt lat="43.57732" lon="3.36255">
        <ele>171.5</ele>
        <time>2015-11-14T14:24:56Z</time>
      </trkpt>
      <trkpt lat="43.57732" lon="3.36256">
        <ele>172</ele>
        <time>2015-11-14T14:25:08Z</time>
      </trkpt>
      <trkpt lat="43.57731" lon="3.36256">
        <ele>172</ele>
        <time>2015-11-14T14:25:09Z</time>
      </trkpt>
      <trkpt lat="43.57731" lon="3.36257">
        <ele>172</ele>
        <time>2015-11-14T14:25:17Z</time>
      </trkpt>
    </trkseg>
  </trk>
</gpx>